<?xml version="1.0" encoding="utf-8" standalone="yes"?>
<gpx version="1.1" creator="Locus Map, Android"
 xmlns="http://www.topografix.com/GPX/1/1"
 xmlns:xsi="http://www.w3.org/2001/XMLSchema-instance"
 xsi:schemaLocation="http://www.topografix.com/GPX/1/1 http://www.topografix.com/GPX/1/1/gpx.xsd"
 xmlns:gpxx="http://www.garmin.com/xmlschemas/GpxExtensions/v3"
 xmlns:gpxtrkx="http://www.garmin.com/xmlschemas/TrackStatsExtension/v1"
 xmlns:gpxtpx="http://www.garmin.com/xmlschemas/TrackPointExtension/v2"
 xmlns:locus="http://www.locusmap.eu">
	<metadata>
		<desc>File with points/tracks from Locus Map Classic/3.70.15</desc>
		<time>2025-04-30T14:08:50.158Z</time>
	</metadata>
<trk>
<name>Bivacco Giaol e Rifugio Budec</name>
	<extensions>
		<line xmlns="http://www.topografix.com/GPX/gpx_style/0/2">
			<color>0000FF</color>
			<opacity>0.59</opacity>
			<width>6.0</width>
			<extensions>
				<locus:lsColorBase>#960000FF</locus:lsColorBase>
				<locus:lsWidth>6.0</locus:lsWidth>
				<locus:lsUnits>PIXELS</locus:lsUnits>
			</extensions>
		</line>
		<locus:activity>hiking</locus:activity>
	</extensions>
<trkseg>
<trkpt lat="45.9161270" lon="10.2628720">
	<ele>382.80</ele>
	<time>2025-04-30T05:32:09.000Z</time>
</trkpt>
<trkpt lat="45.9161240" lon="10.2628670">
	<ele>382.80</ele>
	<time>2025-04-30T05:32:10.000Z</time>
</trkpt>
<trkpt lat="45.9161200" lon="10.2628640">
	<ele>382.80</ele>
	<time>2025-04-30T05:32:11.000Z</time>
</trkpt>
<trkpt lat="45.9161050" lon="10.2628480">
	<ele>382.80</ele>
	<time>2025-04-30T05:32:12.000Z</time>
</trkpt>
<trkpt lat="45.9160970" lon="10.2628370">
	<ele>382.60</ele>
	<time>2025-04-30T05:32:13.000Z</time>
</trkpt>
<trkpt lat="45.9161050" lon="10.2628310">
	<ele>382.60</ele>
	<time>2025-04-30T05:32:14.000Z</time>
</trkpt>
<trkpt lat="45.9161050" lon="10.2628300">
	<ele>382.60</ele>
	<time>2025-04-30T05:32:15.000Z</time>
</trkpt>
<trkpt lat="45.9161070" lon="10.2628210">
	<ele>382.40</ele>
	<time>2025-04-30T05:32:16.000Z</time>
</trkpt>
<trkpt lat="45.9161070" lon="10.2628280">
	<ele>382.40</ele>
	<time>2025-04-30T05:32:17.000Z</time>
</trkpt>
<trkpt lat="45.9161050" lon="10.2628300">
	<ele>382.40</ele>
	<time>2025-04-30T05:32:18.000Z</time>
</trkpt>
<trkpt lat="45.9161050" lon="10.2628220">
	<ele>382.20</ele>
	<time>2025-04-30T05:32:19.000Z</time>
</trkpt>
<trkpt lat="45.9161020" lon="10.2628350">
	<ele>382.00</ele>
	<time>2025-04-30T05:32:20.000Z</time>
</trkpt>
<trkpt lat="45.9161030" lon="10.2628450">
	<ele>381.80</ele>
	<time>2025-04-30T05:32:21.000Z</time>
</trkpt>
<trkpt lat="45.9160960" lon="10.2628550">
	<ele>382.80</ele>
	<time>2025-04-30T05:32:22.000Z</time>
</trkpt>
<trkpt lat="45.9160890" lon="10.2628610">
	<ele>382.80</ele>
	<time>2025-04-30T05:32:23.000Z</time>
</trkpt>
<trkpt lat="45.9160970" lon="10.2628530">
	<ele>382.80</ele>
	<time>2025-04-30T05:32:24.000Z</time>
</trkpt>
<trkpt lat="45.9160970" lon="10.2628440">
	<ele>382.80</ele>
	<time>2025-04-30T05:32:25.000Z</time>
</trkpt>
<trkpt lat="45.9160920" lon="10.2628470">
	<ele>382.60</ele>
	<time>2025-04-30T05:32:26.000Z</time>
</trkpt>
<trkpt lat="45.9160870" lon="10.2628490">
	<ele>382.60</ele>
	<time>2025-04-30T05:32:27.000Z</time>
</trkpt>
<trkpt lat="45.9160860" lon="10.2628470">
	<ele>382.60</ele>
	<time>2025-04-30T05:32:28.000Z</time>
</trkpt>
<trkpt lat="45.9160820" lon="10.2628410">
	<ele>382.60</ele>
	<time>2025-04-30T05:32:29.000Z</time>
</trkpt>
<trkpt lat="45.9160800" lon="10.2628330">
	<ele>382.40</ele>
	<time>2025-04-30T05:32:30.000Z</time>
</trkpt>
<trkpt lat="45.9161010" lon="10.2628170">
	<ele>382.60</ele>
	<time>2025-04-30T05:32:31.000Z</time>
</trkpt>
<trkpt lat="45.9161210" lon="10.2628100">
	<ele>382.60</ele>
	<time>2025-04-30T05:32:32.000Z</time>
</trkpt>
<trkpt lat="45.9161350" lon="10.2627970">
	<ele>382.60</ele>
	<time>2025-04-30T05:32:33.000Z</time>
</trkpt>
<trkpt lat="45.9161440" lon="10.2627890">
	<ele>382.60</ele>
	<time>2025-04-30T05:32:34.000Z</time>
</trkpt>
<trkpt lat="45.9161580" lon="10.2627840">
	<ele>382.60</ele>
	<time>2025-04-30T05:32:35.000Z</time>
</trkpt>
<trkpt lat="45.9161520" lon="10.2627860">
	<ele>382.40</ele>
	<time>2025-04-30T05:32:36.000Z</time>
</trkpt>
<trkpt lat="45.9161770" lon="10.2627950">
	<ele>382.40</ele>
	<time>2025-04-30T05:32:37.000Z</time>
</trkpt>
<trkpt lat="45.9161540" lon="10.2628030">
	<ele>382.60</ele>
	<time>2025-04-30T05:32:38.000Z</time>
</trkpt>
<trkpt lat="45.9161460" lon="10.2628020">
	<ele>382.60</ele>
	<time>2025-04-30T05:32:39.000Z</time>
</trkpt>
<trkpt lat="45.9161560" lon="10.2628040">
	<ele>382.60</ele>
	<time>2025-04-30T05:32:40.000Z</time>
</trkpt>
<trkpt lat="45.9161680" lon="10.2628090">
	<ele>382.40</ele>
	<time>2025-04-30T05:32:41.000Z</time>
</trkpt>
<trkpt lat="45.9161790" lon="10.2628160">
	<ele>382.40</ele>
	<time>2025-04-30T05:32:42.000Z</time>
</trkpt>
<trkpt lat="45.9161850" lon="10.2628170">
	<ele>382.40</ele>
	<time>2025-04-30T05:32:43.000Z</time>
</trkpt>
<trkpt lat="45.9161940" lon="10.2628200">
	<ele>382.40</ele>
	<time>2025-04-30T05:32:44.000Z</time>
</trkpt>
<trkpt lat="45.9162070" lon="10.2628210">
	<ele>382.40</ele>
	<time>2025-04-30T05:32:45.000Z</time>
</trkpt>
<trkpt lat="45.9162330" lon="10.2628060">
	<ele>382.40</ele>
	<time>2025-04-30T05:32:46.000Z</time>
</trkpt>
<trkpt lat="45.9162520" lon="10.2627990">
	<ele>382.40</ele>
	<time>2025-04-30T05:32:47.000Z</time>
</trkpt>
<trkpt lat="45.9162700" lon="10.2627900">
	<ele>382.40</ele>
	<time>2025-04-30T05:32:48.000Z</time>
</trkpt>
<trkpt lat="45.9162860" lon="10.2627800">
	<ele>382.40</ele>
	<time>2025-04-30T05:32:49.000Z</time>
</trkpt>
<trkpt lat="45.9163030" lon="10.2627550">
	<ele>382.40</ele>
	<time>2025-04-30T05:32:50.000Z</time>
</trkpt>
<trkpt lat="45.9163190" lon="10.2627230">
	<ele>382.60</ele>
	<time>2025-04-30T05:32:51.000Z</time>
</trkpt>
<trkpt lat="45.9163420" lon="10.2626920">
	<ele>382.60</ele>
	<time>2025-04-30T05:32:52.000Z</time>
</trkpt>
<trkpt lat="45.9163520" lon="10.2626860">
	<ele>382.60</ele>
	<time>2025-04-30T05:32:53.000Z</time>
</trkpt>
<trkpt lat="45.9163640" lon="10.2626750">
	<ele>382.60</ele>
	<time>2025-04-30T05:32:54.000Z</time>
</trkpt>
<trkpt lat="45.9163820" lon="10.2626380">
	<ele>382.60</ele>
	<time>2025-04-30T05:32:55.000Z</time>
</trkpt>
<trkpt lat="45.9163900" lon="10.2626130">
	<ele>382.80</ele>
	<time>2025-04-30T05:32:56.000Z</time>
</trkpt>
<trkpt lat="45.9164000" lon="10.2625990">
	<ele>382.80</ele>
	<time>2025-04-30T05:32:57.000Z</time>
</trkpt>
<trkpt lat="45.9164100" lon="10.2625910">
	<ele>383.00</ele>
	<time>2025-04-30T05:32:58.000Z</time>
</trkpt>
<trkpt lat="45.9164100" lon="10.2626080">
	<ele>383.00</ele>
	<time>2025-04-30T05:32:59.000Z</time>
</trkpt>
<trkpt lat="45.9164320" lon="10.2625950">
	<ele>383.00</ele>
	<time>2025-04-30T05:33:00.000Z</time>
</trkpt>
<trkpt lat="45.9164470" lon="10.2625890">
	<ele>383.00</ele>
	<time>2025-04-30T05:33:01.000Z</time>
</trkpt>
<trkpt lat="45.9164790" lon="10.2625710">
	<ele>383.00</ele>
	<time>2025-04-30T05:33:02.000Z</time>
</trkpt>
<trkpt lat="45.9165120" lon="10.2625480">
	<ele>383.00</ele>
	<time>2025-04-30T05:33:03.000Z</time>
</trkpt>
<trkpt lat="45.9165460" lon="10.2625240">
	<ele>383.20</ele>
	<time>2025-04-30T05:33:04.000Z</time>
</trkpt>
<trkpt lat="45.9165630" lon="10.2625240">
	<ele>383.20</ele>
	<time>2025-04-30T05:33:05.000Z</time>
</trkpt>
<trkpt lat="45.9165850" lon="10.2625230">
	<ele>383.40</ele>
	<time>2025-04-30T05:33:06.000Z</time>
</trkpt>
<trkpt lat="45.9166250" lon="10.2625130">
	<ele>383.60</ele>
	<time>2025-04-30T05:33:07.000Z</time>
</trkpt>
<trkpt lat="45.9166520" lon="10.2625100">
	<ele>383.80</ele>
	<time>2025-04-30T05:33:08.000Z</time>
</trkpt>
<trkpt lat="45.9166410" lon="10.2625260">
	<ele>383.80</ele>
	<time>2025-04-30T05:33:09.000Z</time>
</trkpt>
<trkpt lat="45.9166080" lon="10.2625380">
	<ele>384.00</ele>
	<time>2025-04-30T05:33:10.000Z</time>
</trkpt>
<trkpt lat="45.9165410" lon="10.2625240">
	<ele>383.20</ele>
	<time>2025-04-30T05:33:17.000Z</time>
</trkpt>
<trkpt lat="45.9167380" lon="10.2624720">
	<ele>383.20</ele>
	<time>2025-04-30T05:33:19.000Z</time>
</trkpt>
<trkpt lat="45.9168300" lon="10.2624390">
	<ele>383.20</ele>
	<time>2025-04-30T05:33:20.000Z</time>
</trkpt>
<trkpt lat="45.9175190" lon="10.2621510">
	<ele>384.00</ele>
	<time>2025-04-30T05:33:28.000Z</time>
</trkpt>
<trkpt lat="45.9176860" lon="10.2621160">
	<ele>384.20</ele>
	<time>2025-04-30T05:33:31.000Z</time>
</trkpt>
<trkpt lat="45.9176060" lon="10.2621350">
	<ele>393.40</ele>
	<time>2025-04-30T05:35:02.000Z</time>
</trkpt>
<trkpt lat="45.9176040" lon="10.2621300">
	<ele>393.40</ele>
	<time>2025-04-30T05:35:03.000Z</time>
</trkpt>
<trkpt lat="45.9176060" lon="10.2621290">
	<ele>393.40</ele>
	<time>2025-04-30T05:35:04.000Z</time>
</trkpt>
<trkpt lat="45.9176130" lon="10.2621260">
	<ele>393.40</ele>
	<time>2025-04-30T05:35:05.000Z</time>
</trkpt>
<trkpt lat="45.9176180" lon="10.2621210">
	<ele>393.40</ele>
	<time>2025-04-30T05:35:06.000Z</time>
</trkpt>
<trkpt lat="45.9176250" lon="10.2621250">
	<ele>393.40</ele>
	<time>2025-04-30T05:35:07.000Z</time>
</trkpt>
<trkpt lat="45.9176280" lon="10.2621230">
	<ele>393.40</ele>
	<time>2025-04-30T05:35:08.000Z</time>
</trkpt>
<trkpt lat="45.9176200" lon="10.2621220">
	<ele>393.60</ele>
	<time>2025-04-30T05:35:09.000Z</time>
</trkpt>
<trkpt lat="45.9176090" lon="10.2621130">
	<ele>393.60</ele>
	<time>2025-04-30T05:35:10.000Z</time>
</trkpt>
<trkpt lat="45.9176030" lon="10.2621010">
	<ele>393.60</ele>
	<time>2025-04-30T05:35:11.000Z</time>
</trkpt>
<trkpt lat="45.9176110" lon="10.2620890">
	<ele>393.60</ele>
	<time>2025-04-30T05:35:12.000Z</time>
</trkpt>
<trkpt lat="45.9175960" lon="10.2620800">
	<ele>393.60</ele>
	<time>2025-04-30T05:35:13.000Z</time>
</trkpt>
<trkpt lat="45.9175450" lon="10.2620760">
	<ele>393.60</ele>
	<time>2025-04-30T05:35:14.000Z</time>
</trkpt>
<trkpt lat="45.9175110" lon="10.2620700">
	<ele>393.80</ele>
	<time>2025-04-30T05:35:15.000Z</time>
</trkpt>
<trkpt lat="45.9174780" lon="10.2620630">
	<ele>393.80</ele>
	<time>2025-04-30T05:35:16.000Z</time>
</trkpt>
<trkpt lat="45.9174600" lon="10.2620570">
	<ele>394.00</ele>
	<time>2025-04-30T05:35:17.000Z</time>
</trkpt>
<trkpt lat="45.9174520" lon="10.2620490">
	<ele>394.20</ele>
	<time>2025-04-30T05:35:18.000Z</time>
</trkpt>
<trkpt lat="45.9174710" lon="10.2620330">
	<ele>394.20</ele>
	<time>2025-04-30T05:35:19.000Z</time>
</trkpt>
<trkpt lat="45.9174810" lon="10.2620240">
	<ele>394.40</ele>
	<time>2025-04-30T05:35:20.000Z</time>
</trkpt>
<trkpt lat="45.9174960" lon="10.2620180">
	<ele>394.60</ele>
	<time>2025-04-30T05:35:21.000Z</time>
</trkpt>
<trkpt lat="45.9174910" lon="10.2620240">
	<ele>394.80</ele>
	<time>2025-04-30T05:35:22.000Z</time>
</trkpt>
<trkpt lat="45.9174910" lon="10.2620280">
	<ele>395.20</ele>
	<time>2025-04-30T05:35:23.000Z</time>
</trkpt>
<trkpt lat="45.9175060" lon="10.2620230">
	<ele>395.40</ele>
	<time>2025-04-30T05:35:24.000Z</time>
</trkpt>
<trkpt lat="45.9175100" lon="10.2620160">
	<ele>395.60</ele>
	<time>2025-04-30T05:35:25.000Z</time>
</trkpt>
<trkpt lat="45.9174900" lon="10.2620100">
	<ele>395.80</ele>
	<time>2025-04-30T05:35:26.000Z</time>
</trkpt>
<trkpt lat="45.9174780" lon="10.2619990">
	<ele>396.00</ele>
	<time>2025-04-30T05:35:27.000Z</time>
</trkpt>
<trkpt lat="45.9174800" lon="10.2619840">
	<ele>396.40</ele>
	<time>2025-04-30T05:35:28.000Z</time>
</trkpt>
<trkpt lat="45.9174690" lon="10.2619710">
	<ele>396.40</ele>
	<time>2025-04-30T05:35:29.000Z</time>
</trkpt>
<trkpt lat="45.9174630" lon="10.2619600">
	<ele>396.80</ele>
	<time>2025-04-30T05:35:30.000Z</time>
</trkpt>
<trkpt lat="45.9174450" lon="10.2619480">
	<ele>397.00</ele>
	<time>2025-04-30T05:35:31.000Z</time>
</trkpt>
<trkpt lat="45.9174300" lon="10.2619400">
	<ele>397.20</ele>
	<time>2025-04-30T05:35:32.000Z</time>
</trkpt>
<trkpt lat="45.9174170" lon="10.2619300">
	<ele>397.40</ele>
	<time>2025-04-30T05:35:33.000Z</time>
</trkpt>
<trkpt lat="45.9174120" lon="10.2619200">
	<ele>397.40</ele>
	<time>2025-04-30T05:35:34.000Z</time>
</trkpt>
<trkpt lat="45.9174030" lon="10.2619080">
	<ele>397.80</ele>
	<time>2025-04-30T05:35:35.000Z</time>
</trkpt>
<trkpt lat="45.9174130" lon="10.2618910">
	<ele>398.00</ele>
	<time>2025-04-30T05:35:36.000Z</time>
</trkpt>
<trkpt lat="45.9174280" lon="10.2618710">
	<ele>398.20</ele>
	<time>2025-04-30T05:35:37.000Z</time>
</trkpt>
<trkpt lat="45.9174270" lon="10.2618580">
	<ele>398.20</ele>
	<time>2025-04-30T05:35:38.000Z</time>
</trkpt>
<trkpt lat="45.9174230" lon="10.2618470">
	<ele>398.40</ele>
	<time>2025-04-30T05:35:39.000Z</time>
</trkpt>
<trkpt lat="45.9174200" lon="10.2618370">
	<ele>398.40</ele>
	<time>2025-04-30T05:35:40.000Z</time>
</trkpt>
<trkpt lat="45.9174260" lon="10.2618230">
	<ele>398.80</ele>
	<time>2025-04-30T05:35:41.000Z</time>
</trkpt>
<trkpt lat="45.9174260" lon="10.2618120">
	<ele>398.80</ele>
	<time>2025-04-30T05:35:42.000Z</time>
</trkpt>
<trkpt lat="45.9174280" lon="10.2617940">
	<ele>399.20</ele>
	<time>2025-04-30T05:35:43.000Z</time>
</trkpt>
<trkpt lat="45.9174270" lon="10.2617820">
	<ele>399.20</ele>
	<time>2025-04-30T05:35:44.000Z</time>
</trkpt>
<trkpt lat="45.9174250" lon="10.2617690">
	<ele>399.40</ele>
	<time>2025-04-30T05:35:45.000Z</time>
</trkpt>
<trkpt lat="45.9174390" lon="10.2617550">
	<ele>399.60</ele>
	<time>2025-04-30T05:35:46.000Z</time>
</trkpt>
<trkpt lat="45.9174480" lon="10.2617400">
	<ele>399.60</ele>
	<time>2025-04-30T05:35:47.000Z</time>
</trkpt>
<trkpt lat="45.9174680" lon="10.2617250">
	<ele>399.80</ele>
	<time>2025-04-30T05:35:48.000Z</time>
</trkpt>
<trkpt lat="45.9174720" lon="10.2617130">
	<ele>400.00</ele>
	<time>2025-04-30T05:35:49.000Z</time>
</trkpt>
<trkpt lat="45.9174750" lon="10.2616980">
	<ele>400.20</ele>
	<time>2025-04-30T05:35:50.000Z</time>
</trkpt>
<trkpt lat="45.9174770" lon="10.2616870">
	<ele>400.40</ele>
	<time>2025-04-30T05:35:51.000Z</time>
</trkpt>
<trkpt lat="45.9174820" lon="10.2616800">
	<ele>400.40</ele>
	<time>2025-04-30T05:35:52.000Z</time>
</trkpt>
<trkpt lat="45.9174980" lon="10.2616640">
	<ele>400.60</ele>
	<time>2025-04-30T05:35:53.000Z</time>
</trkpt>
<trkpt lat="45.9175050" lon="10.2616490">
	<ele>400.80</ele>
	<time>2025-04-30T05:35:54.000Z</time>
</trkpt>
<trkpt lat="45.9175100" lon="10.2616280">
	<ele>401.00</ele>
	<time>2025-04-30T05:35:55.000Z</time>
</trkpt>
<trkpt lat="45.9175280" lon="10.2616080">
	<ele>401.40</ele>
	<time>2025-04-30T05:35:56.000Z</time>
</trkpt>
<trkpt lat="45.9175460" lon="10.2615910">
	<ele>401.60</ele>
	<time>2025-04-30T05:35:57.000Z</time>
</trkpt>
<trkpt lat="45.9175510" lon="10.2615770">
	<ele>401.80</ele>
	<time>2025-04-30T05:35:58.000Z</time>
</trkpt>
<trkpt lat="45.9175530" lon="10.2615650">
	<ele>402.00</ele>
	<time>2025-04-30T05:35:59.000Z</time>
</trkpt>
<trkpt lat="45.9175750" lon="10.2615510">
	<ele>402.20</ele>
	<time>2025-04-30T05:36:00.000Z</time>
</trkpt>
<trkpt lat="45.9175960" lon="10.2615350">
	<ele>402.40</ele>
	<time>2025-04-30T05:36:01.000Z</time>
</trkpt>
<trkpt lat="45.9176130" lon="10.2615270">
	<ele>402.40</ele>
	<time>2025-04-30T05:36:02.000Z</time>
</trkpt>
<trkpt lat="45.9176330" lon="10.2615110">
	<ele>402.60</ele>
	<time>2025-04-30T05:36:03.000Z</time>
</trkpt>
<trkpt lat="45.9176360" lon="10.2615000">
	<ele>402.80</ele>
	<time>2025-04-30T05:36:04.000Z</time>
</trkpt>
<trkpt lat="45.9176430" lon="10.2614830">
	<ele>403.00</ele>
	<time>2025-04-30T05:36:05.000Z</time>
</trkpt>
<trkpt lat="45.9176510" lon="10.2614640">
	<ele>403.20</ele>
	<time>2025-04-30T05:36:06.000Z</time>
</trkpt>
<trkpt lat="45.9176320" lon="10.2614510">
	<ele>403.40</ele>
	<time>2025-04-30T05:36:07.000Z</time>
</trkpt>
<trkpt lat="45.9176130" lon="10.2614370">
	<ele>403.40</ele>
	<time>2025-04-30T05:36:08.000Z</time>
</trkpt>
<trkpt lat="45.9176090" lon="10.2614240">
	<ele>403.80</ele>
	<time>2025-04-30T05:36:09.000Z</time>
</trkpt>
<trkpt lat="45.9176090" lon="10.2614110">
	<ele>404.00</ele>
	<time>2025-04-30T05:36:10.000Z</time>
</trkpt>
<trkpt lat="45.9176160" lon="10.2613970">
	<ele>404.20</ele>
	<time>2025-04-30T05:36:11.000Z</time>
</trkpt>
<trkpt lat="45.9176530" lon="10.2613770">
	<ele>404.40</ele>
	<time>2025-04-30T05:36:12.000Z</time>
</trkpt>
<trkpt lat="45.9176770" lon="10.2613590">
	<ele>404.40</ele>
	<time>2025-04-30T05:36:13.000Z</time>
</trkpt>
<trkpt lat="45.9176970" lon="10.2613410">
	<ele>404.60</ele>
	<time>2025-04-30T05:36:14.000Z</time>
</trkpt>
<trkpt lat="45.9176960" lon="10.2613300">
	<ele>405.00</ele>
	<time>2025-04-30T05:36:15.000Z</time>
</trkpt>
<trkpt lat="45.9177100" lon="10.2613150">
	<ele>405.20</ele>
	<time>2025-04-30T05:36:16.000Z</time>
</trkpt>
<trkpt lat="45.9176540" lon="10.2613120">
	<ele>405.40</ele>
	<time>2025-04-30T05:36:17.000Z</time>
</trkpt>
<trkpt lat="45.9176000" lon="10.2612940">
	<ele>405.60</ele>
	<time>2025-04-30T05:36:18.000Z</time>
</trkpt>
<trkpt lat="45.9175550" lon="10.2612690">
	<ele>405.80</ele>
	<time>2025-04-30T05:36:19.000Z</time>
</trkpt>
<trkpt lat="45.9175550" lon="10.2612510">
	<ele>405.80</ele>
	<time>2025-04-30T05:36:20.000Z</time>
</trkpt>
<trkpt lat="45.9175390" lon="10.2612340">
	<ele>406.00</ele>
	<time>2025-04-30T05:36:21.000Z</time>
</trkpt>
<trkpt lat="45.9175370" lon="10.2612170">
	<ele>406.00</ele>
	<time>2025-04-30T05:36:22.000Z</time>
</trkpt>
<trkpt lat="45.9175390" lon="10.2612080">
	<ele>406.20</ele>
	<time>2025-04-30T05:36:23.000Z</time>
</trkpt>
<trkpt lat="45.9175260" lon="10.2612020">
	<ele>406.40</ele>
	<time>2025-04-30T05:36:24.000Z</time>
</trkpt>
<trkpt lat="45.9175180" lon="10.2611950">
	<ele>406.80</ele>
	<time>2025-04-30T05:36:25.000Z</time>
</trkpt>
<trkpt lat="45.9175100" lon="10.2611880">
	<ele>407.00</ele>
	<time>2025-04-30T05:36:26.000Z</time>
</trkpt>
<trkpt lat="45.9175150" lon="10.2611730">
	<ele>407.20</ele>
	<time>2025-04-30T05:36:27.000Z</time>
</trkpt>
<trkpt lat="45.9175260" lon="10.2611570">
	<ele>407.40</ele>
	<time>2025-04-30T05:36:28.000Z</time>
</trkpt>
<trkpt lat="45.9175380" lon="10.2611400">
	<ele>407.40</ele>
	<time>2025-04-30T05:36:29.000Z</time>
</trkpt>
<trkpt lat="45.9175420" lon="10.2611160">
	<ele>407.40</ele>
	<time>2025-04-30T05:36:30.000Z</time>
</trkpt>
<trkpt lat="45.9175520" lon="10.2610900">
	<ele>407.60</ele>
	<time>2025-04-30T05:36:31.000Z</time>
</trkpt>
<trkpt lat="45.9175630" lon="10.2610630">
	<ele>407.80</ele>
	<time>2025-04-30T05:36:32.000Z</time>
</trkpt>
<trkpt lat="45.9175770" lon="10.2610470">
	<ele>408.20</ele>
	<time>2025-04-30T05:36:33.000Z</time>
</trkpt>
<trkpt lat="45.9175960" lon="10.2610300">
	<ele>408.20</ele>
	<time>2025-04-30T05:36:34.000Z</time>
</trkpt>
<trkpt lat="45.9176110" lon="10.2610130">
	<ele>408.40</ele>
	<time>2025-04-30T05:36:35.000Z</time>
</trkpt>
<trkpt lat="45.9176410" lon="10.2609900">
	<ele>408.80</ele>
	<time>2025-04-30T05:36:36.000Z</time>
</trkpt>
<trkpt lat="45.9176660" lon="10.2609740">
	<ele>409.00</ele>
	<time>2025-04-30T05:36:37.000Z</time>
</trkpt>
<trkpt lat="45.9176620" lon="10.2609680">
	<ele>409.20</ele>
	<time>2025-04-30T05:36:38.000Z</time>
</trkpt>
<trkpt lat="45.9176310" lon="10.2609660">
	<ele>409.40</ele>
	<time>2025-04-30T05:36:39.000Z</time>
</trkpt>
<trkpt lat="45.9176040" lon="10.2609620">
	<ele>409.40</ele>
	<time>2025-04-30T05:36:40.000Z</time>
</trkpt>
<trkpt lat="45.9176010" lon="10.2609530">
	<ele>409.60</ele>
	<time>2025-04-30T05:36:41.000Z</time>
</trkpt>
<trkpt lat="45.9176190" lon="10.2609360">
	<ele>409.80</ele>
	<time>2025-04-30T05:36:42.000Z</time>
</trkpt>
<trkpt lat="45.9176330" lon="10.2609220">
	<ele>410.00</ele>
	<time>2025-04-30T05:36:43.000Z</time>
</trkpt>
<trkpt lat="45.9176430" lon="10.2609080">
	<ele>410.20</ele>
	<time>2025-04-30T05:36:44.000Z</time>
</trkpt>
<trkpt lat="45.9176430" lon="10.2609030">
	<ele>410.40</ele>
	<time>2025-04-30T05:36:45.000Z</time>
</trkpt>
<trkpt lat="45.9176430" lon="10.2608980">
	<ele>410.80</ele>
	<time>2025-04-30T05:36:46.000Z</time>
</trkpt>
<trkpt lat="45.9176410" lon="10.2608930">
	<ele>411.20</ele>
	<time>2025-04-30T05:36:48.000Z</time>
</trkpt>
<trkpt lat="45.9176800" lon="10.2608820">
	<ele>411.40</ele>
	<time>2025-04-30T05:36:49.000Z</time>
</trkpt>
<trkpt lat="45.9177360" lon="10.2608660">
	<ele>411.60</ele>
	<time>2025-04-30T05:36:50.000Z</time>
</trkpt>
<trkpt lat="45.9177810" lon="10.2608510">
	<ele>411.80</ele>
	<time>2025-04-30T05:36:51.000Z</time>
</trkpt>
<trkpt lat="45.9178200" lon="10.2608350">
	<ele>412.00</ele>
	<time>2025-04-30T05:36:52.000Z</time>
</trkpt>
<trkpt lat="45.9178260" lon="10.2608200">
	<ele>412.00</ele>
	<time>2025-04-30T05:36:53.000Z</time>
</trkpt>
<trkpt lat="45.9178420" lon="10.2608070">
	<ele>412.40</ele>
	<time>2025-04-30T05:36:54.000Z</time>
</trkpt>
<trkpt lat="45.9178500" lon="10.2607990">
	<ele>412.60</ele>
	<time>2025-04-30T05:36:55.000Z</time>
</trkpt>
<trkpt lat="45.9178600" lon="10.2607950">
	<ele>412.80</ele>
	<time>2025-04-30T05:36:56.000Z</time>
</trkpt>
<trkpt lat="45.9178700" lon="10.2607850">
	<ele>413.00</ele>
	<time>2025-04-30T05:36:57.000Z</time>
</trkpt>
<trkpt lat="45.9178750" lon="10.2607750">
	<ele>413.00</ele>
	<time>2025-04-30T05:36:58.000Z</time>
</trkpt>
<trkpt lat="45.9178590" lon="10.2607700">
	<ele>413.20</ele>
	<time>2025-04-30T05:36:59.000Z</time>
</trkpt>
<trkpt lat="45.9178570" lon="10.2607740">
	<ele>413.40</ele>
	<time>2025-04-30T05:37:00.000Z</time>
</trkpt>
<trkpt lat="45.9178530" lon="10.2607710">
	<ele>413.80</ele>
	<time>2025-04-30T05:37:01.000Z</time>
</trkpt>
<trkpt lat="45.9178600" lon="10.2607640">
	<ele>414.00</ele>
	<time>2025-04-30T05:37:02.000Z</time>
</trkpt>
<trkpt lat="45.9178700" lon="10.2607590">
	<ele>414.40</ele>
	<time>2025-04-30T05:37:03.000Z</time>
</trkpt>
<trkpt lat="45.9178720" lon="10.2607560">
	<ele>414.60</ele>
	<time>2025-04-30T05:37:04.000Z</time>
</trkpt>
<trkpt lat="45.9178950" lon="10.2607400">
	<ele>414.60</ele>
	<time>2025-04-30T05:37:05.000Z</time>
</trkpt>
<trkpt lat="45.9178970" lon="10.2607310">
	<ele>414.80</ele>
	<time>2025-04-30T05:37:06.000Z</time>
</trkpt>
<trkpt lat="45.9178920" lon="10.2607160">
	<ele>415.00</ele>
	<time>2025-04-30T05:37:07.000Z</time>
</trkpt>
<trkpt lat="45.9178820" lon="10.2607040">
	<ele>415.00</ele>
	<time>2025-04-30T05:37:08.000Z</time>
</trkpt>
<trkpt lat="45.9178530" lon="10.2606910">
	<ele>415.40</ele>
	<time>2025-04-30T05:37:09.000Z</time>
</trkpt>
<trkpt lat="45.9178400" lon="10.2606770">
	<ele>415.60</ele>
	<time>2025-04-30T05:37:10.000Z</time>
</trkpt>
<trkpt lat="45.9178260" lon="10.2606580">
	<ele>416.00</ele>
	<time>2025-04-30T05:37:11.000Z</time>
</trkpt>
<trkpt lat="45.9178130" lon="10.2606410">
	<ele>416.20</ele>
	<time>2025-04-30T05:37:12.000Z</time>
</trkpt>
<trkpt lat="45.9178030" lon="10.2606350">
	<ele>416.20</ele>
	<time>2025-04-30T05:37:13.000Z</time>
</trkpt>
<trkpt lat="45.9177940" lon="10.2606250">
	<ele>416.40</ele>
	<time>2025-04-30T05:37:14.000Z</time>
</trkpt>
<trkpt lat="45.9177820" lon="10.2606090">
	<ele>416.60</ele>
	<time>2025-04-30T05:37:15.000Z</time>
</trkpt>
<trkpt lat="45.9177930" lon="10.2605950">
	<ele>416.80</ele>
	<time>2025-04-30T05:37:16.000Z</time>
</trkpt>
<trkpt lat="45.9178140" lon="10.2605930">
	<ele>417.00</ele>
	<time>2025-04-30T05:37:17.000Z</time>
</trkpt>
<trkpt lat="45.9178420" lon="10.2605830">
	<ele>417.20</ele>
	<time>2025-04-30T05:37:18.000Z</time>
</trkpt>
<trkpt lat="45.9178480" lon="10.2605720">
	<ele>417.40</ele>
	<time>2025-04-30T05:37:19.000Z</time>
</trkpt>
<trkpt lat="45.9178580" lon="10.2605570">
	<ele>417.60</ele>
	<time>2025-04-30T05:37:20.000Z</time>
</trkpt>
<trkpt lat="45.9178580" lon="10.2605470">
	<ele>417.80</ele>
	<time>2025-04-30T05:37:21.000Z</time>
</trkpt>
<trkpt lat="45.9178540" lon="10.2605400">
	<ele>418.00</ele>
	<time>2025-04-30T05:37:22.000Z</time>
</trkpt>
<trkpt lat="45.9178560" lon="10.2605390">
	<ele>418.40</ele>
	<time>2025-04-30T05:37:23.000Z</time>
</trkpt>
<trkpt lat="45.9178490" lon="10.2605400">
	<ele>418.60</ele>
	<time>2025-04-30T05:37:24.000Z</time>
</trkpt>
<trkpt lat="45.9178500" lon="10.2605400">
	<ele>418.80</ele>
	<time>2025-04-30T05:37:25.000Z</time>
</trkpt>
<trkpt lat="45.9178480" lon="10.2605310">
	<ele>419.00</ele>
	<time>2025-04-30T05:37:26.000Z</time>
</trkpt>
<trkpt lat="45.9178430" lon="10.2605160">
	<ele>419.20</ele>
	<time>2025-04-30T05:37:27.000Z</time>
</trkpt>
<trkpt lat="45.9178410" lon="10.2605010">
	<ele>419.40</ele>
	<time>2025-04-30T05:37:28.000Z</time>
</trkpt>
<trkpt lat="45.9178270" lon="10.2604890">
	<ele>419.80</ele>
	<time>2025-04-30T05:37:29.000Z</time>
</trkpt>
<trkpt lat="45.9178060" lon="10.2604710">
	<ele>420.00</ele>
	<time>2025-04-30T05:37:30.000Z</time>
</trkpt>
<trkpt lat="45.9178010" lon="10.2604580">
	<ele>420.20</ele>
	<time>2025-04-30T05:37:31.000Z</time>
</trkpt>
<trkpt lat="45.9178140" lon="10.2604440">
	<ele>420.40</ele>
	<time>2025-04-30T05:37:32.000Z</time>
</trkpt>
<trkpt lat="45.9178310" lon="10.2604240">
	<ele>420.40</ele>
	<time>2025-04-30T05:37:33.000Z</time>
</trkpt>
<trkpt lat="45.9178370" lon="10.2604100">
	<ele>420.80</ele>
	<time>2025-04-30T05:37:34.000Z</time>
</trkpt>
<trkpt lat="45.9178310" lon="10.2603970">
	<ele>421.00</ele>
	<time>2025-04-30T05:37:35.000Z</time>
</trkpt>
<trkpt lat="45.9178230" lon="10.2603770">
	<ele>421.20</ele>
	<time>2025-04-30T05:37:36.000Z</time>
</trkpt>
<trkpt lat="45.9178300" lon="10.2603630">
	<ele>421.60</ele>
	<time>2025-04-30T05:37:37.000Z</time>
</trkpt>
<trkpt lat="45.9178500" lon="10.2603490">
	<ele>421.80</ele>
	<time>2025-04-30T05:37:38.000Z</time>
</trkpt>
<trkpt lat="45.9178830" lon="10.2603430">
	<ele>421.80</ele>
	<time>2025-04-30T05:37:39.000Z</time>
</trkpt>
<trkpt lat="45.9179170" lon="10.2603320">
	<ele>422.00</ele>
	<time>2025-04-30T05:37:40.000Z</time>
</trkpt>
<trkpt lat="45.9179100" lon="10.2603210">
	<ele>422.40</ele>
	<time>2025-04-30T05:37:41.000Z</time>
</trkpt>
<trkpt lat="45.9179090" lon="10.2603110">
	<ele>422.60</ele>
	<time>2025-04-30T05:37:42.000Z</time>
</trkpt>
<trkpt lat="45.9179100" lon="10.2603000">
	<ele>422.80</ele>
	<time>2025-04-30T05:37:43.000Z</time>
</trkpt>
<trkpt lat="45.9179030" lon="10.2602820">
	<ele>422.80</ele>
	<time>2025-04-30T05:37:44.000Z</time>
</trkpt>
<trkpt lat="45.9178880" lon="10.2602720">
	<ele>423.20</ele>
	<time>2025-04-30T05:37:45.000Z</time>
</trkpt>
<trkpt lat="45.9178840" lon="10.2602550">
	<ele>423.40</ele>
	<time>2025-04-30T05:37:46.000Z</time>
</trkpt>
<trkpt lat="45.9178820" lon="10.2602400">
	<ele>423.60</ele>
	<time>2025-04-30T05:37:47.000Z</time>
</trkpt>
<trkpt lat="45.9178780" lon="10.2602280">
	<ele>424.00</ele>
	<time>2025-04-30T05:37:48.000Z</time>
</trkpt>
<trkpt lat="45.9178750" lon="10.2602200">
	<ele>424.20</ele>
	<time>2025-04-30T05:37:49.000Z</time>
</trkpt>
<trkpt lat="45.9178910" lon="10.2602050">
	<ele>424.40</ele>
	<time>2025-04-30T05:37:50.000Z</time>
</trkpt>
<trkpt lat="45.9178980" lon="10.2601830">
	<ele>424.60</ele>
	<time>2025-04-30T05:37:51.000Z</time>
</trkpt>
<trkpt lat="45.9178990" lon="10.2601720">
	<ele>424.80</ele>
	<time>2025-04-30T05:37:52.000Z</time>
</trkpt>
<trkpt lat="45.9179090" lon="10.2601590">
	<ele>424.80</ele>
	<time>2025-04-30T05:37:53.000Z</time>
</trkpt>
<trkpt lat="45.9179070" lon="10.2601460">
	<ele>425.00</ele>
	<time>2025-04-30T05:37:54.000Z</time>
</trkpt>
<trkpt lat="45.9178990" lon="10.2601320">
	<ele>425.20</ele>
	<time>2025-04-30T05:37:55.000Z</time>
</trkpt>
<trkpt lat="45.9179020" lon="10.2601150">
	<ele>425.40</ele>
	<time>2025-04-30T05:37:56.000Z</time>
</trkpt>
<trkpt lat="45.9178820" lon="10.2601140">
	<ele>425.60</ele>
	<time>2025-04-30T05:37:57.000Z</time>
</trkpt>
<trkpt lat="45.9178480" lon="10.2601120">
	<ele>425.80</ele>
	<time>2025-04-30T05:37:58.000Z</time>
</trkpt>
<trkpt lat="45.9178310" lon="10.2601050">
	<ele>426.00</ele>
	<time>2025-04-30T05:37:59.000Z</time>
</trkpt>
<trkpt lat="45.9178190" lon="10.2601010">
	<ele>426.20</ele>
	<time>2025-04-30T05:38:00.000Z</time>
</trkpt>
<trkpt lat="45.9178300" lon="10.2600730">
	<ele>426.60</ele>
	<time>2025-04-30T05:38:01.000Z</time>
</trkpt>
<trkpt lat="45.9178260" lon="10.2600500">
	<ele>426.80</ele>
	<time>2025-04-30T05:38:02.000Z</time>
</trkpt>
<trkpt lat="45.9178310" lon="10.2600420">
	<ele>427.00</ele>
	<time>2025-04-30T05:38:03.000Z</time>
</trkpt>
<trkpt lat="45.9178430" lon="10.2600100">
	<ele>427.20</ele>
	<time>2025-04-30T05:38:04.000Z</time>
</trkpt>
<trkpt lat="45.9178630" lon="10.2599880">
	<ele>427.40</ele>
	<time>2025-04-30T05:38:05.000Z</time>
</trkpt>
<trkpt lat="45.9178870" lon="10.2599710">
	<ele>427.60</ele>
	<time>2025-04-30T05:38:06.000Z</time>
</trkpt>
<trkpt lat="45.9179040" lon="10.2599670">
	<ele>427.80</ele>
	<time>2025-04-30T05:38:07.000Z</time>
</trkpt>
<trkpt lat="45.9179150" lon="10.2599460">
	<ele>428.00</ele>
	<time>2025-04-30T05:38:08.000Z</time>
</trkpt>
<trkpt lat="45.9178990" lon="10.2599460">
	<ele>428.20</ele>
	<time>2025-04-30T05:38:09.000Z</time>
</trkpt>
<trkpt lat="45.9178970" lon="10.2599360">
	<ele>428.20</ele>
	<time>2025-04-30T05:38:10.000Z</time>
</trkpt>
<trkpt lat="45.9179000" lon="10.2599310">
	<ele>428.20</ele>
	<time>2025-04-30T05:38:11.000Z</time>
</trkpt>
<trkpt lat="45.9179020" lon="10.2599280">
	<ele>428.40</ele>
	<time>2025-04-30T05:38:12.000Z</time>
</trkpt>
<trkpt lat="45.9179020" lon="10.2599290">
	<ele>428.40</ele>
	<time>2025-04-30T05:38:13.000Z</time>
</trkpt>
<trkpt lat="45.9179100" lon="10.2599240">
	<ele>428.40</ele>
	<time>2025-04-30T05:38:15.000Z</time>
</trkpt>
<trkpt lat="45.9179130" lon="10.2599280">
	<ele>428.40</ele>
	<time>2025-04-30T05:38:16.000Z</time>
</trkpt>
<trkpt lat="45.9179130" lon="10.2599320">
	<ele>428.40</ele>
	<time>2025-04-30T05:38:17.000Z</time>
</trkpt>
<trkpt lat="45.9179140" lon="10.2599330">
	<ele>428.40</ele>
	<time>2025-04-30T05:38:18.000Z</time>
</trkpt>
<trkpt lat="45.9179150" lon="10.2599320">
	<ele>428.60</ele>
	<time>2025-04-30T05:38:19.000Z</time>
</trkpt>
<trkpt lat="45.9179200" lon="10.2599470">
	<ele>428.60</ele>
	<time>2025-04-30T05:38:20.000Z</time>
</trkpt>
<trkpt lat="45.9179230" lon="10.2599460">
	<ele>428.60</ele>
	<time>2025-04-30T05:38:21.000Z</time>
</trkpt>
<trkpt lat="45.9179280" lon="10.2599470">
	<ele>428.60</ele>
	<time>2025-04-30T05:38:22.000Z</time>
</trkpt>
<trkpt lat="45.9179340" lon="10.2599490">
	<ele>428.60</ele>
	<time>2025-04-30T05:38:23.000Z</time>
</trkpt>
<trkpt lat="45.9179290" lon="10.2599480">
	<ele>428.60</ele>
	<time>2025-04-30T05:38:24.000Z</time>
</trkpt>
<trkpt lat="45.9179210" lon="10.2599490">
	<ele>428.60</ele>
	<time>2025-04-30T05:38:25.000Z</time>
</trkpt>
<trkpt lat="45.9179120" lon="10.2599480">
	<ele>428.60</ele>
	<time>2025-04-30T05:38:26.000Z</time>
</trkpt>
<trkpt lat="45.9179060" lon="10.2599480">
	<ele>428.60</ele>
	<time>2025-04-30T05:38:27.000Z</time>
</trkpt>
<trkpt lat="45.9179050" lon="10.2599400">
	<ele>428.60</ele>
	<time>2025-04-30T05:38:28.000Z</time>
</trkpt>
<trkpt lat="45.9179230" lon="10.2599260">
	<ele>428.60</ele>
	<time>2025-04-30T05:38:29.000Z</time>
</trkpt>
<trkpt lat="45.9179330" lon="10.2599190">
	<ele>428.80</ele>
	<time>2025-04-30T05:38:30.000Z</time>
</trkpt>
<trkpt lat="45.9179390" lon="10.2599070">
	<ele>429.00</ele>
	<time>2025-04-30T05:38:31.000Z</time>
</trkpt>
<trkpt lat="45.9179530" lon="10.2599030">
	<ele>429.20</ele>
	<time>2025-04-30T05:38:32.000Z</time>
</trkpt>
<trkpt lat="45.9179550" lon="10.2599010">
	<ele>429.40</ele>
	<time>2025-04-30T05:38:33.000Z</time>
</trkpt>
<trkpt lat="45.9179690" lon="10.2599020">
	<ele>429.60</ele>
	<time>2025-04-30T05:38:34.000Z</time>
</trkpt>
<trkpt lat="45.9179790" lon="10.2598950">
	<ele>429.80</ele>
	<time>2025-04-30T05:38:35.000Z</time>
</trkpt>
<trkpt lat="45.9179820" lon="10.2598830">
	<ele>430.20</ele>
	<time>2025-04-30T05:38:36.000Z</time>
</trkpt>
<trkpt lat="45.9179800" lon="10.2598740">
	<ele>430.40</ele>
	<time>2025-04-30T05:38:37.000Z</time>
</trkpt>
<trkpt lat="45.9179660" lon="10.2598640">
	<ele>430.60</ele>
	<time>2025-04-30T05:38:38.000Z</time>
</trkpt>
<trkpt lat="45.9179400" lon="10.2598600">
	<ele>431.00</ele>
	<time>2025-04-30T05:38:39.000Z</time>
</trkpt>
<trkpt lat="45.9179240" lon="10.2598510">
	<ele>431.20</ele>
	<time>2025-04-30T05:38:40.000Z</time>
</trkpt>
<trkpt lat="45.9179100" lon="10.2598380">
	<ele>431.40</ele>
	<time>2025-04-30T05:38:41.000Z</time>
</trkpt>
<trkpt lat="45.9178990" lon="10.2598260">
	<ele>431.40</ele>
	<time>2025-04-30T05:38:42.000Z</time>
</trkpt>
<trkpt lat="45.9178890" lon="10.2598120">
	<ele>431.60</ele>
	<time>2025-04-30T05:38:43.000Z</time>
</trkpt>
<trkpt lat="45.9178870" lon="10.2598070">
	<ele>431.80</ele>
	<time>2025-04-30T05:38:44.000Z</time>
</trkpt>
<trkpt lat="45.9178800" lon="10.2597920">
	<ele>432.20</ele>
	<time>2025-04-30T05:38:45.000Z</time>
</trkpt>
<trkpt lat="45.9178960" lon="10.2597770">
	<ele>432.40</ele>
	<time>2025-04-30T05:38:46.000Z</time>
</trkpt>
<trkpt lat="45.9179150" lon="10.2597690">
	<ele>432.40</ele>
	<time>2025-04-30T05:38:47.000Z</time>
</trkpt>
<trkpt lat="45.9179290" lon="10.2597500">
	<ele>432.80</ele>
	<time>2025-04-30T05:38:48.000Z</time>
</trkpt>
<trkpt lat="45.9179380" lon="10.2597330">
	<ele>433.00</ele>
	<time>2025-04-30T05:38:49.000Z</time>
</trkpt>
<trkpt lat="45.9179420" lon="10.2597310">
	<ele>433.20</ele>
	<time>2025-04-30T05:38:50.000Z</time>
</trkpt>
<trkpt lat="45.9179330" lon="10.2597190">
	<ele>433.40</ele>
	<time>2025-04-30T05:38:51.000Z</time>
</trkpt>
<trkpt lat="45.9179240" lon="10.2597090">
	<ele>433.60</ele>
	<time>2025-04-30T05:38:52.000Z</time>
</trkpt>
<trkpt lat="45.9179090" lon="10.2596980">
	<ele>433.60</ele>
	<time>2025-04-30T05:38:53.000Z</time>
</trkpt>
<trkpt lat="45.9179070" lon="10.2596910">
	<ele>434.00</ele>
	<time>2025-04-30T05:38:54.000Z</time>
</trkpt>
<trkpt lat="45.9178980" lon="10.2596820">
	<ele>434.40</ele>
	<time>2025-04-30T05:38:55.000Z</time>
</trkpt>
<trkpt lat="45.9178900" lon="10.2596740">
	<ele>434.60</ele>
	<time>2025-04-30T05:38:56.000Z</time>
</trkpt>
<trkpt lat="45.9178810" lon="10.2596650">
	<ele>435.00</ele>
	<time>2025-04-30T05:38:57.000Z</time>
</trkpt>
<trkpt lat="45.9178670" lon="10.2596650">
	<ele>435.20</ele>
	<time>2025-04-30T05:38:58.000Z</time>
</trkpt>
<trkpt lat="45.9178540" lon="10.2596650">
	<ele>435.40</ele>
	<time>2025-04-30T05:38:59.000Z</time>
</trkpt>
<trkpt lat="45.9178390" lon="10.2596600">
	<ele>435.40</ele>
	<time>2025-04-30T05:39:00.000Z</time>
</trkpt>
<trkpt lat="45.9178260" lon="10.2596550">
	<ele>435.60</ele>
	<time>2025-04-30T05:39:01.000Z</time>
</trkpt>
<trkpt lat="45.9178220" lon="10.2596470">
	<ele>435.80</ele>
	<time>2025-04-30T05:39:02.000Z</time>
</trkpt>
<trkpt lat="45.9178110" lon="10.2596410">
	<ele>436.20</ele>
	<time>2025-04-30T05:39:03.000Z</time>
</trkpt>
<trkpt lat="45.9178030" lon="10.2596340">
	<ele>436.40</ele>
	<time>2025-04-30T05:39:04.000Z</time>
</trkpt>
<trkpt lat="45.9177980" lon="10.2596250">
	<ele>436.60</ele>
	<time>2025-04-30T05:39:05.000Z</time>
</trkpt>
<trkpt lat="45.9177960" lon="10.2596170">
	<ele>436.80</ele>
	<time>2025-04-30T05:39:06.000Z</time>
</trkpt>
<trkpt lat="45.9177950" lon="10.2596150">
	<ele>436.80</ele>
	<time>2025-04-30T05:39:07.000Z</time>
</trkpt>
<trkpt lat="45.9177840" lon="10.2596100">
	<ele>437.20</ele>
	<time>2025-04-30T05:39:08.000Z</time>
</trkpt>
<trkpt lat="45.9177810" lon="10.2596010">
	<ele>437.20</ele>
	<time>2025-04-30T05:39:09.000Z</time>
</trkpt>
<trkpt lat="45.9177830" lon="10.2595950">
	<ele>437.40</ele>
	<time>2025-04-30T05:39:10.000Z</time>
</trkpt>
<trkpt lat="45.9177770" lon="10.2595930">
	<ele>437.80</ele>
	<time>2025-04-30T05:39:11.000Z</time>
</trkpt>
<trkpt lat="45.9177610" lon="10.2595910">
	<ele>438.00</ele>
	<time>2025-04-30T05:39:12.000Z</time>
</trkpt>
<trkpt lat="45.9177570" lon="10.2595830">
	<ele>438.20</ele>
	<time>2025-04-30T05:39:13.000Z</time>
</trkpt>
<trkpt lat="45.9177550" lon="10.2595720">
	<ele>438.40</ele>
	<time>2025-04-30T05:39:14.000Z</time>
</trkpt>
<trkpt lat="45.9177480" lon="10.2595620">
	<ele>438.80</ele>
	<time>2025-04-30T05:39:15.000Z</time>
</trkpt>
<trkpt lat="45.9177520" lon="10.2595520">
	<ele>438.80</ele>
	<time>2025-04-30T05:39:16.000Z</time>
</trkpt>
<trkpt lat="45.9177640" lon="10.2595460">
	<ele>439.00</ele>
	<time>2025-04-30T05:39:17.000Z</time>
</trkpt>
<trkpt lat="45.9177830" lon="10.2595360">
	<ele>439.20</ele>
	<time>2025-04-30T05:39:18.000Z</time>
</trkpt>
<trkpt lat="45.9177870" lon="10.2595270">
	<ele>439.20</ele>
	<time>2025-04-30T05:39:19.000Z</time>
</trkpt>
<trkpt lat="45.9177850" lon="10.2595200">
	<ele>439.60</ele>
	<time>2025-04-30T05:39:20.000Z</time>
</trkpt>
<trkpt lat="45.9177750" lon="10.2595140">
	<ele>439.60</ele>
	<time>2025-04-30T05:39:21.000Z</time>
</trkpt>
<trkpt lat="45.9177700" lon="10.2595030">
	<ele>439.80</ele>
	<time>2025-04-30T05:39:22.000Z</time>
</trkpt>
<trkpt lat="45.9177710" lon="10.2595010">
	<ele>440.00</ele>
	<time>2025-04-30T05:39:23.000Z</time>
</trkpt>
<trkpt lat="45.9177640" lon="10.2595010">
	<ele>440.20</ele>
	<time>2025-04-30T05:39:24.000Z</time>
</trkpt>
<trkpt lat="45.9177450" lon="10.2594870">
	<ele>440.40</ele>
	<time>2025-04-30T05:39:25.000Z</time>
</trkpt>
<trkpt lat="45.9177470" lon="10.2594750">
	<ele>440.80</ele>
	<time>2025-04-30T05:39:26.000Z</time>
</trkpt>
<trkpt lat="45.9177550" lon="10.2594580">
	<ele>441.00</ele>
	<time>2025-04-30T05:39:27.000Z</time>
</trkpt>
<trkpt lat="45.9177590" lon="10.2594490">
	<ele>441.20</ele>
	<time>2025-04-30T05:39:28.000Z</time>
</trkpt>
<trkpt lat="45.9177670" lon="10.2594490">
	<ele>441.40</ele>
	<time>2025-04-30T05:39:29.000Z</time>
</trkpt>
<trkpt lat="45.9177690" lon="10.2594460">
	<ele>441.40</ele>
	<time>2025-04-30T05:39:30.000Z</time>
</trkpt>
<trkpt lat="45.9177670" lon="10.2594420">
	<ele>441.60</ele>
	<time>2025-04-30T05:39:31.000Z</time>
</trkpt>
<trkpt lat="45.9177590" lon="10.2594340">
	<ele>441.80</ele>
	<time>2025-04-30T05:39:32.000Z</time>
</trkpt>
<trkpt lat="45.9177520" lon="10.2594290">
	<ele>442.00</ele>
	<time>2025-04-30T05:39:33.000Z</time>
</trkpt>
<trkpt lat="45.9177450" lon="10.2594280">
	<ele>442.00</ele>
	<time>2025-04-30T05:39:34.000Z</time>
</trkpt>
<trkpt lat="45.9177340" lon="10.2594210">
	<ele>442.40</ele>
	<time>2025-04-30T05:39:35.000Z</time>
</trkpt>
<trkpt lat="45.9177300" lon="10.2594090">
	<ele>442.80</ele>
	<time>2025-04-30T05:39:36.000Z</time>
</trkpt>
<trkpt lat="45.9177210" lon="10.2593960">
	<ele>443.00</ele>
	<time>2025-04-30T05:39:37.000Z</time>
</trkpt>
<trkpt lat="45.9176960" lon="10.2593900">
	<ele>443.00</ele>
	<time>2025-04-30T05:39:38.000Z</time>
</trkpt>
<trkpt lat="45.9176850" lon="10.2593830">
	<ele>443.40</ele>
	<time>2025-04-30T05:39:39.000Z</time>
</trkpt>
<trkpt lat="45.9176740" lon="10.2593830">
	<ele>443.60</ele>
	<time>2025-04-30T05:39:40.000Z</time>
</trkpt>
<trkpt lat="45.9176700" lon="10.2593830">
	<ele>443.60</ele>
	<time>2025-04-30T05:39:41.000Z</time>
</trkpt>
<trkpt lat="45.9176670" lon="10.2593790">
	<ele>444.00</ele>
	<time>2025-04-30T05:39:42.000Z</time>
</trkpt>
<trkpt lat="45.9176660" lon="10.2593830">
	<ele>444.20</ele>
	<time>2025-04-30T05:39:43.000Z</time>
</trkpt>
<trkpt lat="45.9176640" lon="10.2593840">
	<ele>444.40</ele>
	<time>2025-04-30T05:39:44.000Z</time>
</trkpt>
<trkpt lat="45.9176560" lon="10.2593890">
	<ele>444.60</ele>
	<time>2025-04-30T05:39:45.000Z</time>
</trkpt>
<trkpt lat="45.9176580" lon="10.2593920">
	<ele>444.80</ele>
	<time>2025-04-30T05:39:46.000Z</time>
</trkpt>
<trkpt lat="45.9176570" lon="10.2593970">
	<ele>445.00</ele>
	<time>2025-04-30T05:39:47.000Z</time>
</trkpt>
<trkpt lat="45.9176520" lon="10.2593940">
	<ele>445.20</ele>
	<time>2025-04-30T05:39:48.000Z</time>
</trkpt>
<trkpt lat="45.9176510" lon="10.2593920">
	<ele>445.40</ele>
	<time>2025-04-30T05:39:49.000Z</time>
</trkpt>
<trkpt lat="45.9176430" lon="10.2593950">
	<ele>445.80</ele>
	<time>2025-04-30T05:39:50.000Z</time>
</trkpt>
<trkpt lat="45.9176330" lon="10.2593980">
	<ele>446.00</ele>
	<time>2025-04-30T05:39:51.000Z</time>
</trkpt>
<trkpt lat="45.9176300" lon="10.2593990">
	<ele>446.00</ele>
	<time>2025-04-30T05:39:52.000Z</time>
</trkpt>
<trkpt lat="45.9176250" lon="10.2594000">
	<ele>446.20</ele>
	<time>2025-04-30T05:39:53.000Z</time>
</trkpt>
<trkpt lat="45.9176250" lon="10.2594010">
	<ele>446.20</ele>
	<time>2025-04-30T05:39:54.000Z</time>
</trkpt>
<trkpt lat="45.9176160" lon="10.2594030">
	<ele>446.40</ele>
	<time>2025-04-30T05:39:55.000Z</time>
</trkpt>
<trkpt lat="45.9176110" lon="10.2594090">
	<ele>446.60</ele>
	<time>2025-04-30T05:39:56.000Z</time>
</trkpt>
<trkpt lat="45.9176100" lon="10.2594150">
	<ele>446.80</ele>
	<time>2025-04-30T05:39:57.000Z</time>
</trkpt>
<trkpt lat="45.9176020" lon="10.2594180">
	<ele>447.00</ele>
	<time>2025-04-30T05:39:58.000Z</time>
</trkpt>
<trkpt lat="45.9175940" lon="10.2594300">
	<ele>447.20</ele>
	<time>2025-04-30T05:39:59.000Z</time>
</trkpt>
<trkpt lat="45.9175820" lon="10.2594340">
	<ele>447.40</ele>
	<time>2025-04-30T05:40:00.000Z</time>
</trkpt>
<trkpt lat="45.9175720" lon="10.2594360">
	<ele>447.60</ele>
	<time>2025-04-30T05:40:01.000Z</time>
</trkpt>
<trkpt lat="45.9175670" lon="10.2594350">
	<ele>447.60</ele>
	<time>2025-04-30T05:40:02.000Z</time>
</trkpt>
<trkpt lat="45.9175630" lon="10.2594350">
	<ele>447.80</ele>
	<time>2025-04-30T05:40:03.000Z</time>
</trkpt>
<trkpt lat="45.9175590" lon="10.2594410">
	<ele>448.00</ele>
	<time>2025-04-30T05:40:04.000Z</time>
</trkpt>
<trkpt lat="45.9175520" lon="10.2594490">
	<ele>448.20</ele>
	<time>2025-04-30T05:40:05.000Z</time>
</trkpt>
<trkpt lat="45.9175440" lon="10.2594570">
	<ele>448.40</ele>
	<time>2025-04-30T05:40:06.000Z</time>
</trkpt>
<trkpt lat="45.9175370" lon="10.2594740">
	<ele>448.60</ele>
	<time>2025-04-30T05:40:07.000Z</time>
</trkpt>
<trkpt lat="45.9175280" lon="10.2594900">
	<ele>448.80</ele>
	<time>2025-04-30T05:40:08.000Z</time>
</trkpt>
<trkpt lat="45.9175120" lon="10.2595040">
	<ele>449.00</ele>
	<time>2025-04-30T05:40:09.000Z</time>
</trkpt>
<trkpt lat="45.9174920" lon="10.2595180">
	<ele>449.20</ele>
	<time>2025-04-30T05:40:10.000Z</time>
</trkpt>
<trkpt lat="45.9174830" lon="10.2595290">
	<ele>449.20</ele>
	<time>2025-04-30T05:40:11.000Z</time>
</trkpt>
<trkpt lat="45.9174730" lon="10.2595490">
	<ele>449.40</ele>
	<time>2025-04-30T05:40:12.000Z</time>
</trkpt>
<trkpt lat="45.9174680" lon="10.2595700">
	<ele>449.60</ele>
	<time>2025-04-30T05:40:13.000Z</time>
</trkpt>
<trkpt lat="45.9174740" lon="10.2595880">
	<ele>449.60</ele>
	<time>2025-04-30T05:40:14.000Z</time>
</trkpt>
<trkpt lat="45.9174750" lon="10.2596060">
	<ele>449.80</ele>
	<time>2025-04-30T05:40:15.000Z</time>
</trkpt>
<trkpt lat="45.9174610" lon="10.2596170">
	<ele>449.80</ele>
	<time>2025-04-30T05:40:16.000Z</time>
</trkpt>
<trkpt lat="45.9174410" lon="10.2596220">
	<ele>450.00</ele>
	<time>2025-04-30T05:40:17.000Z</time>
</trkpt>
<trkpt lat="45.9174250" lon="10.2596280">
	<ele>450.20</ele>
	<time>2025-04-30T05:40:18.000Z</time>
</trkpt>
<trkpt lat="45.9174120" lon="10.2596420">
	<ele>450.40</ele>
	<time>2025-04-30T05:40:19.000Z</time>
</trkpt>
<trkpt lat="45.9174000" lon="10.2596550">
	<ele>450.60</ele>
	<time>2025-04-30T05:40:20.000Z</time>
</trkpt>
<trkpt lat="45.9173870" lon="10.2596620">
	<ele>450.60</ele>
	<time>2025-04-30T05:40:21.000Z</time>
</trkpt>
<trkpt lat="45.9173760" lon="10.2596700">
	<ele>450.80</ele>
	<time>2025-04-30T05:40:22.000Z</time>
</trkpt>
<trkpt lat="45.9173710" lon="10.2596820">
	<ele>451.00</ele>
	<time>2025-04-30T05:40:23.000Z</time>
</trkpt>
<trkpt lat="45.9173630" lon="10.2596980">
	<ele>451.20</ele>
	<time>2025-04-30T05:40:24.000Z</time>
</trkpt>
<trkpt lat="45.9173520" lon="10.2597200">
	<ele>451.20</ele>
	<time>2025-04-30T05:40:25.000Z</time>
</trkpt>
<trkpt lat="45.9173560" lon="10.2597240">
	<ele>451.60</ele>
	<time>2025-04-30T05:40:26.000Z</time>
</trkpt>
<trkpt lat="45.9173630" lon="10.2597100">
	<ele>451.80</ele>
	<time>2025-04-30T05:40:27.000Z</time>
</trkpt>
<trkpt lat="45.9173550" lon="10.2597180">
	<ele>452.00</ele>
	<time>2025-04-30T05:40:28.000Z</time>
</trkpt>
<trkpt lat="45.9173560" lon="10.2597280">
	<ele>452.20</ele>
	<time>2025-04-30T05:40:29.000Z</time>
</trkpt>
<trkpt lat="45.9173480" lon="10.2597350">
	<ele>452.40</ele>
	<time>2025-04-30T05:40:30.000Z</time>
</trkpt>
<trkpt lat="45.9173460" lon="10.2597380">
	<ele>452.40</ele>
	<time>2025-04-30T05:40:31.000Z</time>
</trkpt>
<trkpt lat="45.9173440" lon="10.2597400">
	<ele>452.60</ele>
	<time>2025-04-30T05:40:32.000Z</time>
</trkpt>
<trkpt lat="45.9173330" lon="10.2597450">
	<ele>452.60</ele>
	<time>2025-04-30T05:40:33.000Z</time>
</trkpt>
<trkpt lat="45.9173260" lon="10.2597510">
	<ele>452.80</ele>
	<time>2025-04-30T05:40:34.000Z</time>
</trkpt>
<trkpt lat="45.9173230" lon="10.2597600">
	<ele>453.20</ele>
	<time>2025-04-30T05:40:35.000Z</time>
</trkpt>
<trkpt lat="45.9173190" lon="10.2597750">
	<ele>453.40</ele>
	<time>2025-04-30T05:40:36.000Z</time>
</trkpt>
<trkpt lat="45.9173150" lon="10.2597790">
	<ele>453.40</ele>
	<time>2025-04-30T05:40:37.000Z</time>
</trkpt>
<trkpt lat="45.9173100" lon="10.2597870">
	<ele>453.60</ele>
	<time>2025-04-30T05:40:38.000Z</time>
</trkpt>
<trkpt lat="45.9172930" lon="10.2598060">
	<ele>453.80</ele>
	<time>2025-04-30T05:40:39.000Z</time>
</trkpt>
<trkpt lat="45.9172940" lon="10.2598170">
	<ele>453.80</ele>
	<time>2025-04-30T05:40:40.000Z</time>
</trkpt>
<trkpt lat="45.9172860" lon="10.2598300">
	<ele>454.00</ele>
	<time>2025-04-30T05:40:41.000Z</time>
</trkpt>
<trkpt lat="45.9172810" lon="10.2598440">
	<ele>454.00</ele>
	<time>2025-04-30T05:40:42.000Z</time>
</trkpt>
<trkpt lat="45.9172670" lon="10.2598600">
	<ele>454.20</ele>
	<time>2025-04-30T05:40:43.000Z</time>
</trkpt>
<trkpt lat="45.9172490" lon="10.2598780">
	<ele>454.40</ele>
	<time>2025-04-30T05:40:44.000Z</time>
</trkpt>
<trkpt lat="45.9172430" lon="10.2598930">
	<ele>454.40</ele>
	<time>2025-04-30T05:40:45.000Z</time>
</trkpt>
<trkpt lat="45.9172380" lon="10.2599060">
	<ele>454.60</ele>
	<time>2025-04-30T05:40:46.000Z</time>
</trkpt>
<trkpt lat="45.9172310" lon="10.2599150">
	<ele>454.60</ele>
	<time>2025-04-30T05:40:47.000Z</time>
</trkpt>
<trkpt lat="45.9172170" lon="10.2599050">
	<ele>454.80</ele>
	<time>2025-04-30T05:40:48.000Z</time>
</trkpt>
<trkpt lat="45.9172060" lon="10.2599000">
	<ele>455.00</ele>
	<time>2025-04-30T05:40:49.000Z</time>
</trkpt>
<trkpt lat="45.9171950" lon="10.2598960">
	<ele>455.20</ele>
	<time>2025-04-30T05:40:50.000Z</time>
</trkpt>
<trkpt lat="45.9172200" lon="10.2598840">
	<ele>455.40</ele>
	<time>2025-04-30T05:40:51.000Z</time>
</trkpt>
<trkpt lat="45.9172360" lon="10.2598770">
	<ele>455.40</ele>
	<time>2025-04-30T05:40:52.000Z</time>
</trkpt>
<trkpt lat="45.9172380" lon="10.2598810">
	<ele>456.00</ele>
	<time>2025-04-30T05:40:53.000Z</time>
</trkpt>
<trkpt lat="45.9172360" lon="10.2598930">
	<ele>456.20</ele>
	<time>2025-04-30T05:40:54.000Z</time>
</trkpt>
<trkpt lat="45.9172210" lon="10.2599030">
	<ele>456.40</ele>
	<time>2025-04-30T05:40:55.000Z</time>
</trkpt>
<trkpt lat="45.9172140" lon="10.2599010">
	<ele>456.60</ele>
	<time>2025-04-30T05:40:56.000Z</time>
</trkpt>
<trkpt lat="45.9172140" lon="10.2599050">
	<ele>456.80</ele>
	<time>2025-04-30T05:40:57.000Z</time>
</trkpt>
<trkpt lat="45.9172140" lon="10.2599060">
	<ele>456.80</ele>
	<time>2025-04-30T05:40:58.000Z</time>
</trkpt>
<trkpt lat="45.9172090" lon="10.2599150">
	<ele>456.80</ele>
	<time>2025-04-30T05:40:59.000Z</time>
</trkpt>
<trkpt lat="45.9172050" lon="10.2599260">
	<ele>456.80</ele>
	<time>2025-04-30T05:41:00.000Z</time>
</trkpt>
<trkpt lat="45.9172000" lon="10.2599370">
	<ele>457.00</ele>
	<time>2025-04-30T05:41:01.000Z</time>
</trkpt>
<trkpt lat="45.9172010" lon="10.2599450">
	<ele>457.20</ele>
	<time>2025-04-30T05:41:02.000Z</time>
</trkpt>
<trkpt lat="45.9171970" lon="10.2599560">
	<ele>457.40</ele>
	<time>2025-04-30T05:41:03.000Z</time>
</trkpt>
<trkpt lat="45.9171990" lon="10.2599700">
	<ele>457.60</ele>
	<time>2025-04-30T05:41:04.000Z</time>
</trkpt>
<trkpt lat="45.9172060" lon="10.2599840">
	<ele>457.60</ele>
	<time>2025-04-30T05:41:05.000Z</time>
</trkpt>
<trkpt lat="45.9172000" lon="10.2599970">
	<ele>457.80</ele>
	<time>2025-04-30T05:41:06.000Z</time>
</trkpt>
<trkpt lat="45.9171910" lon="10.2600070">
	<ele>457.80</ele>
	<time>2025-04-30T05:41:07.000Z</time>
</trkpt>
<trkpt lat="45.9171790" lon="10.2600200">
	<ele>458.00</ele>
	<time>2025-04-30T05:41:08.000Z</time>
</trkpt>
<trkpt lat="45.9171680" lon="10.2600330">
	<ele>458.20</ele>
	<time>2025-04-30T05:41:09.000Z</time>
</trkpt>
<trkpt lat="45.9171480" lon="10.2600450">
	<ele>458.20</ele>
	<time>2025-04-30T05:41:10.000Z</time>
</trkpt>
<trkpt lat="45.9171330" lon="10.2600490">
	<ele>458.40</ele>
	<time>2025-04-30T05:41:11.000Z</time>
</trkpt>
<trkpt lat="45.9171190" lon="10.2600550">
	<ele>458.40</ele>
	<time>2025-04-30T05:41:12.000Z</time>
</trkpt>
<trkpt lat="45.9171070" lon="10.2600590">
	<ele>458.60</ele>
	<time>2025-04-30T05:41:13.000Z</time>
</trkpt>
<trkpt lat="45.9170830" lon="10.2600720">
	<ele>458.80</ele>
	<time>2025-04-30T05:41:14.000Z</time>
</trkpt>
<trkpt lat="45.9170590" lon="10.2600910">
	<ele>458.80</ele>
	<time>2025-04-30T05:41:15.000Z</time>
</trkpt>
<trkpt lat="45.9170430" lon="10.2601130">
	<ele>459.00</ele>
	<time>2025-04-30T05:41:16.000Z</time>
</trkpt>
<trkpt lat="45.9170270" lon="10.2601290">
	<ele>459.20</ele>
	<time>2025-04-30T05:41:17.000Z</time>
</trkpt>
<trkpt lat="45.9170220" lon="10.2601320">
	<ele>459.40</ele>
	<time>2025-04-30T05:41:18.000Z</time>
</trkpt>
<trkpt lat="45.9170160" lon="10.2601390">
	<ele>459.60</ele>
	<time>2025-04-30T05:41:19.000Z</time>
</trkpt>
<trkpt lat="45.9170150" lon="10.2601410">
	<ele>459.80</ele>
	<time>2025-04-30T05:41:20.000Z</time>
</trkpt>
<trkpt lat="45.9170160" lon="10.2601440">
	<ele>460.00</ele>
	<time>2025-04-30T05:41:21.000Z</time>
</trkpt>
<trkpt lat="45.9170060" lon="10.2601490">
	<ele>460.20</ele>
	<time>2025-04-30T05:41:22.000Z</time>
</trkpt>
<trkpt lat="45.9169970" lon="10.2601660">
	<ele>460.40</ele>
	<time>2025-04-30T05:41:23.000Z</time>
</trkpt>
<trkpt lat="45.9169840" lon="10.2601780">
	<ele>460.40</ele>
	<time>2025-04-30T05:41:24.000Z</time>
</trkpt>
<trkpt lat="45.9169760" lon="10.2601880">
	<ele>460.60</ele>
	<time>2025-04-30T05:41:25.000Z</time>
</trkpt>
<trkpt lat="45.9169640" lon="10.2601980">
	<ele>460.60</ele>
	<time>2025-04-30T05:41:26.000Z</time>
</trkpt>
<trkpt lat="45.9169560" lon="10.2602110">
	<ele>460.80</ele>
	<time>2025-04-30T05:41:27.000Z</time>
</trkpt>
<trkpt lat="45.9169540" lon="10.2602250">
	<ele>460.80</ele>
	<time>2025-04-30T05:41:28.000Z</time>
</trkpt>
<trkpt lat="45.9169710" lon="10.2602370">
	<ele>461.00</ele>
	<time>2025-04-30T05:41:29.000Z</time>
</trkpt>
<trkpt lat="45.9169700" lon="10.2602450">
	<ele>461.00</ele>
	<time>2025-04-30T05:41:30.000Z</time>
</trkpt>
<trkpt lat="45.9169620" lon="10.2602500">
	<ele>461.20</ele>
	<time>2025-04-30T05:41:31.000Z</time>
</trkpt>
<trkpt lat="45.9169570" lon="10.2602590">
	<ele>461.40</ele>
	<time>2025-04-30T05:41:32.000Z</time>
</trkpt>
<trkpt lat="45.9169540" lon="10.2602630">
	<ele>461.60</ele>
	<time>2025-04-30T05:41:33.000Z</time>
</trkpt>
<trkpt lat="45.9169520" lon="10.2602660">
	<ele>461.80</ele>
	<time>2025-04-30T05:41:34.000Z</time>
</trkpt>
<trkpt lat="45.9169710" lon="10.2602700">
	<ele>461.80</ele>
	<time>2025-04-30T05:41:35.000Z</time>
</trkpt>
<trkpt lat="45.9170030" lon="10.2602750">
	<ele>462.00</ele>
	<time>2025-04-30T05:41:36.000Z</time>
</trkpt>
<trkpt lat="45.9170190" lon="10.2602910">
	<ele>462.20</ele>
	<time>2025-04-30T05:41:37.000Z</time>
</trkpt>
<trkpt lat="45.9170340" lon="10.2602920">
	<ele>462.40</ele>
	<time>2025-04-30T05:41:38.000Z</time>
</trkpt>
<trkpt lat="45.9170560" lon="10.2603000">
	<ele>462.40</ele>
	<time>2025-04-30T05:41:39.000Z</time>
</trkpt>
<trkpt lat="45.9170790" lon="10.2603040">
	<ele>462.60</ele>
	<time>2025-04-30T05:41:40.000Z</time>
</trkpt>
<trkpt lat="45.9170970" lon="10.2603060">
	<ele>462.60</ele>
	<time>2025-04-30T05:41:41.000Z</time>
</trkpt>
<trkpt lat="45.9171260" lon="10.2603230">
	<ele>463.00</ele>
	<time>2025-04-30T05:41:43.000Z</time>
</trkpt>
<trkpt lat="45.9171280" lon="10.2603400">
	<ele>463.00</ele>
	<time>2025-04-30T05:41:44.000Z</time>
</trkpt>
<trkpt lat="45.9171210" lon="10.2603530">
	<ele>463.40</ele>
	<time>2025-04-30T05:41:45.000Z</time>
</trkpt>
<trkpt lat="45.9171060" lon="10.2603610">
	<ele>463.60</ele>
	<time>2025-04-30T05:41:46.000Z</time>
</trkpt>
<trkpt lat="45.9170790" lon="10.2603650">
	<ele>463.60</ele>
	<time>2025-04-30T05:41:47.000Z</time>
</trkpt>
<trkpt lat="45.9170340" lon="10.2603750">
	<ele>463.80</ele>
	<time>2025-04-30T05:41:48.000Z</time>
</trkpt>
<trkpt lat="45.9169920" lon="10.2603870">
	<ele>464.00</ele>
	<time>2025-04-30T05:41:49.000Z</time>
</trkpt>
<trkpt lat="45.9169680" lon="10.2603960">
	<ele>464.00</ele>
	<time>2025-04-30T05:41:50.000Z</time>
</trkpt>
<trkpt lat="45.9169230" lon="10.2604030">
	<ele>464.20</ele>
	<time>2025-04-30T05:41:51.000Z</time>
</trkpt>
<trkpt lat="45.9168820" lon="10.2604090">
	<ele>464.40</ele>
	<time>2025-04-30T05:41:52.000Z</time>
</trkpt>
<trkpt lat="45.9168600" lon="10.2604140">
	<ele>464.60</ele>
	<time>2025-04-30T05:41:53.000Z</time>
</trkpt>
<trkpt lat="45.9168390" lon="10.2604190">
	<ele>464.80</ele>
	<time>2025-04-30T05:41:54.000Z</time>
</trkpt>
<trkpt lat="45.9168250" lon="10.2604320">
	<ele>465.00</ele>
	<time>2025-04-30T05:41:55.000Z</time>
</trkpt>
<trkpt lat="45.9167910" lon="10.2604310">
	<ele>465.20</ele>
	<time>2025-04-30T05:41:56.000Z</time>
</trkpt>
<trkpt lat="45.9167450" lon="10.2604330">
	<ele>465.40</ele>
	<time>2025-04-30T05:41:57.000Z</time>
</trkpt>
<trkpt lat="45.9167160" lon="10.2604240">
	<ele>465.80</ele>
	<time>2025-04-30T05:41:58.000Z</time>
</trkpt>
<trkpt lat="45.9167010" lon="10.2604110">
	<ele>466.00</ele>
	<time>2025-04-30T05:41:59.000Z</time>
</trkpt>
<trkpt lat="45.9166810" lon="10.2604130">
	<ele>466.20</ele>
	<time>2025-04-30T05:42:00.000Z</time>
</trkpt>
<trkpt lat="45.9166630" lon="10.2604160">
	<ele>466.40</ele>
	<time>2025-04-30T05:42:01.000Z</time>
</trkpt>
<trkpt lat="45.9166410" lon="10.2604150">
	<ele>466.60</ele>
	<time>2025-04-30T05:42:02.000Z</time>
</trkpt>
<trkpt lat="45.9166200" lon="10.2604190">
	<ele>466.60</ele>
	<time>2025-04-30T05:42:03.000Z</time>
</trkpt>
<trkpt lat="45.9166020" lon="10.2604190">
	<ele>466.80</ele>
	<time>2025-04-30T05:42:04.000Z</time>
</trkpt>
<trkpt lat="45.9165720" lon="10.2604240">
	<ele>467.00</ele>
	<time>2025-04-30T05:42:05.000Z</time>
</trkpt>
<trkpt lat="45.9165550" lon="10.2604330">
	<ele>467.00</ele>
	<time>2025-04-30T05:42:06.000Z</time>
</trkpt>
<trkpt lat="45.9165420" lon="10.2604390">
	<ele>467.20</ele>
	<time>2025-04-30T05:42:07.000Z</time>
</trkpt>
<trkpt lat="45.9165230" lon="10.2604460">
	<ele>467.40</ele>
	<time>2025-04-30T05:42:08.000Z</time>
</trkpt>
<trkpt lat="45.9165130" lon="10.2604450">
	<ele>467.60</ele>
	<time>2025-04-30T05:42:09.000Z</time>
</trkpt>
<trkpt lat="45.9165000" lon="10.2604490">
	<ele>467.80</ele>
	<time>2025-04-30T05:42:10.000Z</time>
</trkpt>
<trkpt lat="45.9164970" lon="10.2604410">
	<ele>467.80</ele>
	<time>2025-04-30T05:42:11.000Z</time>
</trkpt>
<trkpt lat="45.9164990" lon="10.2604530">
	<ele>468.00</ele>
	<time>2025-04-30T05:42:12.000Z</time>
</trkpt>
<trkpt lat="45.9164800" lon="10.2604650">
	<ele>468.20</ele>
	<time>2025-04-30T05:42:13.000Z</time>
</trkpt>
<trkpt lat="45.9164640" lon="10.2604630">
	<ele>468.40</ele>
	<time>2025-04-30T05:42:14.000Z</time>
</trkpt>
<trkpt lat="45.9164520" lon="10.2604520">
	<ele>468.80</ele>
	<time>2025-04-30T05:42:15.000Z</time>
</trkpt>
<trkpt lat="45.9164450" lon="10.2604360">
	<ele>469.00</ele>
	<time>2025-04-30T05:42:16.000Z</time>
</trkpt>
<trkpt lat="45.9164410" lon="10.2604200">
	<ele>469.00</ele>
	<time>2025-04-30T05:42:17.000Z</time>
</trkpt>
<trkpt lat="45.9164340" lon="10.2604140">
	<ele>469.20</ele>
	<time>2025-04-30T05:42:18.000Z</time>
</trkpt>
<trkpt lat="45.9164230" lon="10.2604040">
	<ele>469.40</ele>
	<time>2025-04-30T05:42:19.000Z</time>
</trkpt>
<trkpt lat="45.9164180" lon="10.2603890">
	<ele>469.80</ele>
	<time>2025-04-30T05:42:20.000Z</time>
</trkpt>
<trkpt lat="45.9164120" lon="10.2603830">
	<ele>470.00</ele>
	<time>2025-04-30T05:42:21.000Z</time>
</trkpt>
<trkpt lat="45.9164030" lon="10.2603700">
	<ele>470.00</ele>
	<time>2025-04-30T05:42:22.000Z</time>
</trkpt>
<trkpt lat="45.9163940" lon="10.2603680">
	<ele>470.40</ele>
	<time>2025-04-30T05:42:23.000Z</time>
</trkpt>
<trkpt lat="45.9163810" lon="10.2603670">
	<ele>470.60</ele>
	<time>2025-04-30T05:42:24.000Z</time>
</trkpt>
<trkpt lat="45.9163750" lon="10.2603640">
	<ele>470.60</ele>
	<time>2025-04-30T05:42:25.000Z</time>
</trkpt>
<trkpt lat="45.9163620" lon="10.2603620">
	<ele>471.00</ele>
	<time>2025-04-30T05:42:26.000Z</time>
</trkpt>
<trkpt lat="45.9163560" lon="10.2603570">
	<ele>471.20</ele>
	<time>2025-04-30T05:42:27.000Z</time>
</trkpt>
<trkpt lat="45.9163480" lon="10.2603520">
	<ele>471.40</ele>
	<time>2025-04-30T05:42:28.000Z</time>
</trkpt>
<trkpt lat="45.9163430" lon="10.2603360">
	<ele>471.80</ele>
	<time>2025-04-30T05:42:29.000Z</time>
</trkpt>
<trkpt lat="45.9163320" lon="10.2603350">
	<ele>472.00</ele>
	<time>2025-04-30T05:42:30.000Z</time>
</trkpt>
<trkpt lat="45.9163200" lon="10.2603360">
	<ele>472.40</ele>
	<time>2025-04-30T05:42:31.000Z</time>
</trkpt>
<trkpt lat="45.9163080" lon="10.2603360">
	<ele>472.40</ele>
	<time>2025-04-30T05:42:32.000Z</time>
</trkpt>
<trkpt lat="45.9163010" lon="10.2603280">
	<ele>472.60</ele>
	<time>2025-04-30T05:42:33.000Z</time>
</trkpt>
<trkpt lat="45.9162880" lon="10.2603240">
	<ele>472.80</ele>
	<time>2025-04-30T05:42:34.000Z</time>
</trkpt>
<trkpt lat="45.9162740" lon="10.2603260">
	<ele>473.00</ele>
	<time>2025-04-30T05:42:35.000Z</time>
</trkpt>
<trkpt lat="45.9162610" lon="10.2603280">
	<ele>473.20</ele>
	<time>2025-04-30T05:42:36.000Z</time>
</trkpt>
<trkpt lat="45.9162570" lon="10.2603230">
	<ele>473.40</ele>
	<time>2025-04-30T05:42:37.000Z</time>
</trkpt>
<trkpt lat="45.9162480" lon="10.2603290">
	<ele>473.60</ele>
	<time>2025-04-30T05:42:38.000Z</time>
</trkpt>
<trkpt lat="45.9162370" lon="10.2603300">
	<ele>473.80</ele>
	<time>2025-04-30T05:42:39.000Z</time>
</trkpt>
<trkpt lat="45.9162300" lon="10.2603290">
	<ele>474.20</ele>
	<time>2025-04-30T05:42:40.000Z</time>
</trkpt>
<trkpt lat="45.9162270" lon="10.2603220">
	<ele>474.40</ele>
	<time>2025-04-30T05:42:41.000Z</time>
</trkpt>
<trkpt lat="45.9162210" lon="10.2603160">
	<ele>474.40</ele>
	<time>2025-04-30T05:42:42.000Z</time>
</trkpt>
<trkpt lat="45.9162160" lon="10.2603100">
	<ele>474.80</ele>
	<time>2025-04-30T05:42:43.000Z</time>
</trkpt>
<trkpt lat="45.9162120" lon="10.2603010">
	<ele>475.00</ele>
	<time>2025-04-30T05:42:44.000Z</time>
</trkpt>
<trkpt lat="45.9162110" lon="10.2602920">
	<ele>475.20</ele>
	<time>2025-04-30T05:42:45.000Z</time>
</trkpt>
<trkpt lat="45.9162010" lon="10.2603050">
	<ele>475.40</ele>
	<time>2025-04-30T05:42:46.000Z</time>
</trkpt>
<trkpt lat="45.9161940" lon="10.2603130">
	<ele>475.60</ele>
	<time>2025-04-30T05:42:47.000Z</time>
</trkpt>
<trkpt lat="45.9161840" lon="10.2603180">
	<ele>475.80</ele>
	<time>2025-04-30T05:42:48.000Z</time>
</trkpt>
<trkpt lat="45.9161760" lon="10.2603190">
	<ele>476.20</ele>
	<time>2025-04-30T05:42:49.000Z</time>
</trkpt>
<trkpt lat="45.9161720" lon="10.2603120">
	<ele>476.20</ele>
	<time>2025-04-30T05:42:50.000Z</time>
</trkpt>
<trkpt lat="45.9161660" lon="10.2602970">
	<ele>476.40</ele>
	<time>2025-04-30T05:42:51.000Z</time>
</trkpt>
<trkpt lat="45.9161560" lon="10.2602960">
	<ele>476.60</ele>
	<time>2025-04-30T05:42:52.000Z</time>
</trkpt>
<trkpt lat="45.9161500" lon="10.2602960">
	<ele>477.00</ele>
	<time>2025-04-30T05:42:53.000Z</time>
</trkpt>
<trkpt lat="45.9161430" lon="10.2603100">
	<ele>477.20</ele>
	<time>2025-04-30T05:42:54.000Z</time>
</trkpt>
<trkpt lat="45.9161370" lon="10.2603060">
	<ele>477.20</ele>
	<time>2025-04-30T05:42:55.000Z</time>
</trkpt>
<trkpt lat="45.9161310" lon="10.2603040">
	<ele>477.40</ele>
	<time>2025-04-30T05:42:56.000Z</time>
</trkpt>
<trkpt lat="45.9161260" lon="10.2602980">
	<ele>477.60</ele>
	<time>2025-04-30T05:42:57.000Z</time>
</trkpt>
<trkpt lat="45.9161210" lon="10.2602930">
	<ele>477.80</ele>
	<time>2025-04-30T05:42:58.000Z</time>
</trkpt>
<trkpt lat="45.9161140" lon="10.2602840">
	<ele>478.00</ele>
	<time>2025-04-30T05:42:59.000Z</time>
</trkpt>
<trkpt lat="45.9161150" lon="10.2602750">
	<ele>478.20</ele>
	<time>2025-04-30T05:43:00.000Z</time>
</trkpt>
<trkpt lat="45.9161110" lon="10.2602920">
	<ele>478.40</ele>
	<time>2025-04-30T05:43:01.000Z</time>
</trkpt>
<trkpt lat="45.9161120" lon="10.2602760">
	<ele>478.80</ele>
	<time>2025-04-30T05:43:02.000Z</time>
</trkpt>
<trkpt lat="45.9161030" lon="10.2602660">
	<ele>478.80</ele>
	<time>2025-04-30T05:43:03.000Z</time>
</trkpt>
<trkpt lat="45.9160970" lon="10.2602550">
	<ele>479.00</ele>
	<time>2025-04-30T05:43:04.000Z</time>
</trkpt>
<trkpt lat="45.9160910" lon="10.2602410">
	<ele>479.40</ele>
	<time>2025-04-30T05:43:05.000Z</time>
</trkpt>
<trkpt lat="45.9160830" lon="10.2602350">
	<ele>479.60</ele>
	<time>2025-04-30T05:43:06.000Z</time>
</trkpt>
<trkpt lat="45.9160760" lon="10.2602280">
	<ele>479.80</ele>
	<time>2025-04-30T05:43:07.000Z</time>
</trkpt>
<trkpt lat="45.9160620" lon="10.2602230">
	<ele>480.00</ele>
	<time>2025-04-30T05:43:08.000Z</time>
</trkpt>
<trkpt lat="45.9160510" lon="10.2602210">
	<ele>480.20</ele>
	<time>2025-04-30T05:43:09.000Z</time>
</trkpt>
<trkpt lat="45.9160500" lon="10.2602110">
	<ele>480.40</ele>
	<time>2025-04-30T05:43:10.000Z</time>
</trkpt>
<trkpt lat="45.9160520" lon="10.2602010">
	<ele>480.80</ele>
	<time>2025-04-30T05:43:11.000Z</time>
</trkpt>
<trkpt lat="45.9160550" lon="10.2601940">
	<ele>481.00</ele>
	<time>2025-04-30T05:43:12.000Z</time>
</trkpt>
<trkpt lat="45.9160520" lon="10.2601870">
	<ele>481.20</ele>
	<time>2025-04-30T05:43:13.000Z</time>
</trkpt>
<trkpt lat="45.9160460" lon="10.2601780">
	<ele>481.40</ele>
	<time>2025-04-30T05:43:14.000Z</time>
</trkpt>
<trkpt lat="45.9160440" lon="10.2601760">
	<ele>481.60</ele>
	<time>2025-04-30T05:43:15.000Z</time>
</trkpt>
<trkpt lat="45.9160400" lon="10.2601720">
	<ele>481.80</ele>
	<time>2025-04-30T05:43:16.000Z</time>
</trkpt>
<trkpt lat="45.9160340" lon="10.2601630">
	<ele>482.00</ele>
	<time>2025-04-30T05:43:17.000Z</time>
</trkpt>
<trkpt lat="45.9160300" lon="10.2601580">
	<ele>482.00</ele>
	<time>2025-04-30T05:43:18.000Z</time>
</trkpt>
<trkpt lat="45.9160250" lon="10.2601470">
	<ele>482.40</ele>
	<time>2025-04-30T05:43:19.000Z</time>
</trkpt>
<trkpt lat="45.9160160" lon="10.2601400">
	<ele>482.60</ele>
	<time>2025-04-30T05:43:20.000Z</time>
</trkpt>
<trkpt lat="45.9160120" lon="10.2601390">
	<ele>482.80</ele>
	<time>2025-04-30T05:43:21.000Z</time>
</trkpt>
<trkpt lat="45.9160080" lon="10.2601350">
	<ele>483.00</ele>
	<time>2025-04-30T05:43:22.000Z</time>
</trkpt>
<trkpt lat="45.9160040" lon="10.2601330">
	<ele>483.20</ele>
	<time>2025-04-30T05:43:23.000Z</time>
</trkpt>
<trkpt lat="45.9159970" lon="10.2601340">
	<ele>483.20</ele>
	<time>2025-04-30T05:43:24.000Z</time>
</trkpt>
<trkpt lat="45.9159910" lon="10.2601300">
	<ele>483.60</ele>
	<time>2025-04-30T05:43:25.000Z</time>
</trkpt>
<trkpt lat="45.9159840" lon="10.2601240">
	<ele>483.80</ele>
	<time>2025-04-30T05:43:26.000Z</time>
</trkpt>
<trkpt lat="45.9159800" lon="10.2601180">
	<ele>484.00</ele>
	<time>2025-04-30T05:43:27.000Z</time>
</trkpt>
<trkpt lat="45.9159730" lon="10.2601100">
	<ele>484.20</ele>
	<time>2025-04-30T05:43:28.000Z</time>
</trkpt>
<trkpt lat="45.9159700" lon="10.2601090">
	<ele>484.40</ele>
	<time>2025-04-30T05:43:29.000Z</time>
</trkpt>
<trkpt lat="45.9159660" lon="10.2601050">
	<ele>484.60</ele>
	<time>2025-04-30T05:43:30.000Z</time>
</trkpt>
<trkpt lat="45.9159630" lon="10.2601060">
	<ele>485.00</ele>
	<time>2025-04-30T05:43:31.000Z</time>
</trkpt>
<trkpt lat="45.9159550" lon="10.2601080">
	<ele>485.20</ele>
	<time>2025-04-30T05:43:32.000Z</time>
</trkpt>
<trkpt lat="45.9159540" lon="10.2600930">
	<ele>485.40</ele>
	<time>2025-04-30T05:43:33.000Z</time>
</trkpt>
<trkpt lat="45.9159440" lon="10.2600910">
	<ele>485.60</ele>
	<time>2025-04-30T05:43:34.000Z</time>
</trkpt>
<trkpt lat="45.9159410" lon="10.2600860">
	<ele>485.80</ele>
	<time>2025-04-30T05:43:35.000Z</time>
</trkpt>
<trkpt lat="45.9159390" lon="10.2600830">
	<ele>485.80</ele>
	<time>2025-04-30T05:43:36.000Z</time>
</trkpt>
<trkpt lat="45.9159310" lon="10.2600730">
	<ele>486.00</ele>
	<time>2025-04-30T05:43:37.000Z</time>
</trkpt>
<trkpt lat="45.9159220" lon="10.2600730">
	<ele>486.20</ele>
	<time>2025-04-30T05:43:38.000Z</time>
</trkpt>
<trkpt lat="45.9159110" lon="10.2600650">
	<ele>486.60</ele>
	<time>2025-04-30T05:43:39.000Z</time>
</trkpt>
<trkpt lat="45.9158990" lon="10.2600580">
	<ele>486.80</ele>
	<time>2025-04-30T05:43:40.000Z</time>
</trkpt>
<trkpt lat="45.9158900" lon="10.2600580">
	<ele>487.00</ele>
	<time>2025-04-30T05:43:41.000Z</time>
</trkpt>
<trkpt lat="45.9158800" lon="10.2600480">
	<ele>487.20</ele>
	<time>2025-04-30T05:43:42.000Z</time>
</trkpt>
<trkpt lat="45.9158790" lon="10.2600360">
	<ele>487.60</ele>
	<time>2025-04-30T05:43:43.000Z</time>
</trkpt>
<trkpt lat="45.9158760" lon="10.2600190">
	<ele>487.80</ele>
	<time>2025-04-30T05:43:44.000Z</time>
</trkpt>
<trkpt lat="45.9158710" lon="10.2600090">
	<ele>487.80</ele>
	<time>2025-04-30T05:43:45.000Z</time>
</trkpt>
<trkpt lat="45.9158630" lon="10.2600040">
	<ele>488.00</ele>
	<time>2025-04-30T05:43:46.000Z</time>
</trkpt>
<trkpt lat="45.9158570" lon="10.2600050">
	<ele>488.20</ele>
	<time>2025-04-30T05:43:47.000Z</time>
</trkpt>
<trkpt lat="45.9158480" lon="10.2600070">
	<ele>488.40</ele>
	<time>2025-04-30T05:43:48.000Z</time>
</trkpt>
<trkpt lat="45.9158400" lon="10.2600090">
	<ele>488.60</ele>
	<time>2025-04-30T05:43:49.000Z</time>
</trkpt>
<trkpt lat="45.9158330" lon="10.2600060">
	<ele>488.60</ele>
	<time>2025-04-30T05:43:50.000Z</time>
</trkpt>
<trkpt lat="45.9158260" lon="10.2600060">
	<ele>488.80</ele>
	<time>2025-04-30T05:43:51.000Z</time>
</trkpt>
<trkpt lat="45.9158160" lon="10.2600030">
	<ele>489.00</ele>
	<time>2025-04-30T05:43:52.000Z</time>
</trkpt>
<trkpt lat="45.9158080" lon="10.2599960">
	<ele>489.20</ele>
	<time>2025-04-30T05:43:53.000Z</time>
</trkpt>
<trkpt lat="45.9158020" lon="10.2599920">
	<ele>489.20</ele>
	<time>2025-04-30T05:43:54.000Z</time>
</trkpt>
<trkpt lat="45.9157940" lon="10.2599920">
	<ele>489.40</ele>
	<time>2025-04-30T05:43:55.000Z</time>
</trkpt>
<trkpt lat="45.9157840" lon="10.2599860">
	<ele>489.60</ele>
	<time>2025-04-30T05:43:56.000Z</time>
</trkpt>
<trkpt lat="45.9157820" lon="10.2599770">
	<ele>489.80</ele>
	<time>2025-04-30T05:43:57.000Z</time>
</trkpt>
<trkpt lat="45.9157760" lon="10.2599630">
	<ele>490.00</ele>
	<time>2025-04-30T05:43:58.000Z</time>
</trkpt>
<trkpt lat="45.9157730" lon="10.2599490">
	<ele>490.40</ele>
	<time>2025-04-30T05:43:59.000Z</time>
</trkpt>
<trkpt lat="45.9157720" lon="10.2599430">
	<ele>490.60</ele>
	<time>2025-04-30T05:44:00.000Z</time>
</trkpt>
<trkpt lat="45.9157690" lon="10.2599340">
	<ele>490.80</ele>
	<time>2025-04-30T05:44:01.000Z</time>
</trkpt>
<trkpt lat="45.9157640" lon="10.2599300">
	<ele>491.00</ele>
	<time>2025-04-30T05:44:02.000Z</time>
</trkpt>
<trkpt lat="45.9157550" lon="10.2599210">
	<ele>491.20</ele>
	<time>2025-04-30T05:44:03.000Z</time>
</trkpt>
<trkpt lat="45.9157470" lon="10.2599120">
	<ele>491.40</ele>
	<time>2025-04-30T05:44:04.000Z</time>
</trkpt>
<trkpt lat="45.9157430" lon="10.2599050">
	<ele>491.60</ele>
	<time>2025-04-30T05:44:05.000Z</time>
</trkpt>
<trkpt lat="45.9157350" lon="10.2598990">
	<ele>491.80</ele>
	<time>2025-04-30T05:44:06.000Z</time>
</trkpt>
<trkpt lat="45.9157240" lon="10.2598990">
	<ele>492.00</ele>
	<time>2025-04-30T05:44:07.000Z</time>
</trkpt>
<trkpt lat="45.9157150" lon="10.2598970">
	<ele>492.20</ele>
	<time>2025-04-30T05:44:08.000Z</time>
</trkpt>
<trkpt lat="45.9157070" lon="10.2598950">
	<ele>492.60</ele>
	<time>2025-04-30T05:44:09.000Z</time>
</trkpt>
<trkpt lat="45.9157010" lon="10.2598860">
	<ele>492.80</ele>
	<time>2025-04-30T05:44:10.000Z</time>
</trkpt>
<trkpt lat="45.9156940" lon="10.2598780">
	<ele>492.80</ele>
	<time>2025-04-30T05:44:11.000Z</time>
</trkpt>
<trkpt lat="45.9156880" lon="10.2598630">
	<ele>493.00</ele>
	<time>2025-04-30T05:44:12.000Z</time>
</trkpt>
<trkpt lat="45.9156800" lon="10.2598560">
	<ele>493.20</ele>
	<time>2025-04-30T05:44:13.000Z</time>
</trkpt>
<trkpt lat="45.9156730" lon="10.2598420">
	<ele>493.20</ele>
	<time>2025-04-30T05:44:14.000Z</time>
</trkpt>
<trkpt lat="45.9156680" lon="10.2598260">
	<ele>493.40</ele>
	<time>2025-04-30T05:44:15.000Z</time>
</trkpt>
<trkpt lat="45.9156650" lon="10.2598070">
	<ele>493.60</ele>
	<time>2025-04-30T05:44:16.000Z</time>
</trkpt>
<trkpt lat="45.9156630" lon="10.2597920">
	<ele>493.80</ele>
	<time>2025-04-30T05:44:17.000Z</time>
</trkpt>
<trkpt lat="45.9156610" lon="10.2597880">
	<ele>493.80</ele>
	<time>2025-04-30T05:44:18.000Z</time>
</trkpt>
<trkpt lat="45.9156600" lon="10.2597580">
	<ele>494.00</ele>
	<time>2025-04-30T05:44:19.000Z</time>
</trkpt>
<trkpt lat="45.9156700" lon="10.2597060">
	<ele>494.20</ele>
	<time>2025-04-30T05:44:20.000Z</time>
</trkpt>
<trkpt lat="45.9156590" lon="10.2597190">
	<ele>494.40</ele>
	<time>2025-04-30T05:44:21.000Z</time>
</trkpt>
<trkpt lat="45.9156480" lon="10.2597190">
	<ele>494.60</ele>
	<time>2025-04-30T05:44:22.000Z</time>
</trkpt>
<trkpt lat="45.9156330" lon="10.2597330">
	<ele>494.80</ele>
	<time>2025-04-30T05:44:23.000Z</time>
</trkpt>
<trkpt lat="45.9156300" lon="10.2597300">
	<ele>495.20</ele>
	<time>2025-04-30T05:44:24.000Z</time>
</trkpt>
<trkpt lat="45.9156270" lon="10.2597300">
	<ele>495.40</ele>
	<time>2025-04-30T05:44:25.000Z</time>
</trkpt>
<trkpt lat="45.9156240" lon="10.2597210">
	<ele>495.60</ele>
	<time>2025-04-30T05:44:26.000Z</time>
</trkpt>
<trkpt lat="45.9156190" lon="10.2597210">
	<ele>495.80</ele>
	<time>2025-04-30T05:44:27.000Z</time>
</trkpt>
<trkpt lat="45.9156030" lon="10.2597250">
	<ele>495.80</ele>
	<time>2025-04-30T05:44:28.000Z</time>
</trkpt>
<trkpt lat="45.9155950" lon="10.2597250">
	<ele>496.00</ele>
	<time>2025-04-30T05:44:29.000Z</time>
</trkpt>
<trkpt lat="45.9155860" lon="10.2597330">
	<ele>496.20</ele>
	<time>2025-04-30T05:44:30.000Z</time>
</trkpt>
<trkpt lat="45.9155750" lon="10.2597320">
	<ele>496.40</ele>
	<time>2025-04-30T05:44:31.000Z</time>
</trkpt>
<trkpt lat="45.9155650" lon="10.2597220">
	<ele>496.60</ele>
	<time>2025-04-30T05:44:32.000Z</time>
</trkpt>
<trkpt lat="45.9155610" lon="10.2597120">
	<ele>496.80</ele>
	<time>2025-04-30T05:44:33.000Z</time>
</trkpt>
<trkpt lat="45.9155500" lon="10.2597050">
	<ele>497.00</ele>
	<time>2025-04-30T05:44:34.000Z</time>
</trkpt>
<trkpt lat="45.9155420" lon="10.2596990">
	<ele>497.40</ele>
	<time>2025-04-30T05:44:35.000Z</time>
</trkpt>
<trkpt lat="45.9155350" lon="10.2597020">
	<ele>497.60</ele>
	<time>2025-04-30T05:44:36.000Z</time>
</trkpt>
<trkpt lat="45.9155290" lon="10.2597010">
	<ele>497.80</ele>
	<time>2025-04-30T05:44:37.000Z</time>
</trkpt>
<trkpt lat="45.9155240" lon="10.2596950">
	<ele>498.00</ele>
	<time>2025-04-30T05:44:38.000Z</time>
</trkpt>
<trkpt lat="45.9155210" lon="10.2596830">
	<ele>498.20</ele>
	<time>2025-04-30T05:44:39.000Z</time>
</trkpt>
<trkpt lat="45.9155110" lon="10.2596800">
	<ele>498.20</ele>
	<time>2025-04-30T05:44:40.000Z</time>
</trkpt>
<trkpt lat="45.9155100" lon="10.2596710">
	<ele>498.40</ele>
	<time>2025-04-30T05:44:41.000Z</time>
</trkpt>
<trkpt lat="45.9155070" lon="10.2596670">
	<ele>498.60</ele>
	<time>2025-04-30T05:44:42.000Z</time>
</trkpt>
<trkpt lat="45.9155010" lon="10.2596520">
	<ele>498.60</ele>
	<time>2025-04-30T05:44:43.000Z</time>
</trkpt>
<trkpt lat="45.9154900" lon="10.2596480">
	<ele>498.80</ele>
	<time>2025-04-30T05:44:44.000Z</time>
</trkpt>
<trkpt lat="45.9154850" lon="10.2596470">
	<ele>499.00</ele>
	<time>2025-04-30T05:44:45.000Z</time>
</trkpt>
<trkpt lat="45.9154810" lon="10.2596440">
	<ele>499.40</ele>
	<time>2025-04-30T05:44:46.000Z</time>
</trkpt>
<trkpt lat="45.9154760" lon="10.2596410">
	<ele>499.60</ele>
	<time>2025-04-30T05:44:47.000Z</time>
</trkpt>
<trkpt lat="45.9154720" lon="10.2596420">
	<ele>499.60</ele>
	<time>2025-04-30T05:44:48.000Z</time>
</trkpt>
<trkpt lat="45.9154660" lon="10.2596420">
	<ele>500.20</ele>
	<time>2025-04-30T05:44:49.000Z</time>
</trkpt>
<trkpt lat="45.9154560" lon="10.2596480">
	<ele>500.40</ele>
	<time>2025-04-30T05:44:50.000Z</time>
</trkpt>
<trkpt lat="45.9154490" lon="10.2596470">
	<ele>500.40</ele>
	<time>2025-04-30T05:44:51.000Z</time>
</trkpt>
<trkpt lat="45.9154470" lon="10.2596450">
	<ele>500.80</ele>
	<time>2025-04-30T05:44:52.000Z</time>
</trkpt>
<trkpt lat="45.9154500" lon="10.2596410">
	<ele>501.00</ele>
	<time>2025-04-30T05:44:53.000Z</time>
</trkpt>
<trkpt lat="45.9154510" lon="10.2596350">
	<ele>501.00</ele>
	<time>2025-04-30T05:44:54.000Z</time>
</trkpt>
<trkpt lat="45.9154510" lon="10.2596330">
	<ele>501.20</ele>
	<time>2025-04-30T05:44:55.000Z</time>
</trkpt>
<trkpt lat="45.9154470" lon="10.2596300">
	<ele>501.40</ele>
	<time>2025-04-30T05:44:56.000Z</time>
</trkpt>
<trkpt lat="45.9154410" lon="10.2596200">
	<ele>501.40</ele>
	<time>2025-04-30T05:44:57.000Z</time>
</trkpt>
<trkpt lat="45.9154450" lon="10.2596090">
	<ele>501.60</ele>
	<time>2025-04-30T05:44:58.000Z</time>
</trkpt>
<trkpt lat="45.9154460" lon="10.2595970">
	<ele>501.80</ele>
	<time>2025-04-30T05:44:59.000Z</time>
</trkpt>
<trkpt lat="45.9154410" lon="10.2595890">
	<ele>502.00</ele>
	<time>2025-04-30T05:45:00.000Z</time>
</trkpt>
<trkpt lat="45.9154390" lon="10.2595830">
	<ele>502.00</ele>
	<time>2025-04-30T05:45:01.000Z</time>
</trkpt>
<trkpt lat="45.9154340" lon="10.2595780">
	<ele>502.20</ele>
	<time>2025-04-30T05:45:02.000Z</time>
</trkpt>
<trkpt lat="45.9154210" lon="10.2595720">
	<ele>502.40</ele>
	<time>2025-04-30T05:45:03.000Z</time>
</trkpt>
<trkpt lat="45.9154060" lon="10.2595680">
	<ele>502.40</ele>
	<time>2025-04-30T05:45:04.000Z</time>
</trkpt>
<trkpt lat="45.9153990" lon="10.2595670">
	<ele>502.80</ele>
	<time>2025-04-30T05:45:05.000Z</time>
</trkpt>
<trkpt lat="45.9153940" lon="10.2595600">
	<ele>503.00</ele>
	<time>2025-04-30T05:45:06.000Z</time>
</trkpt>
<trkpt lat="45.9153890" lon="10.2595550">
	<ele>503.20</ele>
	<time>2025-04-30T05:45:07.000Z</time>
</trkpt>
<trkpt lat="45.9153850" lon="10.2595500">
	<ele>503.40</ele>
	<time>2025-04-30T05:45:08.000Z</time>
</trkpt>
<trkpt lat="45.9153710" lon="10.2595490">
	<ele>503.60</ele>
	<time>2025-04-30T05:45:09.000Z</time>
</trkpt>
<trkpt lat="45.9153680" lon="10.2595440">
	<ele>503.80</ele>
	<time>2025-04-30T05:45:10.000Z</time>
</trkpt>
<trkpt lat="45.9153660" lon="10.2595400">
	<ele>504.20</ele>
	<time>2025-04-30T05:45:11.000Z</time>
</trkpt>
<trkpt lat="45.9153590" lon="10.2595370">
	<ele>504.40</ele>
	<time>2025-04-30T05:45:12.000Z</time>
</trkpt>
<trkpt lat="45.9153510" lon="10.2595380">
	<ele>504.60</ele>
	<time>2025-04-30T05:45:13.000Z</time>
</trkpt>
<trkpt lat="45.9153420" lon="10.2595350">
	<ele>504.80</ele>
	<time>2025-04-30T05:45:14.000Z</time>
</trkpt>
<trkpt lat="45.9153300" lon="10.2595330">
	<ele>505.00</ele>
	<time>2025-04-30T05:45:15.000Z</time>
</trkpt>
<trkpt lat="45.9153150" lon="10.2595240">
	<ele>505.20</ele>
	<time>2025-04-30T05:45:16.000Z</time>
</trkpt>
<trkpt lat="45.9153010" lon="10.2595110">
	<ele>505.40</ele>
	<time>2025-04-30T05:45:17.000Z</time>
</trkpt>
<trkpt lat="45.9152980" lon="10.2594920">
	<ele>505.40</ele>
	<time>2025-04-30T05:45:18.000Z</time>
</trkpt>
<trkpt lat="45.9152950" lon="10.2594790">
	<ele>505.60</ele>
	<time>2025-04-30T05:45:19.000Z</time>
</trkpt>
<trkpt lat="45.9152920" lon="10.2594710">
	<ele>505.60</ele>
	<time>2025-04-30T05:45:20.000Z</time>
</trkpt>
<trkpt lat="45.9152860" lon="10.2594660">
	<ele>505.80</ele>
	<time>2025-04-30T05:45:21.000Z</time>
</trkpt>
<trkpt lat="45.9152750" lon="10.2594610">
	<ele>505.80</ele>
	<time>2025-04-30T05:45:22.000Z</time>
</trkpt>
<trkpt lat="45.9152680" lon="10.2594520">
	<ele>506.20</ele>
	<time>2025-04-30T05:45:23.000Z</time>
</trkpt>
<trkpt lat="45.9152580" lon="10.2594440">
	<ele>506.20</ele>
	<time>2025-04-30T05:45:24.000Z</time>
</trkpt>
<trkpt lat="45.9152500" lon="10.2594390">
	<ele>506.40</ele>
	<time>2025-04-30T05:45:25.000Z</time>
</trkpt>
<trkpt lat="45.9152420" lon="10.2594360">
	<ele>506.60</ele>
	<time>2025-04-30T05:45:26.000Z</time>
</trkpt>
<trkpt lat="45.9152280" lon="10.2594310">
	<ele>506.80</ele>
	<time>2025-04-30T05:45:27.000Z</time>
</trkpt>
<trkpt lat="45.9152210" lon="10.2594270">
	<ele>507.00</ele>
	<time>2025-04-30T05:45:28.000Z</time>
</trkpt>
<trkpt lat="45.9152140" lon="10.2594250">
	<ele>507.20</ele>
	<time>2025-04-30T05:45:29.000Z</time>
</trkpt>
<trkpt lat="45.9152070" lon="10.2594190">
	<ele>507.40</ele>
	<time>2025-04-30T05:45:30.000Z</time>
</trkpt>
<trkpt lat="45.9152020" lon="10.2594160">
	<ele>507.60</ele>
	<time>2025-04-30T05:45:31.000Z</time>
</trkpt>
<trkpt lat="45.9151910" lon="10.2594170">
	<ele>507.60</ele>
	<time>2025-04-30T05:45:32.000Z</time>
</trkpt>
<trkpt lat="45.9151810" lon="10.2594100">
	<ele>507.80</ele>
	<time>2025-04-30T05:45:33.000Z</time>
</trkpt>
<trkpt lat="45.9151690" lon="10.2594050">
	<ele>508.00</ele>
	<time>2025-04-30T05:45:34.000Z</time>
</trkpt>
<trkpt lat="45.9151590" lon="10.2594030">
	<ele>508.00</ele>
	<time>2025-04-30T05:45:35.000Z</time>
</trkpt>
<trkpt lat="45.9151520" lon="10.2594070">
	<ele>508.20</ele>
	<time>2025-04-30T05:45:36.000Z</time>
</trkpt>
<trkpt lat="45.9151410" lon="10.2594010">
	<ele>508.40</ele>
	<time>2025-04-30T05:45:37.000Z</time>
</trkpt>
<trkpt lat="45.9151290" lon="10.2593950">
	<ele>508.60</ele>
	<time>2025-04-30T05:45:38.000Z</time>
</trkpt>
<trkpt lat="45.9151250" lon="10.2593800">
	<ele>508.80</ele>
	<time>2025-04-30T05:45:39.000Z</time>
</trkpt>
<trkpt lat="45.9151170" lon="10.2593700">
	<ele>508.80</ele>
	<time>2025-04-30T05:45:40.000Z</time>
</trkpt>
<trkpt lat="45.9151100" lon="10.2593610">
	<ele>509.00</ele>
	<time>2025-04-30T05:45:41.000Z</time>
</trkpt>
<trkpt lat="45.9151090" lon="10.2593560">
	<ele>509.20</ele>
	<time>2025-04-30T05:45:42.000Z</time>
</trkpt>
<trkpt lat="45.9151080" lon="10.2593290">
	<ele>509.40</ele>
	<time>2025-04-30T05:45:43.000Z</time>
</trkpt>
<trkpt lat="45.9150980" lon="10.2593200">
	<ele>509.60</ele>
	<time>2025-04-30T05:45:44.000Z</time>
</trkpt>
<trkpt lat="45.9150890" lon="10.2593170">
	<ele>509.80</ele>
	<time>2025-04-30T05:45:45.000Z</time>
</trkpt>
<trkpt lat="45.9150790" lon="10.2593100">
	<ele>510.00</ele>
	<time>2025-04-30T05:45:46.000Z</time>
</trkpt>
<trkpt lat="45.9150750" lon="10.2592980">
	<ele>510.20</ele>
	<time>2025-04-30T05:45:47.000Z</time>
</trkpt>
<trkpt lat="45.9150700" lon="10.2592840">
	<ele>510.40</ele>
	<time>2025-04-30T05:45:48.000Z</time>
</trkpt>
<trkpt lat="45.9150640" lon="10.2592770">
	<ele>510.40</ele>
	<time>2025-04-30T05:45:49.000Z</time>
</trkpt>
<trkpt lat="45.9150580" lon="10.2592720">
	<ele>510.60</ele>
	<time>2025-04-30T05:45:50.000Z</time>
</trkpt>
<trkpt lat="45.9150660" lon="10.2592580">
	<ele>510.60</ele>
	<time>2025-04-30T05:45:51.000Z</time>
</trkpt>
<trkpt lat="45.9150620" lon="10.2592520">
	<ele>510.80</ele>
	<time>2025-04-30T05:45:52.000Z</time>
</trkpt>
<trkpt lat="45.9150610" lon="10.2592430">
	<ele>511.00</ele>
	<time>2025-04-30T05:45:53.000Z</time>
</trkpt>
<trkpt lat="45.9150610" lon="10.2592380">
	<ele>511.20</ele>
	<time>2025-04-30T05:45:54.000Z</time>
</trkpt>
<trkpt lat="45.9150560" lon="10.2592330">
	<ele>511.40</ele>
	<time>2025-04-30T05:45:55.000Z</time>
</trkpt>
<trkpt lat="45.9150580" lon="10.2592240">
	<ele>511.40</ele>
	<time>2025-04-30T05:45:56.000Z</time>
</trkpt>
<trkpt lat="45.9150540" lon="10.2592180">
	<ele>511.60</ele>
	<time>2025-04-30T05:45:57.000Z</time>
</trkpt>
<trkpt lat="45.9150420" lon="10.2592170">
	<ele>511.80</ele>
	<time>2025-04-30T05:45:58.000Z</time>
</trkpt>
<trkpt lat="45.9150300" lon="10.2592110">
	<ele>511.80</ele>
	<time>2025-04-30T05:45:59.000Z</time>
</trkpt>
<trkpt lat="45.9150270" lon="10.2592000">
	<ele>512.20</ele>
	<time>2025-04-30T05:46:00.000Z</time>
</trkpt>
<trkpt lat="45.9150170" lon="10.2591870">
	<ele>512.40</ele>
	<time>2025-04-30T05:46:01.000Z</time>
</trkpt>
<trkpt lat="45.9150080" lon="10.2591730">
	<ele>512.60</ele>
	<time>2025-04-30T05:46:02.000Z</time>
</trkpt>
<trkpt lat="45.9150010" lon="10.2591620">
	<ele>512.80</ele>
	<time>2025-04-30T05:46:03.000Z</time>
</trkpt>
<trkpt lat="45.9149930" lon="10.2591530">
	<ele>512.80</ele>
	<time>2025-04-30T05:46:04.000Z</time>
</trkpt>
<trkpt lat="45.9149850" lon="10.2591500">
	<ele>513.00</ele>
	<time>2025-04-30T05:46:05.000Z</time>
</trkpt>
<trkpt lat="45.9149770" lon="10.2591440">
	<ele>513.20</ele>
	<time>2025-04-30T05:46:06.000Z</time>
</trkpt>
<trkpt lat="45.9149810" lon="10.2591230">
	<ele>513.40</ele>
	<time>2025-04-30T05:46:07.000Z</time>
</trkpt>
<trkpt lat="45.9149820" lon="10.2591160">
	<ele>513.60</ele>
	<time>2025-04-30T05:46:08.000Z</time>
</trkpt>
<trkpt lat="45.9149700" lon="10.2591250">
	<ele>513.80</ele>
	<time>2025-04-30T05:46:09.000Z</time>
</trkpt>
<trkpt lat="45.9149560" lon="10.2591230">
	<ele>514.00</ele>
	<time>2025-04-30T05:46:10.000Z</time>
</trkpt>
<trkpt lat="45.9149440" lon="10.2591300">
	<ele>514.20</ele>
	<time>2025-04-30T05:46:11.000Z</time>
</trkpt>
<trkpt lat="45.9149350" lon="10.2591360">
	<ele>514.40</ele>
	<time>2025-04-30T05:46:12.000Z</time>
</trkpt>
<trkpt lat="45.9149300" lon="10.2591330">
	<ele>514.60</ele>
	<time>2025-04-30T05:46:13.000Z</time>
</trkpt>
<trkpt lat="45.9149240" lon="10.2591330">
	<ele>514.80</ele>
	<time>2025-04-30T05:46:14.000Z</time>
</trkpt>
<trkpt lat="45.9149190" lon="10.2591290">
	<ele>514.80</ele>
	<time>2025-04-30T05:46:15.000Z</time>
</trkpt>
<trkpt lat="45.9149240" lon="10.2591090">
	<ele>514.80</ele>
	<time>2025-04-30T05:46:16.000Z</time>
</trkpt>
<trkpt lat="45.9149260" lon="10.2590990">
	<ele>515.00</ele>
	<time>2025-04-30T05:46:17.000Z</time>
</trkpt>
<trkpt lat="45.9149150" lon="10.2590960">
	<ele>515.20</ele>
	<time>2025-04-30T05:46:18.000Z</time>
</trkpt>
<trkpt lat="45.9148970" lon="10.2590920">
	<ele>515.60</ele>
	<time>2025-04-30T05:46:19.000Z</time>
</trkpt>
<trkpt lat="45.9148940" lon="10.2590730">
	<ele>515.60</ele>
	<time>2025-04-30T05:46:20.000Z</time>
</trkpt>
<trkpt lat="45.9148890" lon="10.2590690">
	<ele>515.80</ele>
	<time>2025-04-30T05:46:21.000Z</time>
</trkpt>
<trkpt lat="45.9148820" lon="10.2590640">
	<ele>516.00</ele>
	<time>2025-04-30T05:46:22.000Z</time>
</trkpt>
<trkpt lat="45.9148730" lon="10.2590610">
	<ele>516.00</ele>
	<time>2025-04-30T05:46:23.000Z</time>
</trkpt>
<trkpt lat="45.9148670" lon="10.2590580">
	<ele>516.20</ele>
	<time>2025-04-30T05:46:24.000Z</time>
</trkpt>
<trkpt lat="45.9148580" lon="10.2590470">
	<ele>516.20</ele>
	<time>2025-04-30T05:46:25.000Z</time>
</trkpt>
<trkpt lat="45.9148470" lon="10.2590380">
	<ele>516.40</ele>
	<time>2025-04-30T05:46:26.000Z</time>
</trkpt>
<trkpt lat="45.9148400" lon="10.2590290">
	<ele>516.60</ele>
	<time>2025-04-30T05:46:27.000Z</time>
</trkpt>
<trkpt lat="45.9148340" lon="10.2590220">
	<ele>516.60</ele>
	<time>2025-04-30T05:46:28.000Z</time>
</trkpt>
<trkpt lat="45.9148270" lon="10.2590130">
	<ele>516.80</ele>
	<time>2025-04-30T05:46:29.000Z</time>
</trkpt>
<trkpt lat="45.9148210" lon="10.2590030">
	<ele>517.00</ele>
	<time>2025-04-30T05:46:30.000Z</time>
</trkpt>
<trkpt lat="45.9148110" lon="10.2589950">
	<ele>517.00</ele>
	<time>2025-04-30T05:46:31.000Z</time>
</trkpt>
<trkpt lat="45.9147980" lon="10.2589840">
	<ele>517.20</ele>
	<time>2025-04-30T05:46:32.000Z</time>
</trkpt>
<trkpt lat="45.9147920" lon="10.2589770">
	<ele>517.20</ele>
	<time>2025-04-30T05:46:33.000Z</time>
</trkpt>
<trkpt lat="45.9147850" lon="10.2589720">
	<ele>517.40</ele>
	<time>2025-04-30T05:46:34.000Z</time>
</trkpt>
<trkpt lat="45.9147680" lon="10.2589710">
	<ele>517.40</ele>
	<time>2025-04-30T05:46:35.000Z</time>
</trkpt>
<trkpt lat="45.9147530" lon="10.2589680">
	<ele>517.80</ele>
	<time>2025-04-30T05:46:36.000Z</time>
</trkpt>
<trkpt lat="45.9147410" lon="10.2589660">
	<ele>517.80</ele>
	<time>2025-04-30T05:46:37.000Z</time>
</trkpt>
<trkpt lat="45.9147330" lon="10.2589610">
	<ele>518.00</ele>
	<time>2025-04-30T05:46:38.000Z</time>
</trkpt>
<trkpt lat="45.9147240" lon="10.2589660">
	<ele>518.20</ele>
	<time>2025-04-30T05:46:39.000Z</time>
</trkpt>
<trkpt lat="45.9147180" lon="10.2589640">
	<ele>518.20</ele>
	<time>2025-04-30T05:46:40.000Z</time>
</trkpt>
<trkpt lat="45.9147070" lon="10.2589580">
	<ele>518.40</ele>
	<time>2025-04-30T05:46:41.000Z</time>
</trkpt>
<trkpt lat="45.9146950" lon="10.2589510">
	<ele>518.40</ele>
	<time>2025-04-30T05:46:42.000Z</time>
</trkpt>
<trkpt lat="45.9146900" lon="10.2589390">
	<ele>518.40</ele>
	<time>2025-04-30T05:46:43.000Z</time>
</trkpt>
<trkpt lat="45.9146730" lon="10.2589350">
	<ele>518.60</ele>
	<time>2025-04-30T05:46:44.000Z</time>
</trkpt>
<trkpt lat="45.9146620" lon="10.2589320">
	<ele>518.80</ele>
	<time>2025-04-30T05:46:45.000Z</time>
</trkpt>
<trkpt lat="45.9146490" lon="10.2589270">
	<ele>519.00</ele>
	<time>2025-04-30T05:46:46.000Z</time>
</trkpt>
<trkpt lat="45.9146370" lon="10.2589190">
	<ele>519.20</ele>
	<time>2025-04-30T05:46:47.000Z</time>
</trkpt>
<trkpt lat="45.9146420" lon="10.2589110">
	<ele>519.20</ele>
	<time>2025-04-30T05:46:48.000Z</time>
</trkpt>
<trkpt lat="45.9146440" lon="10.2589060">
	<ele>519.40</ele>
	<time>2025-04-30T05:46:49.000Z</time>
</trkpt>
<trkpt lat="45.9146290" lon="10.2589030">
	<ele>519.60</ele>
	<time>2025-04-30T05:46:50.000Z</time>
</trkpt>
<trkpt lat="45.9146180" lon="10.2589030">
	<ele>519.60</ele>
	<time>2025-04-30T05:46:51.000Z</time>
</trkpt>
<trkpt lat="45.9146120" lon="10.2588950">
	<ele>519.80</ele>
	<time>2025-04-30T05:46:52.000Z</time>
</trkpt>
<trkpt lat="45.9146010" lon="10.2588920">
	<ele>520.00</ele>
	<time>2025-04-30T05:46:53.000Z</time>
</trkpt>
<trkpt lat="45.9145890" lon="10.2588860">
	<ele>520.20</ele>
	<time>2025-04-30T05:46:54.000Z</time>
</trkpt>
<trkpt lat="45.9145830" lon="10.2588720">
	<ele>520.40</ele>
	<time>2025-04-30T05:46:55.000Z</time>
</trkpt>
<trkpt lat="45.9145850" lon="10.2588590">
	<ele>520.40</ele>
	<time>2025-04-30T05:46:56.000Z</time>
</trkpt>
<trkpt lat="45.9145780" lon="10.2588540">
	<ele>520.60</ele>
	<time>2025-04-30T05:46:57.000Z</time>
</trkpt>
<trkpt lat="45.9145690" lon="10.2588480">
	<ele>520.60</ele>
	<time>2025-04-30T05:46:58.000Z</time>
</trkpt>
<trkpt lat="45.9145640" lon="10.2588410">
	<ele>520.60</ele>
	<time>2025-04-30T05:46:59.000Z</time>
</trkpt>
<trkpt lat="45.9145490" lon="10.2588330">
	<ele>520.80</ele>
	<time>2025-04-30T05:47:00.000Z</time>
</trkpt>
<trkpt lat="45.9145360" lon="10.2588320">
	<ele>520.80</ele>
	<time>2025-04-30T05:47:01.000Z</time>
</trkpt>
<trkpt lat="45.9145260" lon="10.2588320">
	<ele>521.00</ele>
	<time>2025-04-30T05:47:02.000Z</time>
</trkpt>
<trkpt lat="45.9145090" lon="10.2588290">
	<ele>521.20</ele>
	<time>2025-04-30T05:47:03.000Z</time>
</trkpt>
<trkpt lat="45.9144970" lon="10.2588360">
	<ele>521.40</ele>
	<time>2025-04-30T05:47:04.000Z</time>
</trkpt>
<trkpt lat="45.9144870" lon="10.2588370">
	<ele>521.40</ele>
	<time>2025-04-30T05:47:05.000Z</time>
</trkpt>
<trkpt lat="45.9144760" lon="10.2588340">
	<ele>521.60</ele>
	<time>2025-04-30T05:47:06.000Z</time>
</trkpt>
<trkpt lat="45.9144710" lon="10.2588250">
	<ele>521.80</ele>
	<time>2025-04-30T05:47:07.000Z</time>
</trkpt>
<trkpt lat="45.9144660" lon="10.2588140">
	<ele>521.80</ele>
	<time>2025-04-30T05:47:08.000Z</time>
</trkpt>
<trkpt lat="45.9144660" lon="10.2588010">
	<ele>522.00</ele>
	<time>2025-04-30T05:47:09.000Z</time>
</trkpt>
<trkpt lat="45.9144740" lon="10.2587900">
	<ele>522.20</ele>
	<time>2025-04-30T05:47:10.000Z</time>
</trkpt>
<trkpt lat="45.9144690" lon="10.2587800">
	<ele>522.40</ele>
	<time>2025-04-30T05:47:11.000Z</time>
</trkpt>
<trkpt lat="45.9144550" lon="10.2587760">
	<ele>522.40</ele>
	<time>2025-04-30T05:47:12.000Z</time>
</trkpt>
<trkpt lat="45.9144290" lon="10.2587670">
	<ele>522.60</ele>
	<time>2025-04-30T05:47:13.000Z</time>
</trkpt>
<trkpt lat="45.9144150" lon="10.2587610">
	<ele>522.80</ele>
	<time>2025-04-30T05:47:14.000Z</time>
</trkpt>
<trkpt lat="45.9144070" lon="10.2587480">
	<ele>523.00</ele>
	<time>2025-04-30T05:47:15.000Z</time>
</trkpt>
<trkpt lat="45.9143990" lon="10.2587350">
	<ele>523.00</ele>
	<time>2025-04-30T05:47:16.000Z</time>
</trkpt>
<trkpt lat="45.9143930" lon="10.2587250">
	<ele>523.20</ele>
	<time>2025-04-30T05:47:17.000Z</time>
</trkpt>
<trkpt lat="45.9143850" lon="10.2587170">
	<ele>523.60</ele>
	<time>2025-04-30T05:47:18.000Z</time>
</trkpt>
<trkpt lat="45.9143770" lon="10.2587040">
	<ele>523.80</ele>
	<time>2025-04-30T05:47:19.000Z</time>
</trkpt>
<trkpt lat="45.9143690" lon="10.2586980">
	<ele>524.00</ele>
	<time>2025-04-30T05:47:20.000Z</time>
</trkpt>
<trkpt lat="45.9143580" lon="10.2586930">
	<ele>524.00</ele>
	<time>2025-04-30T05:47:21.000Z</time>
</trkpt>
<trkpt lat="45.9143500" lon="10.2586910">
	<ele>524.00</ele>
	<time>2025-04-30T05:47:22.000Z</time>
</trkpt>
<trkpt lat="45.9143380" lon="10.2586830">
	<ele>524.20</ele>
	<time>2025-04-30T05:47:23.000Z</time>
</trkpt>
<trkpt lat="45.9143360" lon="10.2586720">
	<ele>524.40</ele>
	<time>2025-04-30T05:47:24.000Z</time>
</trkpt>
<trkpt lat="45.9143420" lon="10.2586610">
	<ele>524.60</ele>
	<time>2025-04-30T05:47:25.000Z</time>
</trkpt>
<trkpt lat="45.9143380" lon="10.2586460">
	<ele>524.80</ele>
	<time>2025-04-30T05:47:26.000Z</time>
</trkpt>
<trkpt lat="45.9143370" lon="10.2586380">
	<ele>525.00</ele>
	<time>2025-04-30T05:47:27.000Z</time>
</trkpt>
<trkpt lat="45.9143260" lon="10.2586340">
	<ele>525.20</ele>
	<time>2025-04-30T05:47:28.000Z</time>
</trkpt>
<trkpt lat="45.9143190" lon="10.2586290">
	<ele>525.20</ele>
	<time>2025-04-30T05:47:29.000Z</time>
</trkpt>
<trkpt lat="45.9143100" lon="10.2586240">
	<ele>525.40</ele>
	<time>2025-04-30T05:47:30.000Z</time>
</trkpt>
<trkpt lat="45.9142990" lon="10.2586200">
	<ele>525.40</ele>
	<time>2025-04-30T05:47:31.000Z</time>
</trkpt>
<trkpt lat="45.9142920" lon="10.2586160">
	<ele>525.60</ele>
	<time>2025-04-30T05:47:32.000Z</time>
</trkpt>
<trkpt lat="45.9142800" lon="10.2586100">
	<ele>525.80</ele>
	<time>2025-04-30T05:47:33.000Z</time>
</trkpt>
<trkpt lat="45.9142790" lon="10.2585970">
	<ele>526.20</ele>
	<time>2025-04-30T05:47:34.000Z</time>
</trkpt>
<trkpt lat="45.9142840" lon="10.2585830">
	<ele>526.40</ele>
	<time>2025-04-30T05:47:35.000Z</time>
</trkpt>
<trkpt lat="45.9142810" lon="10.2585690">
	<ele>526.60</ele>
	<time>2025-04-30T05:47:36.000Z</time>
</trkpt>
<trkpt lat="45.9142780" lon="10.2585550">
	<ele>526.60</ele>
	<time>2025-04-30T05:47:37.000Z</time>
</trkpt>
<trkpt lat="45.9142710" lon="10.2585400">
	<ele>526.80</ele>
	<time>2025-04-30T05:47:38.000Z</time>
</trkpt>
<trkpt lat="45.9142620" lon="10.2585320">
	<ele>526.80</ele>
	<time>2025-04-30T05:47:39.000Z</time>
</trkpt>
<trkpt lat="45.9142520" lon="10.2585280">
	<ele>527.00</ele>
	<time>2025-04-30T05:47:40.000Z</time>
</trkpt>
<trkpt lat="45.9142420" lon="10.2585260">
	<ele>527.00</ele>
	<time>2025-04-30T05:47:41.000Z</time>
</trkpt>
<trkpt lat="45.9142360" lon="10.2585230">
	<ele>527.20</ele>
	<time>2025-04-30T05:47:42.000Z</time>
</trkpt>
<trkpt lat="45.9142300" lon="10.2585200">
	<ele>527.20</ele>
	<time>2025-04-30T05:47:43.000Z</time>
</trkpt>
<trkpt lat="45.9142210" lon="10.2585160">
	<ele>527.60</ele>
	<time>2025-04-30T05:47:44.000Z</time>
</trkpt>
<trkpt lat="45.9142140" lon="10.2585140">
	<ele>527.80</ele>
	<time>2025-04-30T05:47:45.000Z</time>
</trkpt>
<trkpt lat="45.9142030" lon="10.2585100">
	<ele>527.80</ele>
	<time>2025-04-30T05:47:46.000Z</time>
</trkpt>
<trkpt lat="45.9141950" lon="10.2584980">
	<ele>528.00</ele>
	<time>2025-04-30T05:47:47.000Z</time>
</trkpt>
<trkpt lat="45.9141820" lon="10.2584870">
	<ele>528.00</ele>
	<time>2025-04-30T05:47:48.000Z</time>
</trkpt>
<trkpt lat="45.9141680" lon="10.2584870">
	<ele>528.20</ele>
	<time>2025-04-30T05:47:49.000Z</time>
</trkpt>
<trkpt lat="45.9141560" lon="10.2584810">
	<ele>528.40</ele>
	<time>2025-04-30T05:47:50.000Z</time>
</trkpt>
<trkpt lat="45.9141470" lon="10.2584810">
	<ele>528.60</ele>
	<time>2025-04-30T05:47:51.000Z</time>
</trkpt>
<trkpt lat="45.9141310" lon="10.2584760">
	<ele>528.60</ele>
	<time>2025-04-30T05:47:52.000Z</time>
</trkpt>
<trkpt lat="45.9141190" lon="10.2584690">
	<ele>528.80</ele>
	<time>2025-04-30T05:47:53.000Z</time>
</trkpt>
<trkpt lat="45.9141060" lon="10.2584640">
	<ele>529.20</ele>
	<time>2025-04-30T05:47:54.000Z</time>
</trkpt>
<trkpt lat="45.9140980" lon="10.2584550">
	<ele>529.40</ele>
	<time>2025-04-30T05:47:55.000Z</time>
</trkpt>
<trkpt lat="45.9140840" lon="10.2584510">
	<ele>529.40</ele>
	<time>2025-04-30T05:47:56.000Z</time>
</trkpt>
<trkpt lat="45.9140680" lon="10.2584490">
	<ele>529.60</ele>
	<time>2025-04-30T05:47:57.000Z</time>
</trkpt>
<trkpt lat="45.9140520" lon="10.2584500">
	<ele>529.60</ele>
	<time>2025-04-30T05:47:58.000Z</time>
</trkpt>
<trkpt lat="45.9140340" lon="10.2584540">
	<ele>529.80</ele>
	<time>2025-04-30T05:47:59.000Z</time>
</trkpt>
<trkpt lat="45.9140170" lon="10.2584590">
	<ele>529.80</ele>
	<time>2025-04-30T05:48:00.000Z</time>
</trkpt>
<trkpt lat="45.9140020" lon="10.2584570">
	<ele>530.00</ele>
	<time>2025-04-30T05:48:01.000Z</time>
</trkpt>
<trkpt lat="45.9139930" lon="10.2584470">
	<ele>530.00</ele>
	<time>2025-04-30T05:48:02.000Z</time>
</trkpt>
<trkpt lat="45.9139860" lon="10.2584440">
	<ele>530.00</ele>
	<time>2025-04-30T05:48:03.000Z</time>
</trkpt>
<trkpt lat="45.9139820" lon="10.2584480">
	<ele>530.00</ele>
	<time>2025-04-30T05:48:04.000Z</time>
</trkpt>
<trkpt lat="45.9139810" lon="10.2584490">
	<ele>530.00</ele>
	<time>2025-04-30T05:48:05.000Z</time>
</trkpt>
<trkpt lat="45.9139750" lon="10.2584470">
	<ele>530.00</ele>
	<time>2025-04-30T05:48:06.000Z</time>
</trkpt>
<trkpt lat="45.9139730" lon="10.2584440">
	<ele>530.00</ele>
	<time>2025-04-30T05:48:07.000Z</time>
</trkpt>
<trkpt lat="45.9139750" lon="10.2584370">
	<ele>529.80</ele>
	<time>2025-04-30T05:48:08.000Z</time>
</trkpt>
<trkpt lat="45.9139790" lon="10.2584420">
	<ele>529.80</ele>
	<time>2025-04-30T05:48:09.000Z</time>
</trkpt>
<trkpt lat="45.9139820" lon="10.2584400">
	<ele>530.00</ele>
	<time>2025-04-30T05:48:10.000Z</time>
</trkpt>
<trkpt lat="45.9139820" lon="10.2584360">
	<ele>530.00</ele>
	<time>2025-04-30T05:48:11.000Z</time>
</trkpt>
<trkpt lat="45.9139810" lon="10.2584370">
	<ele>530.00</ele>
	<time>2025-04-30T05:48:12.000Z</time>
</trkpt>
<trkpt lat="45.9139800" lon="10.2584370">
	<ele>530.00</ele>
	<time>2025-04-30T05:48:13.000Z</time>
</trkpt>
<trkpt lat="45.9139810" lon="10.2584300">
	<ele>530.20</ele>
	<time>2025-04-30T05:48:14.000Z</time>
</trkpt>
<trkpt lat="45.9139820" lon="10.2584290">
	<ele>530.00</ele>
	<time>2025-04-30T05:48:15.000Z</time>
</trkpt>
<trkpt lat="45.9139880" lon="10.2584250">
	<ele>530.00</ele>
	<time>2025-04-30T05:48:16.000Z</time>
</trkpt>
<trkpt lat="45.9139880" lon="10.2584260">
	<ele>529.80</ele>
	<time>2025-04-30T05:48:17.000Z</time>
</trkpt>
<trkpt lat="45.9139920" lon="10.2584240">
	<ele>529.80</ele>
	<time>2025-04-30T05:48:18.000Z</time>
</trkpt>
<trkpt lat="45.9139910" lon="10.2584250">
	<ele>529.80</ele>
	<time>2025-04-30T05:48:19.000Z</time>
</trkpt>
<trkpt lat="45.9139900" lon="10.2584130">
	<ele>529.80</ele>
	<time>2025-04-30T05:48:20.000Z</time>
</trkpt>
<trkpt lat="45.9139910" lon="10.2584090">
	<ele>529.80</ele>
	<time>2025-04-30T05:48:21.000Z</time>
</trkpt>
<trkpt lat="45.9139810" lon="10.2583870">
	<ele>529.80</ele>
	<time>2025-04-30T05:48:22.000Z</time>
</trkpt>
<trkpt lat="45.9139820" lon="10.2583770">
	<ele>529.60</ele>
	<time>2025-04-30T05:48:23.000Z</time>
</trkpt>
<trkpt lat="45.9139840" lon="10.2583780">
	<ele>529.60</ele>
	<time>2025-04-30T05:48:24.000Z</time>
</trkpt>
<trkpt lat="45.9139810" lon="10.2583680">
	<ele>529.60</ele>
	<time>2025-04-30T05:48:25.000Z</time>
</trkpt>
<trkpt lat="45.9139820" lon="10.2583630">
	<ele>529.60</ele>
	<time>2025-04-30T05:48:26.000Z</time>
</trkpt>
<trkpt lat="45.9139800" lon="10.2583620">
	<ele>529.60</ele>
	<time>2025-04-30T05:48:27.000Z</time>
</trkpt>
<trkpt lat="45.9139820" lon="10.2583520">
	<ele>530.00</ele>
	<time>2025-04-30T05:48:28.000Z</time>
</trkpt>
<trkpt lat="45.9139840" lon="10.2583430">
	<ele>530.20</ele>
	<time>2025-04-30T05:48:29.000Z</time>
</trkpt>
<trkpt lat="45.9139830" lon="10.2583420">
	<ele>530.20</ele>
	<time>2025-04-30T05:48:30.000Z</time>
</trkpt>
<trkpt lat="45.9139830" lon="10.2583410">
	<ele>530.20</ele>
	<time>2025-04-30T05:48:31.000Z</time>
</trkpt>
<trkpt lat="45.9139850" lon="10.2583310">
	<ele>530.20</ele>
	<time>2025-04-30T05:48:32.000Z</time>
</trkpt>
<trkpt lat="45.9139810" lon="10.2583290">
	<ele>530.20</ele>
	<time>2025-04-30T05:48:33.000Z</time>
</trkpt>
<trkpt lat="45.9139800" lon="10.2583290">
	<ele>530.20</ele>
	<time>2025-04-30T05:48:34.000Z</time>
</trkpt>
<trkpt lat="45.9139780" lon="10.2583260">
	<ele>530.20</ele>
	<time>2025-04-30T05:48:35.000Z</time>
</trkpt>
<trkpt lat="45.9139760" lon="10.2583220">
	<ele>530.00</ele>
	<time>2025-04-30T05:48:36.000Z</time>
</trkpt>
<trkpt lat="45.9139750" lon="10.2583180">
	<ele>530.00</ele>
	<time>2025-04-30T05:48:37.000Z</time>
</trkpt>
<trkpt lat="45.9139740" lon="10.2583150">
	<ele>530.20</ele>
	<time>2025-04-30T05:48:38.000Z</time>
</trkpt>
<trkpt lat="45.9139730" lon="10.2583130">
	<ele>530.20</ele>
	<time>2025-04-30T05:48:39.000Z</time>
</trkpt>
<trkpt lat="45.9139740" lon="10.2583150">
	<ele>530.20</ele>
	<time>2025-04-30T05:48:40.000Z</time>
</trkpt>
<trkpt lat="45.9139740" lon="10.2583160">
	<ele>530.20</ele>
	<time>2025-04-30T05:48:41.000Z</time>
</trkpt>
<trkpt lat="45.9139720" lon="10.2583110">
	<ele>530.20</ele>
	<time>2025-04-30T05:48:42.000Z</time>
</trkpt>
<trkpt lat="45.9139710" lon="10.2583060">
	<ele>530.40</ele>
	<time>2025-04-30T05:48:43.000Z</time>
</trkpt>
<trkpt lat="45.9139700" lon="10.2582980">
	<ele>530.40</ele>
	<time>2025-04-30T05:48:44.000Z</time>
</trkpt>
<trkpt lat="45.9139670" lon="10.2582860">
	<ele>530.40</ele>
	<time>2025-04-30T05:48:45.000Z</time>
</trkpt>
<trkpt lat="45.9139590" lon="10.2582780">
	<ele>530.40</ele>
	<time>2025-04-30T05:48:46.000Z</time>
</trkpt>
<trkpt lat="45.9139530" lon="10.2582690">
	<ele>530.40</ele>
	<time>2025-04-30T05:48:47.000Z</time>
</trkpt>
<trkpt lat="45.9139470" lon="10.2582620">
	<ele>530.40</ele>
	<time>2025-04-30T05:48:48.000Z</time>
</trkpt>
<trkpt lat="45.9139380" lon="10.2582510">
	<ele>530.40</ele>
	<time>2025-04-30T05:48:49.000Z</time>
</trkpt>
<trkpt lat="45.9139330" lon="10.2582480">
	<ele>530.60</ele>
	<time>2025-04-30T05:48:50.000Z</time>
</trkpt>
<trkpt lat="45.9139250" lon="10.2582470">
	<ele>530.60</ele>
	<time>2025-04-30T05:48:51.000Z</time>
</trkpt>
<trkpt lat="45.9139170" lon="10.2582420">
	<ele>530.60</ele>
	<time>2025-04-30T05:48:52.000Z</time>
</trkpt>
<trkpt lat="45.9139110" lon="10.2582360">
	<ele>530.80</ele>
	<time>2025-04-30T05:48:53.000Z</time>
</trkpt>
<trkpt lat="45.9139060" lon="10.2582310">
	<ele>531.00</ele>
	<time>2025-04-30T05:48:54.000Z</time>
</trkpt>
<trkpt lat="45.9139000" lon="10.2582250">
	<ele>531.00</ele>
	<time>2025-04-30T05:48:55.000Z</time>
</trkpt>
<trkpt lat="45.9138980" lon="10.2582190">
	<ele>531.20</ele>
	<time>2025-04-30T05:48:56.000Z</time>
</trkpt>
<trkpt lat="45.9138900" lon="10.2582110">
	<ele>531.40</ele>
	<time>2025-04-30T05:48:57.000Z</time>
</trkpt>
<trkpt lat="45.9138800" lon="10.2582090">
	<ele>531.40</ele>
	<time>2025-04-30T05:48:58.000Z</time>
</trkpt>
<trkpt lat="45.9138700" lon="10.2582100">
	<ele>531.60</ele>
	<time>2025-04-30T05:48:59.000Z</time>
</trkpt>
<trkpt lat="45.9138590" lon="10.2582110">
	<ele>531.60</ele>
	<time>2025-04-30T05:49:00.000Z</time>
</trkpt>
<trkpt lat="45.9138450" lon="10.2581980">
	<ele>531.80</ele>
	<time>2025-04-30T05:49:01.000Z</time>
</trkpt>
<trkpt lat="45.9138330" lon="10.2581890">
	<ele>531.80</ele>
	<time>2025-04-30T05:49:02.000Z</time>
</trkpt>
<trkpt lat="45.9138230" lon="10.2581880">
	<ele>531.80</ele>
	<time>2025-04-30T05:49:03.000Z</time>
</trkpt>
<trkpt lat="45.9138160" lon="10.2581840">
	<ele>532.00</ele>
	<time>2025-04-30T05:49:04.000Z</time>
</trkpt>
<trkpt lat="45.9138110" lon="10.2581790">
	<ele>532.20</ele>
	<time>2025-04-30T05:49:05.000Z</time>
</trkpt>
<trkpt lat="45.9138070" lon="10.2581730">
	<ele>532.40</ele>
	<time>2025-04-30T05:49:06.000Z</time>
</trkpt>
<trkpt lat="45.9138040" lon="10.2581700">
	<ele>532.60</ele>
	<time>2025-04-30T05:49:07.000Z</time>
</trkpt>
<trkpt lat="45.9138020" lon="10.2581690">
	<ele>532.80</ele>
	<time>2025-04-30T05:49:08.000Z</time>
</trkpt>
<trkpt lat="45.9137990" lon="10.2581680">
	<ele>532.80</ele>
	<time>2025-04-30T05:49:09.000Z</time>
</trkpt>
<trkpt lat="45.9137940" lon="10.2581610">
	<ele>532.80</ele>
	<time>2025-04-30T05:49:10.000Z</time>
</trkpt>
<trkpt lat="45.9137840" lon="10.2581480">
	<ele>532.60</ele>
	<time>2025-04-30T05:49:11.000Z</time>
</trkpt>
<trkpt lat="45.9137720" lon="10.2581300">
	<ele>532.40</ele>
	<time>2025-04-30T05:49:12.000Z</time>
</trkpt>
<trkpt lat="45.9137610" lon="10.2581070">
	<ele>532.40</ele>
	<time>2025-04-30T05:49:13.000Z</time>
</trkpt>
<trkpt lat="45.9137500" lon="10.2580930">
	<ele>532.20</ele>
	<time>2025-04-30T05:49:14.000Z</time>
</trkpt>
<trkpt lat="45.9137430" lon="10.2580810">
	<ele>532.20</ele>
	<time>2025-04-30T05:49:15.000Z</time>
</trkpt>
<trkpt lat="45.9137290" lon="10.2580750">
	<ele>532.20</ele>
	<time>2025-04-30T05:49:16.000Z</time>
</trkpt>
<trkpt lat="45.9137180" lon="10.2580650">
	<ele>532.40</ele>
	<time>2025-04-30T05:49:17.000Z</time>
</trkpt>
<trkpt lat="45.9137060" lon="10.2580540">
	<ele>532.40</ele>
	<time>2025-04-30T05:49:18.000Z</time>
</trkpt>
<trkpt lat="45.9136970" lon="10.2580530">
	<ele>532.60</ele>
	<time>2025-04-30T05:49:19.000Z</time>
</trkpt>
<trkpt lat="45.9136880" lon="10.2580430">
	<ele>532.60</ele>
	<time>2025-04-30T05:49:20.000Z</time>
</trkpt>
<trkpt lat="45.9136780" lon="10.2580250">
	<ele>532.60</ele>
	<time>2025-04-30T05:49:21.000Z</time>
</trkpt>
<trkpt lat="45.9136700" lon="10.2580030">
	<ele>532.80</ele>
	<time>2025-04-30T05:49:22.000Z</time>
</trkpt>
<trkpt lat="45.9136590" lon="10.2579870">
	<ele>533.00</ele>
	<time>2025-04-30T05:49:23.000Z</time>
</trkpt>
<trkpt lat="45.9136490" lon="10.2579810">
	<ele>533.00</ele>
	<time>2025-04-30T05:49:24.000Z</time>
</trkpt>
<trkpt lat="45.9136390" lon="10.2579770">
	<ele>533.20</ele>
	<time>2025-04-30T05:49:25.000Z</time>
</trkpt>
<trkpt lat="45.9136300" lon="10.2579790">
	<ele>533.20</ele>
	<time>2025-04-30T05:49:26.000Z</time>
</trkpt>
<trkpt lat="45.9136170" lon="10.2579830">
	<ele>533.20</ele>
	<time>2025-04-30T05:49:27.000Z</time>
</trkpt>
<trkpt lat="45.9136070" lon="10.2579810">
	<ele>533.40</ele>
	<time>2025-04-30T05:49:28.000Z</time>
</trkpt>
<trkpt lat="45.9135940" lon="10.2579760">
	<ele>533.60</ele>
	<time>2025-04-30T05:49:29.000Z</time>
</trkpt>
<trkpt lat="45.9135840" lon="10.2579790">
	<ele>533.60</ele>
	<time>2025-04-30T05:49:30.000Z</time>
</trkpt>
<trkpt lat="45.9135710" lon="10.2579870">
	<ele>533.60</ele>
	<time>2025-04-30T05:49:31.000Z</time>
</trkpt>
<trkpt lat="45.9135600" lon="10.2579850">
	<ele>533.80</ele>
	<time>2025-04-30T05:49:32.000Z</time>
</trkpt>
<trkpt lat="45.9135470" lon="10.2579840">
	<ele>533.80</ele>
	<time>2025-04-30T05:49:33.000Z</time>
</trkpt>
<trkpt lat="45.9135340" lon="10.2579720">
	<ele>534.00</ele>
	<time>2025-04-30T05:49:34.000Z</time>
</trkpt>
<trkpt lat="45.9135260" lon="10.2579600">
	<ele>534.00</ele>
	<time>2025-04-30T05:49:35.000Z</time>
</trkpt>
<trkpt lat="45.9135190" lon="10.2579470">
	<ele>534.20</ele>
	<time>2025-04-30T05:49:36.000Z</time>
</trkpt>
<trkpt lat="45.9135090" lon="10.2579380">
	<ele>534.20</ele>
	<time>2025-04-30T05:49:37.000Z</time>
</trkpt>
<trkpt lat="45.9135000" lon="10.2579340">
	<ele>534.40</ele>
	<time>2025-04-30T05:49:38.000Z</time>
</trkpt>
<trkpt lat="45.9134930" lon="10.2579420">
	<ele>534.40</ele>
	<time>2025-04-30T05:49:39.000Z</time>
</trkpt>
<trkpt lat="45.9134880" lon="10.2579410">
	<ele>534.60</ele>
	<time>2025-04-30T05:49:40.000Z</time>
</trkpt>
<trkpt lat="45.9134790" lon="10.2579450">
	<ele>534.60</ele>
	<time>2025-04-30T05:49:41.000Z</time>
</trkpt>
<trkpt lat="45.9134730" lon="10.2579420">
	<ele>534.60</ele>
	<time>2025-04-30T05:49:42.000Z</time>
</trkpt>
<trkpt lat="45.9134700" lon="10.2579310">
	<ele>535.00</ele>
	<time>2025-04-30T05:49:43.000Z</time>
</trkpt>
<trkpt lat="45.9134680" lon="10.2579250">
	<ele>535.20</ele>
	<time>2025-04-30T05:49:44.000Z</time>
</trkpt>
<trkpt lat="45.9134670" lon="10.2579200">
	<ele>535.60</ele>
	<time>2025-04-30T05:49:45.000Z</time>
</trkpt>
<trkpt lat="45.9134590" lon="10.2578940">
	<ele>535.60</ele>
	<time>2025-04-30T05:49:46.000Z</time>
</trkpt>
<trkpt lat="45.9134570" lon="10.2578930">
	<ele>535.80</ele>
	<time>2025-04-30T05:49:47.000Z</time>
</trkpt>
<trkpt lat="45.9134490" lon="10.2579030">
	<ele>535.80</ele>
	<time>2025-04-30T05:49:48.000Z</time>
</trkpt>
<trkpt lat="45.9134400" lon="10.2579210">
	<ele>535.80</ele>
	<time>2025-04-30T05:49:49.000Z</time>
</trkpt>
<trkpt lat="45.9134510" lon="10.2579310">
	<ele>535.60</ele>
	<time>2025-04-30T05:49:50.000Z</time>
</trkpt>
<trkpt lat="45.9134570" lon="10.2579340">
	<ele>535.60</ele>
	<time>2025-04-30T05:49:51.000Z</time>
</trkpt>
<trkpt lat="45.9134740" lon="10.2579340">
	<ele>535.60</ele>
	<time>2025-04-30T05:49:52.000Z</time>
</trkpt>
<trkpt lat="45.9134820" lon="10.2579450">
	<ele>535.80</ele>
	<time>2025-04-30T05:49:53.000Z</time>
</trkpt>
<trkpt lat="45.9134680" lon="10.2579500">
	<ele>535.80</ele>
	<time>2025-04-30T05:49:54.000Z</time>
</trkpt>
<trkpt lat="45.9134690" lon="10.2579520">
	<ele>535.80</ele>
	<time>2025-04-30T05:49:55.000Z</time>
</trkpt>
<trkpt lat="45.9134610" lon="10.2579480">
	<ele>536.00</ele>
	<time>2025-04-30T05:49:56.000Z</time>
</trkpt>
<trkpt lat="45.9134580" lon="10.2579470">
	<ele>536.20</ele>
	<time>2025-04-30T05:49:57.000Z</time>
</trkpt>
<trkpt lat="45.9134540" lon="10.2579460">
	<ele>536.20</ele>
	<time>2025-04-30T05:49:58.000Z</time>
</trkpt>
<trkpt lat="45.9134510" lon="10.2579450">
	<ele>536.40</ele>
	<time>2025-04-30T05:49:59.000Z</time>
</trkpt>
<trkpt lat="45.9134430" lon="10.2579440">
	<ele>536.40</ele>
	<time>2025-04-30T05:50:00.000Z</time>
</trkpt>
<trkpt lat="45.9134360" lon="10.2579380">
	<ele>536.40</ele>
	<time>2025-04-30T05:50:01.000Z</time>
</trkpt>
<trkpt lat="45.9134310" lon="10.2579320">
	<ele>536.40</ele>
	<time>2025-04-30T05:50:02.000Z</time>
</trkpt>
<trkpt lat="45.9134230" lon="10.2579240">
	<ele>536.60</ele>
	<time>2025-04-30T05:50:03.000Z</time>
</trkpt>
<trkpt lat="45.9134140" lon="10.2579250">
	<ele>536.60</ele>
	<time>2025-04-30T05:50:04.000Z</time>
</trkpt>
<trkpt lat="45.9134190" lon="10.2579250">
	<ele>536.60</ele>
	<time>2025-04-30T05:50:05.000Z</time>
</trkpt>
<trkpt lat="45.9134070" lon="10.2579240">
	<ele>536.60</ele>
	<time>2025-04-30T05:50:06.000Z</time>
</trkpt>
<trkpt lat="45.9133960" lon="10.2579260">
	<ele>536.80</ele>
	<time>2025-04-30T05:50:07.000Z</time>
</trkpt>
<trkpt lat="45.9133880" lon="10.2579280">
	<ele>537.00</ele>
	<time>2025-04-30T05:50:08.000Z</time>
</trkpt>
<trkpt lat="45.9133800" lon="10.2579190">
	<ele>537.20</ele>
	<time>2025-04-30T05:50:09.000Z</time>
</trkpt>
<trkpt lat="45.9133650" lon="10.2579140">
	<ele>537.20</ele>
	<time>2025-04-30T05:50:10.000Z</time>
</trkpt>
<trkpt lat="45.9133280" lon="10.2579150">
	<ele>537.40</ele>
	<time>2025-04-30T05:50:11.000Z</time>
</trkpt>
<trkpt lat="45.9133160" lon="10.2579130">
	<ele>537.60</ele>
	<time>2025-04-30T05:50:12.000Z</time>
</trkpt>
<trkpt lat="45.9132980" lon="10.2579040">
	<ele>537.80</ele>
	<time>2025-04-30T05:50:13.000Z</time>
</trkpt>
<trkpt lat="45.9132760" lon="10.2578930">
	<ele>538.00</ele>
	<time>2025-04-30T05:50:14.000Z</time>
</trkpt>
<trkpt lat="45.9132610" lon="10.2578910">
	<ele>538.20</ele>
	<time>2025-04-30T05:50:15.000Z</time>
</trkpt>
<trkpt lat="45.9132440" lon="10.2578820">
	<ele>538.40</ele>
	<time>2025-04-30T05:50:16.000Z</time>
</trkpt>
<trkpt lat="45.9132340" lon="10.2578660">
	<ele>538.60</ele>
	<time>2025-04-30T05:50:17.000Z</time>
</trkpt>
<trkpt lat="45.9132260" lon="10.2578550">
	<ele>538.80</ele>
	<time>2025-04-30T05:50:18.000Z</time>
</trkpt>
<trkpt lat="45.9132140" lon="10.2578620">
	<ele>539.00</ele>
	<time>2025-04-30T05:50:19.000Z</time>
</trkpt>
<trkpt lat="45.9131990" lon="10.2578660">
	<ele>539.20</ele>
	<time>2025-04-30T05:50:20.000Z</time>
</trkpt>
<trkpt lat="45.9131850" lon="10.2578750">
	<ele>539.40</ele>
	<time>2025-04-30T05:50:21.000Z</time>
</trkpt>
<trkpt lat="45.9131690" lon="10.2578750">
	<ele>539.60</ele>
	<time>2025-04-30T05:50:22.000Z</time>
</trkpt>
<trkpt lat="45.9131590" lon="10.2578660">
	<ele>540.00</ele>
	<time>2025-04-30T05:50:23.000Z</time>
</trkpt>
<trkpt lat="45.9131420" lon="10.2578640">
	<ele>540.00</ele>
	<time>2025-04-30T05:50:24.000Z</time>
</trkpt>
<trkpt lat="45.9131300" lon="10.2578630">
	<ele>540.20</ele>
	<time>2025-04-30T05:50:25.000Z</time>
</trkpt>
<trkpt lat="45.9131180" lon="10.2578560">
	<ele>540.40</ele>
	<time>2025-04-30T05:50:26.000Z</time>
</trkpt>
<trkpt lat="45.9131150" lon="10.2578530">
	<ele>540.60</ele>
	<time>2025-04-30T05:50:27.000Z</time>
</trkpt>
<trkpt lat="45.9131070" lon="10.2578470">
	<ele>540.80</ele>
	<time>2025-04-30T05:50:28.000Z</time>
</trkpt>
<trkpt lat="45.9130990" lon="10.2578410">
	<ele>541.00</ele>
	<time>2025-04-30T05:50:29.000Z</time>
</trkpt>
<trkpt lat="45.9130870" lon="10.2578230">
	<ele>541.20</ele>
	<time>2025-04-30T05:50:30.000Z</time>
</trkpt>
<trkpt lat="45.9130760" lon="10.2578160">
	<ele>541.40</ele>
	<time>2025-04-30T05:50:31.000Z</time>
</trkpt>
<trkpt lat="45.9130600" lon="10.2578060">
	<ele>541.60</ele>
	<time>2025-04-30T05:50:32.000Z</time>
</trkpt>
<trkpt lat="45.9130400" lon="10.2577960">
	<ele>541.80</ele>
	<time>2025-04-30T05:50:33.000Z</time>
</trkpt>
<trkpt lat="45.9130210" lon="10.2577890">
	<ele>542.00</ele>
	<time>2025-04-30T05:50:34.000Z</time>
</trkpt>
<trkpt lat="45.9130070" lon="10.2577880">
	<ele>542.20</ele>
	<time>2025-04-30T05:50:35.000Z</time>
</trkpt>
<trkpt lat="45.9129920" lon="10.2577830">
	<ele>542.60</ele>
	<time>2025-04-30T05:50:36.000Z</time>
</trkpt>
<trkpt lat="45.9129800" lon="10.2577830">
	<ele>542.60</ele>
	<time>2025-04-30T05:50:37.000Z</time>
</trkpt>
<trkpt lat="45.9129670" lon="10.2577830">
	<ele>543.00</ele>
	<time>2025-04-30T05:50:38.000Z</time>
</trkpt>
<trkpt lat="45.9129570" lon="10.2577860">
	<ele>543.00</ele>
	<time>2025-04-30T05:50:39.000Z</time>
</trkpt>
<trkpt lat="45.9129470" lon="10.2577920">
	<ele>543.20</ele>
	<time>2025-04-30T05:50:40.000Z</time>
</trkpt>
<trkpt lat="45.9129400" lon="10.2577880">
	<ele>543.40</ele>
	<time>2025-04-30T05:50:41.000Z</time>
</trkpt>
<trkpt lat="45.9129320" lon="10.2577860">
	<ele>543.60</ele>
	<time>2025-04-30T05:50:42.000Z</time>
</trkpt>
<trkpt lat="45.9129250" lon="10.2577840">
	<ele>543.80</ele>
	<time>2025-04-30T05:50:43.000Z</time>
</trkpt>
<trkpt lat="45.9129170" lon="10.2577840">
	<ele>544.00</ele>
	<time>2025-04-30T05:50:44.000Z</time>
</trkpt>
<trkpt lat="45.9129110" lon="10.2577740">
	<ele>544.20</ele>
	<time>2025-04-30T05:50:45.000Z</time>
</trkpt>
<trkpt lat="45.9129070" lon="10.2577600">
	<ele>544.40</ele>
	<time>2025-04-30T05:50:46.000Z</time>
</trkpt>
<trkpt lat="45.9128950" lon="10.2577580">
	<ele>544.60</ele>
	<time>2025-04-30T05:50:47.000Z</time>
</trkpt>
<trkpt lat="45.9128840" lon="10.2577620">
	<ele>544.80</ele>
	<time>2025-04-30T05:50:48.000Z</time>
</trkpt>
<trkpt lat="45.9128780" lon="10.2577580">
	<ele>545.00</ele>
	<time>2025-04-30T05:50:49.000Z</time>
</trkpt>
<trkpt lat="45.9128730" lon="10.2577560">
	<ele>545.20</ele>
	<time>2025-04-30T05:50:50.000Z</time>
</trkpt>
<trkpt lat="45.9128660" lon="10.2577470">
	<ele>545.40</ele>
	<time>2025-04-30T05:50:51.000Z</time>
</trkpt>
<trkpt lat="45.9128590" lon="10.2577320">
	<ele>545.60</ele>
	<time>2025-04-30T05:50:52.000Z</time>
</trkpt>
<trkpt lat="45.9128490" lon="10.2577280">
	<ele>545.80</ele>
	<time>2025-04-30T05:50:53.000Z</time>
</trkpt>
<trkpt lat="45.9128350" lon="10.2577290">
	<ele>545.80</ele>
	<time>2025-04-30T05:50:54.000Z</time>
</trkpt>
<trkpt lat="45.9128160" lon="10.2577300">
	<ele>546.00</ele>
	<time>2025-04-30T05:50:55.000Z</time>
</trkpt>
<trkpt lat="45.9128040" lon="10.2577320">
	<ele>546.20</ele>
	<time>2025-04-30T05:50:56.000Z</time>
</trkpt>
<trkpt lat="45.9127880" lon="10.2577360">
	<ele>546.40</ele>
	<time>2025-04-30T05:50:57.000Z</time>
</trkpt>
<trkpt lat="45.9127770" lon="10.2577370">
	<ele>546.60</ele>
	<time>2025-04-30T05:50:58.000Z</time>
</trkpt>
<trkpt lat="45.9127660" lon="10.2577320">
	<ele>546.80</ele>
	<time>2025-04-30T05:50:59.000Z</time>
</trkpt>
<trkpt lat="45.9127570" lon="10.2577230">
	<ele>547.00</ele>
	<time>2025-04-30T05:51:00.000Z</time>
</trkpt>
<trkpt lat="45.9127540" lon="10.2577100">
	<ele>547.20</ele>
	<time>2025-04-30T05:51:01.000Z</time>
</trkpt>
<trkpt lat="45.9127490" lon="10.2576930">
	<ele>547.40</ele>
	<time>2025-04-30T05:51:02.000Z</time>
</trkpt>
<trkpt lat="45.9127470" lon="10.2576820">
	<ele>547.60</ele>
	<time>2025-04-30T05:51:03.000Z</time>
</trkpt>
<trkpt lat="45.9127420" lon="10.2576720">
	<ele>547.80</ele>
	<time>2025-04-30T05:51:04.000Z</time>
</trkpt>
<trkpt lat="45.9127400" lon="10.2576590">
	<ele>548.00</ele>
	<time>2025-04-30T05:51:05.000Z</time>
</trkpt>
<trkpt lat="45.9127350" lon="10.2576460">
	<ele>548.20</ele>
	<time>2025-04-30T05:51:06.000Z</time>
</trkpt>
<trkpt lat="45.9127300" lon="10.2576340">
	<ele>548.20</ele>
	<time>2025-04-30T05:51:07.000Z</time>
</trkpt>
<trkpt lat="45.9127230" lon="10.2576270">
	<ele>548.60</ele>
	<time>2025-04-30T05:51:08.000Z</time>
</trkpt>
<trkpt lat="45.9127170" lon="10.2576170">
	<ele>548.80</ele>
	<time>2025-04-30T05:51:09.000Z</time>
</trkpt>
<trkpt lat="45.9127170" lon="10.2576060">
	<ele>549.20</ele>
	<time>2025-04-30T05:51:10.000Z</time>
</trkpt>
<trkpt lat="45.9127170" lon="10.2575930">
	<ele>549.40</ele>
	<time>2025-04-30T05:51:11.000Z</time>
</trkpt>
<trkpt lat="45.9127140" lon="10.2575810">
	<ele>549.60</ele>
	<time>2025-04-30T05:51:12.000Z</time>
</trkpt>
<trkpt lat="45.9127090" lon="10.2575680">
	<ele>549.80</ele>
	<time>2025-04-30T05:51:13.000Z</time>
</trkpt>
<trkpt lat="45.9127070" lon="10.2575620">
	<ele>549.80</ele>
	<time>2025-04-30T05:51:14.000Z</time>
</trkpt>
<trkpt lat="45.9127070" lon="10.2575570">
	<ele>550.00</ele>
	<time>2025-04-30T05:51:15.000Z</time>
</trkpt>
<trkpt lat="45.9127080" lon="10.2575430">
	<ele>550.20</ele>
	<time>2025-04-30T05:51:16.000Z</time>
</trkpt>
<trkpt lat="45.9127090" lon="10.2575300">
	<ele>550.40</ele>
	<time>2025-04-30T05:51:17.000Z</time>
</trkpt>
<trkpt lat="45.9127140" lon="10.2575120">
	<ele>550.60</ele>
	<time>2025-04-30T05:51:18.000Z</time>
</trkpt>
<trkpt lat="45.9127180" lon="10.2574980">
	<ele>550.80</ele>
	<time>2025-04-30T05:51:19.000Z</time>
</trkpt>
<trkpt lat="45.9127220" lon="10.2574830">
	<ele>551.00</ele>
	<time>2025-04-30T05:51:20.000Z</time>
</trkpt>
<trkpt lat="45.9127120" lon="10.2574800">
	<ele>551.00</ele>
	<time>2025-04-30T05:51:21.000Z</time>
</trkpt>
<trkpt lat="45.9127110" lon="10.2574680">
	<ele>551.20</ele>
	<time>2025-04-30T05:51:22.000Z</time>
</trkpt>
<trkpt lat="45.9127100" lon="10.2574610">
	<ele>551.40</ele>
	<time>2025-04-30T05:51:23.000Z</time>
</trkpt>
<trkpt lat="45.9127290" lon="10.2574400">
	<ele>551.60</ele>
	<time>2025-04-30T05:51:24.000Z</time>
</trkpt>
<trkpt lat="45.9127410" lon="10.2574270">
	<ele>551.80</ele>
	<time>2025-04-30T05:51:25.000Z</time>
</trkpt>
<trkpt lat="45.9127410" lon="10.2574240">
	<ele>552.00</ele>
	<time>2025-04-30T05:51:26.000Z</time>
</trkpt>
<trkpt lat="45.9127420" lon="10.2574170">
	<ele>552.20</ele>
	<time>2025-04-30T05:51:27.000Z</time>
</trkpt>
<trkpt lat="45.9127720" lon="10.2573940">
	<ele>552.40</ele>
	<time>2025-04-30T05:51:28.000Z</time>
</trkpt>
<trkpt lat="45.9127930" lon="10.2573780">
	<ele>552.60</ele>
	<time>2025-04-30T05:51:29.000Z</time>
</trkpt>
<trkpt lat="45.9128090" lon="10.2573730">
	<ele>552.80</ele>
	<time>2025-04-30T05:51:30.000Z</time>
</trkpt>
<trkpt lat="45.9127940" lon="10.2573740">
	<ele>553.00</ele>
	<time>2025-04-30T05:51:31.000Z</time>
</trkpt>
<trkpt lat="45.9127900" lon="10.2573660">
	<ele>553.20</ele>
	<time>2025-04-30T05:51:32.000Z</time>
</trkpt>
<trkpt lat="45.9127840" lon="10.2573560">
	<ele>553.40</ele>
	<time>2025-04-30T05:51:33.000Z</time>
</trkpt>
<trkpt lat="45.9127770" lon="10.2573470">
	<ele>553.60</ele>
	<time>2025-04-30T05:51:34.000Z</time>
</trkpt>
<trkpt lat="45.9127730" lon="10.2573350">
	<ele>553.80</ele>
	<time>2025-04-30T05:51:35.000Z</time>
</trkpt>
<trkpt lat="45.9127620" lon="10.2573260">
	<ele>554.00</ele>
	<time>2025-04-30T05:51:36.000Z</time>
</trkpt>
<trkpt lat="45.9127490" lon="10.2573130">
	<ele>554.20</ele>
	<time>2025-04-30T05:51:37.000Z</time>
</trkpt>
<trkpt lat="45.9127420" lon="10.2573010">
	<ele>554.40</ele>
	<time>2025-04-30T05:51:38.000Z</time>
</trkpt>
<trkpt lat="45.9127330" lon="10.2572780">
	<ele>554.60</ele>
	<time>2025-04-30T05:51:39.000Z</time>
</trkpt>
<trkpt lat="45.9127240" lon="10.2572690">
	<ele>555.00</ele>
	<time>2025-04-30T05:51:40.000Z</time>
</trkpt>
<trkpt lat="45.9127150" lon="10.2572600">
	<ele>555.20</ele>
	<time>2025-04-30T05:51:41.000Z</time>
</trkpt>
<trkpt lat="45.9127030" lon="10.2572510">
	<ele>555.40</ele>
	<time>2025-04-30T05:51:42.000Z</time>
</trkpt>
<trkpt lat="45.9126950" lon="10.2572420">
	<ele>555.60</ele>
	<time>2025-04-30T05:51:43.000Z</time>
</trkpt>
<trkpt lat="45.9126890" lon="10.2572260">
	<ele>555.80</ele>
	<time>2025-04-30T05:51:44.000Z</time>
</trkpt>
<trkpt lat="45.9126840" lon="10.2572160">
	<ele>556.00</ele>
	<time>2025-04-30T05:51:45.000Z</time>
</trkpt>
<trkpt lat="45.9126800" lon="10.2572060">
	<ele>556.00</ele>
	<time>2025-04-30T05:51:46.000Z</time>
</trkpt>
<trkpt lat="45.9126700" lon="10.2572050">
	<ele>556.20</ele>
	<time>2025-04-30T05:51:47.000Z</time>
</trkpt>
<trkpt lat="45.9126680" lon="10.2572050">
	<ele>556.40</ele>
	<time>2025-04-30T05:51:48.000Z</time>
</trkpt>
<trkpt lat="45.9126660" lon="10.2572020">
	<ele>556.40</ele>
	<time>2025-04-30T05:51:49.000Z</time>
</trkpt>
<trkpt lat="45.9126630" lon="10.2571950">
	<ele>556.60</ele>
	<time>2025-04-30T05:51:50.000Z</time>
</trkpt>
<trkpt lat="45.9126570" lon="10.2571910">
	<ele>556.80</ele>
	<time>2025-04-30T05:51:51.000Z</time>
</trkpt>
<trkpt lat="45.9126510" lon="10.2571900">
	<ele>557.00</ele>
	<time>2025-04-30T05:51:52.000Z</time>
</trkpt>
<trkpt lat="45.9126490" lon="10.2571850">
	<ele>557.40</ele>
	<time>2025-04-30T05:51:53.000Z</time>
</trkpt>
<trkpt lat="45.9126500" lon="10.2571800">
	<ele>557.40</ele>
	<time>2025-04-30T05:51:54.000Z</time>
</trkpt>
<trkpt lat="45.9126550" lon="10.2571610">
	<ele>557.80</ele>
	<time>2025-04-30T05:51:55.000Z</time>
</trkpt>
<trkpt lat="45.9126570" lon="10.2571470">
	<ele>558.00</ele>
	<time>2025-04-30T05:51:56.000Z</time>
</trkpt>
<trkpt lat="45.9126670" lon="10.2571340">
	<ele>558.20</ele>
	<time>2025-04-30T05:51:57.000Z</time>
</trkpt>
<trkpt lat="45.9126740" lon="10.2571210">
	<ele>558.20</ele>
	<time>2025-04-30T05:51:58.000Z</time>
</trkpt>
<trkpt lat="45.9126720" lon="10.2571130">
	<ele>558.40</ele>
	<time>2025-04-30T05:51:59.000Z</time>
</trkpt>
<trkpt lat="45.9126690" lon="10.2571050">
	<ele>558.60</ele>
	<time>2025-04-30T05:52:00.000Z</time>
</trkpt>
<trkpt lat="45.9126600" lon="10.2570970">
	<ele>558.80</ele>
	<time>2025-04-30T05:52:01.000Z</time>
</trkpt>
<trkpt lat="45.9126530" lon="10.2570850">
	<ele>558.80</ele>
	<time>2025-04-30T05:52:02.000Z</time>
</trkpt>
<trkpt lat="45.9126440" lon="10.2570770">
	<ele>559.20</ele>
	<time>2025-04-30T05:52:03.000Z</time>
</trkpt>
<trkpt lat="45.9126340" lon="10.2570730">
	<ele>559.40</ele>
	<time>2025-04-30T05:52:04.000Z</time>
</trkpt>
<trkpt lat="45.9126170" lon="10.2570790">
	<ele>559.60</ele>
	<time>2025-04-30T05:52:05.000Z</time>
</trkpt>
<trkpt lat="45.9126070" lon="10.2570810">
	<ele>559.80</ele>
	<time>2025-04-30T05:52:06.000Z</time>
</trkpt>
<trkpt lat="45.9125960" lon="10.2570820">
	<ele>560.00</ele>
	<time>2025-04-30T05:52:07.000Z</time>
</trkpt>
<trkpt lat="45.9125850" lon="10.2570790">
	<ele>560.20</ele>
	<time>2025-04-30T05:52:08.000Z</time>
</trkpt>
<trkpt lat="45.9125740" lon="10.2570760">
	<ele>560.40</ele>
	<time>2025-04-30T05:52:09.000Z</time>
</trkpt>
<trkpt lat="45.9125620" lon="10.2570820">
	<ele>560.80</ele>
	<time>2025-04-30T05:52:10.000Z</time>
</trkpt>
<trkpt lat="45.9125600" lon="10.2570770">
	<ele>561.00</ele>
	<time>2025-04-30T05:52:11.000Z</time>
</trkpt>
<trkpt lat="45.9125520" lon="10.2570740">
	<ele>561.20</ele>
	<time>2025-04-30T05:52:12.000Z</time>
</trkpt>
<trkpt lat="45.9125450" lon="10.2570670">
	<ele>561.20</ele>
	<time>2025-04-30T05:52:13.000Z</time>
</trkpt>
<trkpt lat="45.9125400" lon="10.2570580">
	<ele>561.40</ele>
	<time>2025-04-30T05:52:14.000Z</time>
</trkpt>
<trkpt lat="45.9125410" lon="10.2570560">
	<ele>561.60</ele>
	<time>2025-04-30T05:52:15.000Z</time>
</trkpt>
<trkpt lat="45.9125300" lon="10.2570650">
	<ele>561.60</ele>
	<time>2025-04-30T05:52:16.000Z</time>
</trkpt>
<trkpt lat="45.9125240" lon="10.2570690">
	<ele>561.60</ele>
	<time>2025-04-30T05:52:17.000Z</time>
</trkpt>
<trkpt lat="45.9125300" lon="10.2570790">
	<ele>562.00</ele>
	<time>2025-04-30T05:52:18.000Z</time>
</trkpt>
<trkpt lat="45.9125360" lon="10.2570850">
	<ele>562.20</ele>
	<time>2025-04-30T05:52:19.000Z</time>
</trkpt>
<trkpt lat="45.9125370" lon="10.2570850">
	<ele>562.40</ele>
	<time>2025-04-30T05:52:20.000Z</time>
</trkpt>
<trkpt lat="45.9125460" lon="10.2570780">
	<ele>562.60</ele>
	<time>2025-04-30T05:52:21.000Z</time>
</trkpt>
<trkpt lat="45.9125450" lon="10.2570670">
	<ele>562.80</ele>
	<time>2025-04-30T05:52:22.000Z</time>
</trkpt>
<trkpt lat="45.9125460" lon="10.2570550">
	<ele>563.00</ele>
	<time>2025-04-30T05:52:23.000Z</time>
</trkpt>
<trkpt lat="45.9125460" lon="10.2570420">
	<ele>563.20</ele>
	<time>2025-04-30T05:52:24.000Z</time>
</trkpt>
<trkpt lat="45.9125430" lon="10.2570350">
	<ele>563.40</ele>
	<time>2025-04-30T05:52:25.000Z</time>
</trkpt>
<trkpt lat="45.9125380" lon="10.2570300">
	<ele>563.40</ele>
	<time>2025-04-30T05:52:26.000Z</time>
</trkpt>
<trkpt lat="45.9125360" lon="10.2570180">
	<ele>563.60</ele>
	<time>2025-04-30T05:52:27.000Z</time>
</trkpt>
<trkpt lat="45.9125290" lon="10.2570120">
	<ele>563.80</ele>
	<time>2025-04-30T05:52:28.000Z</time>
</trkpt>
<trkpt lat="45.9125180" lon="10.2570100">
	<ele>564.00</ele>
	<time>2025-04-30T05:52:29.000Z</time>
</trkpt>
<trkpt lat="45.9125180" lon="10.2570040">
	<ele>564.40</ele>
	<time>2025-04-30T05:52:30.000Z</time>
</trkpt>
<trkpt lat="45.9125080" lon="10.2570000">
	<ele>564.60</ele>
	<time>2025-04-30T05:52:31.000Z</time>
</trkpt>
<trkpt lat="45.9125000" lon="10.2570010">
	<ele>564.60</ele>
	<time>2025-04-30T05:52:32.000Z</time>
</trkpt>
<trkpt lat="45.9125030" lon="10.2569870">
	<ele>564.80</ele>
	<time>2025-04-30T05:52:33.000Z</time>
</trkpt>
<trkpt lat="45.9125020" lon="10.2569800">
	<ele>565.00</ele>
	<time>2025-04-30T05:52:34.000Z</time>
</trkpt>
<trkpt lat="45.9125080" lon="10.2569770">
	<ele>565.20</ele>
	<time>2025-04-30T05:52:35.000Z</time>
</trkpt>
<trkpt lat="45.9125120" lon="10.2569720">
	<ele>565.40</ele>
	<time>2025-04-30T05:52:36.000Z</time>
</trkpt>
<trkpt lat="45.9125160" lon="10.2569640">
	<ele>565.60</ele>
	<time>2025-04-30T05:52:37.000Z</time>
</trkpt>
<trkpt lat="45.9125100" lon="10.2569620">
	<ele>565.80</ele>
	<time>2025-04-30T05:52:38.000Z</time>
</trkpt>
<trkpt lat="45.9125000" lon="10.2569620">
	<ele>565.80</ele>
	<time>2025-04-30T05:52:39.000Z</time>
</trkpt>
<trkpt lat="45.9124920" lon="10.2569590">
	<ele>566.00</ele>
	<time>2025-04-30T05:52:40.000Z</time>
</trkpt>
<trkpt lat="45.9124840" lon="10.2569490">
	<ele>566.40</ele>
	<time>2025-04-30T05:52:41.000Z</time>
</trkpt>
<trkpt lat="45.9124720" lon="10.2569380">
	<ele>566.80</ele>
	<time>2025-04-30T05:52:42.000Z</time>
</trkpt>
<trkpt lat="45.9124540" lon="10.2569240">
	<ele>567.00</ele>
	<time>2025-04-30T05:52:43.000Z</time>
</trkpt>
<trkpt lat="45.9124470" lon="10.2569160">
	<ele>567.20</ele>
	<time>2025-04-30T05:52:44.000Z</time>
</trkpt>
<trkpt lat="45.9124410" lon="10.2569110">
	<ele>567.20</ele>
	<time>2025-04-30T05:52:45.000Z</time>
</trkpt>
<trkpt lat="45.9124330" lon="10.2569040">
	<ele>567.60</ele>
	<time>2025-04-30T05:52:46.000Z</time>
</trkpt>
<trkpt lat="45.9124250" lon="10.2568990">
	<ele>567.60</ele>
	<time>2025-04-30T05:52:47.000Z</time>
</trkpt>
<trkpt lat="45.9124230" lon="10.2568960">
	<ele>567.80</ele>
	<time>2025-04-30T05:52:48.000Z</time>
</trkpt>
<trkpt lat="45.9124150" lon="10.2569000">
	<ele>568.00</ele>
	<time>2025-04-30T05:52:49.000Z</time>
</trkpt>
<trkpt lat="45.9124000" lon="10.2569040">
	<ele>568.20</ele>
	<time>2025-04-30T05:52:50.000Z</time>
</trkpt>
<trkpt lat="45.9124070" lon="10.2568990">
	<ele>568.40</ele>
	<time>2025-04-30T05:52:51.000Z</time>
</trkpt>
<trkpt lat="45.9124040" lon="10.2568950">
	<ele>568.60</ele>
	<time>2025-04-30T05:52:52.000Z</time>
</trkpt>
<trkpt lat="45.9124030" lon="10.2568930">
	<ele>568.80</ele>
	<time>2025-04-30T05:52:53.000Z</time>
</trkpt>
<trkpt lat="45.9123910" lon="10.2568930">
	<ele>569.00</ele>
	<time>2025-04-30T05:52:54.000Z</time>
</trkpt>
<trkpt lat="45.9123840" lon="10.2568890">
	<ele>569.20</ele>
	<time>2025-04-30T05:52:55.000Z</time>
</trkpt>
<trkpt lat="45.9123780" lon="10.2568840">
	<ele>569.40</ele>
	<time>2025-04-30T05:52:56.000Z</time>
</trkpt>
<trkpt lat="45.9123770" lon="10.2568770">
	<ele>569.80</ele>
	<time>2025-04-30T05:52:57.000Z</time>
</trkpt>
<trkpt lat="45.9123750" lon="10.2568730">
	<ele>570.00</ele>
	<time>2025-04-30T05:52:58.000Z</time>
</trkpt>
<trkpt lat="45.9123750" lon="10.2568630">
	<ele>570.20</ele>
	<time>2025-04-30T05:52:59.000Z</time>
</trkpt>
<trkpt lat="45.9123680" lon="10.2568490">
	<ele>570.40</ele>
	<time>2025-04-30T05:53:00.000Z</time>
</trkpt>
<trkpt lat="45.9123590" lon="10.2568420">
	<ele>570.40</ele>
	<time>2025-04-30T05:53:01.000Z</time>
</trkpt>
<trkpt lat="45.9123490" lon="10.2568330">
	<ele>570.60</ele>
	<time>2025-04-30T05:53:02.000Z</time>
</trkpt>
<trkpt lat="45.9123370" lon="10.2568220">
	<ele>571.00</ele>
	<time>2025-04-30T05:53:03.000Z</time>
</trkpt>
<trkpt lat="45.9123220" lon="10.2568240">
	<ele>571.00</ele>
	<time>2025-04-30T05:53:04.000Z</time>
</trkpt>
<trkpt lat="45.9123120" lon="10.2568310">
	<ele>571.20</ele>
	<time>2025-04-30T05:53:05.000Z</time>
</trkpt>
<trkpt lat="45.9123090" lon="10.2568330">
	<ele>571.40</ele>
	<time>2025-04-30T05:53:06.000Z</time>
</trkpt>
<trkpt lat="45.9123010" lon="10.2568300">
	<ele>571.60</ele>
	<time>2025-04-30T05:53:07.000Z</time>
</trkpt>
<trkpt lat="45.9123000" lon="10.2568240">
	<ele>571.80</ele>
	<time>2025-04-30T05:53:08.000Z</time>
</trkpt>
<trkpt lat="45.9122900" lon="10.2568160">
	<ele>572.00</ele>
	<time>2025-04-30T05:53:09.000Z</time>
</trkpt>
<trkpt lat="45.9122820" lon="10.2568060">
	<ele>572.20</ele>
	<time>2025-04-30T05:53:10.000Z</time>
</trkpt>
<trkpt lat="45.9122710" lon="10.2567980">
	<ele>572.40</ele>
	<time>2025-04-30T05:53:11.000Z</time>
</trkpt>
<trkpt lat="45.9122650" lon="10.2567910">
	<ele>572.60</ele>
	<time>2025-04-30T05:53:12.000Z</time>
</trkpt>
<trkpt lat="45.9122550" lon="10.2567780">
	<ele>572.80</ele>
	<time>2025-04-30T05:53:13.000Z</time>
</trkpt>
<trkpt lat="45.9122510" lon="10.2567750">
	<ele>573.00</ele>
	<time>2025-04-30T05:53:14.000Z</time>
</trkpt>
<trkpt lat="45.9122430" lon="10.2567590">
	<ele>573.20</ele>
	<time>2025-04-30T05:53:15.000Z</time>
</trkpt>
<trkpt lat="45.9122300" lon="10.2567470">
	<ele>573.40</ele>
	<time>2025-04-30T05:53:16.000Z</time>
</trkpt>
<trkpt lat="45.9122210" lon="10.2567350">
	<ele>573.80</ele>
	<time>2025-04-30T05:53:17.000Z</time>
</trkpt>
<trkpt lat="45.9122070" lon="10.2567300">
	<ele>574.00</ele>
	<time>2025-04-30T05:53:18.000Z</time>
</trkpt>
<trkpt lat="45.9121890" lon="10.2567320">
	<ele>574.00</ele>
	<time>2025-04-30T05:53:19.000Z</time>
</trkpt>
<trkpt lat="45.9121760" lon="10.2567450">
	<ele>574.20</ele>
	<time>2025-04-30T05:53:20.000Z</time>
</trkpt>
<trkpt lat="45.9121640" lon="10.2567500">
	<ele>574.40</ele>
	<time>2025-04-30T05:53:21.000Z</time>
</trkpt>
<trkpt lat="45.9121580" lon="10.2567460">
	<ele>574.60</ele>
	<time>2025-04-30T05:53:22.000Z</time>
</trkpt>
<trkpt lat="45.9121530" lon="10.2567370">
	<ele>574.80</ele>
	<time>2025-04-30T05:53:23.000Z</time>
</trkpt>
<trkpt lat="45.9121480" lon="10.2567350">
	<ele>575.00</ele>
	<time>2025-04-30T05:53:24.000Z</time>
</trkpt>
<trkpt lat="45.9121400" lon="10.2567290">
	<ele>575.20</ele>
	<time>2025-04-30T05:53:25.000Z</time>
</trkpt>
<trkpt lat="45.9121320" lon="10.2567220">
	<ele>575.40</ele>
	<time>2025-04-30T05:53:26.000Z</time>
</trkpt>
<trkpt lat="45.9121280" lon="10.2567120">
	<ele>575.60</ele>
	<time>2025-04-30T05:53:27.000Z</time>
</trkpt>
<trkpt lat="45.9121270" lon="10.2567080">
	<ele>575.80</ele>
	<time>2025-04-30T05:53:28.000Z</time>
</trkpt>
<trkpt lat="45.9121260" lon="10.2567050">
	<ele>575.80</ele>
	<time>2025-04-30T05:53:29.000Z</time>
</trkpt>
<trkpt lat="45.9121210" lon="10.2567010">
	<ele>576.00</ele>
	<time>2025-04-30T05:53:30.000Z</time>
</trkpt>
<trkpt lat="45.9121140" lon="10.2566970">
	<ele>576.20</ele>
	<time>2025-04-30T05:53:31.000Z</time>
</trkpt>
<trkpt lat="45.9121070" lon="10.2566990">
	<ele>576.40</ele>
	<time>2025-04-30T05:53:32.000Z</time>
</trkpt>
<trkpt lat="45.9121000" lon="10.2567030">
	<ele>576.60</ele>
	<time>2025-04-30T05:53:33.000Z</time>
</trkpt>
<trkpt lat="45.9120960" lon="10.2567040">
	<ele>576.60</ele>
	<time>2025-04-30T05:53:34.000Z</time>
</trkpt>
<trkpt lat="45.9120920" lon="10.2567040">
	<ele>577.00</ele>
	<time>2025-04-30T05:53:35.000Z</time>
</trkpt>
<trkpt lat="45.9120870" lon="10.2567010">
	<ele>577.20</ele>
	<time>2025-04-30T05:53:36.000Z</time>
</trkpt>
<trkpt lat="45.9120780" lon="10.2566860">
	<ele>577.40</ele>
	<time>2025-04-30T05:53:37.000Z</time>
</trkpt>
<trkpt lat="45.9120700" lon="10.2566780">
	<ele>577.60</ele>
	<time>2025-04-30T05:53:38.000Z</time>
</trkpt>
<trkpt lat="45.9120630" lon="10.2566700">
	<ele>577.80</ele>
	<time>2025-04-30T05:53:39.000Z</time>
</trkpt>
<trkpt lat="45.9120580" lon="10.2566650">
	<ele>578.00</ele>
	<time>2025-04-30T05:53:40.000Z</time>
</trkpt>
<trkpt lat="45.9120530" lon="10.2566550">
	<ele>578.20</ele>
	<time>2025-04-30T05:53:41.000Z</time>
</trkpt>
<trkpt lat="45.9120480" lon="10.2566570">
	<ele>578.40</ele>
	<time>2025-04-30T05:53:42.000Z</time>
</trkpt>
<trkpt lat="45.9120430" lon="10.2566560">
	<ele>578.60</ele>
	<time>2025-04-30T05:53:43.000Z</time>
</trkpt>
<trkpt lat="45.9120370" lon="10.2566610">
	<ele>578.60</ele>
	<time>2025-04-30T05:53:44.000Z</time>
</trkpt>
<trkpt lat="45.9120300" lon="10.2566570">
	<ele>578.80</ele>
	<time>2025-04-30T05:53:45.000Z</time>
</trkpt>
<trkpt lat="45.9120220" lon="10.2566570">
	<ele>579.00</ele>
	<time>2025-04-30T05:53:46.000Z</time>
</trkpt>
<trkpt lat="45.9120150" lon="10.2566540">
	<ele>579.00</ele>
	<time>2025-04-30T05:53:47.000Z</time>
</trkpt>
<trkpt lat="45.9120090" lon="10.2566560">
	<ele>579.20</ele>
	<time>2025-04-30T05:53:48.000Z</time>
</trkpt>
<trkpt lat="45.9120020" lon="10.2566540">
	<ele>579.40</ele>
	<time>2025-04-30T05:53:49.000Z</time>
</trkpt>
<trkpt lat="45.9119960" lon="10.2566510">
	<ele>579.60</ele>
	<time>2025-04-30T05:53:50.000Z</time>
</trkpt>
<trkpt lat="45.9119880" lon="10.2566470">
	<ele>579.80</ele>
	<time>2025-04-30T05:53:51.000Z</time>
</trkpt>
<trkpt lat="45.9119860" lon="10.2566410">
	<ele>580.00</ele>
	<time>2025-04-30T05:53:52.000Z</time>
</trkpt>
<trkpt lat="45.9119840" lon="10.2566350">
	<ele>580.20</ele>
	<time>2025-04-30T05:53:53.000Z</time>
</trkpt>
<trkpt lat="45.9119800" lon="10.2566290">
	<ele>580.40</ele>
	<time>2025-04-30T05:53:54.000Z</time>
</trkpt>
<trkpt lat="45.9119760" lon="10.2566230">
	<ele>580.60</ele>
	<time>2025-04-30T05:53:55.000Z</time>
</trkpt>
<trkpt lat="45.9119700" lon="10.2566190">
	<ele>580.80</ele>
	<time>2025-04-30T05:53:56.000Z</time>
</trkpt>
<trkpt lat="45.9119640" lon="10.2566160">
	<ele>581.00</ele>
	<time>2025-04-30T05:53:57.000Z</time>
</trkpt>
<trkpt lat="45.9119600" lon="10.2566130">
	<ele>581.20</ele>
	<time>2025-04-30T05:53:58.000Z</time>
</trkpt>
<trkpt lat="45.9119500" lon="10.2566070">
	<ele>581.20</ele>
	<time>2025-04-30T05:53:59.000Z</time>
</trkpt>
<trkpt lat="45.9119390" lon="10.2566040">
	<ele>581.40</ele>
	<time>2025-04-30T05:54:00.000Z</time>
</trkpt>
<trkpt lat="45.9119250" lon="10.2566030">
	<ele>581.60</ele>
	<time>2025-04-30T05:54:01.000Z</time>
</trkpt>
<trkpt lat="45.9119110" lon="10.2566010">
	<ele>581.80</ele>
	<time>2025-04-30T05:54:02.000Z</time>
</trkpt>
<trkpt lat="45.9119040" lon="10.2565990">
	<ele>582.00</ele>
	<time>2025-04-30T05:54:03.000Z</time>
</trkpt>
<trkpt lat="45.9118960" lon="10.2565930">
	<ele>582.20</ele>
	<time>2025-04-30T05:54:04.000Z</time>
</trkpt>
<trkpt lat="45.9118910" lon="10.2565890">
	<ele>582.20</ele>
	<time>2025-04-30T05:54:05.000Z</time>
</trkpt>
<trkpt lat="45.9118860" lon="10.2565810">
	<ele>582.40</ele>
	<time>2025-04-30T05:54:06.000Z</time>
</trkpt>
<trkpt lat="45.9118830" lon="10.2565710">
	<ele>582.60</ele>
	<time>2025-04-30T05:54:07.000Z</time>
</trkpt>
<trkpt lat="45.9118790" lon="10.2565640">
	<ele>582.80</ele>
	<time>2025-04-30T05:54:08.000Z</time>
</trkpt>
<trkpt lat="45.9118750" lon="10.2565580">
	<ele>583.00</ele>
	<time>2025-04-30T05:54:09.000Z</time>
</trkpt>
<trkpt lat="45.9118670" lon="10.2565540">
	<ele>583.20</ele>
	<time>2025-04-30T05:54:10.000Z</time>
</trkpt>
<trkpt lat="45.9118640" lon="10.2565530">
	<ele>583.60</ele>
	<time>2025-04-30T05:54:11.000Z</time>
</trkpt>
<trkpt lat="45.9118600" lon="10.2565520">
	<ele>583.80</ele>
	<time>2025-04-30T05:54:12.000Z</time>
</trkpt>
<trkpt lat="45.9118500" lon="10.2565470">
	<ele>584.00</ele>
	<time>2025-04-30T05:54:13.000Z</time>
</trkpt>
<trkpt lat="45.9118430" lon="10.2565420">
	<ele>584.20</ele>
	<time>2025-04-30T05:54:14.000Z</time>
</trkpt>
<trkpt lat="45.9118380" lon="10.2565410">
	<ele>584.20</ele>
	<time>2025-04-30T05:54:15.000Z</time>
</trkpt>
<trkpt lat="45.9118320" lon="10.2565300">
	<ele>584.40</ele>
	<time>2025-04-30T05:54:16.000Z</time>
</trkpt>
<trkpt lat="45.9118260" lon="10.2565250">
	<ele>584.40</ele>
	<time>2025-04-30T05:54:17.000Z</time>
</trkpt>
<trkpt lat="45.9118210" lon="10.2565230">
	<ele>584.60</ele>
	<time>2025-04-30T05:54:18.000Z</time>
</trkpt>
<trkpt lat="45.9118160" lon="10.2565200">
	<ele>584.80</ele>
	<time>2025-04-30T05:54:19.000Z</time>
</trkpt>
<trkpt lat="45.9118140" lon="10.2565240">
	<ele>585.00</ele>
	<time>2025-04-30T05:54:20.000Z</time>
</trkpt>
<trkpt lat="45.9118100" lon="10.2565190">
	<ele>585.00</ele>
	<time>2025-04-30T05:54:21.000Z</time>
</trkpt>
<trkpt lat="45.9118060" lon="10.2565110">
	<ele>585.20</ele>
	<time>2025-04-30T05:54:22.000Z</time>
</trkpt>
<trkpt lat="45.9118030" lon="10.2565040">
	<ele>585.40</ele>
	<time>2025-04-30T05:54:23.000Z</time>
</trkpt>
<trkpt lat="45.9117970" lon="10.2564960">
	<ele>585.40</ele>
	<time>2025-04-30T05:54:24.000Z</time>
</trkpt>
<trkpt lat="45.9117930" lon="10.2564870">
	<ele>585.60</ele>
	<time>2025-04-30T05:54:25.000Z</time>
</trkpt>
<trkpt lat="45.9117900" lon="10.2564810">
	<ele>586.00</ele>
	<time>2025-04-30T05:54:26.000Z</time>
</trkpt>
<trkpt lat="45.9117870" lon="10.2564750">
	<ele>586.00</ele>
	<time>2025-04-30T05:54:27.000Z</time>
</trkpt>
<trkpt lat="45.9117810" lon="10.2564700">
	<ele>586.20</ele>
	<time>2025-04-30T05:54:28.000Z</time>
</trkpt>
<trkpt lat="45.9117780" lon="10.2564650">
	<ele>586.40</ele>
	<time>2025-04-30T05:54:29.000Z</time>
</trkpt>
<trkpt lat="45.9117750" lon="10.2564580">
	<ele>586.60</ele>
	<time>2025-04-30T05:54:30.000Z</time>
</trkpt>
<trkpt lat="45.9117710" lon="10.2564510">
	<ele>586.60</ele>
	<time>2025-04-30T05:54:31.000Z</time>
</trkpt>
<trkpt lat="45.9117640" lon="10.2564410">
	<ele>586.80</ele>
	<time>2025-04-30T05:54:32.000Z</time>
</trkpt>
<trkpt lat="45.9117550" lon="10.2564290">
	<ele>587.00</ele>
	<time>2025-04-30T05:54:33.000Z</time>
</trkpt>
<trkpt lat="45.9117520" lon="10.2564220">
	<ele>587.00</ele>
	<time>2025-04-30T05:54:34.000Z</time>
</trkpt>
<trkpt lat="45.9117500" lon="10.2564160">
	<ele>587.40</ele>
	<time>2025-04-30T05:54:35.000Z</time>
</trkpt>
<trkpt lat="45.9117440" lon="10.2564070">
	<ele>587.40</ele>
	<time>2025-04-30T05:54:36.000Z</time>
</trkpt>
<trkpt lat="45.9117390" lon="10.2564000">
	<ele>587.60</ele>
	<time>2025-04-30T05:54:37.000Z</time>
</trkpt>
<trkpt lat="45.9117330" lon="10.2563950">
	<ele>587.80</ele>
	<time>2025-04-30T05:54:38.000Z</time>
</trkpt>
<trkpt lat="45.9117320" lon="10.2563900">
	<ele>588.00</ele>
	<time>2025-04-30T05:54:39.000Z</time>
</trkpt>
<trkpt lat="45.9117290" lon="10.2563810">
	<ele>588.20</ele>
	<time>2025-04-30T05:54:40.000Z</time>
</trkpt>
<trkpt lat="45.9117280" lon="10.2563810">
	<ele>588.40</ele>
	<time>2025-04-30T05:54:41.000Z</time>
</trkpt>
<trkpt lat="45.9117200" lon="10.2563760">
	<ele>588.60</ele>
	<time>2025-04-30T05:54:42.000Z</time>
</trkpt>
<trkpt lat="45.9117140" lon="10.2563720">
	<ele>588.80</ele>
	<time>2025-04-30T05:54:43.000Z</time>
</trkpt>
<trkpt lat="45.9117100" lon="10.2563680">
	<ele>588.80</ele>
	<time>2025-04-30T05:54:44.000Z</time>
</trkpt>
<trkpt lat="45.9117040" lon="10.2563680">
	<ele>589.00</ele>
	<time>2025-04-30T05:54:45.000Z</time>
</trkpt>
<trkpt lat="45.9116970" lon="10.2563570">
	<ele>589.20</ele>
	<time>2025-04-30T05:54:46.000Z</time>
</trkpt>
<trkpt lat="45.9116930" lon="10.2563460">
	<ele>589.20</ele>
	<time>2025-04-30T05:54:47.000Z</time>
</trkpt>
<trkpt lat="45.9116830" lon="10.2563330">
	<ele>589.40</ele>
	<time>2025-04-30T05:54:48.000Z</time>
</trkpt>
<trkpt lat="45.9116760" lon="10.2563230">
	<ele>589.40</ele>
	<time>2025-04-30T05:54:49.000Z</time>
</trkpt>
<trkpt lat="45.9116700" lon="10.2563130">
	<ele>589.60</ele>
	<time>2025-04-30T05:54:50.000Z</time>
</trkpt>
<trkpt lat="45.9116640" lon="10.2563040">
	<ele>589.80</ele>
	<time>2025-04-30T05:54:51.000Z</time>
</trkpt>
<trkpt lat="45.9116610" lon="10.2562940">
	<ele>589.80</ele>
	<time>2025-04-30T05:54:52.000Z</time>
</trkpt>
<trkpt lat="45.9116590" lon="10.2562870">
	<ele>590.00</ele>
	<time>2025-04-30T05:54:53.000Z</time>
</trkpt>
<trkpt lat="45.9116560" lon="10.2562830">
	<ele>590.20</ele>
	<time>2025-04-30T05:54:54.000Z</time>
</trkpt>
<trkpt lat="45.9116530" lon="10.2562800">
	<ele>590.40</ele>
	<time>2025-04-30T05:54:55.000Z</time>
</trkpt>
<trkpt lat="45.9116500" lon="10.2562770">
	<ele>590.60</ele>
	<time>2025-04-30T05:54:56.000Z</time>
</trkpt>
<trkpt lat="45.9116450" lon="10.2562770">
	<ele>590.80</ele>
	<time>2025-04-30T05:54:57.000Z</time>
</trkpt>
<trkpt lat="45.9116400" lon="10.2562740">
	<ele>591.00</ele>
	<time>2025-04-30T05:54:58.000Z</time>
</trkpt>
<trkpt lat="45.9116400" lon="10.2562710">
	<ele>591.00</ele>
	<time>2025-04-30T05:54:59.000Z</time>
</trkpt>
<trkpt lat="45.9116420" lon="10.2562700">
	<ele>591.20</ele>
	<time>2025-04-30T05:55:00.000Z</time>
</trkpt>
<trkpt lat="45.9116440" lon="10.2562630">
	<ele>591.40</ele>
	<time>2025-04-30T05:55:01.000Z</time>
</trkpt>
<trkpt lat="45.9116460" lon="10.2562530">
	<ele>591.60</ele>
	<time>2025-04-30T05:55:02.000Z</time>
</trkpt>
<trkpt lat="45.9116380" lon="10.2562460">
	<ele>591.80</ele>
	<time>2025-04-30T05:55:03.000Z</time>
</trkpt>
<trkpt lat="45.9116330" lon="10.2562370">
	<ele>591.80</ele>
	<time>2025-04-30T05:55:04.000Z</time>
</trkpt>
<trkpt lat="45.9116270" lon="10.2562290">
	<ele>592.00</ele>
	<time>2025-04-30T05:55:05.000Z</time>
</trkpt>
<trkpt lat="45.9116210" lon="10.2562150">
	<ele>592.20</ele>
	<time>2025-04-30T05:55:06.000Z</time>
</trkpt>
<trkpt lat="45.9116140" lon="10.2562070">
	<ele>592.20</ele>
	<time>2025-04-30T05:55:07.000Z</time>
</trkpt>
<trkpt lat="45.9116110" lon="10.2562010">
	<ele>592.40</ele>
	<time>2025-04-30T05:55:08.000Z</time>
</trkpt>
<trkpt lat="45.9116000" lon="10.2561880">
	<ele>592.80</ele>
	<time>2025-04-30T05:55:09.000Z</time>
</trkpt>
<trkpt lat="45.9115920" lon="10.2561780">
	<ele>593.00</ele>
	<time>2025-04-30T05:55:10.000Z</time>
</trkpt>
<trkpt lat="45.9115890" lon="10.2561720">
	<ele>593.40</ele>
	<time>2025-04-30T05:55:11.000Z</time>
</trkpt>
<trkpt lat="45.9115860" lon="10.2561700">
	<ele>593.40</ele>
	<time>2025-04-30T05:55:12.000Z</time>
</trkpt>
<trkpt lat="45.9115840" lon="10.2561650">
	<ele>593.60</ele>
	<time>2025-04-30T05:55:13.000Z</time>
</trkpt>
<trkpt lat="45.9115830" lon="10.2561580">
	<ele>593.80</ele>
	<time>2025-04-30T05:55:14.000Z</time>
</trkpt>
<trkpt lat="45.9115810" lon="10.2561500">
	<ele>594.00</ele>
	<time>2025-04-30T05:55:15.000Z</time>
</trkpt>
<trkpt lat="45.9115780" lon="10.2561450">
	<ele>594.20</ele>
	<time>2025-04-30T05:55:16.000Z</time>
</trkpt>
<trkpt lat="45.9115740" lon="10.2561440">
	<ele>594.20</ele>
	<time>2025-04-30T05:55:17.000Z</time>
</trkpt>
<trkpt lat="45.9115740" lon="10.2561450">
	<ele>594.40</ele>
	<time>2025-04-30T05:55:18.000Z</time>
</trkpt>
<trkpt lat="45.9115710" lon="10.2561430">
	<ele>594.60</ele>
	<time>2025-04-30T05:55:19.000Z</time>
</trkpt>
<trkpt lat="45.9115650" lon="10.2561350">
	<ele>594.80</ele>
	<time>2025-04-30T05:55:20.000Z</time>
</trkpt>
<trkpt lat="45.9115580" lon="10.2561290">
	<ele>595.00</ele>
	<time>2025-04-30T05:55:21.000Z</time>
</trkpt>
<trkpt lat="45.9115540" lon="10.2561200">
	<ele>595.20</ele>
	<time>2025-04-30T05:55:22.000Z</time>
</trkpt>
<trkpt lat="45.9115510" lon="10.2561140">
	<ele>595.40</ele>
	<time>2025-04-30T05:55:23.000Z</time>
</trkpt>
<trkpt lat="45.9115480" lon="10.2561140">
	<ele>595.60</ele>
	<time>2025-04-30T05:55:24.000Z</time>
</trkpt>
<trkpt lat="45.9115460" lon="10.2561090">
	<ele>596.00</ele>
	<time>2025-04-30T05:55:25.000Z</time>
</trkpt>
<trkpt lat="45.9115470" lon="10.2560980">
	<ele>596.20</ele>
	<time>2025-04-30T05:55:26.000Z</time>
</trkpt>
<trkpt lat="45.9115420" lon="10.2560900">
	<ele>596.20</ele>
	<time>2025-04-30T05:55:27.000Z</time>
</trkpt>
<trkpt lat="45.9115400" lon="10.2560880">
	<ele>596.60</ele>
	<time>2025-04-30T05:55:28.000Z</time>
</trkpt>
<trkpt lat="45.9115410" lon="10.2560760">
	<ele>596.80</ele>
	<time>2025-04-30T05:55:29.000Z</time>
</trkpt>
<trkpt lat="45.9115380" lon="10.2560610">
	<ele>597.00</ele>
	<time>2025-04-30T05:55:30.000Z</time>
</trkpt>
<trkpt lat="45.9115350" lon="10.2560460">
	<ele>597.00</ele>
	<time>2025-04-30T05:55:31.000Z</time>
</trkpt>
<trkpt lat="45.9115350" lon="10.2560350">
	<ele>597.20</ele>
	<time>2025-04-30T05:55:32.000Z</time>
</trkpt>
<trkpt lat="45.9115390" lon="10.2560240">
	<ele>597.40</ele>
	<time>2025-04-30T05:55:33.000Z</time>
</trkpt>
<trkpt lat="45.9115400" lon="10.2560180">
	<ele>597.60</ele>
	<time>2025-04-30T05:55:34.000Z</time>
</trkpt>
<trkpt lat="45.9115380" lon="10.2560120">
	<ele>597.80</ele>
	<time>2025-04-30T05:55:35.000Z</time>
</trkpt>
<trkpt lat="45.9115360" lon="10.2560070">
	<ele>598.00</ele>
	<time>2025-04-30T05:55:36.000Z</time>
</trkpt>
<trkpt lat="45.9115340" lon="10.2560030">
	<ele>598.20</ele>
	<time>2025-04-30T05:55:37.000Z</time>
</trkpt>
<trkpt lat="45.9115260" lon="10.2560000">
	<ele>598.60</ele>
	<time>2025-04-30T05:55:38.000Z</time>
</trkpt>
<trkpt lat="45.9115250" lon="10.2559940">
	<ele>598.80</ele>
	<time>2025-04-30T05:55:39.000Z</time>
</trkpt>
<trkpt lat="45.9115180" lon="10.2559860">
	<ele>599.00</ele>
	<time>2025-04-30T05:55:40.000Z</time>
</trkpt>
<trkpt lat="45.9115130" lon="10.2559800">
	<ele>599.20</ele>
	<time>2025-04-30T05:55:41.000Z</time>
</trkpt>
<trkpt lat="45.9115070" lon="10.2559770">
	<ele>599.20</ele>
	<time>2025-04-30T05:55:42.000Z</time>
</trkpt>
<trkpt lat="45.9115000" lon="10.2559740">
	<ele>599.40</ele>
	<time>2025-04-30T05:55:43.000Z</time>
</trkpt>
<trkpt lat="45.9114900" lon="10.2559710">
	<ele>599.80</ele>
	<time>2025-04-30T05:55:44.000Z</time>
</trkpt>
<trkpt lat="45.9114780" lon="10.2559630">
	<ele>599.80</ele>
	<time>2025-04-30T05:55:45.000Z</time>
</trkpt>
<trkpt lat="45.9114700" lon="10.2559490">
	<ele>600.00</ele>
	<time>2025-04-30T05:55:46.000Z</time>
</trkpt>
<trkpt lat="45.9114600" lon="10.2559420">
	<ele>600.20</ele>
	<time>2025-04-30T05:55:47.000Z</time>
</trkpt>
<trkpt lat="45.9114480" lon="10.2559360">
	<ele>600.40</ele>
	<time>2025-04-30T05:55:48.000Z</time>
</trkpt>
<trkpt lat="45.9114390" lon="10.2559320">
	<ele>600.40</ele>
	<time>2025-04-30T05:55:49.000Z</time>
</trkpt>
<trkpt lat="45.9114270" lon="10.2559270">
	<ele>600.60</ele>
	<time>2025-04-30T05:55:50.000Z</time>
</trkpt>
<trkpt lat="45.9114200" lon="10.2559180">
	<ele>600.80</ele>
	<time>2025-04-30T05:55:51.000Z</time>
</trkpt>
<trkpt lat="45.9114130" lon="10.2559070">
	<ele>601.00</ele>
	<time>2025-04-30T05:55:52.000Z</time>
</trkpt>
<trkpt lat="45.9114050" lon="10.2558990">
	<ele>601.20</ele>
	<time>2025-04-30T05:55:53.000Z</time>
</trkpt>
<trkpt lat="45.9114030" lon="10.2558920">
	<ele>601.40</ele>
	<time>2025-04-30T05:55:54.000Z</time>
</trkpt>
<trkpt lat="45.9114010" lon="10.2558910">
	<ele>601.60</ele>
	<time>2025-04-30T05:55:55.000Z</time>
</trkpt>
<trkpt lat="45.9113910" lon="10.2558880">
	<ele>602.00</ele>
	<time>2025-04-30T05:55:56.000Z</time>
</trkpt>
<trkpt lat="45.9113840" lon="10.2558820">
	<ele>602.20</ele>
	<time>2025-04-30T05:55:57.000Z</time>
</trkpt>
<trkpt lat="45.9113820" lon="10.2558820">
	<ele>602.40</ele>
	<time>2025-04-30T05:55:58.000Z</time>
</trkpt>
<trkpt lat="45.9113760" lon="10.2558760">
	<ele>602.60</ele>
	<time>2025-04-30T05:55:59.000Z</time>
</trkpt>
<trkpt lat="45.9113720" lon="10.2558730">
	<ele>602.80</ele>
	<time>2025-04-30T05:56:00.000Z</time>
</trkpt>
<trkpt lat="45.9113710" lon="10.2558700">
	<ele>603.00</ele>
	<time>2025-04-30T05:56:01.000Z</time>
</trkpt>
<trkpt lat="45.9113710" lon="10.2558630">
	<ele>603.20</ele>
	<time>2025-04-30T05:56:02.000Z</time>
</trkpt>
<trkpt lat="45.9113690" lon="10.2558560">
	<ele>603.20</ele>
	<time>2025-04-30T05:56:03.000Z</time>
</trkpt>
<trkpt lat="45.9113660" lon="10.2558510">
	<ele>603.40</ele>
	<time>2025-04-30T05:56:04.000Z</time>
</trkpt>
<trkpt lat="45.9113710" lon="10.2558320">
	<ele>603.80</ele>
	<time>2025-04-30T05:56:05.000Z</time>
</trkpt>
<trkpt lat="45.9113700" lon="10.2558210">
	<ele>604.00</ele>
	<time>2025-04-30T05:56:06.000Z</time>
</trkpt>
<trkpt lat="45.9113670" lon="10.2558130">
	<ele>604.20</ele>
	<time>2025-04-30T05:56:07.000Z</time>
</trkpt>
<trkpt lat="45.9113650" lon="10.2558050">
	<ele>604.40</ele>
	<time>2025-04-30T05:56:08.000Z</time>
</trkpt>
<trkpt lat="45.9113630" lon="10.2557980">
	<ele>604.60</ele>
	<time>2025-04-30T05:56:09.000Z</time>
</trkpt>
<trkpt lat="45.9113550" lon="10.2557940">
	<ele>604.80</ele>
	<time>2025-04-30T05:56:10.000Z</time>
</trkpt>
<trkpt lat="45.9113480" lon="10.2557910">
	<ele>604.80</ele>
	<time>2025-04-30T05:56:11.000Z</time>
</trkpt>
<trkpt lat="45.9113390" lon="10.2557910">
	<ele>605.20</ele>
	<time>2025-04-30T05:56:12.000Z</time>
</trkpt>
<trkpt lat="45.9113330" lon="10.2557830">
	<ele>605.40</ele>
	<time>2025-04-30T05:56:13.000Z</time>
</trkpt>
<trkpt lat="45.9113280" lon="10.2557760">
	<ele>605.40</ele>
	<time>2025-04-30T05:56:14.000Z</time>
</trkpt>
<trkpt lat="45.9113180" lon="10.2557560">
	<ele>605.80</ele>
	<time>2025-04-30T05:56:15.000Z</time>
</trkpt>
<trkpt lat="45.9113140" lon="10.2557280">
	<ele>606.00</ele>
	<time>2025-04-30T05:56:16.000Z</time>
</trkpt>
<trkpt lat="45.9113040" lon="10.2557030">
	<ele>606.20</ele>
	<time>2025-04-30T05:56:17.000Z</time>
</trkpt>
<trkpt lat="45.9112890" lon="10.2556830">
	<ele>606.40</ele>
	<time>2025-04-30T05:56:18.000Z</time>
</trkpt>
<trkpt lat="45.9112750" lon="10.2556660">
	<ele>606.60</ele>
	<time>2025-04-30T05:56:19.000Z</time>
</trkpt>
<trkpt lat="45.9112710" lon="10.2556470">
	<ele>606.80</ele>
	<time>2025-04-30T05:56:20.000Z</time>
</trkpt>
<trkpt lat="45.9112660" lon="10.2556450">
	<ele>607.00</ele>
	<time>2025-04-30T05:56:21.000Z</time>
</trkpt>
<trkpt lat="45.9112620" lon="10.2556430">
	<ele>607.20</ele>
	<time>2025-04-30T05:56:22.000Z</time>
</trkpt>
<trkpt lat="45.9112550" lon="10.2556320">
	<ele>607.40</ele>
	<time>2025-04-30T05:56:23.000Z</time>
</trkpt>
<trkpt lat="45.9112450" lon="10.2556270">
	<ele>607.40</ele>
	<time>2025-04-30T05:56:24.000Z</time>
</trkpt>
<trkpt lat="45.9112390" lon="10.2556220">
	<ele>607.60</ele>
	<time>2025-04-30T05:56:25.000Z</time>
</trkpt>
<trkpt lat="45.9112330" lon="10.2556230">
	<ele>607.80</ele>
	<time>2025-04-30T05:56:26.000Z</time>
</trkpt>
<trkpt lat="45.9112220" lon="10.2556250">
	<ele>608.00</ele>
	<time>2025-04-30T05:56:27.000Z</time>
</trkpt>
<trkpt lat="45.9112170" lon="10.2556240">
	<ele>608.00</ele>
	<time>2025-04-30T05:56:28.000Z</time>
</trkpt>
<trkpt lat="45.9112060" lon="10.2556190">
	<ele>608.20</ele>
	<time>2025-04-30T05:56:29.000Z</time>
</trkpt>
<trkpt lat="45.9111990" lon="10.2556120">
	<ele>608.40</ele>
	<time>2025-04-30T05:56:30.000Z</time>
</trkpt>
<trkpt lat="45.9111900" lon="10.2556180">
	<ele>608.40</ele>
	<time>2025-04-30T05:56:31.000Z</time>
</trkpt>
<trkpt lat="45.9111800" lon="10.2556270">
	<ele>608.60</ele>
	<time>2025-04-30T05:56:32.000Z</time>
</trkpt>
<trkpt lat="45.9111720" lon="10.2556320">
	<ele>608.80</ele>
	<time>2025-04-30T05:56:33.000Z</time>
</trkpt>
<trkpt lat="45.9111600" lon="10.2556370">
	<ele>609.00</ele>
	<time>2025-04-30T05:56:34.000Z</time>
</trkpt>
<trkpt lat="45.9111500" lon="10.2556400">
	<ele>609.20</ele>
	<time>2025-04-30T05:56:35.000Z</time>
</trkpt>
<trkpt lat="45.9111340" lon="10.2556400">
	<ele>609.20</ele>
	<time>2025-04-30T05:56:36.000Z</time>
</trkpt>
<trkpt lat="45.9111270" lon="10.2556400">
	<ele>609.40</ele>
	<time>2025-04-30T05:56:37.000Z</time>
</trkpt>
<trkpt lat="45.9111080" lon="10.2556400">
	<ele>609.60</ele>
	<time>2025-04-30T05:56:38.000Z</time>
</trkpt>
<trkpt lat="45.9111030" lon="10.2556350">
	<ele>609.60</ele>
	<time>2025-04-30T05:56:39.000Z</time>
</trkpt>
<trkpt lat="45.9110860" lon="10.2556360">
	<ele>609.80</ele>
	<time>2025-04-30T05:56:40.000Z</time>
</trkpt>
<trkpt lat="45.9110780" lon="10.2556320">
	<ele>610.00</ele>
	<time>2025-04-30T05:56:41.000Z</time>
</trkpt>
<trkpt lat="45.9110860" lon="10.2556240">
	<ele>610.20</ele>
	<time>2025-04-30T05:56:42.000Z</time>
</trkpt>
<trkpt lat="45.9110790" lon="10.2556160">
	<ele>610.40</ele>
	<time>2025-04-30T05:56:43.000Z</time>
</trkpt>
<trkpt lat="45.9110710" lon="10.2556070">
	<ele>610.60</ele>
	<time>2025-04-30T05:56:44.000Z</time>
</trkpt>
<trkpt lat="45.9110620" lon="10.2555960">
	<ele>610.60</ele>
	<time>2025-04-30T05:56:45.000Z</time>
</trkpt>
<trkpt lat="45.9110460" lon="10.2556110">
	<ele>610.80</ele>
	<time>2025-04-30T05:56:46.000Z</time>
</trkpt>
<trkpt lat="45.9110370" lon="10.2556120">
	<ele>610.80</ele>
	<time>2025-04-30T05:56:47.000Z</time>
</trkpt>
<trkpt lat="45.9110260" lon="10.2556150">
	<ele>611.00</ele>
	<time>2025-04-30T05:56:48.000Z</time>
</trkpt>
<trkpt lat="45.9110170" lon="10.2556110">
	<ele>611.00</ele>
	<time>2025-04-30T05:56:49.000Z</time>
</trkpt>
<trkpt lat="45.9110170" lon="10.2556040">
	<ele>611.20</ele>
	<time>2025-04-30T05:56:50.000Z</time>
</trkpt>
<trkpt lat="45.9110100" lon="10.2555930">
	<ele>611.20</ele>
	<time>2025-04-30T05:56:51.000Z</time>
</trkpt>
<trkpt lat="45.9110080" lon="10.2555820">
	<ele>611.40</ele>
	<time>2025-04-30T05:56:52.000Z</time>
</trkpt>
<trkpt lat="45.9109980" lon="10.2555750">
	<ele>611.60</ele>
	<time>2025-04-30T05:56:53.000Z</time>
</trkpt>
<trkpt lat="45.9109910" lon="10.2555630">
	<ele>611.60</ele>
	<time>2025-04-30T05:56:54.000Z</time>
</trkpt>
<trkpt lat="45.9109920" lon="10.2555410">
	<ele>611.60</ele>
	<time>2025-04-30T05:56:55.000Z</time>
</trkpt>
<trkpt lat="45.9109870" lon="10.2555260">
	<ele>611.80</ele>
	<time>2025-04-30T05:56:56.000Z</time>
</trkpt>
<trkpt lat="45.9109870" lon="10.2555010">
	<ele>611.80</ele>
	<time>2025-04-30T05:56:57.000Z</time>
</trkpt>
<trkpt lat="45.9109690" lon="10.2554980">
	<ele>611.80</ele>
	<time>2025-04-30T05:56:58.000Z</time>
</trkpt>
<trkpt lat="45.9109650" lon="10.2554990">
	<ele>612.00</ele>
	<time>2025-04-30T05:56:59.000Z</time>
</trkpt>
<trkpt lat="45.9109560" lon="10.2554970">
	<ele>612.20</ele>
	<time>2025-04-30T05:57:00.000Z</time>
</trkpt>
<trkpt lat="45.9109530" lon="10.2554800">
	<ele>612.40</ele>
	<time>2025-04-30T05:57:01.000Z</time>
</trkpt>
<trkpt lat="45.9109480" lon="10.2554820">
	<ele>612.40</ele>
	<time>2025-04-30T05:57:02.000Z</time>
</trkpt>
<trkpt lat="45.9109440" lon="10.2554680">
	<ele>612.60</ele>
	<time>2025-04-30T05:57:03.000Z</time>
</trkpt>
<trkpt lat="45.9109360" lon="10.2554630">
	<ele>612.60</ele>
	<time>2025-04-30T05:57:04.000Z</time>
</trkpt>
<trkpt lat="45.9109240" lon="10.2554610">
	<ele>612.60</ele>
	<time>2025-04-30T05:57:05.000Z</time>
</trkpt>
<trkpt lat="45.9109160" lon="10.2554560">
	<ele>612.80</ele>
	<time>2025-04-30T05:57:06.000Z</time>
</trkpt>
<trkpt lat="45.9109220" lon="10.2554370">
	<ele>612.80</ele>
	<time>2025-04-30T05:57:07.000Z</time>
</trkpt>
<trkpt lat="45.9109120" lon="10.2554290">
	<ele>612.80</ele>
	<time>2025-04-30T05:57:08.000Z</time>
</trkpt>
<trkpt lat="45.9108990" lon="10.2554140">
	<ele>613.00</ele>
	<time>2025-04-30T05:57:09.000Z</time>
</trkpt>
<trkpt lat="45.9108870" lon="10.2554060">
	<ele>613.20</ele>
	<time>2025-04-30T05:57:10.000Z</time>
</trkpt>
<trkpt lat="45.9108790" lon="10.2554050">
	<ele>613.20</ele>
	<time>2025-04-30T05:57:11.000Z</time>
</trkpt>
<trkpt lat="45.9108670" lon="10.2554150">
	<ele>613.40</ele>
	<time>2025-04-30T05:57:12.000Z</time>
</trkpt>
<trkpt lat="45.9108600" lon="10.2554130">
	<ele>613.40</ele>
	<time>2025-04-30T05:57:13.000Z</time>
</trkpt>
<trkpt lat="45.9108480" lon="10.2554140">
	<ele>613.60</ele>
	<time>2025-04-30T05:57:14.000Z</time>
</trkpt>
<trkpt lat="45.9108340" lon="10.2554110">
	<ele>613.80</ele>
	<time>2025-04-30T05:57:15.000Z</time>
</trkpt>
<trkpt lat="45.9108220" lon="10.2554080">
	<ele>614.00</ele>
	<time>2025-04-30T05:57:16.000Z</time>
</trkpt>
<trkpt lat="45.9108120" lon="10.2554000">
	<ele>614.00</ele>
	<time>2025-04-30T05:57:17.000Z</time>
</trkpt>
<trkpt lat="45.9108000" lon="10.2553960">
	<ele>614.20</ele>
	<time>2025-04-30T05:57:18.000Z</time>
</trkpt>
<trkpt lat="45.9107900" lon="10.2553910">
	<ele>614.20</ele>
	<time>2025-04-30T05:57:19.000Z</time>
</trkpt>
<trkpt lat="45.9107820" lon="10.2553790">
	<ele>614.20</ele>
	<time>2025-04-30T05:57:20.000Z</time>
</trkpt>
<trkpt lat="45.9107750" lon="10.2553760">
	<ele>614.40</ele>
	<time>2025-04-30T05:57:21.000Z</time>
</trkpt>
<trkpt lat="45.9107650" lon="10.2553760">
	<ele>614.60</ele>
	<time>2025-04-30T05:57:22.000Z</time>
</trkpt>
<trkpt lat="45.9107600" lon="10.2553710">
	<ele>614.60</ele>
	<time>2025-04-30T05:57:23.000Z</time>
</trkpt>
<trkpt lat="45.9107520" lon="10.2553780">
	<ele>614.80</ele>
	<time>2025-04-30T05:57:24.000Z</time>
</trkpt>
<trkpt lat="45.9107400" lon="10.2553730">
	<ele>615.00</ele>
	<time>2025-04-30T05:57:25.000Z</time>
</trkpt>
<trkpt lat="45.9107350" lon="10.2553670">
	<ele>615.40</ele>
	<time>2025-04-30T05:57:26.000Z</time>
</trkpt>
<trkpt lat="45.9107290" lon="10.2553500">
	<ele>615.60</ele>
	<time>2025-04-30T05:57:27.000Z</time>
</trkpt>
<trkpt lat="45.9107260" lon="10.2553390">
	<ele>615.80</ele>
	<time>2025-04-30T05:57:28.000Z</time>
</trkpt>
<trkpt lat="45.9107210" lon="10.2553360">
	<ele>616.00</ele>
	<time>2025-04-30T05:57:29.000Z</time>
</trkpt>
<trkpt lat="45.9107070" lon="10.2553430">
	<ele>616.00</ele>
	<time>2025-04-30T05:57:30.000Z</time>
</trkpt>
<trkpt lat="45.9107010" lon="10.2553490">
	<ele>616.20</ele>
	<time>2025-04-30T05:57:31.000Z</time>
</trkpt>
<trkpt lat="45.9106950" lon="10.2553490">
	<ele>616.40</ele>
	<time>2025-04-30T05:57:32.000Z</time>
</trkpt>
<trkpt lat="45.9106930" lon="10.2553400">
	<ele>616.60</ele>
	<time>2025-04-30T05:57:33.000Z</time>
</trkpt>
<trkpt lat="45.9106900" lon="10.2553330">
	<ele>616.80</ele>
	<time>2025-04-30T05:57:34.000Z</time>
</trkpt>
<trkpt lat="45.9106840" lon="10.2553300">
	<ele>617.00</ele>
	<time>2025-04-30T05:57:35.000Z</time>
</trkpt>
<trkpt lat="45.9106830" lon="10.2553270">
	<ele>617.00</ele>
	<time>2025-04-30T05:57:36.000Z</time>
</trkpt>
<trkpt lat="45.9106830" lon="10.2553280">
	<ele>617.20</ele>
	<time>2025-04-30T05:57:37.000Z</time>
</trkpt>
<trkpt lat="45.9106710" lon="10.2553490">
	<ele>617.20</ele>
	<time>2025-04-30T05:57:38.000Z</time>
</trkpt>
<trkpt lat="45.9106660" lon="10.2553440">
	<ele>617.20</ele>
	<time>2025-04-30T05:57:39.000Z</time>
</trkpt>
<trkpt lat="45.9106630" lon="10.2553320">
	<ele>617.20</ele>
	<time>2025-04-30T05:57:40.000Z</time>
</trkpt>
<trkpt lat="45.9106590" lon="10.2553210">
	<ele>617.40</ele>
	<time>2025-04-30T05:57:41.000Z</time>
</trkpt>
<trkpt lat="45.9106520" lon="10.2553140">
	<ele>617.40</ele>
	<time>2025-04-30T05:57:42.000Z</time>
</trkpt>
<trkpt lat="45.9106420" lon="10.2553180">
	<ele>617.60</ele>
	<time>2025-04-30T05:57:43.000Z</time>
</trkpt>
<trkpt lat="45.9106370" lon="10.2553270">
	<ele>617.60</ele>
	<time>2025-04-30T05:57:44.000Z</time>
</trkpt>
<trkpt lat="45.9106330" lon="10.2553150">
	<ele>617.80</ele>
	<time>2025-04-30T05:57:45.000Z</time>
</trkpt>
<trkpt lat="45.9106310" lon="10.2553070">
	<ele>618.00</ele>
	<time>2025-04-30T05:57:46.000Z</time>
</trkpt>
<trkpt lat="45.9106230" lon="10.2553020">
	<ele>618.20</ele>
	<time>2025-04-30T05:57:47.000Z</time>
</trkpt>
<trkpt lat="45.9106150" lon="10.2552970">
	<ele>618.40</ele>
	<time>2025-04-30T05:57:48.000Z</time>
</trkpt>
<trkpt lat="45.9106150" lon="10.2552840">
	<ele>618.60</ele>
	<time>2025-04-30T05:57:49.000Z</time>
</trkpt>
<trkpt lat="45.9106110" lon="10.2552760">
	<ele>618.80</ele>
	<time>2025-04-30T05:57:50.000Z</time>
</trkpt>
<trkpt lat="45.9106050" lon="10.2552730">
	<ele>619.00</ele>
	<time>2025-04-30T05:57:51.000Z</time>
</trkpt>
<trkpt lat="45.9105930" lon="10.2552740">
	<ele>619.00</ele>
	<time>2025-04-30T05:57:52.000Z</time>
</trkpt>
<trkpt lat="45.9105850" lon="10.2552670">
	<ele>619.20</ele>
	<time>2025-04-30T05:57:53.000Z</time>
</trkpt>
<trkpt lat="45.9105740" lon="10.2552580">
	<ele>619.40</ele>
	<time>2025-04-30T05:57:54.000Z</time>
</trkpt>
<trkpt lat="45.9105670" lon="10.2552530">
	<ele>619.40</ele>
	<time>2025-04-30T05:57:55.000Z</time>
</trkpt>
<trkpt lat="45.9105600" lon="10.2552560">
	<ele>619.60</ele>
	<time>2025-04-30T05:57:56.000Z</time>
</trkpt>
<trkpt lat="45.9105560" lon="10.2552540">
	<ele>619.80</ele>
	<time>2025-04-30T05:57:57.000Z</time>
</trkpt>
<trkpt lat="45.9105560" lon="10.2552390">
	<ele>619.80</ele>
	<time>2025-04-30T05:57:58.000Z</time>
</trkpt>
<trkpt lat="45.9105550" lon="10.2552250">
	<ele>620.00</ele>
	<time>2025-04-30T05:57:59.000Z</time>
</trkpt>
<trkpt lat="45.9105570" lon="10.2552050">
	<ele>620.00</ele>
	<time>2025-04-30T05:58:00.000Z</time>
</trkpt>
<trkpt lat="45.9105510" lon="10.2551940">
	<ele>620.20</ele>
	<time>2025-04-30T05:58:01.000Z</time>
</trkpt>
<trkpt lat="45.9105380" lon="10.2551980">
	<ele>620.20</ele>
	<time>2025-04-30T05:58:02.000Z</time>
</trkpt>
<trkpt lat="45.9105180" lon="10.2551990">
	<ele>620.20</ele>
	<time>2025-04-30T05:58:03.000Z</time>
</trkpt>
<trkpt lat="45.9105020" lon="10.2552130">
	<ele>620.40</ele>
	<time>2025-04-30T05:58:04.000Z</time>
</trkpt>
<trkpt lat="45.9104790" lon="10.2552160">
	<ele>620.40</ele>
	<time>2025-04-30T05:58:05.000Z</time>
</trkpt>
<trkpt lat="45.9104570" lon="10.2552130">
	<ele>620.60</ele>
	<time>2025-04-30T05:58:06.000Z</time>
</trkpt>
<trkpt lat="45.9104320" lon="10.2552170">
	<ele>620.60</ele>
	<time>2025-04-30T05:58:07.000Z</time>
</trkpt>
<trkpt lat="45.9104140" lon="10.2552200">
	<ele>620.60</ele>
	<time>2025-04-30T05:58:08.000Z</time>
</trkpt>
<trkpt lat="45.9104010" lon="10.2552110">
	<ele>620.60</ele>
	<time>2025-04-30T05:58:09.000Z</time>
</trkpt>
<trkpt lat="45.9103860" lon="10.2552110">
	<ele>620.80</ele>
	<time>2025-04-30T05:58:10.000Z</time>
</trkpt>
<trkpt lat="45.9103730" lon="10.2552060">
	<ele>621.00</ele>
	<time>2025-04-30T05:58:11.000Z</time>
</trkpt>
<trkpt lat="45.9103760" lon="10.2551820">
	<ele>621.20</ele>
	<time>2025-04-30T05:58:12.000Z</time>
</trkpt>
<trkpt lat="45.9103660" lon="10.2551690">
	<ele>621.20</ele>
	<time>2025-04-30T05:58:13.000Z</time>
</trkpt>
<trkpt lat="45.9103440" lon="10.2551750">
	<ele>621.20</ele>
	<time>2025-04-30T05:58:14.000Z</time>
</trkpt>
<trkpt lat="45.9103140" lon="10.2551840">
	<ele>621.20</ele>
	<time>2025-04-30T05:58:15.000Z</time>
</trkpt>
<trkpt lat="45.9103090" lon="10.2551810">
	<ele>621.20</ele>
	<time>2025-04-30T05:58:16.000Z</time>
</trkpt>
<trkpt lat="45.9103030" lon="10.2551670">
	<ele>621.40</ele>
	<time>2025-04-30T05:58:17.000Z</time>
</trkpt>
<trkpt lat="45.9102990" lon="10.2551440">
	<ele>621.40</ele>
	<time>2025-04-30T05:58:18.000Z</time>
</trkpt>
<trkpt lat="45.9102950" lon="10.2551270">
	<ele>621.60</ele>
	<time>2025-04-30T05:58:19.000Z</time>
</trkpt>
<trkpt lat="45.9102980" lon="10.2550940">
	<ele>621.80</ele>
	<time>2025-04-30T05:58:20.000Z</time>
</trkpt>
<trkpt lat="45.9102920" lon="10.2550870">
	<ele>621.80</ele>
	<time>2025-04-30T05:58:21.000Z</time>
</trkpt>
<trkpt lat="45.9102840" lon="10.2550740">
	<ele>621.80</ele>
	<time>2025-04-30T05:58:22.000Z</time>
</trkpt>
<trkpt lat="45.9102710" lon="10.2550750">
	<ele>621.80</ele>
	<time>2025-04-30T05:58:23.000Z</time>
</trkpt>
<trkpt lat="45.9102610" lon="10.2550710">
	<ele>622.00</ele>
	<time>2025-04-30T05:58:24.000Z</time>
</trkpt>
<trkpt lat="45.9102550" lon="10.2550680">
	<ele>622.00</ele>
	<time>2025-04-30T05:58:25.000Z</time>
</trkpt>
<trkpt lat="45.9102500" lon="10.2550520">
	<ele>622.00</ele>
	<time>2025-04-30T05:58:26.000Z</time>
</trkpt>
<trkpt lat="45.9102420" lon="10.2550460">
	<ele>622.00</ele>
	<time>2025-04-30T05:58:27.000Z</time>
</trkpt>
<trkpt lat="45.9102340" lon="10.2550390">
	<ele>622.00</ele>
	<time>2025-04-30T05:58:28.000Z</time>
</trkpt>
<trkpt lat="45.9102280" lon="10.2550240">
	<ele>622.00</ele>
	<time>2025-04-30T05:58:29.000Z</time>
</trkpt>
<trkpt lat="45.9102180" lon="10.2550100">
	<ele>622.20</ele>
	<time>2025-04-30T05:58:30.000Z</time>
</trkpt>
<trkpt lat="45.9102010" lon="10.2550110">
	<ele>622.20</ele>
	<time>2025-04-30T05:58:31.000Z</time>
</trkpt>
<trkpt lat="45.9101840" lon="10.2550240">
	<ele>622.60</ele>
	<time>2025-04-30T05:58:32.000Z</time>
</trkpt>
<trkpt lat="45.9101640" lon="10.2550390">
	<ele>622.60</ele>
	<time>2025-04-30T05:58:33.000Z</time>
</trkpt>
<trkpt lat="45.9101500" lon="10.2550500">
	<ele>622.80</ele>
	<time>2025-04-30T05:58:34.000Z</time>
</trkpt>
<trkpt lat="45.9101380" lon="10.2550480">
	<ele>622.80</ele>
	<time>2025-04-30T05:58:35.000Z</time>
</trkpt>
<trkpt lat="45.9101280" lon="10.2550420">
	<ele>623.00</ele>
	<time>2025-04-30T05:58:36.000Z</time>
</trkpt>
<trkpt lat="45.9101240" lon="10.2550230">
	<ele>623.00</ele>
	<time>2025-04-30T05:58:37.000Z</time>
</trkpt>
<trkpt lat="45.9101070" lon="10.2550060">
	<ele>623.20</ele>
	<time>2025-04-30T05:58:38.000Z</time>
</trkpt>
<trkpt lat="45.9100940" lon="10.2550010">
	<ele>623.20</ele>
	<time>2025-04-30T05:58:39.000Z</time>
</trkpt>
<trkpt lat="45.9100890" lon="10.2549840">
	<ele>623.40</ele>
	<time>2025-04-30T05:58:40.000Z</time>
</trkpt>
<trkpt lat="45.9100890" lon="10.2549730">
	<ele>623.40</ele>
	<time>2025-04-30T05:58:41.000Z</time>
</trkpt>
<trkpt lat="45.9100890" lon="10.2549690">
	<ele>623.60</ele>
	<time>2025-04-30T05:58:42.000Z</time>
</trkpt>
<trkpt lat="45.9100830" lon="10.2549750">
	<ele>623.80</ele>
	<time>2025-04-30T05:58:43.000Z</time>
</trkpt>
<trkpt lat="45.9100770" lon="10.2549710">
	<ele>623.80</ele>
	<time>2025-04-30T05:58:44.000Z</time>
</trkpt>
<trkpt lat="45.9100670" lon="10.2549670">
	<ele>624.00</ele>
	<time>2025-04-30T05:58:45.000Z</time>
</trkpt>
<trkpt lat="45.9100660" lon="10.2549580">
	<ele>624.00</ele>
	<time>2025-04-30T05:58:46.000Z</time>
</trkpt>
<trkpt lat="45.9100710" lon="10.2549420">
	<ele>624.00</ele>
	<time>2025-04-30T05:58:47.000Z</time>
</trkpt>
<trkpt lat="45.9100830" lon="10.2549170">
	<ele>624.20</ele>
	<time>2025-04-30T05:58:48.000Z</time>
</trkpt>
<trkpt lat="45.9100860" lon="10.2549190">
	<ele>624.20</ele>
	<time>2025-04-30T05:58:49.000Z</time>
</trkpt>
<trkpt lat="45.9100800" lon="10.2549160">
	<ele>624.20</ele>
	<time>2025-04-30T05:58:50.000Z</time>
</trkpt>
<trkpt lat="45.9100720" lon="10.2549100">
	<ele>624.40</ele>
	<time>2025-04-30T05:58:51.000Z</time>
</trkpt>
<trkpt lat="45.9100690" lon="10.2548920">
	<ele>624.60</ele>
	<time>2025-04-30T05:58:52.000Z</time>
</trkpt>
<trkpt lat="45.9100610" lon="10.2548710">
	<ele>624.60</ele>
	<time>2025-04-30T05:58:53.000Z</time>
</trkpt>
<trkpt lat="45.9100540" lon="10.2548570">
	<ele>624.80</ele>
	<time>2025-04-30T05:58:54.000Z</time>
</trkpt>
<trkpt lat="45.9100350" lon="10.2548540">
	<ele>625.00</ele>
	<time>2025-04-30T05:58:55.000Z</time>
</trkpt>
<trkpt lat="45.9100160" lon="10.2548540">
	<ele>625.20</ele>
	<time>2025-04-30T05:58:56.000Z</time>
</trkpt>
<trkpt lat="45.9100000" lon="10.2548500">
	<ele>625.20</ele>
	<time>2025-04-30T05:58:57.000Z</time>
</trkpt>
<trkpt lat="45.9099890" lon="10.2548450">
	<ele>625.40</ele>
	<time>2025-04-30T05:58:58.000Z</time>
</trkpt>
<trkpt lat="45.9099860" lon="10.2548260">
	<ele>625.60</ele>
	<time>2025-04-30T05:58:59.000Z</time>
</trkpt>
<trkpt lat="45.9099900" lon="10.2548020">
	<ele>625.60</ele>
	<time>2025-04-30T05:59:00.000Z</time>
</trkpt>
<trkpt lat="45.9099890" lon="10.2547890">
	<ele>625.80</ele>
	<time>2025-04-30T05:59:01.000Z</time>
</trkpt>
<trkpt lat="45.9099830" lon="10.2547840">
	<ele>626.00</ele>
	<time>2025-04-30T05:59:02.000Z</time>
</trkpt>
<trkpt lat="45.9099800" lon="10.2547800">
	<ele>626.20</ele>
	<time>2025-04-30T05:59:03.000Z</time>
</trkpt>
<trkpt lat="45.9099730" lon="10.2547830">
	<ele>626.40</ele>
	<time>2025-04-30T05:59:04.000Z</time>
</trkpt>
<trkpt lat="45.9099700" lon="10.2547820">
	<ele>626.40</ele>
	<time>2025-04-30T05:59:05.000Z</time>
</trkpt>
<trkpt lat="45.9099720" lon="10.2547710">
	<ele>626.60</ele>
	<time>2025-04-30T05:59:06.000Z</time>
</trkpt>
<trkpt lat="45.9099710" lon="10.2547640">
	<ele>627.00</ele>
	<time>2025-04-30T05:59:07.000Z</time>
</trkpt>
<trkpt lat="45.9099690" lon="10.2547550">
	<ele>627.00</ele>
	<time>2025-04-30T05:59:08.000Z</time>
</trkpt>
<trkpt lat="45.9099670" lon="10.2547540">
	<ele>627.20</ele>
	<time>2025-04-30T05:59:09.000Z</time>
</trkpt>
<trkpt lat="45.9099610" lon="10.2547540">
	<ele>627.20</ele>
	<time>2025-04-30T05:59:10.000Z</time>
</trkpt>
<trkpt lat="45.9099560" lon="10.2547490">
	<ele>627.40</ele>
	<time>2025-04-30T05:59:11.000Z</time>
</trkpt>
<trkpt lat="45.9099490" lon="10.2547340">
	<ele>627.60</ele>
	<time>2025-04-30T05:59:12.000Z</time>
</trkpt>
<trkpt lat="45.9099360" lon="10.2547190">
	<ele>628.00</ele>
	<time>2025-04-30T05:59:13.000Z</time>
</trkpt>
<trkpt lat="45.9099270" lon="10.2547060">
	<ele>628.00</ele>
	<time>2025-04-30T05:59:14.000Z</time>
</trkpt>
<trkpt lat="45.9099220" lon="10.2546930">
	<ele>628.40</ele>
	<time>2025-04-30T05:59:15.000Z</time>
</trkpt>
<trkpt lat="45.9099210" lon="10.2546790">
	<ele>628.60</ele>
	<time>2025-04-30T05:59:16.000Z</time>
</trkpt>
<trkpt lat="45.9099210" lon="10.2546680">
	<ele>628.80</ele>
	<time>2025-04-30T05:59:17.000Z</time>
</trkpt>
<trkpt lat="45.9099180" lon="10.2546670">
	<ele>629.00</ele>
	<time>2025-04-30T05:59:18.000Z</time>
</trkpt>
<trkpt lat="45.9099060" lon="10.2546820">
	<ele>629.00</ele>
	<time>2025-04-30T05:59:19.000Z</time>
</trkpt>
<trkpt lat="45.9098970" lon="10.2546920">
	<ele>629.20</ele>
	<time>2025-04-30T05:59:20.000Z</time>
</trkpt>
<trkpt lat="45.9098810" lon="10.2546990">
	<ele>629.40</ele>
	<time>2025-04-30T05:59:21.000Z</time>
</trkpt>
<trkpt lat="45.9098740" lon="10.2546900">
	<ele>629.60</ele>
	<time>2025-04-30T05:59:22.000Z</time>
</trkpt>
<trkpt lat="45.9098710" lon="10.2546780">
	<ele>629.80</ele>
	<time>2025-04-30T05:59:23.000Z</time>
</trkpt>
<trkpt lat="45.9098660" lon="10.2546640">
	<ele>629.80</ele>
	<time>2025-04-30T05:59:24.000Z</time>
</trkpt>
<trkpt lat="45.9098540" lon="10.2546570">
	<ele>630.20</ele>
	<time>2025-04-30T05:59:25.000Z</time>
</trkpt>
<trkpt lat="45.9098410" lon="10.2546560">
	<ele>630.40</ele>
	<time>2025-04-30T05:59:26.000Z</time>
</trkpt>
<trkpt lat="45.9098280" lon="10.2546570">
	<ele>630.60</ele>
	<time>2025-04-30T05:59:27.000Z</time>
</trkpt>
<trkpt lat="45.9098160" lon="10.2546660">
	<ele>630.80</ele>
	<time>2025-04-30T05:59:28.000Z</time>
</trkpt>
<trkpt lat="45.9098090" lon="10.2546660">
	<ele>630.80</ele>
	<time>2025-04-30T05:59:29.000Z</time>
</trkpt>
<trkpt lat="45.9098050" lon="10.2546600">
	<ele>631.00</ele>
	<time>2025-04-30T05:59:30.000Z</time>
</trkpt>
<trkpt lat="45.9097940" lon="10.2546650">
	<ele>631.20</ele>
	<time>2025-04-30T05:59:31.000Z</time>
</trkpt>
<trkpt lat="45.9097890" lon="10.2546610">
	<ele>631.20</ele>
	<time>2025-04-30T05:59:32.000Z</time>
</trkpt>
<trkpt lat="45.9097850" lon="10.2546520">
	<ele>631.40</ele>
	<time>2025-04-30T05:59:33.000Z</time>
</trkpt>
<trkpt lat="45.9097820" lon="10.2546400">
	<ele>631.60</ele>
	<time>2025-04-30T05:59:34.000Z</time>
</trkpt>
<trkpt lat="45.9097770" lon="10.2546330">
	<ele>631.80</ele>
	<time>2025-04-30T05:59:35.000Z</time>
</trkpt>
<trkpt lat="45.9097630" lon="10.2546250">
	<ele>632.00</ele>
	<time>2025-04-30T05:59:36.000Z</time>
</trkpt>
<trkpt lat="45.9097490" lon="10.2546160">
	<ele>632.20</ele>
	<time>2025-04-30T05:59:37.000Z</time>
</trkpt>
<trkpt lat="45.9097360" lon="10.2546150">
	<ele>632.40</ele>
	<time>2025-04-30T05:59:38.000Z</time>
</trkpt>
<trkpt lat="45.9097180" lon="10.2546180">
	<ele>632.60</ele>
	<time>2025-04-30T05:59:39.000Z</time>
</trkpt>
<trkpt lat="45.9097060" lon="10.2546270">
	<ele>632.80</ele>
	<time>2025-04-30T05:59:40.000Z</time>
</trkpt>
<trkpt lat="45.9096990" lon="10.2546240">
	<ele>633.00</ele>
	<time>2025-04-30T05:59:41.000Z</time>
</trkpt>
<trkpt lat="45.9096940" lon="10.2546050">
	<ele>633.20</ele>
	<time>2025-04-30T05:59:42.000Z</time>
</trkpt>
<trkpt lat="45.9096820" lon="10.2545840">
	<ele>633.40</ele>
	<time>2025-04-30T05:59:43.000Z</time>
</trkpt>
<trkpt lat="45.9096650" lon="10.2545720">
	<ele>633.60</ele>
	<time>2025-04-30T05:59:44.000Z</time>
</trkpt>
<trkpt lat="45.9096500" lon="10.2545700">
	<ele>633.80</ele>
	<time>2025-04-30T05:59:45.000Z</time>
</trkpt>
<trkpt lat="45.9096410" lon="10.2545650">
	<ele>634.00</ele>
	<time>2025-04-30T05:59:46.000Z</time>
</trkpt>
<trkpt lat="45.9096470" lon="10.2545360">
	<ele>634.20</ele>
	<time>2025-04-30T05:59:47.000Z</time>
</trkpt>
<trkpt lat="45.9096550" lon="10.2545160">
	<ele>634.60</ele>
	<time>2025-04-30T05:59:48.000Z</time>
</trkpt>
<trkpt lat="45.9096710" lon="10.2544780">
	<ele>634.80</ele>
	<time>2025-04-30T05:59:49.000Z</time>
</trkpt>
<trkpt lat="45.9096760" lon="10.2544640">
	<ele>634.80</ele>
	<time>2025-04-30T05:59:50.000Z</time>
</trkpt>
<trkpt lat="45.9096720" lon="10.2544600">
	<ele>635.00</ele>
	<time>2025-04-30T05:59:51.000Z</time>
</trkpt>
<trkpt lat="45.9096620" lon="10.2544620">
	<ele>635.20</ele>
	<time>2025-04-30T05:59:52.000Z</time>
</trkpt>
<trkpt lat="45.9096510" lon="10.2544580">
	<ele>635.40</ele>
	<time>2025-04-30T05:59:53.000Z</time>
</trkpt>
<trkpt lat="45.9096400" lon="10.2544510">
	<ele>635.60</ele>
	<time>2025-04-30T05:59:54.000Z</time>
</trkpt>
<trkpt lat="45.9096360" lon="10.2544400">
	<ele>635.80</ele>
	<time>2025-04-30T05:59:55.000Z</time>
</trkpt>
<trkpt lat="45.9096300" lon="10.2544370">
	<ele>635.80</ele>
	<time>2025-04-30T05:59:56.000Z</time>
</trkpt>
<trkpt lat="45.9096230" lon="10.2544420">
	<ele>636.20</ele>
	<time>2025-04-30T05:59:57.000Z</time>
</trkpt>
<trkpt lat="45.9096090" lon="10.2544520">
	<ele>636.40</ele>
	<time>2025-04-30T05:59:58.000Z</time>
</trkpt>
<trkpt lat="45.9095940" lon="10.2544580">
	<ele>636.60</ele>
	<time>2025-04-30T05:59:59.000Z</time>
</trkpt>
<trkpt lat="45.9095850" lon="10.2544600">
	<ele>636.80</ele>
	<time>2025-04-30T06:00:00.000Z</time>
</trkpt>
<trkpt lat="45.9095730" lon="10.2544630">
	<ele>637.00</ele>
	<time>2025-04-30T06:00:01.000Z</time>
</trkpt>
<trkpt lat="45.9095700" lon="10.2544610">
	<ele>637.20</ele>
	<time>2025-04-30T06:00:02.000Z</time>
</trkpt>
<trkpt lat="45.9095690" lon="10.2544470">
	<ele>637.40</ele>
	<time>2025-04-30T06:00:03.000Z</time>
</trkpt>
<trkpt lat="45.9095700" lon="10.2544400">
	<ele>637.60</ele>
	<time>2025-04-30T06:00:04.000Z</time>
</trkpt>
<trkpt lat="45.9095660" lon="10.2544410">
	<ele>637.80</ele>
	<time>2025-04-30T06:00:05.000Z</time>
</trkpt>
<trkpt lat="45.9095670" lon="10.2544210">
	<ele>638.00</ele>
	<time>2025-04-30T06:00:06.000Z</time>
</trkpt>
<trkpt lat="45.9095540" lon="10.2544170">
	<ele>638.20</ele>
	<time>2025-04-30T06:00:07.000Z</time>
</trkpt>
<trkpt lat="45.9095590" lon="10.2544090">
	<ele>638.40</ele>
	<time>2025-04-30T06:00:08.000Z</time>
</trkpt>
<trkpt lat="45.9095600" lon="10.2544080">
	<ele>638.60</ele>
	<time>2025-04-30T06:00:09.000Z</time>
</trkpt>
<trkpt lat="45.9095490" lon="10.2544090">
	<ele>638.80</ele>
	<time>2025-04-30T06:00:10.000Z</time>
</trkpt>
<trkpt lat="45.9095410" lon="10.2544040">
	<ele>639.00</ele>
	<time>2025-04-30T06:00:11.000Z</time>
</trkpt>
<trkpt lat="45.9095360" lon="10.2543990">
	<ele>639.20</ele>
	<time>2025-04-30T06:00:12.000Z</time>
</trkpt>
<trkpt lat="45.9095270" lon="10.2543960">
	<ele>639.40</ele>
	<time>2025-04-30T06:00:13.000Z</time>
</trkpt>
<trkpt lat="45.9095190" lon="10.2543950">
	<ele>639.60</ele>
	<time>2025-04-30T06:00:14.000Z</time>
</trkpt>
<trkpt lat="45.9095100" lon="10.2543940">
	<ele>639.80</ele>
	<time>2025-04-30T06:00:15.000Z</time>
</trkpt>
<trkpt lat="45.9095010" lon="10.2543940">
	<ele>639.80</ele>
	<time>2025-04-30T06:00:16.000Z</time>
</trkpt>
<trkpt lat="45.9094900" lon="10.2543900">
	<ele>640.00</ele>
	<time>2025-04-30T06:00:17.000Z</time>
</trkpt>
<trkpt lat="45.9094830" lon="10.2543820">
	<ele>640.20</ele>
	<time>2025-04-30T06:00:18.000Z</time>
</trkpt>
<trkpt lat="45.9094800" lon="10.2543640">
	<ele>640.40</ele>
	<time>2025-04-30T06:00:19.000Z</time>
</trkpt>
<trkpt lat="45.9094720" lon="10.2543440">
	<ele>640.40</ele>
	<time>2025-04-30T06:00:20.000Z</time>
</trkpt>
<trkpt lat="45.9094700" lon="10.2543260">
	<ele>640.60</ele>
	<time>2025-04-30T06:00:21.000Z</time>
</trkpt>
<trkpt lat="45.9094560" lon="10.2543330">
	<ele>641.00</ele>
	<time>2025-04-30T06:00:22.000Z</time>
</trkpt>
<trkpt lat="45.9094490" lon="10.2543410">
	<ele>641.20</ele>
	<time>2025-04-30T06:00:23.000Z</time>
</trkpt>
<trkpt lat="45.9094460" lon="10.2543440">
	<ele>641.20</ele>
	<time>2025-04-30T06:00:24.000Z</time>
</trkpt>
<trkpt lat="45.9094430" lon="10.2543370">
	<ele>641.40</ele>
	<time>2025-04-30T06:00:25.000Z</time>
</trkpt>
<trkpt lat="45.9094360" lon="10.2543350">
	<ele>641.60</ele>
	<time>2025-04-30T06:00:26.000Z</time>
</trkpt>
<trkpt lat="45.9094310" lon="10.2543300">
	<ele>641.80</ele>
	<time>2025-04-30T06:00:27.000Z</time>
</trkpt>
<trkpt lat="45.9094220" lon="10.2543320">
	<ele>642.00</ele>
	<time>2025-04-30T06:00:28.000Z</time>
</trkpt>
<trkpt lat="45.9094160" lon="10.2543300">
	<ele>642.20</ele>
	<time>2025-04-30T06:00:29.000Z</time>
</trkpt>
<trkpt lat="45.9094110" lon="10.2543310">
	<ele>642.20</ele>
	<time>2025-04-30T06:00:30.000Z</time>
</trkpt>
<trkpt lat="45.9094030" lon="10.2543370">
	<ele>642.40</ele>
	<time>2025-04-30T06:00:31.000Z</time>
</trkpt>
<trkpt lat="45.9093920" lon="10.2543380">
	<ele>642.60</ele>
	<time>2025-04-30T06:00:32.000Z</time>
</trkpt>
<trkpt lat="45.9093810" lon="10.2543430">
	<ele>642.60</ele>
	<time>2025-04-30T06:00:33.000Z</time>
</trkpt>
<trkpt lat="45.9093750" lon="10.2543400">
	<ele>642.80</ele>
	<time>2025-04-30T06:00:34.000Z</time>
</trkpt>
<trkpt lat="45.9093650" lon="10.2543330">
	<ele>643.00</ele>
	<time>2025-04-30T06:00:35.000Z</time>
</trkpt>
<trkpt lat="45.9093590" lon="10.2543220">
	<ele>643.20</ele>
	<time>2025-04-30T06:00:36.000Z</time>
</trkpt>
<trkpt lat="45.9093530" lon="10.2543210">
	<ele>643.40</ele>
	<time>2025-04-30T06:00:37.000Z</time>
</trkpt>
<trkpt lat="45.9093420" lon="10.2543310">
	<ele>643.40</ele>
	<time>2025-04-30T06:00:38.000Z</time>
</trkpt>
<trkpt lat="45.9093360" lon="10.2543350">
	<ele>643.40</ele>
	<time>2025-04-30T06:00:39.000Z</time>
</trkpt>
<trkpt lat="45.9093260" lon="10.2543320">
	<ele>643.60</ele>
	<time>2025-04-30T06:00:40.000Z</time>
</trkpt>
<trkpt lat="45.9093170" lon="10.2543360">
	<ele>643.80</ele>
	<time>2025-04-30T06:00:41.000Z</time>
</trkpt>
<trkpt lat="45.9093030" lon="10.2543490">
	<ele>644.00</ele>
	<time>2025-04-30T06:00:42.000Z</time>
</trkpt>
<trkpt lat="45.9092850" lon="10.2543730">
	<ele>644.20</ele>
	<time>2025-04-30T06:00:43.000Z</time>
</trkpt>
<trkpt lat="45.9092740" lon="10.2544040">
	<ele>644.40</ele>
	<time>2025-04-30T06:00:44.000Z</time>
</trkpt>
<trkpt lat="45.9092630" lon="10.2544200">
	<ele>644.80</ele>
	<time>2025-04-30T06:00:45.000Z</time>
</trkpt>
<trkpt lat="45.9092580" lon="10.2544270">
	<ele>644.80</ele>
	<time>2025-04-30T06:00:46.000Z</time>
</trkpt>
<trkpt lat="45.9092520" lon="10.2544260">
	<ele>645.00</ele>
	<time>2025-04-30T06:00:47.000Z</time>
</trkpt>
<trkpt lat="45.9092410" lon="10.2544260">
	<ele>645.20</ele>
	<time>2025-04-30T06:00:48.000Z</time>
</trkpt>
<trkpt lat="45.9092260" lon="10.2544340">
	<ele>645.20</ele>
	<time>2025-04-30T06:00:49.000Z</time>
</trkpt>
<trkpt lat="45.9092120" lon="10.2544510">
	<ele>645.40</ele>
	<time>2025-04-30T06:00:50.000Z</time>
</trkpt>
<trkpt lat="45.9092020" lon="10.2544690">
	<ele>645.60</ele>
	<time>2025-04-30T06:00:51.000Z</time>
</trkpt>
<trkpt lat="45.9091920" lon="10.2544870">
	<ele>645.60</ele>
	<time>2025-04-30T06:00:52.000Z</time>
</trkpt>
<trkpt lat="45.9091820" lon="10.2544940">
	<ele>645.80</ele>
	<time>2025-04-30T06:00:53.000Z</time>
</trkpt>
<trkpt lat="45.9091730" lon="10.2544990">
	<ele>646.00</ele>
	<time>2025-04-30T06:00:54.000Z</time>
</trkpt>
<trkpt lat="45.9091660" lon="10.2545140">
	<ele>646.20</ele>
	<time>2025-04-30T06:00:55.000Z</time>
</trkpt>
<trkpt lat="45.9091580" lon="10.2545240">
	<ele>646.20</ele>
	<time>2025-04-30T06:00:56.000Z</time>
</trkpt>
<trkpt lat="45.9091510" lon="10.2545340">
	<ele>646.40</ele>
	<time>2025-04-30T06:00:57.000Z</time>
</trkpt>
<trkpt lat="45.9091430" lon="10.2545410">
	<ele>646.60</ele>
	<time>2025-04-30T06:00:58.000Z</time>
</trkpt>
<trkpt lat="45.9091330" lon="10.2545470">
	<ele>646.60</ele>
	<time>2025-04-30T06:00:59.000Z</time>
</trkpt>
<trkpt lat="45.9091170" lon="10.2545530">
	<ele>646.80</ele>
	<time>2025-04-30T06:01:00.000Z</time>
</trkpt>
<trkpt lat="45.9091090" lon="10.2545580">
	<ele>647.00</ele>
	<time>2025-04-30T06:01:01.000Z</time>
</trkpt>
<trkpt lat="45.9091040" lon="10.2545600">
	<ele>647.00</ele>
	<time>2025-04-30T06:01:02.000Z</time>
</trkpt>
<trkpt lat="45.9090980" lon="10.2545640">
	<ele>647.20</ele>
	<time>2025-04-30T06:01:03.000Z</time>
</trkpt>
<trkpt lat="45.9090930" lon="10.2545690">
	<ele>647.40</ele>
	<time>2025-04-30T06:01:04.000Z</time>
</trkpt>
<trkpt lat="45.9090870" lon="10.2545640">
	<ele>647.60</ele>
	<time>2025-04-30T06:01:05.000Z</time>
</trkpt>
<trkpt lat="45.9090770" lon="10.2545580">
	<ele>647.80</ele>
	<time>2025-04-30T06:01:06.000Z</time>
</trkpt>
<trkpt lat="45.9090650" lon="10.2545570">
	<ele>647.80</ele>
	<time>2025-04-30T06:01:07.000Z</time>
</trkpt>
<trkpt lat="45.9090560" lon="10.2545590">
	<ele>648.00</ele>
	<time>2025-04-30T06:01:08.000Z</time>
</trkpt>
<trkpt lat="45.9090520" lon="10.2545650">
	<ele>648.20</ele>
	<time>2025-04-30T06:01:09.000Z</time>
</trkpt>
<trkpt lat="45.9090490" lon="10.2545660">
	<ele>648.40</ele>
	<time>2025-04-30T06:01:10.000Z</time>
</trkpt>
<trkpt lat="45.9090420" lon="10.2545730">
	<ele>648.60</ele>
	<time>2025-04-30T06:01:11.000Z</time>
</trkpt>
<trkpt lat="45.9090370" lon="10.2545840">
	<ele>648.60</ele>
	<time>2025-04-30T06:01:12.000Z</time>
</trkpt>
<trkpt lat="45.9090310" lon="10.2545940">
	<ele>648.80</ele>
	<time>2025-04-30T06:01:13.000Z</time>
</trkpt>
<trkpt lat="45.9090250" lon="10.2546040">
	<ele>649.00</ele>
	<time>2025-04-30T06:01:14.000Z</time>
</trkpt>
<trkpt lat="45.9090200" lon="10.2546130">
	<ele>649.20</ele>
	<time>2025-04-30T06:01:15.000Z</time>
</trkpt>
<trkpt lat="45.9090100" lon="10.2546250">
	<ele>649.40</ele>
	<time>2025-04-30T06:01:16.000Z</time>
</trkpt>
<trkpt lat="45.9090040" lon="10.2546330">
	<ele>649.40</ele>
	<time>2025-04-30T06:01:17.000Z</time>
</trkpt>
<trkpt lat="45.9090000" lon="10.2546400">
	<ele>649.60</ele>
	<time>2025-04-30T06:01:18.000Z</time>
</trkpt>
<trkpt lat="45.9090010" lon="10.2546430">
	<ele>649.80</ele>
	<time>2025-04-30T06:01:19.000Z</time>
</trkpt>
<trkpt lat="45.9089980" lon="10.2546520">
	<ele>649.80</ele>
	<time>2025-04-30T06:01:20.000Z</time>
</trkpt>
<trkpt lat="45.9089930" lon="10.2546680">
	<ele>650.00</ele>
	<time>2025-04-30T06:01:21.000Z</time>
</trkpt>
<trkpt lat="45.9089900" lon="10.2546790">
	<ele>650.20</ele>
	<time>2025-04-30T06:01:22.000Z</time>
</trkpt>
<trkpt lat="45.9089940" lon="10.2546960">
	<ele>650.20</ele>
	<time>2025-04-30T06:01:23.000Z</time>
</trkpt>
<trkpt lat="45.9089940" lon="10.2547270">
	<ele>650.40</ele>
	<time>2025-04-30T06:01:24.000Z</time>
</trkpt>
<trkpt lat="45.9089880" lon="10.2547450">
	<ele>650.40</ele>
	<time>2025-04-30T06:01:25.000Z</time>
</trkpt>
<trkpt lat="45.9089770" lon="10.2547640">
	<ele>650.60</ele>
	<time>2025-04-30T06:01:26.000Z</time>
</trkpt>
<trkpt lat="45.9089690" lon="10.2547810">
	<ele>650.80</ele>
	<time>2025-04-30T06:01:27.000Z</time>
</trkpt>
<trkpt lat="45.9089580" lon="10.2547950">
	<ele>651.00</ele>
	<time>2025-04-30T06:01:28.000Z</time>
</trkpt>
<trkpt lat="45.9089460" lon="10.2548070">
	<ele>651.00</ele>
	<time>2025-04-30T06:01:29.000Z</time>
</trkpt>
<trkpt lat="45.9089430" lon="10.2548310">
	<ele>651.20</ele>
	<time>2025-04-30T06:01:30.000Z</time>
</trkpt>
<trkpt lat="45.9089440" lon="10.2548590">
	<ele>651.40</ele>
	<time>2025-04-30T06:01:31.000Z</time>
</trkpt>
<trkpt lat="45.9089450" lon="10.2548760">
	<ele>651.40</ele>
	<time>2025-04-30T06:01:32.000Z</time>
</trkpt>
<trkpt lat="45.9089420" lon="10.2548910">
	<ele>651.60</ele>
	<time>2025-04-30T06:01:33.000Z</time>
</trkpt>
<trkpt lat="45.9089400" lon="10.2549070">
	<ele>651.60</ele>
	<time>2025-04-30T06:01:34.000Z</time>
</trkpt>
<trkpt lat="45.9089430" lon="10.2549100">
	<ele>651.80</ele>
	<time>2025-04-30T06:01:35.000Z</time>
</trkpt>
<trkpt lat="45.9089450" lon="10.2549140">
	<ele>652.00</ele>
	<time>2025-04-30T06:01:36.000Z</time>
</trkpt>
<trkpt lat="45.9089450" lon="10.2549260">
	<ele>652.20</ele>
	<time>2025-04-30T06:01:37.000Z</time>
</trkpt>
<trkpt lat="45.9089430" lon="10.2549530">
	<ele>652.40</ele>
	<time>2025-04-30T06:01:38.000Z</time>
</trkpt>
<trkpt lat="45.9089420" lon="10.2549570">
	<ele>652.80</ele>
	<time>2025-04-30T06:01:39.000Z</time>
</trkpt>
<trkpt lat="45.9089410" lon="10.2549560">
	<ele>653.00</ele>
	<time>2025-04-30T06:01:40.000Z</time>
</trkpt>
<trkpt lat="45.9089470" lon="10.2549630">
	<ele>653.20</ele>
	<time>2025-04-30T06:01:41.000Z</time>
</trkpt>
<trkpt lat="45.9089470" lon="10.2549610">
	<ele>653.40</ele>
	<time>2025-04-30T06:01:42.000Z</time>
</trkpt>
<trkpt lat="45.9089480" lon="10.2549640">
	<ele>653.40</ele>
	<time>2025-04-30T06:01:43.000Z</time>
</trkpt>
<trkpt lat="45.9089480" lon="10.2549550">
	<ele>653.40</ele>
	<time>2025-04-30T06:01:44.000Z</time>
</trkpt>
<trkpt lat="45.9089450" lon="10.2549610">
	<ele>653.20</ele>
	<time>2025-04-30T06:01:45.000Z</time>
</trkpt>
<trkpt lat="45.9089200" lon="10.2549780">
	<ele>653.20</ele>
	<time>2025-04-30T06:01:46.000Z</time>
</trkpt>
<trkpt lat="45.9089200" lon="10.2550020">
	<ele>653.20</ele>
	<time>2025-04-30T06:01:47.000Z</time>
</trkpt>
<trkpt lat="45.9089260" lon="10.2550210">
	<ele>653.20</ele>
	<time>2025-04-30T06:01:48.000Z</time>
</trkpt>
<trkpt lat="45.9089310" lon="10.2550350">
	<ele>653.20</ele>
	<time>2025-04-30T06:01:49.000Z</time>
</trkpt>
<trkpt lat="45.9089350" lon="10.2550500">
	<ele>653.20</ele>
	<time>2025-04-30T06:01:50.000Z</time>
</trkpt>
<trkpt lat="45.9089400" lon="10.2550730">
	<ele>653.40</ele>
	<time>2025-04-30T06:01:51.000Z</time>
</trkpt>
<trkpt lat="45.9089350" lon="10.2550930">
	<ele>653.60</ele>
	<time>2025-04-30T06:01:52.000Z</time>
</trkpt>
<trkpt lat="45.9089310" lon="10.2551060">
	<ele>653.80</ele>
	<time>2025-04-30T06:01:53.000Z</time>
</trkpt>
<trkpt lat="45.9088980" lon="10.2551260">
	<ele>653.80</ele>
	<time>2025-04-30T06:01:54.000Z</time>
</trkpt>
<trkpt lat="45.9088940" lon="10.2551480">
	<ele>654.20</ele>
	<time>2025-04-30T06:01:55.000Z</time>
</trkpt>
<trkpt lat="45.9088770" lon="10.2551760">
	<ele>654.20</ele>
	<time>2025-04-30T06:01:56.000Z</time>
</trkpt>
<trkpt lat="45.9088690" lon="10.2551970">
	<ele>654.40</ele>
	<time>2025-04-30T06:01:57.000Z</time>
</trkpt>
<trkpt lat="45.9088740" lon="10.2552100">
	<ele>654.40</ele>
	<time>2025-04-30T06:01:58.000Z</time>
</trkpt>
<trkpt lat="45.9088800" lon="10.2552150">
	<ele>654.60</ele>
	<time>2025-04-30T06:01:59.000Z</time>
</trkpt>
<trkpt lat="45.9088860" lon="10.2552200">
	<ele>654.60</ele>
	<time>2025-04-30T06:02:00.000Z</time>
</trkpt>
<trkpt lat="45.9088850" lon="10.2552370">
	<ele>654.60</ele>
	<time>2025-04-30T06:02:01.000Z</time>
</trkpt>
<trkpt lat="45.9088880" lon="10.2552480">
	<ele>654.80</ele>
	<time>2025-04-30T06:02:02.000Z</time>
</trkpt>
<trkpt lat="45.9088790" lon="10.2552570">
	<ele>654.80</ele>
	<time>2025-04-30T06:02:03.000Z</time>
</trkpt>
<trkpt lat="45.9088650" lon="10.2552610">
	<ele>654.80</ele>
	<time>2025-04-30T06:02:04.000Z</time>
</trkpt>
<trkpt lat="45.9088540" lon="10.2552680">
	<ele>654.80</ele>
	<time>2025-04-30T06:02:05.000Z</time>
</trkpt>
<trkpt lat="45.9088530" lon="10.2552800">
	<ele>655.00</ele>
	<time>2025-04-30T06:02:06.000Z</time>
</trkpt>
<trkpt lat="45.9088530" lon="10.2552940">
	<ele>655.00</ele>
	<time>2025-04-30T06:02:07.000Z</time>
</trkpt>
<trkpt lat="45.9088510" lon="10.2553010">
	<ele>655.20</ele>
	<time>2025-04-30T06:02:08.000Z</time>
</trkpt>
<trkpt lat="45.9088520" lon="10.2553070">
	<ele>655.20</ele>
	<time>2025-04-30T06:02:09.000Z</time>
</trkpt>
<trkpt lat="45.9088430" lon="10.2553130">
	<ele>655.20</ele>
	<time>2025-04-30T06:02:10.000Z</time>
</trkpt>
<trkpt lat="45.9088440" lon="10.2553150">
	<ele>655.40</ele>
	<time>2025-04-30T06:02:11.000Z</time>
</trkpt>
<trkpt lat="45.9088430" lon="10.2553130">
	<ele>655.40</ele>
	<time>2025-04-30T06:02:12.000Z</time>
</trkpt>
<trkpt lat="45.9088430" lon="10.2553240">
	<ele>655.60</ele>
	<time>2025-04-30T06:02:13.000Z</time>
</trkpt>
<trkpt lat="45.9088550" lon="10.2553320">
	<ele>655.80</ele>
	<time>2025-04-30T06:02:14.000Z</time>
</trkpt>
<trkpt lat="45.9088560" lon="10.2553340">
	<ele>656.00</ele>
	<time>2025-04-30T06:02:15.000Z</time>
</trkpt>
<trkpt lat="45.9088340" lon="10.2553340">
	<ele>656.20</ele>
	<time>2025-04-30T06:02:16.000Z</time>
</trkpt>
<trkpt lat="45.9088290" lon="10.2553350">
	<ele>656.20</ele>
	<time>2025-04-30T06:02:17.000Z</time>
</trkpt>
<trkpt lat="45.9088220" lon="10.2553360">
	<ele>656.40</ele>
	<time>2025-04-30T06:02:18.000Z</time>
</trkpt>
<trkpt lat="45.9088180" lon="10.2553380">
	<ele>656.60</ele>
	<time>2025-04-30T06:02:19.000Z</time>
</trkpt>
<trkpt lat="45.9088130" lon="10.2553390">
	<ele>656.80</ele>
	<time>2025-04-30T06:02:20.000Z</time>
</trkpt>
<trkpt lat="45.9088230" lon="10.2553470">
	<ele>657.00</ele>
	<time>2025-04-30T06:02:21.000Z</time>
</trkpt>
<trkpt lat="45.9088330" lon="10.2553510">
	<ele>657.20</ele>
	<time>2025-04-30T06:02:22.000Z</time>
</trkpt>
<trkpt lat="45.9088370" lon="10.2553500">
	<ele>657.40</ele>
	<time>2025-04-30T06:02:23.000Z</time>
</trkpt>
<trkpt lat="45.9088330" lon="10.2553480">
	<ele>657.60</ele>
	<time>2025-04-30T06:02:24.000Z</time>
</trkpt>
<trkpt lat="45.9088320" lon="10.2553550">
	<ele>657.80</ele>
	<time>2025-04-30T06:02:25.000Z</time>
</trkpt>
<trkpt lat="45.9088270" lon="10.2553560">
	<ele>657.80</ele>
	<time>2025-04-30T06:02:26.000Z</time>
</trkpt>
<trkpt lat="45.9088150" lon="10.2553620">
	<ele>658.00</ele>
	<time>2025-04-30T06:02:27.000Z</time>
</trkpt>
<trkpt lat="45.9088030" lon="10.2553630">
	<ele>658.00</ele>
	<time>2025-04-30T06:02:28.000Z</time>
</trkpt>
<trkpt lat="45.9088020" lon="10.2553620">
	<ele>658.00</ele>
	<time>2025-04-30T06:02:29.000Z</time>
</trkpt>
<trkpt lat="45.9088040" lon="10.2553620">
	<ele>658.20</ele>
	<time>2025-04-30T06:02:30.000Z</time>
</trkpt>
<trkpt lat="45.9088010" lon="10.2553620">
	<ele>658.40</ele>
	<time>2025-04-30T06:02:31.000Z</time>
</trkpt>
<trkpt lat="45.9087800" lon="10.2553690">
	<ele>658.40</ele>
	<time>2025-04-30T06:02:32.000Z</time>
</trkpt>
<trkpt lat="45.9087680" lon="10.2553800">
	<ele>658.60</ele>
	<time>2025-04-30T06:02:33.000Z</time>
</trkpt>
<trkpt lat="45.9087560" lon="10.2553880">
	<ele>658.80</ele>
	<time>2025-04-30T06:02:34.000Z</time>
</trkpt>
<trkpt lat="45.9087420" lon="10.2553940">
	<ele>658.80</ele>
	<time>2025-04-30T06:02:35.000Z</time>
</trkpt>
<trkpt lat="45.9087290" lon="10.2554010">
	<ele>659.00</ele>
	<time>2025-04-30T06:02:36.000Z</time>
</trkpt>
<trkpt lat="45.9087130" lon="10.2554080">
	<ele>659.20</ele>
	<time>2025-04-30T06:02:37.000Z</time>
</trkpt>
<trkpt lat="45.9087100" lon="10.2554080">
	<ele>659.40</ele>
	<time>2025-04-30T06:02:38.000Z</time>
</trkpt>
<trkpt lat="45.9086900" lon="10.2554180">
	<ele>659.40</ele>
	<time>2025-04-30T06:02:39.000Z</time>
</trkpt>
<trkpt lat="45.9086610" lon="10.2554270">
	<ele>659.60</ele>
	<time>2025-04-30T06:02:40.000Z</time>
</trkpt>
<trkpt lat="45.9086490" lon="10.2554400">
	<ele>659.80</ele>
	<time>2025-04-30T06:02:41.000Z</time>
</trkpt>
<trkpt lat="45.9086400" lon="10.2554480">
	<ele>659.80</ele>
	<time>2025-04-30T06:02:42.000Z</time>
</trkpt>
<trkpt lat="45.9086250" lon="10.2554580">
	<ele>660.00</ele>
	<time>2025-04-30T06:02:43.000Z</time>
</trkpt>
<trkpt lat="45.9086170" lon="10.2554630">
	<ele>660.20</ele>
	<time>2025-04-30T06:02:44.000Z</time>
</trkpt>
<trkpt lat="45.9086100" lon="10.2554710">
	<ele>660.40</ele>
	<time>2025-04-30T06:02:45.000Z</time>
</trkpt>
<trkpt lat="45.9085990" lon="10.2554740">
	<ele>660.40</ele>
	<time>2025-04-30T06:02:46.000Z</time>
</trkpt>
<trkpt lat="45.9085840" lon="10.2554710">
	<ele>660.40</ele>
	<time>2025-04-30T06:02:47.000Z</time>
</trkpt>
<trkpt lat="45.9085690" lon="10.2554720">
	<ele>660.60</ele>
	<time>2025-04-30T06:02:48.000Z</time>
</trkpt>
<trkpt lat="45.9085560" lon="10.2554740">
	<ele>660.60</ele>
	<time>2025-04-30T06:02:49.000Z</time>
</trkpt>
<trkpt lat="45.9085510" lon="10.2554770">
	<ele>660.80</ele>
	<time>2025-04-30T06:02:50.000Z</time>
</trkpt>
<trkpt lat="45.9085380" lon="10.2554770">
	<ele>661.00</ele>
	<time>2025-04-30T06:02:51.000Z</time>
</trkpt>
<trkpt lat="45.9085220" lon="10.2554770">
	<ele>661.20</ele>
	<time>2025-04-30T06:02:52.000Z</time>
</trkpt>
<trkpt lat="45.9085080" lon="10.2554810">
	<ele>661.60</ele>
	<time>2025-04-30T06:02:53.000Z</time>
</trkpt>
<trkpt lat="45.9085020" lon="10.2554840">
	<ele>661.80</ele>
	<time>2025-04-30T06:02:54.000Z</time>
</trkpt>
<trkpt lat="45.9084990" lon="10.2554860">
	<ele>662.00</ele>
	<time>2025-04-30T06:02:55.000Z</time>
</trkpt>
<trkpt lat="45.9084960" lon="10.2554880">
	<ele>662.20</ele>
	<time>2025-04-30T06:02:56.000Z</time>
</trkpt>
<trkpt lat="45.9084830" lon="10.2554850">
	<ele>662.40</ele>
	<time>2025-04-30T06:02:57.000Z</time>
</trkpt>
<trkpt lat="45.9084690" lon="10.2554910">
	<ele>662.40</ele>
	<time>2025-04-30T06:02:58.000Z</time>
</trkpt>
<trkpt lat="45.9084480" lon="10.2554990">
	<ele>662.80</ele>
	<time>2025-04-30T06:02:59.000Z</time>
</trkpt>
<trkpt lat="45.9084260" lon="10.2554940">
	<ele>663.00</ele>
	<time>2025-04-30T06:03:00.000Z</time>
</trkpt>
<trkpt lat="45.9084240" lon="10.2555000">
	<ele>663.20</ele>
	<time>2025-04-30T06:03:01.000Z</time>
</trkpt>
<trkpt lat="45.9084120" lon="10.2555000">
	<ele>663.40</ele>
	<time>2025-04-30T06:03:02.000Z</time>
</trkpt>
<trkpt lat="45.9084090" lon="10.2555040">
	<ele>663.60</ele>
	<time>2025-04-30T06:03:03.000Z</time>
</trkpt>
<trkpt lat="45.9084020" lon="10.2555110">
	<ele>663.80</ele>
	<time>2025-04-30T06:03:04.000Z</time>
</trkpt>
<trkpt lat="45.9083900" lon="10.2555180">
	<ele>664.00</ele>
	<time>2025-04-30T06:03:05.000Z</time>
</trkpt>
<trkpt lat="45.9083790" lon="10.2555310">
	<ele>664.00</ele>
	<time>2025-04-30T06:03:06.000Z</time>
</trkpt>
<trkpt lat="45.9083790" lon="10.2555360">
	<ele>664.00</ele>
	<time>2025-04-30T06:03:07.000Z</time>
</trkpt>
<trkpt lat="45.9083670" lon="10.2555420">
	<ele>664.20</ele>
	<time>2025-04-30T06:03:08.000Z</time>
</trkpt>
<trkpt lat="45.9083640" lon="10.2555530">
	<ele>664.20</ele>
	<time>2025-04-30T06:03:09.000Z</time>
</trkpt>
<trkpt lat="45.9083560" lon="10.2555660">
	<ele>664.40</ele>
	<time>2025-04-30T06:03:10.000Z</time>
</trkpt>
<trkpt lat="45.9083490" lon="10.2555700">
	<ele>664.80</ele>
	<time>2025-04-30T06:03:11.000Z</time>
</trkpt>
<trkpt lat="45.9083440" lon="10.2555740">
	<ele>665.00</ele>
	<time>2025-04-30T06:03:12.000Z</time>
</trkpt>
<trkpt lat="45.9083350" lon="10.2555710">
	<ele>665.20</ele>
	<time>2025-04-30T06:03:13.000Z</time>
</trkpt>
<trkpt lat="45.9083270" lon="10.2555640">
	<ele>665.40</ele>
	<time>2025-04-30T06:03:14.000Z</time>
</trkpt>
<trkpt lat="45.9083090" lon="10.2555570">
	<ele>665.60</ele>
	<time>2025-04-30T06:03:15.000Z</time>
</trkpt>
<trkpt lat="45.9082960" lon="10.2555560">
	<ele>665.80</ele>
	<time>2025-04-30T06:03:16.000Z</time>
</trkpt>
<trkpt lat="45.9082840" lon="10.2555540">
	<ele>666.00</ele>
	<time>2025-04-30T06:03:17.000Z</time>
</trkpt>
<trkpt lat="45.9082760" lon="10.2555590">
	<ele>666.20</ele>
	<time>2025-04-30T06:03:18.000Z</time>
</trkpt>
<trkpt lat="45.9082720" lon="10.2555600">
	<ele>666.60</ele>
	<time>2025-04-30T06:03:19.000Z</time>
</trkpt>
<trkpt lat="45.9082690" lon="10.2555590">
	<ele>666.80</ele>
	<time>2025-04-30T06:03:20.000Z</time>
</trkpt>
<trkpt lat="45.9082610" lon="10.2555540">
	<ele>667.00</ele>
	<time>2025-04-30T06:03:21.000Z</time>
</trkpt>
<trkpt lat="45.9082500" lon="10.2555520">
	<ele>667.00</ele>
	<time>2025-04-30T06:03:22.000Z</time>
</trkpt>
<trkpt lat="45.9082390" lon="10.2555630">
	<ele>667.20</ele>
	<time>2025-04-30T06:03:23.000Z</time>
</trkpt>
<trkpt lat="45.9082270" lon="10.2555680">
	<ele>667.20</ele>
	<time>2025-04-30T06:03:24.000Z</time>
</trkpt>
<trkpt lat="45.9082200" lon="10.2555720">
	<ele>667.40</ele>
	<time>2025-04-30T06:03:25.000Z</time>
</trkpt>
<trkpt lat="45.9082060" lon="10.2555740">
	<ele>667.60</ele>
	<time>2025-04-30T06:03:26.000Z</time>
</trkpt>
<trkpt lat="45.9081990" lon="10.2555810">
	<ele>667.60</ele>
	<time>2025-04-30T06:03:27.000Z</time>
</trkpt>
<trkpt lat="45.9081930" lon="10.2555770">
	<ele>667.80</ele>
	<time>2025-04-30T06:03:28.000Z</time>
</trkpt>
<trkpt lat="45.9081810" lon="10.2555650">
	<ele>668.00</ele>
	<time>2025-04-30T06:03:29.000Z</time>
</trkpt>
<trkpt lat="45.9081740" lon="10.2555620">
	<ele>668.20</ele>
	<time>2025-04-30T06:03:30.000Z</time>
</trkpt>
<trkpt lat="45.9082100" lon="10.2555660">
	<ele>668.20</ele>
	<time>2025-04-30T06:03:31.000Z</time>
</trkpt>
<trkpt lat="45.9082110" lon="10.2555650">
	<ele>668.60</ele>
	<time>2025-04-30T06:03:32.000Z</time>
</trkpt>
<trkpt lat="45.9081670" lon="10.2555630">
	<ele>669.00</ele>
	<time>2025-04-30T06:03:33.000Z</time>
</trkpt>
<trkpt lat="45.9081560" lon="10.2555580">
	<ele>669.00</ele>
	<time>2025-04-30T06:03:34.000Z</time>
</trkpt>
<trkpt lat="45.9081480" lon="10.2555500">
	<ele>669.20</ele>
	<time>2025-04-30T06:03:35.000Z</time>
</trkpt>
<trkpt lat="45.9081340" lon="10.2555440">
	<ele>669.40</ele>
	<time>2025-04-30T06:03:36.000Z</time>
</trkpt>
<trkpt lat="45.9081230" lon="10.2555480">
	<ele>669.60</ele>
	<time>2025-04-30T06:03:37.000Z</time>
</trkpt>
<trkpt lat="45.9081250" lon="10.2555490">
	<ele>669.80</ele>
	<time>2025-04-30T06:03:38.000Z</time>
</trkpt>
<trkpt lat="45.9081180" lon="10.2555520">
	<ele>670.00</ele>
	<time>2025-04-30T06:03:39.000Z</time>
</trkpt>
<trkpt lat="45.9081130" lon="10.2555550">
	<ele>670.20</ele>
	<time>2025-04-30T06:03:40.000Z</time>
</trkpt>
<trkpt lat="45.9081170" lon="10.2555580">
	<ele>670.20</ele>
	<time>2025-04-30T06:03:41.000Z</time>
</trkpt>
<trkpt lat="45.9081210" lon="10.2555620">
	<ele>670.40</ele>
	<time>2025-04-30T06:03:42.000Z</time>
</trkpt>
<trkpt lat="45.9081270" lon="10.2555620">
	<ele>670.80</ele>
	<time>2025-04-30T06:03:43.000Z</time>
</trkpt>
<trkpt lat="45.9081400" lon="10.2555670">
	<ele>671.00</ele>
	<time>2025-04-30T06:03:44.000Z</time>
</trkpt>
<trkpt lat="45.9081360" lon="10.2555690">
	<ele>671.20</ele>
	<time>2025-04-30T06:03:45.000Z</time>
</trkpt>
<trkpt lat="45.9081320" lon="10.2555650">
	<ele>671.40</ele>
	<time>2025-04-30T06:03:46.000Z</time>
</trkpt>
<trkpt lat="45.9081300" lon="10.2555660">
	<ele>671.60</ele>
	<time>2025-04-30T06:03:47.000Z</time>
</trkpt>
<trkpt lat="45.9081300" lon="10.2555830">
	<ele>671.80</ele>
	<time>2025-04-30T06:03:48.000Z</time>
</trkpt>
<trkpt lat="45.9081190" lon="10.2555950">
	<ele>671.80</ele>
	<time>2025-04-30T06:03:49.000Z</time>
</trkpt>
<trkpt lat="45.9081150" lon="10.2556050">
	<ele>672.00</ele>
	<time>2025-04-30T06:03:50.000Z</time>
</trkpt>
<trkpt lat="45.9081160" lon="10.2556100">
	<ele>672.20</ele>
	<time>2025-04-30T06:03:51.000Z</time>
</trkpt>
<trkpt lat="45.9081170" lon="10.2556090">
	<ele>672.40</ele>
	<time>2025-04-30T06:03:52.000Z</time>
</trkpt>
<trkpt lat="45.9081020" lon="10.2556030">
	<ele>672.40</ele>
	<time>2025-04-30T06:03:53.000Z</time>
</trkpt>
<trkpt lat="45.9080880" lon="10.2556010">
	<ele>672.60</ele>
	<time>2025-04-30T06:03:54.000Z</time>
</trkpt>
<trkpt lat="45.9080900" lon="10.2555840">
	<ele>672.60</ele>
	<time>2025-04-30T06:03:55.000Z</time>
</trkpt>
<trkpt lat="45.9080800" lon="10.2555790">
	<ele>672.80</ele>
	<time>2025-04-30T06:03:56.000Z</time>
</trkpt>
<trkpt lat="45.9080710" lon="10.2555650">
	<ele>673.00</ele>
	<time>2025-04-30T06:03:57.000Z</time>
</trkpt>
<trkpt lat="45.9080560" lon="10.2555610">
	<ele>673.20</ele>
	<time>2025-04-30T06:03:58.000Z</time>
</trkpt>
<trkpt lat="45.9080400" lon="10.2555660">
	<ele>673.40</ele>
	<time>2025-04-30T06:03:59.000Z</time>
</trkpt>
<trkpt lat="45.9080260" lon="10.2555730">
	<ele>673.60</ele>
	<time>2025-04-30T06:04:00.000Z</time>
</trkpt>
<trkpt lat="45.9080210" lon="10.2555770">
	<ele>673.80</ele>
	<time>2025-04-30T06:04:01.000Z</time>
</trkpt>
<trkpt lat="45.9080180" lon="10.2555780">
	<ele>673.80</ele>
	<time>2025-04-30T06:04:02.000Z</time>
</trkpt>
<trkpt lat="45.9080120" lon="10.2555770">
	<ele>673.80</ele>
	<time>2025-04-30T06:04:03.000Z</time>
</trkpt>
<trkpt lat="45.9080100" lon="10.2555730">
	<ele>673.80</ele>
	<time>2025-04-30T06:04:04.000Z</time>
</trkpt>
<trkpt lat="45.9079910" lon="10.2555740">
	<ele>674.00</ele>
	<time>2025-04-30T06:04:05.000Z</time>
</trkpt>
<trkpt lat="45.9079880" lon="10.2555770">
	<ele>674.20</ele>
	<time>2025-04-30T06:04:06.000Z</time>
</trkpt>
<trkpt lat="45.9079770" lon="10.2555790">
	<ele>674.20</ele>
	<time>2025-04-30T06:04:07.000Z</time>
</trkpt>
<trkpt lat="45.9079490" lon="10.2555930">
	<ele>674.40</ele>
	<time>2025-04-30T06:04:08.000Z</time>
</trkpt>
<trkpt lat="45.9079200" lon="10.2556030">
	<ele>674.60</ele>
	<time>2025-04-30T06:04:09.000Z</time>
</trkpt>
<trkpt lat="45.9078910" lon="10.2556050">
	<ele>674.60</ele>
	<time>2025-04-30T06:04:10.000Z</time>
</trkpt>
<trkpt lat="45.9078580" lon="10.2556090">
	<ele>674.80</ele>
	<time>2025-04-30T06:04:11.000Z</time>
</trkpt>
<trkpt lat="45.9078300" lon="10.2556160">
	<ele>675.00</ele>
	<time>2025-04-30T06:04:12.000Z</time>
</trkpt>
<trkpt lat="45.9078110" lon="10.2556270">
	<ele>675.20</ele>
	<time>2025-04-30T06:04:13.000Z</time>
</trkpt>
<trkpt lat="45.9077990" lon="10.2556160">
	<ele>675.40</ele>
	<time>2025-04-30T06:04:14.000Z</time>
</trkpt>
<trkpt lat="45.9077880" lon="10.2556110">
	<ele>675.40</ele>
	<time>2025-04-30T06:04:15.000Z</time>
</trkpt>
<trkpt lat="45.9077690" lon="10.2556080">
	<ele>675.60</ele>
	<time>2025-04-30T06:04:16.000Z</time>
</trkpt>
<trkpt lat="45.9077500" lon="10.2556060">
	<ele>675.80</ele>
	<time>2025-04-30T06:04:17.000Z</time>
</trkpt>
<trkpt lat="45.9077320" lon="10.2556020">
	<ele>676.00</ele>
	<time>2025-04-30T06:04:18.000Z</time>
</trkpt>
<trkpt lat="45.9077400" lon="10.2556310">
	<ele>681.20</ele>
	<time>2025-04-30T06:05:16.000Z</time>
</trkpt>
<trkpt lat="45.9077480" lon="10.2556310">
	<ele>681.20</ele>
	<time>2025-04-30T06:05:17.000Z</time>
</trkpt>
<trkpt lat="45.9077500" lon="10.2556250">
	<ele>681.20</ele>
	<time>2025-04-30T06:05:18.000Z</time>
</trkpt>
<trkpt lat="45.9077600" lon="10.2556200">
	<ele>681.20</ele>
	<time>2025-04-30T06:05:19.000Z</time>
</trkpt>
<trkpt lat="45.9077660" lon="10.2556010">
	<ele>681.20</ele>
	<time>2025-04-30T06:05:20.000Z</time>
</trkpt>
<trkpt lat="45.9077440" lon="10.2555920">
	<ele>681.20</ele>
	<time>2025-04-30T06:05:21.000Z</time>
</trkpt>
<trkpt lat="45.9077440" lon="10.2555910">
	<ele>681.20</ele>
	<time>2025-04-30T06:05:22.000Z</time>
</trkpt>
<trkpt lat="45.9077430" lon="10.2555800">
	<ele>681.20</ele>
	<time>2025-04-30T06:05:23.000Z</time>
</trkpt>
<trkpt lat="45.9077440" lon="10.2555850">
	<ele>681.20</ele>
	<time>2025-04-30T06:05:24.000Z</time>
</trkpt>
<trkpt lat="45.9077460" lon="10.2555990">
	<ele>681.20</ele>
	<time>2025-04-30T06:05:25.000Z</time>
</trkpt>
<trkpt lat="45.9077480" lon="10.2556110">
	<ele>681.20</ele>
	<time>2025-04-30T06:05:26.000Z</time>
</trkpt>
<trkpt lat="45.9077510" lon="10.2556210">
	<ele>681.20</ele>
	<time>2025-04-30T06:05:27.000Z</time>
</trkpt>
<trkpt lat="45.9077550" lon="10.2556340">
	<ele>681.20</ele>
	<time>2025-04-30T06:05:28.000Z</time>
</trkpt>
<trkpt lat="45.9077510" lon="10.2556430">
	<ele>681.00</ele>
	<time>2025-04-30T06:05:29.000Z</time>
</trkpt>
<trkpt lat="45.9077490" lon="10.2556580">
	<ele>681.00</ele>
	<time>2025-04-30T06:05:30.000Z</time>
</trkpt>
<trkpt lat="45.9077440" lon="10.2556930">
	<ele>681.00</ele>
	<time>2025-04-30T06:05:31.000Z</time>
</trkpt>
<trkpt lat="45.9077250" lon="10.2557120">
	<ele>681.00</ele>
	<time>2025-04-30T06:05:32.000Z</time>
</trkpt>
<trkpt lat="45.9076660" lon="10.2556850">
	<ele>681.00</ele>
	<time>2025-04-30T06:05:33.000Z</time>
</trkpt>
<trkpt lat="45.9076770" lon="10.2556790">
	<ele>681.00</ele>
	<time>2025-04-30T06:05:34.000Z</time>
</trkpt>
<trkpt lat="45.9076480" lon="10.2556900">
	<ele>681.00</ele>
	<time>2025-04-30T06:05:35.000Z</time>
</trkpt>
<trkpt lat="45.9076250" lon="10.2557120">
	<ele>680.40</ele>
	<time>2025-04-30T06:06:56.000Z</time>
</trkpt>
<trkpt lat="45.9076150" lon="10.2557150">
	<ele>680.40</ele>
	<time>2025-04-30T06:06:57.000Z</time>
</trkpt>
<trkpt lat="45.9076150" lon="10.2557140">
	<ele>680.40</ele>
	<time>2025-04-30T06:06:58.000Z</time>
</trkpt>
<trkpt lat="45.9075760" lon="10.2557150">
	<ele>680.40</ele>
	<time>2025-04-30T06:06:59.000Z</time>
</trkpt>
<trkpt lat="45.9075120" lon="10.2557050">
	<ele>680.80</ele>
	<time>2025-04-30T06:07:00.000Z</time>
</trkpt>
<trkpt lat="45.9074660" lon="10.2557050">
	<ele>681.00</ele>
	<time>2025-04-30T06:07:01.000Z</time>
</trkpt>
<trkpt lat="45.9074330" lon="10.2557120">
	<ele>681.20</ele>
	<time>2025-04-30T06:07:02.000Z</time>
</trkpt>
<trkpt lat="45.9074230" lon="10.2557240">
	<ele>681.40</ele>
	<time>2025-04-30T06:07:03.000Z</time>
</trkpt>
<trkpt lat="45.9073990" lon="10.2557270">
	<ele>681.40</ele>
	<time>2025-04-30T06:07:04.000Z</time>
</trkpt>
<trkpt lat="45.9073960" lon="10.2557250">
	<ele>681.60</ele>
	<time>2025-04-30T06:07:05.000Z</time>
</trkpt>
<trkpt lat="45.9073910" lon="10.2557270">
	<ele>681.60</ele>
	<time>2025-04-30T06:07:06.000Z</time>
</trkpt>
<trkpt lat="45.9073820" lon="10.2557370">
	<ele>681.60</ele>
	<time>2025-04-30T06:07:07.000Z</time>
</trkpt>
<trkpt lat="45.9073680" lon="10.2557460">
	<ele>681.60</ele>
	<time>2025-04-30T06:07:08.000Z</time>
</trkpt>
<trkpt lat="45.9073600" lon="10.2557560">
	<ele>681.60</ele>
	<time>2025-04-30T06:07:09.000Z</time>
</trkpt>
<trkpt lat="45.9073490" lon="10.2557660">
	<ele>681.80</ele>
	<time>2025-04-30T06:07:10.000Z</time>
</trkpt>
<trkpt lat="45.9073370" lon="10.2557760">
	<ele>681.80</ele>
	<time>2025-04-30T06:07:11.000Z</time>
</trkpt>
<trkpt lat="45.9073210" lon="10.2557860">
	<ele>682.00</ele>
	<time>2025-04-30T06:07:12.000Z</time>
</trkpt>
<trkpt lat="45.9073010" lon="10.2557950">
	<ele>682.00</ele>
	<time>2025-04-30T06:07:13.000Z</time>
</trkpt>
<trkpt lat="45.9072690" lon="10.2558000">
	<ele>682.00</ele>
	<time>2025-04-30T06:07:14.000Z</time>
</trkpt>
<trkpt lat="45.9072350" lon="10.2558010">
	<ele>682.00</ele>
	<time>2025-04-30T06:07:15.000Z</time>
</trkpt>
<trkpt lat="45.9072100" lon="10.2558080">
	<ele>682.20</ele>
	<time>2025-04-30T06:07:16.000Z</time>
</trkpt>
<trkpt lat="45.9071890" lon="10.2558090">
	<ele>682.20</ele>
	<time>2025-04-30T06:07:17.000Z</time>
</trkpt>
<trkpt lat="45.9071750" lon="10.2557980">
	<ele>682.20</ele>
	<time>2025-04-30T06:07:18.000Z</time>
</trkpt>
<trkpt lat="45.9071520" lon="10.2557870">
	<ele>682.20</ele>
	<time>2025-04-30T06:07:19.000Z</time>
</trkpt>
<trkpt lat="45.9071320" lon="10.2557820">
	<ele>682.40</ele>
	<time>2025-04-30T06:07:20.000Z</time>
</trkpt>
<trkpt lat="45.9071050" lon="10.2557760">
	<ele>682.40</ele>
	<time>2025-04-30T06:07:21.000Z</time>
</trkpt>
<trkpt lat="45.9070890" lon="10.2557710">
	<ele>682.60</ele>
	<time>2025-04-30T06:07:22.000Z</time>
</trkpt>
<trkpt lat="45.9070790" lon="10.2557750">
	<ele>682.80</ele>
	<time>2025-04-30T06:07:23.000Z</time>
</trkpt>
<trkpt lat="45.9070670" lon="10.2557840">
	<ele>683.00</ele>
	<time>2025-04-30T06:07:24.000Z</time>
</trkpt>
<trkpt lat="45.9070530" lon="10.2557930">
	<ele>683.20</ele>
	<time>2025-04-30T06:07:25.000Z</time>
</trkpt>
<trkpt lat="45.9070350" lon="10.2558100">
	<ele>683.20</ele>
	<time>2025-04-30T06:07:26.000Z</time>
</trkpt>
<trkpt lat="45.9070220" lon="10.2558300">
	<ele>683.40</ele>
	<time>2025-04-30T06:07:27.000Z</time>
</trkpt>
<trkpt lat="45.9070070" lon="10.2558440">
	<ele>683.60</ele>
	<time>2025-04-30T06:07:28.000Z</time>
</trkpt>
<trkpt lat="45.9069940" lon="10.2558620">
	<ele>683.60</ele>
	<time>2025-04-30T06:07:29.000Z</time>
</trkpt>
<trkpt lat="45.9069830" lon="10.2558650">
	<ele>683.80</ele>
	<time>2025-04-30T06:07:30.000Z</time>
</trkpt>
<trkpt lat="45.9069700" lon="10.2558750">
	<ele>683.80</ele>
	<time>2025-04-30T06:07:31.000Z</time>
</trkpt>
<trkpt lat="45.9069480" lon="10.2558860">
	<ele>683.80</ele>
	<time>2025-04-30T06:07:32.000Z</time>
</trkpt>
<trkpt lat="45.9069380" lon="10.2558860">
	<ele>684.00</ele>
	<time>2025-04-30T06:07:33.000Z</time>
</trkpt>
<trkpt lat="45.9069250" lon="10.2558850">
	<ele>684.00</ele>
	<time>2025-04-30T06:07:34.000Z</time>
</trkpt>
<trkpt lat="45.9069190" lon="10.2558800">
	<ele>684.00</ele>
	<time>2025-04-30T06:07:35.000Z</time>
</trkpt>
<trkpt lat="45.9069170" lon="10.2558840">
	<ele>684.00</ele>
	<time>2025-04-30T06:07:36.000Z</time>
</trkpt>
<trkpt lat="45.9069140" lon="10.2558850">
	<ele>684.00</ele>
	<time>2025-04-30T06:07:37.000Z</time>
</trkpt>
<trkpt lat="45.9069040" lon="10.2558830">
	<ele>684.00</ele>
	<time>2025-04-30T06:07:38.000Z</time>
</trkpt>
<trkpt lat="45.9069000" lon="10.2558840">
	<ele>684.00</ele>
	<time>2025-04-30T06:07:39.000Z</time>
</trkpt>
<trkpt lat="45.9068950" lon="10.2558830">
	<ele>684.00</ele>
	<time>2025-04-30T06:07:40.000Z</time>
</trkpt>
<trkpt lat="45.9068890" lon="10.2558740">
	<ele>684.00</ele>
	<time>2025-04-30T06:07:41.000Z</time>
</trkpt>
<trkpt lat="45.9068780" lon="10.2558710">
	<ele>684.00</ele>
	<time>2025-04-30T06:07:42.000Z</time>
</trkpt>
<trkpt lat="45.9068730" lon="10.2558840">
	<ele>684.20</ele>
	<time>2025-04-30T06:07:43.000Z</time>
</trkpt>
<trkpt lat="45.9068590" lon="10.2559060">
	<ele>684.20</ele>
	<time>2025-04-30T06:07:44.000Z</time>
</trkpt>
<trkpt lat="45.9068410" lon="10.2559170">
	<ele>684.20</ele>
	<time>2025-04-30T06:07:45.000Z</time>
</trkpt>
<trkpt lat="45.9068230" lon="10.2559140">
	<ele>684.20</ele>
	<time>2025-04-30T06:07:46.000Z</time>
</trkpt>
<trkpt lat="45.9068050" lon="10.2559230">
	<ele>684.20</ele>
	<time>2025-04-30T06:07:47.000Z</time>
</trkpt>
<trkpt lat="45.9067830" lon="10.2559250">
	<ele>684.20</ele>
	<time>2025-04-30T06:07:48.000Z</time>
</trkpt>
<trkpt lat="45.9067840" lon="10.2559290">
	<ele>684.20</ele>
	<time>2025-04-30T06:07:49.000Z</time>
</trkpt>
<trkpt lat="45.9067840" lon="10.2559570">
	<ele>684.20</ele>
	<time>2025-04-30T06:07:50.000Z</time>
</trkpt>
<trkpt lat="45.9067690" lon="10.2559840">
	<ele>684.20</ele>
	<time>2025-04-30T06:07:51.000Z</time>
</trkpt>
<trkpt lat="45.9067480" lon="10.2560050">
	<ele>684.20</ele>
	<time>2025-04-30T06:07:52.000Z</time>
</trkpt>
<trkpt lat="45.9067430" lon="10.2560230">
	<ele>684.20</ele>
	<time>2025-04-30T06:07:53.000Z</time>
</trkpt>
<trkpt lat="45.9067390" lon="10.2560270">
	<ele>684.40</ele>
	<time>2025-04-30T06:07:54.000Z</time>
</trkpt>
<trkpt lat="45.9067290" lon="10.2560270">
	<ele>684.40</ele>
	<time>2025-04-30T06:07:55.000Z</time>
</trkpt>
<trkpt lat="45.9067160" lon="10.2560320">
	<ele>684.60</ele>
	<time>2025-04-30T06:07:56.000Z</time>
</trkpt>
<trkpt lat="45.9067060" lon="10.2560370">
	<ele>684.60</ele>
	<time>2025-04-30T06:07:57.000Z</time>
</trkpt>
<trkpt lat="45.9066970" lon="10.2560570">
	<ele>684.60</ele>
	<time>2025-04-30T06:07:58.000Z</time>
</trkpt>
<trkpt lat="45.9066790" lon="10.2560660">
	<ele>684.80</ele>
	<time>2025-04-30T06:07:59.000Z</time>
</trkpt>
<trkpt lat="45.9066600" lon="10.2560760">
	<ele>684.80</ele>
	<time>2025-04-30T06:08:00.000Z</time>
</trkpt>
<trkpt lat="45.9066440" lon="10.2560900">
	<ele>684.80</ele>
	<time>2025-04-30T06:08:01.000Z</time>
</trkpt>
<trkpt lat="45.9066290" lon="10.2560900">
	<ele>685.00</ele>
	<time>2025-04-30T06:08:02.000Z</time>
</trkpt>
<trkpt lat="45.9066150" lon="10.2560940">
	<ele>685.00</ele>
	<time>2025-04-30T06:08:03.000Z</time>
</trkpt>
<trkpt lat="45.9066160" lon="10.2561100">
	<ele>685.20</ele>
	<time>2025-04-30T06:08:04.000Z</time>
</trkpt>
<trkpt lat="45.9066160" lon="10.2561270">
	<ele>685.20</ele>
	<time>2025-04-30T06:08:05.000Z</time>
</trkpt>
<trkpt lat="45.9066010" lon="10.2561460">
	<ele>685.20</ele>
	<time>2025-04-30T06:08:06.000Z</time>
</trkpt>
<trkpt lat="45.9065940" lon="10.2561640">
	<ele>685.20</ele>
	<time>2025-04-30T06:08:07.000Z</time>
</trkpt>
<trkpt lat="45.9065850" lon="10.2561770">
	<ele>685.40</ele>
	<time>2025-04-30T06:08:08.000Z</time>
</trkpt>
<trkpt lat="45.9065770" lon="10.2561860">
	<ele>685.40</ele>
	<time>2025-04-30T06:08:09.000Z</time>
</trkpt>
<trkpt lat="45.9065670" lon="10.2561990">
	<ele>685.40</ele>
	<time>2025-04-30T06:08:10.000Z</time>
</trkpt>
<trkpt lat="45.9065730" lon="10.2562090">
	<ele>685.40</ele>
	<time>2025-04-30T06:08:11.000Z</time>
</trkpt>
<trkpt lat="45.9065750" lon="10.2562190">
	<ele>685.40</ele>
	<time>2025-04-30T06:08:12.000Z</time>
</trkpt>
<trkpt lat="45.9065580" lon="10.2562350">
	<ele>685.40</ele>
	<time>2025-04-30T06:08:13.000Z</time>
</trkpt>
<trkpt lat="45.9065480" lon="10.2562500">
	<ele>685.40</ele>
	<time>2025-04-30T06:08:14.000Z</time>
</trkpt>
<trkpt lat="45.9065460" lon="10.2562500">
	<ele>685.60</ele>
	<time>2025-04-30T06:08:15.000Z</time>
</trkpt>
<trkpt lat="45.9065460" lon="10.2562520">
	<ele>685.60</ele>
	<time>2025-04-30T06:08:16.000Z</time>
</trkpt>
<trkpt lat="45.9065460" lon="10.2562520">
	<ele>685.60</ele>
	<time>2025-04-30T06:08:17.000Z</time>
</trkpt>
<trkpt lat="45.9065520" lon="10.2562470">
	<ele>685.80</ele>
	<time>2025-04-30T06:08:18.000Z</time>
</trkpt>
<trkpt lat="45.9065600" lon="10.2562430">
	<ele>686.00</ele>
	<time>2025-04-30T06:08:19.000Z</time>
</trkpt>
<trkpt lat="45.9065630" lon="10.2562400">
	<ele>686.00</ele>
	<time>2025-04-30T06:08:20.000Z</time>
</trkpt>
<trkpt lat="45.9065720" lon="10.2562340">
	<ele>686.20</ele>
	<time>2025-04-30T06:08:21.000Z</time>
</trkpt>
<trkpt lat="45.9065670" lon="10.2562450">
	<ele>686.20</ele>
	<time>2025-04-30T06:08:22.000Z</time>
</trkpt>
<trkpt lat="45.9065580" lon="10.2562510">
	<ele>686.00</ele>
	<time>2025-04-30T06:08:23.000Z</time>
</trkpt>
<trkpt lat="45.9065500" lon="10.2562570">
	<ele>685.80</ele>
	<time>2025-04-30T06:08:24.000Z</time>
</trkpt>
<trkpt lat="45.9065380" lon="10.2562660">
	<ele>685.80</ele>
	<time>2025-04-30T06:08:25.000Z</time>
</trkpt>
<trkpt lat="45.9065250" lon="10.2562740">
	<ele>685.80</ele>
	<time>2025-04-30T06:08:26.000Z</time>
</trkpt>
<trkpt lat="45.9064970" lon="10.2562840">
	<ele>685.80</ele>
	<time>2025-04-30T06:08:27.000Z</time>
</trkpt>
<trkpt lat="45.9065030" lon="10.2562960">
	<ele>685.80</ele>
	<time>2025-04-30T06:08:28.000Z</time>
</trkpt>
<trkpt lat="45.9064820" lon="10.2563070">
	<ele>685.80</ele>
	<time>2025-04-30T06:08:29.000Z</time>
</trkpt>
<trkpt lat="45.9064640" lon="10.2562970">
	<ele>685.80</ele>
	<time>2025-04-30T06:08:30.000Z</time>
</trkpt>
<trkpt lat="45.9064280" lon="10.2563030">
	<ele>685.80</ele>
	<time>2025-04-30T06:08:31.000Z</time>
</trkpt>
<trkpt lat="45.9063870" lon="10.2563110">
	<ele>685.80</ele>
	<time>2025-04-30T06:08:32.000Z</time>
</trkpt>
<trkpt lat="45.9064350" lon="10.2563080">
	<ele>685.80</ele>
	<time>2025-04-30T06:08:33.000Z</time>
</trkpt>
<trkpt lat="45.9064340" lon="10.2562950">
	<ele>685.80</ele>
	<time>2025-04-30T06:08:34.000Z</time>
</trkpt>
<trkpt lat="45.9064340" lon="10.2562840">
	<ele>686.00</ele>
	<time>2025-04-30T06:08:35.000Z</time>
</trkpt>
<trkpt lat="45.9064310" lon="10.2562740">
	<ele>686.00</ele>
	<time>2025-04-30T06:08:36.000Z</time>
</trkpt>
<trkpt lat="45.9064220" lon="10.2562620">
	<ele>686.00</ele>
	<time>2025-04-30T06:08:37.000Z</time>
</trkpt>
<trkpt lat="45.9064140" lon="10.2562530">
	<ele>686.00</ele>
	<time>2025-04-30T06:08:38.000Z</time>
</trkpt>
<trkpt lat="45.9063910" lon="10.2562650">
	<ele>686.00</ele>
	<time>2025-04-30T06:08:39.000Z</time>
</trkpt>
<trkpt lat="45.9063750" lon="10.2562900">
	<ele>686.20</ele>
	<time>2025-04-30T06:08:40.000Z</time>
</trkpt>
<trkpt lat="45.9063490" lon="10.2563180">
	<ele>686.20</ele>
	<time>2025-04-30T06:08:41.000Z</time>
</trkpt>
<trkpt lat="45.9063320" lon="10.2563460">
	<ele>686.20</ele>
	<time>2025-04-30T06:08:42.000Z</time>
</trkpt>
<trkpt lat="45.9063140" lon="10.2563680">
	<ele>686.20</ele>
	<time>2025-04-30T06:08:43.000Z</time>
</trkpt>
<trkpt lat="45.9063040" lon="10.2563840">
	<ele>686.20</ele>
	<time>2025-04-30T06:08:44.000Z</time>
</trkpt>
<trkpt lat="45.9063250" lon="10.2563890">
	<ele>686.20</ele>
	<time>2025-04-30T06:08:45.000Z</time>
</trkpt>
<trkpt lat="45.9063360" lon="10.2563890">
	<ele>686.40</ele>
	<time>2025-04-30T06:08:46.000Z</time>
</trkpt>
<trkpt lat="45.9063410" lon="10.2564260">
	<ele>686.60</ele>
	<time>2025-04-30T06:08:47.000Z</time>
</trkpt>
<trkpt lat="45.9063290" lon="10.2564800">
	<ele>686.80</ele>
	<time>2025-04-30T06:08:48.000Z</time>
</trkpt>
<trkpt lat="45.9063170" lon="10.2565260">
	<ele>686.80</ele>
	<time>2025-04-30T06:08:49.000Z</time>
</trkpt>
<trkpt lat="45.9062410" lon="10.2565780">
	<ele>687.00</ele>
	<time>2025-04-30T06:08:50.000Z</time>
</trkpt>
<trkpt lat="45.9062150" lon="10.2565540">
	<ele>687.00</ele>
	<time>2025-04-30T06:08:51.000Z</time>
</trkpt>
<trkpt lat="45.9061720" lon="10.2565410">
	<ele>687.00</ele>
	<time>2025-04-30T06:08:52.000Z</time>
</trkpt>
<trkpt lat="45.9061520" lon="10.2565330">
	<ele>687.00</ele>
	<time>2025-04-30T06:08:53.000Z</time>
</trkpt>
<trkpt lat="45.9061040" lon="10.2565320">
	<ele>687.20</ele>
	<time>2025-04-30T06:08:54.000Z</time>
</trkpt>
<trkpt lat="45.9060750" lon="10.2565460">
	<ele>687.40</ele>
	<time>2025-04-30T06:08:55.000Z</time>
</trkpt>
<trkpt lat="45.9060500" lon="10.2565540">
	<ele>687.60</ele>
	<time>2025-04-30T06:08:56.000Z</time>
</trkpt>
<trkpt lat="45.9060280" lon="10.2565630">
	<ele>687.80</ele>
	<time>2025-04-30T06:08:57.000Z</time>
</trkpt>
<trkpt lat="45.9060040" lon="10.2565730">
	<ele>687.80</ele>
	<time>2025-04-30T06:08:58.000Z</time>
</trkpt>
<trkpt lat="45.9059870" lon="10.2565840">
	<ele>688.00</ele>
	<time>2025-04-30T06:08:59.000Z</time>
</trkpt>
<trkpt lat="45.9059770" lon="10.2565910">
	<ele>688.00</ele>
	<time>2025-04-30T06:09:00.000Z</time>
</trkpt>
<trkpt lat="45.9059610" lon="10.2566060">
	<ele>688.20</ele>
	<time>2025-04-30T06:09:01.000Z</time>
</trkpt>
<trkpt lat="45.9059520" lon="10.2566120">
	<ele>688.20</ele>
	<time>2025-04-30T06:09:02.000Z</time>
</trkpt>
<trkpt lat="45.9059410" lon="10.2566260">
	<ele>688.40</ele>
	<time>2025-04-30T06:09:03.000Z</time>
</trkpt>
<trkpt lat="45.9059260" lon="10.2566420">
	<ele>688.60</ele>
	<time>2025-04-30T06:09:04.000Z</time>
</trkpt>
<trkpt lat="45.9059080" lon="10.2566500">
	<ele>688.80</ele>
	<time>2025-04-30T06:09:05.000Z</time>
</trkpt>
<trkpt lat="45.9058950" lon="10.2566530">
	<ele>689.00</ele>
	<time>2025-04-30T06:09:06.000Z</time>
</trkpt>
<trkpt lat="45.9058810" lon="10.2566440">
	<ele>689.20</ele>
	<time>2025-04-30T06:09:07.000Z</time>
</trkpt>
<trkpt lat="45.9058670" lon="10.2566350">
	<ele>689.40</ele>
	<time>2025-04-30T06:09:08.000Z</time>
</trkpt>
<trkpt lat="45.9058580" lon="10.2566310">
	<ele>689.40</ele>
	<time>2025-04-30T06:09:09.000Z</time>
</trkpt>
<trkpt lat="45.9058440" lon="10.2566270">
	<ele>689.80</ele>
	<time>2025-04-30T06:09:10.000Z</time>
</trkpt>
<trkpt lat="45.9058250" lon="10.2566320">
	<ele>690.00</ele>
	<time>2025-04-30T06:09:11.000Z</time>
</trkpt>
<trkpt lat="45.9058120" lon="10.2566320">
	<ele>690.20</ele>
	<time>2025-04-30T06:09:12.000Z</time>
</trkpt>
<trkpt lat="45.9058020" lon="10.2566350">
	<ele>690.40</ele>
	<time>2025-04-30T06:09:13.000Z</time>
</trkpt>
<trkpt lat="45.9057980" lon="10.2566390">
	<ele>690.60</ele>
	<time>2025-04-30T06:09:14.000Z</time>
</trkpt>
<trkpt lat="45.9057810" lon="10.2566350">
	<ele>690.80</ele>
	<time>2025-04-30T06:09:15.000Z</time>
</trkpt>
<trkpt lat="45.9057580" lon="10.2566400">
	<ele>690.80</ele>
	<time>2025-04-30T06:09:16.000Z</time>
</trkpt>
<trkpt lat="45.9057340" lon="10.2566360">
	<ele>690.80</ele>
	<time>2025-04-30T06:09:17.000Z</time>
</trkpt>
<trkpt lat="45.9057090" lon="10.2566360">
	<ele>691.00</ele>
	<time>2025-04-30T06:09:18.000Z</time>
</trkpt>
<trkpt lat="45.9057040" lon="10.2566350">
	<ele>691.20</ele>
	<time>2025-04-30T06:09:19.000Z</time>
</trkpt>
<trkpt lat="45.9056940" lon="10.2566250">
	<ele>691.20</ele>
	<time>2025-04-30T06:09:20.000Z</time>
</trkpt>
<trkpt lat="45.9056830" lon="10.2566090">
	<ele>691.40</ele>
	<time>2025-04-30T06:09:21.000Z</time>
</trkpt>
<trkpt lat="45.9056630" lon="10.2566030">
	<ele>691.40</ele>
	<time>2025-04-30T06:09:22.000Z</time>
</trkpt>
<trkpt lat="45.9056490" lon="10.2566040">
	<ele>691.60</ele>
	<time>2025-04-30T06:09:23.000Z</time>
</trkpt>
<trkpt lat="45.9056370" lon="10.2565980">
	<ele>691.80</ele>
	<time>2025-04-30T06:09:24.000Z</time>
</trkpt>
<trkpt lat="45.9056280" lon="10.2565900">
	<ele>692.00</ele>
	<time>2025-04-30T06:09:25.000Z</time>
</trkpt>
<trkpt lat="45.9056180" lon="10.2565840">
	<ele>692.20</ele>
	<time>2025-04-30T06:09:26.000Z</time>
</trkpt>
<trkpt lat="45.9056050" lon="10.2565860">
	<ele>692.40</ele>
	<time>2025-04-30T06:09:27.000Z</time>
</trkpt>
<trkpt lat="45.9056020" lon="10.2565780">
	<ele>692.60</ele>
	<time>2025-04-30T06:09:28.000Z</time>
</trkpt>
<trkpt lat="45.9055910" lon="10.2565690">
	<ele>692.60</ele>
	<time>2025-04-30T06:09:29.000Z</time>
</trkpt>
<trkpt lat="45.9055820" lon="10.2565660">
	<ele>692.80</ele>
	<time>2025-04-30T06:09:30.000Z</time>
</trkpt>
<trkpt lat="45.9055650" lon="10.2565740">
	<ele>693.00</ele>
	<time>2025-04-30T06:09:31.000Z</time>
</trkpt>
<trkpt lat="45.9055650" lon="10.2565720">
	<ele>693.20</ele>
	<time>2025-04-30T06:09:32.000Z</time>
</trkpt>
<trkpt lat="45.9055600" lon="10.2565680">
	<ele>693.40</ele>
	<time>2025-04-30T06:09:33.000Z</time>
</trkpt>
<trkpt lat="45.9055550" lon="10.2565660">
	<ele>693.80</ele>
	<time>2025-04-30T06:09:34.000Z</time>
</trkpt>
<trkpt lat="45.9055530" lon="10.2565670">
	<ele>694.00</ele>
	<time>2025-04-30T06:09:35.000Z</time>
</trkpt>
<trkpt lat="45.9055470" lon="10.2565670">
	<ele>694.00</ele>
	<time>2025-04-30T06:09:36.000Z</time>
</trkpt>
<trkpt lat="45.9055400" lon="10.2565670">
	<ele>694.20</ele>
	<time>2025-04-30T06:09:37.000Z</time>
</trkpt>
<trkpt lat="45.9055430" lon="10.2565640">
	<ele>694.20</ele>
	<time>2025-04-30T06:09:38.000Z</time>
</trkpt>
<trkpt lat="45.9055430" lon="10.2565650">
	<ele>694.60</ele>
	<time>2025-04-30T06:09:39.000Z</time>
</trkpt>
<trkpt lat="45.9055280" lon="10.2565780">
	<ele>694.80</ele>
	<time>2025-04-30T06:09:40.000Z</time>
</trkpt>
<trkpt lat="45.9055180" lon="10.2565940">
	<ele>695.00</ele>
	<time>2025-04-30T06:09:41.000Z</time>
</trkpt>
<trkpt lat="45.9055090" lon="10.2566020">
	<ele>695.20</ele>
	<time>2025-04-30T06:09:42.000Z</time>
</trkpt>
<trkpt lat="45.9055010" lon="10.2566040">
	<ele>695.40</ele>
	<time>2025-04-30T06:09:43.000Z</time>
</trkpt>
<trkpt lat="45.9055060" lon="10.2565860">
	<ele>695.60</ele>
	<time>2025-04-30T06:09:44.000Z</time>
</trkpt>
<trkpt lat="45.9054970" lon="10.2565720">
	<ele>695.60</ele>
	<time>2025-04-30T06:09:45.000Z</time>
</trkpt>
<trkpt lat="45.9054790" lon="10.2565770">
	<ele>695.80</ele>
	<time>2025-04-30T06:09:46.000Z</time>
</trkpt>
<trkpt lat="45.9054620" lon="10.2565740">
	<ele>696.00</ele>
	<time>2025-04-30T06:09:47.000Z</time>
</trkpt>
<trkpt lat="45.9054500" lon="10.2565650">
	<ele>696.00</ele>
	<time>2025-04-30T06:09:48.000Z</time>
</trkpt>
<trkpt lat="45.9054300" lon="10.2565670">
	<ele>696.20</ele>
	<time>2025-04-30T06:09:49.000Z</time>
</trkpt>
<trkpt lat="45.9054180" lon="10.2565720">
	<ele>696.40</ele>
	<time>2025-04-30T06:09:50.000Z</time>
</trkpt>
<trkpt lat="45.9054110" lon="10.2565770">
	<ele>696.60</ele>
	<time>2025-04-30T06:09:51.000Z</time>
</trkpt>
<trkpt lat="45.9054110" lon="10.2565780">
	<ele>696.80</ele>
	<time>2025-04-30T06:09:52.000Z</time>
</trkpt>
<trkpt lat="45.9054080" lon="10.2565750">
	<ele>697.00</ele>
	<time>2025-04-30T06:09:53.000Z</time>
</trkpt>
<trkpt lat="45.9054010" lon="10.2565730">
	<ele>697.40</ele>
	<time>2025-04-30T06:09:54.000Z</time>
</trkpt>
<trkpt lat="45.9053580" lon="10.2565710">
	<ele>697.60</ele>
	<time>2025-04-30T06:09:55.000Z</time>
</trkpt>
<trkpt lat="45.9053270" lon="10.2565650">
	<ele>697.60</ele>
	<time>2025-04-30T06:09:56.000Z</time>
</trkpt>
<trkpt lat="45.9053030" lon="10.2565610">
	<ele>698.00</ele>
	<time>2025-04-30T06:09:57.000Z</time>
</trkpt>
<trkpt lat="45.9052850" lon="10.2565600">
	<ele>698.40</ele>
	<time>2025-04-30T06:09:58.000Z</time>
</trkpt>
<trkpt lat="45.9052660" lon="10.2565610">
	<ele>698.40</ele>
	<time>2025-04-30T06:09:59.000Z</time>
</trkpt>
<trkpt lat="45.9052560" lon="10.2565610">
	<ele>698.60</ele>
	<time>2025-04-30T06:10:00.000Z</time>
</trkpt>
<trkpt lat="45.9052390" lon="10.2565610">
	<ele>698.80</ele>
	<time>2025-04-30T06:10:01.000Z</time>
</trkpt>
<trkpt lat="45.9052300" lon="10.2565740">
	<ele>699.00</ele>
	<time>2025-04-30T06:10:02.000Z</time>
</trkpt>
<trkpt lat="45.9052390" lon="10.2565690">
	<ele>699.20</ele>
	<time>2025-04-30T06:10:03.000Z</time>
</trkpt>
<trkpt lat="45.9052320" lon="10.2565720">
	<ele>699.60</ele>
	<time>2025-04-30T06:10:04.000Z</time>
</trkpt>
<trkpt lat="45.9052170" lon="10.2565850">
	<ele>700.00</ele>
	<time>2025-04-30T06:10:05.000Z</time>
</trkpt>
<trkpt lat="45.9052250" lon="10.2565760">
	<ele>700.00</ele>
	<time>2025-04-30T06:10:06.000Z</time>
</trkpt>
<trkpt lat="45.9052190" lon="10.2565710">
	<ele>700.20</ele>
	<time>2025-04-30T06:10:07.000Z</time>
</trkpt>
<trkpt lat="45.9052030" lon="10.2565720">
	<ele>700.40</ele>
	<time>2025-04-30T06:10:08.000Z</time>
</trkpt>
<trkpt lat="45.9052010" lon="10.2565690">
	<ele>700.60</ele>
	<time>2025-04-30T06:10:09.000Z</time>
</trkpt>
<trkpt lat="45.9051970" lon="10.2565640">
	<ele>700.80</ele>
	<time>2025-04-30T06:10:10.000Z</time>
</trkpt>
<trkpt lat="45.9051940" lon="10.2565620">
	<ele>701.00</ele>
	<time>2025-04-30T06:10:11.000Z</time>
</trkpt>
<trkpt lat="45.9051840" lon="10.2565770">
	<ele>701.00</ele>
	<time>2025-04-30T06:10:12.000Z</time>
</trkpt>
<trkpt lat="45.9051960" lon="10.2565820">
	<ele>701.20</ele>
	<time>2025-04-30T06:10:13.000Z</time>
</trkpt>
<trkpt lat="45.9051960" lon="10.2565880">
	<ele>701.60</ele>
	<time>2025-04-30T06:10:14.000Z</time>
</trkpt>
<trkpt lat="45.9052010" lon="10.2565890">
	<ele>701.60</ele>
	<time>2025-04-30T06:10:15.000Z</time>
</trkpt>
<trkpt lat="45.9051970" lon="10.2565900">
	<ele>701.80</ele>
	<time>2025-04-30T06:10:16.000Z</time>
</trkpt>
<trkpt lat="45.9051550" lon="10.2565870">
	<ele>702.00</ele>
	<time>2025-04-30T06:10:17.000Z</time>
</trkpt>
<trkpt lat="45.9051450" lon="10.2565850">
	<ele>702.20</ele>
	<time>2025-04-30T06:10:18.000Z</time>
</trkpt>
<trkpt lat="45.9051240" lon="10.2566060">
	<ele>702.20</ele>
	<time>2025-04-30T06:10:19.000Z</time>
</trkpt>
<trkpt lat="45.9051020" lon="10.2566160">
	<ele>702.20</ele>
	<time>2025-04-30T06:10:20.000Z</time>
</trkpt>
<trkpt lat="45.9050810" lon="10.2566290">
	<ele>702.40</ele>
	<time>2025-04-30T06:10:21.000Z</time>
</trkpt>
<trkpt lat="45.9050690" lon="10.2566280">
	<ele>702.80</ele>
	<time>2025-04-30T06:10:22.000Z</time>
</trkpt>
<trkpt lat="45.9050690" lon="10.2566230">
	<ele>703.00</ele>
	<time>2025-04-30T06:10:23.000Z</time>
</trkpt>
<trkpt lat="45.9050620" lon="10.2566280">
	<ele>703.40</ele>
	<time>2025-04-30T06:10:24.000Z</time>
</trkpt>
<trkpt lat="45.9050580" lon="10.2566230">
	<ele>703.40</ele>
	<time>2025-04-30T06:10:25.000Z</time>
</trkpt>
<trkpt lat="45.9050510" lon="10.2566230">
	<ele>703.60</ele>
	<time>2025-04-30T06:10:26.000Z</time>
</trkpt>
<trkpt lat="45.9050410" lon="10.2566240">
	<ele>703.80</ele>
	<time>2025-04-30T06:10:27.000Z</time>
</trkpt>
<trkpt lat="45.9050340" lon="10.2566210">
	<ele>703.80</ele>
	<time>2025-04-30T06:10:28.000Z</time>
</trkpt>
<trkpt lat="45.9050310" lon="10.2566160">
	<ele>704.00</ele>
	<time>2025-04-30T06:10:29.000Z</time>
</trkpt>
<trkpt lat="45.9050300" lon="10.2566070">
	<ele>704.20</ele>
	<time>2025-04-30T06:10:30.000Z</time>
</trkpt>
<trkpt lat="45.9050220" lon="10.2566070">
	<ele>704.40</ele>
	<time>2025-04-30T06:10:31.000Z</time>
</trkpt>
<trkpt lat="45.9050170" lon="10.2565980">
	<ele>704.40</ele>
	<time>2025-04-30T06:10:32.000Z</time>
</trkpt>
<trkpt lat="45.9050030" lon="10.2565980">
	<ele>704.60</ele>
	<time>2025-04-30T06:10:33.000Z</time>
</trkpt>
<trkpt lat="45.9049960" lon="10.2565960">
	<ele>704.80</ele>
	<time>2025-04-30T06:10:34.000Z</time>
</trkpt>
<trkpt lat="45.9049900" lon="10.2565920">
	<ele>705.20</ele>
	<time>2025-04-30T06:10:35.000Z</time>
</trkpt>
<trkpt lat="45.9049860" lon="10.2565830">
	<ele>705.40</ele>
	<time>2025-04-30T06:10:36.000Z</time>
</trkpt>
<trkpt lat="45.9049810" lon="10.2565770">
	<ele>705.60</ele>
	<time>2025-04-30T06:10:37.000Z</time>
</trkpt>
<trkpt lat="45.9049820" lon="10.2565640">
	<ele>705.80</ele>
	<time>2025-04-30T06:10:38.000Z</time>
</trkpt>
<trkpt lat="45.9049750" lon="10.2565630">
	<ele>706.00</ele>
	<time>2025-04-30T06:10:39.000Z</time>
</trkpt>
<trkpt lat="45.9049790" lon="10.2565500">
	<ele>706.00</ele>
	<time>2025-04-30T06:10:40.000Z</time>
</trkpt>
<trkpt lat="45.9049790" lon="10.2565390">
	<ele>706.20</ele>
	<time>2025-04-30T06:10:41.000Z</time>
</trkpt>
<trkpt lat="45.9049790" lon="10.2565310">
	<ele>706.40</ele>
	<time>2025-04-30T06:10:42.000Z</time>
</trkpt>
<trkpt lat="45.9049740" lon="10.2565290">
	<ele>706.60</ele>
	<time>2025-04-30T06:10:43.000Z</time>
</trkpt>
<trkpt lat="45.9049600" lon="10.2565420">
	<ele>706.80</ele>
	<time>2025-04-30T06:10:44.000Z</time>
</trkpt>
<trkpt lat="45.9049480" lon="10.2565560">
	<ele>707.00</ele>
	<time>2025-04-30T06:10:45.000Z</time>
</trkpt>
<trkpt lat="45.9049400" lon="10.2565620">
	<ele>707.20</ele>
	<time>2025-04-30T06:10:46.000Z</time>
</trkpt>
<trkpt lat="45.9049290" lon="10.2565720">
	<ele>707.20</ele>
	<time>2025-04-30T06:10:47.000Z</time>
</trkpt>
<trkpt lat="45.9049230" lon="10.2565700">
	<ele>707.40</ele>
	<time>2025-04-30T06:10:48.000Z</time>
</trkpt>
<trkpt lat="45.9049170" lon="10.2565560">
	<ele>707.40</ele>
	<time>2025-04-30T06:10:49.000Z</time>
</trkpt>
<trkpt lat="45.9049120" lon="10.2565420">
	<ele>707.60</ele>
	<time>2025-04-30T06:10:50.000Z</time>
</trkpt>
<trkpt lat="45.9049100" lon="10.2565250">
	<ele>707.60</ele>
	<time>2025-04-30T06:10:51.000Z</time>
</trkpt>
<trkpt lat="45.9049060" lon="10.2565190">
	<ele>707.60</ele>
	<time>2025-04-30T06:10:52.000Z</time>
</trkpt>
<trkpt lat="45.9048990" lon="10.2565160">
	<ele>707.80</ele>
	<time>2025-04-30T06:10:53.000Z</time>
</trkpt>
<trkpt lat="45.9048920" lon="10.2565080">
	<ele>708.00</ele>
	<time>2025-04-30T06:10:54.000Z</time>
</trkpt>
<trkpt lat="45.9048860" lon="10.2565000">
	<ele>708.00</ele>
	<time>2025-04-30T06:10:55.000Z</time>
</trkpt>
<trkpt lat="45.9048770" lon="10.2565010">
	<ele>708.00</ele>
	<time>2025-04-30T06:10:56.000Z</time>
</trkpt>
<trkpt lat="45.9048660" lon="10.2564980">
	<ele>708.20</ele>
	<time>2025-04-30T06:10:57.000Z</time>
</trkpt>
<trkpt lat="45.9048610" lon="10.2564910">
	<ele>708.40</ele>
	<time>2025-04-30T06:10:58.000Z</time>
</trkpt>
<trkpt lat="45.9048540" lon="10.2564850">
	<ele>708.60</ele>
	<time>2025-04-30T06:10:59.000Z</time>
</trkpt>
<trkpt lat="45.9048460" lon="10.2564800">
	<ele>708.80</ele>
	<time>2025-04-30T06:11:00.000Z</time>
</trkpt>
<trkpt lat="45.9048410" lon="10.2564780">
	<ele>708.80</ele>
	<time>2025-04-30T06:11:01.000Z</time>
</trkpt>
<trkpt lat="45.9048360" lon="10.2564760">
	<ele>709.00</ele>
	<time>2025-04-30T06:11:02.000Z</time>
</trkpt>
<trkpt lat="45.9048350" lon="10.2564720">
	<ele>709.00</ele>
	<time>2025-04-30T06:11:03.000Z</time>
</trkpt>
<trkpt lat="45.9048370" lon="10.2564590">
	<ele>709.20</ele>
	<time>2025-04-30T06:11:04.000Z</time>
</trkpt>
<trkpt lat="45.9048440" lon="10.2564410">
	<ele>709.20</ele>
	<time>2025-04-30T06:11:05.000Z</time>
</trkpt>
<trkpt lat="45.9048460" lon="10.2564340">
	<ele>709.40</ele>
	<time>2025-04-30T06:11:06.000Z</time>
</trkpt>
<trkpt lat="45.9048410" lon="10.2564330">
	<ele>709.60</ele>
	<time>2025-04-30T06:11:07.000Z</time>
</trkpt>
<trkpt lat="45.9048410" lon="10.2564300">
	<ele>709.60</ele>
	<time>2025-04-30T06:11:08.000Z</time>
</trkpt>
<trkpt lat="45.9048400" lon="10.2564260">
	<ele>709.60</ele>
	<time>2025-04-30T06:11:09.000Z</time>
</trkpt>
<trkpt lat="45.9048440" lon="10.2564170">
	<ele>709.80</ele>
	<time>2025-04-30T06:11:10.000Z</time>
</trkpt>
<trkpt lat="45.9048420" lon="10.2564080">
	<ele>709.80</ele>
	<time>2025-04-30T06:11:11.000Z</time>
</trkpt>
<trkpt lat="45.9048380" lon="10.2563990">
	<ele>709.60</ele>
	<time>2025-04-30T06:11:12.000Z</time>
</trkpt>
<trkpt lat="45.9048360" lon="10.2563910">
	<ele>709.60</ele>
	<time>2025-04-30T06:11:13.000Z</time>
</trkpt>
<trkpt lat="45.9048330" lon="10.2563840">
	<ele>709.60</ele>
	<time>2025-04-30T06:11:14.000Z</time>
</trkpt>
<trkpt lat="45.9048330" lon="10.2563900">
	<ele>709.60</ele>
	<time>2025-04-30T06:11:15.000Z</time>
</trkpt>
<trkpt lat="45.9048310" lon="10.2563850">
	<ele>709.60</ele>
	<time>2025-04-30T06:11:16.000Z</time>
</trkpt>
<trkpt lat="45.9048310" lon="10.2563740">
	<ele>709.60</ele>
	<time>2025-04-30T06:11:17.000Z</time>
</trkpt>
<trkpt lat="45.9048220" lon="10.2563770">
	<ele>709.80</ele>
	<time>2025-04-30T06:11:18.000Z</time>
</trkpt>
<trkpt lat="45.9048130" lon="10.2563730">
	<ele>709.80</ele>
	<time>2025-04-30T06:11:19.000Z</time>
</trkpt>
<trkpt lat="45.9048070" lon="10.2563740">
	<ele>710.00</ele>
	<time>2025-04-30T06:11:20.000Z</time>
</trkpt>
<trkpt lat="45.9048000" lon="10.2563730">
	<ele>710.20</ele>
	<time>2025-04-30T06:11:21.000Z</time>
</trkpt>
<trkpt lat="45.9047930" lon="10.2563680">
	<ele>710.40</ele>
	<time>2025-04-30T06:11:22.000Z</time>
</trkpt>
<trkpt lat="45.9047880" lon="10.2563730">
	<ele>710.80</ele>
	<time>2025-04-30T06:11:23.000Z</time>
</trkpt>
<trkpt lat="45.9047760" lon="10.2563880">
	<ele>711.00</ele>
	<time>2025-04-30T06:11:24.000Z</time>
</trkpt>
<trkpt lat="45.9047650" lon="10.2564020">
	<ele>711.20</ele>
	<time>2025-04-30T06:11:25.000Z</time>
</trkpt>
<trkpt lat="45.9047540" lon="10.2564130">
	<ele>711.40</ele>
	<time>2025-04-30T06:11:26.000Z</time>
</trkpt>
<trkpt lat="45.9047480" lon="10.2564140">
	<ele>711.60</ele>
	<time>2025-04-30T06:11:27.000Z</time>
</trkpt>
<trkpt lat="45.9047450" lon="10.2564030">
	<ele>711.80</ele>
	<time>2025-04-30T06:11:28.000Z</time>
</trkpt>
<trkpt lat="45.9047430" lon="10.2563920">
	<ele>712.00</ele>
	<time>2025-04-30T06:11:29.000Z</time>
</trkpt>
<trkpt lat="45.9047450" lon="10.2563750">
	<ele>712.40</ele>
	<time>2025-04-30T06:11:30.000Z</time>
</trkpt>
<trkpt lat="45.9047430" lon="10.2563570">
	<ele>712.60</ele>
	<time>2025-04-30T06:11:31.000Z</time>
</trkpt>
<trkpt lat="45.9047350" lon="10.2563420">
	<ele>713.00</ele>
	<time>2025-04-30T06:11:32.000Z</time>
</trkpt>
<trkpt lat="45.9047360" lon="10.2563360">
	<ele>713.20</ele>
	<time>2025-04-30T06:11:33.000Z</time>
</trkpt>
<trkpt lat="45.9047290" lon="10.2563330">
	<ele>713.40</ele>
	<time>2025-04-30T06:11:34.000Z</time>
</trkpt>
<trkpt lat="45.9047230" lon="10.2563300">
	<ele>713.60</ele>
	<time>2025-04-30T06:11:35.000Z</time>
</trkpt>
<trkpt lat="45.9047160" lon="10.2563280">
	<ele>714.00</ele>
	<time>2025-04-30T06:11:36.000Z</time>
</trkpt>
<trkpt lat="45.9047130" lon="10.2563170">
	<ele>714.20</ele>
	<time>2025-04-30T06:11:37.000Z</time>
</trkpt>
<trkpt lat="45.9047170" lon="10.2562990">
	<ele>714.40</ele>
	<time>2025-04-30T06:11:38.000Z</time>
</trkpt>
<trkpt lat="45.9047200" lon="10.2562860">
	<ele>714.60</ele>
	<time>2025-04-30T06:11:39.000Z</time>
</trkpt>
<trkpt lat="45.9047170" lon="10.2562720">
	<ele>714.80</ele>
	<time>2025-04-30T06:11:40.000Z</time>
</trkpt>
<trkpt lat="45.9047120" lon="10.2562670">
	<ele>715.20</ele>
	<time>2025-04-30T06:11:41.000Z</time>
</trkpt>
<trkpt lat="45.9047070" lon="10.2562670">
	<ele>715.40</ele>
	<time>2025-04-30T06:11:42.000Z</time>
</trkpt>
<trkpt lat="45.9046970" lon="10.2562660">
	<ele>715.60</ele>
	<time>2025-04-30T06:11:43.000Z</time>
</trkpt>
<trkpt lat="45.9046890" lon="10.2562620">
	<ele>715.80</ele>
	<time>2025-04-30T06:11:44.000Z</time>
</trkpt>
<trkpt lat="45.9046860" lon="10.2562550">
	<ele>715.80</ele>
	<time>2025-04-30T06:11:45.000Z</time>
</trkpt>
<trkpt lat="45.9046870" lon="10.2562420">
	<ele>716.00</ele>
	<time>2025-04-30T06:11:46.000Z</time>
</trkpt>
<trkpt lat="45.9046840" lon="10.2562290">
	<ele>716.20</ele>
	<time>2025-04-30T06:11:47.000Z</time>
</trkpt>
<trkpt lat="45.9046770" lon="10.2562220">
	<ele>716.40</ele>
	<time>2025-04-30T06:11:48.000Z</time>
</trkpt>
<trkpt lat="45.9046770" lon="10.2562100">
	<ele>716.40</ele>
	<time>2025-04-30T06:11:49.000Z</time>
</trkpt>
<trkpt lat="45.9046750" lon="10.2561960">
	<ele>716.80</ele>
	<time>2025-04-30T06:11:50.000Z</time>
</trkpt>
<trkpt lat="45.9046710" lon="10.2561860">
	<ele>717.00</ele>
	<time>2025-04-30T06:11:51.000Z</time>
</trkpt>
<trkpt lat="45.9046670" lon="10.2561700">
	<ele>717.20</ele>
	<time>2025-04-30T06:11:52.000Z</time>
</trkpt>
<trkpt lat="45.9046720" lon="10.2561510">
	<ele>717.40</ele>
	<time>2025-04-30T06:11:53.000Z</time>
</trkpt>
<trkpt lat="45.9046740" lon="10.2561330">
	<ele>717.80</ele>
	<time>2025-04-30T06:11:54.000Z</time>
</trkpt>
<trkpt lat="45.9046720" lon="10.2561190">
	<ele>717.80</ele>
	<time>2025-04-30T06:11:55.000Z</time>
</trkpt>
<trkpt lat="45.9046720" lon="10.2561080">
	<ele>718.00</ele>
	<time>2025-04-30T06:11:56.000Z</time>
</trkpt>
<trkpt lat="45.9046730" lon="10.2560890">
	<ele>718.20</ele>
	<time>2025-04-30T06:11:57.000Z</time>
</trkpt>
<trkpt lat="45.9046800" lon="10.2560690">
	<ele>718.60</ele>
	<time>2025-04-30T06:11:58.000Z</time>
</trkpt>
<trkpt lat="45.9046820" lon="10.2560590">
	<ele>718.60</ele>
	<time>2025-04-30T06:11:59.000Z</time>
</trkpt>
<trkpt lat="45.9046790" lon="10.2560510">
	<ele>719.00</ele>
	<time>2025-04-30T06:12:00.000Z</time>
</trkpt>
<trkpt lat="45.9046700" lon="10.2560490">
	<ele>719.20</ele>
	<time>2025-04-30T06:12:01.000Z</time>
</trkpt>
<trkpt lat="45.9046690" lon="10.2560360">
	<ele>719.40</ele>
	<time>2025-04-30T06:12:02.000Z</time>
</trkpt>
<trkpt lat="45.9046650" lon="10.2560300">
	<ele>719.40</ele>
	<time>2025-04-30T06:12:03.000Z</time>
</trkpt>
<trkpt lat="45.9046660" lon="10.2560220">
	<ele>719.60</ele>
	<time>2025-04-30T06:12:04.000Z</time>
</trkpt>
<trkpt lat="45.9046630" lon="10.2560220">
	<ele>719.80</ele>
	<time>2025-04-30T06:12:05.000Z</time>
</trkpt>
<trkpt lat="45.9046560" lon="10.2560210">
	<ele>720.00</ele>
	<time>2025-04-30T06:12:06.000Z</time>
</trkpt>
<trkpt lat="45.9046520" lon="10.2560140">
	<ele>720.20</ele>
	<time>2025-04-30T06:12:07.000Z</time>
</trkpt>
<trkpt lat="45.9046490" lon="10.2560000">
	<ele>720.60</ele>
	<time>2025-04-30T06:12:08.000Z</time>
</trkpt>
<trkpt lat="45.9046430" lon="10.2559900">
	<ele>720.80</ele>
	<time>2025-04-30T06:12:09.000Z</time>
</trkpt>
<trkpt lat="45.9046370" lon="10.2559850">
	<ele>721.00</ele>
	<time>2025-04-30T06:12:10.000Z</time>
</trkpt>
<trkpt lat="45.9046270" lon="10.2559810">
	<ele>721.00</ele>
	<time>2025-04-30T06:12:11.000Z</time>
</trkpt>
<trkpt lat="45.9046210" lon="10.2559770">
	<ele>721.20</ele>
	<time>2025-04-30T06:12:12.000Z</time>
</trkpt>
<trkpt lat="45.9046140" lon="10.2559700">
	<ele>721.20</ele>
	<time>2025-04-30T06:12:13.000Z</time>
</trkpt>
<trkpt lat="45.9046060" lon="10.2559690">
	<ele>721.40</ele>
	<time>2025-04-30T06:12:14.000Z</time>
</trkpt>
<trkpt lat="45.9046010" lon="10.2559540">
	<ele>721.60</ele>
	<time>2025-04-30T06:12:15.000Z</time>
</trkpt>
<trkpt lat="45.9046020" lon="10.2559290">
	<ele>721.80</ele>
	<time>2025-04-30T06:12:16.000Z</time>
</trkpt>
<trkpt lat="45.9046000" lon="10.2559150">
	<ele>721.80</ele>
	<time>2025-04-30T06:12:17.000Z</time>
</trkpt>
<trkpt lat="45.9046040" lon="10.2558940">
	<ele>722.00</ele>
	<time>2025-04-30T06:12:18.000Z</time>
</trkpt>
<trkpt lat="45.9046010" lon="10.2558870">
	<ele>722.20</ele>
	<time>2025-04-30T06:12:19.000Z</time>
</trkpt>
<trkpt lat="45.9045530" lon="10.2558720">
	<ele>722.40</ele>
	<time>2025-04-30T06:12:20.000Z</time>
</trkpt>
<trkpt lat="45.9045210" lon="10.2558630">
	<ele>722.40</ele>
	<time>2025-04-30T06:12:21.000Z</time>
</trkpt>
<trkpt lat="45.9044880" lon="10.2558540">
	<ele>722.60</ele>
	<time>2025-04-30T06:12:22.000Z</time>
</trkpt>
<trkpt lat="45.9044840" lon="10.2558600">
	<ele>723.00</ele>
	<time>2025-04-30T06:12:23.000Z</time>
</trkpt>
<trkpt lat="45.9044770" lon="10.2558740">
	<ele>723.20</ele>
	<time>2025-04-30T06:12:24.000Z</time>
</trkpt>
<trkpt lat="45.9044750" lon="10.2558870">
	<ele>723.40</ele>
	<time>2025-04-30T06:12:25.000Z</time>
</trkpt>
<trkpt lat="45.9044790" lon="10.2558860">
	<ele>723.60</ele>
	<time>2025-04-30T06:12:26.000Z</time>
</trkpt>
<trkpt lat="45.9044830" lon="10.2558890">
	<ele>723.60</ele>
	<time>2025-04-30T06:12:27.000Z</time>
</trkpt>
<trkpt lat="45.9044790" lon="10.2558990">
	<ele>723.80</ele>
	<time>2025-04-30T06:12:28.000Z</time>
</trkpt>
<trkpt lat="45.9044790" lon="10.2558960">
	<ele>724.00</ele>
	<time>2025-04-30T06:12:29.000Z</time>
</trkpt>
<trkpt lat="45.9044790" lon="10.2558940">
	<ele>724.20</ele>
	<time>2025-04-30T06:12:30.000Z</time>
</trkpt>
<trkpt lat="45.9044810" lon="10.2558800">
	<ele>724.40</ele>
	<time>2025-04-30T06:12:31.000Z</time>
</trkpt>
<trkpt lat="45.9044880" lon="10.2558670">
	<ele>724.60</ele>
	<time>2025-04-30T06:12:32.000Z</time>
</trkpt>
<trkpt lat="45.9044860" lon="10.2558900">
	<ele>724.80</ele>
	<time>2025-04-30T06:12:33.000Z</time>
</trkpt>
<trkpt lat="45.9044860" lon="10.2558920">
	<ele>725.00</ele>
	<time>2025-04-30T06:12:34.000Z</time>
</trkpt>
<trkpt lat="45.9044870" lon="10.2558870">
	<ele>725.20</ele>
	<time>2025-04-30T06:12:35.000Z</time>
</trkpt>
<trkpt lat="45.9044850" lon="10.2558930">
	<ele>725.20</ele>
	<time>2025-04-30T06:12:36.000Z</time>
</trkpt>
<trkpt lat="45.9044860" lon="10.2558940">
	<ele>725.60</ele>
	<time>2025-04-30T06:12:37.000Z</time>
</trkpt>
<trkpt lat="45.9044900" lon="10.2558890">
	<ele>725.80</ele>
	<time>2025-04-30T06:12:38.000Z</time>
</trkpt>
<trkpt lat="45.9044960" lon="10.2558960">
	<ele>726.00</ele>
	<time>2025-04-30T06:12:39.000Z</time>
</trkpt>
<trkpt lat="45.9045010" lon="10.2558980">
	<ele>726.00</ele>
	<time>2025-04-30T06:12:40.000Z</time>
</trkpt>
<trkpt lat="45.9045050" lon="10.2558970">
	<ele>726.20</ele>
	<time>2025-04-30T06:12:41.000Z</time>
</trkpt>
<trkpt lat="45.9045020" lon="10.2558660">
	<ele>726.20</ele>
	<time>2025-04-30T06:12:42.000Z</time>
</trkpt>
<trkpt lat="45.9045000" lon="10.2558630">
	<ele>726.40</ele>
	<time>2025-04-30T06:12:43.000Z</time>
</trkpt>
<trkpt lat="45.9045050" lon="10.2558680">
	<ele>726.60</ele>
	<time>2025-04-30T06:12:44.000Z</time>
</trkpt>
<trkpt lat="45.9045060" lon="10.2558540">
	<ele>726.80</ele>
	<time>2025-04-30T06:12:45.000Z</time>
</trkpt>
<trkpt lat="45.9045050" lon="10.2558430">
	<ele>727.00</ele>
	<time>2025-04-30T06:12:46.000Z</time>
</trkpt>
<trkpt lat="45.9045030" lon="10.2558490">
	<ele>727.20</ele>
	<time>2025-04-30T06:12:47.000Z</time>
</trkpt>
<trkpt lat="45.9045060" lon="10.2558450">
	<ele>727.40</ele>
	<time>2025-04-30T06:12:48.000Z</time>
</trkpt>
<trkpt lat="45.9045050" lon="10.2558400">
	<ele>727.60</ele>
	<time>2025-04-30T06:12:49.000Z</time>
</trkpt>
<trkpt lat="45.9045070" lon="10.2558310">
	<ele>727.80</ele>
	<time>2025-04-30T06:12:50.000Z</time>
</trkpt>
<trkpt lat="45.9045050" lon="10.2558200">
	<ele>727.80</ele>
	<time>2025-04-30T06:12:51.000Z</time>
</trkpt>
<trkpt lat="45.9045000" lon="10.2558090">
	<ele>728.00</ele>
	<time>2025-04-30T06:12:52.000Z</time>
</trkpt>
<trkpt lat="45.9044970" lon="10.2558120">
	<ele>728.20</ele>
	<time>2025-04-30T06:12:53.000Z</time>
</trkpt>
<trkpt lat="45.9044880" lon="10.2558060">
	<ele>728.40</ele>
	<time>2025-04-30T06:12:54.000Z</time>
</trkpt>
<trkpt lat="45.9044830" lon="10.2557950">
	<ele>728.60</ele>
	<time>2025-04-30T06:12:55.000Z</time>
</trkpt>
<trkpt lat="45.9044760" lon="10.2558120">
	<ele>728.80</ele>
	<time>2025-04-30T06:12:56.000Z</time>
</trkpt>
<trkpt lat="45.9044730" lon="10.2558140">
	<ele>729.00</ele>
	<time>2025-04-30T06:12:57.000Z</time>
</trkpt>
<trkpt lat="45.9044710" lon="10.2558190">
	<ele>729.20</ele>
	<time>2025-04-30T06:12:58.000Z</time>
</trkpt>
<trkpt lat="45.9044710" lon="10.2558190">
	<ele>729.60</ele>
	<time>2025-04-30T06:12:59.000Z</time>
</trkpt>
<trkpt lat="45.9044710" lon="10.2558140">
	<ele>730.00</ele>
	<time>2025-04-30T06:13:00.000Z</time>
</trkpt>
<trkpt lat="45.9044710" lon="10.2558120">
	<ele>730.20</ele>
	<time>2025-04-30T06:13:01.000Z</time>
</trkpt>
<trkpt lat="45.9044710" lon="10.2558180">
	<ele>730.40</ele>
	<time>2025-04-30T06:13:02.000Z</time>
</trkpt>
<trkpt lat="45.9044600" lon="10.2558270">
	<ele>730.60</ele>
	<time>2025-04-30T06:13:03.000Z</time>
</trkpt>
<trkpt lat="45.9044520" lon="10.2558260">
	<ele>730.60</ele>
	<time>2025-04-30T06:13:04.000Z</time>
</trkpt>
<trkpt lat="45.9044480" lon="10.2558200">
	<ele>730.80</ele>
	<time>2025-04-30T06:13:05.000Z</time>
</trkpt>
<trkpt lat="45.9044410" lon="10.2558070">
	<ele>730.80</ele>
	<time>2025-04-30T06:13:06.000Z</time>
</trkpt>
<trkpt lat="45.9044410" lon="10.2557920">
	<ele>731.00</ele>
	<time>2025-04-30T06:13:07.000Z</time>
</trkpt>
<trkpt lat="45.9044420" lon="10.2557870">
	<ele>731.20</ele>
	<time>2025-04-30T06:13:08.000Z</time>
</trkpt>
<trkpt lat="45.9044450" lon="10.2557820">
	<ele>731.40</ele>
	<time>2025-04-30T06:13:09.000Z</time>
</trkpt>
<trkpt lat="45.9044460" lon="10.2557840">
	<ele>731.60</ele>
	<time>2025-04-30T06:13:10.000Z</time>
</trkpt>
<trkpt lat="45.9044430" lon="10.2557920">
	<ele>731.80</ele>
	<time>2025-04-30T06:13:11.000Z</time>
</trkpt>
<trkpt lat="45.9044290" lon="10.2558170">
	<ele>732.00</ele>
	<time>2025-04-30T06:13:12.000Z</time>
</trkpt>
<trkpt lat="45.9044270" lon="10.2558170">
	<ele>732.20</ele>
	<time>2025-04-30T06:13:13.000Z</time>
</trkpt>
<trkpt lat="45.9044220" lon="10.2558210">
	<ele>732.40</ele>
	<time>2025-04-30T06:13:14.000Z</time>
</trkpt>
<trkpt lat="45.9044170" lon="10.2558170">
	<ele>732.60</ele>
	<time>2025-04-30T06:13:15.000Z</time>
</trkpt>
<trkpt lat="45.9044150" lon="10.2558280">
	<ele>732.80</ele>
	<time>2025-04-30T06:13:16.000Z</time>
</trkpt>
<trkpt lat="45.9044120" lon="10.2558330">
	<ele>732.80</ele>
	<time>2025-04-30T06:13:17.000Z</time>
</trkpt>
<trkpt lat="45.9044080" lon="10.2558400">
	<ele>733.00</ele>
	<time>2025-04-30T06:13:18.000Z</time>
</trkpt>
<trkpt lat="45.9044030" lon="10.2558470">
	<ele>733.20</ele>
	<time>2025-04-30T06:13:19.000Z</time>
</trkpt>
<trkpt lat="45.9043990" lon="10.2558430">
	<ele>733.20</ele>
	<time>2025-04-30T06:13:20.000Z</time>
</trkpt>
<trkpt lat="45.9043950" lon="10.2558460">
	<ele>733.40</ele>
	<time>2025-04-30T06:13:21.000Z</time>
</trkpt>
<trkpt lat="45.9043900" lon="10.2558480">
	<ele>733.80</ele>
	<time>2025-04-30T06:13:22.000Z</time>
</trkpt>
<trkpt lat="45.9043850" lon="10.2558510">
	<ele>734.00</ele>
	<time>2025-04-30T06:13:23.000Z</time>
</trkpt>
<trkpt lat="45.9043780" lon="10.2558540">
	<ele>734.20</ele>
	<time>2025-04-30T06:13:24.000Z</time>
</trkpt>
<trkpt lat="45.9043710" lon="10.2558520">
	<ele>734.40</ele>
	<time>2025-04-30T06:13:25.000Z</time>
</trkpt>
<trkpt lat="45.9043680" lon="10.2558560">
	<ele>734.40</ele>
	<time>2025-04-30T06:13:26.000Z</time>
</trkpt>
<trkpt lat="45.9043650" lon="10.2558630">
	<ele>734.80</ele>
	<time>2025-04-30T06:13:27.000Z</time>
</trkpt>
<trkpt lat="45.9043600" lon="10.2558670">
	<ele>734.80</ele>
	<time>2025-04-30T06:13:28.000Z</time>
</trkpt>
<trkpt lat="45.9043580" lon="10.2558580">
	<ele>735.20</ele>
	<time>2025-04-30T06:13:29.000Z</time>
</trkpt>
<trkpt lat="45.9043560" lon="10.2558450">
	<ele>735.40</ele>
	<time>2025-04-30T06:13:30.000Z</time>
</trkpt>
<trkpt lat="45.9043580" lon="10.2558440">
	<ele>735.40</ele>
	<time>2025-04-30T06:13:31.000Z</time>
</trkpt>
<trkpt lat="45.9043590" lon="10.2558520">
	<ele>735.60</ele>
	<time>2025-04-30T06:13:32.000Z</time>
</trkpt>
<trkpt lat="45.9043540" lon="10.2558530">
	<ele>735.80</ele>
	<time>2025-04-30T06:13:33.000Z</time>
</trkpt>
<trkpt lat="45.9043500" lon="10.2558670">
	<ele>736.00</ele>
	<time>2025-04-30T06:13:34.000Z</time>
</trkpt>
<trkpt lat="45.9043450" lon="10.2558940">
	<ele>736.00</ele>
	<time>2025-04-30T06:13:35.000Z</time>
</trkpt>
<trkpt lat="45.9043400" lon="10.2559180">
	<ele>736.20</ele>
	<time>2025-04-30T06:13:36.000Z</time>
</trkpt>
<trkpt lat="45.9043380" lon="10.2559350">
	<ele>736.20</ele>
	<time>2025-04-30T06:13:37.000Z</time>
</trkpt>
<trkpt lat="45.9043340" lon="10.2559520">
	<ele>736.40</ele>
	<time>2025-04-30T06:13:38.000Z</time>
</trkpt>
<trkpt lat="45.9043250" lon="10.2559580">
	<ele>736.60</ele>
	<time>2025-04-30T06:13:39.000Z</time>
</trkpt>
<trkpt lat="45.9043160" lon="10.2559610">
	<ele>736.80</ele>
	<time>2025-04-30T06:13:40.000Z</time>
</trkpt>
<trkpt lat="45.9043110" lon="10.2559640">
	<ele>737.00</ele>
	<time>2025-04-30T06:13:41.000Z</time>
</trkpt>
<trkpt lat="45.9043130" lon="10.2559720">
	<ele>737.20</ele>
	<time>2025-04-30T06:13:42.000Z</time>
</trkpt>
<trkpt lat="45.9043170" lon="10.2559780">
	<ele>737.40</ele>
	<time>2025-04-30T06:13:43.000Z</time>
</trkpt>
<trkpt lat="45.9043200" lon="10.2559810">
	<ele>737.40</ele>
	<time>2025-04-30T06:13:44.000Z</time>
</trkpt>
<trkpt lat="45.9043220" lon="10.2559800">
	<ele>737.60</ele>
	<time>2025-04-30T06:13:45.000Z</time>
</trkpt>
<trkpt lat="45.9043190" lon="10.2559760">
	<ele>737.60</ele>
	<time>2025-04-30T06:13:46.000Z</time>
</trkpt>
<trkpt lat="45.9043150" lon="10.2559850">
	<ele>737.80</ele>
	<time>2025-04-30T06:13:47.000Z</time>
</trkpt>
<trkpt lat="45.9043060" lon="10.2559890">
	<ele>738.00</ele>
	<time>2025-04-30T06:13:48.000Z</time>
</trkpt>
<trkpt lat="45.9042980" lon="10.2559890">
	<ele>738.20</ele>
	<time>2025-04-30T06:13:49.000Z</time>
</trkpt>
<trkpt lat="45.9042910" lon="10.2559960">
	<ele>738.40</ele>
	<time>2025-04-30T06:13:50.000Z</time>
</trkpt>
<trkpt lat="45.9042840" lon="10.2560000">
	<ele>738.40</ele>
	<time>2025-04-30T06:13:51.000Z</time>
</trkpt>
<trkpt lat="45.9042770" lon="10.2560080">
	<ele>738.40</ele>
	<time>2025-04-30T06:13:52.000Z</time>
</trkpt>
<trkpt lat="45.9042720" lon="10.2560180">
	<ele>738.60</ele>
	<time>2025-04-30T06:13:53.000Z</time>
</trkpt>
<trkpt lat="45.9042660" lon="10.2560340">
	<ele>738.80</ele>
	<time>2025-04-30T06:13:54.000Z</time>
</trkpt>
<trkpt lat="45.9042680" lon="10.2560520">
	<ele>739.00</ele>
	<time>2025-04-30T06:13:55.000Z</time>
</trkpt>
<trkpt lat="45.9042780" lon="10.2560710">
	<ele>739.20</ele>
	<time>2025-04-30T06:13:56.000Z</time>
</trkpt>
<trkpt lat="45.9042810" lon="10.2560890">
	<ele>739.20</ele>
	<time>2025-04-30T06:13:57.000Z</time>
</trkpt>
<trkpt lat="45.9042760" lon="10.2560970">
	<ele>739.20</ele>
	<time>2025-04-30T06:13:58.000Z</time>
</trkpt>
<trkpt lat="45.9042700" lon="10.2561030">
	<ele>739.20</ele>
	<time>2025-04-30T06:13:59.000Z</time>
</trkpt>
<trkpt lat="45.9042630" lon="10.2561060">
	<ele>739.40</ele>
	<time>2025-04-30T06:14:00.000Z</time>
</trkpt>
<trkpt lat="45.9042570" lon="10.2561220">
	<ele>739.60</ele>
	<time>2025-04-30T06:14:01.000Z</time>
</trkpt>
<trkpt lat="45.9042510" lon="10.2561340">
	<ele>739.60</ele>
	<time>2025-04-30T06:14:02.000Z</time>
</trkpt>
<trkpt lat="45.9042450" lon="10.2561440">
	<ele>739.80</ele>
	<time>2025-04-30T06:14:03.000Z</time>
</trkpt>
<trkpt lat="45.9042360" lon="10.2561460">
	<ele>740.20</ele>
	<time>2025-04-30T06:14:04.000Z</time>
</trkpt>
<trkpt lat="45.9042280" lon="10.2561460">
	<ele>740.40</ele>
	<time>2025-04-30T06:14:05.000Z</time>
</trkpt>
<trkpt lat="45.9042180" lon="10.2561540">
	<ele>740.40</ele>
	<time>2025-04-30T06:14:06.000Z</time>
</trkpt>
<trkpt lat="45.9042070" lon="10.2561610">
	<ele>740.60</ele>
	<time>2025-04-30T06:14:07.000Z</time>
</trkpt>
<trkpt lat="45.9041960" lon="10.2561680">
	<ele>740.80</ele>
	<time>2025-04-30T06:14:08.000Z</time>
</trkpt>
<trkpt lat="45.9041950" lon="10.2561860">
	<ele>741.00</ele>
	<time>2025-04-30T06:14:09.000Z</time>
</trkpt>
<trkpt lat="45.9041900" lon="10.2561920">
	<ele>741.20</ele>
	<time>2025-04-30T06:14:10.000Z</time>
</trkpt>
<trkpt lat="45.9041700" lon="10.2562030">
	<ele>741.40</ele>
	<time>2025-04-30T06:14:11.000Z</time>
</trkpt>
<trkpt lat="45.9041510" lon="10.2562250">
	<ele>741.60</ele>
	<time>2025-04-30T06:14:12.000Z</time>
</trkpt>
<trkpt lat="45.9041360" lon="10.2562490">
	<ele>741.80</ele>
	<time>2025-04-30T06:14:13.000Z</time>
</trkpt>
<trkpt lat="45.9041290" lon="10.2562700">
	<ele>741.80</ele>
	<time>2025-04-30T06:14:14.000Z</time>
</trkpt>
<trkpt lat="45.9041230" lon="10.2562860">
	<ele>742.00</ele>
	<time>2025-04-30T06:14:15.000Z</time>
</trkpt>
<trkpt lat="45.9041130" lon="10.2563050">
	<ele>742.20</ele>
	<time>2025-04-30T06:14:16.000Z</time>
</trkpt>
<trkpt lat="45.9041060" lon="10.2563260">
	<ele>742.20</ele>
	<time>2025-04-30T06:14:17.000Z</time>
</trkpt>
<trkpt lat="45.9041010" lon="10.2563360">
	<ele>742.40</ele>
	<time>2025-04-30T06:14:18.000Z</time>
</trkpt>
<trkpt lat="45.9040950" lon="10.2563390">
	<ele>742.60</ele>
	<time>2025-04-30T06:14:19.000Z</time>
</trkpt>
<trkpt lat="45.9040910" lon="10.2563400">
	<ele>742.80</ele>
	<time>2025-04-30T06:14:20.000Z</time>
</trkpt>
<trkpt lat="45.9040880" lon="10.2563360">
	<ele>743.00</ele>
	<time>2025-04-30T06:14:21.000Z</time>
</trkpt>
<trkpt lat="45.9040870" lon="10.2563310">
	<ele>743.20</ele>
	<time>2025-04-30T06:14:22.000Z</time>
</trkpt>
<trkpt lat="45.9040820" lon="10.2563340">
	<ele>743.60</ele>
	<time>2025-04-30T06:14:23.000Z</time>
</trkpt>
<trkpt lat="45.9040780" lon="10.2563330">
	<ele>743.80</ele>
	<time>2025-04-30T06:14:24.000Z</time>
</trkpt>
<trkpt lat="45.9040740" lon="10.2563290">
	<ele>744.00</ele>
	<time>2025-04-30T06:14:25.000Z</time>
</trkpt>
<trkpt lat="45.9040670" lon="10.2563190">
	<ele>744.00</ele>
	<time>2025-04-30T06:14:26.000Z</time>
</trkpt>
<trkpt lat="45.9040640" lon="10.2563130">
	<ele>744.40</ele>
	<time>2025-04-30T06:14:27.000Z</time>
</trkpt>
<trkpt lat="45.9040640" lon="10.2563090">
	<ele>744.60</ele>
	<time>2025-04-30T06:14:28.000Z</time>
</trkpt>
<trkpt lat="45.9040610" lon="10.2563100">
	<ele>744.60</ele>
	<time>2025-04-30T06:14:29.000Z</time>
</trkpt>
<trkpt lat="45.9040530" lon="10.2563210">
	<ele>744.80</ele>
	<time>2025-04-30T06:14:30.000Z</time>
</trkpt>
<trkpt lat="45.9040420" lon="10.2563390">
	<ele>745.00</ele>
	<time>2025-04-30T06:14:31.000Z</time>
</trkpt>
<trkpt lat="45.9040320" lon="10.2563450">
	<ele>745.20</ele>
	<time>2025-04-30T06:14:32.000Z</time>
</trkpt>
<trkpt lat="45.9040250" lon="10.2563510">
	<ele>745.40</ele>
	<time>2025-04-30T06:14:33.000Z</time>
</trkpt>
<trkpt lat="45.9040190" lon="10.2563520">
	<ele>745.60</ele>
	<time>2025-04-30T06:14:34.000Z</time>
</trkpt>
<trkpt lat="45.9040160" lon="10.2563530">
	<ele>745.60</ele>
	<time>2025-04-30T06:14:35.000Z</time>
</trkpt>
<trkpt lat="45.9040170" lon="10.2563580">
	<ele>745.80</ele>
	<time>2025-04-30T06:14:36.000Z</time>
</trkpt>
<trkpt lat="45.9040170" lon="10.2563690">
	<ele>746.00</ele>
	<time>2025-04-30T06:14:37.000Z</time>
</trkpt>
<trkpt lat="45.9040160" lon="10.2563780">
	<ele>746.20</ele>
	<time>2025-04-30T06:14:38.000Z</time>
</trkpt>
<trkpt lat="45.9040090" lon="10.2563980">
	<ele>746.20</ele>
	<time>2025-04-30T06:14:39.000Z</time>
</trkpt>
<trkpt lat="45.9040140" lon="10.2564120">
	<ele>746.40</ele>
	<time>2025-04-30T06:14:40.000Z</time>
</trkpt>
<trkpt lat="45.9040150" lon="10.2564120">
	<ele>746.40</ele>
	<time>2025-04-30T06:14:41.000Z</time>
</trkpt>
<trkpt lat="45.9040180" lon="10.2564260">
	<ele>746.40</ele>
	<time>2025-04-30T06:14:42.000Z</time>
</trkpt>
<trkpt lat="45.9040220" lon="10.2564410">
	<ele>746.60</ele>
	<time>2025-04-30T06:14:43.000Z</time>
</trkpt>
<trkpt lat="45.9040280" lon="10.2564590">
	<ele>746.60</ele>
	<time>2025-04-30T06:14:44.000Z</time>
</trkpt>
<trkpt lat="45.9040310" lon="10.2564750">
	<ele>746.80</ele>
	<time>2025-04-30T06:14:45.000Z</time>
</trkpt>
<trkpt lat="45.9040340" lon="10.2564900">
	<ele>746.80</ele>
	<time>2025-04-30T06:14:46.000Z</time>
</trkpt>
<trkpt lat="45.9040330" lon="10.2564930">
	<ele>746.80</ele>
	<time>2025-04-30T06:14:47.000Z</time>
</trkpt>
<trkpt lat="45.9040260" lon="10.2565040">
	<ele>746.80</ele>
	<time>2025-04-30T06:14:48.000Z</time>
</trkpt>
<trkpt lat="45.9040220" lon="10.2565120">
	<ele>746.80</ele>
	<time>2025-04-30T06:14:49.000Z</time>
</trkpt>
<trkpt lat="45.9040130" lon="10.2565140">
	<ele>746.80</ele>
	<time>2025-04-30T06:14:50.000Z</time>
</trkpt>
<trkpt lat="45.9040140" lon="10.2565130">
	<ele>746.80</ele>
	<time>2025-04-30T06:14:51.000Z</time>
</trkpt>
<trkpt lat="45.9040140" lon="10.2565110">
	<ele>746.80</ele>
	<time>2025-04-30T06:14:52.000Z</time>
</trkpt>
<trkpt lat="45.9040100" lon="10.2565140">
	<ele>746.80</ele>
	<time>2025-04-30T06:14:53.000Z</time>
</trkpt>
<trkpt lat="45.9040100" lon="10.2565150">
	<ele>746.80</ele>
	<time>2025-04-30T06:14:54.000Z</time>
</trkpt>
<trkpt lat="45.9040100" lon="10.2565150">
	<ele>746.80</ele>
	<time>2025-04-30T06:14:55.000Z</time>
</trkpt>
<trkpt lat="45.9040080" lon="10.2565150">
	<ele>746.80</ele>
	<time>2025-04-30T06:14:56.000Z</time>
</trkpt>
<trkpt lat="45.9040080" lon="10.2565160">
	<ele>746.80</ele>
	<time>2025-04-30T06:14:57.000Z</time>
</trkpt>
<trkpt lat="45.9040020" lon="10.2565210">
	<ele>746.80</ele>
	<time>2025-04-30T06:14:58.000Z</time>
</trkpt>
<trkpt lat="45.9039970" lon="10.2565260">
	<ele>746.80</ele>
	<time>2025-04-30T06:14:59.000Z</time>
</trkpt>
<trkpt lat="45.9039910" lon="10.2565290">
	<ele>746.80</ele>
	<time>2025-04-30T06:15:00.000Z</time>
</trkpt>
<trkpt lat="45.9039850" lon="10.2565320">
	<ele>746.80</ele>
	<time>2025-04-30T06:15:01.000Z</time>
</trkpt>
<trkpt lat="45.9039760" lon="10.2565340">
	<ele>746.80</ele>
	<time>2025-04-30T06:15:02.000Z</time>
</trkpt>
<trkpt lat="45.9039740" lon="10.2565350">
	<ele>746.80</ele>
	<time>2025-04-30T06:15:03.000Z</time>
</trkpt>
<trkpt lat="45.9039720" lon="10.2565380">
	<ele>746.80</ele>
	<time>2025-04-30T06:15:04.000Z</time>
</trkpt>
<trkpt lat="45.9039750" lon="10.2565490">
	<ele>746.80</ele>
	<time>2025-04-30T06:15:05.000Z</time>
</trkpt>
<trkpt lat="45.9039790" lon="10.2565630">
	<ele>746.80</ele>
	<time>2025-04-30T06:15:06.000Z</time>
</trkpt>
<trkpt lat="45.9039820" lon="10.2565740">
	<ele>746.80</ele>
	<time>2025-04-30T06:15:07.000Z</time>
</trkpt>
<trkpt lat="45.9039820" lon="10.2565790">
	<ele>746.80</ele>
	<time>2025-04-30T06:15:08.000Z</time>
</trkpt>
<trkpt lat="45.9039840" lon="10.2565850">
	<ele>746.80</ele>
	<time>2025-04-30T06:15:09.000Z</time>
</trkpt>
<trkpt lat="45.9039780" lon="10.2566000">
	<ele>746.80</ele>
	<time>2025-04-30T06:15:10.000Z</time>
</trkpt>
<trkpt lat="45.9039740" lon="10.2566090">
	<ele>747.00</ele>
	<time>2025-04-30T06:15:11.000Z</time>
</trkpt>
<trkpt lat="45.9039720" lon="10.2566210">
	<ele>747.40</ele>
	<time>2025-04-30T06:15:12.000Z</time>
</trkpt>
<trkpt lat="45.9039720" lon="10.2566260">
	<ele>747.60</ele>
	<time>2025-04-30T06:15:13.000Z</time>
</trkpt>
<trkpt lat="45.9039710" lon="10.2566400">
	<ele>747.60</ele>
	<time>2025-04-30T06:15:14.000Z</time>
</trkpt>
<trkpt lat="45.9039720" lon="10.2566510">
	<ele>747.80</ele>
	<time>2025-04-30T06:15:15.000Z</time>
</trkpt>
<trkpt lat="45.9039740" lon="10.2566590">
	<ele>748.00</ele>
	<time>2025-04-30T06:15:16.000Z</time>
</trkpt>
<trkpt lat="45.9039740" lon="10.2566680">
	<ele>748.40</ele>
	<time>2025-04-30T06:15:17.000Z</time>
</trkpt>
<trkpt lat="45.9039730" lon="10.2566820">
	<ele>748.60</ele>
	<time>2025-04-30T06:15:18.000Z</time>
</trkpt>
<trkpt lat="45.9039750" lon="10.2566870">
	<ele>748.60</ele>
	<time>2025-04-30T06:15:19.000Z</time>
</trkpt>
<trkpt lat="45.9039760" lon="10.2566990">
	<ele>748.80</ele>
	<time>2025-04-30T06:15:20.000Z</time>
</trkpt>
<trkpt lat="45.9039770" lon="10.2567040">
	<ele>749.00</ele>
	<time>2025-04-30T06:15:21.000Z</time>
</trkpt>
<trkpt lat="45.9039780" lon="10.2567040">
	<ele>749.20</ele>
	<time>2025-04-30T06:15:22.000Z</time>
</trkpt>
<trkpt lat="45.9039780" lon="10.2567010">
	<ele>749.40</ele>
	<time>2025-04-30T06:15:23.000Z</time>
</trkpt>
<trkpt lat="45.9039780" lon="10.2567040">
	<ele>749.60</ele>
	<time>2025-04-30T06:15:24.000Z</time>
</trkpt>
<trkpt lat="45.9039770" lon="10.2567030">
	<ele>749.80</ele>
	<time>2025-04-30T06:15:25.000Z</time>
</trkpt>
<trkpt lat="45.9039760" lon="10.2567040">
	<ele>750.00</ele>
	<time>2025-04-30T06:15:26.000Z</time>
</trkpt>
<trkpt lat="45.9039750" lon="10.2567080">
	<ele>750.20</ele>
	<time>2025-04-30T06:15:27.000Z</time>
</trkpt>
<trkpt lat="45.9039730" lon="10.2567220">
	<ele>750.40</ele>
	<time>2025-04-30T06:15:28.000Z</time>
</trkpt>
<trkpt lat="45.9039740" lon="10.2567290">
	<ele>750.40</ele>
	<time>2025-04-30T06:15:29.000Z</time>
</trkpt>
<trkpt lat="45.9039730" lon="10.2567300">
	<ele>750.80</ele>
	<time>2025-04-30T06:15:30.000Z</time>
</trkpt>
<trkpt lat="45.9039740" lon="10.2567310">
	<ele>751.00</ele>
	<time>2025-04-30T06:15:31.000Z</time>
</trkpt>
<trkpt lat="45.9039740" lon="10.2567410">
	<ele>751.20</ele>
	<time>2025-04-30T06:15:32.000Z</time>
</trkpt>
<trkpt lat="45.9039780" lon="10.2567510">
	<ele>751.40</ele>
	<time>2025-04-30T06:15:33.000Z</time>
</trkpt>
<trkpt lat="45.9039770" lon="10.2567690">
	<ele>751.60</ele>
	<time>2025-04-30T06:15:34.000Z</time>
</trkpt>
<trkpt lat="45.9039720" lon="10.2567760">
	<ele>751.80</ele>
	<time>2025-04-30T06:15:35.000Z</time>
</trkpt>
<trkpt lat="45.9039700" lon="10.2567820">
	<ele>751.80</ele>
	<time>2025-04-30T06:15:36.000Z</time>
</trkpt>
<trkpt lat="45.9039680" lon="10.2567870">
	<ele>752.00</ele>
	<time>2025-04-30T06:15:37.000Z</time>
</trkpt>
<trkpt lat="45.9039660" lon="10.2567900">
	<ele>752.00</ele>
	<time>2025-04-30T06:15:38.000Z</time>
</trkpt>
<trkpt lat="45.9039580" lon="10.2568070">
	<ele>752.00</ele>
	<time>2025-04-30T06:15:39.000Z</time>
</trkpt>
<trkpt lat="45.9039520" lon="10.2568150">
	<ele>752.20</ele>
	<time>2025-04-30T06:15:40.000Z</time>
</trkpt>
<trkpt lat="45.9039510" lon="10.2568150">
	<ele>752.40</ele>
	<time>2025-04-30T06:15:41.000Z</time>
</trkpt>
<trkpt lat="45.9039460" lon="10.2568260">
	<ele>752.60</ele>
	<time>2025-04-30T06:15:42.000Z</time>
</trkpt>
<trkpt lat="45.9039480" lon="10.2568300">
	<ele>752.80</ele>
	<time>2025-04-30T06:15:43.000Z</time>
</trkpt>
<trkpt lat="45.9039530" lon="10.2568460">
	<ele>753.20</ele>
	<time>2025-04-30T06:15:44.000Z</time>
</trkpt>
<trkpt lat="45.9039580" lon="10.2568530">
	<ele>753.20</ele>
	<time>2025-04-30T06:15:45.000Z</time>
</trkpt>
<trkpt lat="45.9039590" lon="10.2568590">
	<ele>753.60</ele>
	<time>2025-04-30T06:15:46.000Z</time>
</trkpt>
<trkpt lat="45.9039610" lon="10.2568680">
	<ele>753.80</ele>
	<time>2025-04-30T06:15:47.000Z</time>
</trkpt>
<trkpt lat="45.9039620" lon="10.2568800">
	<ele>754.00</ele>
	<time>2025-04-30T06:15:48.000Z</time>
</trkpt>
<trkpt lat="45.9039690" lon="10.2569000">
	<ele>754.20</ele>
	<time>2025-04-30T06:15:49.000Z</time>
</trkpt>
<trkpt lat="45.9039740" lon="10.2569190">
	<ele>754.40</ele>
	<time>2025-04-30T06:15:50.000Z</time>
</trkpt>
<trkpt lat="45.9039790" lon="10.2569420">
	<ele>754.40</ele>
	<time>2025-04-30T06:15:51.000Z</time>
</trkpt>
<trkpt lat="45.9039860" lon="10.2569610">
	<ele>754.60</ele>
	<time>2025-04-30T06:15:52.000Z</time>
</trkpt>
<trkpt lat="45.9039870" lon="10.2569800">
	<ele>754.80</ele>
	<time>2025-04-30T06:15:53.000Z</time>
</trkpt>
<trkpt lat="45.9039910" lon="10.2570000">
	<ele>755.00</ele>
	<time>2025-04-30T06:15:54.000Z</time>
</trkpt>
<trkpt lat="45.9039980" lon="10.2570180">
	<ele>755.20</ele>
	<time>2025-04-30T06:15:55.000Z</time>
</trkpt>
<trkpt lat="45.9039960" lon="10.2570390">
	<ele>755.40</ele>
	<time>2025-04-30T06:15:56.000Z</time>
</trkpt>
<trkpt lat="45.9039970" lon="10.2570530">
	<ele>755.60</ele>
	<time>2025-04-30T06:15:57.000Z</time>
</trkpt>
<trkpt lat="45.9040040" lon="10.2570670">
	<ele>755.80</ele>
	<time>2025-04-30T06:15:58.000Z</time>
</trkpt>
<trkpt lat="45.9039990" lon="10.2570850">
	<ele>756.00</ele>
	<time>2025-04-30T06:15:59.000Z</time>
</trkpt>
<trkpt lat="45.9039890" lon="10.2571040">
	<ele>756.00</ele>
	<time>2025-04-30T06:16:00.000Z</time>
</trkpt>
<trkpt lat="45.9039780" lon="10.2571150">
	<ele>756.40</ele>
	<time>2025-04-30T06:16:01.000Z</time>
</trkpt>
<trkpt lat="45.9039760" lon="10.2571250">
	<ele>756.60</ele>
	<time>2025-04-30T06:16:02.000Z</time>
</trkpt>
<trkpt lat="45.9039770" lon="10.2571370">
	<ele>756.80</ele>
	<time>2025-04-30T06:16:03.000Z</time>
</trkpt>
<trkpt lat="45.9039800" lon="10.2571510">
	<ele>757.00</ele>
	<time>2025-04-30T06:16:04.000Z</time>
</trkpt>
<trkpt lat="45.9039760" lon="10.2571660">
	<ele>757.00</ele>
	<time>2025-04-30T06:16:05.000Z</time>
</trkpt>
<trkpt lat="45.9039740" lon="10.2571810">
	<ele>757.20</ele>
	<time>2025-04-30T06:16:06.000Z</time>
</trkpt>
<trkpt lat="45.9039730" lon="10.2571990">
	<ele>757.40</ele>
	<time>2025-04-30T06:16:07.000Z</time>
</trkpt>
<trkpt lat="45.9039640" lon="10.2572180">
	<ele>757.60</ele>
	<time>2025-04-30T06:16:08.000Z</time>
</trkpt>
<trkpt lat="45.9039640" lon="10.2572230">
	<ele>757.80</ele>
	<time>2025-04-30T06:16:09.000Z</time>
</trkpt>
<trkpt lat="45.9039660" lon="10.2572250">
	<ele>758.00</ele>
	<time>2025-04-30T06:16:10.000Z</time>
</trkpt>
<trkpt lat="45.9039640" lon="10.2572270">
	<ele>758.00</ele>
	<time>2025-04-30T06:16:11.000Z</time>
</trkpt>
<trkpt lat="45.9039640" lon="10.2572330">
	<ele>758.20</ele>
	<time>2025-04-30T06:16:12.000Z</time>
</trkpt>
<trkpt lat="45.9039650" lon="10.2572360">
	<ele>758.20</ele>
	<time>2025-04-30T06:16:13.000Z</time>
</trkpt>
<trkpt lat="45.9039690" lon="10.2572430">
	<ele>758.40</ele>
	<time>2025-04-30T06:16:14.000Z</time>
</trkpt>
<trkpt lat="45.9039810" lon="10.2572550">
	<ele>758.40</ele>
	<time>2025-04-30T06:16:15.000Z</time>
</trkpt>
<trkpt lat="45.9039880" lon="10.2572660">
	<ele>758.60</ele>
	<time>2025-04-30T06:16:16.000Z</time>
</trkpt>
<trkpt lat="45.9039980" lon="10.2572830">
	<ele>758.80</ele>
	<time>2025-04-30T06:16:17.000Z</time>
</trkpt>
<trkpt lat="45.9040100" lon="10.2572990">
	<ele>759.00</ele>
	<time>2025-04-30T06:16:18.000Z</time>
</trkpt>
<trkpt lat="45.9040020" lon="10.2573000">
	<ele>759.20</ele>
	<time>2025-04-30T06:16:19.000Z</time>
</trkpt>
<trkpt lat="45.9040030" lon="10.2573030">
	<ele>759.20</ele>
	<time>2025-04-30T06:16:20.000Z</time>
</trkpt>
<trkpt lat="45.9040010" lon="10.2572970">
	<ele>759.40</ele>
	<time>2025-04-30T06:16:21.000Z</time>
</trkpt>
<trkpt lat="45.9040020" lon="10.2572880">
	<ele>759.40</ele>
	<time>2025-04-30T06:16:22.000Z</time>
</trkpt>
<trkpt lat="45.9040120" lon="10.2572790">
	<ele>759.40</ele>
	<time>2025-04-30T06:16:23.000Z</time>
</trkpt>
<trkpt lat="45.9040290" lon="10.2572760">
	<ele>759.60</ele>
	<time>2025-04-30T06:16:24.000Z</time>
</trkpt>
<trkpt lat="45.9040470" lon="10.2572760">
	<ele>759.60</ele>
	<time>2025-04-30T06:16:25.000Z</time>
</trkpt>
<trkpt lat="45.9040620" lon="10.2572730">
	<ele>759.60</ele>
	<time>2025-04-30T06:16:26.000Z</time>
</trkpt>
<trkpt lat="45.9040740" lon="10.2572710">
	<ele>759.60</ele>
	<time>2025-04-30T06:16:27.000Z</time>
</trkpt>
<trkpt lat="45.9040860" lon="10.2572560">
	<ele>759.60</ele>
	<time>2025-04-30T06:16:28.000Z</time>
</trkpt>
<trkpt lat="45.9040970" lon="10.2572430">
	<ele>759.60</ele>
	<time>2025-04-30T06:16:29.000Z</time>
</trkpt>
<trkpt lat="45.9041100" lon="10.2572290">
	<ele>759.80</ele>
	<time>2025-04-30T06:16:30.000Z</time>
</trkpt>
<trkpt lat="45.9041250" lon="10.2572160">
	<ele>760.00</ele>
	<time>2025-04-30T06:16:31.000Z</time>
</trkpt>
<trkpt lat="45.9041420" lon="10.2572030">
	<ele>760.20</ele>
	<time>2025-04-30T06:16:32.000Z</time>
</trkpt>
<trkpt lat="45.9041600" lon="10.2571930">
	<ele>760.20</ele>
	<time>2025-04-30T06:16:33.000Z</time>
</trkpt>
<trkpt lat="45.9041680" lon="10.2571810">
	<ele>760.20</ele>
	<time>2025-04-30T06:16:34.000Z</time>
</trkpt>
<trkpt lat="45.9041770" lon="10.2571690">
	<ele>760.20</ele>
	<time>2025-04-30T06:16:35.000Z</time>
</trkpt>
<trkpt lat="45.9041860" lon="10.2571560">
	<ele>760.40</ele>
	<time>2025-04-30T06:16:36.000Z</time>
</trkpt>
<trkpt lat="45.9041930" lon="10.2571460">
	<ele>760.40</ele>
	<time>2025-04-30T06:16:37.000Z</time>
</trkpt>
<trkpt lat="45.9041960" lon="10.2571310">
	<ele>760.40</ele>
	<time>2025-04-30T06:16:38.000Z</time>
</trkpt>
<trkpt lat="45.9041970" lon="10.2571150">
	<ele>760.60</ele>
	<time>2025-04-30T06:16:39.000Z</time>
</trkpt>
<trkpt lat="45.9042000" lon="10.2570950">
	<ele>760.60</ele>
	<time>2025-04-30T06:16:40.000Z</time>
</trkpt>
<trkpt lat="45.9042040" lon="10.2570750">
	<ele>760.80</ele>
	<time>2025-04-30T06:16:41.000Z</time>
</trkpt>
<trkpt lat="45.9042070" lon="10.2570500">
	<ele>760.80</ele>
	<time>2025-04-30T06:16:42.000Z</time>
</trkpt>
<trkpt lat="45.9042080" lon="10.2570420">
	<ele>760.80</ele>
	<time>2025-04-30T06:16:43.000Z</time>
</trkpt>
<trkpt lat="45.9042080" lon="10.2570320">
	<ele>761.00</ele>
	<time>2025-04-30T06:16:44.000Z</time>
</trkpt>
<trkpt lat="45.9042070" lon="10.2570350">
	<ele>761.00</ele>
	<time>2025-04-30T06:16:45.000Z</time>
</trkpt>
<trkpt lat="45.9042090" lon="10.2570560">
	<ele>761.20</ele>
	<time>2025-04-30T06:16:46.000Z</time>
</trkpt>
<trkpt lat="45.9042180" lon="10.2570670">
	<ele>761.20</ele>
	<time>2025-04-30T06:16:47.000Z</time>
</trkpt>
<trkpt lat="45.9042290" lon="10.2570820">
	<ele>761.40</ele>
	<time>2025-04-30T06:16:48.000Z</time>
</trkpt>
<trkpt lat="45.9042300" lon="10.2570920">
	<ele>761.40</ele>
	<time>2025-04-30T06:16:49.000Z</time>
</trkpt>
<trkpt lat="45.9042270" lon="10.2570900">
	<ele>761.40</ele>
	<time>2025-04-30T06:16:50.000Z</time>
</trkpt>
<trkpt lat="45.9042240" lon="10.2570880">
	<ele>761.60</ele>
	<time>2025-04-30T06:16:51.000Z</time>
</trkpt>
<trkpt lat="45.9042330" lon="10.2570520">
	<ele>761.60</ele>
	<time>2025-04-30T06:16:52.000Z</time>
</trkpt>
<trkpt lat="45.9042390" lon="10.2570420">
	<ele>761.60</ele>
	<time>2025-04-30T06:16:53.000Z</time>
</trkpt>
<trkpt lat="45.9042390" lon="10.2570260">
	<ele>761.80</ele>
	<time>2025-04-30T06:16:54.000Z</time>
</trkpt>
<trkpt lat="45.9042450" lon="10.2570210">
	<ele>761.80</ele>
	<time>2025-04-30T06:16:55.000Z</time>
</trkpt>
<trkpt lat="45.9042490" lon="10.2570180">
	<ele>762.00</ele>
	<time>2025-04-30T06:16:56.000Z</time>
</trkpt>
<trkpt lat="45.9042540" lon="10.2570080">
	<ele>762.20</ele>
	<time>2025-04-30T06:16:57.000Z</time>
</trkpt>
<trkpt lat="45.9042620" lon="10.2569960">
	<ele>762.20</ele>
	<time>2025-04-30T06:16:58.000Z</time>
</trkpt>
<trkpt lat="45.9042670" lon="10.2569970">
	<ele>762.40</ele>
	<time>2025-04-30T06:16:59.000Z</time>
</trkpt>
<trkpt lat="45.9042770" lon="10.2569890">
	<ele>762.40</ele>
	<time>2025-04-30T06:17:00.000Z</time>
</trkpt>
<trkpt lat="45.9042870" lon="10.2569790">
	<ele>762.40</ele>
	<time>2025-04-30T06:17:01.000Z</time>
</trkpt>
<trkpt lat="45.9042910" lon="10.2569770">
	<ele>762.60</ele>
	<time>2025-04-30T06:17:02.000Z</time>
</trkpt>
<trkpt lat="45.9043010" lon="10.2569690">
	<ele>762.60</ele>
	<time>2025-04-30T06:17:03.000Z</time>
</trkpt>
<trkpt lat="45.9043050" lon="10.2569680">
	<ele>762.80</ele>
	<time>2025-04-30T06:17:04.000Z</time>
</trkpt>
<trkpt lat="45.9043140" lon="10.2569700">
	<ele>762.80</ele>
	<time>2025-04-30T06:17:05.000Z</time>
</trkpt>
<trkpt lat="45.9043180" lon="10.2569710">
	<ele>763.00</ele>
	<time>2025-04-30T06:17:06.000Z</time>
</trkpt>
<trkpt lat="45.9043220" lon="10.2569710">
	<ele>763.00</ele>
	<time>2025-04-30T06:17:07.000Z</time>
</trkpt>
<trkpt lat="45.9043330" lon="10.2569650">
	<ele>763.20</ele>
	<time>2025-04-30T06:17:08.000Z</time>
</trkpt>
<trkpt lat="45.9043450" lon="10.2569570">
	<ele>763.40</ele>
	<time>2025-04-30T06:17:09.000Z</time>
</trkpt>
<trkpt lat="45.9043540" lon="10.2569480">
	<ele>763.40</ele>
	<time>2025-04-30T06:17:10.000Z</time>
</trkpt>
<trkpt lat="45.9043640" lon="10.2569390">
	<ele>763.60</ele>
	<time>2025-04-30T06:17:11.000Z</time>
</trkpt>
<trkpt lat="45.9043680" lon="10.2569360">
	<ele>763.60</ele>
	<time>2025-04-30T06:17:12.000Z</time>
</trkpt>
<trkpt lat="45.9043750" lon="10.2569290">
	<ele>763.80</ele>
	<time>2025-04-30T06:17:13.000Z</time>
</trkpt>
<trkpt lat="45.9043880" lon="10.2569260">
	<ele>763.80</ele>
	<time>2025-04-30T06:17:14.000Z</time>
</trkpt>
<trkpt lat="45.9043920" lon="10.2569260">
	<ele>764.00</ele>
	<time>2025-04-30T06:17:15.000Z</time>
</trkpt>
<trkpt lat="45.9043950" lon="10.2569250">
	<ele>764.00</ele>
	<time>2025-04-30T06:17:16.000Z</time>
</trkpt>
<trkpt lat="45.9043980" lon="10.2569230">
	<ele>764.20</ele>
	<time>2025-04-30T06:17:17.000Z</time>
</trkpt>
<trkpt lat="45.9044060" lon="10.2569200">
	<ele>764.20</ele>
	<time>2025-04-30T06:17:18.000Z</time>
</trkpt>
<trkpt lat="45.9044150" lon="10.2569090">
	<ele>764.40</ele>
	<time>2025-04-30T06:17:19.000Z</time>
</trkpt>
<trkpt lat="45.9044250" lon="10.2568920">
	<ele>764.40</ele>
	<time>2025-04-30T06:17:20.000Z</time>
</trkpt>
<trkpt lat="45.9044350" lon="10.2568790">
	<ele>764.40</ele>
	<time>2025-04-30T06:17:21.000Z</time>
</trkpt>
<trkpt lat="45.9044450" lon="10.2568720">
	<ele>764.60</ele>
	<time>2025-04-30T06:17:22.000Z</time>
</trkpt>
<trkpt lat="45.9044490" lon="10.2568740">
	<ele>764.60</ele>
	<time>2025-04-30T06:17:23.000Z</time>
</trkpt>
<trkpt lat="45.9044620" lon="10.2568820">
	<ele>764.80</ele>
	<time>2025-04-30T06:17:24.000Z</time>
</trkpt>
<trkpt lat="45.9044730" lon="10.2568940">
	<ele>765.00</ele>
	<time>2025-04-30T06:17:25.000Z</time>
</trkpt>
<trkpt lat="45.9044860" lon="10.2569110">
	<ele>765.20</ele>
	<time>2025-04-30T06:17:26.000Z</time>
</trkpt>
<trkpt lat="45.9044920" lon="10.2569190">
	<ele>765.20</ele>
	<time>2025-04-30T06:17:27.000Z</time>
</trkpt>
<trkpt lat="45.9045040" lon="10.2569340">
	<ele>765.40</ele>
	<time>2025-04-30T06:17:28.000Z</time>
</trkpt>
<trkpt lat="45.9045080" lon="10.2569390">
	<ele>765.40</ele>
	<time>2025-04-30T06:17:29.000Z</time>
</trkpt>
<trkpt lat="45.9045140" lon="10.2569440">
	<ele>765.80</ele>
	<time>2025-04-30T06:17:30.000Z</time>
</trkpt>
<trkpt lat="45.9045150" lon="10.2569450">
	<ele>766.00</ele>
	<time>2025-04-30T06:17:31.000Z</time>
</trkpt>
<trkpt lat="45.9045180" lon="10.2569430">
	<ele>766.20</ele>
	<time>2025-04-30T06:17:32.000Z</time>
</trkpt>
<trkpt lat="45.9045130" lon="10.2569470">
	<ele>766.40</ele>
	<time>2025-04-30T06:17:33.000Z</time>
</trkpt>
<trkpt lat="45.9045200" lon="10.2569490">
	<ele>766.60</ele>
	<time>2025-04-30T06:17:34.000Z</time>
</trkpt>
<trkpt lat="45.9045270" lon="10.2569450">
	<ele>766.80</ele>
	<time>2025-04-30T06:17:35.000Z</time>
</trkpt>
<trkpt lat="45.9045270" lon="10.2569400">
	<ele>767.00</ele>
	<time>2025-04-30T06:17:36.000Z</time>
</trkpt>
<trkpt lat="45.9045220" lon="10.2569570">
	<ele>767.20</ele>
	<time>2025-04-30T06:17:37.000Z</time>
</trkpt>
<trkpt lat="45.9045190" lon="10.2569630">
	<ele>767.40</ele>
	<time>2025-04-30T06:17:38.000Z</time>
</trkpt>
<trkpt lat="45.9045200" lon="10.2569660">
	<ele>767.60</ele>
	<time>2025-04-30T06:17:39.000Z</time>
</trkpt>
<trkpt lat="45.9045190" lon="10.2569680">
	<ele>767.80</ele>
	<time>2025-04-30T06:17:40.000Z</time>
</trkpt>
<trkpt lat="45.9045200" lon="10.2569680">
	<ele>768.00</ele>
	<time>2025-04-30T06:17:41.000Z</time>
</trkpt>
<trkpt lat="45.9045200" lon="10.2569690">
	<ele>768.20</ele>
	<time>2025-04-30T06:17:42.000Z</time>
</trkpt>
<trkpt lat="45.9045210" lon="10.2569710">
	<ele>768.20</ele>
	<time>2025-04-30T06:17:43.000Z</time>
</trkpt>
<trkpt lat="45.9045210" lon="10.2569710">
	<ele>768.40</ele>
	<time>2025-04-30T06:17:44.000Z</time>
</trkpt>
<trkpt lat="45.9045210" lon="10.2569710">
	<ele>768.40</ele>
	<time>2025-04-30T06:17:45.000Z</time>
</trkpt>
<trkpt lat="45.9045210" lon="10.2569710">
	<ele>768.40</ele>
	<time>2025-04-30T06:17:46.000Z</time>
</trkpt>
<trkpt lat="45.9045210" lon="10.2569710">
	<ele>768.40</ele>
	<time>2025-04-30T06:17:47.000Z</time>
</trkpt>
<trkpt lat="45.9045210" lon="10.2569710">
	<ele>768.40</ele>
	<time>2025-04-30T06:17:48.000Z</time>
</trkpt>
<trkpt lat="45.9045210" lon="10.2569710">
	<ele>768.40</ele>
	<time>2025-04-30T06:17:49.000Z</time>
</trkpt>
<trkpt lat="45.9045210" lon="10.2569710">
	<ele>768.40</ele>
	<time>2025-04-30T06:17:50.000Z</time>
</trkpt>
<trkpt lat="45.9045210" lon="10.2569710">
	<ele>768.60</ele>
	<time>2025-04-30T06:17:51.000Z</time>
</trkpt>
<trkpt lat="45.9045210" lon="10.2569710">
	<ele>768.80</ele>
	<time>2025-04-30T06:17:52.000Z</time>
</trkpt>
<trkpt lat="45.9045210" lon="10.2569710">
	<ele>769.00</ele>
	<time>2025-04-30T06:17:53.000Z</time>
</trkpt>
<trkpt lat="45.9045210" lon="10.2569710">
	<ele>769.00</ele>
	<time>2025-04-30T06:17:54.000Z</time>
</trkpt>
<trkpt lat="45.9045210" lon="10.2569710">
	<ele>769.40</ele>
	<time>2025-04-30T06:17:55.000Z</time>
</trkpt>
<trkpt lat="45.9045220" lon="10.2569710">
	<ele>769.60</ele>
	<time>2025-04-30T06:17:56.000Z</time>
</trkpt>
<trkpt lat="45.9045220" lon="10.2569710">
	<ele>770.00</ele>
	<time>2025-04-30T06:17:57.000Z</time>
</trkpt>
<trkpt lat="45.9045230" lon="10.2569710">
	<ele>770.20</ele>
	<time>2025-04-30T06:17:58.000Z</time>
</trkpt>
<trkpt lat="45.9045260" lon="10.2569710">
	<ele>770.40</ele>
	<time>2025-04-30T06:17:59.000Z</time>
</trkpt>
<trkpt lat="45.9045270" lon="10.2569710">
	<ele>770.60</ele>
	<time>2025-04-30T06:18:00.000Z</time>
</trkpt>
<trkpt lat="45.9045270" lon="10.2569710">
	<ele>770.80</ele>
	<time>2025-04-30T06:18:01.000Z</time>
</trkpt>
<trkpt lat="45.9045280" lon="10.2569710">
	<ele>771.20</ele>
	<time>2025-04-30T06:18:02.000Z</time>
</trkpt>
<trkpt lat="45.9045290" lon="10.2569730">
	<ele>771.20</ele>
	<time>2025-04-30T06:18:03.000Z</time>
</trkpt>
<trkpt lat="45.9045310" lon="10.2569760">
	<ele>771.40</ele>
	<time>2025-04-30T06:18:04.000Z</time>
</trkpt>
<trkpt lat="45.9045330" lon="10.2569790">
	<ele>771.60</ele>
	<time>2025-04-30T06:18:05.000Z</time>
</trkpt>
<trkpt lat="45.9045340" lon="10.2569820">
	<ele>771.80</ele>
	<time>2025-04-30T06:18:06.000Z</time>
</trkpt>
<trkpt lat="45.9045360" lon="10.2569860">
	<ele>772.00</ele>
	<time>2025-04-30T06:18:07.000Z</time>
</trkpt>
<trkpt lat="45.9045370" lon="10.2569950">
	<ele>772.20</ele>
	<time>2025-04-30T06:18:08.000Z</time>
</trkpt>
<trkpt lat="45.9045380" lon="10.2570030">
	<ele>772.40</ele>
	<time>2025-04-30T06:18:09.000Z</time>
</trkpt>
<trkpt lat="45.9045380" lon="10.2570050">
	<ele>772.60</ele>
	<time>2025-04-30T06:18:10.000Z</time>
</trkpt>
<trkpt lat="45.9045380" lon="10.2570070">
	<ele>773.00</ele>
	<time>2025-04-30T06:18:11.000Z</time>
</trkpt>
<trkpt lat="45.9045420" lon="10.2570190">
	<ele>773.20</ele>
	<time>2025-04-30T06:18:12.000Z</time>
</trkpt>
<trkpt lat="45.9045480" lon="10.2570400">
	<ele>773.20</ele>
	<time>2025-04-30T06:18:13.000Z</time>
</trkpt>
<trkpt lat="45.9045580" lon="10.2570640">
	<ele>773.60</ele>
	<time>2025-04-30T06:18:14.000Z</time>
</trkpt>
<trkpt lat="45.9045610" lon="10.2570910">
	<ele>773.80</ele>
	<time>2025-04-30T06:18:15.000Z</time>
</trkpt>
<trkpt lat="45.9045660" lon="10.2571130">
	<ele>774.00</ele>
	<time>2025-04-30T06:18:16.000Z</time>
</trkpt>
<trkpt lat="45.9045720" lon="10.2571310">
	<ele>774.00</ele>
	<time>2025-04-30T06:18:17.000Z</time>
</trkpt>
<trkpt lat="45.9045820" lon="10.2571470">
	<ele>774.20</ele>
	<time>2025-04-30T06:18:18.000Z</time>
</trkpt>
<trkpt lat="45.9045900" lon="10.2571640">
	<ele>774.40</ele>
	<time>2025-04-30T06:18:19.000Z</time>
</trkpt>
<trkpt lat="45.9046000" lon="10.2571820">
	<ele>774.40</ele>
	<time>2025-04-30T06:18:20.000Z</time>
</trkpt>
<trkpt lat="45.9046060" lon="10.2572030">
	<ele>774.60</ele>
	<time>2025-04-30T06:18:21.000Z</time>
</trkpt>
<trkpt lat="45.9046080" lon="10.2572120">
	<ele>774.80</ele>
	<time>2025-04-30T06:18:22.000Z</time>
</trkpt>
<trkpt lat="45.9046060" lon="10.2572290">
	<ele>775.00</ele>
	<time>2025-04-30T06:18:23.000Z</time>
</trkpt>
<trkpt lat="45.9046040" lon="10.2572430">
	<ele>775.20</ele>
	<time>2025-04-30T06:18:24.000Z</time>
</trkpt>
<trkpt lat="45.9045980" lon="10.2572560">
	<ele>775.40</ele>
	<time>2025-04-30T06:18:25.000Z</time>
</trkpt>
<trkpt lat="45.9045900" lon="10.2572640">
	<ele>775.40</ele>
	<time>2025-04-30T06:18:26.000Z</time>
</trkpt>
<trkpt lat="45.9045880" lon="10.2572660">
	<ele>775.60</ele>
	<time>2025-04-30T06:18:27.000Z</time>
</trkpt>
<trkpt lat="45.9045890" lon="10.2572700">
	<ele>775.80</ele>
	<time>2025-04-30T06:18:28.000Z</time>
</trkpt>
<trkpt lat="45.9045890" lon="10.2572780">
	<ele>776.20</ele>
	<time>2025-04-30T06:18:29.000Z</time>
</trkpt>
<trkpt lat="45.9045820" lon="10.2572990">
	<ele>776.40</ele>
	<time>2025-04-30T06:18:30.000Z</time>
</trkpt>
<trkpt lat="45.9045720" lon="10.2573210">
	<ele>776.60</ele>
	<time>2025-04-30T06:18:31.000Z</time>
</trkpt>
<trkpt lat="45.9045600" lon="10.2573430">
	<ele>776.60</ele>
	<time>2025-04-30T06:18:32.000Z</time>
</trkpt>
<trkpt lat="45.9045510" lon="10.2573640">
	<ele>776.80</ele>
	<time>2025-04-30T06:18:33.000Z</time>
</trkpt>
<trkpt lat="45.9045450" lon="10.2573780">
	<ele>777.00</ele>
	<time>2025-04-30T06:18:34.000Z</time>
</trkpt>
<trkpt lat="45.9045400" lon="10.2573930">
	<ele>777.20</ele>
	<time>2025-04-30T06:18:35.000Z</time>
</trkpt>
<trkpt lat="45.9045380" lon="10.2574050">
	<ele>777.40</ele>
	<time>2025-04-30T06:18:36.000Z</time>
</trkpt>
<trkpt lat="45.9045410" lon="10.2574150">
	<ele>777.60</ele>
	<time>2025-04-30T06:18:37.000Z</time>
</trkpt>
<trkpt lat="45.9045410" lon="10.2574210">
	<ele>777.60</ele>
	<time>2025-04-30T06:18:38.000Z</time>
</trkpt>
<trkpt lat="45.9045370" lon="10.2574280">
	<ele>778.00</ele>
	<time>2025-04-30T06:18:39.000Z</time>
</trkpt>
<trkpt lat="45.9045360" lon="10.2574330">
	<ele>778.20</ele>
	<time>2025-04-30T06:18:40.000Z</time>
</trkpt>
<trkpt lat="45.9045350" lon="10.2574370">
	<ele>778.40</ele>
	<time>2025-04-30T06:18:41.000Z</time>
</trkpt>
<trkpt lat="45.9045390" lon="10.2574400">
	<ele>778.40</ele>
	<time>2025-04-30T06:18:42.000Z</time>
</trkpt>
<trkpt lat="45.9045490" lon="10.2574400">
	<ele>778.80</ele>
	<time>2025-04-30T06:18:43.000Z</time>
</trkpt>
<trkpt lat="45.9045590" lon="10.2574460">
	<ele>779.00</ele>
	<time>2025-04-30T06:18:44.000Z</time>
</trkpt>
<trkpt lat="45.9045580" lon="10.2574600">
	<ele>779.20</ele>
	<time>2025-04-30T06:18:45.000Z</time>
</trkpt>
<trkpt lat="45.9045560" lon="10.2574640">
	<ele>779.40</ele>
	<time>2025-04-30T06:18:46.000Z</time>
</trkpt>
<trkpt lat="45.9045550" lon="10.2574730">
	<ele>779.60</ele>
	<time>2025-04-30T06:18:47.000Z</time>
</trkpt>
<trkpt lat="45.9045490" lon="10.2574730">
	<ele>779.80</ele>
	<time>2025-04-30T06:18:48.000Z</time>
</trkpt>
<trkpt lat="45.9045470" lon="10.2574810">
	<ele>780.00</ele>
	<time>2025-04-30T06:18:49.000Z</time>
</trkpt>
<trkpt lat="45.9045510" lon="10.2574880">
	<ele>780.20</ele>
	<time>2025-04-30T06:18:50.000Z</time>
</trkpt>
<trkpt lat="45.9045530" lon="10.2574900">
	<ele>780.20</ele>
	<time>2025-04-30T06:18:51.000Z</time>
</trkpt>
<trkpt lat="45.9045670" lon="10.2574940">
	<ele>780.60</ele>
	<time>2025-04-30T06:18:52.000Z</time>
</trkpt>
<trkpt lat="45.9045830" lon="10.2574970">
	<ele>780.80</ele>
	<time>2025-04-30T06:18:53.000Z</time>
</trkpt>
<trkpt lat="45.9045930" lon="10.2575090">
	<ele>780.80</ele>
	<time>2025-04-30T06:18:54.000Z</time>
</trkpt>
<trkpt lat="45.9045970" lon="10.2575170">
	<ele>781.00</ele>
	<time>2025-04-30T06:18:55.000Z</time>
</trkpt>
<trkpt lat="45.9046040" lon="10.2575200">
	<ele>781.20</ele>
	<time>2025-04-30T06:18:56.000Z</time>
</trkpt>
<trkpt lat="45.9046090" lon="10.2575220">
	<ele>781.40</ele>
	<time>2025-04-30T06:18:57.000Z</time>
</trkpt>
<trkpt lat="45.9046110" lon="10.2575260">
	<ele>781.40</ele>
	<time>2025-04-30T06:18:58.000Z</time>
</trkpt>
<trkpt lat="45.9046120" lon="10.2575290">
	<ele>781.60</ele>
	<time>2025-04-30T06:18:59.000Z</time>
</trkpt>
<trkpt lat="45.9046120" lon="10.2575300">
	<ele>781.60</ele>
	<time>2025-04-30T06:19:00.000Z</time>
</trkpt>
<trkpt lat="45.9046120" lon="10.2575310">
	<ele>781.80</ele>
	<time>2025-04-30T06:19:01.000Z</time>
</trkpt>
<trkpt lat="45.9046100" lon="10.2575350">
	<ele>781.80</ele>
	<time>2025-04-30T06:19:02.000Z</time>
</trkpt>
<trkpt lat="45.9046000" lon="10.2575390">
	<ele>782.00</ele>
	<time>2025-04-30T06:19:03.000Z</time>
</trkpt>
<trkpt lat="45.9045960" lon="10.2575410">
	<ele>782.00</ele>
	<time>2025-04-30T06:19:04.000Z</time>
</trkpt>
<trkpt lat="45.9045880" lon="10.2575490">
	<ele>782.00</ele>
	<time>2025-04-30T06:19:05.000Z</time>
</trkpt>
<trkpt lat="45.9045900" lon="10.2575580">
	<ele>782.20</ele>
	<time>2025-04-30T06:19:06.000Z</time>
</trkpt>
<trkpt lat="45.9046000" lon="10.2575600">
	<ele>782.20</ele>
	<time>2025-04-30T06:19:07.000Z</time>
</trkpt>
<trkpt lat="45.9046050" lon="10.2575660">
	<ele>782.40</ele>
	<time>2025-04-30T06:19:08.000Z</time>
</trkpt>
<trkpt lat="45.9046080" lon="10.2575690">
	<ele>782.40</ele>
	<time>2025-04-30T06:19:09.000Z</time>
</trkpt>
<trkpt lat="45.9046080" lon="10.2575730">
	<ele>782.60</ele>
	<time>2025-04-30T06:19:10.000Z</time>
</trkpt>
<trkpt lat="45.9046090" lon="10.2575770">
	<ele>782.80</ele>
	<time>2025-04-30T06:19:11.000Z</time>
</trkpt>
<trkpt lat="45.9046080" lon="10.2575830">
	<ele>783.00</ele>
	<time>2025-04-30T06:19:12.000Z</time>
</trkpt>
<trkpt lat="45.9046040" lon="10.2575920">
	<ele>783.00</ele>
	<time>2025-04-30T06:19:13.000Z</time>
</trkpt>
<trkpt lat="45.9046030" lon="10.2575960">
	<ele>783.20</ele>
	<time>2025-04-30T06:19:14.000Z</time>
</trkpt>
<trkpt lat="45.9046050" lon="10.2576010">
	<ele>783.20</ele>
	<time>2025-04-30T06:19:15.000Z</time>
</trkpt>
<trkpt lat="45.9046060" lon="10.2576060">
	<ele>783.40</ele>
	<time>2025-04-30T06:19:16.000Z</time>
</trkpt>
<trkpt lat="45.9046130" lon="10.2576090">
	<ele>783.60</ele>
	<time>2025-04-30T06:19:17.000Z</time>
</trkpt>
<trkpt lat="45.9046170" lon="10.2576160">
	<ele>783.80</ele>
	<time>2025-04-30T06:19:18.000Z</time>
</trkpt>
<trkpt lat="45.9046210" lon="10.2576200">
	<ele>784.00</ele>
	<time>2025-04-30T06:19:19.000Z</time>
</trkpt>
<trkpt lat="45.9046230" lon="10.2576250">
	<ele>784.20</ele>
	<time>2025-04-30T06:19:20.000Z</time>
</trkpt>
<trkpt lat="45.9046200" lon="10.2576310">
	<ele>784.40</ele>
	<time>2025-04-30T06:19:21.000Z</time>
</trkpt>
<trkpt lat="45.9046200" lon="10.2576340">
	<ele>784.60</ele>
	<time>2025-04-30T06:19:22.000Z</time>
</trkpt>
<trkpt lat="45.9046250" lon="10.2576390">
	<ele>784.80</ele>
	<time>2025-04-30T06:19:23.000Z</time>
</trkpt>
<trkpt lat="45.9046290" lon="10.2576470">
	<ele>785.00</ele>
	<time>2025-04-30T06:19:24.000Z</time>
</trkpt>
<trkpt lat="45.9046320" lon="10.2576500">
	<ele>785.20</ele>
	<time>2025-04-30T06:19:25.000Z</time>
</trkpt>
<trkpt lat="45.9046340" lon="10.2576540">
	<ele>785.40</ele>
	<time>2025-04-30T06:19:26.000Z</time>
</trkpt>
<trkpt lat="45.9046400" lon="10.2576650">
	<ele>785.80</ele>
	<time>2025-04-30T06:19:27.000Z</time>
</trkpt>
<trkpt lat="45.9046460" lon="10.2576670">
	<ele>785.80</ele>
	<time>2025-04-30T06:19:28.000Z</time>
</trkpt>
<trkpt lat="45.9046520" lon="10.2576630">
	<ele>786.00</ele>
	<time>2025-04-30T06:19:29.000Z</time>
</trkpt>
<trkpt lat="45.9046570" lon="10.2576640">
	<ele>786.40</ele>
	<time>2025-04-30T06:19:30.000Z</time>
</trkpt>
<trkpt lat="45.9046620" lon="10.2576640">
	<ele>786.40</ele>
	<time>2025-04-30T06:19:31.000Z</time>
</trkpt>
<trkpt lat="45.9046650" lon="10.2576680">
	<ele>786.60</ele>
	<time>2025-04-30T06:19:32.000Z</time>
</trkpt>
<trkpt lat="45.9046690" lon="10.2576710">
	<ele>786.80</ele>
	<time>2025-04-30T06:19:33.000Z</time>
</trkpt>
<trkpt lat="45.9046700" lon="10.2576730">
	<ele>787.00</ele>
	<time>2025-04-30T06:19:34.000Z</time>
</trkpt>
<trkpt lat="45.9046750" lon="10.2576740">
	<ele>787.00</ele>
	<time>2025-04-30T06:19:35.000Z</time>
</trkpt>
<trkpt lat="45.9046750" lon="10.2576840">
	<ele>787.20</ele>
	<time>2025-04-30T06:19:36.000Z</time>
</trkpt>
<trkpt lat="45.9046780" lon="10.2576910">
	<ele>787.40</ele>
	<time>2025-04-30T06:19:37.000Z</time>
</trkpt>
<trkpt lat="45.9046800" lon="10.2576900">
	<ele>787.40</ele>
	<time>2025-04-30T06:19:38.000Z</time>
</trkpt>
<trkpt lat="45.9046830" lon="10.2576890">
	<ele>787.80</ele>
	<time>2025-04-30T06:19:39.000Z</time>
</trkpt>
<trkpt lat="45.9046870" lon="10.2576950">
	<ele>788.00</ele>
	<time>2025-04-30T06:19:40.000Z</time>
</trkpt>
<trkpt lat="45.9046910" lon="10.2576980">
	<ele>788.20</ele>
	<time>2025-04-30T06:19:41.000Z</time>
</trkpt>
<trkpt lat="45.9046910" lon="10.2576970">
	<ele>788.40</ele>
	<time>2025-04-30T06:19:42.000Z</time>
</trkpt>
<trkpt lat="45.9046920" lon="10.2576980">
	<ele>788.80</ele>
	<time>2025-04-30T06:19:43.000Z</time>
</trkpt>
<trkpt lat="45.9046960" lon="10.2577040">
	<ele>789.00</ele>
	<time>2025-04-30T06:19:44.000Z</time>
</trkpt>
<trkpt lat="45.9047000" lon="10.2577060">
	<ele>789.20</ele>
	<time>2025-04-30T06:19:45.000Z</time>
</trkpt>
<trkpt lat="45.9047010" lon="10.2577090">
	<ele>789.40</ele>
	<time>2025-04-30T06:19:46.000Z</time>
</trkpt>
<trkpt lat="45.9047030" lon="10.2577180">
	<ele>789.40</ele>
	<time>2025-04-30T06:19:47.000Z</time>
</trkpt>
<trkpt lat="45.9047080" lon="10.2577250">
	<ele>789.60</ele>
	<time>2025-04-30T06:19:48.000Z</time>
</trkpt>
<trkpt lat="45.9047090" lon="10.2577290">
	<ele>789.80</ele>
	<time>2025-04-30T06:19:49.000Z</time>
</trkpt>
<trkpt lat="45.9047090" lon="10.2577370">
	<ele>789.80</ele>
	<time>2025-04-30T06:19:50.000Z</time>
</trkpt>
<trkpt lat="45.9047100" lon="10.2577390">
	<ele>790.00</ele>
	<time>2025-04-30T06:19:51.000Z</time>
</trkpt>
<trkpt lat="45.9047120" lon="10.2577420">
	<ele>790.20</ele>
	<time>2025-04-30T06:19:52.000Z</time>
</trkpt>
<trkpt lat="45.9047160" lon="10.2577420">
	<ele>790.20</ele>
	<time>2025-04-30T06:19:53.000Z</time>
</trkpt>
<trkpt lat="45.9047210" lon="10.2577450">
	<ele>790.60</ele>
	<time>2025-04-30T06:19:54.000Z</time>
</trkpt>
<trkpt lat="45.9047240" lon="10.2577500">
	<ele>790.80</ele>
	<time>2025-04-30T06:19:55.000Z</time>
</trkpt>
<trkpt lat="45.9047240" lon="10.2577540">
	<ele>790.80</ele>
	<time>2025-04-30T06:19:56.000Z</time>
</trkpt>
<trkpt lat="45.9047240" lon="10.2577570">
	<ele>790.80</ele>
	<time>2025-04-30T06:19:57.000Z</time>
</trkpt>
<trkpt lat="45.9047260" lon="10.2577610">
	<ele>791.00</ele>
	<time>2025-04-30T06:19:58.000Z</time>
</trkpt>
<trkpt lat="45.9047310" lon="10.2577630">
	<ele>791.20</ele>
	<time>2025-04-30T06:19:59.000Z</time>
</trkpt>
<trkpt lat="45.9047330" lon="10.2577680">
	<ele>791.20</ele>
	<time>2025-04-30T06:20:00.000Z</time>
</trkpt>
<trkpt lat="45.9047350" lon="10.2577750">
	<ele>791.60</ele>
	<time>2025-04-30T06:20:01.000Z</time>
</trkpt>
<trkpt lat="45.9047400" lon="10.2577770">
	<ele>791.80</ele>
	<time>2025-04-30T06:20:02.000Z</time>
</trkpt>
<trkpt lat="45.9047440" lon="10.2577770">
	<ele>792.00</ele>
	<time>2025-04-30T06:20:03.000Z</time>
</trkpt>
<trkpt lat="45.9047470" lon="10.2577820">
	<ele>792.20</ele>
	<time>2025-04-30T06:20:04.000Z</time>
</trkpt>
<trkpt lat="45.9047470" lon="10.2577860">
	<ele>792.40</ele>
	<time>2025-04-30T06:20:05.000Z</time>
</trkpt>
<trkpt lat="45.9047490" lon="10.2577900">
	<ele>792.60</ele>
	<time>2025-04-30T06:20:06.000Z</time>
</trkpt>
<trkpt lat="45.9047490" lon="10.2577910">
	<ele>792.80</ele>
	<time>2025-04-30T06:20:07.000Z</time>
</trkpt>
<trkpt lat="45.9047480" lon="10.2577940">
	<ele>793.00</ele>
	<time>2025-04-30T06:20:08.000Z</time>
</trkpt>
<trkpt lat="45.9047480" lon="10.2577950">
	<ele>793.20</ele>
	<time>2025-04-30T06:20:09.000Z</time>
</trkpt>
<trkpt lat="45.9047500" lon="10.2577960">
	<ele>793.40</ele>
	<time>2025-04-30T06:20:10.000Z</time>
</trkpt>
<trkpt lat="45.9047520" lon="10.2577980">
	<ele>793.60</ele>
	<time>2025-04-30T06:20:11.000Z</time>
</trkpt>
<trkpt lat="45.9047550" lon="10.2578020">
	<ele>793.80</ele>
	<time>2025-04-30T06:20:12.000Z</time>
</trkpt>
<trkpt lat="45.9047590" lon="10.2578150">
	<ele>794.00</ele>
	<time>2025-04-30T06:20:13.000Z</time>
</trkpt>
<trkpt lat="45.9047590" lon="10.2578270">
	<ele>794.00</ele>
	<time>2025-04-30T06:20:14.000Z</time>
</trkpt>
<trkpt lat="45.9047620" lon="10.2578460">
	<ele>794.20</ele>
	<time>2025-04-30T06:20:15.000Z</time>
</trkpt>
<trkpt lat="45.9047630" lon="10.2578650">
	<ele>794.40</ele>
	<time>2025-04-30T06:20:16.000Z</time>
</trkpt>
<trkpt lat="45.9047630" lon="10.2578790">
	<ele>794.60</ele>
	<time>2025-04-30T06:20:17.000Z</time>
</trkpt>
<trkpt lat="45.9047640" lon="10.2578940">
	<ele>794.80</ele>
	<time>2025-04-30T06:20:18.000Z</time>
</trkpt>
<trkpt lat="45.9047670" lon="10.2579000">
	<ele>795.00</ele>
	<time>2025-04-30T06:20:19.000Z</time>
</trkpt>
<trkpt lat="45.9047700" lon="10.2579050">
	<ele>795.20</ele>
	<time>2025-04-30T06:20:20.000Z</time>
</trkpt>
<trkpt lat="45.9047730" lon="10.2579120">
	<ele>795.40</ele>
	<time>2025-04-30T06:20:21.000Z</time>
</trkpt>
<trkpt lat="45.9047800" lon="10.2579200">
	<ele>795.40</ele>
	<time>2025-04-30T06:20:22.000Z</time>
</trkpt>
<trkpt lat="45.9047840" lon="10.2579220">
	<ele>795.60</ele>
	<time>2025-04-30T06:20:23.000Z</time>
</trkpt>
<trkpt lat="45.9047880" lon="10.2579220">
	<ele>795.80</ele>
	<time>2025-04-30T06:20:24.000Z</time>
</trkpt>
<trkpt lat="45.9047900" lon="10.2579220">
	<ele>796.00</ele>
	<time>2025-04-30T06:20:25.000Z</time>
</trkpt>
<trkpt lat="45.9047870" lon="10.2579300">
	<ele>796.20</ele>
	<time>2025-04-30T06:20:26.000Z</time>
</trkpt>
<trkpt lat="45.9047870" lon="10.2579380">
	<ele>796.40</ele>
	<time>2025-04-30T06:20:27.000Z</time>
</trkpt>
<trkpt lat="45.9047890" lon="10.2579410">
	<ele>796.60</ele>
	<time>2025-04-30T06:20:28.000Z</time>
</trkpt>
<trkpt lat="45.9047880" lon="10.2579440">
	<ele>796.60</ele>
	<time>2025-04-30T06:20:29.000Z</time>
</trkpt>
<trkpt lat="45.9047840" lon="10.2579540">
	<ele>796.80</ele>
	<time>2025-04-30T06:20:30.000Z</time>
</trkpt>
<trkpt lat="45.9047820" lon="10.2579590">
	<ele>797.00</ele>
	<time>2025-04-30T06:20:31.000Z</time>
</trkpt>
<trkpt lat="45.9047800" lon="10.2579690">
	<ele>797.20</ele>
	<time>2025-04-30T06:20:32.000Z</time>
</trkpt>
<trkpt lat="45.9047810" lon="10.2579820">
	<ele>797.40</ele>
	<time>2025-04-30T06:20:33.000Z</time>
</trkpt>
<trkpt lat="45.9047810" lon="10.2579940">
	<ele>797.40</ele>
	<time>2025-04-30T06:20:34.000Z</time>
</trkpt>
<trkpt lat="45.9047900" lon="10.2579980">
	<ele>797.60</ele>
	<time>2025-04-30T06:20:35.000Z</time>
</trkpt>
<trkpt lat="45.9047990" lon="10.2580020">
	<ele>797.80</ele>
	<time>2025-04-30T06:20:36.000Z</time>
</trkpt>
<trkpt lat="45.9048160" lon="10.2580000">
	<ele>798.00</ele>
	<time>2025-04-30T06:20:37.000Z</time>
</trkpt>
<trkpt lat="45.9048130" lon="10.2580230">
	<ele>798.20</ele>
	<time>2025-04-30T06:20:38.000Z</time>
</trkpt>
<trkpt lat="45.9047990" lon="10.2580500">
	<ele>798.20</ele>
	<time>2025-04-30T06:20:39.000Z</time>
</trkpt>
<trkpt lat="45.9047930" lon="10.2580660">
	<ele>798.20</ele>
	<time>2025-04-30T06:20:40.000Z</time>
</trkpt>
<trkpt lat="45.9047930" lon="10.2580810">
	<ele>798.40</ele>
	<time>2025-04-30T06:20:41.000Z</time>
</trkpt>
<trkpt lat="45.9047940" lon="10.2580930">
	<ele>798.60</ele>
	<time>2025-04-30T06:20:42.000Z</time>
</trkpt>
<trkpt lat="45.9047930" lon="10.2580990">
	<ele>798.60</ele>
	<time>2025-04-30T06:20:43.000Z</time>
</trkpt>
<trkpt lat="45.9047910" lon="10.2581060">
	<ele>798.80</ele>
	<time>2025-04-30T06:20:44.000Z</time>
</trkpt>
<trkpt lat="45.9047910" lon="10.2581120">
	<ele>798.80</ele>
	<time>2025-04-30T06:20:45.000Z</time>
</trkpt>
<trkpt lat="45.9047910" lon="10.2581180">
	<ele>799.00</ele>
	<time>2025-04-30T06:20:46.000Z</time>
</trkpt>
<trkpt lat="45.9047950" lon="10.2581270">
	<ele>799.00</ele>
	<time>2025-04-30T06:20:47.000Z</time>
</trkpt>
<trkpt lat="45.9047990" lon="10.2581350">
	<ele>799.20</ele>
	<time>2025-04-30T06:20:48.000Z</time>
</trkpt>
<trkpt lat="45.9048030" lon="10.2581440">
	<ele>799.40</ele>
	<time>2025-04-30T06:20:49.000Z</time>
</trkpt>
<trkpt lat="45.9048070" lon="10.2581530">
	<ele>799.60</ele>
	<time>2025-04-30T06:20:50.000Z</time>
</trkpt>
<trkpt lat="45.9048080" lon="10.2581670">
	<ele>799.60</ele>
	<time>2025-04-30T06:20:51.000Z</time>
</trkpt>
<trkpt lat="45.9048100" lon="10.2581750">
	<ele>799.60</ele>
	<time>2025-04-30T06:20:52.000Z</time>
</trkpt>
<trkpt lat="45.9048130" lon="10.2581870">
	<ele>799.80</ele>
	<time>2025-04-30T06:20:53.000Z</time>
</trkpt>
<trkpt lat="45.9048150" lon="10.2582020">
	<ele>800.00</ele>
	<time>2025-04-30T06:20:54.000Z</time>
</trkpt>
<trkpt lat="45.9048160" lon="10.2582150">
	<ele>800.20</ele>
	<time>2025-04-30T06:20:55.000Z</time>
</trkpt>
<trkpt lat="45.9048210" lon="10.2582280">
	<ele>800.40</ele>
	<time>2025-04-30T06:20:56.000Z</time>
</trkpt>
<trkpt lat="45.9048290" lon="10.2582410">
	<ele>800.60</ele>
	<time>2025-04-30T06:20:57.000Z</time>
</trkpt>
<trkpt lat="45.9048290" lon="10.2582450">
	<ele>800.80</ele>
	<time>2025-04-30T06:20:58.000Z</time>
</trkpt>
<trkpt lat="45.9048300" lon="10.2582480">
	<ele>801.20</ele>
	<time>2025-04-30T06:20:59.000Z</time>
</trkpt>
<trkpt lat="45.9048340" lon="10.2582580">
	<ele>801.20</ele>
	<time>2025-04-30T06:21:00.000Z</time>
</trkpt>
<trkpt lat="45.9048380" lon="10.2582660">
	<ele>801.40</ele>
	<time>2025-04-30T06:21:01.000Z</time>
</trkpt>
<trkpt lat="45.9048460" lon="10.2582710">
	<ele>801.40</ele>
	<time>2025-04-30T06:21:02.000Z</time>
</trkpt>
<trkpt lat="45.9048520" lon="10.2582770">
	<ele>801.60</ele>
	<time>2025-04-30T06:21:03.000Z</time>
</trkpt>
<trkpt lat="45.9048530" lon="10.2582830">
	<ele>801.60</ele>
	<time>2025-04-30T06:21:04.000Z</time>
</trkpt>
<trkpt lat="45.9048560" lon="10.2582920">
	<ele>801.80</ele>
	<time>2025-04-30T06:21:05.000Z</time>
</trkpt>
<trkpt lat="45.9048560" lon="10.2582970">
	<ele>802.00</ele>
	<time>2025-04-30T06:21:06.000Z</time>
</trkpt>
<trkpt lat="45.9048580" lon="10.2583100">
	<ele>802.20</ele>
	<time>2025-04-30T06:21:07.000Z</time>
</trkpt>
<trkpt lat="45.9048620" lon="10.2583150">
	<ele>802.40</ele>
	<time>2025-04-30T06:21:08.000Z</time>
</trkpt>
<trkpt lat="45.9048660" lon="10.2583290">
	<ele>802.60</ele>
	<time>2025-04-30T06:21:09.000Z</time>
</trkpt>
<trkpt lat="45.9048670" lon="10.2583310">
	<ele>802.80</ele>
	<time>2025-04-30T06:21:10.000Z</time>
</trkpt>
<trkpt lat="45.9048680" lon="10.2583360">
	<ele>802.80</ele>
	<time>2025-04-30T06:21:11.000Z</time>
</trkpt>
<trkpt lat="45.9048700" lon="10.2583430">
	<ele>802.80</ele>
	<time>2025-04-30T06:21:12.000Z</time>
</trkpt>
<trkpt lat="45.9048740" lon="10.2583490">
	<ele>803.00</ele>
	<time>2025-04-30T06:21:13.000Z</time>
</trkpt>
<trkpt lat="45.9048800" lon="10.2583600">
	<ele>803.20</ele>
	<time>2025-04-30T06:21:14.000Z</time>
</trkpt>
<trkpt lat="45.9048900" lon="10.2583740">
	<ele>803.40</ele>
	<time>2025-04-30T06:21:15.000Z</time>
</trkpt>
<trkpt lat="45.9049000" lon="10.2583930">
	<ele>803.60</ele>
	<time>2025-04-30T06:21:16.000Z</time>
</trkpt>
<trkpt lat="45.9049000" lon="10.2584050">
	<ele>803.80</ele>
	<time>2025-04-30T06:21:17.000Z</time>
</trkpt>
<trkpt lat="45.9049010" lon="10.2584160">
	<ele>804.00</ele>
	<time>2025-04-30T06:21:18.000Z</time>
</trkpt>
<trkpt lat="45.9049030" lon="10.2584240">
	<ele>804.20</ele>
	<time>2025-04-30T06:21:19.000Z</time>
</trkpt>
<trkpt lat="45.9049050" lon="10.2584270">
	<ele>804.40</ele>
	<time>2025-04-30T06:21:20.000Z</time>
</trkpt>
<trkpt lat="45.9049160" lon="10.2584260">
	<ele>804.60</ele>
	<time>2025-04-30T06:21:21.000Z</time>
</trkpt>
<trkpt lat="45.9049250" lon="10.2584320">
	<ele>804.80</ele>
	<time>2025-04-30T06:21:22.000Z</time>
</trkpt>
<trkpt lat="45.9049240" lon="10.2584430">
	<ele>805.00</ele>
	<time>2025-04-30T06:21:23.000Z</time>
</trkpt>
<trkpt lat="45.9049220" lon="10.2584490">
	<ele>805.20</ele>
	<time>2025-04-30T06:21:24.000Z</time>
</trkpt>
<trkpt lat="45.9049200" lon="10.2584500">
	<ele>805.40</ele>
	<time>2025-04-30T06:21:25.000Z</time>
</trkpt>
<trkpt lat="45.9049040" lon="10.2584550">
	<ele>805.80</ele>
	<time>2025-04-30T06:21:26.000Z</time>
</trkpt>
<trkpt lat="45.9049040" lon="10.2584500">
	<ele>806.00</ele>
	<time>2025-04-30T06:21:27.000Z</time>
</trkpt>
<trkpt lat="45.9049120" lon="10.2584520">
	<ele>806.20</ele>
	<time>2025-04-30T06:21:28.000Z</time>
</trkpt>
<trkpt lat="45.9049190" lon="10.2584590">
	<ele>806.20</ele>
	<time>2025-04-30T06:21:29.000Z</time>
</trkpt>
<trkpt lat="45.9049270" lon="10.2584670">
	<ele>806.20</ele>
	<time>2025-04-30T06:21:30.000Z</time>
</trkpt>
<trkpt lat="45.9049270" lon="10.2584680">
	<ele>806.40</ele>
	<time>2025-04-30T06:21:31.000Z</time>
</trkpt>
<trkpt lat="45.9049390" lon="10.2584650">
	<ele>806.60</ele>
	<time>2025-04-30T06:21:32.000Z</time>
</trkpt>
<trkpt lat="45.9049380" lon="10.2584670">
	<ele>807.00</ele>
	<time>2025-04-30T06:21:33.000Z</time>
</trkpt>
<trkpt lat="45.9049400" lon="10.2584690">
	<ele>807.20</ele>
	<time>2025-04-30T06:21:34.000Z</time>
</trkpt>
<trkpt lat="45.9049430" lon="10.2584700">
	<ele>807.40</ele>
	<time>2025-04-30T06:21:35.000Z</time>
</trkpt>
<trkpt lat="45.9049460" lon="10.2584710">
	<ele>807.60</ele>
	<time>2025-04-30T06:21:36.000Z</time>
</trkpt>
<trkpt lat="45.9049430" lon="10.2584780">
	<ele>807.80</ele>
	<time>2025-04-30T06:21:37.000Z</time>
</trkpt>
<trkpt lat="45.9049400" lon="10.2584830">
	<ele>808.00</ele>
	<time>2025-04-30T06:21:38.000Z</time>
</trkpt>
<trkpt lat="45.9049460" lon="10.2584880">
	<ele>808.00</ele>
	<time>2025-04-30T06:21:39.000Z</time>
</trkpt>
<trkpt lat="45.9049510" lon="10.2584890">
	<ele>808.20</ele>
	<time>2025-04-30T06:21:40.000Z</time>
</trkpt>
<trkpt lat="45.9049670" lon="10.2584760">
	<ele>808.40</ele>
	<time>2025-04-30T06:21:41.000Z</time>
</trkpt>
<trkpt lat="45.9049820" lon="10.2584650">
	<ele>808.40</ele>
	<time>2025-04-30T06:21:42.000Z</time>
</trkpt>
<trkpt lat="45.9049840" lon="10.2584660">
	<ele>808.60</ele>
	<time>2025-04-30T06:21:43.000Z</time>
</trkpt>
<trkpt lat="45.9049940" lon="10.2584630">
	<ele>808.80</ele>
	<time>2025-04-30T06:21:44.000Z</time>
</trkpt>
<trkpt lat="45.9050040" lon="10.2584630">
	<ele>809.00</ele>
	<time>2025-04-30T06:21:45.000Z</time>
</trkpt>
<trkpt lat="45.9050070" lon="10.2584610">
	<ele>809.20</ele>
	<time>2025-04-30T06:21:46.000Z</time>
</trkpt>
<trkpt lat="45.9050190" lon="10.2584630">
	<ele>809.20</ele>
	<time>2025-04-30T06:21:47.000Z</time>
</trkpt>
<trkpt lat="45.9050220" lon="10.2584630">
	<ele>809.40</ele>
	<time>2025-04-30T06:21:48.000Z</time>
</trkpt>
<trkpt lat="45.9050410" lon="10.2584660">
	<ele>809.60</ele>
	<time>2025-04-30T06:21:49.000Z</time>
</trkpt>
<trkpt lat="45.9050570" lon="10.2584710">
	<ele>809.80</ele>
	<time>2025-04-30T06:21:50.000Z</time>
</trkpt>
<trkpt lat="45.9050630" lon="10.2584810">
	<ele>810.00</ele>
	<time>2025-04-30T06:21:51.000Z</time>
</trkpt>
<trkpt lat="45.9050740" lon="10.2584850">
	<ele>810.00</ele>
	<time>2025-04-30T06:21:52.000Z</time>
</trkpt>
<trkpt lat="45.9050800" lon="10.2584860">
	<ele>810.20</ele>
	<time>2025-04-30T06:21:53.000Z</time>
</trkpt>
<trkpt lat="45.9050830" lon="10.2584800">
	<ele>810.40</ele>
	<time>2025-04-30T06:21:54.000Z</time>
</trkpt>
<trkpt lat="45.9050840" lon="10.2584710">
	<ele>810.60</ele>
	<time>2025-04-30T06:21:55.000Z</time>
</trkpt>
<trkpt lat="45.9050870" lon="10.2584650">
	<ele>810.60</ele>
	<time>2025-04-30T06:21:56.000Z</time>
</trkpt>
<trkpt lat="45.9050900" lon="10.2584620">
	<ele>810.80</ele>
	<time>2025-04-30T06:21:57.000Z</time>
</trkpt>
<trkpt lat="45.9050930" lon="10.2584600">
	<ele>811.20</ele>
	<time>2025-04-30T06:21:58.000Z</time>
</trkpt>
<trkpt lat="45.9050950" lon="10.2584570">
	<ele>811.40</ele>
	<time>2025-04-30T06:21:59.000Z</time>
</trkpt>
<trkpt lat="45.9050970" lon="10.2584560">
	<ele>811.60</ele>
	<time>2025-04-30T06:22:00.000Z</time>
</trkpt>
<trkpt lat="45.9050970" lon="10.2584580">
	<ele>811.80</ele>
	<time>2025-04-30T06:22:01.000Z</time>
</trkpt>
<trkpt lat="45.9050990" lon="10.2584610">
	<ele>812.00</ele>
	<time>2025-04-30T06:22:02.000Z</time>
</trkpt>
<trkpt lat="45.9051010" lon="10.2584610">
	<ele>812.20</ele>
	<time>2025-04-30T06:22:03.000Z</time>
</trkpt>
<trkpt lat="45.9051140" lon="10.2584610">
	<ele>812.40</ele>
	<time>2025-04-30T06:22:04.000Z</time>
</trkpt>
<trkpt lat="45.9051270" lon="10.2584630">
	<ele>812.60</ele>
	<time>2025-04-30T06:22:05.000Z</time>
</trkpt>
<trkpt lat="45.9051380" lon="10.2584850">
	<ele>812.80</ele>
	<time>2025-04-30T06:22:06.000Z</time>
</trkpt>
<trkpt lat="45.9051460" lon="10.2585050">
	<ele>813.00</ele>
	<time>2025-04-30T06:22:07.000Z</time>
</trkpt>
<trkpt lat="45.9051460" lon="10.2585190">
	<ele>813.20</ele>
	<time>2025-04-30T06:22:08.000Z</time>
</trkpt>
<trkpt lat="45.9051550" lon="10.2585450">
	<ele>813.40</ele>
	<time>2025-04-30T06:22:09.000Z</time>
</trkpt>
<trkpt lat="45.9051580" lon="10.2585650">
	<ele>813.60</ele>
	<time>2025-04-30T06:22:10.000Z</time>
</trkpt>
<trkpt lat="45.9051600" lon="10.2585820">
	<ele>813.80</ele>
	<time>2025-04-30T06:22:11.000Z</time>
</trkpt>
<trkpt lat="45.9051680" lon="10.2585920">
	<ele>814.00</ele>
	<time>2025-04-30T06:22:12.000Z</time>
</trkpt>
<trkpt lat="45.9051810" lon="10.2585980">
	<ele>814.00</ele>
	<time>2025-04-30T06:22:13.000Z</time>
</trkpt>
<trkpt lat="45.9051950" lon="10.2585980">
	<ele>814.20</ele>
	<time>2025-04-30T06:22:14.000Z</time>
</trkpt>
<trkpt lat="45.9052060" lon="10.2585960">
	<ele>814.20</ele>
	<time>2025-04-30T06:22:15.000Z</time>
</trkpt>
<trkpt lat="45.9052160" lon="10.2586000">
	<ele>814.40</ele>
	<time>2025-04-30T06:22:16.000Z</time>
</trkpt>
<trkpt lat="45.9052220" lon="10.2586030">
	<ele>814.40</ele>
	<time>2025-04-30T06:22:17.000Z</time>
</trkpt>
<trkpt lat="45.9052240" lon="10.2586090">
	<ele>814.60</ele>
	<time>2025-04-30T06:22:18.000Z</time>
</trkpt>
<trkpt lat="45.9052260" lon="10.2586220">
	<ele>814.80</ele>
	<time>2025-04-30T06:22:19.000Z</time>
</trkpt>
<trkpt lat="45.9052280" lon="10.2586340">
	<ele>814.80</ele>
	<time>2025-04-30T06:22:20.000Z</time>
</trkpt>
<trkpt lat="45.9052260" lon="10.2586450">
	<ele>815.00</ele>
	<time>2025-04-30T06:22:21.000Z</time>
</trkpt>
<trkpt lat="45.9052240" lon="10.2586540">
	<ele>815.20</ele>
	<time>2025-04-30T06:22:22.000Z</time>
</trkpt>
<trkpt lat="45.9052250" lon="10.2586670">
	<ele>815.20</ele>
	<time>2025-04-30T06:22:23.000Z</time>
</trkpt>
<trkpt lat="45.9052310" lon="10.2586790">
	<ele>815.40</ele>
	<time>2025-04-30T06:22:24.000Z</time>
</trkpt>
<trkpt lat="45.9052340" lon="10.2586900">
	<ele>815.60</ele>
	<time>2025-04-30T06:22:25.000Z</time>
</trkpt>
<trkpt lat="45.9052370" lon="10.2587010">
	<ele>815.80</ele>
	<time>2025-04-30T06:22:26.000Z</time>
</trkpt>
<trkpt lat="45.9052390" lon="10.2587170">
	<ele>816.00</ele>
	<time>2025-04-30T06:22:27.000Z</time>
</trkpt>
<trkpt lat="45.9052440" lon="10.2587330">
	<ele>816.00</ele>
	<time>2025-04-30T06:22:28.000Z</time>
</trkpt>
<trkpt lat="45.9052470" lon="10.2587480">
	<ele>816.00</ele>
	<time>2025-04-30T06:22:29.000Z</time>
</trkpt>
<trkpt lat="45.9052530" lon="10.2587680">
	<ele>816.00</ele>
	<time>2025-04-30T06:22:30.000Z</time>
</trkpt>
<trkpt lat="45.9052560" lon="10.2587900">
	<ele>816.00</ele>
	<time>2025-04-30T06:22:31.000Z</time>
</trkpt>
<trkpt lat="45.9052550" lon="10.2587980">
	<ele>816.20</ele>
	<time>2025-04-30T06:22:32.000Z</time>
</trkpt>
<trkpt lat="45.9052480" lon="10.2588170">
	<ele>816.40</ele>
	<time>2025-04-30T06:22:33.000Z</time>
</trkpt>
<trkpt lat="45.9052450" lon="10.2588270">
	<ele>816.40</ele>
	<time>2025-04-30T06:22:34.000Z</time>
</trkpt>
<trkpt lat="45.9052410" lon="10.2588500">
	<ele>816.60</ele>
	<time>2025-04-30T06:22:35.000Z</time>
</trkpt>
<trkpt lat="45.9052320" lon="10.2588700">
	<ele>816.80</ele>
	<time>2025-04-30T06:22:36.000Z</time>
</trkpt>
<trkpt lat="45.9052340" lon="10.2588800">
	<ele>817.00</ele>
	<time>2025-04-30T06:22:37.000Z</time>
</trkpt>
<trkpt lat="45.9052380" lon="10.2588910">
	<ele>817.00</ele>
	<time>2025-04-30T06:22:38.000Z</time>
</trkpt>
<trkpt lat="45.9052410" lon="10.2589030">
	<ele>817.20</ele>
	<time>2025-04-30T06:22:39.000Z</time>
</trkpt>
<trkpt lat="45.9052450" lon="10.2589160">
	<ele>817.40</ele>
	<time>2025-04-30T06:22:40.000Z</time>
</trkpt>
<trkpt lat="45.9052580" lon="10.2589260">
	<ele>817.60</ele>
	<time>2025-04-30T06:22:41.000Z</time>
</trkpt>
<trkpt lat="45.9052730" lon="10.2589330">
	<ele>817.60</ele>
	<time>2025-04-30T06:22:42.000Z</time>
</trkpt>
<trkpt lat="45.9052770" lon="10.2589360">
	<ele>818.00</ele>
	<time>2025-04-30T06:22:43.000Z</time>
</trkpt>
<trkpt lat="45.9052840" lon="10.2589360">
	<ele>818.60</ele>
	<time>2025-04-30T06:22:44.000Z</time>
</trkpt>
<trkpt lat="45.9052860" lon="10.2589370">
	<ele>818.80</ele>
	<time>2025-04-30T06:22:45.000Z</time>
</trkpt>
<trkpt lat="45.9052870" lon="10.2589370">
	<ele>819.20</ele>
	<time>2025-04-30T06:22:46.000Z</time>
</trkpt>
<trkpt lat="45.9052880" lon="10.2589360">
	<ele>819.20</ele>
	<time>2025-04-30T06:22:47.000Z</time>
</trkpt>
<trkpt lat="45.9052880" lon="10.2589360">
	<ele>819.40</ele>
	<time>2025-04-30T06:22:48.000Z</time>
</trkpt>
<trkpt lat="45.9052880" lon="10.2589370">
	<ele>819.40</ele>
	<time>2025-04-30T06:22:49.000Z</time>
</trkpt>
<trkpt lat="45.9052960" lon="10.2589400">
	<ele>819.40</ele>
	<time>2025-04-30T06:22:50.000Z</time>
</trkpt>
<trkpt lat="45.9052940" lon="10.2589440">
	<ele>819.40</ele>
	<time>2025-04-30T06:22:51.000Z</time>
</trkpt>
<trkpt lat="45.9052960" lon="10.2589550">
	<ele>819.40</ele>
	<time>2025-04-30T06:22:52.000Z</time>
</trkpt>
<trkpt lat="45.9052990" lon="10.2589660">
	<ele>819.00</ele>
	<time>2025-04-30T06:22:53.000Z</time>
</trkpt>
<trkpt lat="45.9053100" lon="10.2589640">
	<ele>818.80</ele>
	<time>2025-04-30T06:22:54.000Z</time>
</trkpt>
<trkpt lat="45.9053160" lon="10.2589780">
	<ele>818.60</ele>
	<time>2025-04-30T06:22:55.000Z</time>
</trkpt>
<trkpt lat="45.9053210" lon="10.2589830">
	<ele>818.60</ele>
	<time>2025-04-30T06:22:56.000Z</time>
</trkpt>
<trkpt lat="45.9053270" lon="10.2589900">
	<ele>818.80</ele>
	<time>2025-04-30T06:22:57.000Z</time>
</trkpt>
<trkpt lat="45.9053360" lon="10.2589970">
	<ele>819.20</ele>
	<time>2025-04-30T06:22:58.000Z</time>
</trkpt>
<trkpt lat="45.9053440" lon="10.2590090">
	<ele>819.40</ele>
	<time>2025-04-30T06:22:59.000Z</time>
</trkpt>
<trkpt lat="45.9053440" lon="10.2590170">
	<ele>819.80</ele>
	<time>2025-04-30T06:23:00.000Z</time>
</trkpt>
<trkpt lat="45.9053470" lon="10.2590210">
	<ele>820.00</ele>
	<time>2025-04-30T06:23:01.000Z</time>
</trkpt>
<trkpt lat="45.9053520" lon="10.2590260">
	<ele>820.20</ele>
	<time>2025-04-30T06:23:02.000Z</time>
</trkpt>
<trkpt lat="45.9053590" lon="10.2590310">
	<ele>820.20</ele>
	<time>2025-04-30T06:23:03.000Z</time>
</trkpt>
<trkpt lat="45.9053640" lon="10.2590440">
	<ele>820.40</ele>
	<time>2025-04-30T06:23:04.000Z</time>
</trkpt>
<trkpt lat="45.9053660" lon="10.2590590">
	<ele>820.40</ele>
	<time>2025-04-30T06:23:05.000Z</time>
</trkpt>
<trkpt lat="45.9053690" lon="10.2590740">
	<ele>820.60</ele>
	<time>2025-04-30T06:23:06.000Z</time>
</trkpt>
<trkpt lat="45.9053750" lon="10.2590860">
	<ele>820.60</ele>
	<time>2025-04-30T06:23:07.000Z</time>
</trkpt>
<trkpt lat="45.9053850" lon="10.2590980">
	<ele>820.80</ele>
	<time>2025-04-30T06:23:08.000Z</time>
</trkpt>
<trkpt lat="45.9053870" lon="10.2591090">
	<ele>820.80</ele>
	<time>2025-04-30T06:23:09.000Z</time>
</trkpt>
<trkpt lat="45.9053900" lon="10.2591200">
	<ele>821.00</ele>
	<time>2025-04-30T06:23:10.000Z</time>
</trkpt>
<trkpt lat="45.9053890" lon="10.2591320">
	<ele>821.00</ele>
	<time>2025-04-30T06:23:11.000Z</time>
</trkpt>
<trkpt lat="45.9053920" lon="10.2591450">
	<ele>821.20</ele>
	<time>2025-04-30T06:23:12.000Z</time>
</trkpt>
<trkpt lat="45.9053930" lon="10.2591590">
	<ele>821.40</ele>
	<time>2025-04-30T06:23:13.000Z</time>
</trkpt>
<trkpt lat="45.9053950" lon="10.2591700">
	<ele>821.40</ele>
	<time>2025-04-30T06:23:14.000Z</time>
</trkpt>
<trkpt lat="45.9053950" lon="10.2591840">
	<ele>821.60</ele>
	<time>2025-04-30T06:23:15.000Z</time>
</trkpt>
<trkpt lat="45.9053970" lon="10.2591990">
	<ele>821.80</ele>
	<time>2025-04-30T06:23:16.000Z</time>
</trkpt>
<trkpt lat="45.9053960" lon="10.2592130">
	<ele>821.80</ele>
	<time>2025-04-30T06:23:17.000Z</time>
</trkpt>
<trkpt lat="45.9053960" lon="10.2592250">
	<ele>822.00</ele>
	<time>2025-04-30T06:23:18.000Z</time>
</trkpt>
<trkpt lat="45.9053950" lon="10.2592360">
	<ele>822.00</ele>
	<time>2025-04-30T06:23:19.000Z</time>
</trkpt>
<trkpt lat="45.9053940" lon="10.2592470">
	<ele>822.40</ele>
	<time>2025-04-30T06:23:20.000Z</time>
</trkpt>
<trkpt lat="45.9053920" lon="10.2592600">
	<ele>822.60</ele>
	<time>2025-04-30T06:23:21.000Z</time>
</trkpt>
<trkpt lat="45.9053920" lon="10.2592680">
	<ele>822.80</ele>
	<time>2025-04-30T06:23:22.000Z</time>
</trkpt>
<trkpt lat="45.9053890" lon="10.2592750">
	<ele>823.20</ele>
	<time>2025-04-30T06:23:23.000Z</time>
</trkpt>
<trkpt lat="45.9053860" lon="10.2592840">
	<ele>823.40</ele>
	<time>2025-04-30T06:23:24.000Z</time>
</trkpt>
<trkpt lat="45.9053820" lon="10.2592940">
	<ele>823.40</ele>
	<time>2025-04-30T06:23:25.000Z</time>
</trkpt>
<trkpt lat="45.9053790" lon="10.2593030">
	<ele>823.80</ele>
	<time>2025-04-30T06:23:26.000Z</time>
</trkpt>
<trkpt lat="45.9053790" lon="10.2593120">
	<ele>824.00</ele>
	<time>2025-04-30T06:23:27.000Z</time>
</trkpt>
<trkpt lat="45.9053820" lon="10.2593190">
	<ele>824.20</ele>
	<time>2025-04-30T06:23:28.000Z</time>
</trkpt>
<trkpt lat="45.9053810" lon="10.2593240">
	<ele>824.40</ele>
	<time>2025-04-30T06:23:29.000Z</time>
</trkpt>
<trkpt lat="45.9053770" lon="10.2593320">
	<ele>824.40</ele>
	<time>2025-04-30T06:23:30.000Z</time>
</trkpt>
<trkpt lat="45.9053740" lon="10.2593350">
	<ele>824.60</ele>
	<time>2025-04-30T06:23:31.000Z</time>
</trkpt>
<trkpt lat="45.9053690" lon="10.2593360">
	<ele>824.80</ele>
	<time>2025-04-30T06:23:32.000Z</time>
</trkpt>
<trkpt lat="45.9053670" lon="10.2593440">
	<ele>825.00</ele>
	<time>2025-04-30T06:23:33.000Z</time>
</trkpt>
<trkpt lat="45.9053650" lon="10.2593530">
	<ele>825.20</ele>
	<time>2025-04-30T06:23:34.000Z</time>
</trkpt>
<trkpt lat="45.9053650" lon="10.2593620">
	<ele>825.40</ele>
	<time>2025-04-30T06:23:35.000Z</time>
</trkpt>
<trkpt lat="45.9053680" lon="10.2593700">
	<ele>825.60</ele>
	<time>2025-04-30T06:23:36.000Z</time>
</trkpt>
<trkpt lat="45.9053730" lon="10.2593770">
	<ele>825.80</ele>
	<time>2025-04-30T06:23:37.000Z</time>
</trkpt>
<trkpt lat="45.9053780" lon="10.2593810">
	<ele>825.80</ele>
	<time>2025-04-30T06:23:38.000Z</time>
</trkpt>
<trkpt lat="45.9053850" lon="10.2593890">
	<ele>826.00</ele>
	<time>2025-04-30T06:23:39.000Z</time>
</trkpt>
<trkpt lat="45.9053890" lon="10.2593890">
	<ele>826.20</ele>
	<time>2025-04-30T06:23:40.000Z</time>
</trkpt>
<trkpt lat="45.9053910" lon="10.2593930">
	<ele>826.60</ele>
	<time>2025-04-30T06:23:41.000Z</time>
</trkpt>
<trkpt lat="45.9053890" lon="10.2594020">
	<ele>827.00</ele>
	<time>2025-04-30T06:23:42.000Z</time>
</trkpt>
<trkpt lat="45.9053920" lon="10.2594040">
	<ele>827.00</ele>
	<time>2025-04-30T06:23:43.000Z</time>
</trkpt>
<trkpt lat="45.9053970" lon="10.2594080">
	<ele>827.20</ele>
	<time>2025-04-30T06:23:44.000Z</time>
</trkpt>
<trkpt lat="45.9054000" lon="10.2594100">
	<ele>827.40</ele>
	<time>2025-04-30T06:23:45.000Z</time>
</trkpt>
<trkpt lat="45.9054020" lon="10.2594210">
	<ele>827.60</ele>
	<time>2025-04-30T06:23:46.000Z</time>
</trkpt>
<trkpt lat="45.9054050" lon="10.2594260">
	<ele>827.80</ele>
	<time>2025-04-30T06:23:47.000Z</time>
</trkpt>
<trkpt lat="45.9054060" lon="10.2594300">
	<ele>828.00</ele>
	<time>2025-04-30T06:23:48.000Z</time>
</trkpt>
<trkpt lat="45.9054070" lon="10.2594350">
	<ele>828.20</ele>
	<time>2025-04-30T06:23:49.000Z</time>
</trkpt>
<trkpt lat="45.9054090" lon="10.2594400">
	<ele>828.40</ele>
	<time>2025-04-30T06:23:50.000Z</time>
</trkpt>
<trkpt lat="45.9054180" lon="10.2594450">
	<ele>828.40</ele>
	<time>2025-04-30T06:23:51.000Z</time>
</trkpt>
<trkpt lat="45.9054200" lon="10.2594480">
	<ele>828.60</ele>
	<time>2025-04-30T06:23:52.000Z</time>
</trkpt>
<trkpt lat="45.9054270" lon="10.2594450">
	<ele>828.80</ele>
	<time>2025-04-30T06:23:53.000Z</time>
</trkpt>
<trkpt lat="45.9054260" lon="10.2594470">
	<ele>829.20</ele>
	<time>2025-04-30T06:23:54.000Z</time>
</trkpt>
<trkpt lat="45.9054290" lon="10.2594510">
	<ele>829.20</ele>
	<time>2025-04-30T06:23:55.000Z</time>
</trkpt>
<trkpt lat="45.9054310" lon="10.2594520">
	<ele>829.40</ele>
	<time>2025-04-30T06:23:56.000Z</time>
</trkpt>
<trkpt lat="45.9054280" lon="10.2594660">
	<ele>829.80</ele>
	<time>2025-04-30T06:23:57.000Z</time>
</trkpt>
<trkpt lat="45.9054240" lon="10.2594830">
	<ele>830.00</ele>
	<time>2025-04-30T06:23:58.000Z</time>
</trkpt>
<trkpt lat="45.9054200" lon="10.2594970">
	<ele>830.20</ele>
	<time>2025-04-30T06:23:59.000Z</time>
</trkpt>
<trkpt lat="45.9054150" lon="10.2595200">
	<ele>830.40</ele>
	<time>2025-04-30T06:24:00.000Z</time>
</trkpt>
<trkpt lat="45.9054140" lon="10.2595360">
	<ele>830.60</ele>
	<time>2025-04-30T06:24:01.000Z</time>
</trkpt>
<trkpt lat="45.9054110" lon="10.2595490">
	<ele>830.60</ele>
	<time>2025-04-30T06:24:02.000Z</time>
</trkpt>
<trkpt lat="45.9054080" lon="10.2595630">
	<ele>830.80</ele>
	<time>2025-04-30T06:24:03.000Z</time>
</trkpt>
<trkpt lat="45.9054070" lon="10.2595730">
	<ele>831.00</ele>
	<time>2025-04-30T06:24:04.000Z</time>
</trkpt>
<trkpt lat="45.9054080" lon="10.2595810">
	<ele>831.20</ele>
	<time>2025-04-30T06:24:05.000Z</time>
</trkpt>
<trkpt lat="45.9054140" lon="10.2595830">
	<ele>831.40</ele>
	<time>2025-04-30T06:24:06.000Z</time>
</trkpt>
<trkpt lat="45.9054210" lon="10.2595860">
	<ele>831.40</ele>
	<time>2025-04-30T06:24:07.000Z</time>
</trkpt>
<trkpt lat="45.9054270" lon="10.2595840">
	<ele>831.60</ele>
	<time>2025-04-30T06:24:08.000Z</time>
</trkpt>
<trkpt lat="45.9054290" lon="10.2595840">
	<ele>831.80</ele>
	<time>2025-04-30T06:24:09.000Z</time>
</trkpt>
<trkpt lat="45.9054330" lon="10.2595900">
	<ele>831.80</ele>
	<time>2025-04-30T06:24:10.000Z</time>
</trkpt>
<trkpt lat="45.9054390" lon="10.2595950">
	<ele>832.20</ele>
	<time>2025-04-30T06:24:11.000Z</time>
</trkpt>
<trkpt lat="45.9054440" lon="10.2596000">
	<ele>832.20</ele>
	<time>2025-04-30T06:24:12.000Z</time>
</trkpt>
<trkpt lat="45.9054430" lon="10.2596010">
	<ele>832.40</ele>
	<time>2025-04-30T06:24:13.000Z</time>
</trkpt>
<trkpt lat="45.9054460" lon="10.2596050">
	<ele>832.60</ele>
	<time>2025-04-30T06:24:14.000Z</time>
</trkpt>
<trkpt lat="45.9054540" lon="10.2596080">
	<ele>833.00</ele>
	<time>2025-04-30T06:24:15.000Z</time>
</trkpt>
<trkpt lat="45.9054590" lon="10.2596110">
	<ele>833.20</ele>
	<time>2025-04-30T06:24:16.000Z</time>
</trkpt>
<trkpt lat="45.9054620" lon="10.2596250">
	<ele>833.40</ele>
	<time>2025-04-30T06:24:17.000Z</time>
</trkpt>
<trkpt lat="45.9054640" lon="10.2596360">
	<ele>833.60</ele>
	<time>2025-04-30T06:24:18.000Z</time>
</trkpt>
<trkpt lat="45.9054620" lon="10.2596370">
	<ele>833.80</ele>
	<time>2025-04-30T06:24:19.000Z</time>
</trkpt>
<trkpt lat="45.9054660" lon="10.2596430">
	<ele>834.00</ele>
	<time>2025-04-30T06:24:20.000Z</time>
</trkpt>
<trkpt lat="45.9054670" lon="10.2596470">
	<ele>834.20</ele>
	<time>2025-04-30T06:24:21.000Z</time>
</trkpt>
<trkpt lat="45.9054690" lon="10.2596500">
	<ele>834.20</ele>
	<time>2025-04-30T06:24:22.000Z</time>
</trkpt>
<trkpt lat="45.9054720" lon="10.2596650">
	<ele>834.40</ele>
	<time>2025-04-30T06:24:23.000Z</time>
</trkpt>
<trkpt lat="45.9054730" lon="10.2596870">
	<ele>834.60</ele>
	<time>2025-04-30T06:24:24.000Z</time>
</trkpt>
<trkpt lat="45.9054740" lon="10.2597060">
	<ele>834.80</ele>
	<time>2025-04-30T06:24:25.000Z</time>
</trkpt>
<trkpt lat="45.9054740" lon="10.2597270">
	<ele>835.00</ele>
	<time>2025-04-30T06:24:26.000Z</time>
</trkpt>
<trkpt lat="45.9054700" lon="10.2597450">
	<ele>835.20</ele>
	<time>2025-04-30T06:24:27.000Z</time>
</trkpt>
<trkpt lat="45.9054640" lon="10.2597560">
	<ele>835.40</ele>
	<time>2025-04-30T06:24:28.000Z</time>
</trkpt>
<trkpt lat="45.9054650" lon="10.2597750">
	<ele>835.60</ele>
	<time>2025-04-30T06:24:29.000Z</time>
</trkpt>
<trkpt lat="45.9054680" lon="10.2597830">
	<ele>835.80</ele>
	<time>2025-04-30T06:24:30.000Z</time>
</trkpt>
<trkpt lat="45.9054750" lon="10.2597910">
	<ele>835.80</ele>
	<time>2025-04-30T06:24:31.000Z</time>
</trkpt>
<trkpt lat="45.9054810" lon="10.2597950">
	<ele>836.20</ele>
	<time>2025-04-30T06:24:32.000Z</time>
</trkpt>
<trkpt lat="45.9054880" lon="10.2597980">
	<ele>836.40</ele>
	<time>2025-04-30T06:24:33.000Z</time>
</trkpt>
<trkpt lat="45.9054920" lon="10.2598060">
	<ele>836.40</ele>
	<time>2025-04-30T06:24:34.000Z</time>
</trkpt>
<trkpt lat="45.9054970" lon="10.2598130">
	<ele>836.40</ele>
	<time>2025-04-30T06:24:35.000Z</time>
</trkpt>
<trkpt lat="45.9055050" lon="10.2598220">
	<ele>836.60</ele>
	<time>2025-04-30T06:24:36.000Z</time>
</trkpt>
<trkpt lat="45.9055140" lon="10.2598330">
	<ele>836.80</ele>
	<time>2025-04-30T06:24:37.000Z</time>
</trkpt>
<trkpt lat="45.9055220" lon="10.2598380">
	<ele>836.80</ele>
	<time>2025-04-30T06:24:38.000Z</time>
</trkpt>
<trkpt lat="45.9055310" lon="10.2598430">
	<ele>837.00</ele>
	<time>2025-04-30T06:24:39.000Z</time>
</trkpt>
<trkpt lat="45.9055350" lon="10.2598540">
	<ele>837.00</ele>
	<time>2025-04-30T06:24:40.000Z</time>
</trkpt>
<trkpt lat="45.9055400" lon="10.2598650">
	<ele>837.20</ele>
	<time>2025-04-30T06:24:41.000Z</time>
</trkpt>
<trkpt lat="45.9055430" lon="10.2598740">
	<ele>837.40</ele>
	<time>2025-04-30T06:24:42.000Z</time>
</trkpt>
<trkpt lat="45.9055440" lon="10.2598880">
	<ele>837.60</ele>
	<time>2025-04-30T06:24:43.000Z</time>
</trkpt>
<trkpt lat="45.9055510" lon="10.2599000">
	<ele>838.00</ele>
	<time>2025-04-30T06:24:44.000Z</time>
</trkpt>
<trkpt lat="45.9055530" lon="10.2599070">
	<ele>838.00</ele>
	<time>2025-04-30T06:24:45.000Z</time>
</trkpt>
<trkpt lat="45.9055580" lon="10.2599130">
	<ele>838.20</ele>
	<time>2025-04-30T06:24:46.000Z</time>
</trkpt>
<trkpt lat="45.9055590" lon="10.2599250">
	<ele>838.40</ele>
	<time>2025-04-30T06:24:47.000Z</time>
</trkpt>
<trkpt lat="45.9055610" lon="10.2599300">
	<ele>838.60</ele>
	<time>2025-04-30T06:24:48.000Z</time>
</trkpt>
<trkpt lat="45.9055610" lon="10.2599350">
	<ele>838.80</ele>
	<time>2025-04-30T06:24:49.000Z</time>
</trkpt>
<trkpt lat="45.9055630" lon="10.2599430">
	<ele>839.00</ele>
	<time>2025-04-30T06:24:50.000Z</time>
</trkpt>
<trkpt lat="45.9055670" lon="10.2599580">
	<ele>839.20</ele>
	<time>2025-04-30T06:24:51.000Z</time>
</trkpt>
<trkpt lat="45.9055730" lon="10.2599720">
	<ele>839.20</ele>
	<time>2025-04-30T06:24:52.000Z</time>
</trkpt>
<trkpt lat="45.9055710" lon="10.2599840">
	<ele>839.40</ele>
	<time>2025-04-30T06:24:53.000Z</time>
</trkpt>
<trkpt lat="45.9055650" lon="10.2599970">
	<ele>839.60</ele>
	<time>2025-04-30T06:24:54.000Z</time>
</trkpt>
<trkpt lat="45.9055560" lon="10.2600090">
	<ele>839.80</ele>
	<time>2025-04-30T06:24:55.000Z</time>
</trkpt>
<trkpt lat="45.9055460" lon="10.2600200">
	<ele>840.20</ele>
	<time>2025-04-30T06:24:56.000Z</time>
</trkpt>
<trkpt lat="45.9055400" lon="10.2600350">
	<ele>840.40</ele>
	<time>2025-04-30T06:24:57.000Z</time>
</trkpt>
<trkpt lat="45.9055360" lon="10.2600560">
	<ele>840.60</ele>
	<time>2025-04-30T06:24:58.000Z</time>
</trkpt>
<trkpt lat="45.9055360" lon="10.2600680">
	<ele>840.60</ele>
	<time>2025-04-30T06:24:59.000Z</time>
</trkpt>
<trkpt lat="45.9055460" lon="10.2600740">
	<ele>840.80</ele>
	<time>2025-04-30T06:25:00.000Z</time>
</trkpt>
<trkpt lat="45.9055500" lon="10.2600770">
	<ele>841.00</ele>
	<time>2025-04-30T06:25:01.000Z</time>
</trkpt>
<trkpt lat="45.9055510" lon="10.2600770">
	<ele>841.20</ele>
	<time>2025-04-30T06:25:02.000Z</time>
</trkpt>
<trkpt lat="45.9055500" lon="10.2600860">
	<ele>841.40</ele>
	<time>2025-04-30T06:25:03.000Z</time>
</trkpt>
<trkpt lat="45.9055490" lon="10.2600930">
	<ele>841.60</ele>
	<time>2025-04-30T06:25:04.000Z</time>
</trkpt>
<trkpt lat="45.9055510" lon="10.2600990">
	<ele>841.80</ele>
	<time>2025-04-30T06:25:05.000Z</time>
</trkpt>
<trkpt lat="45.9055540" lon="10.2601050">
	<ele>842.00</ele>
	<time>2025-04-30T06:25:06.000Z</time>
</trkpt>
<trkpt lat="45.9055560" lon="10.2601130">
	<ele>842.20</ele>
	<time>2025-04-30T06:25:07.000Z</time>
</trkpt>
<trkpt lat="45.9055590" lon="10.2601130">
	<ele>842.20</ele>
	<time>2025-04-30T06:25:08.000Z</time>
</trkpt>
<trkpt lat="45.9055640" lon="10.2601180">
	<ele>842.40</ele>
	<time>2025-04-30T06:25:09.000Z</time>
</trkpt>
<trkpt lat="45.9055690" lon="10.2601290">
	<ele>842.60</ele>
	<time>2025-04-30T06:25:10.000Z</time>
</trkpt>
<trkpt lat="45.9055710" lon="10.2601440">
	<ele>842.80</ele>
	<time>2025-04-30T06:25:11.000Z</time>
</trkpt>
<trkpt lat="45.9055760" lon="10.2601620">
	<ele>842.80</ele>
	<time>2025-04-30T06:25:12.000Z</time>
</trkpt>
<trkpt lat="45.9055750" lon="10.2601720">
	<ele>843.00</ele>
	<time>2025-04-30T06:25:13.000Z</time>
</trkpt>
<trkpt lat="45.9055740" lon="10.2601820">
	<ele>843.20</ele>
	<time>2025-04-30T06:25:14.000Z</time>
</trkpt>
<trkpt lat="45.9055740" lon="10.2601910">
	<ele>843.40</ele>
	<time>2025-04-30T06:25:15.000Z</time>
</trkpt>
<trkpt lat="45.9055810" lon="10.2601990">
	<ele>843.40</ele>
	<time>2025-04-30T06:25:16.000Z</time>
</trkpt>
<trkpt lat="45.9055880" lon="10.2602030">
	<ele>843.60</ele>
	<time>2025-04-30T06:25:17.000Z</time>
</trkpt>
<trkpt lat="45.9055920" lon="10.2602070">
	<ele>843.60</ele>
	<time>2025-04-30T06:25:18.000Z</time>
</trkpt>
<trkpt lat="45.9055960" lon="10.2602150">
	<ele>843.80</ele>
	<time>2025-04-30T06:25:19.000Z</time>
</trkpt>
<trkpt lat="45.9056010" lon="10.2602230">
	<ele>844.00</ele>
	<time>2025-04-30T06:25:20.000Z</time>
</trkpt>
<trkpt lat="45.9056060" lon="10.2602310">
	<ele>844.20</ele>
	<time>2025-04-30T06:25:21.000Z</time>
</trkpt>
<trkpt lat="45.9056120" lon="10.2602400">
	<ele>844.40</ele>
	<time>2025-04-30T06:25:22.000Z</time>
</trkpt>
<trkpt lat="45.9056130" lon="10.2602500">
	<ele>844.60</ele>
	<time>2025-04-30T06:25:23.000Z</time>
</trkpt>
<trkpt lat="45.9056140" lon="10.2602570">
	<ele>845.00</ele>
	<time>2025-04-30T06:25:24.000Z</time>
</trkpt>
<trkpt lat="45.9056160" lon="10.2602660">
	<ele>845.00</ele>
	<time>2025-04-30T06:25:25.000Z</time>
</trkpt>
<trkpt lat="45.9056180" lon="10.2602700">
	<ele>845.20</ele>
	<time>2025-04-30T06:25:26.000Z</time>
</trkpt>
<trkpt lat="45.9056190" lon="10.2602770">
	<ele>845.20</ele>
	<time>2025-04-30T06:25:27.000Z</time>
</trkpt>
<trkpt lat="45.9056210" lon="10.2602850">
	<ele>845.40</ele>
	<time>2025-04-30T06:25:28.000Z</time>
</trkpt>
<trkpt lat="45.9056210" lon="10.2602930">
	<ele>845.60</ele>
	<time>2025-04-30T06:25:29.000Z</time>
</trkpt>
<trkpt lat="45.9056210" lon="10.2603040">
	<ele>845.80</ele>
	<time>2025-04-30T06:25:30.000Z</time>
</trkpt>
<trkpt lat="45.9056220" lon="10.2603170">
	<ele>846.00</ele>
	<time>2025-04-30T06:25:31.000Z</time>
</trkpt>
<trkpt lat="45.9056280" lon="10.2603260">
	<ele>846.40</ele>
	<time>2025-04-30T06:25:32.000Z</time>
</trkpt>
<trkpt lat="45.9056330" lon="10.2603330">
	<ele>846.60</ele>
	<time>2025-04-30T06:25:33.000Z</time>
</trkpt>
<trkpt lat="45.9056360" lon="10.2603370">
	<ele>846.80</ele>
	<time>2025-04-30T06:25:34.000Z</time>
</trkpt>
<trkpt lat="45.9056340" lon="10.2603440">
	<ele>847.00</ele>
	<time>2025-04-30T06:25:35.000Z</time>
</trkpt>
<trkpt lat="45.9056360" lon="10.2603460">
	<ele>847.20</ele>
	<time>2025-04-30T06:25:36.000Z</time>
</trkpt>
<trkpt lat="45.9056400" lon="10.2603510">
	<ele>847.40</ele>
	<time>2025-04-30T06:25:37.000Z</time>
</trkpt>
<trkpt lat="45.9056380" lon="10.2603680">
	<ele>847.60</ele>
	<time>2025-04-30T06:25:38.000Z</time>
</trkpt>
<trkpt lat="45.9056330" lon="10.2603830">
	<ele>847.60</ele>
	<time>2025-04-30T06:25:39.000Z</time>
</trkpt>
<trkpt lat="45.9056360" lon="10.2603950">
	<ele>847.80</ele>
	<time>2025-04-30T06:25:40.000Z</time>
</trkpt>
<trkpt lat="45.9056400" lon="10.2604080">
	<ele>847.80</ele>
	<time>2025-04-30T06:25:41.000Z</time>
</trkpt>
<trkpt lat="45.9056410" lon="10.2604230">
	<ele>848.00</ele>
	<time>2025-04-30T06:25:42.000Z</time>
</trkpt>
<trkpt lat="45.9056420" lon="10.2604320">
	<ele>848.00</ele>
	<time>2025-04-30T06:25:43.000Z</time>
</trkpt>
<trkpt lat="45.9056450" lon="10.2604430">
	<ele>848.20</ele>
	<time>2025-04-30T06:25:44.000Z</time>
</trkpt>
<trkpt lat="45.9056440" lon="10.2604530">
	<ele>848.40</ele>
	<time>2025-04-30T06:25:45.000Z</time>
</trkpt>
<trkpt lat="45.9056430" lon="10.2604640">
	<ele>848.40</ele>
	<time>2025-04-30T06:25:46.000Z</time>
</trkpt>
<trkpt lat="45.9056440" lon="10.2604790">
	<ele>848.60</ele>
	<time>2025-04-30T06:25:47.000Z</time>
</trkpt>
<trkpt lat="45.9056500" lon="10.2604920">
	<ele>848.80</ele>
	<time>2025-04-30T06:25:48.000Z</time>
</trkpt>
<trkpt lat="45.9056570" lon="10.2604990">
	<ele>848.80</ele>
	<time>2025-04-30T06:25:49.000Z</time>
</trkpt>
<trkpt lat="45.9056650" lon="10.2605060">
	<ele>849.00</ele>
	<time>2025-04-30T06:25:50.000Z</time>
</trkpt>
<trkpt lat="45.9056710" lon="10.2605130">
	<ele>849.20</ele>
	<time>2025-04-30T06:25:51.000Z</time>
</trkpt>
<trkpt lat="45.9056720" lon="10.2605210">
	<ele>849.20</ele>
	<time>2025-04-30T06:25:52.000Z</time>
</trkpt>
<trkpt lat="45.9056750" lon="10.2605320">
	<ele>849.40</ele>
	<time>2025-04-30T06:25:53.000Z</time>
</trkpt>
<trkpt lat="45.9056760" lon="10.2605420">
	<ele>849.40</ele>
	<time>2025-04-30T06:25:54.000Z</time>
</trkpt>
<trkpt lat="45.9056760" lon="10.2605530">
	<ele>849.40</ele>
	<time>2025-04-30T06:25:55.000Z</time>
</trkpt>
<trkpt lat="45.9056790" lon="10.2605690">
	<ele>849.60</ele>
	<time>2025-04-30T06:25:56.000Z</time>
</trkpt>
<trkpt lat="45.9056850" lon="10.2605760">
	<ele>849.60</ele>
	<time>2025-04-30T06:25:57.000Z</time>
</trkpt>
<trkpt lat="45.9056860" lon="10.2605800">
	<ele>850.00</ele>
	<time>2025-04-30T06:25:58.000Z</time>
</trkpt>
<trkpt lat="45.9056870" lon="10.2605810">
	<ele>850.20</ele>
	<time>2025-04-30T06:25:59.000Z</time>
</trkpt>
<trkpt lat="45.9056870" lon="10.2605820">
	<ele>850.20</ele>
	<time>2025-04-30T06:26:00.000Z</time>
</trkpt>
<trkpt lat="45.9056820" lon="10.2605910">
	<ele>850.20</ele>
	<time>2025-04-30T06:26:01.000Z</time>
</trkpt>
<trkpt lat="45.9056800" lon="10.2606020">
	<ele>850.40</ele>
	<time>2025-04-30T06:26:02.000Z</time>
</trkpt>
<trkpt lat="45.9056750" lon="10.2606160">
	<ele>850.20</ele>
	<time>2025-04-30T06:26:03.000Z</time>
</trkpt>
<trkpt lat="45.9056680" lon="10.2606330">
	<ele>850.20</ele>
	<time>2025-04-30T06:26:04.000Z</time>
</trkpt>
<trkpt lat="45.9056560" lon="10.2606480">
	<ele>850.20</ele>
	<time>2025-04-30T06:26:05.000Z</time>
</trkpt>
<trkpt lat="45.9056510" lon="10.2606610">
	<ele>850.20</ele>
	<time>2025-04-30T06:26:06.000Z</time>
</trkpt>
<trkpt lat="45.9056570" lon="10.2606770">
	<ele>850.40</ele>
	<time>2025-04-30T06:26:07.000Z</time>
</trkpt>
<trkpt lat="45.9056620" lon="10.2606960">
	<ele>850.40</ele>
	<time>2025-04-30T06:26:08.000Z</time>
</trkpt>
<trkpt lat="45.9056630" lon="10.2607080">
	<ele>850.40</ele>
	<time>2025-04-30T06:26:09.000Z</time>
</trkpt>
<trkpt lat="45.9056630" lon="10.2607140">
	<ele>850.60</ele>
	<time>2025-04-30T06:26:10.000Z</time>
</trkpt>
<trkpt lat="45.9056570" lon="10.2607230">
	<ele>850.80</ele>
	<time>2025-04-30T06:26:11.000Z</time>
</trkpt>
<trkpt lat="45.9056520" lon="10.2607300">
	<ele>851.00</ele>
	<time>2025-04-30T06:26:12.000Z</time>
</trkpt>
<trkpt lat="45.9056470" lon="10.2607410">
	<ele>851.20</ele>
	<time>2025-04-30T06:26:13.000Z</time>
</trkpt>
<trkpt lat="45.9056420" lon="10.2607480">
	<ele>851.40</ele>
	<time>2025-04-30T06:26:14.000Z</time>
</trkpt>
<trkpt lat="45.9056460" lon="10.2607600">
	<ele>851.60</ele>
	<time>2025-04-30T06:26:15.000Z</time>
</trkpt>
<trkpt lat="45.9056490" lon="10.2607630">
	<ele>851.80</ele>
	<time>2025-04-30T06:26:16.000Z</time>
</trkpt>
<trkpt lat="45.9056540" lon="10.2607670">
	<ele>852.00</ele>
	<time>2025-04-30T06:26:17.000Z</time>
</trkpt>
<trkpt lat="45.9056700" lon="10.2607660">
	<ele>852.60</ele>
	<time>2025-04-30T06:26:18.000Z</time>
</trkpt>
<trkpt lat="45.9056740" lon="10.2607860">
	<ele>853.00</ele>
	<time>2025-04-30T06:26:19.000Z</time>
</trkpt>
<trkpt lat="45.9056760" lon="10.2607930">
	<ele>853.20</ele>
	<time>2025-04-30T06:26:20.000Z</time>
</trkpt>
<trkpt lat="45.9056830" lon="10.2607960">
	<ele>853.40</ele>
	<time>2025-04-30T06:26:21.000Z</time>
</trkpt>
<trkpt lat="45.9056860" lon="10.2607890">
	<ele>853.60</ele>
	<time>2025-04-30T06:26:22.000Z</time>
</trkpt>
<trkpt lat="45.9056840" lon="10.2607850">
	<ele>853.60</ele>
	<time>2025-04-30T06:26:23.000Z</time>
</trkpt>
<trkpt lat="45.9056820" lon="10.2607950">
	<ele>853.80</ele>
	<time>2025-04-30T06:26:24.000Z</time>
</trkpt>
<trkpt lat="45.9056770" lon="10.2608000">
	<ele>854.00</ele>
	<time>2025-04-30T06:26:25.000Z</time>
</trkpt>
<trkpt lat="45.9056740" lon="10.2608060">
	<ele>854.20</ele>
	<time>2025-04-30T06:26:26.000Z</time>
</trkpt>
<trkpt lat="45.9056740" lon="10.2608140">
	<ele>854.60</ele>
	<time>2025-04-30T06:26:27.000Z</time>
</trkpt>
<trkpt lat="45.9056730" lon="10.2608170">
	<ele>854.80</ele>
	<time>2025-04-30T06:26:28.000Z</time>
</trkpt>
<trkpt lat="45.9056730" lon="10.2608210">
	<ele>855.00</ele>
	<time>2025-04-30T06:26:29.000Z</time>
</trkpt>
<trkpt lat="45.9056670" lon="10.2608200">
	<ele>855.20</ele>
	<time>2025-04-30T06:26:30.000Z</time>
</trkpt>
<trkpt lat="45.9056650" lon="10.2608240">
	<ele>855.40</ele>
	<time>2025-04-30T06:26:31.000Z</time>
</trkpt>
<trkpt lat="45.9056600" lon="10.2608310">
	<ele>855.40</ele>
	<time>2025-04-30T06:26:32.000Z</time>
</trkpt>
<trkpt lat="45.9056570" lon="10.2608350">
	<ele>855.80</ele>
	<time>2025-04-30T06:26:33.000Z</time>
</trkpt>
<trkpt lat="45.9056520" lon="10.2608420">
	<ele>856.00</ele>
	<time>2025-04-30T06:26:34.000Z</time>
</trkpt>
<trkpt lat="45.9056540" lon="10.2608470">
	<ele>856.00</ele>
	<time>2025-04-30T06:26:35.000Z</time>
</trkpt>
<trkpt lat="45.9056560" lon="10.2608530">
	<ele>856.20</ele>
	<time>2025-04-30T06:26:36.000Z</time>
</trkpt>
<trkpt lat="45.9056520" lon="10.2608630">
	<ele>856.60</ele>
	<time>2025-04-30T06:26:37.000Z</time>
</trkpt>
<trkpt lat="45.9056480" lon="10.2608720">
	<ele>856.60</ele>
	<time>2025-04-30T06:26:38.000Z</time>
</trkpt>
<trkpt lat="45.9056400" lon="10.2608770">
	<ele>856.80</ele>
	<time>2025-04-30T06:26:39.000Z</time>
</trkpt>
<trkpt lat="45.9056320" lon="10.2608890">
	<ele>857.00</ele>
	<time>2025-04-30T06:26:40.000Z</time>
</trkpt>
<trkpt lat="45.9056300" lon="10.2608920">
	<ele>857.20</ele>
	<time>2025-04-30T06:26:41.000Z</time>
</trkpt>
<trkpt lat="45.9056260" lon="10.2609000">
	<ele>857.40</ele>
	<time>2025-04-30T06:26:42.000Z</time>
</trkpt>
<trkpt lat="45.9056230" lon="10.2609050">
	<ele>857.80</ele>
	<time>2025-04-30T06:26:43.000Z</time>
</trkpt>
<trkpt lat="45.9056170" lon="10.2609080">
	<ele>858.00</ele>
	<time>2025-04-30T06:26:44.000Z</time>
</trkpt>
<trkpt lat="45.9056110" lon="10.2609110">
	<ele>858.00</ele>
	<time>2025-04-30T06:26:45.000Z</time>
</trkpt>
<trkpt lat="45.9056060" lon="10.2609160">
	<ele>858.40</ele>
	<time>2025-04-30T06:26:46.000Z</time>
</trkpt>
<trkpt lat="45.9056010" lon="10.2609220">
	<ele>858.60</ele>
	<time>2025-04-30T06:26:47.000Z</time>
</trkpt>
<trkpt lat="45.9055970" lon="10.2609250">
	<ele>858.60</ele>
	<time>2025-04-30T06:26:48.000Z</time>
</trkpt>
<trkpt lat="45.9055890" lon="10.2609320">
	<ele>859.00</ele>
	<time>2025-04-30T06:26:49.000Z</time>
</trkpt>
<trkpt lat="45.9055860" lon="10.2609460">
	<ele>859.20</ele>
	<time>2025-04-30T06:26:50.000Z</time>
</trkpt>
<trkpt lat="45.9055840" lon="10.2609570">
	<ele>859.20</ele>
	<time>2025-04-30T06:26:51.000Z</time>
</trkpt>
<trkpt lat="45.9055830" lon="10.2609680">
	<ele>859.60</ele>
	<time>2025-04-30T06:26:52.000Z</time>
</trkpt>
<trkpt lat="45.9055800" lon="10.2609760">
	<ele>859.80</ele>
	<time>2025-04-30T06:26:53.000Z</time>
</trkpt>
<trkpt lat="45.9055750" lon="10.2609800">
	<ele>860.00</ele>
	<time>2025-04-30T06:26:54.000Z</time>
</trkpt>
<trkpt lat="45.9055690" lon="10.2609890">
	<ele>860.20</ele>
	<time>2025-04-30T06:26:55.000Z</time>
</trkpt>
<trkpt lat="45.9055630" lon="10.2609970">
	<ele>860.40</ele>
	<time>2025-04-30T06:26:56.000Z</time>
</trkpt>
<trkpt lat="45.9055600" lon="10.2610030">
	<ele>860.40</ele>
	<time>2025-04-30T06:26:57.000Z</time>
</trkpt>
<trkpt lat="45.9055540" lon="10.2610010">
	<ele>860.60</ele>
	<time>2025-04-30T06:26:58.000Z</time>
</trkpt>
<trkpt lat="45.9055480" lon="10.2610000">
	<ele>860.80</ele>
	<time>2025-04-30T06:26:59.000Z</time>
</trkpt>
<trkpt lat="45.9055440" lon="10.2610030">
	<ele>860.80</ele>
	<time>2025-04-30T06:27:00.000Z</time>
</trkpt>
<trkpt lat="45.9055380" lon="10.2610120">
	<ele>861.20</ele>
	<time>2025-04-30T06:27:01.000Z</time>
</trkpt>
<trkpt lat="45.9055320" lon="10.2610190">
	<ele>861.40</ele>
	<time>2025-04-30T06:27:02.000Z</time>
</trkpt>
<trkpt lat="45.9055280" lon="10.2610240">
	<ele>861.60</ele>
	<time>2025-04-30T06:27:03.000Z</time>
</trkpt>
<trkpt lat="45.9055270" lon="10.2610270">
	<ele>861.80</ele>
	<time>2025-04-30T06:27:04.000Z</time>
</trkpt>
<trkpt lat="45.9055200" lon="10.2610320">
	<ele>862.00</ele>
	<time>2025-04-30T06:27:05.000Z</time>
</trkpt>
<trkpt lat="45.9055140" lon="10.2610350">
	<ele>862.20</ele>
	<time>2025-04-30T06:27:06.000Z</time>
</trkpt>
<trkpt lat="45.9055110" lon="10.2610310">
	<ele>862.20</ele>
	<time>2025-04-30T06:27:07.000Z</time>
</trkpt>
<trkpt lat="45.9055040" lon="10.2610290">
	<ele>862.60</ele>
	<time>2025-04-30T06:27:08.000Z</time>
</trkpt>
<trkpt lat="45.9054970" lon="10.2610290">
	<ele>862.80</ele>
	<time>2025-04-30T06:27:09.000Z</time>
</trkpt>
<trkpt lat="45.9054920" lon="10.2610270">
	<ele>863.00</ele>
	<time>2025-04-30T06:27:10.000Z</time>
</trkpt>
<trkpt lat="45.9054880" lon="10.2610260">
	<ele>863.00</ele>
	<time>2025-04-30T06:27:11.000Z</time>
</trkpt>
<trkpt lat="45.9054830" lon="10.2610240">
	<ele>863.40</ele>
	<time>2025-04-30T06:27:12.000Z</time>
</trkpt>
<trkpt lat="45.9054780" lon="10.2610290">
	<ele>863.40</ele>
	<time>2025-04-30T06:27:13.000Z</time>
</trkpt>
<trkpt lat="45.9054730" lon="10.2610300">
	<ele>863.60</ele>
	<time>2025-04-30T06:27:14.000Z</time>
</trkpt>
<trkpt lat="45.9054720" lon="10.2610270">
	<ele>864.00</ele>
	<time>2025-04-30T06:27:15.000Z</time>
</trkpt>
<trkpt lat="45.9054670" lon="10.2610200">
	<ele>864.20</ele>
	<time>2025-04-30T06:27:16.000Z</time>
</trkpt>
<trkpt lat="45.9054610" lon="10.2610140">
	<ele>864.40</ele>
	<time>2025-04-30T06:27:17.000Z</time>
</trkpt>
<trkpt lat="45.9054550" lon="10.2610150">
	<ele>864.60</ele>
	<time>2025-04-30T06:27:18.000Z</time>
</trkpt>
<trkpt lat="45.9054480" lon="10.2610120">
	<ele>864.80</ele>
	<time>2025-04-30T06:27:19.000Z</time>
</trkpt>
<trkpt lat="45.9054380" lon="10.2610060">
	<ele>865.00</ele>
	<time>2025-04-30T06:27:20.000Z</time>
</trkpt>
<trkpt lat="45.9054340" lon="10.2610030">
	<ele>865.20</ele>
	<time>2025-04-30T06:27:21.000Z</time>
</trkpt>
<trkpt lat="45.9054270" lon="10.2609970">
	<ele>865.40</ele>
	<time>2025-04-30T06:27:22.000Z</time>
</trkpt>
<trkpt lat="45.9054230" lon="10.2609890">
	<ele>865.60</ele>
	<time>2025-04-30T06:27:23.000Z</time>
</trkpt>
<trkpt lat="45.9054210" lon="10.2609850">
	<ele>865.60</ele>
	<time>2025-04-30T06:27:24.000Z</time>
</trkpt>
<trkpt lat="45.9054150" lon="10.2609780">
	<ele>866.00</ele>
	<time>2025-04-30T06:27:25.000Z</time>
</trkpt>
<trkpt lat="45.9054110" lon="10.2609760">
	<ele>866.20</ele>
	<time>2025-04-30T06:27:26.000Z</time>
</trkpt>
<trkpt lat="45.9054070" lon="10.2609730">
	<ele>866.40</ele>
	<time>2025-04-30T06:27:27.000Z</time>
</trkpt>
<trkpt lat="45.9054030" lon="10.2609730">
	<ele>866.60</ele>
	<time>2025-04-30T06:27:28.000Z</time>
</trkpt>
<trkpt lat="45.9053990" lon="10.2609790">
	<ele>866.60</ele>
	<time>2025-04-30T06:27:29.000Z</time>
</trkpt>
<trkpt lat="45.9053970" lon="10.2609820">
	<ele>866.80</ele>
	<time>2025-04-30T06:27:30.000Z</time>
</trkpt>
<trkpt lat="45.9053950" lon="10.2609800">
	<ele>867.00</ele>
	<time>2025-04-30T06:27:31.000Z</time>
</trkpt>
<trkpt lat="45.9053900" lon="10.2609710">
	<ele>867.20</ele>
	<time>2025-04-30T06:27:32.000Z</time>
</trkpt>
<trkpt lat="45.9053870" lon="10.2609660">
	<ele>867.40</ele>
	<time>2025-04-30T06:27:33.000Z</time>
</trkpt>
<trkpt lat="45.9053830" lon="10.2609510">
	<ele>867.40</ele>
	<time>2025-04-30T06:27:34.000Z</time>
</trkpt>
<trkpt lat="45.9053800" lon="10.2609400">
	<ele>867.60</ele>
	<time>2025-04-30T06:27:35.000Z</time>
</trkpt>
<trkpt lat="45.9053780" lon="10.2609320">
	<ele>867.80</ele>
	<time>2025-04-30T06:27:36.000Z</time>
</trkpt>
<trkpt lat="45.9053740" lon="10.2609260">
	<ele>867.80</ele>
	<time>2025-04-30T06:27:37.000Z</time>
</trkpt>
<trkpt lat="45.9053680" lon="10.2609200">
	<ele>868.00</ele>
	<time>2025-04-30T06:27:38.000Z</time>
</trkpt>
<trkpt lat="45.9053590" lon="10.2609160">
	<ele>868.20</ele>
	<time>2025-04-30T06:27:39.000Z</time>
</trkpt>
<trkpt lat="45.9053550" lon="10.2609120">
	<ele>868.20</ele>
	<time>2025-04-30T06:27:40.000Z</time>
</trkpt>
<trkpt lat="45.9053500" lon="10.2609070">
	<ele>868.40</ele>
	<time>2025-04-30T06:27:41.000Z</time>
</trkpt>
<trkpt lat="45.9053460" lon="10.2609010">
	<ele>868.60</ele>
	<time>2025-04-30T06:27:42.000Z</time>
</trkpt>
<trkpt lat="45.9053410" lon="10.2608990">
	<ele>868.80</ele>
	<time>2025-04-30T06:27:43.000Z</time>
</trkpt>
<trkpt lat="45.9053330" lon="10.2609030">
	<ele>869.00</ele>
	<time>2025-04-30T06:27:44.000Z</time>
</trkpt>
<trkpt lat="45.9053280" lon="10.2609040">
	<ele>869.20</ele>
	<time>2025-04-30T06:27:45.000Z</time>
</trkpt>
<trkpt lat="45.9053230" lon="10.2609000">
	<ele>869.20</ele>
	<time>2025-04-30T06:27:46.000Z</time>
</trkpt>
<trkpt lat="45.9053180" lon="10.2608950">
	<ele>869.60</ele>
	<time>2025-04-30T06:27:47.000Z</time>
</trkpt>
<trkpt lat="45.9053120" lon="10.2608910">
	<ele>869.60</ele>
	<time>2025-04-30T06:27:48.000Z</time>
</trkpt>
<trkpt lat="45.9053080" lon="10.2608860">
	<ele>869.60</ele>
	<time>2025-04-30T06:27:49.000Z</time>
</trkpt>
<trkpt lat="45.9053040" lon="10.2608850">
	<ele>870.00</ele>
	<time>2025-04-30T06:27:50.000Z</time>
</trkpt>
<trkpt lat="45.9052960" lon="10.2608800">
	<ele>870.40</ele>
	<time>2025-04-30T06:27:51.000Z</time>
</trkpt>
<trkpt lat="45.9052900" lon="10.2608810">
	<ele>870.60</ele>
	<time>2025-04-30T06:27:52.000Z</time>
</trkpt>
<trkpt lat="45.9052840" lon="10.2608780">
	<ele>870.60</ele>
	<time>2025-04-30T06:27:53.000Z</time>
</trkpt>
<trkpt lat="45.9052750" lon="10.2608760">
	<ele>870.80</ele>
	<time>2025-04-30T06:27:54.000Z</time>
</trkpt>
<trkpt lat="45.9052670" lon="10.2608760">
	<ele>870.80</ele>
	<time>2025-04-30T06:27:55.000Z</time>
</trkpt>
<trkpt lat="45.9052640" lon="10.2608730">
	<ele>870.80</ele>
	<time>2025-04-30T06:27:56.000Z</time>
</trkpt>
<trkpt lat="45.9052620" lon="10.2608700">
	<ele>871.20</ele>
	<time>2025-04-30T06:27:57.000Z</time>
</trkpt>
<trkpt lat="45.9052580" lon="10.2608700">
	<ele>871.60</ele>
	<time>2025-04-30T06:27:58.000Z</time>
</trkpt>
<trkpt lat="45.9052510" lon="10.2608700">
	<ele>872.00</ele>
	<time>2025-04-30T06:27:59.000Z</time>
</trkpt>
<trkpt lat="45.9052510" lon="10.2608770">
	<ele>872.20</ele>
	<time>2025-04-30T06:28:00.000Z</time>
</trkpt>
<trkpt lat="45.9052520" lon="10.2608810">
	<ele>872.40</ele>
	<time>2025-04-30T06:28:01.000Z</time>
</trkpt>
<trkpt lat="45.9052650" lon="10.2608860">
	<ele>872.60</ele>
	<time>2025-04-30T06:28:02.000Z</time>
</trkpt>
<trkpt lat="45.9052700" lon="10.2608850">
	<ele>872.60</ele>
	<time>2025-04-30T06:28:03.000Z</time>
</trkpt>
<trkpt lat="45.9052620" lon="10.2608780">
	<ele>872.80</ele>
	<time>2025-04-30T06:28:04.000Z</time>
</trkpt>
<trkpt lat="45.9052450" lon="10.2608670">
	<ele>872.80</ele>
	<time>2025-04-30T06:28:05.000Z</time>
</trkpt>
<trkpt lat="45.9052370" lon="10.2608650">
	<ele>872.80</ele>
	<time>2025-04-30T06:28:06.000Z</time>
</trkpt>
<trkpt lat="45.9052280" lon="10.2608640">
	<ele>872.80</ele>
	<time>2025-04-30T06:28:07.000Z</time>
</trkpt>
<trkpt lat="45.9052220" lon="10.2608680">
	<ele>872.80</ele>
	<time>2025-04-30T06:28:08.000Z</time>
</trkpt>
<trkpt lat="45.9052090" lon="10.2608730">
	<ele>873.00</ele>
	<time>2025-04-30T06:28:09.000Z</time>
</trkpt>
<trkpt lat="45.9051960" lon="10.2608750">
	<ele>873.00</ele>
	<time>2025-04-30T06:28:10.000Z</time>
</trkpt>
<trkpt lat="45.9051850" lon="10.2608790">
	<ele>873.20</ele>
	<time>2025-04-30T06:28:11.000Z</time>
</trkpt>
<trkpt lat="45.9051800" lon="10.2608840">
	<ele>873.60</ele>
	<time>2025-04-30T06:28:12.000Z</time>
</trkpt>
<trkpt lat="45.9051680" lon="10.2608900">
	<ele>873.80</ele>
	<time>2025-04-30T06:28:13.000Z</time>
</trkpt>
<trkpt lat="45.9051580" lon="10.2608870">
	<ele>873.80</ele>
	<time>2025-04-30T06:28:14.000Z</time>
</trkpt>
<trkpt lat="45.9051640" lon="10.2608910">
	<ele>874.00</ele>
	<time>2025-04-30T06:28:15.000Z</time>
</trkpt>
<trkpt lat="45.9051710" lon="10.2609030">
	<ele>874.20</ele>
	<time>2025-04-30T06:28:16.000Z</time>
</trkpt>
<trkpt lat="45.9051670" lon="10.2609060">
	<ele>874.60</ele>
	<time>2025-04-30T06:28:17.000Z</time>
</trkpt>
<trkpt lat="45.9051690" lon="10.2609130">
	<ele>874.80</ele>
	<time>2025-04-30T06:28:18.000Z</time>
</trkpt>
<trkpt lat="45.9051670" lon="10.2609210">
	<ele>874.80</ele>
	<time>2025-04-30T06:28:19.000Z</time>
</trkpt>
<trkpt lat="45.9051600" lon="10.2609290">
	<ele>875.00</ele>
	<time>2025-04-30T06:28:20.000Z</time>
</trkpt>
<trkpt lat="45.9051560" lon="10.2609360">
	<ele>875.20</ele>
	<time>2025-04-30T06:28:21.000Z</time>
</trkpt>
<trkpt lat="45.9051540" lon="10.2609410">
	<ele>875.20</ele>
	<time>2025-04-30T06:28:22.000Z</time>
</trkpt>
<trkpt lat="45.9051500" lon="10.2609440">
	<ele>875.40</ele>
	<time>2025-04-30T06:28:23.000Z</time>
</trkpt>
<trkpt lat="45.9051490" lon="10.2609540">
	<ele>875.60</ele>
	<time>2025-04-30T06:28:24.000Z</time>
</trkpt>
<trkpt lat="45.9051510" lon="10.2609590">
	<ele>875.80</ele>
	<time>2025-04-30T06:28:25.000Z</time>
</trkpt>
<trkpt lat="45.9051500" lon="10.2609720">
	<ele>876.00</ele>
	<time>2025-04-30T06:28:26.000Z</time>
</trkpt>
<trkpt lat="45.9051490" lon="10.2609840">
	<ele>876.20</ele>
	<time>2025-04-30T06:28:27.000Z</time>
</trkpt>
<trkpt lat="45.9051490" lon="10.2609890">
	<ele>876.40</ele>
	<time>2025-04-30T06:28:28.000Z</time>
</trkpt>
<trkpt lat="45.9051510" lon="10.2609990">
	<ele>876.40</ele>
	<time>2025-04-30T06:28:29.000Z</time>
</trkpt>
<trkpt lat="45.9051610" lon="10.2610080">
	<ele>876.80</ele>
	<time>2025-04-30T06:28:30.000Z</time>
</trkpt>
<trkpt lat="45.9051710" lon="10.2610160">
	<ele>877.00</ele>
	<time>2025-04-30T06:28:31.000Z</time>
</trkpt>
<trkpt lat="45.9051790" lon="10.2610240">
	<ele>877.00</ele>
	<time>2025-04-30T06:28:32.000Z</time>
</trkpt>
<trkpt lat="45.9051840" lon="10.2610290">
	<ele>877.20</ele>
	<time>2025-04-30T06:28:33.000Z</time>
</trkpt>
<trkpt lat="45.9051930" lon="10.2610350">
	<ele>877.40</ele>
	<time>2025-04-30T06:28:34.000Z</time>
</trkpt>
<trkpt lat="45.9051980" lon="10.2610440">
	<ele>877.40</ele>
	<time>2025-04-30T06:28:35.000Z</time>
</trkpt>
<trkpt lat="45.9052050" lon="10.2610520">
	<ele>877.60</ele>
	<time>2025-04-30T06:28:36.000Z</time>
</trkpt>
<trkpt lat="45.9052110" lon="10.2610630">
	<ele>877.80</ele>
	<time>2025-04-30T06:28:37.000Z</time>
</trkpt>
<trkpt lat="45.9052110" lon="10.2610710">
	<ele>877.80</ele>
	<time>2025-04-30T06:28:38.000Z</time>
</trkpt>
<trkpt lat="45.9052150" lon="10.2610800">
	<ele>878.00</ele>
	<time>2025-04-30T06:28:39.000Z</time>
</trkpt>
<trkpt lat="45.9052170" lon="10.2610940">
	<ele>878.00</ele>
	<time>2025-04-30T06:28:40.000Z</time>
</trkpt>
<trkpt lat="45.9052200" lon="10.2611060">
	<ele>878.00</ele>
	<time>2025-04-30T06:28:41.000Z</time>
</trkpt>
<trkpt lat="45.9052230" lon="10.2611180">
	<ele>878.40</ele>
	<time>2025-04-30T06:28:42.000Z</time>
</trkpt>
<trkpt lat="45.9052270" lon="10.2611280">
	<ele>878.40</ele>
	<time>2025-04-30T06:28:43.000Z</time>
</trkpt>
<trkpt lat="45.9052250" lon="10.2611430">
	<ele>878.60</ele>
	<time>2025-04-30T06:28:44.000Z</time>
</trkpt>
<trkpt lat="45.9052270" lon="10.2611580">
	<ele>878.60</ele>
	<time>2025-04-30T06:28:45.000Z</time>
</trkpt>
<trkpt lat="45.9052260" lon="10.2611690">
	<ele>878.80</ele>
	<time>2025-04-30T06:28:46.000Z</time>
</trkpt>
<trkpt lat="45.9052200" lon="10.2611810">
	<ele>879.00</ele>
	<time>2025-04-30T06:28:47.000Z</time>
</trkpt>
<trkpt lat="45.9052210" lon="10.2611980">
	<ele>879.20</ele>
	<time>2025-04-30T06:28:48.000Z</time>
</trkpt>
<trkpt lat="45.9052180" lon="10.2612120">
	<ele>879.40</ele>
	<time>2025-04-30T06:28:49.000Z</time>
</trkpt>
<trkpt lat="45.9052200" lon="10.2612260">
	<ele>879.40</ele>
	<time>2025-04-30T06:28:50.000Z</time>
</trkpt>
<trkpt lat="45.9052230" lon="10.2612320">
	<ele>879.40</ele>
	<time>2025-04-30T06:28:51.000Z</time>
</trkpt>
<trkpt lat="45.9052300" lon="10.2612400">
	<ele>879.60</ele>
	<time>2025-04-30T06:28:52.000Z</time>
</trkpt>
<trkpt lat="45.9052330" lon="10.2612490">
	<ele>879.60</ele>
	<time>2025-04-30T06:28:53.000Z</time>
</trkpt>
<trkpt lat="45.9052380" lon="10.2612550">
	<ele>879.80</ele>
	<time>2025-04-30T06:28:54.000Z</time>
</trkpt>
<trkpt lat="45.9052380" lon="10.2612670">
	<ele>879.80</ele>
	<time>2025-04-30T06:28:55.000Z</time>
</trkpt>
<trkpt lat="45.9052440" lon="10.2612750">
	<ele>880.00</ele>
	<time>2025-04-30T06:28:56.000Z</time>
</trkpt>
<trkpt lat="45.9052480" lon="10.2612850">
	<ele>880.20</ele>
	<time>2025-04-30T06:28:57.000Z</time>
</trkpt>
<trkpt lat="45.9052480" lon="10.2612970">
	<ele>880.40</ele>
	<time>2025-04-30T06:28:58.000Z</time>
</trkpt>
<trkpt lat="45.9052480" lon="10.2613060">
	<ele>880.60</ele>
	<time>2025-04-30T06:28:59.000Z</time>
</trkpt>
<trkpt lat="45.9052530" lon="10.2613170">
	<ele>880.60</ele>
	<time>2025-04-30T06:29:00.000Z</time>
</trkpt>
<trkpt lat="45.9052590" lon="10.2613270">
	<ele>880.80</ele>
	<time>2025-04-30T06:29:01.000Z</time>
</trkpt>
<trkpt lat="45.9052680" lon="10.2613360">
	<ele>880.80</ele>
	<time>2025-04-30T06:29:02.000Z</time>
</trkpt>
<trkpt lat="45.9052730" lon="10.2613430">
	<ele>881.00</ele>
	<time>2025-04-30T06:29:03.000Z</time>
</trkpt>
<trkpt lat="45.9052770" lon="10.2613510">
	<ele>881.20</ele>
	<time>2025-04-30T06:29:04.000Z</time>
</trkpt>
<trkpt lat="45.9052780" lon="10.2613650">
	<ele>881.40</ele>
	<time>2025-04-30T06:29:05.000Z</time>
</trkpt>
<trkpt lat="45.9052780" lon="10.2613770">
	<ele>881.60</ele>
	<time>2025-04-30T06:29:06.000Z</time>
</trkpt>
<trkpt lat="45.9052820" lon="10.2613870">
	<ele>881.80</ele>
	<time>2025-04-30T06:29:07.000Z</time>
</trkpt>
<trkpt lat="45.9052830" lon="10.2614000">
	<ele>882.00</ele>
	<time>2025-04-30T06:29:08.000Z</time>
</trkpt>
<trkpt lat="45.9052790" lon="10.2614100">
	<ele>882.00</ele>
	<time>2025-04-30T06:29:09.000Z</time>
</trkpt>
<trkpt lat="45.9052790" lon="10.2614190">
	<ele>882.20</ele>
	<time>2025-04-30T06:29:10.000Z</time>
</trkpt>
<trkpt lat="45.9052860" lon="10.2614270">
	<ele>882.40</ele>
	<time>2025-04-30T06:29:11.000Z</time>
</trkpt>
<trkpt lat="45.9052970" lon="10.2614320">
	<ele>882.60</ele>
	<time>2025-04-30T06:29:12.000Z</time>
</trkpt>
<trkpt lat="45.9053030" lon="10.2614400">
	<ele>882.60</ele>
	<time>2025-04-30T06:29:13.000Z</time>
</trkpt>
<trkpt lat="45.9053050" lon="10.2614560">
	<ele>883.00</ele>
	<time>2025-04-30T06:29:14.000Z</time>
</trkpt>
<trkpt lat="45.9053100" lon="10.2614710">
	<ele>883.20</ele>
	<time>2025-04-30T06:29:15.000Z</time>
</trkpt>
<trkpt lat="45.9053070" lon="10.2614860">
	<ele>883.40</ele>
	<time>2025-04-30T06:29:16.000Z</time>
</trkpt>
<trkpt lat="45.9053100" lon="10.2615010">
	<ele>883.60</ele>
	<time>2025-04-30T06:29:17.000Z</time>
</trkpt>
<trkpt lat="45.9053120" lon="10.2615080">
	<ele>883.60</ele>
	<time>2025-04-30T06:29:18.000Z</time>
</trkpt>
<trkpt lat="45.9053120" lon="10.2615140">
	<ele>884.00</ele>
	<time>2025-04-30T06:29:19.000Z</time>
</trkpt>
<trkpt lat="45.9053190" lon="10.2615200">
	<ele>884.20</ele>
	<time>2025-04-30T06:29:20.000Z</time>
</trkpt>
<trkpt lat="45.9053230" lon="10.2615280">
	<ele>884.20</ele>
	<time>2025-04-30T06:29:21.000Z</time>
</trkpt>
<trkpt lat="45.9053260" lon="10.2615410">
	<ele>884.40</ele>
	<time>2025-04-30T06:29:22.000Z</time>
</trkpt>
<trkpt lat="45.9053300" lon="10.2615500">
	<ele>884.40</ele>
	<time>2025-04-30T06:29:23.000Z</time>
</trkpt>
<trkpt lat="45.9053300" lon="10.2615620">
	<ele>884.40</ele>
	<time>2025-04-30T06:29:24.000Z</time>
</trkpt>
<trkpt lat="45.9053320" lon="10.2615720">
	<ele>884.40</ele>
	<time>2025-04-30T06:29:25.000Z</time>
</trkpt>
<trkpt lat="45.9053400" lon="10.2615780">
	<ele>884.60</ele>
	<time>2025-04-30T06:29:26.000Z</time>
</trkpt>
<trkpt lat="45.9053440" lon="10.2615850">
	<ele>884.80</ele>
	<time>2025-04-30T06:29:27.000Z</time>
</trkpt>
<trkpt lat="45.9053470" lon="10.2615950">
	<ele>884.80</ele>
	<time>2025-04-30T06:29:28.000Z</time>
</trkpt>
<trkpt lat="45.9053460" lon="10.2616100">
	<ele>885.00</ele>
	<time>2025-04-30T06:29:29.000Z</time>
</trkpt>
<trkpt lat="45.9053470" lon="10.2616210">
	<ele>885.20</ele>
	<time>2025-04-30T06:29:30.000Z</time>
</trkpt>
<trkpt lat="45.9053480" lon="10.2616310">
	<ele>885.40</ele>
	<time>2025-04-30T06:29:31.000Z</time>
</trkpt>
<trkpt lat="45.9053480" lon="10.2616410">
	<ele>885.60</ele>
	<time>2025-04-30T06:29:32.000Z</time>
</trkpt>
<trkpt lat="45.9053500" lon="10.2616460">
	<ele>886.00</ele>
	<time>2025-04-30T06:29:33.000Z</time>
</trkpt>
<trkpt lat="45.9053510" lon="10.2616490">
	<ele>886.20</ele>
	<time>2025-04-30T06:29:34.000Z</time>
</trkpt>
<trkpt lat="45.9053480" lon="10.2616560">
	<ele>886.40</ele>
	<time>2025-04-30T06:29:35.000Z</time>
</trkpt>
<trkpt lat="45.9053460" lon="10.2616660">
	<ele>886.60</ele>
	<time>2025-04-30T06:29:36.000Z</time>
</trkpt>
<trkpt lat="45.9053400" lon="10.2616770">
	<ele>887.00</ele>
	<time>2025-04-30T06:29:37.000Z</time>
</trkpt>
<trkpt lat="45.9053390" lon="10.2616840">
	<ele>887.20</ele>
	<time>2025-04-30T06:29:38.000Z</time>
</trkpt>
<trkpt lat="45.9053420" lon="10.2616930">
	<ele>887.20</ele>
	<time>2025-04-30T06:29:39.000Z</time>
</trkpt>
<trkpt lat="45.9053430" lon="10.2617050">
	<ele>887.40</ele>
	<time>2025-04-30T06:29:40.000Z</time>
</trkpt>
<trkpt lat="45.9053440" lon="10.2617150">
	<ele>887.60</ele>
	<time>2025-04-30T06:29:41.000Z</time>
</trkpt>
<trkpt lat="45.9053440" lon="10.2617240">
	<ele>887.60</ele>
	<time>2025-04-30T06:29:42.000Z</time>
</trkpt>
<trkpt lat="45.9053330" lon="10.2617400">
	<ele>888.00</ele>
	<time>2025-04-30T06:29:43.000Z</time>
</trkpt>
<trkpt lat="45.9053380" lon="10.2617590">
	<ele>888.20</ele>
	<time>2025-04-30T06:29:44.000Z</time>
</trkpt>
<trkpt lat="45.9053470" lon="10.2617680">
	<ele>888.40</ele>
	<time>2025-04-30T06:29:45.000Z</time>
</trkpt>
<trkpt lat="45.9053480" lon="10.2617820">
	<ele>888.60</ele>
	<time>2025-04-30T06:29:46.000Z</time>
</trkpt>
<trkpt lat="45.9053490" lon="10.2617880">
	<ele>888.80</ele>
	<time>2025-04-30T06:29:47.000Z</time>
</trkpt>
<trkpt lat="45.9053460" lon="10.2617880">
	<ele>888.80</ele>
	<time>2025-04-30T06:29:48.000Z</time>
</trkpt>
<trkpt lat="45.9053430" lon="10.2618010">
	<ele>889.00</ele>
	<time>2025-04-30T06:29:49.000Z</time>
</trkpt>
<trkpt lat="45.9053380" lon="10.2618160">
	<ele>889.20</ele>
	<time>2025-04-30T06:29:50.000Z</time>
</trkpt>
<trkpt lat="45.9053370" lon="10.2618270">
	<ele>889.40</ele>
	<time>2025-04-30T06:29:51.000Z</time>
</trkpt>
<trkpt lat="45.9053350" lon="10.2618410">
	<ele>889.40</ele>
	<time>2025-04-30T06:29:52.000Z</time>
</trkpt>
<trkpt lat="45.9053340" lon="10.2618500">
	<ele>889.60</ele>
	<time>2025-04-30T06:29:53.000Z</time>
</trkpt>
<trkpt lat="45.9053350" lon="10.2618560">
	<ele>889.80</ele>
	<time>2025-04-30T06:29:54.000Z</time>
</trkpt>
<trkpt lat="45.9053380" lon="10.2618610">
	<ele>890.00</ele>
	<time>2025-04-30T06:29:55.000Z</time>
</trkpt>
<trkpt lat="45.9053450" lon="10.2618660">
	<ele>890.40</ele>
	<time>2025-04-30T06:29:56.000Z</time>
</trkpt>
<trkpt lat="45.9053460" lon="10.2618790">
	<ele>890.60</ele>
	<time>2025-04-30T06:29:57.000Z</time>
</trkpt>
<trkpt lat="45.9053500" lon="10.2618840">
	<ele>890.80</ele>
	<time>2025-04-30T06:29:58.000Z</time>
</trkpt>
<trkpt lat="45.9053490" lon="10.2618890">
	<ele>890.80</ele>
	<time>2025-04-30T06:29:59.000Z</time>
</trkpt>
<trkpt lat="45.9053450" lon="10.2618950">
	<ele>891.00</ele>
	<time>2025-04-30T06:30:00.000Z</time>
</trkpt>
<trkpt lat="45.9053420" lon="10.2618990">
	<ele>891.20</ele>
	<time>2025-04-30T06:30:01.000Z</time>
</trkpt>
<trkpt lat="45.9053370" lon="10.2619130">
	<ele>891.40</ele>
	<time>2025-04-30T06:30:02.000Z</time>
</trkpt>
<trkpt lat="45.9053350" lon="10.2619230">
	<ele>891.60</ele>
	<time>2025-04-30T06:30:03.000Z</time>
</trkpt>
<trkpt lat="45.9053250" lon="10.2619330">
	<ele>892.00</ele>
	<time>2025-04-30T06:30:04.000Z</time>
</trkpt>
<trkpt lat="45.9053170" lon="10.2619430">
	<ele>892.20</ele>
	<time>2025-04-30T06:30:05.000Z</time>
</trkpt>
<trkpt lat="45.9053160" lon="10.2619530">
	<ele>892.20</ele>
	<time>2025-04-30T06:30:06.000Z</time>
</trkpt>
<trkpt lat="45.9053150" lon="10.2619630">
	<ele>892.40</ele>
	<time>2025-04-30T06:30:07.000Z</time>
</trkpt>
<trkpt lat="45.9053160" lon="10.2619760">
	<ele>892.60</ele>
	<time>2025-04-30T06:30:08.000Z</time>
</trkpt>
<trkpt lat="45.9053190" lon="10.2619850">
	<ele>892.80</ele>
	<time>2025-04-30T06:30:09.000Z</time>
</trkpt>
<trkpt lat="45.9053210" lon="10.2619950">
	<ele>893.00</ele>
	<time>2025-04-30T06:30:10.000Z</time>
</trkpt>
<trkpt lat="45.9053180" lon="10.2620060">
	<ele>893.20</ele>
	<time>2025-04-30T06:30:11.000Z</time>
</trkpt>
<trkpt lat="45.9053170" lon="10.2620110">
	<ele>893.40</ele>
	<time>2025-04-30T06:30:12.000Z</time>
</trkpt>
<trkpt lat="45.9053140" lon="10.2620210">
	<ele>893.60</ele>
	<time>2025-04-30T06:30:13.000Z</time>
</trkpt>
<trkpt lat="45.9053160" lon="10.2620300">
	<ele>893.80</ele>
	<time>2025-04-30T06:30:14.000Z</time>
</trkpt>
<trkpt lat="45.9053150" lon="10.2620390">
	<ele>894.00</ele>
	<time>2025-04-30T06:30:15.000Z</time>
</trkpt>
<trkpt lat="45.9053160" lon="10.2620460">
	<ele>894.20</ele>
	<time>2025-04-30T06:30:16.000Z</time>
</trkpt>
<trkpt lat="45.9053170" lon="10.2620500">
	<ele>894.40</ele>
	<time>2025-04-30T06:30:17.000Z</time>
</trkpt>
<trkpt lat="45.9053160" lon="10.2620590">
	<ele>894.60</ele>
	<time>2025-04-30T06:30:18.000Z</time>
</trkpt>
<trkpt lat="45.9053170" lon="10.2620680">
	<ele>894.80</ele>
	<time>2025-04-30T06:30:19.000Z</time>
</trkpt>
<trkpt lat="45.9053180" lon="10.2620750">
	<ele>895.00</ele>
	<time>2025-04-30T06:30:20.000Z</time>
</trkpt>
<trkpt lat="45.9053180" lon="10.2620830">
	<ele>895.20</ele>
	<time>2025-04-30T06:30:21.000Z</time>
</trkpt>
<trkpt lat="45.9053200" lon="10.2620920">
	<ele>895.40</ele>
	<time>2025-04-30T06:30:22.000Z</time>
</trkpt>
<trkpt lat="45.9053210" lon="10.2621010">
	<ele>895.60</ele>
	<time>2025-04-30T06:30:23.000Z</time>
</trkpt>
<trkpt lat="45.9053200" lon="10.2621090">
	<ele>895.80</ele>
	<time>2025-04-30T06:30:24.000Z</time>
</trkpt>
<trkpt lat="45.9053160" lon="10.2621180">
	<ele>896.20</ele>
	<time>2025-04-30T06:30:25.000Z</time>
</trkpt>
<trkpt lat="45.9053170" lon="10.2621260">
	<ele>896.40</ele>
	<time>2025-04-30T06:30:26.000Z</time>
</trkpt>
<trkpt lat="45.9053160" lon="10.2621320">
	<ele>896.60</ele>
	<time>2025-04-30T06:30:27.000Z</time>
</trkpt>
<trkpt lat="45.9053180" lon="10.2621360">
	<ele>896.80</ele>
	<time>2025-04-30T06:30:28.000Z</time>
</trkpt>
<trkpt lat="45.9053220" lon="10.2621390">
	<ele>897.00</ele>
	<time>2025-04-30T06:30:29.000Z</time>
</trkpt>
<trkpt lat="45.9053270" lon="10.2621460">
	<ele>897.00</ele>
	<time>2025-04-30T06:30:30.000Z</time>
</trkpt>
<trkpt lat="45.9053340" lon="10.2621550">
	<ele>897.20</ele>
	<time>2025-04-30T06:30:31.000Z</time>
</trkpt>
<trkpt lat="45.9053380" lon="10.2621610">
	<ele>897.40</ele>
	<time>2025-04-30T06:30:32.000Z</time>
</trkpt>
<trkpt lat="45.9053430" lon="10.2621670">
	<ele>897.60</ele>
	<time>2025-04-30T06:30:33.000Z</time>
</trkpt>
<trkpt lat="45.9053460" lon="10.2621680">
	<ele>897.80</ele>
	<time>2025-04-30T06:30:34.000Z</time>
</trkpt>
<trkpt lat="45.9053480" lon="10.2621770">
	<ele>898.00</ele>
	<time>2025-04-30T06:30:35.000Z</time>
</trkpt>
<trkpt lat="45.9053500" lon="10.2621840">
	<ele>898.40</ele>
	<time>2025-04-30T06:30:36.000Z</time>
</trkpt>
<trkpt lat="45.9053510" lon="10.2621900">
	<ele>898.60</ele>
	<time>2025-04-30T06:30:37.000Z</time>
</trkpt>
<trkpt lat="45.9053520" lon="10.2621960">
	<ele>898.80</ele>
	<time>2025-04-30T06:30:38.000Z</time>
</trkpt>
<trkpt lat="45.9053590" lon="10.2621970">
	<ele>899.00</ele>
	<time>2025-04-30T06:30:39.000Z</time>
</trkpt>
<trkpt lat="45.9053630" lon="10.2622060">
	<ele>899.20</ele>
	<time>2025-04-30T06:30:40.000Z</time>
</trkpt>
<trkpt lat="45.9053640" lon="10.2622170">
	<ele>899.40</ele>
	<time>2025-04-30T06:30:41.000Z</time>
</trkpt>
<trkpt lat="45.9053550" lon="10.2622300">
	<ele>899.60</ele>
	<time>2025-04-30T06:30:42.000Z</time>
</trkpt>
<trkpt lat="45.9053500" lon="10.2622440">
	<ele>899.60</ele>
	<time>2025-04-30T06:30:43.000Z</time>
</trkpt>
<trkpt lat="45.9053480" lon="10.2622480">
	<ele>899.80</ele>
	<time>2025-04-30T06:30:44.000Z</time>
</trkpt>
<trkpt lat="45.9053480" lon="10.2622510">
	<ele>900.00</ele>
	<time>2025-04-30T06:30:45.000Z</time>
</trkpt>
<trkpt lat="45.9053610" lon="10.2622420">
	<ele>900.40</ele>
	<time>2025-04-30T06:30:46.000Z</time>
</trkpt>
<trkpt lat="45.9053760" lon="10.2622500">
	<ele>900.60</ele>
	<time>2025-04-30T06:30:47.000Z</time>
</trkpt>
<trkpt lat="45.9053770" lon="10.2622560">
	<ele>900.80</ele>
	<time>2025-04-30T06:30:48.000Z</time>
</trkpt>
<trkpt lat="45.9053790" lon="10.2622610">
	<ele>900.80</ele>
	<time>2025-04-30T06:30:49.000Z</time>
</trkpt>
<trkpt lat="45.9053850" lon="10.2622760">
	<ele>900.80</ele>
	<time>2025-04-30T06:30:50.000Z</time>
</trkpt>
<trkpt lat="45.9053830" lon="10.2622850">
	<ele>901.00</ele>
	<time>2025-04-30T06:30:51.000Z</time>
</trkpt>
<trkpt lat="45.9053870" lon="10.2622930">
	<ele>901.00</ele>
	<time>2025-04-30T06:30:52.000Z</time>
</trkpt>
<trkpt lat="45.9053870" lon="10.2622980">
	<ele>901.20</ele>
	<time>2025-04-30T06:30:53.000Z</time>
</trkpt>
<trkpt lat="45.9053900" lon="10.2623040">
	<ele>901.40</ele>
	<time>2025-04-30T06:30:54.000Z</time>
</trkpt>
<trkpt lat="45.9053900" lon="10.2623130">
	<ele>901.60</ele>
	<time>2025-04-30T06:30:55.000Z</time>
</trkpt>
<trkpt lat="45.9053900" lon="10.2623200">
	<ele>901.80</ele>
	<time>2025-04-30T06:30:56.000Z</time>
</trkpt>
<trkpt lat="45.9053900" lon="10.2623300">
	<ele>902.20</ele>
	<time>2025-04-30T06:30:57.000Z</time>
</trkpt>
<trkpt lat="45.9053900" lon="10.2623360">
	<ele>902.20</ele>
	<time>2025-04-30T06:30:58.000Z</time>
</trkpt>
<trkpt lat="45.9054000" lon="10.2623420">
	<ele>902.40</ele>
	<time>2025-04-30T06:30:59.000Z</time>
</trkpt>
<trkpt lat="45.9054170" lon="10.2623420">
	<ele>902.60</ele>
	<time>2025-04-30T06:31:00.000Z</time>
</trkpt>
<trkpt lat="45.9054250" lon="10.2623470">
	<ele>902.80</ele>
	<time>2025-04-30T06:31:01.000Z</time>
</trkpt>
<trkpt lat="45.9054350" lon="10.2623510">
	<ele>903.00</ele>
	<time>2025-04-30T06:31:02.000Z</time>
</trkpt>
<trkpt lat="45.9054370" lon="10.2623500">
	<ele>903.40</ele>
	<time>2025-04-30T06:31:03.000Z</time>
</trkpt>
<trkpt lat="45.9054370" lon="10.2623490">
	<ele>903.80</ele>
	<time>2025-04-30T06:31:04.000Z</time>
</trkpt>
<trkpt lat="45.9054270" lon="10.2623550">
	<ele>903.80</ele>
	<time>2025-04-30T06:31:05.000Z</time>
</trkpt>
<trkpt lat="45.9054110" lon="10.2623630">
	<ele>904.00</ele>
	<time>2025-04-30T06:31:06.000Z</time>
</trkpt>
<trkpt lat="45.9054000" lon="10.2623690">
	<ele>904.00</ele>
	<time>2025-04-30T06:31:07.000Z</time>
</trkpt>
<trkpt lat="45.9053970" lon="10.2623820">
	<ele>904.00</ele>
	<time>2025-04-30T06:31:08.000Z</time>
</trkpt>
<trkpt lat="45.9053970" lon="10.2623880">
	<ele>904.20</ele>
	<time>2025-04-30T06:31:09.000Z</time>
</trkpt>
<trkpt lat="45.9053970" lon="10.2623900">
	<ele>904.20</ele>
	<time>2025-04-30T06:31:10.000Z</time>
</trkpt>
<trkpt lat="45.9054000" lon="10.2623910">
	<ele>904.20</ele>
	<time>2025-04-30T06:31:11.000Z</time>
</trkpt>
<trkpt lat="45.9054020" lon="10.2623910">
	<ele>904.40</ele>
	<time>2025-04-30T06:31:12.000Z</time>
</trkpt>
<trkpt lat="45.9054020" lon="10.2623910">
	<ele>904.60</ele>
	<time>2025-04-30T06:31:13.000Z</time>
</trkpt>
<trkpt lat="45.9054000" lon="10.2623910">
	<ele>904.60</ele>
	<time>2025-04-30T06:31:14.000Z</time>
</trkpt>
<trkpt lat="45.9053970" lon="10.2623910">
	<ele>904.60</ele>
	<time>2025-04-30T06:31:15.000Z</time>
</trkpt>
<trkpt lat="45.9053950" lon="10.2623890">
	<ele>904.80</ele>
	<time>2025-04-30T06:31:16.000Z</time>
</trkpt>
<trkpt lat="45.9053960" lon="10.2623880">
	<ele>904.80</ele>
	<time>2025-04-30T06:31:17.000Z</time>
</trkpt>
<trkpt lat="45.9053960" lon="10.2623880">
	<ele>904.80</ele>
	<time>2025-04-30T06:31:18.000Z</time>
</trkpt>
<trkpt lat="45.9053960" lon="10.2623880">
	<ele>904.80</ele>
	<time>2025-04-30T06:31:19.000Z</time>
</trkpt>
<trkpt lat="45.9053960" lon="10.2623880">
	<ele>904.80</ele>
	<time>2025-04-30T06:31:20.000Z</time>
</trkpt>
<trkpt lat="45.9053960" lon="10.2623880">
	<ele>904.80</ele>
	<time>2025-04-30T06:31:21.000Z</time>
</trkpt>
<trkpt lat="45.9053960" lon="10.2623880">
	<ele>904.80</ele>
	<time>2025-04-30T06:31:22.000Z</time>
</trkpt>
<trkpt lat="45.9053960" lon="10.2623880">
	<ele>904.80</ele>
	<time>2025-04-30T06:31:23.000Z</time>
</trkpt>
<trkpt lat="45.9053960" lon="10.2623880">
	<ele>904.80</ele>
	<time>2025-04-30T06:31:24.000Z</time>
</trkpt>
<trkpt lat="45.9053960" lon="10.2623880">
	<ele>904.80</ele>
	<time>2025-04-30T06:31:25.000Z</time>
</trkpt>
<trkpt lat="45.9053960" lon="10.2623880">
	<ele>905.00</ele>
	<time>2025-04-30T06:31:26.000Z</time>
</trkpt>
<trkpt lat="45.9053960" lon="10.2623880">
	<ele>904.80</ele>
	<time>2025-04-30T06:31:27.000Z</time>
</trkpt>
<trkpt lat="45.9053970" lon="10.2623880">
	<ele>904.80</ele>
	<time>2025-04-30T06:31:28.000Z</time>
</trkpt>
<trkpt lat="45.9053970" lon="10.2623880">
	<ele>904.80</ele>
	<time>2025-04-30T06:31:29.000Z</time>
</trkpt>
<trkpt lat="45.9053970" lon="10.2623880">
	<ele>904.60</ele>
	<time>2025-04-30T06:31:30.000Z</time>
</trkpt>
<trkpt lat="45.9053970" lon="10.2623880">
	<ele>904.40</ele>
	<time>2025-04-30T06:31:31.000Z</time>
</trkpt>
<trkpt lat="45.9053980" lon="10.2623900">
	<ele>904.40</ele>
	<time>2025-04-30T06:31:32.000Z</time>
</trkpt>
<trkpt lat="45.9054010" lon="10.2623990">
	<ele>904.40</ele>
	<time>2025-04-30T06:31:33.000Z</time>
</trkpt>
<trkpt lat="45.9054130" lon="10.2624080">
	<ele>904.40</ele>
	<time>2025-04-30T06:31:34.000Z</time>
</trkpt>
<trkpt lat="45.9054190" lon="10.2624160">
	<ele>904.60</ele>
	<time>2025-04-30T06:31:35.000Z</time>
</trkpt>
<trkpt lat="45.9054200" lon="10.2624240">
	<ele>904.60</ele>
	<time>2025-04-30T06:31:36.000Z</time>
</trkpt>
<trkpt lat="45.9054260" lon="10.2624310">
	<ele>904.80</ele>
	<time>2025-04-30T06:31:37.000Z</time>
</trkpt>
<trkpt lat="45.9054330" lon="10.2624400">
	<ele>905.00</ele>
	<time>2025-04-30T06:31:38.000Z</time>
</trkpt>
<trkpt lat="45.9054420" lon="10.2624550">
	<ele>905.20</ele>
	<time>2025-04-30T06:31:39.000Z</time>
</trkpt>
<trkpt lat="45.9054460" lon="10.2624630">
	<ele>905.40</ele>
	<time>2025-04-30T06:31:40.000Z</time>
</trkpt>
<trkpt lat="45.9054470" lon="10.2624670">
	<ele>905.60</ele>
	<time>2025-04-30T06:31:41.000Z</time>
</trkpt>
<trkpt lat="45.9054490" lon="10.2624700">
	<ele>905.80</ele>
	<time>2025-04-30T06:31:42.000Z</time>
</trkpt>
<trkpt lat="45.9054520" lon="10.2624740">
	<ele>906.00</ele>
	<time>2025-04-30T06:31:43.000Z</time>
</trkpt>
<trkpt lat="45.9054630" lon="10.2624750">
	<ele>906.20</ele>
	<time>2025-04-30T06:31:44.000Z</time>
</trkpt>
<trkpt lat="45.9054730" lon="10.2624840">
	<ele>906.40</ele>
	<time>2025-04-30T06:31:45.000Z</time>
</trkpt>
<trkpt lat="45.9054810" lon="10.2624870">
	<ele>906.60</ele>
	<time>2025-04-30T06:31:46.000Z</time>
</trkpt>
<trkpt lat="45.9054860" lon="10.2624940">
	<ele>906.60</ele>
	<time>2025-04-30T06:31:47.000Z</time>
</trkpt>
<trkpt lat="45.9054840" lon="10.2625050">
	<ele>906.60</ele>
	<time>2025-04-30T06:31:48.000Z</time>
</trkpt>
<trkpt lat="45.9054850" lon="10.2625140">
	<ele>907.00</ele>
	<time>2025-04-30T06:31:49.000Z</time>
</trkpt>
<trkpt lat="45.9054880" lon="10.2625230">
	<ele>907.20</ele>
	<time>2025-04-30T06:31:50.000Z</time>
</trkpt>
<trkpt lat="45.9054990" lon="10.2625300">
	<ele>907.20</ele>
	<time>2025-04-30T06:31:51.000Z</time>
</trkpt>
<trkpt lat="45.9055060" lon="10.2625370">
	<ele>907.40</ele>
	<time>2025-04-30T06:31:52.000Z</time>
</trkpt>
<trkpt lat="45.9055060" lon="10.2625470">
	<ele>907.60</ele>
	<time>2025-04-30T06:31:53.000Z</time>
</trkpt>
<trkpt lat="45.9055070" lon="10.2625570">
	<ele>907.80</ele>
	<time>2025-04-30T06:31:54.000Z</time>
</trkpt>
<trkpt lat="45.9055030" lon="10.2625690">
	<ele>907.80</ele>
	<time>2025-04-30T06:31:55.000Z</time>
</trkpt>
<trkpt lat="45.9054940" lon="10.2625820">
	<ele>908.20</ele>
	<time>2025-04-30T06:31:56.000Z</time>
</trkpt>
<trkpt lat="45.9054940" lon="10.2625860">
	<ele>908.40</ele>
	<time>2025-04-30T06:31:57.000Z</time>
</trkpt>
<trkpt lat="45.9055040" lon="10.2625940">
	<ele>908.60</ele>
	<time>2025-04-30T06:31:58.000Z</time>
</trkpt>
<trkpt lat="45.9055120" lon="10.2626030">
	<ele>908.60</ele>
	<time>2025-04-30T06:31:59.000Z</time>
</trkpt>
<trkpt lat="45.9055110" lon="10.2626250">
	<ele>908.80</ele>
	<time>2025-04-30T06:32:00.000Z</time>
</trkpt>
<trkpt lat="45.9055090" lon="10.2626560">
	<ele>908.80</ele>
	<time>2025-04-30T06:32:01.000Z</time>
</trkpt>
<trkpt lat="45.9055110" lon="10.2626610">
	<ele>909.00</ele>
	<time>2025-04-30T06:32:02.000Z</time>
</trkpt>
<trkpt lat="45.9055140" lon="10.2626680">
	<ele>909.20</ele>
	<time>2025-04-30T06:32:03.000Z</time>
</trkpt>
<trkpt lat="45.9055080" lon="10.2626780">
	<ele>909.40</ele>
	<time>2025-04-30T06:32:04.000Z</time>
</trkpt>
<trkpt lat="45.9055020" lon="10.2626900">
	<ele>909.60</ele>
	<time>2025-04-30T06:32:05.000Z</time>
</trkpt>
<trkpt lat="45.9054990" lon="10.2627010">
	<ele>909.80</ele>
	<time>2025-04-30T06:32:06.000Z</time>
</trkpt>
<trkpt lat="45.9055000" lon="10.2627120">
	<ele>910.00</ele>
	<time>2025-04-30T06:32:07.000Z</time>
</trkpt>
<trkpt lat="45.9055020" lon="10.2627280">
	<ele>910.40</ele>
	<time>2025-04-30T06:32:08.000Z</time>
</trkpt>
<trkpt lat="45.9055080" lon="10.2627430">
	<ele>910.40</ele>
	<time>2025-04-30T06:32:09.000Z</time>
</trkpt>
<trkpt lat="45.9055130" lon="10.2627560">
	<ele>910.60</ele>
	<time>2025-04-30T06:32:10.000Z</time>
</trkpt>
<trkpt lat="45.9055270" lon="10.2627550">
	<ele>910.80</ele>
	<time>2025-04-30T06:32:11.000Z</time>
</trkpt>
<trkpt lat="45.9055430" lon="10.2627540">
	<ele>911.00</ele>
	<time>2025-04-30T06:32:12.000Z</time>
</trkpt>
<trkpt lat="45.9055490" lon="10.2627560">
	<ele>911.20</ele>
	<time>2025-04-30T06:32:13.000Z</time>
</trkpt>
<trkpt lat="45.9055510" lon="10.2627570">
	<ele>911.40</ele>
	<time>2025-04-30T06:32:14.000Z</time>
</trkpt>
<trkpt lat="45.9055560" lon="10.2627610">
	<ele>911.80</ele>
	<time>2025-04-30T06:32:15.000Z</time>
</trkpt>
<trkpt lat="45.9055580" lon="10.2627630">
	<ele>912.00</ele>
	<time>2025-04-30T06:32:16.000Z</time>
</trkpt>
<trkpt lat="45.9055570" lon="10.2627620">
	<ele>912.40</ele>
	<time>2025-04-30T06:32:17.000Z</time>
</trkpt>
<trkpt lat="45.9055610" lon="10.2627630">
	<ele>912.40</ele>
	<time>2025-04-30T06:32:18.000Z</time>
</trkpt>
<trkpt lat="45.9055570" lon="10.2627750">
	<ele>912.60</ele>
	<time>2025-04-30T06:32:19.000Z</time>
</trkpt>
<trkpt lat="45.9055620" lon="10.2627830">
	<ele>912.80</ele>
	<time>2025-04-30T06:32:20.000Z</time>
</trkpt>
<trkpt lat="45.9055650" lon="10.2627940">
	<ele>913.00</ele>
	<time>2025-04-30T06:32:21.000Z</time>
</trkpt>
<trkpt lat="45.9055710" lon="10.2628050">
	<ele>913.00</ele>
	<time>2025-04-30T06:32:22.000Z</time>
</trkpt>
<trkpt lat="45.9055700" lon="10.2628180">
	<ele>913.20</ele>
	<time>2025-04-30T06:32:23.000Z</time>
</trkpt>
<trkpt lat="45.9055650" lon="10.2628340">
	<ele>913.20</ele>
	<time>2025-04-30T06:32:24.000Z</time>
</trkpt>
<trkpt lat="45.9055650" lon="10.2628450">
	<ele>913.60</ele>
	<time>2025-04-30T06:32:25.000Z</time>
</trkpt>
<trkpt lat="45.9055640" lon="10.2628570">
	<ele>913.80</ele>
	<time>2025-04-30T06:32:26.000Z</time>
</trkpt>
<trkpt lat="45.9055720" lon="10.2628670">
	<ele>914.00</ele>
	<time>2025-04-30T06:32:27.000Z</time>
</trkpt>
<trkpt lat="45.9055750" lon="10.2628740">
	<ele>914.20</ele>
	<time>2025-04-30T06:32:28.000Z</time>
</trkpt>
<trkpt lat="45.9055860" lon="10.2628740">
	<ele>914.40</ele>
	<time>2025-04-30T06:32:29.000Z</time>
</trkpt>
<trkpt lat="45.9055980" lon="10.2628720">
	<ele>915.00</ele>
	<time>2025-04-30T06:32:30.000Z</time>
</trkpt>
<trkpt lat="45.9056000" lon="10.2628770">
	<ele>915.40</ele>
	<time>2025-04-30T06:32:31.000Z</time>
</trkpt>
<trkpt lat="45.9056020" lon="10.2628800">
	<ele>915.60</ele>
	<time>2025-04-30T06:32:32.000Z</time>
</trkpt>
<trkpt lat="45.9056030" lon="10.2628790">
	<ele>915.80</ele>
	<time>2025-04-30T06:32:33.000Z</time>
</trkpt>
<trkpt lat="45.9056040" lon="10.2628790">
	<ele>915.80</ele>
	<time>2025-04-30T06:32:34.000Z</time>
</trkpt>
<trkpt lat="45.9056060" lon="10.2628800">
	<ele>915.80</ele>
	<time>2025-04-30T06:32:35.000Z</time>
</trkpt>
<trkpt lat="45.9056010" lon="10.2628860">
	<ele>916.00</ele>
	<time>2025-04-30T06:32:36.000Z</time>
</trkpt>
<trkpt lat="45.9056040" lon="10.2628900">
	<ele>916.00</ele>
	<time>2025-04-30T06:32:37.000Z</time>
</trkpt>
<trkpt lat="45.9056070" lon="10.2628970">
	<ele>915.80</ele>
	<time>2025-04-30T06:32:38.000Z</time>
</trkpt>
<trkpt lat="45.9056150" lon="10.2629050">
	<ele>915.60</ele>
	<time>2025-04-30T06:32:39.000Z</time>
</trkpt>
<trkpt lat="45.9056180" lon="10.2629130">
	<ele>915.60</ele>
	<time>2025-04-30T06:32:40.000Z</time>
</trkpt>
<trkpt lat="45.9056270" lon="10.2629230">
	<ele>915.60</ele>
	<time>2025-04-30T06:32:41.000Z</time>
</trkpt>
<trkpt lat="45.9056310" lon="10.2629350">
	<ele>915.60</ele>
	<time>2025-04-30T06:32:42.000Z</time>
</trkpt>
<trkpt lat="45.9056320" lon="10.2629440">
	<ele>915.80</ele>
	<time>2025-04-30T06:32:43.000Z</time>
</trkpt>
<trkpt lat="45.9056340" lon="10.2629570">
	<ele>916.00</ele>
	<time>2025-04-30T06:32:44.000Z</time>
</trkpt>
<trkpt lat="45.9056360" lon="10.2629650">
	<ele>916.00</ele>
	<time>2025-04-30T06:32:45.000Z</time>
</trkpt>
<trkpt lat="45.9056400" lon="10.2629770">
	<ele>916.20</ele>
	<time>2025-04-30T06:32:46.000Z</time>
</trkpt>
<trkpt lat="45.9056400" lon="10.2629880">
	<ele>916.40</ele>
	<time>2025-04-30T06:32:47.000Z</time>
</trkpt>
<trkpt lat="45.9056410" lon="10.2629980">
	<ele>916.60</ele>
	<time>2025-04-30T06:32:48.000Z</time>
</trkpt>
<trkpt lat="45.9056400" lon="10.2630110">
	<ele>916.60</ele>
	<time>2025-04-30T06:32:49.000Z</time>
</trkpt>
<trkpt lat="45.9056410" lon="10.2630220">
	<ele>916.80</ele>
	<time>2025-04-30T06:32:50.000Z</time>
</trkpt>
<trkpt lat="45.9056380" lon="10.2630330">
	<ele>916.80</ele>
	<time>2025-04-30T06:32:51.000Z</time>
</trkpt>
<trkpt lat="45.9056330" lon="10.2630420">
	<ele>917.00</ele>
	<time>2025-04-30T06:32:52.000Z</time>
</trkpt>
<trkpt lat="45.9056300" lon="10.2630490">
	<ele>917.00</ele>
	<time>2025-04-30T06:32:53.000Z</time>
</trkpt>
<trkpt lat="45.9056270" lon="10.2630590">
	<ele>917.20</ele>
	<time>2025-04-30T06:32:54.000Z</time>
</trkpt>
<trkpt lat="45.9056210" lon="10.2630650">
	<ele>917.40</ele>
	<time>2025-04-30T06:32:55.000Z</time>
</trkpt>
<trkpt lat="45.9056180" lon="10.2630740">
	<ele>917.60</ele>
	<time>2025-04-30T06:32:56.000Z</time>
</trkpt>
<trkpt lat="45.9056150" lon="10.2630840">
	<ele>918.00</ele>
	<time>2025-04-30T06:32:57.000Z</time>
</trkpt>
<trkpt lat="45.9056140" lon="10.2630890">
	<ele>918.40</ele>
	<time>2025-04-30T06:32:58.000Z</time>
</trkpt>
<trkpt lat="45.9056120" lon="10.2630920">
	<ele>918.60</ele>
	<time>2025-04-30T06:32:59.000Z</time>
</trkpt>
<trkpt lat="45.9056090" lon="10.2630930">
	<ele>918.80</ele>
	<time>2025-04-30T06:33:00.000Z</time>
</trkpt>
<trkpt lat="45.9056080" lon="10.2630920">
	<ele>918.80</ele>
	<time>2025-04-30T06:33:01.000Z</time>
</trkpt>
<trkpt lat="45.9056080" lon="10.2630910">
	<ele>918.80</ele>
	<time>2025-04-30T06:33:02.000Z</time>
</trkpt>
<trkpt lat="45.9056080" lon="10.2630930">
	<ele>918.60</ele>
	<time>2025-04-30T06:33:03.000Z</time>
</trkpt>
<trkpt lat="45.9056070" lon="10.2630920">
	<ele>918.40</ele>
	<time>2025-04-30T06:33:04.000Z</time>
</trkpt>
<trkpt lat="45.9056080" lon="10.2630920">
	<ele>918.40</ele>
	<time>2025-04-30T06:33:05.000Z</time>
</trkpt>
<trkpt lat="45.9056090" lon="10.2630960">
	<ele>918.40</ele>
	<time>2025-04-30T06:33:06.000Z</time>
</trkpt>
<trkpt lat="45.9056100" lon="10.2630980">
	<ele>918.40</ele>
	<time>2025-04-30T06:33:07.000Z</time>
</trkpt>
<trkpt lat="45.9056130" lon="10.2631010">
	<ele>918.20</ele>
	<time>2025-04-30T06:33:08.000Z</time>
</trkpt>
<trkpt lat="45.9056160" lon="10.2631020">
	<ele>918.20</ele>
	<time>2025-04-30T06:33:09.000Z</time>
</trkpt>
<trkpt lat="45.9056170" lon="10.2631020">
	<ele>918.20</ele>
	<time>2025-04-30T06:33:10.000Z</time>
</trkpt>
<trkpt lat="45.9056180" lon="10.2631020">
	<ele>918.40</ele>
	<time>2025-04-30T06:33:11.000Z</time>
</trkpt>
<trkpt lat="45.9056210" lon="10.2631020">
	<ele>918.40</ele>
	<time>2025-04-30T06:33:12.000Z</time>
</trkpt>
<trkpt lat="45.9056230" lon="10.2631030">
	<ele>918.40</ele>
	<time>2025-04-30T06:33:13.000Z</time>
</trkpt>
<trkpt lat="45.9056240" lon="10.2631050">
	<ele>918.40</ele>
	<time>2025-04-30T06:33:14.000Z</time>
</trkpt>
<trkpt lat="45.9056260" lon="10.2631090">
	<ele>918.40</ele>
	<time>2025-04-30T06:33:15.000Z</time>
</trkpt>
<trkpt lat="45.9056270" lon="10.2631110">
	<ele>918.40</ele>
	<time>2025-04-30T06:33:16.000Z</time>
</trkpt>
<trkpt lat="45.9056260" lon="10.2631090">
	<ele>918.40</ele>
	<time>2025-04-30T06:33:17.000Z</time>
</trkpt>
<trkpt lat="45.9056270" lon="10.2631070">
	<ele>918.40</ele>
	<time>2025-04-30T06:33:18.000Z</time>
</trkpt>
<trkpt lat="45.9056280" lon="10.2631060">
	<ele>918.40</ele>
	<time>2025-04-30T06:33:19.000Z</time>
</trkpt>
<trkpt lat="45.9056290" lon="10.2631060">
	<ele>918.20</ele>
	<time>2025-04-30T06:33:20.000Z</time>
</trkpt>
<trkpt lat="45.9056300" lon="10.2631070">
	<ele>918.20</ele>
	<time>2025-04-30T06:33:21.000Z</time>
</trkpt>
<trkpt lat="45.9056300" lon="10.2631070">
	<ele>918.20</ele>
	<time>2025-04-30T06:33:22.000Z</time>
</trkpt>
<trkpt lat="45.9056360" lon="10.2631060">
	<ele>918.20</ele>
	<time>2025-04-30T06:33:23.000Z</time>
</trkpt>
<trkpt lat="45.9056380" lon="10.2631020">
	<ele>918.40</ele>
	<time>2025-04-30T06:33:24.000Z</time>
</trkpt>
<trkpt lat="45.9056400" lon="10.2630980">
	<ele>918.40</ele>
	<time>2025-04-30T06:33:25.000Z</time>
</trkpt>
<trkpt lat="45.9056360" lon="10.2631020">
	<ele>918.40</ele>
	<time>2025-04-30T06:33:26.000Z</time>
</trkpt>
<trkpt lat="45.9056370" lon="10.2631060">
	<ele>918.40</ele>
	<time>2025-04-30T06:33:27.000Z</time>
</trkpt>
<trkpt lat="45.9056360" lon="10.2631150">
	<ele>918.40</ele>
	<time>2025-04-30T06:33:28.000Z</time>
</trkpt>
<trkpt lat="45.9056320" lon="10.2631230">
	<ele>918.20</ele>
	<time>2025-04-30T06:33:29.000Z</time>
</trkpt>
<trkpt lat="45.9056320" lon="10.2631360">
	<ele>918.20</ele>
	<time>2025-04-30T06:33:30.000Z</time>
</trkpt>
<trkpt lat="45.9056310" lon="10.2631460">
	<ele>918.20</ele>
	<time>2025-04-30T06:33:31.000Z</time>
</trkpt>
<trkpt lat="45.9056280" lon="10.2631590">
	<ele>918.40</ele>
	<time>2025-04-30T06:33:32.000Z</time>
</trkpt>
<trkpt lat="45.9056270" lon="10.2631700">
	<ele>918.60</ele>
	<time>2025-04-30T06:33:33.000Z</time>
</trkpt>
<trkpt lat="45.9056270" lon="10.2631790">
	<ele>918.80</ele>
	<time>2025-04-30T06:33:34.000Z</time>
</trkpt>
<trkpt lat="45.9056260" lon="10.2631880">
	<ele>919.00</ele>
	<time>2025-04-30T06:33:35.000Z</time>
</trkpt>
<trkpt lat="45.9056210" lon="10.2631900">
	<ele>919.20</ele>
	<time>2025-04-30T06:33:36.000Z</time>
</trkpt>
<trkpt lat="45.9056200" lon="10.2632030">
	<ele>919.40</ele>
	<time>2025-04-30T06:33:37.000Z</time>
</trkpt>
<trkpt lat="45.9056180" lon="10.2632170">
	<ele>919.60</ele>
	<time>2025-04-30T06:33:38.000Z</time>
</trkpt>
<trkpt lat="45.9056200" lon="10.2632120">
	<ele>919.60</ele>
	<time>2025-04-30T06:33:39.000Z</time>
</trkpt>
<trkpt lat="45.9056190" lon="10.2632030">
	<ele>919.60</ele>
	<time>2025-04-30T06:33:40.000Z</time>
</trkpt>
<trkpt lat="45.9056180" lon="10.2632020">
	<ele>919.80</ele>
	<time>2025-04-30T06:33:41.000Z</time>
</trkpt>
<trkpt lat="45.9056240" lon="10.2631970">
	<ele>920.00</ele>
	<time>2025-04-30T06:33:42.000Z</time>
</trkpt>
<trkpt lat="45.9056310" lon="10.2631950">
	<ele>920.00</ele>
	<time>2025-04-30T06:33:43.000Z</time>
</trkpt>
<trkpt lat="45.9056410" lon="10.2631880">
	<ele>920.20</ele>
	<time>2025-04-30T06:33:44.000Z</time>
</trkpt>
<trkpt lat="45.9056510" lon="10.2631900">
	<ele>920.40</ele>
	<time>2025-04-30T06:33:45.000Z</time>
</trkpt>
<trkpt lat="45.9056600" lon="10.2631960">
	<ele>920.40</ele>
	<time>2025-04-30T06:33:46.000Z</time>
</trkpt>
<trkpt lat="45.9056690" lon="10.2631950">
	<ele>920.40</ele>
	<time>2025-04-30T06:33:47.000Z</time>
</trkpt>
<trkpt lat="45.9056740" lon="10.2631900">
	<ele>920.20</ele>
	<time>2025-04-30T06:33:48.000Z</time>
</trkpt>
<trkpt lat="45.9056740" lon="10.2631840">
	<ele>920.20</ele>
	<time>2025-04-30T06:33:49.000Z</time>
</trkpt>
<trkpt lat="45.9056720" lon="10.2631830">
	<ele>920.20</ele>
	<time>2025-04-30T06:33:50.000Z</time>
</trkpt>
<trkpt lat="45.9056720" lon="10.2631850">
	<ele>920.20</ele>
	<time>2025-04-30T06:33:51.000Z</time>
</trkpt>
<trkpt lat="45.9056720" lon="10.2631870">
	<ele>920.00</ele>
	<time>2025-04-30T06:33:52.000Z</time>
</trkpt>
<trkpt lat="45.9056680" lon="10.2631880">
	<ele>920.00</ele>
	<time>2025-04-30T06:33:53.000Z</time>
</trkpt>
<trkpt lat="45.9056670" lon="10.2631880">
	<ele>920.00</ele>
	<time>2025-04-30T06:33:54.000Z</time>
</trkpt>
<trkpt lat="45.9056660" lon="10.2631910">
	<ele>920.00</ele>
	<time>2025-04-30T06:33:55.000Z</time>
</trkpt>
<trkpt lat="45.9056620" lon="10.2631990">
	<ele>920.00</ele>
	<time>2025-04-30T06:33:56.000Z</time>
</trkpt>
<trkpt lat="45.9056590" lon="10.2632140">
	<ele>920.00</ele>
	<time>2025-04-30T06:33:57.000Z</time>
</trkpt>
<trkpt lat="45.9056580" lon="10.2632100">
	<ele>920.00</ele>
	<time>2025-04-30T06:33:58.000Z</time>
</trkpt>
<trkpt lat="45.9056590" lon="10.2631860">
	<ele>920.00</ele>
	<time>2025-04-30T06:33:59.000Z</time>
</trkpt>
<trkpt lat="45.9056590" lon="10.2631520">
	<ele>920.00</ele>
	<time>2025-04-30T06:34:00.000Z</time>
</trkpt>
<trkpt lat="45.9056530" lon="10.2631370">
	<ele>920.20</ele>
	<time>2025-04-30T06:34:01.000Z</time>
</trkpt>
<trkpt lat="45.9056420" lon="10.2631290">
	<ele>920.40</ele>
	<time>2025-04-30T06:34:02.000Z</time>
</trkpt>
<trkpt lat="45.9056350" lon="10.2631390">
	<ele>920.60</ele>
	<time>2025-04-30T06:34:03.000Z</time>
</trkpt>
<trkpt lat="45.9056260" lon="10.2631460">
	<ele>920.60</ele>
	<time>2025-04-30T06:34:04.000Z</time>
</trkpt>
<trkpt lat="45.9056170" lon="10.2631480">
	<ele>920.80</ele>
	<time>2025-04-30T06:34:05.000Z</time>
</trkpt>
<trkpt lat="45.9056150" lon="10.2631460">
	<ele>921.00</ele>
	<time>2025-04-30T06:34:06.000Z</time>
</trkpt>
<trkpt lat="45.9056120" lon="10.2631500">
	<ele>921.20</ele>
	<time>2025-04-30T06:34:07.000Z</time>
</trkpt>
<trkpt lat="45.9056090" lon="10.2631520">
	<ele>921.60</ele>
	<time>2025-04-30T06:34:08.000Z</time>
</trkpt>
<trkpt lat="45.9056020" lon="10.2631560">
	<ele>922.00</ele>
	<time>2025-04-30T06:34:09.000Z</time>
</trkpt>
<trkpt lat="45.9055940" lon="10.2631460">
	<ele>922.20</ele>
	<time>2025-04-30T06:34:10.000Z</time>
</trkpt>
<trkpt lat="45.9055820" lon="10.2631360">
	<ele>922.20</ele>
	<time>2025-04-30T06:34:11.000Z</time>
</trkpt>
<trkpt lat="45.9055770" lon="10.2631190">
	<ele>922.40</ele>
	<time>2025-04-30T06:34:12.000Z</time>
</trkpt>
<trkpt lat="45.9055710" lon="10.2631070">
	<ele>922.60</ele>
	<time>2025-04-30T06:34:13.000Z</time>
</trkpt>
<trkpt lat="45.9055680" lon="10.2631010">
	<ele>923.00</ele>
	<time>2025-04-30T06:34:14.000Z</time>
</trkpt>
<trkpt lat="45.9055650" lon="10.2630950">
	<ele>923.20</ele>
	<time>2025-04-30T06:34:15.000Z</time>
</trkpt>
<trkpt lat="45.9055600" lon="10.2630900">
	<ele>923.40</ele>
	<time>2025-04-30T06:34:16.000Z</time>
</trkpt>
<trkpt lat="45.9055540" lon="10.2630810">
	<ele>923.40</ele>
	<time>2025-04-30T06:34:17.000Z</time>
</trkpt>
<trkpt lat="45.9055480" lon="10.2630730">
	<ele>923.60</ele>
	<time>2025-04-30T06:34:18.000Z</time>
</trkpt>
<trkpt lat="45.9055430" lon="10.2630640">
	<ele>923.80</ele>
	<time>2025-04-30T06:34:19.000Z</time>
</trkpt>
<trkpt lat="45.9055340" lon="10.2630590">
	<ele>924.00</ele>
	<time>2025-04-30T06:34:20.000Z</time>
</trkpt>
<trkpt lat="45.9055290" lon="10.2630640">
	<ele>924.20</ele>
	<time>2025-04-30T06:34:21.000Z</time>
</trkpt>
<trkpt lat="45.9055200" lon="10.2630620">
	<ele>924.40</ele>
	<time>2025-04-30T06:34:22.000Z</time>
</trkpt>
<trkpt lat="45.9055120" lon="10.2630560">
	<ele>924.60</ele>
	<time>2025-04-30T06:34:23.000Z</time>
</trkpt>
<trkpt lat="45.9055060" lon="10.2630530">
	<ele>924.80</ele>
	<time>2025-04-30T06:34:24.000Z</time>
</trkpt>
<trkpt lat="45.9055000" lon="10.2630470">
	<ele>925.00</ele>
	<time>2025-04-30T06:34:25.000Z</time>
</trkpt>
<trkpt lat="45.9054920" lon="10.2630370">
	<ele>925.20</ele>
	<time>2025-04-30T06:34:26.000Z</time>
</trkpt>
<trkpt lat="45.9054830" lon="10.2630360">
	<ele>925.20</ele>
	<time>2025-04-30T06:34:27.000Z</time>
</trkpt>
<trkpt lat="45.9054780" lon="10.2630400">
	<ele>925.40</ele>
	<time>2025-04-30T06:34:28.000Z</time>
</trkpt>
<trkpt lat="45.9054710" lon="10.2630380">
	<ele>925.60</ele>
	<time>2025-04-30T06:34:29.000Z</time>
</trkpt>
<trkpt lat="45.9054650" lon="10.2630330">
	<ele>925.60</ele>
	<time>2025-04-30T06:34:30.000Z</time>
</trkpt>
<trkpt lat="45.9054550" lon="10.2630180">
	<ele>925.80</ele>
	<time>2025-04-30T06:34:31.000Z</time>
</trkpt>
<trkpt lat="45.9054480" lon="10.2630080">
	<ele>925.80</ele>
	<time>2025-04-30T06:34:32.000Z</time>
</trkpt>
<trkpt lat="45.9054400" lon="10.2630000">
	<ele>926.00</ele>
	<time>2025-04-30T06:34:33.000Z</time>
</trkpt>
<trkpt lat="45.9054330" lon="10.2629950">
	<ele>926.20</ele>
	<time>2025-04-30T06:34:34.000Z</time>
</trkpt>
<trkpt lat="45.9054260" lon="10.2629880">
	<ele>926.40</ele>
	<time>2025-04-30T06:34:35.000Z</time>
</trkpt>
<trkpt lat="45.9054180" lon="10.2629790">
	<ele>926.60</ele>
	<time>2025-04-30T06:34:36.000Z</time>
</trkpt>
<trkpt lat="45.9054100" lon="10.2629800">
	<ele>926.60</ele>
	<time>2025-04-30T06:34:37.000Z</time>
</trkpt>
<trkpt lat="45.9054000" lon="10.2629850">
	<ele>926.60</ele>
	<time>2025-04-30T06:34:38.000Z</time>
</trkpt>
<trkpt lat="45.9053920" lon="10.2629890">
	<ele>926.80</ele>
	<time>2025-04-30T06:34:39.000Z</time>
</trkpt>
<trkpt lat="45.9053840" lon="10.2629920">
	<ele>927.00</ele>
	<time>2025-04-30T06:34:40.000Z</time>
</trkpt>
<trkpt lat="45.9053770" lon="10.2629930">
	<ele>927.00</ele>
	<time>2025-04-30T06:34:41.000Z</time>
</trkpt>
<trkpt lat="45.9053680" lon="10.2630050">
	<ele>927.40</ele>
	<time>2025-04-30T06:34:42.000Z</time>
</trkpt>
<trkpt lat="45.9053540" lon="10.2630050">
	<ele>927.40</ele>
	<time>2025-04-30T06:34:43.000Z</time>
</trkpt>
<trkpt lat="45.9053420" lon="10.2630100">
	<ele>927.60</ele>
	<time>2025-04-30T06:34:44.000Z</time>
</trkpt>
<trkpt lat="45.9053230" lon="10.2630170">
	<ele>927.80</ele>
	<time>2025-04-30T06:34:45.000Z</time>
</trkpt>
<trkpt lat="45.9053030" lon="10.2630290">
	<ele>927.80</ele>
	<time>2025-04-30T06:34:46.000Z</time>
</trkpt>
<trkpt lat="45.9052930" lon="10.2630340">
	<ele>928.00</ele>
	<time>2025-04-30T06:34:47.000Z</time>
</trkpt>
<trkpt lat="45.9052920" lon="10.2630360">
	<ele>928.20</ele>
	<time>2025-04-30T06:34:48.000Z</time>
</trkpt>
<trkpt lat="45.9052850" lon="10.2630410">
	<ele>928.20</ele>
	<time>2025-04-30T06:34:49.000Z</time>
</trkpt>
<trkpt lat="45.9052790" lon="10.2630550">
	<ele>928.20</ele>
	<time>2025-04-30T06:34:50.000Z</time>
</trkpt>
<trkpt lat="45.9052700" lon="10.2630590">
	<ele>928.40</ele>
	<time>2025-04-30T06:34:51.000Z</time>
</trkpt>
<trkpt lat="45.9052610" lon="10.2630650">
	<ele>928.40</ele>
	<time>2025-04-30T06:34:52.000Z</time>
</trkpt>
<trkpt lat="45.9052530" lon="10.2630750">
	<ele>928.40</ele>
	<time>2025-04-30T06:34:53.000Z</time>
</trkpt>
<trkpt lat="45.9052490" lon="10.2630890">
	<ele>928.60</ele>
	<time>2025-04-30T06:34:54.000Z</time>
</trkpt>
<trkpt lat="45.9052450" lon="10.2631050">
	<ele>928.80</ele>
	<time>2025-04-30T06:34:55.000Z</time>
</trkpt>
<trkpt lat="45.9052380" lon="10.2631090">
	<ele>929.00</ele>
	<time>2025-04-30T06:34:56.000Z</time>
</trkpt>
<trkpt lat="45.9052320" lon="10.2631120">
	<ele>929.20</ele>
	<time>2025-04-30T06:34:57.000Z</time>
</trkpt>
<trkpt lat="45.9052230" lon="10.2631260">
	<ele>929.60</ele>
	<time>2025-04-30T06:34:58.000Z</time>
</trkpt>
<trkpt lat="45.9052180" lon="10.2631390">
	<ele>929.80</ele>
	<time>2025-04-30T06:34:59.000Z</time>
</trkpt>
<trkpt lat="45.9052160" lon="10.2631380">
	<ele>930.00</ele>
	<time>2025-04-30T06:35:00.000Z</time>
</trkpt>
<trkpt lat="45.9052080" lon="10.2631390">
	<ele>930.20</ele>
	<time>2025-04-30T06:35:01.000Z</time>
</trkpt>
<trkpt lat="45.9052040" lon="10.2631400">
	<ele>930.40</ele>
	<time>2025-04-30T06:35:02.000Z</time>
</trkpt>
<trkpt lat="45.9052020" lon="10.2631360">
	<ele>930.80</ele>
	<time>2025-04-30T06:35:03.000Z</time>
</trkpt>
<trkpt lat="45.9051980" lon="10.2631390">
	<ele>931.00</ele>
	<time>2025-04-30T06:35:04.000Z</time>
</trkpt>
<trkpt lat="45.9051940" lon="10.2631370">
	<ele>931.20</ele>
	<time>2025-04-30T06:35:05.000Z</time>
</trkpt>
<trkpt lat="45.9051910" lon="10.2631340">
	<ele>931.20</ele>
	<time>2025-04-30T06:35:06.000Z</time>
</trkpt>
<trkpt lat="45.9051890" lon="10.2631330">
	<ele>931.40</ele>
	<time>2025-04-30T06:35:07.000Z</time>
</trkpt>
<trkpt lat="45.9051850" lon="10.2631340">
	<ele>931.60</ele>
	<time>2025-04-30T06:35:08.000Z</time>
</trkpt>
<trkpt lat="45.9051800" lon="10.2631340">
	<ele>931.80</ele>
	<time>2025-04-30T06:35:09.000Z</time>
</trkpt>
<trkpt lat="45.9051740" lon="10.2631370">
	<ele>932.00</ele>
	<time>2025-04-30T06:35:10.000Z</time>
</trkpt>
<trkpt lat="45.9051690" lon="10.2631440">
	<ele>932.20</ele>
	<time>2025-04-30T06:35:11.000Z</time>
</trkpt>
<trkpt lat="45.9051650" lon="10.2631530">
	<ele>932.40</ele>
	<time>2025-04-30T06:35:12.000Z</time>
</trkpt>
<trkpt lat="45.9051590" lon="10.2631550">
	<ele>932.60</ele>
	<time>2025-04-30T06:35:13.000Z</time>
</trkpt>
<trkpt lat="45.9051550" lon="10.2631550">
	<ele>932.80</ele>
	<time>2025-04-30T06:35:14.000Z</time>
</trkpt>
<trkpt lat="45.9051520" lon="10.2631580">
	<ele>933.00</ele>
	<time>2025-04-30T06:35:15.000Z</time>
</trkpt>
<trkpt lat="45.9051470" lon="10.2631650">
	<ele>933.20</ele>
	<time>2025-04-30T06:35:16.000Z</time>
</trkpt>
<trkpt lat="45.9051430" lon="10.2631690">
	<ele>933.40</ele>
	<time>2025-04-30T06:35:17.000Z</time>
</trkpt>
<trkpt lat="45.9051380" lon="10.2631700">
	<ele>933.40</ele>
	<time>2025-04-30T06:35:18.000Z</time>
</trkpt>
<trkpt lat="45.9051320" lon="10.2631750">
	<ele>933.60</ele>
	<time>2025-04-30T06:35:19.000Z</time>
</trkpt>
<trkpt lat="45.9051240" lon="10.2631810">
	<ele>933.80</ele>
	<time>2025-04-30T06:35:20.000Z</time>
</trkpt>
<trkpt lat="45.9051150" lon="10.2631800">
	<ele>933.80</ele>
	<time>2025-04-30T06:35:21.000Z</time>
</trkpt>
<trkpt lat="45.9051100" lon="10.2631860">
	<ele>934.00</ele>
	<time>2025-04-30T06:35:22.000Z</time>
</trkpt>
<trkpt lat="45.9051010" lon="10.2631940">
	<ele>934.20</ele>
	<time>2025-04-30T06:35:23.000Z</time>
</trkpt>
<trkpt lat="45.9050940" lon="10.2632000">
	<ele>934.40</ele>
	<time>2025-04-30T06:35:24.000Z</time>
</trkpt>
<trkpt lat="45.9050860" lon="10.2632100">
	<ele>934.60</ele>
	<time>2025-04-30T06:35:25.000Z</time>
</trkpt>
<trkpt lat="45.9050790" lon="10.2632160">
	<ele>935.00</ele>
	<time>2025-04-30T06:35:26.000Z</time>
</trkpt>
<trkpt lat="45.9050740" lon="10.2632230">
	<ele>935.20</ele>
	<time>2025-04-30T06:35:27.000Z</time>
</trkpt>
<trkpt lat="45.9050720" lon="10.2632310">
	<ele>935.40</ele>
	<time>2025-04-30T06:35:28.000Z</time>
</trkpt>
<trkpt lat="45.9050680" lon="10.2632370">
	<ele>935.60</ele>
	<time>2025-04-30T06:35:29.000Z</time>
</trkpt>
<trkpt lat="45.9050600" lon="10.2632450">
	<ele>935.80</ele>
	<time>2025-04-30T06:35:30.000Z</time>
</trkpt>
<trkpt lat="45.9050510" lon="10.2632440">
	<ele>936.00</ele>
	<time>2025-04-30T06:35:31.000Z</time>
</trkpt>
<trkpt lat="45.9050440" lon="10.2632400">
	<ele>936.20</ele>
	<time>2025-04-30T06:35:32.000Z</time>
</trkpt>
<trkpt lat="45.9050370" lon="10.2632330">
	<ele>936.40</ele>
	<time>2025-04-30T06:35:33.000Z</time>
</trkpt>
<trkpt lat="45.9050330" lon="10.2632330">
	<ele>936.60</ele>
	<time>2025-04-30T06:35:34.000Z</time>
</trkpt>
<trkpt lat="45.9050310" lon="10.2632320">
	<ele>936.80</ele>
	<time>2025-04-30T06:35:35.000Z</time>
</trkpt>
<trkpt lat="45.9050250" lon="10.2632320">
	<ele>937.00</ele>
	<time>2025-04-30T06:35:36.000Z</time>
</trkpt>
<trkpt lat="45.9050220" lon="10.2632310">
	<ele>937.20</ele>
	<time>2025-04-30T06:35:37.000Z</time>
</trkpt>
<trkpt lat="45.9050180" lon="10.2632340">
	<ele>937.40</ele>
	<time>2025-04-30T06:35:38.000Z</time>
</trkpt>
<trkpt lat="45.9050140" lon="10.2632350">
	<ele>937.40</ele>
	<time>2025-04-30T06:35:39.000Z</time>
</trkpt>
<trkpt lat="45.9050080" lon="10.2632300">
	<ele>937.60</ele>
	<time>2025-04-30T06:35:40.000Z</time>
</trkpt>
<trkpt lat="45.9049970" lon="10.2632240">
	<ele>937.80</ele>
	<time>2025-04-30T06:35:41.000Z</time>
</trkpt>
<trkpt lat="45.9049910" lon="10.2632190">
	<ele>938.00</ele>
	<time>2025-04-30T06:35:42.000Z</time>
</trkpt>
<trkpt lat="45.9049860" lon="10.2632140">
	<ele>938.00</ele>
	<time>2025-04-30T06:35:43.000Z</time>
</trkpt>
<trkpt lat="45.9049790" lon="10.2632080">
	<ele>938.40</ele>
	<time>2025-04-30T06:35:44.000Z</time>
</trkpt>
<trkpt lat="45.9049740" lon="10.2631990">
	<ele>938.60</ele>
	<time>2025-04-30T06:35:45.000Z</time>
</trkpt>
<trkpt lat="45.9049680" lon="10.2631910">
	<ele>938.60</ele>
	<time>2025-04-30T06:35:46.000Z</time>
</trkpt>
<trkpt lat="45.9049640" lon="10.2631850">
	<ele>938.80</ele>
	<time>2025-04-30T06:35:47.000Z</time>
</trkpt>
<trkpt lat="45.9049600" lon="10.2631840">
	<ele>939.00</ele>
	<time>2025-04-30T06:35:48.000Z</time>
</trkpt>
<trkpt lat="45.9049540" lon="10.2631780">
	<ele>939.20</ele>
	<time>2025-04-30T06:35:49.000Z</time>
</trkpt>
<trkpt lat="45.9049460" lon="10.2631740">
	<ele>939.40</ele>
	<time>2025-04-30T06:35:50.000Z</time>
</trkpt>
<trkpt lat="45.9049430" lon="10.2631690">
	<ele>939.60</ele>
	<time>2025-04-30T06:35:51.000Z</time>
</trkpt>
<trkpt lat="45.9049470" lon="10.2631630">
	<ele>939.80</ele>
	<time>2025-04-30T06:35:52.000Z</time>
</trkpt>
<trkpt lat="45.9049430" lon="10.2631580">
	<ele>940.00</ele>
	<time>2025-04-30T06:35:53.000Z</time>
</trkpt>
<trkpt lat="45.9049400" lon="10.2631570">
	<ele>940.00</ele>
	<time>2025-04-30T06:35:54.000Z</time>
</trkpt>
<trkpt lat="45.9049320" lon="10.2631590">
	<ele>940.20</ele>
	<time>2025-04-30T06:35:55.000Z</time>
</trkpt>
<trkpt lat="45.9049250" lon="10.2631620">
	<ele>940.60</ele>
	<time>2025-04-30T06:35:56.000Z</time>
</trkpt>
<trkpt lat="45.9049210" lon="10.2631620">
	<ele>940.80</ele>
	<time>2025-04-30T06:35:57.000Z</time>
</trkpt>
<trkpt lat="45.9049170" lon="10.2631620">
	<ele>941.00</ele>
	<time>2025-04-30T06:35:58.000Z</time>
</trkpt>
<trkpt lat="45.9049130" lon="10.2631690">
	<ele>941.20</ele>
	<time>2025-04-30T06:35:59.000Z</time>
</trkpt>
<trkpt lat="45.9049080" lon="10.2631710">
	<ele>941.20</ele>
	<time>2025-04-30T06:36:00.000Z</time>
</trkpt>
<trkpt lat="45.9049030" lon="10.2631710">
	<ele>941.40</ele>
	<time>2025-04-30T06:36:01.000Z</time>
</trkpt>
<trkpt lat="45.9049000" lon="10.2631660">
	<ele>941.60</ele>
	<time>2025-04-30T06:36:02.000Z</time>
</trkpt>
<trkpt lat="45.9048990" lon="10.2631620">
	<ele>941.60</ele>
	<time>2025-04-30T06:36:03.000Z</time>
</trkpt>
<trkpt lat="45.9048950" lon="10.2631580">
	<ele>941.60</ele>
	<time>2025-04-30T06:36:04.000Z</time>
</trkpt>
<trkpt lat="45.9048920" lon="10.2631530">
	<ele>941.80</ele>
	<time>2025-04-30T06:36:05.000Z</time>
</trkpt>
<trkpt lat="45.9048930" lon="10.2631470">
	<ele>942.00</ele>
	<time>2025-04-30T06:36:06.000Z</time>
</trkpt>
<trkpt lat="45.9048940" lon="10.2631410">
	<ele>942.20</ele>
	<time>2025-04-30T06:36:07.000Z</time>
</trkpt>
<trkpt lat="45.9048920" lon="10.2631330">
	<ele>942.20</ele>
	<time>2025-04-30T06:36:08.000Z</time>
</trkpt>
<trkpt lat="45.9048890" lon="10.2631260">
	<ele>942.40</ele>
	<time>2025-04-30T06:36:09.000Z</time>
</trkpt>
<trkpt lat="45.9048880" lon="10.2631230">
	<ele>942.60</ele>
	<time>2025-04-30T06:36:10.000Z</time>
</trkpt>
<trkpt lat="45.9048880" lon="10.2631200">
	<ele>942.80</ele>
	<time>2025-04-30T06:36:11.000Z</time>
</trkpt>
<trkpt lat="45.9048840" lon="10.2631100">
	<ele>942.80</ele>
	<time>2025-04-30T06:36:12.000Z</time>
</trkpt>
<trkpt lat="45.9048740" lon="10.2630980">
	<ele>943.00</ele>
	<time>2025-04-30T06:36:13.000Z</time>
</trkpt>
<trkpt lat="45.9048690" lon="10.2630940">
	<ele>943.20</ele>
	<time>2025-04-30T06:36:14.000Z</time>
</trkpt>
<trkpt lat="45.9048670" lon="10.2630930">
	<ele>943.40</ele>
	<time>2025-04-30T06:36:15.000Z</time>
</trkpt>
<trkpt lat="45.9048670" lon="10.2630880">
	<ele>943.60</ele>
	<time>2025-04-30T06:36:16.000Z</time>
</trkpt>
<trkpt lat="45.9048710" lon="10.2630810">
	<ele>943.80</ele>
	<time>2025-04-30T06:36:17.000Z</time>
</trkpt>
<trkpt lat="45.9048690" lon="10.2630710">
	<ele>943.80</ele>
	<time>2025-04-30T06:36:18.000Z</time>
</trkpt>
<trkpt lat="45.9048550" lon="10.2630550">
	<ele>944.20</ele>
	<time>2025-04-30T06:36:19.000Z</time>
</trkpt>
<trkpt lat="45.9048500" lon="10.2630410">
	<ele>944.40</ele>
	<time>2025-04-30T06:36:20.000Z</time>
</trkpt>
<trkpt lat="45.9048530" lon="10.2630350">
	<ele>944.60</ele>
	<time>2025-04-30T06:36:21.000Z</time>
</trkpt>
<trkpt lat="45.9048560" lon="10.2630240">
	<ele>944.80</ele>
	<time>2025-04-30T06:36:22.000Z</time>
</trkpt>
<trkpt lat="45.9048620" lon="10.2630160">
	<ele>945.00</ele>
	<time>2025-04-30T06:36:23.000Z</time>
</trkpt>
<trkpt lat="45.9048670" lon="10.2630130">
	<ele>945.00</ele>
	<time>2025-04-30T06:36:24.000Z</time>
</trkpt>
<trkpt lat="45.9048720" lon="10.2630100">
	<ele>945.00</ele>
	<time>2025-04-30T06:36:25.000Z</time>
</trkpt>
<trkpt lat="45.9048690" lon="10.2630020">
	<ele>945.20</ele>
	<time>2025-04-30T06:36:26.000Z</time>
</trkpt>
<trkpt lat="45.9048590" lon="10.2629960">
	<ele>945.20</ele>
	<time>2025-04-30T06:36:27.000Z</time>
</trkpt>
<trkpt lat="45.9048510" lon="10.2629880">
	<ele>945.40</ele>
	<time>2025-04-30T06:36:28.000Z</time>
</trkpt>
<trkpt lat="45.9048520" lon="10.2629820">
	<ele>945.40</ele>
	<time>2025-04-30T06:36:29.000Z</time>
</trkpt>
<trkpt lat="45.9048500" lon="10.2629760">
	<ele>945.40</ele>
	<time>2025-04-30T06:36:30.000Z</time>
</trkpt>
<trkpt lat="45.9048420" lon="10.2629670">
	<ele>945.60</ele>
	<time>2025-04-30T06:36:31.000Z</time>
</trkpt>
<trkpt lat="45.9048360" lon="10.2629590">
	<ele>945.60</ele>
	<time>2025-04-30T06:36:32.000Z</time>
</trkpt>
<trkpt lat="45.9048300" lon="10.2629510">
	<ele>945.80</ele>
	<time>2025-04-30T06:36:33.000Z</time>
</trkpt>
<trkpt lat="45.9048320" lon="10.2629440">
	<ele>946.00</ele>
	<time>2025-04-30T06:36:34.000Z</time>
</trkpt>
<trkpt lat="45.9048290" lon="10.2629350">
	<ele>946.00</ele>
	<time>2025-04-30T06:36:35.000Z</time>
</trkpt>
<trkpt lat="45.9048280" lon="10.2629270">
	<ele>946.20</ele>
	<time>2025-04-30T06:36:36.000Z</time>
</trkpt>
<trkpt lat="45.9048220" lon="10.2629180">
	<ele>946.20</ele>
	<time>2025-04-30T06:36:37.000Z</time>
</trkpt>
<trkpt lat="45.9048150" lon="10.2629090">
	<ele>946.20</ele>
	<time>2025-04-30T06:36:38.000Z</time>
</trkpt>
<trkpt lat="45.9048090" lon="10.2629020">
	<ele>946.20</ele>
	<time>2025-04-30T06:36:39.000Z</time>
</trkpt>
<trkpt lat="45.9047980" lon="10.2628960">
	<ele>946.20</ele>
	<time>2025-04-30T06:36:40.000Z</time>
</trkpt>
<trkpt lat="45.9047790" lon="10.2628890">
	<ele>946.40</ele>
	<time>2025-04-30T06:36:41.000Z</time>
</trkpt>
<trkpt lat="45.9047640" lon="10.2628770">
	<ele>946.40</ele>
	<time>2025-04-30T06:36:42.000Z</time>
</trkpt>
<trkpt lat="45.9047530" lon="10.2628660">
	<ele>946.40</ele>
	<time>2025-04-30T06:36:43.000Z</time>
</trkpt>
<trkpt lat="45.9047480" lon="10.2628590">
	<ele>946.60</ele>
	<time>2025-04-30T06:36:44.000Z</time>
</trkpt>
<trkpt lat="45.9047390" lon="10.2628480">
	<ele>946.80</ele>
	<time>2025-04-30T06:36:45.000Z</time>
</trkpt>
<trkpt lat="45.9047330" lon="10.2628420">
	<ele>946.80</ele>
	<time>2025-04-30T06:36:46.000Z</time>
</trkpt>
<trkpt lat="45.9047220" lon="10.2628340">
	<ele>947.00</ele>
	<time>2025-04-30T06:36:47.000Z</time>
</trkpt>
<trkpt lat="45.9047180" lon="10.2628220">
	<ele>947.00</ele>
	<time>2025-04-30T06:36:48.000Z</time>
</trkpt>
<trkpt lat="45.9047110" lon="10.2628190">
	<ele>947.20</ele>
	<time>2025-04-30T06:36:49.000Z</time>
</trkpt>
<trkpt lat="45.9047060" lon="10.2628170">
	<ele>947.40</ele>
	<time>2025-04-30T06:36:50.000Z</time>
</trkpt>
<trkpt lat="45.9047020" lon="10.2628140">
	<ele>947.60</ele>
	<time>2025-04-30T06:36:51.000Z</time>
</trkpt>
<trkpt lat="45.9047040" lon="10.2628060">
	<ele>947.80</ele>
	<time>2025-04-30T06:36:52.000Z</time>
</trkpt>
<trkpt lat="45.9047030" lon="10.2628010">
	<ele>948.00</ele>
	<time>2025-04-30T06:36:53.000Z</time>
</trkpt>
<trkpt lat="45.9046880" lon="10.2627910">
	<ele>948.00</ele>
	<time>2025-04-30T06:36:54.000Z</time>
</trkpt>
<trkpt lat="45.9046780" lon="10.2627850">
	<ele>948.20</ele>
	<time>2025-04-30T06:36:55.000Z</time>
</trkpt>
<trkpt lat="45.9046710" lon="10.2627780">
	<ele>948.40</ele>
	<time>2025-04-30T06:36:56.000Z</time>
</trkpt>
<trkpt lat="45.9046650" lon="10.2627750">
	<ele>948.60</ele>
	<time>2025-04-30T06:36:57.000Z</time>
</trkpt>
<trkpt lat="45.9046610" lon="10.2627700">
	<ele>948.80</ele>
	<time>2025-04-30T06:36:58.000Z</time>
</trkpt>
<trkpt lat="45.9046590" lon="10.2627660">
	<ele>948.80</ele>
	<time>2025-04-30T06:36:59.000Z</time>
</trkpt>
<trkpt lat="45.9046560" lon="10.2627620">
	<ele>949.20</ele>
	<time>2025-04-30T06:37:00.000Z</time>
</trkpt>
<trkpt lat="45.9046470" lon="10.2627520">
	<ele>949.40</ele>
	<time>2025-04-30T06:37:01.000Z</time>
</trkpt>
<trkpt lat="45.9046400" lon="10.2627420">
	<ele>949.40</ele>
	<time>2025-04-30T06:37:02.000Z</time>
</trkpt>
<trkpt lat="45.9046350" lon="10.2627400">
	<ele>949.80</ele>
	<time>2025-04-30T06:37:03.000Z</time>
</trkpt>
<trkpt lat="45.9046320" lon="10.2627360">
	<ele>950.00</ele>
	<time>2025-04-30T06:37:04.000Z</time>
</trkpt>
<trkpt lat="45.9046310" lon="10.2627320">
	<ele>950.00</ele>
	<time>2025-04-30T06:37:05.000Z</time>
</trkpt>
<trkpt lat="45.9046290" lon="10.2627290">
	<ele>950.20</ele>
	<time>2025-04-30T06:37:06.000Z</time>
</trkpt>
<trkpt lat="45.9046250" lon="10.2627210">
	<ele>950.40</ele>
	<time>2025-04-30T06:37:07.000Z</time>
</trkpt>
<trkpt lat="45.9046210" lon="10.2627160">
	<ele>950.40</ele>
	<time>2025-04-30T06:37:08.000Z</time>
</trkpt>
<trkpt lat="45.9046210" lon="10.2627090">
	<ele>950.60</ele>
	<time>2025-04-30T06:37:09.000Z</time>
</trkpt>
<trkpt lat="45.9046150" lon="10.2627060">
	<ele>950.60</ele>
	<time>2025-04-30T06:37:10.000Z</time>
</trkpt>
<trkpt lat="45.9046030" lon="10.2627030">
	<ele>951.00</ele>
	<time>2025-04-30T06:37:11.000Z</time>
</trkpt>
<trkpt lat="45.9046000" lon="10.2627020">
	<ele>951.20</ele>
	<time>2025-04-30T06:37:12.000Z</time>
</trkpt>
<trkpt lat="45.9045970" lon="10.2626990">
	<ele>951.60</ele>
	<time>2025-04-30T06:37:13.000Z</time>
</trkpt>
<trkpt lat="45.9045880" lon="10.2626940">
	<ele>951.80</ele>
	<time>2025-04-30T06:37:14.000Z</time>
</trkpt>
<trkpt lat="45.9045830" lon="10.2626860">
	<ele>952.00</ele>
	<time>2025-04-30T06:37:15.000Z</time>
</trkpt>
<trkpt lat="45.9045740" lon="10.2626790">
	<ele>952.20</ele>
	<time>2025-04-30T06:37:16.000Z</time>
</trkpt>
<trkpt lat="45.9045680" lon="10.2626730">
	<ele>952.40</ele>
	<time>2025-04-30T06:37:17.000Z</time>
</trkpt>
<trkpt lat="45.9045620" lon="10.2626670">
	<ele>952.60</ele>
	<time>2025-04-30T06:37:18.000Z</time>
</trkpt>
<trkpt lat="45.9045480" lon="10.2626630">
	<ele>952.80</ele>
	<time>2025-04-30T06:37:19.000Z</time>
</trkpt>
<trkpt lat="45.9045400" lon="10.2626570">
	<ele>953.00</ele>
	<time>2025-04-30T06:37:20.000Z</time>
</trkpt>
<trkpt lat="45.9045280" lon="10.2626500">
	<ele>953.20</ele>
	<time>2025-04-30T06:37:21.000Z</time>
</trkpt>
<trkpt lat="45.9045210" lon="10.2626500">
	<ele>953.20</ele>
	<time>2025-04-30T06:37:22.000Z</time>
</trkpt>
<trkpt lat="45.9045190" lon="10.2626430">
	<ele>953.60</ele>
	<time>2025-04-30T06:37:23.000Z</time>
</trkpt>
<trkpt lat="45.9045140" lon="10.2626370">
	<ele>953.80</ele>
	<time>2025-04-30T06:37:24.000Z</time>
</trkpt>
<trkpt lat="45.9045180" lon="10.2626310">
	<ele>954.00</ele>
	<time>2025-04-30T06:37:25.000Z</time>
</trkpt>
<trkpt lat="45.9045180" lon="10.2626290">
	<ele>954.20</ele>
	<time>2025-04-30T06:37:26.000Z</time>
</trkpt>
<trkpt lat="45.9045160" lon="10.2626280">
	<ele>954.40</ele>
	<time>2025-04-30T06:37:27.000Z</time>
</trkpt>
<trkpt lat="45.9045120" lon="10.2626230">
	<ele>954.60</ele>
	<time>2025-04-30T06:37:28.000Z</time>
</trkpt>
<trkpt lat="45.9045100" lon="10.2626150">
	<ele>954.60</ele>
	<time>2025-04-30T06:37:29.000Z</time>
</trkpt>
<trkpt lat="45.9045090" lon="10.2626080">
	<ele>954.80</ele>
	<time>2025-04-30T06:37:30.000Z</time>
</trkpt>
<trkpt lat="45.9045080" lon="10.2625990">
	<ele>955.00</ele>
	<time>2025-04-30T06:37:31.000Z</time>
</trkpt>
<trkpt lat="45.9045100" lon="10.2625900">
	<ele>955.20</ele>
	<time>2025-04-30T06:37:32.000Z</time>
</trkpt>
<trkpt lat="45.9045110" lon="10.2625840">
	<ele>955.40</ele>
	<time>2025-04-30T06:37:33.000Z</time>
</trkpt>
<trkpt lat="45.9045140" lon="10.2625760">
	<ele>955.40</ele>
	<time>2025-04-30T06:37:34.000Z</time>
</trkpt>
<trkpt lat="45.9045120" lon="10.2625660">
	<ele>955.60</ele>
	<time>2025-04-30T06:37:35.000Z</time>
</trkpt>
<trkpt lat="45.9045080" lon="10.2625560">
	<ele>955.80</ele>
	<time>2025-04-30T06:37:36.000Z</time>
</trkpt>
<trkpt lat="45.9044960" lon="10.2625440">
	<ele>956.00</ele>
	<time>2025-04-30T06:37:37.000Z</time>
</trkpt>
<trkpt lat="45.9044880" lon="10.2625330">
	<ele>956.20</ele>
	<time>2025-04-30T06:37:38.000Z</time>
</trkpt>
<trkpt lat="45.9044880" lon="10.2625210">
	<ele>956.40</ele>
	<time>2025-04-30T06:37:39.000Z</time>
</trkpt>
<trkpt lat="45.9044880" lon="10.2625120">
	<ele>956.40</ele>
	<time>2025-04-30T06:37:40.000Z</time>
</trkpt>
<trkpt lat="45.9044860" lon="10.2625020">
	<ele>956.60</ele>
	<time>2025-04-30T06:37:41.000Z</time>
</trkpt>
<trkpt lat="45.9044790" lon="10.2624940">
	<ele>956.60</ele>
	<time>2025-04-30T06:37:42.000Z</time>
</trkpt>
<trkpt lat="45.9044590" lon="10.2624790">
	<ele>956.60</ele>
	<time>2025-04-30T06:37:43.000Z</time>
</trkpt>
<trkpt lat="45.9044410" lon="10.2624640">
	<ele>956.60</ele>
	<time>2025-04-30T06:37:44.000Z</time>
</trkpt>
<trkpt lat="45.9044330" lon="10.2624590">
	<ele>956.80</ele>
	<time>2025-04-30T06:37:45.000Z</time>
</trkpt>
<trkpt lat="45.9044270" lon="10.2624560">
	<ele>957.00</ele>
	<time>2025-04-30T06:37:46.000Z</time>
</trkpt>
<trkpt lat="45.9044240" lon="10.2624580">
	<ele>957.20</ele>
	<time>2025-04-30T06:37:47.000Z</time>
</trkpt>
<trkpt lat="45.9044170" lon="10.2624540">
	<ele>957.40</ele>
	<time>2025-04-30T06:37:48.000Z</time>
</trkpt>
<trkpt lat="45.9044220" lon="10.2624410">
	<ele>957.40</ele>
	<time>2025-04-30T06:37:49.000Z</time>
</trkpt>
<trkpt lat="45.9044260" lon="10.2624200">
	<ele>957.60</ele>
	<time>2025-04-30T06:37:50.000Z</time>
</trkpt>
<trkpt lat="45.9044260" lon="10.2624030">
	<ele>957.60</ele>
	<time>2025-04-30T06:37:51.000Z</time>
</trkpt>
<trkpt lat="45.9044240" lon="10.2623910">
	<ele>957.60</ele>
	<time>2025-04-30T06:37:52.000Z</time>
</trkpt>
<trkpt lat="45.9044190" lon="10.2623860">
	<ele>957.80</ele>
	<time>2025-04-30T06:37:53.000Z</time>
</trkpt>
<trkpt lat="45.9044140" lon="10.2623820">
	<ele>958.00</ele>
	<time>2025-04-30T06:37:54.000Z</time>
</trkpt>
<trkpt lat="45.9044060" lon="10.2623740">
	<ele>958.20</ele>
	<time>2025-04-30T06:37:55.000Z</time>
</trkpt>
<trkpt lat="45.9044040" lon="10.2623610">
	<ele>958.40</ele>
	<time>2025-04-30T06:37:56.000Z</time>
</trkpt>
<trkpt lat="45.9044000" lon="10.2623480">
	<ele>958.40</ele>
	<time>2025-04-30T06:37:57.000Z</time>
</trkpt>
<trkpt lat="45.9043950" lon="10.2623450">
	<ele>958.60</ele>
	<time>2025-04-30T06:37:58.000Z</time>
</trkpt>
<trkpt lat="45.9043920" lon="10.2623440">
	<ele>958.80</ele>
	<time>2025-04-30T06:37:59.000Z</time>
</trkpt>
<trkpt lat="45.9043960" lon="10.2623380">
	<ele>958.80</ele>
	<time>2025-04-30T06:38:00.000Z</time>
</trkpt>
<trkpt lat="45.9043960" lon="10.2623340">
	<ele>959.00</ele>
	<time>2025-04-30T06:38:01.000Z</time>
</trkpt>
<trkpt lat="45.9043850" lon="10.2623250">
	<ele>959.20</ele>
	<time>2025-04-30T06:38:02.000Z</time>
</trkpt>
<trkpt lat="45.9043840" lon="10.2623230">
	<ele>959.20</ele>
	<time>2025-04-30T06:38:03.000Z</time>
</trkpt>
<trkpt lat="45.9043750" lon="10.2623170">
	<ele>959.40</ele>
	<time>2025-04-30T06:38:04.000Z</time>
</trkpt>
<trkpt lat="45.9043680" lon="10.2623140">
	<ele>959.80</ele>
	<time>2025-04-30T06:38:05.000Z</time>
</trkpt>
<trkpt lat="45.9043640" lon="10.2623120">
	<ele>960.00</ele>
	<time>2025-04-30T06:38:06.000Z</time>
</trkpt>
<trkpt lat="45.9043610" lon="10.2623140">
	<ele>960.00</ele>
	<time>2025-04-30T06:38:07.000Z</time>
</trkpt>
<trkpt lat="45.9043490" lon="10.2623130">
	<ele>960.20</ele>
	<time>2025-04-30T06:38:08.000Z</time>
</trkpt>
<trkpt lat="45.9043400" lon="10.2623060">
	<ele>960.40</ele>
	<time>2025-04-30T06:38:09.000Z</time>
</trkpt>
<trkpt lat="45.9043290" lon="10.2622990">
	<ele>960.40</ele>
	<time>2025-04-30T06:38:10.000Z</time>
</trkpt>
<trkpt lat="45.9043220" lon="10.2622900">
	<ele>960.60</ele>
	<time>2025-04-30T06:38:11.000Z</time>
</trkpt>
<trkpt lat="45.9043120" lon="10.2622770">
	<ele>960.80</ele>
	<time>2025-04-30T06:38:12.000Z</time>
</trkpt>
<trkpt lat="45.9043010" lon="10.2622710">
	<ele>961.00</ele>
	<time>2025-04-30T06:38:13.000Z</time>
</trkpt>
<trkpt lat="45.9042920" lon="10.2622650">
	<ele>961.00</ele>
	<time>2025-04-30T06:38:14.000Z</time>
</trkpt>
<trkpt lat="45.9042850" lon="10.2622590">
	<ele>961.40</ele>
	<time>2025-04-30T06:38:15.000Z</time>
</trkpt>
<trkpt lat="45.9042820" lon="10.2622530">
	<ele>961.60</ele>
	<time>2025-04-30T06:38:16.000Z</time>
</trkpt>
<trkpt lat="45.9042820" lon="10.2622390">
	<ele>961.60</ele>
	<time>2025-04-30T06:38:17.000Z</time>
</trkpt>
<trkpt lat="45.9042780" lon="10.2622350">
	<ele>961.80</ele>
	<time>2025-04-30T06:38:18.000Z</time>
</trkpt>
<trkpt lat="45.9042740" lon="10.2622240">
	<ele>961.80</ele>
	<time>2025-04-30T06:38:19.000Z</time>
</trkpt>
<trkpt lat="45.9042730" lon="10.2622150">
	<ele>962.00</ele>
	<time>2025-04-30T06:38:20.000Z</time>
</trkpt>
<trkpt lat="45.9042730" lon="10.2622160">
	<ele>962.20</ele>
	<time>2025-04-30T06:38:21.000Z</time>
</trkpt>
<trkpt lat="45.9042730" lon="10.2622180">
	<ele>962.40</ele>
	<time>2025-04-30T06:38:22.000Z</time>
</trkpt>
<trkpt lat="45.9042640" lon="10.2622200">
	<ele>962.60</ele>
	<time>2025-04-30T06:38:23.000Z</time>
</trkpt>
<trkpt lat="45.9042510" lon="10.2622170">
	<ele>962.60</ele>
	<time>2025-04-30T06:38:24.000Z</time>
</trkpt>
<trkpt lat="45.9042360" lon="10.2622130">
	<ele>962.80</ele>
	<time>2025-04-30T06:38:25.000Z</time>
</trkpt>
<trkpt lat="45.9042250" lon="10.2622040">
	<ele>963.00</ele>
	<time>2025-04-30T06:38:26.000Z</time>
</trkpt>
<trkpt lat="45.9042140" lon="10.2622000">
	<ele>963.20</ele>
	<time>2025-04-30T06:38:27.000Z</time>
</trkpt>
<trkpt lat="45.9041970" lon="10.2621920">
	<ele>963.40</ele>
	<time>2025-04-30T06:38:28.000Z</time>
</trkpt>
<trkpt lat="45.9041860" lon="10.2621890">
	<ele>963.40</ele>
	<time>2025-04-30T06:38:29.000Z</time>
</trkpt>
<trkpt lat="45.9041680" lon="10.2621870">
	<ele>963.60</ele>
	<time>2025-04-30T06:38:30.000Z</time>
</trkpt>
<trkpt lat="45.9041570" lon="10.2621800">
	<ele>963.80</ele>
	<time>2025-04-30T06:38:31.000Z</time>
</trkpt>
<trkpt lat="45.9041580" lon="10.2621770">
	<ele>964.00</ele>
	<time>2025-04-30T06:38:32.000Z</time>
</trkpt>
<trkpt lat="45.9041550" lon="10.2621640">
	<ele>964.00</ele>
	<time>2025-04-30T06:38:33.000Z</time>
</trkpt>
<trkpt lat="45.9041530" lon="10.2621620">
	<ele>964.20</ele>
	<time>2025-04-30T06:38:34.000Z</time>
</trkpt>
<trkpt lat="45.9041530" lon="10.2621510">
	<ele>964.40</ele>
	<time>2025-04-30T06:38:35.000Z</time>
</trkpt>
<trkpt lat="45.9041480" lon="10.2621400">
	<ele>964.60</ele>
	<time>2025-04-30T06:38:36.000Z</time>
</trkpt>
<trkpt lat="45.9041340" lon="10.2621330">
	<ele>964.80</ele>
	<time>2025-04-30T06:38:37.000Z</time>
</trkpt>
<trkpt lat="45.9041300" lon="10.2621320">
	<ele>965.00</ele>
	<time>2025-04-30T06:38:38.000Z</time>
</trkpt>
<trkpt lat="45.9041260" lon="10.2621300">
	<ele>965.20</ele>
	<time>2025-04-30T06:38:39.000Z</time>
</trkpt>
<trkpt lat="45.9041210" lon="10.2621310">
	<ele>965.20</ele>
	<time>2025-04-30T06:38:40.000Z</time>
</trkpt>
<trkpt lat="45.9041150" lon="10.2621320">
	<ele>965.40</ele>
	<time>2025-04-30T06:38:41.000Z</time>
</trkpt>
<trkpt lat="45.9041130" lon="10.2621310">
	<ele>965.40</ele>
	<time>2025-04-30T06:38:42.000Z</time>
</trkpt>
<trkpt lat="45.9041160" lon="10.2621340">
	<ele>965.60</ele>
	<time>2025-04-30T06:38:43.000Z</time>
</trkpt>
<trkpt lat="45.9041080" lon="10.2621290">
	<ele>965.80</ele>
	<time>2025-04-30T06:38:44.000Z</time>
</trkpt>
<trkpt lat="45.9041030" lon="10.2621160">
	<ele>966.00</ele>
	<time>2025-04-30T06:38:45.000Z</time>
</trkpt>
<trkpt lat="45.9041040" lon="10.2621150">
	<ele>966.20</ele>
	<time>2025-04-30T06:38:46.000Z</time>
</trkpt>
<trkpt lat="45.9041020" lon="10.2621110">
	<ele>966.60</ele>
	<time>2025-04-30T06:38:47.000Z</time>
</trkpt>
<trkpt lat="45.9040960" lon="10.2621060">
	<ele>966.60</ele>
	<time>2025-04-30T06:38:48.000Z</time>
</trkpt>
<trkpt lat="45.9040930" lon="10.2621030">
	<ele>966.80</ele>
	<time>2025-04-30T06:38:49.000Z</time>
</trkpt>
<trkpt lat="45.9040870" lon="10.2621030">
	<ele>967.00</ele>
	<time>2025-04-30T06:38:50.000Z</time>
</trkpt>
<trkpt lat="45.9040870" lon="10.2621010">
	<ele>967.20</ele>
	<time>2025-04-30T06:38:51.000Z</time>
</trkpt>
<trkpt lat="45.9040870" lon="10.2620960">
	<ele>967.40</ele>
	<time>2025-04-30T06:38:52.000Z</time>
</trkpt>
<trkpt lat="45.9040920" lon="10.2620930">
	<ele>967.80</ele>
	<time>2025-04-30T06:38:53.000Z</time>
</trkpt>
<trkpt lat="45.9040890" lon="10.2620870">
	<ele>968.00</ele>
	<time>2025-04-30T06:38:54.000Z</time>
</trkpt>
<trkpt lat="45.9040850" lon="10.2620850">
	<ele>968.20</ele>
	<time>2025-04-30T06:38:55.000Z</time>
</trkpt>
<trkpt lat="45.9040830" lon="10.2620890">
	<ele>968.40</ele>
	<time>2025-04-30T06:38:56.000Z</time>
</trkpt>
<trkpt lat="45.9040800" lon="10.2620940">
	<ele>968.40</ele>
	<time>2025-04-30T06:38:57.000Z</time>
</trkpt>
<trkpt lat="45.9040730" lon="10.2620940">
	<ele>968.60</ele>
	<time>2025-04-30T06:38:58.000Z</time>
</trkpt>
<trkpt lat="45.9040630" lon="10.2620930">
	<ele>968.80</ele>
	<time>2025-04-30T06:38:59.000Z</time>
</trkpt>
<trkpt lat="45.9040590" lon="10.2620890">
	<ele>968.80</ele>
	<time>2025-04-30T06:39:00.000Z</time>
</trkpt>
<trkpt lat="45.9040560" lon="10.2620860">
	<ele>969.00</ele>
	<time>2025-04-30T06:39:01.000Z</time>
</trkpt>
<trkpt lat="45.9040530" lon="10.2620830">
	<ele>969.20</ele>
	<time>2025-04-30T06:39:02.000Z</time>
</trkpt>
<trkpt lat="45.9040570" lon="10.2620770">
	<ele>969.40</ele>
	<time>2025-04-30T06:39:03.000Z</time>
</trkpt>
<trkpt lat="45.9040580" lon="10.2620740">
	<ele>969.60</ele>
	<time>2025-04-30T06:39:04.000Z</time>
</trkpt>
<trkpt lat="45.9040540" lon="10.2620740">
	<ele>969.80</ele>
	<time>2025-04-30T06:39:05.000Z</time>
</trkpt>
<trkpt lat="45.9040510" lon="10.2620710">
	<ele>970.00</ele>
	<time>2025-04-30T06:39:06.000Z</time>
</trkpt>
<trkpt lat="45.9040530" lon="10.2620700">
	<ele>970.00</ele>
	<time>2025-04-30T06:39:07.000Z</time>
</trkpt>
<trkpt lat="45.9040490" lon="10.2620630">
	<ele>970.20</ele>
	<time>2025-04-30T06:39:08.000Z</time>
</trkpt>
<trkpt lat="45.9040460" lon="10.2620590">
	<ele>970.40</ele>
	<time>2025-04-30T06:39:09.000Z</time>
</trkpt>
<trkpt lat="45.9040430" lon="10.2620590">
	<ele>970.60</ele>
	<time>2025-04-30T06:39:10.000Z</time>
</trkpt>
<trkpt lat="45.9040400" lon="10.2620580">
	<ele>970.80</ele>
	<time>2025-04-30T06:39:11.000Z</time>
</trkpt>
<trkpt lat="45.9040390" lon="10.2620530">
	<ele>971.00</ele>
	<time>2025-04-30T06:39:12.000Z</time>
</trkpt>
<trkpt lat="45.9040290" lon="10.2620460">
	<ele>971.20</ele>
	<time>2025-04-30T06:39:13.000Z</time>
</trkpt>
<trkpt lat="45.9040250" lon="10.2620470">
	<ele>971.20</ele>
	<time>2025-04-30T06:39:14.000Z</time>
</trkpt>
<trkpt lat="45.9040160" lon="10.2620440">
	<ele>971.60</ele>
	<time>2025-04-30T06:39:15.000Z</time>
</trkpt>
<trkpt lat="45.9040160" lon="10.2620430">
	<ele>971.80</ele>
	<time>2025-04-30T06:39:16.000Z</time>
</trkpt>
<trkpt lat="45.9040140" lon="10.2620390">
	<ele>972.00</ele>
	<time>2025-04-30T06:39:17.000Z</time>
</trkpt>
<trkpt lat="45.9040100" lon="10.2620380">
	<ele>972.20</ele>
	<time>2025-04-30T06:39:18.000Z</time>
</trkpt>
<trkpt lat="45.9040020" lon="10.2620330">
	<ele>972.40</ele>
	<time>2025-04-30T06:39:19.000Z</time>
</trkpt>
<trkpt lat="45.9039900" lon="10.2620190">
	<ele>972.60</ele>
	<time>2025-04-30T06:39:20.000Z</time>
</trkpt>
<trkpt lat="45.9039740" lon="10.2620020">
	<ele>972.80</ele>
	<time>2025-04-30T06:39:21.000Z</time>
</trkpt>
<trkpt lat="45.9039560" lon="10.2619930">
	<ele>973.20</ele>
	<time>2025-04-30T06:39:22.000Z</time>
</trkpt>
<trkpt lat="45.9039470" lon="10.2619890">
	<ele>973.40</ele>
	<time>2025-04-30T06:39:23.000Z</time>
</trkpt>
<trkpt lat="45.9039440" lon="10.2619880">
	<ele>973.40</ele>
	<time>2025-04-30T06:39:24.000Z</time>
</trkpt>
<trkpt lat="45.9039340" lon="10.2619820">
	<ele>973.80</ele>
	<time>2025-04-30T06:39:25.000Z</time>
</trkpt>
<trkpt lat="45.9039180" lon="10.2619730">
	<ele>974.00</ele>
	<time>2025-04-30T06:39:26.000Z</time>
</trkpt>
<trkpt lat="45.9039130" lon="10.2619710">
	<ele>974.20</ele>
	<time>2025-04-30T06:39:27.000Z</time>
</trkpt>
<trkpt lat="45.9039130" lon="10.2619810">
	<ele>974.40</ele>
	<time>2025-04-30T06:39:28.000Z</time>
</trkpt>
<trkpt lat="45.9039100" lon="10.2619920">
	<ele>974.40</ele>
	<time>2025-04-30T06:39:29.000Z</time>
</trkpt>
<trkpt lat="45.9039070" lon="10.2620030">
	<ele>974.60</ele>
	<time>2025-04-30T06:39:30.000Z</time>
</trkpt>
<trkpt lat="45.9039060" lon="10.2620000">
	<ele>974.60</ele>
	<time>2025-04-30T06:39:31.000Z</time>
</trkpt>
<trkpt lat="45.9038950" lon="10.2620010">
	<ele>974.80</ele>
	<time>2025-04-30T06:39:32.000Z</time>
</trkpt>
<trkpt lat="45.9038920" lon="10.2620060">
	<ele>974.80</ele>
	<time>2025-04-30T06:39:33.000Z</time>
</trkpt>
<trkpt lat="45.9038800" lon="10.2620130">
	<ele>975.00</ele>
	<time>2025-04-30T06:39:34.000Z</time>
</trkpt>
<trkpt lat="45.9038610" lon="10.2620200">
	<ele>975.40</ele>
	<time>2025-04-30T06:39:35.000Z</time>
</trkpt>
<trkpt lat="45.9038580" lon="10.2620260">
	<ele>975.60</ele>
	<time>2025-04-30T06:39:36.000Z</time>
</trkpt>
<trkpt lat="45.9038540" lon="10.2620380">
	<ele>975.80</ele>
	<time>2025-04-30T06:39:37.000Z</time>
</trkpt>
<trkpt lat="45.9038400" lon="10.2620480">
	<ele>976.00</ele>
	<time>2025-04-30T06:39:38.000Z</time>
</trkpt>
<trkpt lat="45.9038420" lon="10.2620580">
	<ele>976.20</ele>
	<time>2025-04-30T06:39:39.000Z</time>
</trkpt>
<trkpt lat="45.9038430" lon="10.2620640">
	<ele>976.20</ele>
	<time>2025-04-30T06:39:40.000Z</time>
</trkpt>
<trkpt lat="45.9038440" lon="10.2620660">
	<ele>976.40</ele>
	<time>2025-04-30T06:39:41.000Z</time>
</trkpt>
<trkpt lat="45.9038440" lon="10.2620710">
	<ele>976.60</ele>
	<time>2025-04-30T06:39:42.000Z</time>
</trkpt>
<trkpt lat="45.9038330" lon="10.2620720">
	<ele>977.00</ele>
	<time>2025-04-30T06:39:43.000Z</time>
</trkpt>
<trkpt lat="45.9038350" lon="10.2620760">
	<ele>977.20</ele>
	<time>2025-04-30T06:39:44.000Z</time>
</trkpt>
<trkpt lat="45.9038370" lon="10.2620810">
	<ele>977.40</ele>
	<time>2025-04-30T06:39:45.000Z</time>
</trkpt>
<trkpt lat="45.9038320" lon="10.2620880">
	<ele>977.40</ele>
	<time>2025-04-30T06:39:46.000Z</time>
</trkpt>
<trkpt lat="45.9038320" lon="10.2620880">
	<ele>977.60</ele>
	<time>2025-04-30T06:39:47.000Z</time>
</trkpt>
<trkpt lat="45.9038290" lon="10.2620890">
	<ele>977.80</ele>
	<time>2025-04-30T06:39:48.000Z</time>
</trkpt>
<trkpt lat="45.9038180" lon="10.2621010">
	<ele>977.80</ele>
	<time>2025-04-30T06:39:49.000Z</time>
</trkpt>
<trkpt lat="45.9038150" lon="10.2621120">
	<ele>978.20</ele>
	<time>2025-04-30T06:39:50.000Z</time>
</trkpt>
<trkpt lat="45.9038110" lon="10.2621240">
	<ele>978.20</ele>
	<time>2025-04-30T06:39:51.000Z</time>
</trkpt>
<trkpt lat="45.9038110" lon="10.2621380">
	<ele>978.40</ele>
	<time>2025-04-30T06:39:52.000Z</time>
</trkpt>
<trkpt lat="45.9038060" lon="10.2621500">
	<ele>978.60</ele>
	<time>2025-04-30T06:39:53.000Z</time>
</trkpt>
<trkpt lat="45.9037990" lon="10.2621590">
	<ele>978.80</ele>
	<time>2025-04-30T06:39:54.000Z</time>
</trkpt>
<trkpt lat="45.9037970" lon="10.2621660">
	<ele>979.00</ele>
	<time>2025-04-30T06:39:55.000Z</time>
</trkpt>
<trkpt lat="45.9037950" lon="10.2621690">
	<ele>979.20</ele>
	<time>2025-04-30T06:39:56.000Z</time>
</trkpt>
<trkpt lat="45.9037940" lon="10.2621740">
	<ele>979.40</ele>
	<time>2025-04-30T06:39:57.000Z</time>
</trkpt>
<trkpt lat="45.9037910" lon="10.2621850">
	<ele>979.40</ele>
	<time>2025-04-30T06:39:58.000Z</time>
</trkpt>
<trkpt lat="45.9037900" lon="10.2621880">
	<ele>979.40</ele>
	<time>2025-04-30T06:39:59.000Z</time>
</trkpt>
<trkpt lat="45.9037870" lon="10.2621910">
	<ele>979.60</ele>
	<time>2025-04-30T06:40:00.000Z</time>
</trkpt>
<trkpt lat="45.9037830" lon="10.2622000">
	<ele>979.80</ele>
	<time>2025-04-30T06:40:01.000Z</time>
</trkpt>
<trkpt lat="45.9037830" lon="10.2622060">
	<ele>980.00</ele>
	<time>2025-04-30T06:40:02.000Z</time>
</trkpt>
<trkpt lat="45.9037900" lon="10.2622240">
	<ele>980.20</ele>
	<time>2025-04-30T06:40:03.000Z</time>
</trkpt>
<trkpt lat="45.9037880" lon="10.2622350">
	<ele>980.40</ele>
	<time>2025-04-30T06:40:04.000Z</time>
</trkpt>
<trkpt lat="45.9037920" lon="10.2622440">
	<ele>980.60</ele>
	<time>2025-04-30T06:40:05.000Z</time>
</trkpt>
<trkpt lat="45.9037980" lon="10.2622500">
	<ele>980.80</ele>
	<time>2025-04-30T06:40:06.000Z</time>
</trkpt>
<trkpt lat="45.9038020" lon="10.2622560">
	<ele>981.00</ele>
	<time>2025-04-30T06:40:07.000Z</time>
</trkpt>
<trkpt lat="45.9037990" lon="10.2622620">
	<ele>981.40</ele>
	<time>2025-04-30T06:40:08.000Z</time>
</trkpt>
<trkpt lat="45.9037960" lon="10.2622730">
	<ele>981.40</ele>
	<time>2025-04-30T06:40:09.000Z</time>
</trkpt>
<trkpt lat="45.9037970" lon="10.2622800">
	<ele>981.60</ele>
	<time>2025-04-30T06:40:10.000Z</time>
</trkpt>
<trkpt lat="45.9037920" lon="10.2622870">
	<ele>981.80</ele>
	<time>2025-04-30T06:40:11.000Z</time>
</trkpt>
<trkpt lat="45.9037900" lon="10.2622980">
	<ele>981.80</ele>
	<time>2025-04-30T06:40:12.000Z</time>
</trkpt>
<trkpt lat="45.9037900" lon="10.2623080">
	<ele>982.00</ele>
	<time>2025-04-30T06:40:13.000Z</time>
</trkpt>
<trkpt lat="45.9037920" lon="10.2623150">
	<ele>982.00</ele>
	<time>2025-04-30T06:40:14.000Z</time>
</trkpt>
<trkpt lat="45.9037890" lon="10.2623250">
	<ele>982.20</ele>
	<time>2025-04-30T06:40:15.000Z</time>
</trkpt>
<trkpt lat="45.9037880" lon="10.2623340">
	<ele>982.40</ele>
	<time>2025-04-30T06:40:16.000Z</time>
</trkpt>
<trkpt lat="45.9037880" lon="10.2623420">
	<ele>982.40</ele>
	<time>2025-04-30T06:40:17.000Z</time>
</trkpt>
<trkpt lat="45.9037860" lon="10.2623480">
	<ele>982.60</ele>
	<time>2025-04-30T06:40:18.000Z</time>
</trkpt>
<trkpt lat="45.9037830" lon="10.2623580">
	<ele>982.80</ele>
	<time>2025-04-30T06:40:19.000Z</time>
</trkpt>
<trkpt lat="45.9037770" lon="10.2623660">
	<ele>983.00</ele>
	<time>2025-04-30T06:40:20.000Z</time>
</trkpt>
<trkpt lat="45.9037660" lon="10.2623740">
	<ele>983.20</ele>
	<time>2025-04-30T06:40:21.000Z</time>
</trkpt>
<trkpt lat="45.9037520" lon="10.2623800">
	<ele>983.20</ele>
	<time>2025-04-30T06:40:22.000Z</time>
</trkpt>
<trkpt lat="45.9037480" lon="10.2623830">
	<ele>983.40</ele>
	<time>2025-04-30T06:40:23.000Z</time>
</trkpt>
<trkpt lat="45.9037420" lon="10.2623900">
	<ele>983.60</ele>
	<time>2025-04-30T06:40:24.000Z</time>
</trkpt>
<trkpt lat="45.9037360" lon="10.2623920">
	<ele>983.80</ele>
	<time>2025-04-30T06:40:25.000Z</time>
</trkpt>
<trkpt lat="45.9037320" lon="10.2623920">
	<ele>983.80</ele>
	<time>2025-04-30T06:40:26.000Z</time>
</trkpt>
<trkpt lat="45.9037250" lon="10.2623910">
	<ele>984.00</ele>
	<time>2025-04-30T06:40:27.000Z</time>
</trkpt>
<trkpt lat="45.9037210" lon="10.2624000">
	<ele>984.20</ele>
	<time>2025-04-30T06:40:28.000Z</time>
</trkpt>
<trkpt lat="45.9037080" lon="10.2624030">
	<ele>984.40</ele>
	<time>2025-04-30T06:40:29.000Z</time>
</trkpt>
<trkpt lat="45.9037040" lon="10.2624100">
	<ele>984.40</ele>
	<time>2025-04-30T06:40:30.000Z</time>
</trkpt>
<trkpt lat="45.9037080" lon="10.2624170">
	<ele>984.80</ele>
	<time>2025-04-30T06:40:31.000Z</time>
</trkpt>
<trkpt lat="45.9037160" lon="10.2624240">
	<ele>985.00</ele>
	<time>2025-04-30T06:40:32.000Z</time>
</trkpt>
<trkpt lat="45.9037120" lon="10.2624260">
	<ele>985.20</ele>
	<time>2025-04-30T06:40:33.000Z</time>
</trkpt>
<trkpt lat="45.9037020" lon="10.2624290">
	<ele>985.40</ele>
	<time>2025-04-30T06:40:34.000Z</time>
</trkpt>
<trkpt lat="45.9036910" lon="10.2624320">
	<ele>985.60</ele>
	<time>2025-04-30T06:40:35.000Z</time>
</trkpt>
<trkpt lat="45.9036800" lon="10.2624300">
	<ele>985.80</ele>
	<time>2025-04-30T06:40:36.000Z</time>
</trkpt>
<trkpt lat="45.9036790" lon="10.2624350">
	<ele>986.00</ele>
	<time>2025-04-30T06:40:37.000Z</time>
</trkpt>
<trkpt lat="45.9036760" lon="10.2624390">
	<ele>986.20</ele>
	<time>2025-04-30T06:40:38.000Z</time>
</trkpt>
<trkpt lat="45.9036760" lon="10.2624450">
	<ele>986.40</ele>
	<time>2025-04-30T06:40:39.000Z</time>
</trkpt>
<trkpt lat="45.9036760" lon="10.2624450">
	<ele>986.60</ele>
	<time>2025-04-30T06:40:40.000Z</time>
</trkpt>
<trkpt lat="45.9036760" lon="10.2624470">
	<ele>986.80</ele>
	<time>2025-04-30T06:40:41.000Z</time>
</trkpt>
<trkpt lat="45.9036710" lon="10.2624460">
	<ele>987.00</ele>
	<time>2025-04-30T06:40:42.000Z</time>
</trkpt>
<trkpt lat="45.9036720" lon="10.2624510">
	<ele>987.00</ele>
	<time>2025-04-30T06:40:43.000Z</time>
</trkpt>
<trkpt lat="45.9036710" lon="10.2624560">
	<ele>987.20</ele>
	<time>2025-04-30T06:40:44.000Z</time>
</trkpt>
<trkpt lat="45.9036720" lon="10.2624620">
	<ele>987.60</ele>
	<time>2025-04-30T06:40:45.000Z</time>
</trkpt>
<trkpt lat="45.9036790" lon="10.2624660">
	<ele>987.80</ele>
	<time>2025-04-30T06:40:46.000Z</time>
</trkpt>
<trkpt lat="45.9036810" lon="10.2624670">
	<ele>988.00</ele>
	<time>2025-04-30T06:40:47.000Z</time>
</trkpt>
<trkpt lat="45.9036790" lon="10.2624680">
	<ele>988.00</ele>
	<time>2025-04-30T06:40:48.000Z</time>
</trkpt>
<trkpt lat="45.9036760" lon="10.2624680">
	<ele>988.20</ele>
	<time>2025-04-30T06:40:49.000Z</time>
</trkpt>
<trkpt lat="45.9036660" lon="10.2624700">
	<ele>988.20</ele>
	<time>2025-04-30T06:40:50.000Z</time>
</trkpt>
<trkpt lat="45.9036590" lon="10.2624770">
	<ele>988.20</ele>
	<time>2025-04-30T06:40:51.000Z</time>
</trkpt>
<trkpt lat="45.9036490" lon="10.2624840">
	<ele>988.40</ele>
	<time>2025-04-30T06:40:52.000Z</time>
</trkpt>
<trkpt lat="45.9036410" lon="10.2624850">
	<ele>988.60</ele>
	<time>2025-04-30T06:40:53.000Z</time>
</trkpt>
<trkpt lat="45.9036350" lon="10.2624850">
	<ele>988.80</ele>
	<time>2025-04-30T06:40:54.000Z</time>
</trkpt>
<trkpt lat="45.9036260" lon="10.2624860">
	<ele>989.00</ele>
	<time>2025-04-30T06:40:55.000Z</time>
</trkpt>
<trkpt lat="45.9036140" lon="10.2624910">
	<ele>989.00</ele>
	<time>2025-04-30T06:40:56.000Z</time>
</trkpt>
<trkpt lat="45.9036050" lon="10.2624940">
	<ele>989.20</ele>
	<time>2025-04-30T06:40:57.000Z</time>
</trkpt>
<trkpt lat="45.9036030" lon="10.2624970">
	<ele>989.20</ele>
	<time>2025-04-30T06:40:58.000Z</time>
</trkpt>
<trkpt lat="45.9036020" lon="10.2624990">
	<ele>989.40</ele>
	<time>2025-04-30T06:40:59.000Z</time>
</trkpt>
<trkpt lat="45.9036050" lon="10.2625010">
	<ele>989.60</ele>
	<time>2025-04-30T06:41:00.000Z</time>
</trkpt>
<trkpt lat="45.9036030" lon="10.2625080">
	<ele>989.80</ele>
	<time>2025-04-30T06:41:01.000Z</time>
</trkpt>
<trkpt lat="45.9036000" lon="10.2625100">
	<ele>989.80</ele>
	<time>2025-04-30T06:41:02.000Z</time>
</trkpt>
<trkpt lat="45.9035970" lon="10.2625170">
	<ele>990.00</ele>
	<time>2025-04-30T06:41:03.000Z</time>
</trkpt>
<trkpt lat="45.9035940" lon="10.2625210">
	<ele>990.00</ele>
	<time>2025-04-30T06:41:04.000Z</time>
</trkpt>
<trkpt lat="45.9035900" lon="10.2625270">
	<ele>990.20</ele>
	<time>2025-04-30T06:41:05.000Z</time>
</trkpt>
<trkpt lat="45.9035820" lon="10.2625330">
	<ele>990.40</ele>
	<time>2025-04-30T06:41:06.000Z</time>
</trkpt>
<trkpt lat="45.9035770" lon="10.2625370">
	<ele>990.60</ele>
	<time>2025-04-30T06:41:07.000Z</time>
</trkpt>
<trkpt lat="45.9035780" lon="10.2625350">
	<ele>990.80</ele>
	<time>2025-04-30T06:41:08.000Z</time>
</trkpt>
<trkpt lat="45.9035760" lon="10.2625360">
	<ele>991.00</ele>
	<time>2025-04-30T06:41:09.000Z</time>
</trkpt>
<trkpt lat="45.9035710" lon="10.2625430">
	<ele>991.20</ele>
	<time>2025-04-30T06:41:10.000Z</time>
</trkpt>
<trkpt lat="45.9035670" lon="10.2625470">
	<ele>991.40</ele>
	<time>2025-04-30T06:41:11.000Z</time>
</trkpt>
<trkpt lat="45.9035570" lon="10.2625480">
	<ele>991.60</ele>
	<time>2025-04-30T06:41:12.000Z</time>
</trkpt>
<trkpt lat="45.9035470" lon="10.2625510">
	<ele>991.80</ele>
	<time>2025-04-30T06:41:13.000Z</time>
</trkpt>
<trkpt lat="45.9035460" lon="10.2625600">
	<ele>992.00</ele>
	<time>2025-04-30T06:41:14.000Z</time>
</trkpt>
<trkpt lat="45.9035490" lon="10.2625620">
	<ele>992.00</ele>
	<time>2025-04-30T06:41:15.000Z</time>
</trkpt>
<trkpt lat="45.9035400" lon="10.2625620">
	<ele>992.20</ele>
	<time>2025-04-30T06:41:16.000Z</time>
</trkpt>
<trkpt lat="45.9035350" lon="10.2625610">
	<ele>992.40</ele>
	<time>2025-04-30T06:41:17.000Z</time>
</trkpt>
<trkpt lat="45.9035310" lon="10.2625610">
	<ele>992.40</ele>
	<time>2025-04-30T06:41:18.000Z</time>
</trkpt>
<trkpt lat="45.9035180" lon="10.2625610">
	<ele>992.60</ele>
	<time>2025-04-30T06:41:19.000Z</time>
</trkpt>
<trkpt lat="45.9035090" lon="10.2625620">
	<ele>992.60</ele>
	<time>2025-04-30T06:41:20.000Z</time>
</trkpt>
<trkpt lat="45.9035030" lon="10.2625590">
	<ele>992.80</ele>
	<time>2025-04-30T06:41:21.000Z</time>
</trkpt>
<trkpt lat="45.9034970" lon="10.2625540">
	<ele>993.00</ele>
	<time>2025-04-30T06:41:22.000Z</time>
</trkpt>
<trkpt lat="45.9034900" lon="10.2625540">
	<ele>993.40</ele>
	<time>2025-04-30T06:41:23.000Z</time>
</trkpt>
<trkpt lat="45.9034840" lon="10.2625590">
	<ele>993.40</ele>
	<time>2025-04-30T06:41:24.000Z</time>
</trkpt>
<trkpt lat="45.9034860" lon="10.2625650">
	<ele>993.60</ele>
	<time>2025-04-30T06:41:25.000Z</time>
</trkpt>
<trkpt lat="45.9034800" lon="10.2625720">
	<ele>993.60</ele>
	<time>2025-04-30T06:41:26.000Z</time>
</trkpt>
<trkpt lat="45.9034780" lon="10.2625800">
	<ele>993.80</ele>
	<time>2025-04-30T06:41:27.000Z</time>
</trkpt>
<trkpt lat="45.9034800" lon="10.2625890">
	<ele>994.00</ele>
	<time>2025-04-30T06:41:28.000Z</time>
</trkpt>
<trkpt lat="45.9034730" lon="10.2625960">
	<ele>994.20</ele>
	<time>2025-04-30T06:41:29.000Z</time>
</trkpt>
<trkpt lat="45.9034680" lon="10.2626000">
	<ele>994.20</ele>
	<time>2025-04-30T06:41:30.000Z</time>
</trkpt>
<trkpt lat="45.9034610" lon="10.2626030">
	<ele>994.40</ele>
	<time>2025-04-30T06:41:31.000Z</time>
</trkpt>
<trkpt lat="45.9034560" lon="10.2626050">
	<ele>994.60</ele>
	<time>2025-04-30T06:41:32.000Z</time>
</trkpt>
<trkpt lat="45.9034400" lon="10.2625950">
	<ele>994.60</ele>
	<time>2025-04-30T06:41:33.000Z</time>
</trkpt>
<trkpt lat="45.9034230" lon="10.2625920">
	<ele>994.80</ele>
	<time>2025-04-30T06:41:34.000Z</time>
</trkpt>
<trkpt lat="45.9034110" lon="10.2625910">
	<ele>995.00</ele>
	<time>2025-04-30T06:41:35.000Z</time>
</trkpt>
<trkpt lat="45.9034050" lon="10.2625840">
	<ele>995.00</ele>
	<time>2025-04-30T06:41:36.000Z</time>
</trkpt>
<trkpt lat="45.9034040" lon="10.2625830">
	<ele>995.20</ele>
	<time>2025-04-30T06:41:37.000Z</time>
</trkpt>
<trkpt lat="45.9034010" lon="10.2625840">
	<ele>995.40</ele>
	<time>2025-04-30T06:41:38.000Z</time>
</trkpt>
<trkpt lat="45.9033970" lon="10.2625810">
	<ele>995.60</ele>
	<time>2025-04-30T06:41:39.000Z</time>
</trkpt>
<trkpt lat="45.9033900" lon="10.2625740">
	<ele>996.00</ele>
	<time>2025-04-30T06:41:40.000Z</time>
</trkpt>
<trkpt lat="45.9033800" lon="10.2625700">
	<ele>996.00</ele>
	<time>2025-04-30T06:41:41.000Z</time>
</trkpt>
<trkpt lat="45.9033760" lon="10.2625740">
	<ele>996.20</ele>
	<time>2025-04-30T06:41:42.000Z</time>
</trkpt>
<trkpt lat="45.9033700" lon="10.2625770">
	<ele>996.40</ele>
	<time>2025-04-30T06:41:43.000Z</time>
</trkpt>
<trkpt lat="45.9033570" lon="10.2625670">
	<ele>996.60</ele>
	<time>2025-04-30T06:41:44.000Z</time>
</trkpt>
<trkpt lat="45.9033470" lon="10.2625600">
	<ele>996.60</ele>
	<time>2025-04-30T06:41:45.000Z</time>
</trkpt>
<trkpt lat="45.9033420" lon="10.2625700">
	<ele>996.80</ele>
	<time>2025-04-30T06:41:46.000Z</time>
</trkpt>
<trkpt lat="45.9033360" lon="10.2625810">
	<ele>997.00</ele>
	<time>2025-04-30T06:41:47.000Z</time>
</trkpt>
<trkpt lat="45.9033340" lon="10.2625920">
	<ele>997.20</ele>
	<time>2025-04-30T06:41:48.000Z</time>
</trkpt>
<trkpt lat="45.9033310" lon="10.2625960">
	<ele>997.40</ele>
	<time>2025-04-30T06:41:49.000Z</time>
</trkpt>
<trkpt lat="45.9033290" lon="10.2626020">
	<ele>997.60</ele>
	<time>2025-04-30T06:41:50.000Z</time>
</trkpt>
<trkpt lat="45.9033270" lon="10.2626110">
	<ele>997.60</ele>
	<time>2025-04-30T06:41:51.000Z</time>
</trkpt>
<trkpt lat="45.9033190" lon="10.2626170">
	<ele>997.80</ele>
	<time>2025-04-30T06:41:52.000Z</time>
</trkpt>
<trkpt lat="45.9033170" lon="10.2626200">
	<ele>998.20</ele>
	<time>2025-04-30T06:41:53.000Z</time>
</trkpt>
<trkpt lat="45.9033140" lon="10.2626230">
	<ele>998.40</ele>
	<time>2025-04-30T06:41:54.000Z</time>
</trkpt>
<trkpt lat="45.9033040" lon="10.2626170">
	<ele>998.60</ele>
	<time>2025-04-30T06:41:55.000Z</time>
</trkpt>
<trkpt lat="45.9032960" lon="10.2626040">
	<ele>998.60</ele>
	<time>2025-04-30T06:41:56.000Z</time>
</trkpt>
<trkpt lat="45.9032890" lon="10.2626010">
	<ele>998.80</ele>
	<time>2025-04-30T06:41:57.000Z</time>
</trkpt>
<trkpt lat="45.9032820" lon="10.2625950">
	<ele>999.00</ele>
	<time>2025-04-30T06:41:58.000Z</time>
</trkpt>
<trkpt lat="45.9032680" lon="10.2625950">
	<ele>999.00</ele>
	<time>2025-04-30T06:41:59.000Z</time>
</trkpt>
<trkpt lat="45.9032550" lon="10.2625950">
	<ele>999.20</ele>
	<time>2025-04-30T06:42:00.000Z</time>
</trkpt>
<trkpt lat="45.9032420" lon="10.2625990">
	<ele>999.40</ele>
	<time>2025-04-30T06:42:01.000Z</time>
</trkpt>
<trkpt lat="45.9032330" lon="10.2625990">
	<ele>999.60</ele>
	<time>2025-04-30T06:42:02.000Z</time>
</trkpt>
<trkpt lat="45.9032300" lon="10.2626100">
	<ele>999.80</ele>
	<time>2025-04-30T06:42:03.000Z</time>
</trkpt>
<trkpt lat="45.9032220" lon="10.2626160">
	<ele>1000.00</ele>
	<time>2025-04-30T06:42:04.000Z</time>
</trkpt>
<trkpt lat="45.9032190" lon="10.2626260">
	<ele>1000.20</ele>
	<time>2025-04-30T06:42:05.000Z</time>
</trkpt>
<trkpt lat="45.9032170" lon="10.2626380">
	<ele>1000.20</ele>
	<time>2025-04-30T06:42:06.000Z</time>
</trkpt>
<trkpt lat="45.9032320" lon="10.2626690">
	<ele>1000.40</ele>
	<time>2025-04-30T06:42:07.000Z</time>
</trkpt>
<trkpt lat="45.9032280" lon="10.2626810">
	<ele>1000.60</ele>
	<time>2025-04-30T06:42:08.000Z</time>
</trkpt>
<trkpt lat="45.9032180" lon="10.2626800">
	<ele>1000.60</ele>
	<time>2025-04-30T06:42:09.000Z</time>
</trkpt>
<trkpt lat="45.9032040" lon="10.2626700">
	<ele>1000.60</ele>
	<time>2025-04-30T06:42:10.000Z</time>
</trkpt>
<trkpt lat="45.9031820" lon="10.2626690">
	<ele>1000.80</ele>
	<time>2025-04-30T06:42:11.000Z</time>
</trkpt>
<trkpt lat="45.9031580" lon="10.2626730">
	<ele>1000.80</ele>
	<time>2025-04-30T06:42:12.000Z</time>
</trkpt>
<trkpt lat="45.9031350" lon="10.2626720">
	<ele>1001.20</ele>
	<time>2025-04-30T06:42:13.000Z</time>
</trkpt>
<trkpt lat="45.9031210" lon="10.2626740">
	<ele>1001.20</ele>
	<time>2025-04-30T06:42:14.000Z</time>
</trkpt>
<trkpt lat="45.9031130" lon="10.2626690">
	<ele>1001.40</ele>
	<time>2025-04-30T06:42:15.000Z</time>
</trkpt>
<trkpt lat="45.9031040" lon="10.2626640">
	<ele>1001.60</ele>
	<time>2025-04-30T06:42:16.000Z</time>
</trkpt>
<trkpt lat="45.9030970" lon="10.2626610">
	<ele>1001.80</ele>
	<time>2025-04-30T06:42:17.000Z</time>
</trkpt>
<trkpt lat="45.9030890" lon="10.2626640">
	<ele>1002.00</ele>
	<time>2025-04-30T06:42:18.000Z</time>
</trkpt>
<trkpt lat="45.9030780" lon="10.2626650">
	<ele>1002.00</ele>
	<time>2025-04-30T06:42:19.000Z</time>
</trkpt>
<trkpt lat="45.9030700" lon="10.2626630">
	<ele>1002.20</ele>
	<time>2025-04-30T06:42:20.000Z</time>
</trkpt>
<trkpt lat="45.9030640" lon="10.2626620">
	<ele>1002.40</ele>
	<time>2025-04-30T06:42:21.000Z</time>
</trkpt>
<trkpt lat="45.9030610" lon="10.2626650">
	<ele>1002.40</ele>
	<time>2025-04-30T06:42:22.000Z</time>
</trkpt>
<trkpt lat="45.9030560" lon="10.2626690">
	<ele>1002.60</ele>
	<time>2025-04-30T06:42:23.000Z</time>
</trkpt>
<trkpt lat="45.9030540" lon="10.2626680">
	<ele>1002.80</ele>
	<time>2025-04-30T06:42:24.000Z</time>
</trkpt>
<trkpt lat="45.9030510" lon="10.2626610">
	<ele>1003.00</ele>
	<time>2025-04-30T06:42:25.000Z</time>
</trkpt>
<trkpt lat="45.9030390" lon="10.2626540">
	<ele>1003.00</ele>
	<time>2025-04-30T06:42:26.000Z</time>
</trkpt>
<trkpt lat="45.9030320" lon="10.2626530">
	<ele>1003.20</ele>
	<time>2025-04-30T06:42:27.000Z</time>
</trkpt>
<trkpt lat="45.9030270" lon="10.2626500">
	<ele>1003.40</ele>
	<time>2025-04-30T06:42:28.000Z</time>
</trkpt>
<trkpt lat="45.9030180" lon="10.2626480">
	<ele>1003.40</ele>
	<time>2025-04-30T06:42:29.000Z</time>
</trkpt>
<trkpt lat="45.9030170" lon="10.2626530">
	<ele>1003.60</ele>
	<time>2025-04-30T06:42:30.000Z</time>
</trkpt>
<trkpt lat="45.9030240" lon="10.2626610">
	<ele>1003.80</ele>
	<time>2025-04-30T06:42:31.000Z</time>
</trkpt>
<trkpt lat="45.9030210" lon="10.2626640">
	<ele>1004.00</ele>
	<time>2025-04-30T06:42:32.000Z</time>
</trkpt>
<trkpt lat="45.9030190" lon="10.2626640">
	<ele>1004.20</ele>
	<time>2025-04-30T06:42:33.000Z</time>
</trkpt>
<trkpt lat="45.9030180" lon="10.2626720">
	<ele>1004.40</ele>
	<time>2025-04-30T06:42:34.000Z</time>
</trkpt>
<trkpt lat="45.9030100" lon="10.2626630">
	<ele>1004.60</ele>
	<time>2025-04-30T06:42:35.000Z</time>
</trkpt>
<trkpt lat="45.9030010" lon="10.2626560">
	<ele>1004.60</ele>
	<time>2025-04-30T06:42:36.000Z</time>
</trkpt>
<trkpt lat="45.9029960" lon="10.2626520">
	<ele>1004.80</ele>
	<time>2025-04-30T06:42:37.000Z</time>
</trkpt>
<trkpt lat="45.9029810" lon="10.2626490">
	<ele>1005.00</ele>
	<time>2025-04-30T06:42:38.000Z</time>
</trkpt>
<trkpt lat="45.9029770" lon="10.2626520">
	<ele>1005.00</ele>
	<time>2025-04-30T06:42:39.000Z</time>
</trkpt>
<trkpt lat="45.9029710" lon="10.2626480">
	<ele>1005.40</ele>
	<time>2025-04-30T06:42:40.000Z</time>
</trkpt>
<trkpt lat="45.9029630" lon="10.2626540">
	<ele>1005.60</ele>
	<time>2025-04-30T06:42:41.000Z</time>
</trkpt>
<trkpt lat="45.9029630" lon="10.2626530">
	<ele>1005.60</ele>
	<time>2025-04-30T06:42:42.000Z</time>
</trkpt>
<trkpt lat="45.9029610" lon="10.2626570">
	<ele>1005.80</ele>
	<time>2025-04-30T06:42:43.000Z</time>
</trkpt>
<trkpt lat="45.9029540" lon="10.2626530">
	<ele>1005.80</ele>
	<time>2025-04-30T06:42:44.000Z</time>
</trkpt>
<trkpt lat="45.9029470" lon="10.2626630">
	<ele>1006.00</ele>
	<time>2025-04-30T06:42:45.000Z</time>
</trkpt>
<trkpt lat="45.9029400" lon="10.2626690">
	<ele>1006.20</ele>
	<time>2025-04-30T06:42:46.000Z</time>
</trkpt>
<trkpt lat="45.9029260" lon="10.2626760">
	<ele>1006.40</ele>
	<time>2025-04-30T06:42:47.000Z</time>
</trkpt>
<trkpt lat="45.9029170" lon="10.2626780">
	<ele>1006.60</ele>
	<time>2025-04-30T06:42:48.000Z</time>
</trkpt>
<trkpt lat="45.9029060" lon="10.2626810">
	<ele>1006.80</ele>
	<time>2025-04-30T06:42:49.000Z</time>
</trkpt>
<trkpt lat="45.9028950" lon="10.2626870">
	<ele>1007.00</ele>
	<time>2025-04-30T06:42:50.000Z</time>
</trkpt>
<trkpt lat="45.9028940" lon="10.2626850">
	<ele>1007.20</ele>
	<time>2025-04-30T06:42:51.000Z</time>
</trkpt>
<trkpt lat="45.9028900" lon="10.2626850">
	<ele>1007.40</ele>
	<time>2025-04-30T06:42:52.000Z</time>
</trkpt>
<trkpt lat="45.9028860" lon="10.2626840">
	<ele>1007.40</ele>
	<time>2025-04-30T06:42:53.000Z</time>
</trkpt>
<trkpt lat="45.9028830" lon="10.2626900">
	<ele>1007.60</ele>
	<time>2025-04-30T06:42:54.000Z</time>
</trkpt>
<trkpt lat="45.9028800" lon="10.2626990">
	<ele>1007.60</ele>
	<time>2025-04-30T06:42:55.000Z</time>
</trkpt>
<trkpt lat="45.9028770" lon="10.2627080">
	<ele>1007.80</ele>
	<time>2025-04-30T06:42:56.000Z</time>
</trkpt>
<trkpt lat="45.9028700" lon="10.2627100">
	<ele>1007.80</ele>
	<time>2025-04-30T06:42:57.000Z</time>
</trkpt>
<trkpt lat="45.9028720" lon="10.2627150">
	<ele>1007.80</ele>
	<time>2025-04-30T06:42:58.000Z</time>
</trkpt>
<trkpt lat="45.9028650" lon="10.2627150">
	<ele>1008.20</ele>
	<time>2025-04-30T06:42:59.000Z</time>
</trkpt>
<trkpt lat="45.9028640" lon="10.2627180">
	<ele>1008.60</ele>
	<time>2025-04-30T06:43:00.000Z</time>
</trkpt>
<trkpt lat="45.9028620" lon="10.2627180">
	<ele>1008.60</ele>
	<time>2025-04-30T06:43:01.000Z</time>
</trkpt>
<trkpt lat="45.9028670" lon="10.2627200">
	<ele>1009.00</ele>
	<time>2025-04-30T06:43:02.000Z</time>
</trkpt>
<trkpt lat="45.9028680" lon="10.2627330">
	<ele>1009.20</ele>
	<time>2025-04-30T06:43:03.000Z</time>
</trkpt>
<trkpt lat="45.9028750" lon="10.2627270">
	<ele>1009.20</ele>
	<time>2025-04-30T06:43:04.000Z</time>
</trkpt>
<trkpt lat="45.9028710" lon="10.2627360">
	<ele>1009.40</ele>
	<time>2025-04-30T06:43:05.000Z</time>
</trkpt>
<trkpt lat="45.9028670" lon="10.2627370">
	<ele>1009.60</ele>
	<time>2025-04-30T06:43:06.000Z</time>
</trkpt>
<trkpt lat="45.9028560" lon="10.2627440">
	<ele>1009.80</ele>
	<time>2025-04-30T06:43:07.000Z</time>
</trkpt>
<trkpt lat="45.9028530" lon="10.2627480">
	<ele>1009.80</ele>
	<time>2025-04-30T06:43:08.000Z</time>
</trkpt>
<trkpt lat="45.9028540" lon="10.2627490">
	<ele>1010.20</ele>
	<time>2025-04-30T06:43:09.000Z</time>
</trkpt>
<trkpt lat="45.9028450" lon="10.2627590">
	<ele>1010.60</ele>
	<time>2025-04-30T06:43:10.000Z</time>
</trkpt>
<trkpt lat="45.9028440" lon="10.2627670">
	<ele>1011.00</ele>
	<time>2025-04-30T06:43:11.000Z</time>
</trkpt>
<trkpt lat="45.9028460" lon="10.2627680">
	<ele>1011.20</ele>
	<time>2025-04-30T06:43:12.000Z</time>
</trkpt>
<trkpt lat="45.9028430" lon="10.2627750">
	<ele>1011.40</ele>
	<time>2025-04-30T06:43:13.000Z</time>
</trkpt>
<trkpt lat="45.9028410" lon="10.2627820">
	<ele>1011.40</ele>
	<time>2025-04-30T06:43:14.000Z</time>
</trkpt>
<trkpt lat="45.9028450" lon="10.2627870">
	<ele>1011.40</ele>
	<time>2025-04-30T06:43:15.000Z</time>
</trkpt>
<trkpt lat="45.9028520" lon="10.2627920">
	<ele>1011.60</ele>
	<time>2025-04-30T06:43:16.000Z</time>
</trkpt>
<trkpt lat="45.9028540" lon="10.2627940">
	<ele>1011.80</ele>
	<time>2025-04-30T06:43:17.000Z</time>
</trkpt>
<trkpt lat="45.9028540" lon="10.2628000">
	<ele>1012.00</ele>
	<time>2025-04-30T06:43:18.000Z</time>
</trkpt>
<trkpt lat="45.9028540" lon="10.2628030">
	<ele>1012.20</ele>
	<time>2025-04-30T06:43:19.000Z</time>
</trkpt>
<trkpt lat="45.9028560" lon="10.2628030">
	<ele>1012.20</ele>
	<time>2025-04-30T06:43:20.000Z</time>
</trkpt>
<trkpt lat="45.9028580" lon="10.2628060">
	<ele>1012.20</ele>
	<time>2025-04-30T06:43:21.000Z</time>
</trkpt>
<trkpt lat="45.9028560" lon="10.2628040">
	<ele>1012.40</ele>
	<time>2025-04-30T06:43:22.000Z</time>
</trkpt>
<trkpt lat="45.9028460" lon="10.2628050">
	<ele>1012.40</ele>
	<time>2025-04-30T06:43:23.000Z</time>
</trkpt>
<trkpt lat="45.9028380" lon="10.2628140">
	<ele>1012.40</ele>
	<time>2025-04-30T06:43:24.000Z</time>
</trkpt>
<trkpt lat="45.9028300" lon="10.2628260">
	<ele>1012.60</ele>
	<time>2025-04-30T06:43:25.000Z</time>
</trkpt>
<trkpt lat="45.9028170" lon="10.2628420">
	<ele>1012.80</ele>
	<time>2025-04-30T06:43:26.000Z</time>
</trkpt>
<trkpt lat="45.9028050" lon="10.2628550">
	<ele>1013.00</ele>
	<time>2025-04-30T06:43:27.000Z</time>
</trkpt>
<trkpt lat="45.9027900" lon="10.2628670">
	<ele>1013.20</ele>
	<time>2025-04-30T06:43:28.000Z</time>
</trkpt>
<trkpt lat="45.9027860" lon="10.2628790">
	<ele>1013.20</ele>
	<time>2025-04-30T06:43:29.000Z</time>
</trkpt>
<trkpt lat="45.9027890" lon="10.2628830">
	<ele>1013.40</ele>
	<time>2025-04-30T06:43:30.000Z</time>
</trkpt>
<trkpt lat="45.9027870" lon="10.2628930">
	<ele>1013.60</ele>
	<time>2025-04-30T06:43:31.000Z</time>
</trkpt>
<trkpt lat="45.9027830" lon="10.2628990">
	<ele>1013.80</ele>
	<time>2025-04-30T06:43:32.000Z</time>
</trkpt>
<trkpt lat="45.9027790" lon="10.2629070">
	<ele>1013.80</ele>
	<time>2025-04-30T06:43:33.000Z</time>
</trkpt>
<trkpt lat="45.9027750" lon="10.2629140">
	<ele>1014.00</ele>
	<time>2025-04-30T06:43:34.000Z</time>
</trkpt>
<trkpt lat="45.9027700" lon="10.2629200">
	<ele>1014.20</ele>
	<time>2025-04-30T06:43:35.000Z</time>
</trkpt>
<trkpt lat="45.9027630" lon="10.2629310">
	<ele>1014.60</ele>
	<time>2025-04-30T06:43:36.000Z</time>
</trkpt>
<trkpt lat="45.9027560" lon="10.2629410">
	<ele>1014.80</ele>
	<time>2025-04-30T06:43:37.000Z</time>
</trkpt>
<trkpt lat="45.9027550" lon="10.2629470">
	<ele>1015.00</ele>
	<time>2025-04-30T06:43:38.000Z</time>
</trkpt>
<trkpt lat="45.9027590" lon="10.2629560">
	<ele>1015.00</ele>
	<time>2025-04-30T06:43:39.000Z</time>
</trkpt>
<trkpt lat="45.9027550" lon="10.2629700">
	<ele>1015.20</ele>
	<time>2025-04-30T06:43:40.000Z</time>
</trkpt>
<trkpt lat="45.9027510" lon="10.2629770">
	<ele>1015.40</ele>
	<time>2025-04-30T06:43:41.000Z</time>
</trkpt>
<trkpt lat="45.9027460" lon="10.2629860">
	<ele>1015.40</ele>
	<time>2025-04-30T06:43:42.000Z</time>
</trkpt>
<trkpt lat="45.9027410" lon="10.2629950">
	<ele>1015.60</ele>
	<time>2025-04-30T06:43:43.000Z</time>
</trkpt>
<trkpt lat="45.9027380" lon="10.2629990">
	<ele>1015.60</ele>
	<time>2025-04-30T06:43:44.000Z</time>
</trkpt>
<trkpt lat="45.9027330" lon="10.2630020">
	<ele>1015.60</ele>
	<time>2025-04-30T06:43:45.000Z</time>
</trkpt>
<trkpt lat="45.9027280" lon="10.2630000">
	<ele>1015.80</ele>
	<time>2025-04-30T06:43:46.000Z</time>
</trkpt>
<trkpt lat="45.9027170" lon="10.2630100">
	<ele>1016.00</ele>
	<time>2025-04-30T06:43:47.000Z</time>
</trkpt>
<trkpt lat="45.9027050" lon="10.2630230">
	<ele>1016.20</ele>
	<time>2025-04-30T06:43:48.000Z</time>
</trkpt>
<trkpt lat="45.9027080" lon="10.2630400">
	<ele>1016.40</ele>
	<time>2025-04-30T06:43:49.000Z</time>
</trkpt>
<trkpt lat="45.9027120" lon="10.2630540">
	<ele>1016.40</ele>
	<time>2025-04-30T06:43:50.000Z</time>
</trkpt>
<trkpt lat="45.9027100" lon="10.2630670">
	<ele>1016.60</ele>
	<time>2025-04-30T06:43:51.000Z</time>
</trkpt>
<trkpt lat="45.9027010" lon="10.2630780">
	<ele>1016.60</ele>
	<time>2025-04-30T06:43:52.000Z</time>
</trkpt>
<trkpt lat="45.9026970" lon="10.2630890">
	<ele>1016.80</ele>
	<time>2025-04-30T06:43:53.000Z</time>
</trkpt>
<trkpt lat="45.9026910" lon="10.2631000">
	<ele>1017.00</ele>
	<time>2025-04-30T06:43:54.000Z</time>
</trkpt>
<trkpt lat="45.9026830" lon="10.2631200">
	<ele>1017.20</ele>
	<time>2025-04-30T06:43:55.000Z</time>
</trkpt>
<trkpt lat="45.9026720" lon="10.2631440">
	<ele>1017.40</ele>
	<time>2025-04-30T06:43:56.000Z</time>
</trkpt>
<trkpt lat="45.9026650" lon="10.2631680">
	<ele>1017.60</ele>
	<time>2025-04-30T06:43:57.000Z</time>
</trkpt>
<trkpt lat="45.9026600" lon="10.2631740">
	<ele>1017.80</ele>
	<time>2025-04-30T06:43:58.000Z</time>
</trkpt>
<trkpt lat="45.9026530" lon="10.2631820">
	<ele>1017.80</ele>
	<time>2025-04-30T06:43:59.000Z</time>
</trkpt>
<trkpt lat="45.9026540" lon="10.2631860">
	<ele>1018.00</ele>
	<time>2025-04-30T06:44:00.000Z</time>
</trkpt>
<trkpt lat="45.9026530" lon="10.2631940">
	<ele>1018.00</ele>
	<time>2025-04-30T06:44:01.000Z</time>
</trkpt>
<trkpt lat="45.9026540" lon="10.2632040">
	<ele>1018.20</ele>
	<time>2025-04-30T06:44:02.000Z</time>
</trkpt>
<trkpt lat="45.9026550" lon="10.2632170">
	<ele>1018.20</ele>
	<time>2025-04-30T06:44:03.000Z</time>
</trkpt>
<trkpt lat="45.9026520" lon="10.2632440">
	<ele>1018.40</ele>
	<time>2025-04-30T06:44:04.000Z</time>
</trkpt>
<trkpt lat="45.9026470" lon="10.2632570">
	<ele>1018.60</ele>
	<time>2025-04-30T06:44:05.000Z</time>
</trkpt>
<trkpt lat="45.9026420" lon="10.2632540">
	<ele>1018.80</ele>
	<time>2025-04-30T06:44:06.000Z</time>
</trkpt>
<trkpt lat="45.9026400" lon="10.2632570">
	<ele>1019.00</ele>
	<time>2025-04-30T06:44:07.000Z</time>
</trkpt>
<trkpt lat="45.9026410" lon="10.2632420">
	<ele>1019.20</ele>
	<time>2025-04-30T06:44:08.000Z</time>
</trkpt>
<trkpt lat="45.9026550" lon="10.2632580">
	<ele>1019.40</ele>
	<time>2025-04-30T06:44:09.000Z</time>
</trkpt>
<trkpt lat="45.9026580" lon="10.2632700">
	<ele>1019.40</ele>
	<time>2025-04-30T06:44:10.000Z</time>
</trkpt>
<trkpt lat="45.9026490" lon="10.2632850">
	<ele>1019.40</ele>
	<time>2025-04-30T06:44:11.000Z</time>
</trkpt>
<trkpt lat="45.9026480" lon="10.2632940">
	<ele>1019.40</ele>
	<time>2025-04-30T06:44:12.000Z</time>
</trkpt>
<trkpt lat="45.9026460" lon="10.2633000">
	<ele>1019.60</ele>
	<time>2025-04-30T06:44:13.000Z</time>
</trkpt>
<trkpt lat="45.9026420" lon="10.2633020">
	<ele>1019.80</ele>
	<time>2025-04-30T06:44:14.000Z</time>
</trkpt>
<trkpt lat="45.9026410" lon="10.2633090">
	<ele>1019.80</ele>
	<time>2025-04-30T06:44:15.000Z</time>
</trkpt>
<trkpt lat="45.9026380" lon="10.2633190">
	<ele>1020.00</ele>
	<time>2025-04-30T06:44:16.000Z</time>
</trkpt>
<trkpt lat="45.9026340" lon="10.2633290">
	<ele>1020.20</ele>
	<time>2025-04-30T06:44:17.000Z</time>
</trkpt>
<trkpt lat="45.9026350" lon="10.2633330">
	<ele>1020.40</ele>
	<time>2025-04-30T06:44:18.000Z</time>
</trkpt>
<trkpt lat="45.9026330" lon="10.2633360">
	<ele>1020.60</ele>
	<time>2025-04-30T06:44:19.000Z</time>
</trkpt>
<trkpt lat="45.9026300" lon="10.2633400">
	<ele>1020.80</ele>
	<time>2025-04-30T06:44:20.000Z</time>
</trkpt>
<trkpt lat="45.9026280" lon="10.2633420">
	<ele>1021.00</ele>
	<time>2025-04-30T06:44:21.000Z</time>
</trkpt>
<trkpt lat="45.9026270" lon="10.2633550">
	<ele>1021.20</ele>
	<time>2025-04-30T06:44:22.000Z</time>
</trkpt>
<trkpt lat="45.9026240" lon="10.2633690">
	<ele>1021.20</ele>
	<time>2025-04-30T06:44:23.000Z</time>
</trkpt>
<trkpt lat="45.9026220" lon="10.2633810">
	<ele>1021.40</ele>
	<time>2025-04-30T06:44:24.000Z</time>
</trkpt>
<trkpt lat="45.9026190" lon="10.2633910">
	<ele>1021.60</ele>
	<time>2025-04-30T06:44:25.000Z</time>
</trkpt>
<trkpt lat="45.9026170" lon="10.2633960">
	<ele>1021.60</ele>
	<time>2025-04-30T06:44:26.000Z</time>
</trkpt>
<trkpt lat="45.9026170" lon="10.2634020">
	<ele>1021.80</ele>
	<time>2025-04-30T06:44:27.000Z</time>
</trkpt>
<trkpt lat="45.9026160" lon="10.2634050">
	<ele>1021.80</ele>
	<time>2025-04-30T06:44:28.000Z</time>
</trkpt>
<trkpt lat="45.9026150" lon="10.2634050">
	<ele>1022.00</ele>
	<time>2025-04-30T06:44:29.000Z</time>
</trkpt>
<trkpt lat="45.9026130" lon="10.2634090">
	<ele>1022.20</ele>
	<time>2025-04-30T06:44:30.000Z</time>
</trkpt>
<trkpt lat="45.9026130" lon="10.2634150">
	<ele>1022.20</ele>
	<time>2025-04-30T06:44:31.000Z</time>
</trkpt>
<trkpt lat="45.9026110" lon="10.2634220">
	<ele>1022.60</ele>
	<time>2025-04-30T06:44:32.000Z</time>
</trkpt>
<trkpt lat="45.9026090" lon="10.2634280">
	<ele>1022.60</ele>
	<time>2025-04-30T06:44:33.000Z</time>
</trkpt>
<trkpt lat="45.9026040" lon="10.2634330">
	<ele>1022.60</ele>
	<time>2025-04-30T06:44:34.000Z</time>
</trkpt>
<trkpt lat="45.9025980" lon="10.2634400">
	<ele>1022.80</ele>
	<time>2025-04-30T06:44:35.000Z</time>
</trkpt>
<trkpt lat="45.9026010" lon="10.2634480">
	<ele>1023.00</ele>
	<time>2025-04-30T06:44:36.000Z</time>
</trkpt>
<trkpt lat="45.9026000" lon="10.2634560">
	<ele>1023.20</ele>
	<time>2025-04-30T06:44:37.000Z</time>
</trkpt>
<trkpt lat="45.9025980" lon="10.2634700">
	<ele>1023.40</ele>
	<time>2025-04-30T06:44:38.000Z</time>
</trkpt>
<trkpt lat="45.9025980" lon="10.2634860">
	<ele>1023.40</ele>
	<time>2025-04-30T06:44:39.000Z</time>
</trkpt>
<trkpt lat="45.9025930" lon="10.2635000">
	<ele>1023.60</ele>
	<time>2025-04-30T06:44:40.000Z</time>
</trkpt>
<trkpt lat="45.9025900" lon="10.2635040">
	<ele>1023.80</ele>
	<time>2025-04-30T06:44:41.000Z</time>
</trkpt>
<trkpt lat="45.9025830" lon="10.2635210">
	<ele>1024.00</ele>
	<time>2025-04-30T06:44:42.000Z</time>
</trkpt>
<trkpt lat="45.9025820" lon="10.2635440">
	<ele>1024.20</ele>
	<time>2025-04-30T06:44:43.000Z</time>
</trkpt>
<trkpt lat="45.9025770" lon="10.2635640">
	<ele>1024.20</ele>
	<time>2025-04-30T06:44:44.000Z</time>
</trkpt>
<trkpt lat="45.9025810" lon="10.2635870">
	<ele>1024.40</ele>
	<time>2025-04-30T06:44:45.000Z</time>
</trkpt>
<trkpt lat="45.9025830" lon="10.2636010">
	<ele>1024.60</ele>
	<time>2025-04-30T06:44:46.000Z</time>
</trkpt>
<trkpt lat="45.9025840" lon="10.2636150">
	<ele>1024.80</ele>
	<time>2025-04-30T06:44:47.000Z</time>
</trkpt>
<trkpt lat="45.9025930" lon="10.2636290">
	<ele>1025.00</ele>
	<time>2025-04-30T06:44:48.000Z</time>
</trkpt>
<trkpt lat="45.9025980" lon="10.2636430">
	<ele>1025.20</ele>
	<time>2025-04-30T06:44:49.000Z</time>
</trkpt>
<trkpt lat="45.9025970" lon="10.2636580">
	<ele>1025.40</ele>
	<time>2025-04-30T06:44:50.000Z</time>
</trkpt>
<trkpt lat="45.9025950" lon="10.2636750">
	<ele>1025.60</ele>
	<time>2025-04-30T06:44:51.000Z</time>
</trkpt>
<trkpt lat="45.9025890" lon="10.2636900">
	<ele>1025.80</ele>
	<time>2025-04-30T06:44:52.000Z</time>
</trkpt>
<trkpt lat="45.9025750" lon="10.2637020">
	<ele>1026.00</ele>
	<time>2025-04-30T06:44:53.000Z</time>
</trkpt>
<trkpt lat="45.9025660" lon="10.2637100">
	<ele>1026.00</ele>
	<time>2025-04-30T06:44:54.000Z</time>
</trkpt>
<trkpt lat="45.9025670" lon="10.2637140">
	<ele>1026.20</ele>
	<time>2025-04-30T06:44:55.000Z</time>
</trkpt>
<trkpt lat="45.9025680" lon="10.2637190">
	<ele>1026.40</ele>
	<time>2025-04-30T06:44:56.000Z</time>
</trkpt>
<trkpt lat="45.9025550" lon="10.2637330">
	<ele>1026.60</ele>
	<time>2025-04-30T06:44:57.000Z</time>
</trkpt>
<trkpt lat="45.9025320" lon="10.2637490">
	<ele>1026.80</ele>
	<time>2025-04-30T06:44:58.000Z</time>
</trkpt>
<trkpt lat="45.9025250" lon="10.2637580">
	<ele>1026.80</ele>
	<time>2025-04-30T06:44:59.000Z</time>
</trkpt>
<trkpt lat="45.9025220" lon="10.2637700">
	<ele>1027.20</ele>
	<time>2025-04-30T06:45:00.000Z</time>
</trkpt>
<trkpt lat="45.9025190" lon="10.2637840">
	<ele>1027.40</ele>
	<time>2025-04-30T06:45:01.000Z</time>
</trkpt>
<trkpt lat="45.9025190" lon="10.2637910">
	<ele>1027.60</ele>
	<time>2025-04-30T06:45:02.000Z</time>
</trkpt>
<trkpt lat="45.9025160" lon="10.2638000">
	<ele>1027.80</ele>
	<time>2025-04-30T06:45:03.000Z</time>
</trkpt>
<trkpt lat="45.9025170" lon="10.2638110">
	<ele>1028.00</ele>
	<time>2025-04-30T06:45:04.000Z</time>
</trkpt>
<trkpt lat="45.9025250" lon="10.2638150">
	<ele>1028.20</ele>
	<time>2025-04-30T06:45:05.000Z</time>
</trkpt>
<trkpt lat="45.9025280" lon="10.2638170">
	<ele>1028.40</ele>
	<time>2025-04-30T06:45:06.000Z</time>
</trkpt>
<trkpt lat="45.9025190" lon="10.2638260">
	<ele>1028.60</ele>
	<time>2025-04-30T06:45:07.000Z</time>
</trkpt>
<trkpt lat="45.9025130" lon="10.2638280">
	<ele>1028.80</ele>
	<time>2025-04-30T06:45:08.000Z</time>
</trkpt>
<trkpt lat="45.9025080" lon="10.2638330">
	<ele>1029.00</ele>
	<time>2025-04-30T06:45:09.000Z</time>
</trkpt>
<trkpt lat="45.9025070" lon="10.2638410">
	<ele>1029.20</ele>
	<time>2025-04-30T06:45:10.000Z</time>
</trkpt>
<trkpt lat="45.9025050" lon="10.2638470">
	<ele>1029.40</ele>
	<time>2025-04-30T06:45:11.000Z</time>
</trkpt>
<trkpt lat="45.9025050" lon="10.2638510">
	<ele>1029.40</ele>
	<time>2025-04-30T06:45:12.000Z</time>
</trkpt>
<trkpt lat="45.9025050" lon="10.2638550">
	<ele>1029.40</ele>
	<time>2025-04-30T06:45:13.000Z</time>
</trkpt>
<trkpt lat="45.9025140" lon="10.2638740">
	<ele>1029.60</ele>
	<time>2025-04-30T06:45:14.000Z</time>
</trkpt>
<trkpt lat="45.9025200" lon="10.2638850">
	<ele>1029.80</ele>
	<time>2025-04-30T06:45:15.000Z</time>
</trkpt>
<trkpt lat="45.9025230" lon="10.2638960">
	<ele>1030.00</ele>
	<time>2025-04-30T06:45:16.000Z</time>
</trkpt>
<trkpt lat="45.9025240" lon="10.2639020">
	<ele>1030.20</ele>
	<time>2025-04-30T06:45:17.000Z</time>
</trkpt>
<trkpt lat="45.9025240" lon="10.2639030">
	<ele>1030.40</ele>
	<time>2025-04-30T06:45:18.000Z</time>
</trkpt>
<trkpt lat="45.9025330" lon="10.2639130">
	<ele>1030.60</ele>
	<time>2025-04-30T06:45:19.000Z</time>
</trkpt>
<trkpt lat="45.9025390" lon="10.2639230">
	<ele>1031.00</ele>
	<time>2025-04-30T06:45:20.000Z</time>
</trkpt>
<trkpt lat="45.9025420" lon="10.2639310">
	<ele>1031.00</ele>
	<time>2025-04-30T06:45:21.000Z</time>
</trkpt>
<trkpt lat="45.9025410" lon="10.2639370">
	<ele>1031.20</ele>
	<time>2025-04-30T06:45:22.000Z</time>
</trkpt>
<trkpt lat="45.9025380" lon="10.2639400">
	<ele>1031.40</ele>
	<time>2025-04-30T06:45:23.000Z</time>
</trkpt>
<trkpt lat="45.9025360" lon="10.2639440">
	<ele>1031.60</ele>
	<time>2025-04-30T06:45:24.000Z</time>
</trkpt>
<trkpt lat="45.9025370" lon="10.2639500">
	<ele>1031.80</ele>
	<time>2025-04-30T06:45:25.000Z</time>
</trkpt>
<trkpt lat="45.9025290" lon="10.2639610">
	<ele>1032.00</ele>
	<time>2025-04-30T06:45:26.000Z</time>
</trkpt>
<trkpt lat="45.9025280" lon="10.2639670">
	<ele>1032.20</ele>
	<time>2025-04-30T06:45:27.000Z</time>
</trkpt>
<trkpt lat="45.9025280" lon="10.2639700">
	<ele>1032.40</ele>
	<time>2025-04-30T06:45:28.000Z</time>
</trkpt>
<trkpt lat="45.9025260" lon="10.2639740">
	<ele>1032.60</ele>
	<time>2025-04-30T06:45:29.000Z</time>
</trkpt>
<trkpt lat="45.9025300" lon="10.2639800">
	<ele>1032.80</ele>
	<time>2025-04-30T06:45:30.000Z</time>
</trkpt>
<trkpt lat="45.9025270" lon="10.2639860">
	<ele>1033.20</ele>
	<time>2025-04-30T06:45:31.000Z</time>
</trkpt>
<trkpt lat="45.9025260" lon="10.2639900">
	<ele>1033.40</ele>
	<time>2025-04-30T06:45:32.000Z</time>
</trkpt>
<trkpt lat="45.9025250" lon="10.2640030">
	<ele>1033.60</ele>
	<time>2025-04-30T06:45:33.000Z</time>
</trkpt>
<trkpt lat="45.9025230" lon="10.2640090">
	<ele>1033.80</ele>
	<time>2025-04-30T06:45:34.000Z</time>
</trkpt>
<trkpt lat="45.9025240" lon="10.2640140">
	<ele>1033.80</ele>
	<time>2025-04-30T06:45:35.000Z</time>
</trkpt>
<trkpt lat="45.9025250" lon="10.2640210">
	<ele>1034.00</ele>
	<time>2025-04-30T06:45:36.000Z</time>
</trkpt>
<trkpt lat="45.9025250" lon="10.2640290">
	<ele>1034.20</ele>
	<time>2025-04-30T06:45:37.000Z</time>
</trkpt>
<trkpt lat="45.9025240" lon="10.2640310">
	<ele>1034.40</ele>
	<time>2025-04-30T06:45:38.000Z</time>
</trkpt>
<trkpt lat="45.9025220" lon="10.2640420">
	<ele>1034.60</ele>
	<time>2025-04-30T06:45:39.000Z</time>
</trkpt>
<trkpt lat="45.9025210" lon="10.2640520">
	<ele>1034.80</ele>
	<time>2025-04-30T06:45:40.000Z</time>
</trkpt>
<trkpt lat="45.9025220" lon="10.2640560">
	<ele>1035.00</ele>
	<time>2025-04-30T06:45:41.000Z</time>
</trkpt>
<trkpt lat="45.9025230" lon="10.2640630">
	<ele>1035.20</ele>
	<time>2025-04-30T06:45:42.000Z</time>
</trkpt>
<trkpt lat="45.9025210" lon="10.2640710">
	<ele>1035.40</ele>
	<time>2025-04-30T06:45:43.000Z</time>
</trkpt>
<trkpt lat="45.9025170" lon="10.2640810">
	<ele>1035.60</ele>
	<time>2025-04-30T06:45:44.000Z</time>
</trkpt>
<trkpt lat="45.9025130" lon="10.2640900">
	<ele>1035.80</ele>
	<time>2025-04-30T06:45:45.000Z</time>
</trkpt>
<trkpt lat="45.9025150" lon="10.2640960">
	<ele>1036.00</ele>
	<time>2025-04-30T06:45:46.000Z</time>
</trkpt>
<trkpt lat="45.9025150" lon="10.2641000">
	<ele>1036.20</ele>
	<time>2025-04-30T06:45:47.000Z</time>
</trkpt>
<trkpt lat="45.9025150" lon="10.2641040">
	<ele>1036.40</ele>
	<time>2025-04-30T06:45:48.000Z</time>
</trkpt>
<trkpt lat="45.9025130" lon="10.2641190">
	<ele>1036.60</ele>
	<time>2025-04-30T06:45:49.000Z</time>
</trkpt>
<trkpt lat="45.9025140" lon="10.2641310">
	<ele>1036.80</ele>
	<time>2025-04-30T06:45:50.000Z</time>
</trkpt>
<trkpt lat="45.9025070" lon="10.2641470">
	<ele>1037.00</ele>
	<time>2025-04-30T06:45:51.000Z</time>
</trkpt>
<trkpt lat="45.9025080" lon="10.2641560">
	<ele>1037.00</ele>
	<time>2025-04-30T06:45:52.000Z</time>
</trkpt>
<trkpt lat="45.9025050" lon="10.2641710">
	<ele>1037.20</ele>
	<time>2025-04-30T06:45:53.000Z</time>
</trkpt>
<trkpt lat="45.9025090" lon="10.2641850">
	<ele>1037.40</ele>
	<time>2025-04-30T06:45:54.000Z</time>
</trkpt>
<trkpt lat="45.9025080" lon="10.2641990">
	<ele>1037.60</ele>
	<time>2025-04-30T06:45:55.000Z</time>
</trkpt>
<trkpt lat="45.9025050" lon="10.2642110">
	<ele>1037.60</ele>
	<time>2025-04-30T06:45:56.000Z</time>
</trkpt>
<trkpt lat="45.9025050" lon="10.2642210">
	<ele>1037.80</ele>
	<time>2025-04-30T06:45:57.000Z</time>
</trkpt>
<trkpt lat="45.9025100" lon="10.2642270">
	<ele>1037.80</ele>
	<time>2025-04-30T06:45:58.000Z</time>
</trkpt>
<trkpt lat="45.9025100" lon="10.2642340">
	<ele>1037.80</ele>
	<time>2025-04-30T06:45:59.000Z</time>
</trkpt>
<trkpt lat="45.9025070" lon="10.2642410">
	<ele>1038.00</ele>
	<time>2025-04-30T06:46:00.000Z</time>
</trkpt>
<trkpt lat="45.9025050" lon="10.2642400">
	<ele>1038.20</ele>
	<time>2025-04-30T06:46:01.000Z</time>
</trkpt>
<trkpt lat="45.9025050" lon="10.2642390">
	<ele>1038.40</ele>
	<time>2025-04-30T06:46:02.000Z</time>
</trkpt>
<trkpt lat="45.9025090" lon="10.2642330">
	<ele>1038.60</ele>
	<time>2025-04-30T06:46:03.000Z</time>
</trkpt>
<trkpt lat="45.9025030" lon="10.2642370">
	<ele>1038.60</ele>
	<time>2025-04-30T06:46:04.000Z</time>
</trkpt>
<trkpt lat="45.9025010" lon="10.2642390">
	<ele>1038.60</ele>
	<time>2025-04-30T06:46:05.000Z</time>
</trkpt>
<trkpt lat="45.9025010" lon="10.2642410">
	<ele>1038.40</ele>
	<time>2025-04-30T06:46:06.000Z</time>
</trkpt>
<trkpt lat="45.9024960" lon="10.2642470">
	<ele>1038.40</ele>
	<time>2025-04-30T06:46:07.000Z</time>
</trkpt>
<trkpt lat="45.9024970" lon="10.2642470">
	<ele>1038.40</ele>
	<time>2025-04-30T06:46:08.000Z</time>
</trkpt>
<trkpt lat="45.9024990" lon="10.2642450">
	<ele>1038.40</ele>
	<time>2025-04-30T06:46:09.000Z</time>
</trkpt>
<trkpt lat="45.9024910" lon="10.2642460">
	<ele>1038.40</ele>
	<time>2025-04-30T06:46:10.000Z</time>
</trkpt>
<trkpt lat="45.9024920" lon="10.2642450">
	<ele>1038.40</ele>
	<time>2025-04-30T06:46:11.000Z</time>
</trkpt>
<trkpt lat="45.9024920" lon="10.2642450">
	<ele>1038.40</ele>
	<time>2025-04-30T06:46:12.000Z</time>
</trkpt>
<trkpt lat="45.9024920" lon="10.2642450">
	<ele>1038.40</ele>
	<time>2025-04-30T06:46:13.000Z</time>
</trkpt>
<trkpt lat="45.9024920" lon="10.2642450">
	<ele>1038.40</ele>
	<time>2025-04-30T06:46:14.000Z</time>
</trkpt>
<trkpt lat="45.9024920" lon="10.2642450">
	<ele>1038.40</ele>
	<time>2025-04-30T06:46:15.000Z</time>
</trkpt>
<trkpt lat="45.9024920" lon="10.2642450">
	<ele>1038.20</ele>
	<time>2025-04-30T06:46:16.000Z</time>
</trkpt>
<trkpt lat="45.9024920" lon="10.2642450">
	<ele>1038.40</ele>
	<time>2025-04-30T06:46:17.000Z</time>
</trkpt>
<trkpt lat="45.9024920" lon="10.2642450">
	<ele>1038.40</ele>
	<time>2025-04-30T06:46:18.000Z</time>
</trkpt>
<trkpt lat="45.9024920" lon="10.2642450">
	<ele>1038.40</ele>
	<time>2025-04-30T06:46:19.000Z</time>
</trkpt>
<trkpt lat="45.9024960" lon="10.2642510">
	<ele>1038.60</ele>
	<time>2025-04-30T06:46:20.000Z</time>
</trkpt>
<trkpt lat="45.9025110" lon="10.2642620">
	<ele>1038.60</ele>
	<time>2025-04-30T06:46:21.000Z</time>
</trkpt>
<trkpt lat="45.9025170" lon="10.2642830">
	<ele>1038.60</ele>
	<time>2025-04-30T06:46:22.000Z</time>
</trkpt>
<trkpt lat="45.9025220" lon="10.2642960">
	<ele>1038.80</ele>
	<time>2025-04-30T06:46:23.000Z</time>
</trkpt>
<trkpt lat="45.9025230" lon="10.2643080">
	<ele>1039.00</ele>
	<time>2025-04-30T06:46:24.000Z</time>
</trkpt>
<trkpt lat="45.9025220" lon="10.2643260">
	<ele>1039.20</ele>
	<time>2025-04-30T06:46:25.000Z</time>
</trkpt>
<trkpt lat="45.9025270" lon="10.2643430">
	<ele>1039.20</ele>
	<time>2025-04-30T06:46:26.000Z</time>
</trkpt>
<trkpt lat="45.9025330" lon="10.2643580">
	<ele>1039.40</ele>
	<time>2025-04-30T06:46:27.000Z</time>
</trkpt>
<trkpt lat="45.9025410" lon="10.2643750">
	<ele>1039.40</ele>
	<time>2025-04-30T06:46:28.000Z</time>
</trkpt>
<trkpt lat="45.9025520" lon="10.2643830">
	<ele>1039.60</ele>
	<time>2025-04-30T06:46:29.000Z</time>
</trkpt>
<trkpt lat="45.9025630" lon="10.2643820">
	<ele>1039.80</ele>
	<time>2025-04-30T06:46:30.000Z</time>
</trkpt>
<trkpt lat="45.9025790" lon="10.2643810">
	<ele>1040.00</ele>
	<time>2025-04-30T06:46:31.000Z</time>
</trkpt>
<trkpt lat="45.9025890" lon="10.2643920">
	<ele>1040.40</ele>
	<time>2025-04-30T06:46:32.000Z</time>
</trkpt>
<trkpt lat="45.9025940" lon="10.2644090">
	<ele>1040.60</ele>
	<time>2025-04-30T06:46:33.000Z</time>
</trkpt>
<trkpt lat="45.9025960" lon="10.2644260">
	<ele>1040.80</ele>
	<time>2025-04-30T06:46:34.000Z</time>
</trkpt>
<trkpt lat="45.9025920" lon="10.2644420">
	<ele>1041.00</ele>
	<time>2025-04-30T06:46:35.000Z</time>
</trkpt>
<trkpt lat="45.9025960" lon="10.2644550">
	<ele>1041.20</ele>
	<time>2025-04-30T06:46:36.000Z</time>
</trkpt>
<trkpt lat="45.9026040" lon="10.2644710">
	<ele>1041.20</ele>
	<time>2025-04-30T06:46:37.000Z</time>
</trkpt>
<trkpt lat="45.9025990" lon="10.2644910">
	<ele>1041.40</ele>
	<time>2025-04-30T06:46:38.000Z</time>
</trkpt>
<trkpt lat="45.9025810" lon="10.2645040">
	<ele>1041.60</ele>
	<time>2025-04-30T06:46:39.000Z</time>
</trkpt>
<trkpt lat="45.9025560" lon="10.2645130">
	<ele>1041.60</ele>
	<time>2025-04-30T06:46:40.000Z</time>
</trkpt>
<trkpt lat="45.9025560" lon="10.2645160">
	<ele>1041.80</ele>
	<time>2025-04-30T06:46:41.000Z</time>
</trkpt>
<trkpt lat="45.9025560" lon="10.2645200">
	<ele>1042.00</ele>
	<time>2025-04-30T06:46:42.000Z</time>
</trkpt>
<trkpt lat="45.9025560" lon="10.2645230">
	<ele>1042.20</ele>
	<time>2025-04-30T06:46:43.000Z</time>
</trkpt>
<trkpt lat="45.9025560" lon="10.2645240">
	<ele>1042.20</ele>
	<time>2025-04-30T06:46:44.000Z</time>
</trkpt>
<trkpt lat="45.9025560" lon="10.2645250">
	<ele>1042.40</ele>
	<time>2025-04-30T06:46:45.000Z</time>
</trkpt>
<trkpt lat="45.9025560" lon="10.2645240">
	<ele>1042.40</ele>
	<time>2025-04-30T06:46:46.000Z</time>
</trkpt>
<trkpt lat="45.9025550" lon="10.2645240">
	<ele>1042.40</ele>
	<time>2025-04-30T06:46:47.000Z</time>
</trkpt>
<trkpt lat="45.9025550" lon="10.2645240">
	<ele>1042.40</ele>
	<time>2025-04-30T06:46:48.000Z</time>
</trkpt>
<trkpt lat="45.9025630" lon="10.2645180">
	<ele>1042.40</ele>
	<time>2025-04-30T06:46:49.000Z</time>
</trkpt>
<trkpt lat="45.9025640" lon="10.2645170">
	<ele>1042.40</ele>
	<time>2025-04-30T06:46:50.000Z</time>
</trkpt>
<trkpt lat="45.9025650" lon="10.2645150">
	<ele>1042.40</ele>
	<time>2025-04-30T06:46:51.000Z</time>
</trkpt>
<trkpt lat="45.9025680" lon="10.2645130">
	<ele>1042.40</ele>
	<time>2025-04-30T06:46:52.000Z</time>
</trkpt>
<trkpt lat="45.9025690" lon="10.2645130">
	<ele>1042.40</ele>
	<time>2025-04-30T06:46:53.000Z</time>
</trkpt>
<trkpt lat="45.9025690" lon="10.2645120">
	<ele>1042.40</ele>
	<time>2025-04-30T06:46:54.000Z</time>
</trkpt>
<trkpt lat="45.9025690" lon="10.2645120">
	<ele>1042.40</ele>
	<time>2025-04-30T06:46:55.000Z</time>
</trkpt>
<trkpt lat="45.9025690" lon="10.2645120">
	<ele>1042.40</ele>
	<time>2025-04-30T06:46:56.000Z</time>
</trkpt>
<trkpt lat="45.9025690" lon="10.2645120">
	<ele>1042.60</ele>
	<time>2025-04-30T06:46:57.000Z</time>
</trkpt>
<trkpt lat="45.9025690" lon="10.2645120">
	<ele>1042.60</ele>
	<time>2025-04-30T06:46:58.000Z</time>
</trkpt>
<trkpt lat="45.9025690" lon="10.2645120">
	<ele>1042.60</ele>
	<time>2025-04-30T06:46:59.000Z</time>
</trkpt>
<trkpt lat="45.9025690" lon="10.2645120">
	<ele>1042.60</ele>
	<time>2025-04-30T06:47:00.000Z</time>
</trkpt>
<trkpt lat="45.9025690" lon="10.2645120">
	<ele>1042.40</ele>
	<time>2025-04-30T06:47:01.000Z</time>
</trkpt>
<trkpt lat="45.9025690" lon="10.2645130">
	<ele>1042.40</ele>
	<time>2025-04-30T06:47:02.000Z</time>
</trkpt>
<trkpt lat="45.9025690" lon="10.2645130">
	<ele>1042.60</ele>
	<time>2025-04-30T06:47:03.000Z</time>
</trkpt>
<trkpt lat="45.9025690" lon="10.2645140">
	<ele>1042.60</ele>
	<time>2025-04-30T06:47:04.000Z</time>
</trkpt>
<trkpt lat="45.9025690" lon="10.2645150">
	<ele>1042.40</ele>
	<time>2025-04-30T06:47:05.000Z</time>
</trkpt>
<trkpt lat="45.9025690" lon="10.2645160">
	<ele>1042.40</ele>
	<time>2025-04-30T06:47:06.000Z</time>
</trkpt>
<trkpt lat="45.9025690" lon="10.2645170">
	<ele>1042.40</ele>
	<time>2025-04-30T06:47:07.000Z</time>
</trkpt>
<trkpt lat="45.9025690" lon="10.2645170">
	<ele>1042.40</ele>
	<time>2025-04-30T06:47:08.000Z</time>
</trkpt>
<trkpt lat="45.9025690" lon="10.2645170">
	<ele>1042.40</ele>
	<time>2025-04-30T06:47:09.000Z</time>
</trkpt>
<trkpt lat="45.9025690" lon="10.2645180">
	<ele>1042.60</ele>
	<time>2025-04-30T06:47:10.000Z</time>
</trkpt>
<trkpt lat="45.9025720" lon="10.2645180">
	<ele>1042.60</ele>
	<time>2025-04-30T06:47:11.000Z</time>
</trkpt>
<trkpt lat="45.9025720" lon="10.2645180">
	<ele>1042.80</ele>
	<time>2025-04-30T06:47:12.000Z</time>
</trkpt>
<trkpt lat="45.9025750" lon="10.2645190">
	<ele>1042.80</ele>
	<time>2025-04-30T06:47:13.000Z</time>
</trkpt>
<trkpt lat="45.9025780" lon="10.2645190">
	<ele>1043.00</ele>
	<time>2025-04-30T06:47:14.000Z</time>
</trkpt>
<trkpt lat="45.9025810" lon="10.2645200">
	<ele>1043.20</ele>
	<time>2025-04-30T06:47:15.000Z</time>
</trkpt>
<trkpt lat="45.9025840" lon="10.2645200">
	<ele>1043.40</ele>
	<time>2025-04-30T06:47:16.000Z</time>
</trkpt>
<trkpt lat="45.9025860" lon="10.2645330">
	<ele>1043.40</ele>
	<time>2025-04-30T06:47:17.000Z</time>
</trkpt>
<trkpt lat="45.9025860" lon="10.2645560">
	<ele>1043.60</ele>
	<time>2025-04-30T06:47:18.000Z</time>
</trkpt>
<trkpt lat="45.9025880" lon="10.2645750">
	<ele>1043.80</ele>
	<time>2025-04-30T06:47:19.000Z</time>
</trkpt>
<trkpt lat="45.9025880" lon="10.2645960">
	<ele>1044.00</ele>
	<time>2025-04-30T06:47:20.000Z</time>
</trkpt>
<trkpt lat="45.9025940" lon="10.2646170">
	<ele>1044.20</ele>
	<time>2025-04-30T06:47:21.000Z</time>
</trkpt>
<trkpt lat="45.9025990" lon="10.2646360">
	<ele>1044.40</ele>
	<time>2025-04-30T06:47:22.000Z</time>
</trkpt>
<trkpt lat="45.9025950" lon="10.2646600">
	<ele>1044.60</ele>
	<time>2025-04-30T06:47:23.000Z</time>
</trkpt>
<trkpt lat="45.9025920" lon="10.2646920">
	<ele>1044.80</ele>
	<time>2025-04-30T06:47:24.000Z</time>
</trkpt>
<trkpt lat="45.9025820" lon="10.2647180">
	<ele>1045.00</ele>
	<time>2025-04-30T06:47:25.000Z</time>
</trkpt>
<trkpt lat="45.9025810" lon="10.2647390">
	<ele>1045.20</ele>
	<time>2025-04-30T06:47:26.000Z</time>
</trkpt>
<trkpt lat="45.9025900" lon="10.2647470">
	<ele>1045.40</ele>
	<time>2025-04-30T06:47:27.000Z</time>
</trkpt>
<trkpt lat="45.9025960" lon="10.2647630">
	<ele>1045.40</ele>
	<time>2025-04-30T06:47:28.000Z</time>
</trkpt>
<trkpt lat="45.9025960" lon="10.2647760">
	<ele>1045.80</ele>
	<time>2025-04-30T06:47:29.000Z</time>
</trkpt>
<trkpt lat="45.9025970" lon="10.2647860">
	<ele>1046.00</ele>
	<time>2025-04-30T06:47:30.000Z</time>
</trkpt>
<trkpt lat="45.9025970" lon="10.2647960">
	<ele>1046.20</ele>
	<time>2025-04-30T06:47:31.000Z</time>
</trkpt>
<trkpt lat="45.9025980" lon="10.2648070">
	<ele>1046.40</ele>
	<time>2025-04-30T06:47:32.000Z</time>
</trkpt>
<trkpt lat="45.9026010" lon="10.2648090">
	<ele>1046.60</ele>
	<time>2025-04-30T06:47:33.000Z</time>
</trkpt>
<trkpt lat="45.9026010" lon="10.2648150">
	<ele>1046.80</ele>
	<time>2025-04-30T06:47:34.000Z</time>
</trkpt>
<trkpt lat="45.9026000" lon="10.2648240">
	<ele>1046.80</ele>
	<time>2025-04-30T06:47:35.000Z</time>
</trkpt>
<trkpt lat="45.9025960" lon="10.2648350">
	<ele>1047.00</ele>
	<time>2025-04-30T06:47:36.000Z</time>
</trkpt>
<trkpt lat="45.9025940" lon="10.2648480">
	<ele>1047.20</ele>
	<time>2025-04-30T06:47:37.000Z</time>
</trkpt>
<trkpt lat="45.9025890" lon="10.2648590">
	<ele>1047.40</ele>
	<time>2025-04-30T06:47:38.000Z</time>
</trkpt>
<trkpt lat="45.9025880" lon="10.2648660">
	<ele>1047.60</ele>
	<time>2025-04-30T06:47:39.000Z</time>
</trkpt>
<trkpt lat="45.9025880" lon="10.2648770">
	<ele>1047.80</ele>
	<time>2025-04-30T06:47:40.000Z</time>
</trkpt>
<trkpt lat="45.9025750" lon="10.2648890">
	<ele>1048.00</ele>
	<time>2025-04-30T06:47:41.000Z</time>
</trkpt>
<trkpt lat="45.9025700" lon="10.2649000">
	<ele>1048.20</ele>
	<time>2025-04-30T06:47:42.000Z</time>
</trkpt>
<trkpt lat="45.9025740" lon="10.2649060">
	<ele>1048.40</ele>
	<time>2025-04-30T06:47:43.000Z</time>
</trkpt>
<trkpt lat="45.9025720" lon="10.2649190">
	<ele>1048.60</ele>
	<time>2025-04-30T06:47:44.000Z</time>
</trkpt>
<trkpt lat="45.9025790" lon="10.2649290">
	<ele>1048.80</ele>
	<time>2025-04-30T06:47:45.000Z</time>
</trkpt>
<trkpt lat="45.9025890" lon="10.2649340">
	<ele>1049.40</ele>
	<time>2025-04-30T06:47:46.000Z</time>
</trkpt>
<trkpt lat="45.9026020" lon="10.2649370">
	<ele>1049.80</ele>
	<time>2025-04-30T06:47:47.000Z</time>
</trkpt>
<trkpt lat="45.9026050" lon="10.2649490">
	<ele>1050.20</ele>
	<time>2025-04-30T06:47:48.000Z</time>
</trkpt>
<trkpt lat="45.9026020" lon="10.2649550">
	<ele>1050.40</ele>
	<time>2025-04-30T06:47:49.000Z</time>
</trkpt>
<trkpt lat="45.9026060" lon="10.2649620">
	<ele>1050.60</ele>
	<time>2025-04-30T06:47:50.000Z</time>
</trkpt>
<trkpt lat="45.9025990" lon="10.2649690">
	<ele>1050.60</ele>
	<time>2025-04-30T06:47:51.000Z</time>
</trkpt>
<trkpt lat="45.9025970" lon="10.2649750">
	<ele>1050.60</ele>
	<time>2025-04-30T06:47:52.000Z</time>
</trkpt>
<trkpt lat="45.9025960" lon="10.2649790">
	<ele>1050.80</ele>
	<time>2025-04-30T06:47:53.000Z</time>
</trkpt>
<trkpt lat="45.9026050" lon="10.2649790">
	<ele>1050.80</ele>
	<time>2025-04-30T06:47:54.000Z</time>
</trkpt>
<trkpt lat="45.9026150" lon="10.2649840">
	<ele>1051.20</ele>
	<time>2025-04-30T06:47:55.000Z</time>
</trkpt>
<trkpt lat="45.9026210" lon="10.2649870">
	<ele>1051.60</ele>
	<time>2025-04-30T06:47:56.000Z</time>
</trkpt>
<trkpt lat="45.9026220" lon="10.2649870">
	<ele>1051.80</ele>
	<time>2025-04-30T06:47:57.000Z</time>
</trkpt>
<trkpt lat="45.9026200" lon="10.2649900">
	<ele>1052.00</ele>
	<time>2025-04-30T06:47:58.000Z</time>
</trkpt>
<trkpt lat="45.9026160" lon="10.2649950">
	<ele>1052.00</ele>
	<time>2025-04-30T06:47:59.000Z</time>
</trkpt>
<trkpt lat="45.9026110" lon="10.2650000">
	<ele>1052.00</ele>
	<time>2025-04-30T06:48:00.000Z</time>
</trkpt>
<trkpt lat="45.9026110" lon="10.2650070">
	<ele>1051.80</ele>
	<time>2025-04-30T06:48:01.000Z</time>
</trkpt>
<trkpt lat="45.9026080" lon="10.2650190">
	<ele>1051.60</ele>
	<time>2025-04-30T06:48:02.000Z</time>
</trkpt>
<trkpt lat="45.9026050" lon="10.2650280">
	<ele>1051.60</ele>
	<time>2025-04-30T06:48:03.000Z</time>
</trkpt>
<trkpt lat="45.9026040" lon="10.2650400">
	<ele>1051.60</ele>
	<time>2025-04-30T06:48:04.000Z</time>
</trkpt>
<trkpt lat="45.9026080" lon="10.2650560">
	<ele>1051.60</ele>
	<time>2025-04-30T06:48:05.000Z</time>
</trkpt>
<trkpt lat="45.9026130" lon="10.2650670">
	<ele>1051.80</ele>
	<time>2025-04-30T06:48:06.000Z</time>
</trkpt>
<trkpt lat="45.9026220" lon="10.2650780">
	<ele>1052.20</ele>
	<time>2025-04-30T06:48:07.000Z</time>
</trkpt>
<trkpt lat="45.9026300" lon="10.2650910">
	<ele>1052.40</ele>
	<time>2025-04-30T06:48:08.000Z</time>
</trkpt>
<trkpt lat="45.9026340" lon="10.2651060">
	<ele>1052.60</ele>
	<time>2025-04-30T06:48:09.000Z</time>
</trkpt>
<trkpt lat="45.9026390" lon="10.2651180">
	<ele>1052.80</ele>
	<time>2025-04-30T06:48:10.000Z</time>
</trkpt>
<trkpt lat="45.9026420" lon="10.2651280">
	<ele>1052.80</ele>
	<time>2025-04-30T06:48:11.000Z</time>
</trkpt>
<trkpt lat="45.9026410" lon="10.2651460">
	<ele>1053.20</ele>
	<time>2025-04-30T06:48:12.000Z</time>
</trkpt>
<trkpt lat="45.9026440" lon="10.2651600">
	<ele>1053.20</ele>
	<time>2025-04-30T06:48:13.000Z</time>
</trkpt>
<trkpt lat="45.9026510" lon="10.2651750">
	<ele>1053.40</ele>
	<time>2025-04-30T06:48:14.000Z</time>
</trkpt>
<trkpt lat="45.9026570" lon="10.2651890">
	<ele>1053.40</ele>
	<time>2025-04-30T06:48:15.000Z</time>
</trkpt>
<trkpt lat="45.9026580" lon="10.2652000">
	<ele>1053.60</ele>
	<time>2025-04-30T06:48:16.000Z</time>
</trkpt>
<trkpt lat="45.9026540" lon="10.2652090">
	<ele>1053.80</ele>
	<time>2025-04-30T06:48:17.000Z</time>
</trkpt>
<trkpt lat="45.9026510" lon="10.2652170">
	<ele>1054.00</ele>
	<time>2025-04-30T06:48:18.000Z</time>
</trkpt>
<trkpt lat="45.9026440" lon="10.2652080">
	<ele>1054.20</ele>
	<time>2025-04-30T06:48:19.000Z</time>
</trkpt>
<trkpt lat="45.9026400" lon="10.2652040">
	<ele>1054.60</ele>
	<time>2025-04-30T06:48:20.000Z</time>
</trkpt>
<trkpt lat="45.9026340" lon="10.2651990">
	<ele>1055.00</ele>
	<time>2025-04-30T06:48:21.000Z</time>
</trkpt>
<trkpt lat="45.9026310" lon="10.2651970">
	<ele>1055.40</ele>
	<time>2025-04-30T06:48:22.000Z</time>
</trkpt>
<trkpt lat="45.9026300" lon="10.2651970">
	<ele>1055.60</ele>
	<time>2025-04-30T06:48:23.000Z</time>
</trkpt>
<trkpt lat="45.9026310" lon="10.2651970">
	<ele>1055.80</ele>
	<time>2025-04-30T06:48:24.000Z</time>
</trkpt>
<trkpt lat="45.9026320" lon="10.2651990">
	<ele>1055.80</ele>
	<time>2025-04-30T06:48:25.000Z</time>
</trkpt>
<trkpt lat="45.9026320" lon="10.2652000">
	<ele>1056.00</ele>
	<time>2025-04-30T06:48:26.000Z</time>
</trkpt>
<trkpt lat="45.9026330" lon="10.2652010">
	<ele>1056.00</ele>
	<time>2025-04-30T06:48:27.000Z</time>
</trkpt>
<trkpt lat="45.9026330" lon="10.2652010">
	<ele>1056.00</ele>
	<time>2025-04-30T06:48:28.000Z</time>
</trkpt>
<trkpt lat="45.9026330" lon="10.2652010">
	<ele>1055.80</ele>
	<time>2025-04-30T06:48:29.000Z</time>
</trkpt>
<trkpt lat="45.9026330" lon="10.2652010">
	<ele>1055.60</ele>
	<time>2025-04-30T06:48:30.000Z</time>
</trkpt>
<trkpt lat="45.9026330" lon="10.2652010">
	<ele>1055.60</ele>
	<time>2025-04-30T06:48:31.000Z</time>
</trkpt>
<trkpt lat="45.9026330" lon="10.2652010">
	<ele>1055.60</ele>
	<time>2025-04-30T06:48:32.000Z</time>
</trkpt>
<trkpt lat="45.9026330" lon="10.2652010">
	<ele>1055.60</ele>
	<time>2025-04-30T06:48:33.000Z</time>
</trkpt>
<trkpt lat="45.9026330" lon="10.2652010">
	<ele>1055.60</ele>
	<time>2025-04-30T06:48:34.000Z</time>
</trkpt>
<trkpt lat="45.9026330" lon="10.2652010">
	<ele>1055.80</ele>
	<time>2025-04-30T06:48:35.000Z</time>
</trkpt>
<trkpt lat="45.9026330" lon="10.2652010">
	<ele>1055.80</ele>
	<time>2025-04-30T06:48:36.000Z</time>
</trkpt>
<trkpt lat="45.9026330" lon="10.2652010">
	<ele>1056.00</ele>
	<time>2025-04-30T06:48:37.000Z</time>
</trkpt>
<trkpt lat="45.9026330" lon="10.2652010">
	<ele>1056.20</ele>
	<time>2025-04-30T06:48:38.000Z</time>
</trkpt>
<trkpt lat="45.9026330" lon="10.2652080">
	<ele>1056.40</ele>
	<time>2025-04-30T06:48:39.000Z</time>
</trkpt>
<trkpt lat="45.9026320" lon="10.2652200">
	<ele>1056.40</ele>
	<time>2025-04-30T06:48:40.000Z</time>
</trkpt>
<trkpt lat="45.9026330" lon="10.2652290">
	<ele>1056.60</ele>
	<time>2025-04-30T06:48:41.000Z</time>
</trkpt>
<trkpt lat="45.9026330" lon="10.2652360">
	<ele>1056.60</ele>
	<time>2025-04-30T06:48:42.000Z</time>
</trkpt>
<trkpt lat="45.9026330" lon="10.2652480">
	<ele>1057.00</ele>
	<time>2025-04-30T06:48:43.000Z</time>
</trkpt>
<trkpt lat="45.9026310" lon="10.2652660">
	<ele>1057.20</ele>
	<time>2025-04-30T06:48:44.000Z</time>
</trkpt>
<trkpt lat="45.9026280" lon="10.2652830">
	<ele>1057.40</ele>
	<time>2025-04-30T06:48:45.000Z</time>
</trkpt>
<trkpt lat="45.9026260" lon="10.2653090">
	<ele>1057.60</ele>
	<time>2025-04-30T06:48:46.000Z</time>
</trkpt>
<trkpt lat="45.9026260" lon="10.2653290">
	<ele>1057.80</ele>
	<time>2025-04-30T06:48:47.000Z</time>
</trkpt>
<trkpt lat="45.9026240" lon="10.2653410">
	<ele>1058.00</ele>
	<time>2025-04-30T06:48:48.000Z</time>
</trkpt>
<trkpt lat="45.9026230" lon="10.2653500">
	<ele>1058.20</ele>
	<time>2025-04-30T06:48:49.000Z</time>
</trkpt>
<trkpt lat="45.9026200" lon="10.2653580">
	<ele>1058.40</ele>
	<time>2025-04-30T06:48:50.000Z</time>
</trkpt>
<trkpt lat="45.9026170" lon="10.2653680">
	<ele>1058.60</ele>
	<time>2025-04-30T06:48:51.000Z</time>
</trkpt>
<trkpt lat="45.9026170" lon="10.2653770">
	<ele>1058.80</ele>
	<time>2025-04-30T06:48:52.000Z</time>
</trkpt>
<trkpt lat="45.9026120" lon="10.2653890">
	<ele>1059.00</ele>
	<time>2025-04-30T06:48:53.000Z</time>
</trkpt>
<trkpt lat="45.9026140" lon="10.2653940">
	<ele>1059.00</ele>
	<time>2025-04-30T06:48:54.000Z</time>
</trkpt>
<trkpt lat="45.9026060" lon="10.2654060">
	<ele>1059.20</ele>
	<time>2025-04-30T06:48:55.000Z</time>
</trkpt>
<trkpt lat="45.9025970" lon="10.2654250">
	<ele>1059.40</ele>
	<time>2025-04-30T06:48:56.000Z</time>
</trkpt>
<trkpt lat="45.9025890" lon="10.2654390">
	<ele>1059.40</ele>
	<time>2025-04-30T06:48:57.000Z</time>
</trkpt>
<trkpt lat="45.9025870" lon="10.2654520">
	<ele>1059.80</ele>
	<time>2025-04-30T06:48:58.000Z</time>
</trkpt>
<trkpt lat="45.9025840" lon="10.2654660">
	<ele>1059.80</ele>
	<time>2025-04-30T06:48:59.000Z</time>
</trkpt>
<trkpt lat="45.9025850" lon="10.2654790">
	<ele>1060.00</ele>
	<time>2025-04-30T06:49:00.000Z</time>
</trkpt>
<trkpt lat="45.9025850" lon="10.2654860">
	<ele>1060.20</ele>
	<time>2025-04-30T06:49:01.000Z</time>
</trkpt>
<trkpt lat="45.9025820" lon="10.2654960">
	<ele>1060.20</ele>
	<time>2025-04-30T06:49:02.000Z</time>
</trkpt>
<trkpt lat="45.9025840" lon="10.2655010">
	<ele>1060.40</ele>
	<time>2025-04-30T06:49:03.000Z</time>
</trkpt>
<trkpt lat="45.9025810" lon="10.2654980">
	<ele>1060.60</ele>
	<time>2025-04-30T06:49:04.000Z</time>
</trkpt>
<trkpt lat="45.9025690" lon="10.2654950">
	<ele>1060.80</ele>
	<time>2025-04-30T06:49:05.000Z</time>
</trkpt>
<trkpt lat="45.9025640" lon="10.2655240">
	<ele>1061.00</ele>
	<time>2025-04-30T06:49:06.000Z</time>
</trkpt>
<trkpt lat="45.9025520" lon="10.2655490">
	<ele>1061.20</ele>
	<time>2025-04-30T06:49:07.000Z</time>
</trkpt>
<trkpt lat="45.9025430" lon="10.2655610">
	<ele>1061.40</ele>
	<time>2025-04-30T06:49:08.000Z</time>
</trkpt>
<trkpt lat="45.9025400" lon="10.2655670">
	<ele>1061.60</ele>
	<time>2025-04-30T06:49:09.000Z</time>
</trkpt>
<trkpt lat="45.9025410" lon="10.2655740">
	<ele>1061.80</ele>
	<time>2025-04-30T06:49:10.000Z</time>
</trkpt>
<trkpt lat="45.9025380" lon="10.2655830">
	<ele>1061.80</ele>
	<time>2025-04-30T06:49:11.000Z</time>
</trkpt>
<trkpt lat="45.9025400" lon="10.2655860">
	<ele>1062.00</ele>
	<time>2025-04-30T06:49:12.000Z</time>
</trkpt>
<trkpt lat="45.9025440" lon="10.2655860">
	<ele>1062.20</ele>
	<time>2025-04-30T06:49:13.000Z</time>
</trkpt>
<trkpt lat="45.9025460" lon="10.2655880">
	<ele>1062.40</ele>
	<time>2025-04-30T06:49:14.000Z</time>
</trkpt>
<trkpt lat="45.9025470" lon="10.2655910">
	<ele>1062.40</ele>
	<time>2025-04-30T06:49:15.000Z</time>
</trkpt>
<trkpt lat="45.9025480" lon="10.2655860">
	<ele>1063.00</ele>
	<time>2025-04-30T06:49:16.000Z</time>
</trkpt>
<trkpt lat="45.9025470" lon="10.2655870">
	<ele>1063.20</ele>
	<time>2025-04-30T06:49:17.000Z</time>
</trkpt>
<trkpt lat="45.9025440" lon="10.2655910">
	<ele>1063.20</ele>
	<time>2025-04-30T06:49:18.000Z</time>
</trkpt>
<trkpt lat="45.9025450" lon="10.2655860">
	<ele>1063.40</ele>
	<time>2025-04-30T06:49:19.000Z</time>
</trkpt>
<trkpt lat="45.9025430" lon="10.2655870">
	<ele>1063.20</ele>
	<time>2025-04-30T06:49:20.000Z</time>
</trkpt>
<trkpt lat="45.9025400" lon="10.2655870">
	<ele>1063.20</ele>
	<time>2025-04-30T06:49:21.000Z</time>
</trkpt>
<trkpt lat="45.9025420" lon="10.2655900">
	<ele>1063.00</ele>
	<time>2025-04-30T06:49:22.000Z</time>
</trkpt>
<trkpt lat="45.9025450" lon="10.2655890">
	<ele>1063.00</ele>
	<time>2025-04-30T06:49:23.000Z</time>
</trkpt>
<trkpt lat="45.9025430" lon="10.2655840">
	<ele>1063.00</ele>
	<time>2025-04-30T06:49:24.000Z</time>
</trkpt>
<trkpt lat="45.9025440" lon="10.2655850">
	<ele>1063.20</ele>
	<time>2025-04-30T06:49:25.000Z</time>
</trkpt>
<trkpt lat="45.9025450" lon="10.2655820">
	<ele>1063.40</ele>
	<time>2025-04-30T06:49:26.000Z</time>
</trkpt>
<trkpt lat="45.9025450" lon="10.2655780">
	<ele>1063.40</ele>
	<time>2025-04-30T06:49:27.000Z</time>
</trkpt>
<trkpt lat="45.9025510" lon="10.2655700">
	<ele>1063.60</ele>
	<time>2025-04-30T06:49:28.000Z</time>
</trkpt>
<trkpt lat="45.9025500" lon="10.2655680">
	<ele>1063.60</ele>
	<time>2025-04-30T06:49:29.000Z</time>
</trkpt>
<trkpt lat="45.9025480" lon="10.2655670">
	<ele>1063.60</ele>
	<time>2025-04-30T06:49:30.000Z</time>
</trkpt>
<trkpt lat="45.9025590" lon="10.2655580">
	<ele>1063.60</ele>
	<time>2025-04-30T06:49:31.000Z</time>
</trkpt>
<trkpt lat="45.9025590" lon="10.2655590">
	<ele>1063.60</ele>
	<time>2025-04-30T06:49:32.000Z</time>
</trkpt>
<trkpt lat="45.9025580" lon="10.2655600">
	<ele>1063.60</ele>
	<time>2025-04-30T06:49:33.000Z</time>
</trkpt>
<trkpt lat="45.9025580" lon="10.2655600">
	<ele>1063.60</ele>
	<time>2025-04-30T06:49:34.000Z</time>
</trkpt>
<trkpt lat="45.9025580" lon="10.2655600">
	<ele>1063.60</ele>
	<time>2025-04-30T06:49:35.000Z</time>
</trkpt>
<trkpt lat="45.9025580" lon="10.2655600">
	<ele>1063.60</ele>
	<time>2025-04-30T06:49:36.000Z</time>
</trkpt>
<trkpt lat="45.9025580" lon="10.2655600">
	<ele>1063.60</ele>
	<time>2025-04-30T06:49:37.000Z</time>
</trkpt>
<trkpt lat="45.9025580" lon="10.2655600">
	<ele>1063.60</ele>
	<time>2025-04-30T06:49:38.000Z</time>
</trkpt>
<trkpt lat="45.9025580" lon="10.2655600">
	<ele>1063.80</ele>
	<time>2025-04-30T06:49:39.000Z</time>
</trkpt>
<trkpt lat="45.9025580" lon="10.2655600">
	<ele>1064.00</ele>
	<time>2025-04-30T06:49:40.000Z</time>
</trkpt>
<trkpt lat="45.9025580" lon="10.2655600">
	<ele>1064.00</ele>
	<time>2025-04-30T06:49:41.000Z</time>
</trkpt>
<trkpt lat="45.9025580" lon="10.2655600">
	<ele>1064.20</ele>
	<time>2025-04-30T06:49:42.000Z</time>
</trkpt>
<trkpt lat="45.9025580" lon="10.2655670">
	<ele>1064.40</ele>
	<time>2025-04-30T06:49:43.000Z</time>
</trkpt>
<trkpt lat="45.9025580" lon="10.2655680">
	<ele>1064.60</ele>
	<time>2025-04-30T06:49:44.000Z</time>
</trkpt>
<trkpt lat="45.9025580" lon="10.2655690">
	<ele>1064.80</ele>
	<time>2025-04-30T06:49:45.000Z</time>
</trkpt>
<trkpt lat="45.9025580" lon="10.2655700">
	<ele>1065.00</ele>
	<time>2025-04-30T06:49:46.000Z</time>
</trkpt>
<trkpt lat="45.9025580" lon="10.2655720">
	<ele>1065.20</ele>
	<time>2025-04-30T06:49:47.000Z</time>
</trkpt>
<trkpt lat="45.9025580" lon="10.2655760">
	<ele>1065.40</ele>
	<time>2025-04-30T06:49:48.000Z</time>
</trkpt>
<trkpt lat="45.9025580" lon="10.2655780">
	<ele>1065.60</ele>
	<time>2025-04-30T06:49:49.000Z</time>
</trkpt>
<trkpt lat="45.9025620" lon="10.2655890">
	<ele>1065.80</ele>
	<time>2025-04-30T06:49:50.000Z</time>
</trkpt>
<trkpt lat="45.9025660" lon="10.2656080">
	<ele>1066.00</ele>
	<time>2025-04-30T06:49:51.000Z</time>
</trkpt>
<trkpt lat="45.9025700" lon="10.2656310">
	<ele>1066.00</ele>
	<time>2025-04-30T06:49:52.000Z</time>
</trkpt>
<trkpt lat="45.9025770" lon="10.2656530">
	<ele>1066.20</ele>
	<time>2025-04-30T06:49:53.000Z</time>
</trkpt>
<trkpt lat="45.9025860" lon="10.2656800">
	<ele>1066.40</ele>
	<time>2025-04-30T06:49:54.000Z</time>
</trkpt>
<trkpt lat="45.9025930" lon="10.2657000">
	<ele>1066.60</ele>
	<time>2025-04-30T06:49:55.000Z</time>
</trkpt>
<trkpt lat="45.9025950" lon="10.2657250">
	<ele>1066.60</ele>
	<time>2025-04-30T06:49:56.000Z</time>
</trkpt>
<trkpt lat="45.9026000" lon="10.2657510">
	<ele>1066.80</ele>
	<time>2025-04-30T06:49:57.000Z</time>
</trkpt>
<trkpt lat="45.9026060" lon="10.2657770">
	<ele>1067.00</ele>
	<time>2025-04-30T06:49:58.000Z</time>
</trkpt>
<trkpt lat="45.9026140" lon="10.2658020">
	<ele>1067.20</ele>
	<time>2025-04-30T06:49:59.000Z</time>
</trkpt>
<trkpt lat="45.9026200" lon="10.2658150">
	<ele>1067.40</ele>
	<time>2025-04-30T06:50:00.000Z</time>
</trkpt>
<trkpt lat="45.9026280" lon="10.2658280">
	<ele>1067.40</ele>
	<time>2025-04-30T06:50:01.000Z</time>
</trkpt>
<trkpt lat="45.9026350" lon="10.2658410">
	<ele>1067.80</ele>
	<time>2025-04-30T06:50:02.000Z</time>
</trkpt>
<trkpt lat="45.9026370" lon="10.2658490">
	<ele>1068.00</ele>
	<time>2025-04-30T06:50:03.000Z</time>
</trkpt>
<trkpt lat="45.9026390" lon="10.2658640">
	<ele>1068.20</ele>
	<time>2025-04-30T06:50:04.000Z</time>
</trkpt>
<trkpt lat="45.9026390" lon="10.2658760">
	<ele>1068.20</ele>
	<time>2025-04-30T06:50:05.000Z</time>
</trkpt>
<trkpt lat="45.9026390" lon="10.2658880">
	<ele>1068.40</ele>
	<time>2025-04-30T06:50:06.000Z</time>
</trkpt>
<trkpt lat="45.9026400" lon="10.2659010">
	<ele>1068.60</ele>
	<time>2025-04-30T06:50:07.000Z</time>
</trkpt>
<trkpt lat="45.9026430" lon="10.2659100">
	<ele>1068.60</ele>
	<time>2025-04-30T06:50:08.000Z</time>
</trkpt>
<trkpt lat="45.9026490" lon="10.2659230">
	<ele>1068.80</ele>
	<time>2025-04-30T06:50:09.000Z</time>
</trkpt>
<trkpt lat="45.9026560" lon="10.2659390">
	<ele>1069.00</ele>
	<time>2025-04-30T06:50:10.000Z</time>
</trkpt>
<trkpt lat="45.9026540" lon="10.2659530">
	<ele>1069.40</ele>
	<time>2025-04-30T06:50:11.000Z</time>
</trkpt>
<trkpt lat="45.9026560" lon="10.2659690">
	<ele>1069.60</ele>
	<time>2025-04-30T06:50:12.000Z</time>
</trkpt>
<trkpt lat="45.9026560" lon="10.2659870">
	<ele>1069.60</ele>
	<time>2025-04-30T06:50:13.000Z</time>
</trkpt>
<trkpt lat="45.9026570" lon="10.2660020">
	<ele>1069.80</ele>
	<time>2025-04-30T06:50:14.000Z</time>
</trkpt>
<trkpt lat="45.9026630" lon="10.2660210">
	<ele>1070.00</ele>
	<time>2025-04-30T06:50:15.000Z</time>
</trkpt>
<trkpt lat="45.9026620" lon="10.2660380">
	<ele>1070.00</ele>
	<time>2025-04-30T06:50:16.000Z</time>
</trkpt>
<trkpt lat="45.9026590" lon="10.2660490">
	<ele>1070.00</ele>
	<time>2025-04-30T06:50:17.000Z</time>
</trkpt>
<trkpt lat="45.9026600" lon="10.2660530">
	<ele>1070.40</ele>
	<time>2025-04-30T06:50:18.000Z</time>
</trkpt>
<trkpt lat="45.9026660" lon="10.2660540">
	<ele>1070.60</ele>
	<time>2025-04-30T06:50:19.000Z</time>
</trkpt>
<trkpt lat="45.9026670" lon="10.2660550">
	<ele>1070.80</ele>
	<time>2025-04-30T06:50:20.000Z</time>
</trkpt>
<trkpt lat="45.9026730" lon="10.2660540">
	<ele>1071.00</ele>
	<time>2025-04-30T06:50:21.000Z</time>
</trkpt>
<trkpt lat="45.9026770" lon="10.2660630">
	<ele>1071.20</ele>
	<time>2025-04-30T06:50:22.000Z</time>
</trkpt>
<trkpt lat="45.9026740" lon="10.2660820">
	<ele>1071.40</ele>
	<time>2025-04-30T06:50:23.000Z</time>
</trkpt>
<trkpt lat="45.9026700" lon="10.2661000">
	<ele>1071.40</ele>
	<time>2025-04-30T06:50:24.000Z</time>
</trkpt>
<trkpt lat="45.9026640" lon="10.2661110">
	<ele>1071.60</ele>
	<time>2025-04-30T06:50:25.000Z</time>
</trkpt>
<trkpt lat="45.9026570" lon="10.2661210">
	<ele>1071.60</ele>
	<time>2025-04-30T06:50:26.000Z</time>
</trkpt>
<trkpt lat="45.9026480" lon="10.2661300">
	<ele>1071.80</ele>
	<time>2025-04-30T06:50:27.000Z</time>
</trkpt>
<trkpt lat="45.9026470" lon="10.2661420">
	<ele>1072.00</ele>
	<time>2025-04-30T06:50:28.000Z</time>
</trkpt>
<trkpt lat="45.9026500" lon="10.2661550">
	<ele>1072.20</ele>
	<time>2025-04-30T06:50:29.000Z</time>
</trkpt>
<trkpt lat="45.9026570" lon="10.2661620">
	<ele>1072.20</ele>
	<time>2025-04-30T06:50:30.000Z</time>
</trkpt>
<trkpt lat="45.9026610" lon="10.2661740">
	<ele>1072.40</ele>
	<time>2025-04-30T06:50:31.000Z</time>
</trkpt>
<trkpt lat="45.9026640" lon="10.2661880">
	<ele>1072.60</ele>
	<time>2025-04-30T06:50:32.000Z</time>
</trkpt>
<trkpt lat="45.9026710" lon="10.2661990">
	<ele>1072.80</ele>
	<time>2025-04-30T06:50:33.000Z</time>
</trkpt>
<trkpt lat="45.9026680" lon="10.2662070">
	<ele>1073.00</ele>
	<time>2025-04-30T06:50:34.000Z</time>
</trkpt>
<trkpt lat="45.9026700" lon="10.2662130">
	<ele>1073.20</ele>
	<time>2025-04-30T06:50:35.000Z</time>
</trkpt>
<trkpt lat="45.9026760" lon="10.2662170">
	<ele>1073.40</ele>
	<time>2025-04-30T06:50:36.000Z</time>
</trkpt>
<trkpt lat="45.9026800" lon="10.2662240">
	<ele>1073.40</ele>
	<time>2025-04-30T06:50:37.000Z</time>
</trkpt>
<trkpt lat="45.9026810" lon="10.2662310">
	<ele>1073.60</ele>
	<time>2025-04-30T06:50:38.000Z</time>
</trkpt>
<trkpt lat="45.9026880" lon="10.2662350">
	<ele>1073.80</ele>
	<time>2025-04-30T06:50:39.000Z</time>
</trkpt>
<trkpt lat="45.9026920" lon="10.2662400">
	<ele>1074.00</ele>
	<time>2025-04-30T06:50:40.000Z</time>
</trkpt>
<trkpt lat="45.9026900" lon="10.2662510">
	<ele>1074.20</ele>
	<time>2025-04-30T06:50:41.000Z</time>
</trkpt>
<trkpt lat="45.9026930" lon="10.2662610">
	<ele>1074.20</ele>
	<time>2025-04-30T06:50:42.000Z</time>
</trkpt>
<trkpt lat="45.9027040" lon="10.2662680">
	<ele>1074.40</ele>
	<time>2025-04-30T06:50:43.000Z</time>
</trkpt>
<trkpt lat="45.9027170" lon="10.2662710">
	<ele>1074.60</ele>
	<time>2025-04-30T06:50:44.000Z</time>
</trkpt>
<trkpt lat="45.9027230" lon="10.2662810">
	<ele>1074.80</ele>
	<time>2025-04-30T06:50:45.000Z</time>
</trkpt>
<trkpt lat="45.9027270" lon="10.2662920">
	<ele>1075.00</ele>
	<time>2025-04-30T06:50:46.000Z</time>
</trkpt>
<trkpt lat="45.9027310" lon="10.2663050">
	<ele>1075.20</ele>
	<time>2025-04-30T06:50:47.000Z</time>
</trkpt>
<trkpt lat="45.9027330" lon="10.2663120">
	<ele>1075.20</ele>
	<time>2025-04-30T06:50:48.000Z</time>
</trkpt>
<trkpt lat="45.9027370" lon="10.2663190">
	<ele>1075.40</ele>
	<time>2025-04-30T06:50:49.000Z</time>
</trkpt>
<trkpt lat="45.9027390" lon="10.2663270">
	<ele>1075.60</ele>
	<time>2025-04-30T06:50:50.000Z</time>
</trkpt>
<trkpt lat="45.9027440" lon="10.2663390">
	<ele>1075.60</ele>
	<time>2025-04-30T06:50:51.000Z</time>
</trkpt>
<trkpt lat="45.9027500" lon="10.2663500">
	<ele>1076.00</ele>
	<time>2025-04-30T06:50:52.000Z</time>
</trkpt>
<trkpt lat="45.9027490" lon="10.2663600">
	<ele>1076.20</ele>
	<time>2025-04-30T06:50:53.000Z</time>
</trkpt>
<trkpt lat="45.9027510" lon="10.2663680">
	<ele>1076.20</ele>
	<time>2025-04-30T06:50:54.000Z</time>
</trkpt>
<trkpt lat="45.9027550" lon="10.2663790">
	<ele>1076.60</ele>
	<time>2025-04-30T06:50:55.000Z</time>
</trkpt>
<trkpt lat="45.9027590" lon="10.2663870">
	<ele>1076.80</ele>
	<time>2025-04-30T06:50:56.000Z</time>
</trkpt>
<trkpt lat="45.9027630" lon="10.2663850">
	<ele>1077.00</ele>
	<time>2025-04-30T06:50:57.000Z</time>
</trkpt>
<trkpt lat="45.9027700" lon="10.2663880">
	<ele>1077.20</ele>
	<time>2025-04-30T06:50:58.000Z</time>
</trkpt>
<trkpt lat="45.9027730" lon="10.2663990">
	<ele>1077.40</ele>
	<time>2025-04-30T06:50:59.000Z</time>
</trkpt>
<trkpt lat="45.9027780" lon="10.2664010">
	<ele>1077.60</ele>
	<time>2025-04-30T06:51:00.000Z</time>
</trkpt>
<trkpt lat="45.9027850" lon="10.2664090">
	<ele>1077.80</ele>
	<time>2025-04-30T06:51:01.000Z</time>
</trkpt>
<trkpt lat="45.9027910" lon="10.2664180">
	<ele>1078.00</ele>
	<time>2025-04-30T06:51:02.000Z</time>
</trkpt>
<trkpt lat="45.9027940" lon="10.2664260">
	<ele>1078.20</ele>
	<time>2025-04-30T06:51:03.000Z</time>
</trkpt>
<trkpt lat="45.9028020" lon="10.2664370">
	<ele>1078.20</ele>
	<time>2025-04-30T06:51:04.000Z</time>
</trkpt>
<trkpt lat="45.9028090" lon="10.2664490">
	<ele>1078.40</ele>
	<time>2025-04-30T06:51:05.000Z</time>
</trkpt>
<trkpt lat="45.9028130" lon="10.2664540">
	<ele>1078.40</ele>
	<time>2025-04-30T06:51:06.000Z</time>
</trkpt>
<trkpt lat="45.9028180" lon="10.2664600">
	<ele>1078.60</ele>
	<time>2025-04-30T06:51:07.000Z</time>
</trkpt>
<trkpt lat="45.9028220" lon="10.2664640">
	<ele>1078.80</ele>
	<time>2025-04-30T06:51:08.000Z</time>
</trkpt>
<trkpt lat="45.9028270" lon="10.2664680">
	<ele>1079.00</ele>
	<time>2025-04-30T06:51:09.000Z</time>
</trkpt>
<trkpt lat="45.9028300" lon="10.2664730">
	<ele>1079.20</ele>
	<time>2025-04-30T06:51:10.000Z</time>
</trkpt>
<trkpt lat="45.9028380" lon="10.2664730">
	<ele>1079.20</ele>
	<time>2025-04-30T06:51:11.000Z</time>
</trkpt>
<trkpt lat="45.9028470" lon="10.2664770">
	<ele>1079.40</ele>
	<time>2025-04-30T06:51:12.000Z</time>
</trkpt>
<trkpt lat="45.9028500" lon="10.2664820">
	<ele>1079.40</ele>
	<time>2025-04-30T06:51:13.000Z</time>
</trkpt>
<trkpt lat="45.9028530" lon="10.2664880">
	<ele>1079.80</ele>
	<time>2025-04-30T06:51:14.000Z</time>
</trkpt>
<trkpt lat="45.9028600" lon="10.2664910">
	<ele>1079.80</ele>
	<time>2025-04-30T06:51:15.000Z</time>
</trkpt>
<trkpt lat="45.9028660" lon="10.2664970">
	<ele>1080.00</ele>
	<time>2025-04-30T06:51:16.000Z</time>
</trkpt>
<trkpt lat="45.9028720" lon="10.2665020">
	<ele>1080.00</ele>
	<time>2025-04-30T06:51:17.000Z</time>
</trkpt>
<trkpt lat="45.9028760" lon="10.2665120">
	<ele>1080.20</ele>
	<time>2025-04-30T06:51:18.000Z</time>
</trkpt>
<trkpt lat="45.9028810" lon="10.2665240">
	<ele>1080.40</ele>
	<time>2025-04-30T06:51:19.000Z</time>
</trkpt>
<trkpt lat="45.9028850" lon="10.2665360">
	<ele>1080.40</ele>
	<time>2025-04-30T06:51:20.000Z</time>
</trkpt>
<trkpt lat="45.9028860" lon="10.2665500">
	<ele>1080.60</ele>
	<time>2025-04-30T06:51:21.000Z</time>
</trkpt>
<trkpt lat="45.9028930" lon="10.2665610">
	<ele>1080.80</ele>
	<time>2025-04-30T06:51:22.000Z</time>
</trkpt>
<trkpt lat="45.9028970" lon="10.2665740">
	<ele>1081.00</ele>
	<time>2025-04-30T06:51:23.000Z</time>
</trkpt>
<trkpt lat="45.9029010" lon="10.2665850">
	<ele>1081.20</ele>
	<time>2025-04-30T06:51:24.000Z</time>
</trkpt>
<trkpt lat="45.9029000" lon="10.2665950">
	<ele>1081.40</ele>
	<time>2025-04-30T06:51:25.000Z</time>
</trkpt>
<trkpt lat="45.9028970" lon="10.2666110">
	<ele>1081.40</ele>
	<time>2025-04-30T06:51:26.000Z</time>
</trkpt>
<trkpt lat="45.9028960" lon="10.2666250">
	<ele>1081.60</ele>
	<time>2025-04-30T06:51:27.000Z</time>
</trkpt>
<trkpt lat="45.9028940" lon="10.2666370">
	<ele>1081.60</ele>
	<time>2025-04-30T06:51:28.000Z</time>
</trkpt>
<trkpt lat="45.9028930" lon="10.2666510">
	<ele>1081.80</ele>
	<time>2025-04-30T06:51:29.000Z</time>
</trkpt>
<trkpt lat="45.9028930" lon="10.2666650">
	<ele>1081.80</ele>
	<time>2025-04-30T06:51:30.000Z</time>
</trkpt>
<trkpt lat="45.9028890" lon="10.2666820">
	<ele>1082.00</ele>
	<time>2025-04-30T06:51:31.000Z</time>
</trkpt>
<trkpt lat="45.9028860" lon="10.2666980">
	<ele>1082.00</ele>
	<time>2025-04-30T06:51:32.000Z</time>
</trkpt>
<trkpt lat="45.9028830" lon="10.2667140">
	<ele>1082.20</ele>
	<time>2025-04-30T06:51:33.000Z</time>
</trkpt>
<trkpt lat="45.9028850" lon="10.2667260">
	<ele>1082.40</ele>
	<time>2025-04-30T06:51:34.000Z</time>
</trkpt>
<trkpt lat="45.9028880" lon="10.2667370">
	<ele>1082.60</ele>
	<time>2025-04-30T06:51:35.000Z</time>
</trkpt>
<trkpt lat="45.9028890" lon="10.2667480">
	<ele>1082.60</ele>
	<time>2025-04-30T06:51:36.000Z</time>
</trkpt>
<trkpt lat="45.9028930" lon="10.2667560">
	<ele>1082.80</ele>
	<time>2025-04-30T06:51:37.000Z</time>
</trkpt>
<trkpt lat="45.9028990" lon="10.2667660">
	<ele>1082.80</ele>
	<time>2025-04-30T06:51:38.000Z</time>
</trkpt>
<trkpt lat="45.9029030" lon="10.2667760">
	<ele>1083.00</ele>
	<time>2025-04-30T06:51:39.000Z</time>
</trkpt>
<trkpt lat="45.9029040" lon="10.2667890">
	<ele>1083.20</ele>
	<time>2025-04-30T06:51:40.000Z</time>
</trkpt>
<trkpt lat="45.9029040" lon="10.2668010">
	<ele>1083.40</ele>
	<time>2025-04-30T06:51:41.000Z</time>
</trkpt>
<trkpt lat="45.9029030" lon="10.2668160">
	<ele>1083.40</ele>
	<time>2025-04-30T06:51:42.000Z</time>
</trkpt>
<trkpt lat="45.9029050" lon="10.2668290">
	<ele>1083.60</ele>
	<time>2025-04-30T06:51:43.000Z</time>
</trkpt>
<trkpt lat="45.9029090" lon="10.2668410">
	<ele>1083.60</ele>
	<time>2025-04-30T06:51:44.000Z</time>
</trkpt>
<trkpt lat="45.9029170" lon="10.2668490">
	<ele>1084.00</ele>
	<time>2025-04-30T06:51:45.000Z</time>
</trkpt>
<trkpt lat="45.9029180" lon="10.2668620">
	<ele>1084.20</ele>
	<time>2025-04-30T06:51:46.000Z</time>
</trkpt>
<trkpt lat="45.9029190" lon="10.2668760">
	<ele>1084.20</ele>
	<time>2025-04-30T06:51:47.000Z</time>
</trkpt>
<trkpt lat="45.9029210" lon="10.2668910">
	<ele>1084.40</ele>
	<time>2025-04-30T06:51:48.000Z</time>
</trkpt>
<trkpt lat="45.9029210" lon="10.2669040">
	<ele>1084.60</ele>
	<time>2025-04-30T06:51:49.000Z</time>
</trkpt>
<trkpt lat="45.9029260" lon="10.2669150">
	<ele>1084.60</ele>
	<time>2025-04-30T06:51:50.000Z</time>
</trkpt>
<trkpt lat="45.9029260" lon="10.2669330">
	<ele>1084.60</ele>
	<time>2025-04-30T06:51:51.000Z</time>
</trkpt>
<trkpt lat="45.9029210" lon="10.2669490">
	<ele>1084.60</ele>
	<time>2025-04-30T06:51:52.000Z</time>
</trkpt>
<trkpt lat="45.9029140" lon="10.2669640">
	<ele>1084.60</ele>
	<time>2025-04-30T06:51:53.000Z</time>
</trkpt>
<trkpt lat="45.9029080" lon="10.2669790">
	<ele>1084.80</ele>
	<time>2025-04-30T06:51:54.000Z</time>
</trkpt>
<trkpt lat="45.9029080" lon="10.2669860">
	<ele>1085.00</ele>
	<time>2025-04-30T06:51:55.000Z</time>
</trkpt>
<trkpt lat="45.9029050" lon="10.2669870">
	<ele>1085.00</ele>
	<time>2025-04-30T06:51:56.000Z</time>
</trkpt>
<trkpt lat="45.9029060" lon="10.2669960">
	<ele>1085.20</ele>
	<time>2025-04-30T06:51:57.000Z</time>
</trkpt>
<trkpt lat="45.9029040" lon="10.2670040">
	<ele>1085.20</ele>
	<time>2025-04-30T06:51:58.000Z</time>
</trkpt>
<trkpt lat="45.9029060" lon="10.2670090">
	<ele>1085.60</ele>
	<time>2025-04-30T06:51:59.000Z</time>
</trkpt>
<trkpt lat="45.9029080" lon="10.2670110">
	<ele>1085.80</ele>
	<time>2025-04-30T06:52:00.000Z</time>
</trkpt>
<trkpt lat="45.9029100" lon="10.2670120">
	<ele>1085.80</ele>
	<time>2025-04-30T06:52:01.000Z</time>
</trkpt>
<trkpt lat="45.9029110" lon="10.2670120">
	<ele>1085.80</ele>
	<time>2025-04-30T06:52:02.000Z</time>
</trkpt>
<trkpt lat="45.9029110" lon="10.2670130">
	<ele>1086.00</ele>
	<time>2025-04-30T06:52:03.000Z</time>
</trkpt>
<trkpt lat="45.9029130" lon="10.2670130">
	<ele>1086.00</ele>
	<time>2025-04-30T06:52:04.000Z</time>
</trkpt>
<trkpt lat="45.9029100" lon="10.2670090">
	<ele>1086.00</ele>
	<time>2025-04-30T06:52:05.000Z</time>
</trkpt>
<trkpt lat="45.9029090" lon="10.2670080">
	<ele>1086.00</ele>
	<time>2025-04-30T06:52:06.000Z</time>
</trkpt>
<trkpt lat="45.9029080" lon="10.2670090">
	<ele>1086.00</ele>
	<time>2025-04-30T06:52:07.000Z</time>
</trkpt>
<trkpt lat="45.9029070" lon="10.2670110">
	<ele>1086.40</ele>
	<time>2025-04-30T06:52:08.000Z</time>
</trkpt>
<trkpt lat="45.9029060" lon="10.2670110">
	<ele>1086.40</ele>
	<time>2025-04-30T06:52:09.000Z</time>
</trkpt>
<trkpt lat="45.9029070" lon="10.2670100">
	<ele>1086.60</ele>
	<time>2025-04-30T06:52:10.000Z</time>
</trkpt>
<trkpt lat="45.9029080" lon="10.2670110">
	<ele>1086.20</ele>
	<time>2025-04-30T06:52:11.000Z</time>
</trkpt>
<trkpt lat="45.9029070" lon="10.2670120">
	<ele>1086.00</ele>
	<time>2025-04-30T06:52:12.000Z</time>
</trkpt>
<trkpt lat="45.9029090" lon="10.2670120">
	<ele>1086.20</ele>
	<time>2025-04-30T06:52:13.000Z</time>
</trkpt>
<trkpt lat="45.9029100" lon="10.2670110">
	<ele>1086.20</ele>
	<time>2025-04-30T06:52:14.000Z</time>
</trkpt>
<trkpt lat="45.9029090" lon="10.2670120">
	<ele>1086.20</ele>
	<time>2025-04-30T06:52:15.000Z</time>
</trkpt>
<trkpt lat="45.9029090" lon="10.2670120">
	<ele>1086.00</ele>
	<time>2025-04-30T06:52:16.000Z</time>
</trkpt>
<trkpt lat="45.9029090" lon="10.2670120">
	<ele>1086.00</ele>
	<time>2025-04-30T06:52:17.000Z</time>
</trkpt>
<trkpt lat="45.9029090" lon="10.2670120">
	<ele>1085.80</ele>
	<time>2025-04-30T06:52:18.000Z</time>
</trkpt>
<trkpt lat="45.9029090" lon="10.2670120">
	<ele>1085.80</ele>
	<time>2025-04-30T06:52:19.000Z</time>
</trkpt>
<trkpt lat="45.9029090" lon="10.2670120">
	<ele>1085.80</ele>
	<time>2025-04-30T06:52:20.000Z</time>
</trkpt>
<trkpt lat="45.9029090" lon="10.2670120">
	<ele>1085.80</ele>
	<time>2025-04-30T06:52:21.000Z</time>
</trkpt>
<trkpt lat="45.9029090" lon="10.2670120">
	<ele>1085.80</ele>
	<time>2025-04-30T06:52:22.000Z</time>
</trkpt>
<trkpt lat="45.9029090" lon="10.2670120">
	<ele>1086.20</ele>
	<time>2025-04-30T06:52:23.000Z</time>
</trkpt>
<trkpt lat="45.9029090" lon="10.2670120">
	<ele>1086.40</ele>
	<time>2025-04-30T06:52:24.000Z</time>
</trkpt>
<trkpt lat="45.9029090" lon="10.2670120">
	<ele>1086.60</ele>
	<time>2025-04-30T06:52:25.000Z</time>
</trkpt>
<trkpt lat="45.9029090" lon="10.2670120">
	<ele>1086.80</ele>
	<time>2025-04-30T06:52:26.000Z</time>
</trkpt>
<trkpt lat="45.9029090" lon="10.2670120">
	<ele>1086.80</ele>
	<time>2025-04-30T06:52:27.000Z</time>
</trkpt>
<trkpt lat="45.9029090" lon="10.2670120">
	<ele>1086.80</ele>
	<time>2025-04-30T06:52:28.000Z</time>
</trkpt>
<trkpt lat="45.9029090" lon="10.2670120">
	<ele>1086.80</ele>
	<time>2025-04-30T06:52:29.000Z</time>
</trkpt>
<trkpt lat="45.9029080" lon="10.2670120">
	<ele>1087.00</ele>
	<time>2025-04-30T06:52:30.000Z</time>
</trkpt>
<trkpt lat="45.9029080" lon="10.2670120">
	<ele>1087.00</ele>
	<time>2025-04-30T06:52:31.000Z</time>
</trkpt>
<trkpt lat="45.9029080" lon="10.2670120">
	<ele>1087.00</ele>
	<time>2025-04-30T06:52:32.000Z</time>
</trkpt>
<trkpt lat="45.9029070" lon="10.2670120">
	<ele>1087.00</ele>
	<time>2025-04-30T06:52:33.000Z</time>
</trkpt>
<trkpt lat="45.9029070" lon="10.2670120">
	<ele>1087.20</ele>
	<time>2025-04-30T06:52:34.000Z</time>
</trkpt>
<trkpt lat="45.9029070" lon="10.2670130">
	<ele>1087.20</ele>
	<time>2025-04-30T06:52:35.000Z</time>
</trkpt>
<trkpt lat="45.9029070" lon="10.2670160">
	<ele>1087.00</ele>
	<time>2025-04-30T06:52:36.000Z</time>
</trkpt>
<trkpt lat="45.9029030" lon="10.2670210">
	<ele>1087.00</ele>
	<time>2025-04-30T06:52:37.000Z</time>
</trkpt>
<trkpt lat="45.9029040" lon="10.2670240">
	<ele>1087.00</ele>
	<time>2025-04-30T06:52:38.000Z</time>
</trkpt>
<trkpt lat="45.9029070" lon="10.2670260">
	<ele>1087.00</ele>
	<time>2025-04-30T06:52:39.000Z</time>
</trkpt>
<trkpt lat="45.9029080" lon="10.2670230">
	<ele>1087.00</ele>
	<time>2025-04-30T06:52:40.000Z</time>
</trkpt>
<trkpt lat="45.9029080" lon="10.2670160">
	<ele>1086.80</ele>
	<time>2025-04-30T06:52:41.000Z</time>
</trkpt>
<trkpt lat="45.9029050" lon="10.2670130">
	<ele>1086.60</ele>
	<time>2025-04-30T06:52:42.000Z</time>
</trkpt>
<trkpt lat="45.9029050" lon="10.2670140">
	<ele>1086.60</ele>
	<time>2025-04-30T06:52:43.000Z</time>
</trkpt>
<trkpt lat="45.9028990" lon="10.2670180">
	<ele>1086.40</ele>
	<time>2025-04-30T06:52:44.000Z</time>
</trkpt>
<trkpt lat="45.9029000" lon="10.2670260">
	<ele>1086.40</ele>
	<time>2025-04-30T06:52:45.000Z</time>
</trkpt>
<trkpt lat="45.9029010" lon="10.2670270">
	<ele>1086.40</ele>
	<time>2025-04-30T06:52:46.000Z</time>
</trkpt>
<trkpt lat="45.9028990" lon="10.2670270">
	<ele>1086.40</ele>
	<time>2025-04-30T06:52:47.000Z</time>
</trkpt>
<trkpt lat="45.9029000" lon="10.2670280">
	<ele>1086.40</ele>
	<time>2025-04-30T06:52:48.000Z</time>
</trkpt>
<trkpt lat="45.9029000" lon="10.2670290">
	<ele>1086.20</ele>
	<time>2025-04-30T06:52:49.000Z</time>
</trkpt>
<trkpt lat="45.9029000" lon="10.2670290">
	<ele>1086.20</ele>
	<time>2025-04-30T06:52:50.000Z</time>
</trkpt>
<trkpt lat="45.9029000" lon="10.2670300">
	<ele>1086.20</ele>
	<time>2025-04-30T06:52:51.000Z</time>
</trkpt>
<trkpt lat="45.9028970" lon="10.2670320">
	<ele>1086.20</ele>
	<time>2025-04-30T06:52:52.000Z</time>
</trkpt>
<trkpt lat="45.9028890" lon="10.2670400">
	<ele>1086.00</ele>
	<time>2025-04-30T06:52:53.000Z</time>
</trkpt>
<trkpt lat="45.9028830" lon="10.2670420">
	<ele>1086.00</ele>
	<time>2025-04-30T06:52:54.000Z</time>
</trkpt>
<trkpt lat="45.9028750" lon="10.2670420">
	<ele>1086.00</ele>
	<time>2025-04-30T06:52:55.000Z</time>
</trkpt>
<trkpt lat="45.9028700" lon="10.2670390">
	<ele>1086.00</ele>
	<time>2025-04-30T06:52:56.000Z</time>
</trkpt>
<trkpt lat="45.9028660" lon="10.2670430">
	<ele>1086.00</ele>
	<time>2025-04-30T06:52:57.000Z</time>
</trkpt>
<trkpt lat="45.9028660" lon="10.2670480">
	<ele>1086.20</ele>
	<time>2025-04-30T06:52:58.000Z</time>
</trkpt>
<trkpt lat="45.9028600" lon="10.2670470">
	<ele>1086.20</ele>
	<time>2025-04-30T06:52:59.000Z</time>
</trkpt>
<trkpt lat="45.9028530" lon="10.2670490">
	<ele>1086.40</ele>
	<time>2025-04-30T06:53:00.000Z</time>
</trkpt>
<trkpt lat="45.9028470" lon="10.2670490">
	<ele>1086.40</ele>
	<time>2025-04-30T06:53:01.000Z</time>
</trkpt>
<trkpt lat="45.9028340" lon="10.2670410">
	<ele>1086.60</ele>
	<time>2025-04-30T06:53:02.000Z</time>
</trkpt>
<trkpt lat="45.9028230" lon="10.2670350">
	<ele>1086.80</ele>
	<time>2025-04-30T06:53:03.000Z</time>
</trkpt>
<trkpt lat="45.9028150" lon="10.2670330">
	<ele>1086.80</ele>
	<time>2025-04-30T06:53:04.000Z</time>
</trkpt>
<trkpt lat="45.9028080" lon="10.2670280">
	<ele>1087.00</ele>
	<time>2025-04-30T06:53:05.000Z</time>
</trkpt>
<trkpt lat="45.9028070" lon="10.2670220">
	<ele>1087.00</ele>
	<time>2025-04-30T06:53:06.000Z</time>
</trkpt>
<trkpt lat="45.9028090" lon="10.2670180">
	<ele>1087.20</ele>
	<time>2025-04-30T06:53:07.000Z</time>
</trkpt>
<trkpt lat="45.9028060" lon="10.2670230">
	<ele>1087.60</ele>
	<time>2025-04-30T06:53:08.000Z</time>
</trkpt>
<trkpt lat="45.9027990" lon="10.2670280">
	<ele>1087.80</ele>
	<time>2025-04-30T06:53:09.000Z</time>
</trkpt>
<trkpt lat="45.9027930" lon="10.2670300">
	<ele>1088.00</ele>
	<time>2025-04-30T06:53:10.000Z</time>
</trkpt>
<trkpt lat="45.9027870" lon="10.2670290">
	<ele>1088.00</ele>
	<time>2025-04-30T06:53:11.000Z</time>
</trkpt>
<trkpt lat="45.9027770" lon="10.2670320">
	<ele>1088.20</ele>
	<time>2025-04-30T06:53:12.000Z</time>
</trkpt>
<trkpt lat="45.9027680" lon="10.2670310">
	<ele>1088.40</ele>
	<time>2025-04-30T06:53:13.000Z</time>
</trkpt>
<trkpt lat="45.9027620" lon="10.2670300">
	<ele>1088.60</ele>
	<time>2025-04-30T06:53:14.000Z</time>
</trkpt>
<trkpt lat="45.9027640" lon="10.2670280">
	<ele>1088.80</ele>
	<time>2025-04-30T06:53:15.000Z</time>
</trkpt>
<trkpt lat="45.9027570" lon="10.2670220">
	<ele>1089.00</ele>
	<time>2025-04-30T06:53:16.000Z</time>
</trkpt>
<trkpt lat="45.9027450" lon="10.2670160">
	<ele>1089.00</ele>
	<time>2025-04-30T06:53:17.000Z</time>
</trkpt>
<trkpt lat="45.9027360" lon="10.2670070">
	<ele>1089.40</ele>
	<time>2025-04-30T06:53:18.000Z</time>
</trkpt>
<trkpt lat="45.9027190" lon="10.2670000">
	<ele>1089.60</ele>
	<time>2025-04-30T06:53:19.000Z</time>
</trkpt>
<trkpt lat="45.9027090" lon="10.2669970">
	<ele>1089.80</ele>
	<time>2025-04-30T06:53:20.000Z</time>
</trkpt>
<trkpt lat="45.9026990" lon="10.2669980">
	<ele>1090.20</ele>
	<time>2025-04-30T06:53:21.000Z</time>
</trkpt>
<trkpt lat="45.9026910" lon="10.2669990">
	<ele>1090.40</ele>
	<time>2025-04-30T06:53:22.000Z</time>
</trkpt>
<trkpt lat="45.9026850" lon="10.2669970">
	<ele>1090.60</ele>
	<time>2025-04-30T06:53:23.000Z</time>
</trkpt>
<trkpt lat="45.9026820" lon="10.2669720">
	<ele>1090.60</ele>
	<time>2025-04-30T06:53:24.000Z</time>
</trkpt>
<trkpt lat="45.9026760" lon="10.2669660">
	<ele>1090.80</ele>
	<time>2025-04-30T06:53:25.000Z</time>
</trkpt>
<trkpt lat="45.9026660" lon="10.2669660">
	<ele>1091.00</ele>
	<time>2025-04-30T06:53:26.000Z</time>
</trkpt>
<trkpt lat="45.9026580" lon="10.2669660">
	<ele>1091.00</ele>
	<time>2025-04-30T06:53:27.000Z</time>
</trkpt>
<trkpt lat="45.9026490" lon="10.2669730">
	<ele>1091.00</ele>
	<time>2025-04-30T06:53:28.000Z</time>
</trkpt>
<trkpt lat="45.9026390" lon="10.2669700">
	<ele>1091.20</ele>
	<time>2025-04-30T06:53:29.000Z</time>
</trkpt>
<trkpt lat="45.9026370" lon="10.2669750">
	<ele>1091.40</ele>
	<time>2025-04-30T06:53:30.000Z</time>
</trkpt>
<trkpt lat="45.9026270" lon="10.2669680">
	<ele>1091.60</ele>
	<time>2025-04-30T06:53:31.000Z</time>
</trkpt>
<trkpt lat="45.9026140" lon="10.2669660">
	<ele>1091.80</ele>
	<time>2025-04-30T06:53:32.000Z</time>
</trkpt>
<trkpt lat="45.9025990" lon="10.2669630">
	<ele>1092.00</ele>
	<time>2025-04-30T06:53:33.000Z</time>
</trkpt>
<trkpt lat="45.9025990" lon="10.2669740">
	<ele>1092.00</ele>
	<time>2025-04-30T06:53:34.000Z</time>
</trkpt>
<trkpt lat="45.9025910" lon="10.2669740">
	<ele>1092.20</ele>
	<time>2025-04-30T06:53:35.000Z</time>
</trkpt>
<trkpt lat="45.9025830" lon="10.2669750">
	<ele>1092.40</ele>
	<time>2025-04-30T06:53:36.000Z</time>
</trkpt>
<trkpt lat="45.9025750" lon="10.2669750">
	<ele>1092.60</ele>
	<time>2025-04-30T06:53:37.000Z</time>
</trkpt>
<trkpt lat="45.9025680" lon="10.2669760">
	<ele>1092.80</ele>
	<time>2025-04-30T06:53:38.000Z</time>
</trkpt>
<trkpt lat="45.9025600" lon="10.2669770">
	<ele>1092.80</ele>
	<time>2025-04-30T06:53:39.000Z</time>
</trkpt>
<trkpt lat="45.9025530" lon="10.2669810">
	<ele>1093.00</ele>
	<time>2025-04-30T06:53:40.000Z</time>
</trkpt>
<trkpt lat="45.9025470" lon="10.2669860">
	<ele>1093.00</ele>
	<time>2025-04-30T06:53:41.000Z</time>
</trkpt>
<trkpt lat="45.9025400" lon="10.2669880">
	<ele>1093.20</ele>
	<time>2025-04-30T06:53:42.000Z</time>
</trkpt>
<trkpt lat="45.9025340" lon="10.2669860">
	<ele>1093.40</ele>
	<time>2025-04-30T06:53:43.000Z</time>
</trkpt>
<trkpt lat="45.9025280" lon="10.2669830">
	<ele>1093.60</ele>
	<time>2025-04-30T06:53:44.000Z</time>
</trkpt>
<trkpt lat="45.9025220" lon="10.2669870">
	<ele>1093.60</ele>
	<time>2025-04-30T06:53:45.000Z</time>
</trkpt>
<trkpt lat="45.9025120" lon="10.2669910">
	<ele>1093.80</ele>
	<time>2025-04-30T06:53:46.000Z</time>
</trkpt>
<trkpt lat="45.9025010" lon="10.2669940">
	<ele>1094.00</ele>
	<time>2025-04-30T06:53:47.000Z</time>
</trkpt>
<trkpt lat="45.9024850" lon="10.2670020">
	<ele>1094.00</ele>
	<time>2025-04-30T06:53:48.000Z</time>
</trkpt>
<trkpt lat="45.9024710" lon="10.2670070">
	<ele>1094.20</ele>
	<time>2025-04-30T06:53:49.000Z</time>
</trkpt>
<trkpt lat="45.9024640" lon="10.2670140">
	<ele>1094.40</ele>
	<time>2025-04-30T06:53:50.000Z</time>
</trkpt>
<trkpt lat="45.9024540" lon="10.2670190">
	<ele>1094.60</ele>
	<time>2025-04-30T06:53:51.000Z</time>
</trkpt>
<trkpt lat="45.9024450" lon="10.2670230">
	<ele>1094.80</ele>
	<time>2025-04-30T06:53:52.000Z</time>
</trkpt>
<trkpt lat="45.9024390" lon="10.2670390">
	<ele>1095.00</ele>
	<time>2025-04-30T06:53:53.000Z</time>
</trkpt>
<trkpt lat="45.9024350" lon="10.2670480">
	<ele>1095.20</ele>
	<time>2025-04-30T06:53:54.000Z</time>
</trkpt>
<trkpt lat="45.9024300" lon="10.2670530">
	<ele>1095.40</ele>
	<time>2025-04-30T06:53:55.000Z</time>
</trkpt>
<trkpt lat="45.9024270" lon="10.2670610">
	<ele>1095.60</ele>
	<time>2025-04-30T06:53:56.000Z</time>
</trkpt>
<trkpt lat="45.9024210" lon="10.2670630">
	<ele>1095.60</ele>
	<time>2025-04-30T06:53:57.000Z</time>
</trkpt>
<trkpt lat="45.9024080" lon="10.2670520">
	<ele>1095.80</ele>
	<time>2025-04-30T06:53:58.000Z</time>
</trkpt>
<trkpt lat="45.9023970" lon="10.2670470">
	<ele>1096.00</ele>
	<time>2025-04-30T06:53:59.000Z</time>
</trkpt>
<trkpt lat="45.9023840" lon="10.2670490">
	<ele>1096.20</ele>
	<time>2025-04-30T06:54:00.000Z</time>
</trkpt>
<trkpt lat="45.9023740" lon="10.2670450">
	<ele>1096.40</ele>
	<time>2025-04-30T06:54:01.000Z</time>
</trkpt>
<trkpt lat="45.9023610" lon="10.2670470">
	<ele>1096.60</ele>
	<time>2025-04-30T06:54:02.000Z</time>
</trkpt>
<trkpt lat="45.9023520" lon="10.2670490">
	<ele>1096.60</ele>
	<time>2025-04-30T06:54:03.000Z</time>
</trkpt>
<trkpt lat="45.9023460" lon="10.2670510">
	<ele>1096.80</ele>
	<time>2025-04-30T06:54:04.000Z</time>
</trkpt>
<trkpt lat="45.9023400" lon="10.2670410">
	<ele>1097.00</ele>
	<time>2025-04-30T06:54:05.000Z</time>
</trkpt>
<trkpt lat="45.9023330" lon="10.2670380">
	<ele>1097.20</ele>
	<time>2025-04-30T06:54:06.000Z</time>
</trkpt>
<trkpt lat="45.9023240" lon="10.2670350">
	<ele>1097.40</ele>
	<time>2025-04-30T06:54:07.000Z</time>
</trkpt>
<trkpt lat="45.9023140" lon="10.2670290">
	<ele>1097.60</ele>
	<time>2025-04-30T06:54:08.000Z</time>
</trkpt>
<trkpt lat="45.9023040" lon="10.2670250">
	<ele>1097.60</ele>
	<time>2025-04-30T06:54:09.000Z</time>
</trkpt>
<trkpt lat="45.9022980" lon="10.2670270">
	<ele>1097.80</ele>
	<time>2025-04-30T06:54:10.000Z</time>
</trkpt>
<trkpt lat="45.9022940" lon="10.2670320">
	<ele>1098.20</ele>
	<time>2025-04-30T06:54:11.000Z</time>
</trkpt>
<trkpt lat="45.9022900" lon="10.2670370">
	<ele>1098.40</ele>
	<time>2025-04-30T06:54:12.000Z</time>
</trkpt>
<trkpt lat="45.9022840" lon="10.2670380">
	<ele>1098.60</ele>
	<time>2025-04-30T06:54:13.000Z</time>
</trkpt>
<trkpt lat="45.9022760" lon="10.2670450">
	<ele>1098.60</ele>
	<time>2025-04-30T06:54:14.000Z</time>
</trkpt>
<trkpt lat="45.9022710" lon="10.2670520">
	<ele>1098.80</ele>
	<time>2025-04-30T06:54:15.000Z</time>
</trkpt>
<trkpt lat="45.9022650" lon="10.2670580">
	<ele>1099.00</ele>
	<time>2025-04-30T06:54:16.000Z</time>
</trkpt>
<trkpt lat="45.9022590" lon="10.2670600">
	<ele>1099.20</ele>
	<time>2025-04-30T06:54:17.000Z</time>
</trkpt>
<trkpt lat="45.9022550" lon="10.2670610">
	<ele>1099.40</ele>
	<time>2025-04-30T06:54:18.000Z</time>
</trkpt>
<trkpt lat="45.9022530" lon="10.2670620">
	<ele>1099.60</ele>
	<time>2025-04-30T06:54:19.000Z</time>
</trkpt>
<trkpt lat="45.9022420" lon="10.2670550">
	<ele>1099.80</ele>
	<time>2025-04-30T06:54:20.000Z</time>
</trkpt>
<trkpt lat="45.9022360" lon="10.2670550">
	<ele>1099.80</ele>
	<time>2025-04-30T06:54:21.000Z</time>
</trkpt>
<trkpt lat="45.9022280" lon="10.2670540">
	<ele>1100.20</ele>
	<time>2025-04-30T06:54:22.000Z</time>
</trkpt>
<trkpt lat="45.9022260" lon="10.2670560">
	<ele>1100.40</ele>
	<time>2025-04-30T06:54:23.000Z</time>
</trkpt>
<trkpt lat="45.9022310" lon="10.2670590">
	<ele>1100.40</ele>
	<time>2025-04-30T06:54:24.000Z</time>
</trkpt>
<trkpt lat="45.9022300" lon="10.2670630">
	<ele>1100.40</ele>
	<time>2025-04-30T06:54:25.000Z</time>
</trkpt>
<trkpt lat="45.9022220" lon="10.2670580">
	<ele>1100.80</ele>
	<time>2025-04-30T06:54:26.000Z</time>
</trkpt>
<trkpt lat="45.9022210" lon="10.2670590">
	<ele>1101.00</ele>
	<time>2025-04-30T06:54:27.000Z</time>
</trkpt>
<trkpt lat="45.9022210" lon="10.2670620">
	<ele>1101.20</ele>
	<time>2025-04-30T06:54:28.000Z</time>
</trkpt>
<trkpt lat="45.9022100" lon="10.2670440">
	<ele>1101.20</ele>
	<time>2025-04-30T06:54:29.000Z</time>
</trkpt>
<trkpt lat="45.9022050" lon="10.2670410">
	<ele>1101.60</ele>
	<time>2025-04-30T06:54:30.000Z</time>
</trkpt>
<trkpt lat="45.9022020" lon="10.2670410">
	<ele>1102.00</ele>
	<time>2025-04-30T06:54:31.000Z</time>
</trkpt>
<trkpt lat="45.9021980" lon="10.2670390">
	<ele>1102.00</ele>
	<time>2025-04-30T06:54:32.000Z</time>
</trkpt>
<trkpt lat="45.9021870" lon="10.2670320">
	<ele>1102.20</ele>
	<time>2025-04-30T06:54:33.000Z</time>
</trkpt>
<trkpt lat="45.9021770" lon="10.2670250">
	<ele>1102.20</ele>
	<time>2025-04-30T06:54:34.000Z</time>
</trkpt>
<trkpt lat="45.9021720" lon="10.2670150">
	<ele>1102.40</ele>
	<time>2025-04-30T06:54:35.000Z</time>
</trkpt>
<trkpt lat="45.9021670" lon="10.2670100">
	<ele>1102.40</ele>
	<time>2025-04-30T06:54:36.000Z</time>
</trkpt>
<trkpt lat="45.9021620" lon="10.2670030">
	<ele>1102.60</ele>
	<time>2025-04-30T06:54:37.000Z</time>
</trkpt>
<trkpt lat="45.9021620" lon="10.2669990">
	<ele>1102.80</ele>
	<time>2025-04-30T06:54:38.000Z</time>
</trkpt>
<trkpt lat="45.9021620" lon="10.2669970">
	<ele>1103.00</ele>
	<time>2025-04-30T06:54:39.000Z</time>
</trkpt>
<trkpt lat="45.9021590" lon="10.2669960">
	<ele>1103.20</ele>
	<time>2025-04-30T06:54:40.000Z</time>
</trkpt>
<trkpt lat="45.9021520" lon="10.2669910">
	<ele>1103.40</ele>
	<time>2025-04-30T06:54:41.000Z</time>
</trkpt>
<trkpt lat="45.9021480" lon="10.2669870">
	<ele>1103.60</ele>
	<time>2025-04-30T06:54:42.000Z</time>
</trkpt>
<trkpt lat="45.9021450" lon="10.2669800">
	<ele>1104.00</ele>
	<time>2025-04-30T06:54:43.000Z</time>
</trkpt>
<trkpt lat="45.9021440" lon="10.2669770">
	<ele>1104.20</ele>
	<time>2025-04-30T06:54:44.000Z</time>
</trkpt>
<trkpt lat="45.9021390" lon="10.2669760">
	<ele>1104.20</ele>
	<time>2025-04-30T06:54:45.000Z</time>
</trkpt>
<trkpt lat="45.9021400" lon="10.2669780">
	<ele>1104.40</ele>
	<time>2025-04-30T06:54:46.000Z</time>
</trkpt>
<trkpt lat="45.9021410" lon="10.2669780">
	<ele>1104.60</ele>
	<time>2025-04-30T06:54:47.000Z</time>
</trkpt>
<trkpt lat="45.9021400" lon="10.2669830">
	<ele>1104.80</ele>
	<time>2025-04-30T06:54:48.000Z</time>
</trkpt>
<trkpt lat="45.9021390" lon="10.2669790">
	<ele>1105.00</ele>
	<time>2025-04-30T06:54:49.000Z</time>
</trkpt>
<trkpt lat="45.9021350" lon="10.2669770">
	<ele>1105.20</ele>
	<time>2025-04-30T06:54:50.000Z</time>
</trkpt>
<trkpt lat="45.9021250" lon="10.2669730">
	<ele>1105.40</ele>
	<time>2025-04-30T06:54:51.000Z</time>
</trkpt>
<trkpt lat="45.9021170" lon="10.2669690">
	<ele>1105.60</ele>
	<time>2025-04-30T06:54:52.000Z</time>
</trkpt>
<trkpt lat="45.9021100" lon="10.2669700">
	<ele>1105.60</ele>
	<time>2025-04-30T06:54:53.000Z</time>
</trkpt>
<trkpt lat="45.9021030" lon="10.2669700">
	<ele>1105.80</ele>
	<time>2025-04-30T06:54:54.000Z</time>
</trkpt>
<trkpt lat="45.9020950" lon="10.2669680">
	<ele>1105.80</ele>
	<time>2025-04-30T06:54:55.000Z</time>
</trkpt>
<trkpt lat="45.9020860" lon="10.2669610">
	<ele>1106.00</ele>
	<time>2025-04-30T06:54:56.000Z</time>
</trkpt>
<trkpt lat="45.9020770" lon="10.2669520">
	<ele>1106.20</ele>
	<time>2025-04-30T06:54:57.000Z</time>
</trkpt>
<trkpt lat="45.9020690" lon="10.2669480">
	<ele>1106.40</ele>
	<time>2025-04-30T06:54:58.000Z</time>
</trkpt>
<trkpt lat="45.9020620" lon="10.2669490">
	<ele>1106.40</ele>
	<time>2025-04-30T06:54:59.000Z</time>
</trkpt>
<trkpt lat="45.9020490" lon="10.2669460">
	<ele>1106.60</ele>
	<time>2025-04-30T06:55:00.000Z</time>
</trkpt>
<trkpt lat="45.9020410" lon="10.2669440">
	<ele>1107.00</ele>
	<time>2025-04-30T06:55:01.000Z</time>
</trkpt>
<trkpt lat="45.9020380" lon="10.2669460">
	<ele>1107.20</ele>
	<time>2025-04-30T06:55:02.000Z</time>
</trkpt>
<trkpt lat="45.9020340" lon="10.2669470">
	<ele>1107.40</ele>
	<time>2025-04-30T06:55:03.000Z</time>
</trkpt>
<trkpt lat="45.9020300" lon="10.2669470">
	<ele>1107.60</ele>
	<time>2025-04-30T06:55:04.000Z</time>
</trkpt>
<trkpt lat="45.9020210" lon="10.2669470">
	<ele>1107.80</ele>
	<time>2025-04-30T06:55:05.000Z</time>
</trkpt>
<trkpt lat="45.9020160" lon="10.2669510">
	<ele>1107.80</ele>
	<time>2025-04-30T06:55:06.000Z</time>
</trkpt>
<trkpt lat="45.9020090" lon="10.2669560">
	<ele>1108.20</ele>
	<time>2025-04-30T06:55:07.000Z</time>
</trkpt>
<trkpt lat="45.9020060" lon="10.2669590">
	<ele>1108.40</ele>
	<time>2025-04-30T06:55:08.000Z</time>
</trkpt>
<trkpt lat="45.9020030" lon="10.2669710">
	<ele>1108.60</ele>
	<time>2025-04-30T06:55:09.000Z</time>
</trkpt>
<trkpt lat="45.9019990" lon="10.2669700">
	<ele>1108.60</ele>
	<time>2025-04-30T06:55:10.000Z</time>
</trkpt>
<trkpt lat="45.9019960" lon="10.2669850">
	<ele>1108.80</ele>
	<time>2025-04-30T06:55:11.000Z</time>
</trkpt>
<trkpt lat="45.9019900" lon="10.2669850">
	<ele>1109.00</ele>
	<time>2025-04-30T06:55:12.000Z</time>
</trkpt>
<trkpt lat="45.9019840" lon="10.2669930">
	<ele>1109.20</ele>
	<time>2025-04-30T06:55:13.000Z</time>
</trkpt>
<trkpt lat="45.9019820" lon="10.2669980">
	<ele>1109.40</ele>
	<time>2025-04-30T06:55:14.000Z</time>
</trkpt>
<trkpt lat="45.9019810" lon="10.2670070">
	<ele>1109.60</ele>
	<time>2025-04-30T06:55:15.000Z</time>
</trkpt>
<trkpt lat="45.9019760" lon="10.2670190">
	<ele>1109.80</ele>
	<time>2025-04-30T06:55:16.000Z</time>
</trkpt>
<trkpt lat="45.9019720" lon="10.2670290">
	<ele>1110.00</ele>
	<time>2025-04-30T06:55:17.000Z</time>
</trkpt>
<trkpt lat="45.9019710" lon="10.2670420">
	<ele>1110.40</ele>
	<time>2025-04-30T06:55:18.000Z</time>
</trkpt>
<trkpt lat="45.9019630" lon="10.2670580">
	<ele>1110.60</ele>
	<time>2025-04-30T06:55:19.000Z</time>
</trkpt>
<trkpt lat="45.9019570" lon="10.2670630">
	<ele>1110.80</ele>
	<time>2025-04-30T06:55:20.000Z</time>
</trkpt>
<trkpt lat="45.9019530" lon="10.2670660">
	<ele>1111.00</ele>
	<time>2025-04-30T06:55:21.000Z</time>
</trkpt>
<trkpt lat="45.9019560" lon="10.2670720">
	<ele>1111.20</ele>
	<time>2025-04-30T06:55:22.000Z</time>
</trkpt>
<trkpt lat="45.9019450" lon="10.2670700">
	<ele>1111.20</ele>
	<time>2025-04-30T06:55:23.000Z</time>
</trkpt>
<trkpt lat="45.9019410" lon="10.2670730">
	<ele>1111.40</ele>
	<time>2025-04-30T06:55:24.000Z</time>
</trkpt>
<trkpt lat="45.9019400" lon="10.2670750">
	<ele>1111.60</ele>
	<time>2025-04-30T06:55:25.000Z</time>
</trkpt>
<trkpt lat="45.9019380" lon="10.2670850">
	<ele>1111.60</ele>
	<time>2025-04-30T06:55:26.000Z</time>
</trkpt>
<trkpt lat="45.9019370" lon="10.2670840">
	<ele>1111.80</ele>
	<time>2025-04-30T06:55:27.000Z</time>
</trkpt>
<trkpt lat="45.9019300" lon="10.2670950">
	<ele>1112.00</ele>
	<time>2025-04-30T06:55:28.000Z</time>
</trkpt>
<trkpt lat="45.9019320" lon="10.2671080">
	<ele>1112.00</ele>
	<time>2025-04-30T06:55:29.000Z</time>
</trkpt>
<trkpt lat="45.9019320" lon="10.2671150">
	<ele>1112.00</ele>
	<time>2025-04-30T06:55:30.000Z</time>
</trkpt>
<trkpt lat="45.9019330" lon="10.2671210">
	<ele>1112.20</ele>
	<time>2025-04-30T06:55:31.000Z</time>
</trkpt>
<trkpt lat="45.9019450" lon="10.2671130">
	<ele>1112.40</ele>
	<time>2025-04-30T06:55:32.000Z</time>
</trkpt>
<trkpt lat="45.9019440" lon="10.2671080">
	<ele>1112.60</ele>
	<time>2025-04-30T06:55:33.000Z</time>
</trkpt>
<trkpt lat="45.9019460" lon="10.2671090">
	<ele>1112.80</ele>
	<time>2025-04-30T06:55:34.000Z</time>
</trkpt>
<trkpt lat="45.9019540" lon="10.2671180">
	<ele>1112.80</ele>
	<time>2025-04-30T06:55:35.000Z</time>
</trkpt>
<trkpt lat="45.9019510" lon="10.2671250">
	<ele>1112.80</ele>
	<time>2025-04-30T06:55:36.000Z</time>
</trkpt>
<trkpt lat="45.9019490" lon="10.2671230">
	<ele>1113.00</ele>
	<time>2025-04-30T06:55:37.000Z</time>
</trkpt>
<trkpt lat="45.9019480" lon="10.2671250">
	<ele>1113.20</ele>
	<time>2025-04-30T06:55:38.000Z</time>
</trkpt>
<trkpt lat="45.9019520" lon="10.2671280">
	<ele>1113.40</ele>
	<time>2025-04-30T06:55:39.000Z</time>
</trkpt>
<trkpt lat="45.9019560" lon="10.2671280">
	<ele>1113.60</ele>
	<time>2025-04-30T06:55:40.000Z</time>
</trkpt>
<trkpt lat="45.9019520" lon="10.2671260">
	<ele>1113.80</ele>
	<time>2025-04-30T06:55:41.000Z</time>
</trkpt>
<trkpt lat="45.9019540" lon="10.2671310">
	<ele>1113.80</ele>
	<time>2025-04-30T06:55:42.000Z</time>
</trkpt>
<trkpt lat="45.9019490" lon="10.2671430">
	<ele>1114.20</ele>
	<time>2025-04-30T06:55:43.000Z</time>
</trkpt>
<trkpt lat="45.9019480" lon="10.2671560">
	<ele>1114.20</ele>
	<time>2025-04-30T06:55:44.000Z</time>
</trkpt>
<trkpt lat="45.9019490" lon="10.2671600">
	<ele>1114.40</ele>
	<time>2025-04-30T06:55:45.000Z</time>
</trkpt>
<trkpt lat="45.9019460" lon="10.2671650">
	<ele>1114.60</ele>
	<time>2025-04-30T06:55:46.000Z</time>
</trkpt>
<trkpt lat="45.9019480" lon="10.2671700">
	<ele>1114.80</ele>
	<time>2025-04-30T06:55:47.000Z</time>
</trkpt>
<trkpt lat="45.9019560" lon="10.2671740">
	<ele>1115.00</ele>
	<time>2025-04-30T06:55:48.000Z</time>
</trkpt>
<trkpt lat="45.9019660" lon="10.2671820">
	<ele>1115.20</ele>
	<time>2025-04-30T06:55:49.000Z</time>
</trkpt>
<trkpt lat="45.9019700" lon="10.2671830">
	<ele>1115.40</ele>
	<time>2025-04-30T06:55:50.000Z</time>
</trkpt>
<trkpt lat="45.9019770" lon="10.2671820">
	<ele>1115.60</ele>
	<time>2025-04-30T06:55:51.000Z</time>
</trkpt>
<trkpt lat="45.9019800" lon="10.2671820">
	<ele>1115.80</ele>
	<time>2025-04-30T06:55:52.000Z</time>
</trkpt>
<trkpt lat="45.9019820" lon="10.2671820">
	<ele>1115.80</ele>
	<time>2025-04-30T06:55:53.000Z</time>
</trkpt>
<trkpt lat="45.9019850" lon="10.2671890">
	<ele>1116.00</ele>
	<time>2025-04-30T06:55:54.000Z</time>
</trkpt>
<trkpt lat="45.9019850" lon="10.2671900">
	<ele>1116.20</ele>
	<time>2025-04-30T06:55:55.000Z</time>
</trkpt>
<trkpt lat="45.9019850" lon="10.2671980">
	<ele>1116.40</ele>
	<time>2025-04-30T06:55:56.000Z</time>
</trkpt>
<trkpt lat="45.9019860" lon="10.2672040">
	<ele>1116.60</ele>
	<time>2025-04-30T06:55:57.000Z</time>
</trkpt>
<trkpt lat="45.9019920" lon="10.2672150">
	<ele>1116.60</ele>
	<time>2025-04-30T06:55:58.000Z</time>
</trkpt>
<trkpt lat="45.9019950" lon="10.2672210">
	<ele>1116.80</ele>
	<time>2025-04-30T06:55:59.000Z</time>
</trkpt>
<trkpt lat="45.9019920" lon="10.2672280">
	<ele>1117.00</ele>
	<time>2025-04-30T06:56:00.000Z</time>
</trkpt>
<trkpt lat="45.9019940" lon="10.2672390">
	<ele>1117.00</ele>
	<time>2025-04-30T06:56:01.000Z</time>
</trkpt>
<trkpt lat="45.9019900" lon="10.2672470">
	<ele>1117.20</ele>
	<time>2025-04-30T06:56:02.000Z</time>
</trkpt>
<trkpt lat="45.9019930" lon="10.2672510">
	<ele>1117.60</ele>
	<time>2025-04-30T06:56:03.000Z</time>
</trkpt>
<trkpt lat="45.9019900" lon="10.2672530">
	<ele>1117.80</ele>
	<time>2025-04-30T06:56:04.000Z</time>
</trkpt>
<trkpt lat="45.9019920" lon="10.2672550">
	<ele>1118.00</ele>
	<time>2025-04-30T06:56:05.000Z</time>
</trkpt>
<trkpt lat="45.9020020" lon="10.2672600">
	<ele>1118.20</ele>
	<time>2025-04-30T06:56:06.000Z</time>
</trkpt>
<trkpt lat="45.9020010" lon="10.2672580">
	<ele>1118.40</ele>
	<time>2025-04-30T06:56:07.000Z</time>
</trkpt>
<trkpt lat="45.9019950" lon="10.2672560">
	<ele>1118.60</ele>
	<time>2025-04-30T06:56:08.000Z</time>
</trkpt>
<trkpt lat="45.9019940" lon="10.2672570">
	<ele>1118.60</ele>
	<time>2025-04-30T06:56:09.000Z</time>
</trkpt>
<trkpt lat="45.9019850" lon="10.2672630">
	<ele>1118.80</ele>
	<time>2025-04-30T06:56:10.000Z</time>
</trkpt>
<trkpt lat="45.9019710" lon="10.2672620">
	<ele>1119.00</ele>
	<time>2025-04-30T06:56:11.000Z</time>
</trkpt>
<trkpt lat="45.9019540" lon="10.2672580">
	<ele>1119.20</ele>
	<time>2025-04-30T06:56:12.000Z</time>
</trkpt>
<trkpt lat="45.9019480" lon="10.2672550">
	<ele>1119.60</ele>
	<time>2025-04-30T06:56:13.000Z</time>
</trkpt>
<trkpt lat="45.9019440" lon="10.2672490">
	<ele>1119.80</ele>
	<time>2025-04-30T06:56:14.000Z</time>
</trkpt>
<trkpt lat="45.9019390" lon="10.2672470">
	<ele>1119.80</ele>
	<time>2025-04-30T06:56:15.000Z</time>
</trkpt>
<trkpt lat="45.9019390" lon="10.2672510">
	<ele>1120.00</ele>
	<time>2025-04-30T06:56:16.000Z</time>
</trkpt>
<trkpt lat="45.9019300" lon="10.2672530">
	<ele>1120.40</ele>
	<time>2025-04-30T06:56:17.000Z</time>
</trkpt>
<trkpt lat="45.9019220" lon="10.2672610">
	<ele>1120.60</ele>
	<time>2025-04-30T06:56:18.000Z</time>
</trkpt>
<trkpt lat="45.9019100" lon="10.2672670">
	<ele>1120.80</ele>
	<time>2025-04-30T06:56:19.000Z</time>
</trkpt>
<trkpt lat="45.9019090" lon="10.2672710">
	<ele>1121.00</ele>
	<time>2025-04-30T06:56:20.000Z</time>
</trkpt>
<trkpt lat="45.9019080" lon="10.2672710">
	<ele>1121.20</ele>
	<time>2025-04-30T06:56:21.000Z</time>
</trkpt>
<trkpt lat="45.9019030" lon="10.2672790">
	<ele>1121.40</ele>
	<time>2025-04-30T06:56:22.000Z</time>
</trkpt>
<trkpt lat="45.9019050" lon="10.2672770">
	<ele>1121.60</ele>
	<time>2025-04-30T06:56:23.000Z</time>
</trkpt>
<trkpt lat="45.9019040" lon="10.2672800">
	<ele>1121.80</ele>
	<time>2025-04-30T06:56:24.000Z</time>
</trkpt>
<trkpt lat="45.9019020" lon="10.2672820">
	<ele>1121.80</ele>
	<time>2025-04-30T06:56:25.000Z</time>
</trkpt>
<trkpt lat="45.9018900" lon="10.2672720">
	<ele>1122.00</ele>
	<time>2025-04-30T06:56:26.000Z</time>
</trkpt>
<trkpt lat="45.9018810" lon="10.2672650">
	<ele>1122.20</ele>
	<time>2025-04-30T06:56:27.000Z</time>
</trkpt>
<trkpt lat="45.9018760" lon="10.2672680">
	<ele>1122.40</ele>
	<time>2025-04-30T06:56:28.000Z</time>
</trkpt>
<trkpt lat="45.9018810" lon="10.2672760">
	<ele>1122.60</ele>
	<time>2025-04-30T06:56:29.000Z</time>
</trkpt>
<trkpt lat="45.9018850" lon="10.2672900">
	<ele>1123.00</ele>
	<time>2025-04-30T06:56:30.000Z</time>
</trkpt>
<trkpt lat="45.9018820" lon="10.2672880">
	<ele>1123.20</ele>
	<time>2025-04-30T06:56:31.000Z</time>
</trkpt>
<trkpt lat="45.9018820" lon="10.2672860">
	<ele>1123.20</ele>
	<time>2025-04-30T06:56:32.000Z</time>
</trkpt>
<trkpt lat="45.9018800" lon="10.2673060">
	<ele>1123.40</ele>
	<time>2025-04-30T06:56:33.000Z</time>
</trkpt>
<trkpt lat="45.9018740" lon="10.2673130">
	<ele>1123.60</ele>
	<time>2025-04-30T06:56:34.000Z</time>
</trkpt>
<trkpt lat="45.9018700" lon="10.2673260">
	<ele>1123.80</ele>
	<time>2025-04-30T06:56:35.000Z</time>
</trkpt>
<trkpt lat="45.9018620" lon="10.2673240">
	<ele>1123.80</ele>
	<time>2025-04-30T06:56:36.000Z</time>
</trkpt>
<trkpt lat="45.9018560" lon="10.2673290">
	<ele>1123.80</ele>
	<time>2025-04-30T06:56:37.000Z</time>
</trkpt>
<trkpt lat="45.9018560" lon="10.2673360">
	<ele>1124.00</ele>
	<time>2025-04-30T06:56:38.000Z</time>
</trkpt>
<trkpt lat="45.9018550" lon="10.2673420">
	<ele>1124.20</ele>
	<time>2025-04-30T06:56:39.000Z</time>
</trkpt>
<trkpt lat="45.9018460" lon="10.2673430">
	<ele>1124.40</ele>
	<time>2025-04-30T06:56:40.000Z</time>
</trkpt>
<trkpt lat="45.9018440" lon="10.2673510">
	<ele>1124.60</ele>
	<time>2025-04-30T06:56:41.000Z</time>
</trkpt>
<trkpt lat="45.9018430" lon="10.2673560">
	<ele>1124.60</ele>
	<time>2025-04-30T06:56:42.000Z</time>
</trkpt>
<trkpt lat="45.9018430" lon="10.2673670">
	<ele>1124.80</ele>
	<time>2025-04-30T06:56:43.000Z</time>
</trkpt>
<trkpt lat="45.9018390" lon="10.2673780">
	<ele>1125.00</ele>
	<time>2025-04-30T06:56:44.000Z</time>
</trkpt>
<trkpt lat="45.9018370" lon="10.2673830">
	<ele>1125.20</ele>
	<time>2025-04-30T06:56:45.000Z</time>
</trkpt>
<trkpt lat="45.9018290" lon="10.2673920">
	<ele>1125.40</ele>
	<time>2025-04-30T06:56:46.000Z</time>
</trkpt>
<trkpt lat="45.9018240" lon="10.2674030">
	<ele>1125.40</ele>
	<time>2025-04-30T06:56:47.000Z</time>
</trkpt>
<trkpt lat="45.9018200" lon="10.2674150">
	<ele>1125.60</ele>
	<time>2025-04-30T06:56:48.000Z</time>
</trkpt>
<trkpt lat="45.9018200" lon="10.2674200">
	<ele>1125.60</ele>
	<time>2025-04-30T06:56:49.000Z</time>
</trkpt>
<trkpt lat="45.9018170" lon="10.2674290">
	<ele>1125.80</ele>
	<time>2025-04-30T06:56:50.000Z</time>
</trkpt>
<trkpt lat="45.9018120" lon="10.2674390">
	<ele>1126.00</ele>
	<time>2025-04-30T06:56:51.000Z</time>
</trkpt>
<trkpt lat="45.9018140" lon="10.2674420">
	<ele>1126.00</ele>
	<time>2025-04-30T06:56:52.000Z</time>
</trkpt>
<trkpt lat="45.9018100" lon="10.2674750">
	<ele>1126.40</ele>
	<time>2025-04-30T06:56:53.000Z</time>
</trkpt>
<trkpt lat="45.9018020" lon="10.2674970">
	<ele>1126.60</ele>
	<time>2025-04-30T06:56:54.000Z</time>
</trkpt>
<trkpt lat="45.9017950" lon="10.2675060">
	<ele>1126.80</ele>
	<time>2025-04-30T06:56:55.000Z</time>
</trkpt>
<trkpt lat="45.9017960" lon="10.2675170">
	<ele>1127.00</ele>
	<time>2025-04-30T06:56:56.000Z</time>
</trkpt>
<trkpt lat="45.9018000" lon="10.2675200">
	<ele>1127.20</ele>
	<time>2025-04-30T06:56:57.000Z</time>
</trkpt>
<trkpt lat="45.9018000" lon="10.2675230">
	<ele>1127.40</ele>
	<time>2025-04-30T06:56:58.000Z</time>
</trkpt>
<trkpt lat="45.9018000" lon="10.2675290">
	<ele>1127.40</ele>
	<time>2025-04-30T06:56:59.000Z</time>
</trkpt>
<trkpt lat="45.9018040" lon="10.2675330">
	<ele>1127.60</ele>
	<time>2025-04-30T06:57:00.000Z</time>
</trkpt>
<trkpt lat="45.9018060" lon="10.2675370">
	<ele>1127.80</ele>
	<time>2025-04-30T06:57:01.000Z</time>
</trkpt>
<trkpt lat="45.9018130" lon="10.2675500">
	<ele>1127.80</ele>
	<time>2025-04-30T06:57:02.000Z</time>
</trkpt>
<trkpt lat="45.9018280" lon="10.2675600">
	<ele>1128.00</ele>
	<time>2025-04-30T06:57:03.000Z</time>
</trkpt>
<trkpt lat="45.9018330" lon="10.2675590">
	<ele>1128.20</ele>
	<time>2025-04-30T06:57:04.000Z</time>
</trkpt>
<trkpt lat="45.9018440" lon="10.2675640">
	<ele>1128.40</ele>
	<time>2025-04-30T06:57:05.000Z</time>
</trkpt>
<trkpt lat="45.9018520" lon="10.2675620">
	<ele>1128.60</ele>
	<time>2025-04-30T06:57:06.000Z</time>
</trkpt>
<trkpt lat="45.9018570" lon="10.2675590">
	<ele>1128.80</ele>
	<time>2025-04-30T06:57:07.000Z</time>
</trkpt>
<trkpt lat="45.9018610" lon="10.2675560">
	<ele>1129.00</ele>
	<time>2025-04-30T06:57:08.000Z</time>
</trkpt>
<trkpt lat="45.9018670" lon="10.2675520">
	<ele>1129.00</ele>
	<time>2025-04-30T06:57:09.000Z</time>
</trkpt>
<trkpt lat="45.9018710" lon="10.2675480">
	<ele>1129.20</ele>
	<time>2025-04-30T06:57:10.000Z</time>
</trkpt>
<trkpt lat="45.9018790" lon="10.2675520">
	<ele>1129.20</ele>
	<time>2025-04-30T06:57:11.000Z</time>
</trkpt>
<trkpt lat="45.9018890" lon="10.2675580">
	<ele>1129.40</ele>
	<time>2025-04-30T06:57:12.000Z</time>
</trkpt>
<trkpt lat="45.9018930" lon="10.2675590">
	<ele>1129.40</ele>
	<time>2025-04-30T06:57:13.000Z</time>
</trkpt>
<trkpt lat="45.9018990" lon="10.2675660">
	<ele>1129.40</ele>
	<time>2025-04-30T06:57:14.000Z</time>
</trkpt>
<trkpt lat="45.9019080" lon="10.2675660">
	<ele>1129.60</ele>
	<time>2025-04-30T06:57:15.000Z</time>
</trkpt>
<trkpt lat="45.9019130" lon="10.2675710">
	<ele>1129.80</ele>
	<time>2025-04-30T06:57:16.000Z</time>
</trkpt>
<trkpt lat="45.9019180" lon="10.2675740">
	<ele>1129.80</ele>
	<time>2025-04-30T06:57:17.000Z</time>
</trkpt>
<trkpt lat="45.9019220" lon="10.2675830">
	<ele>1130.20</ele>
	<time>2025-04-30T06:57:18.000Z</time>
</trkpt>
<trkpt lat="45.9019240" lon="10.2675950">
	<ele>1130.20</ele>
	<time>2025-04-30T06:57:19.000Z</time>
</trkpt>
<trkpt lat="45.9019250" lon="10.2676000">
	<ele>1130.40</ele>
	<time>2025-04-30T06:57:20.000Z</time>
</trkpt>
<trkpt lat="45.9019290" lon="10.2676050">
	<ele>1130.60</ele>
	<time>2025-04-30T06:57:21.000Z</time>
</trkpt>
<trkpt lat="45.9019300" lon="10.2676090">
	<ele>1130.60</ele>
	<time>2025-04-30T06:57:22.000Z</time>
</trkpt>
<trkpt lat="45.9019320" lon="10.2676100">
	<ele>1130.80</ele>
	<time>2025-04-30T06:57:23.000Z</time>
</trkpt>
<trkpt lat="45.9019420" lon="10.2676210">
	<ele>1131.20</ele>
	<time>2025-04-30T06:57:24.000Z</time>
</trkpt>
<trkpt lat="45.9019520" lon="10.2676400">
	<ele>1131.40</ele>
	<time>2025-04-30T06:57:25.000Z</time>
</trkpt>
<trkpt lat="45.9019560" lon="10.2676620">
	<ele>1131.60</ele>
	<time>2025-04-30T06:57:26.000Z</time>
</trkpt>
<trkpt lat="45.9019550" lon="10.2676740">
	<ele>1131.80</ele>
	<time>2025-04-30T06:57:27.000Z</time>
</trkpt>
<trkpt lat="45.9019520" lon="10.2676870">
	<ele>1132.00</ele>
	<time>2025-04-30T06:57:28.000Z</time>
</trkpt>
<trkpt lat="45.9019490" lon="10.2676960">
	<ele>1132.00</ele>
	<time>2025-04-30T06:57:29.000Z</time>
</trkpt>
<trkpt lat="45.9019500" lon="10.2676890">
	<ele>1132.20</ele>
	<time>2025-04-30T06:57:30.000Z</time>
</trkpt>
<trkpt lat="45.9019500" lon="10.2676790">
	<ele>1132.40</ele>
	<time>2025-04-30T06:57:31.000Z</time>
</trkpt>
<trkpt lat="45.9019530" lon="10.2676780">
	<ele>1132.60</ele>
	<time>2025-04-30T06:57:32.000Z</time>
</trkpt>
<trkpt lat="45.9019550" lon="10.2676840">
	<ele>1132.80</ele>
	<time>2025-04-30T06:57:33.000Z</time>
</trkpt>
<trkpt lat="45.9019600" lon="10.2676890">
	<ele>1132.80</ele>
	<time>2025-04-30T06:57:34.000Z</time>
</trkpt>
<trkpt lat="45.9019630" lon="10.2676930">
	<ele>1133.00</ele>
	<time>2025-04-30T06:57:35.000Z</time>
</trkpt>
<trkpt lat="45.9019650" lon="10.2676950">
	<ele>1133.20</ele>
	<time>2025-04-30T06:57:36.000Z</time>
</trkpt>
<trkpt lat="45.9019660" lon="10.2676990">
	<ele>1133.20</ele>
	<time>2025-04-30T06:57:37.000Z</time>
</trkpt>
<trkpt lat="45.9019670" lon="10.2677030">
	<ele>1133.40</ele>
	<time>2025-04-30T06:57:38.000Z</time>
</trkpt>
<trkpt lat="45.9019690" lon="10.2677120">
	<ele>1133.60</ele>
	<time>2025-04-30T06:57:39.000Z</time>
</trkpt>
<trkpt lat="45.9019710" lon="10.2677180">
	<ele>1133.80</ele>
	<time>2025-04-30T06:57:40.000Z</time>
</trkpt>
<trkpt lat="45.9019720" lon="10.2677230">
	<ele>1134.00</ele>
	<time>2025-04-30T06:57:41.000Z</time>
</trkpt>
<trkpt lat="45.9019680" lon="10.2677210">
	<ele>1134.20</ele>
	<time>2025-04-30T06:57:42.000Z</time>
</trkpt>
<trkpt lat="45.9019640" lon="10.2677210">
	<ele>1134.20</ele>
	<time>2025-04-30T06:57:43.000Z</time>
</trkpt>
<trkpt lat="45.9019540" lon="10.2677190">
	<ele>1134.40</ele>
	<time>2025-04-30T06:57:44.000Z</time>
</trkpt>
<trkpt lat="45.9019530" lon="10.2677210">
	<ele>1134.80</ele>
	<time>2025-04-30T06:57:45.000Z</time>
</trkpt>
<trkpt lat="45.9019440" lon="10.2677260">
	<ele>1135.00</ele>
	<time>2025-04-30T06:57:46.000Z</time>
</trkpt>
<trkpt lat="45.9019380" lon="10.2677360">
	<ele>1135.00</ele>
	<time>2025-04-30T06:57:47.000Z</time>
</trkpt>
<trkpt lat="45.9019400" lon="10.2677350">
	<ele>1135.20</ele>
	<time>2025-04-30T06:57:48.000Z</time>
</trkpt>
<trkpt lat="45.9019390" lon="10.2677340">
	<ele>1135.40</ele>
	<time>2025-04-30T06:57:49.000Z</time>
</trkpt>
<trkpt lat="45.9019410" lon="10.2677310">
	<ele>1135.40</ele>
	<time>2025-04-30T06:57:50.000Z</time>
</trkpt>
<trkpt lat="45.9019390" lon="10.2677260">
	<ele>1135.40</ele>
	<time>2025-04-30T06:57:51.000Z</time>
</trkpt>
<trkpt lat="45.9019250" lon="10.2677170">
	<ele>1135.60</ele>
	<time>2025-04-30T06:57:52.000Z</time>
</trkpt>
<trkpt lat="45.9019300" lon="10.2677180">
	<ele>1135.60</ele>
	<time>2025-04-30T06:57:53.000Z</time>
</trkpt>
<trkpt lat="45.9019320" lon="10.2677210">
	<ele>1135.80</ele>
	<time>2025-04-30T06:57:54.000Z</time>
</trkpt>
<trkpt lat="45.9019330" lon="10.2677240">
	<ele>1135.80</ele>
	<time>2025-04-30T06:57:55.000Z</time>
</trkpt>
<trkpt lat="45.9019270" lon="10.2677150">
	<ele>1135.80</ele>
	<time>2025-04-30T06:57:56.000Z</time>
</trkpt>
<trkpt lat="45.9019210" lon="10.2677110">
	<ele>1135.80</ele>
	<time>2025-04-30T06:57:57.000Z</time>
</trkpt>
<trkpt lat="45.9019250" lon="10.2677080">
	<ele>1136.00</ele>
	<time>2025-04-30T06:57:58.000Z</time>
</trkpt>
<trkpt lat="45.9019280" lon="10.2676960">
	<ele>1136.00</ele>
	<time>2025-04-30T06:57:59.000Z</time>
</trkpt>
<trkpt lat="45.9019320" lon="10.2676870">
	<ele>1136.00</ele>
	<time>2025-04-30T06:58:00.000Z</time>
</trkpt>
<trkpt lat="45.9019300" lon="10.2676820">
	<ele>1136.00</ele>
	<time>2025-04-30T06:58:01.000Z</time>
</trkpt>
<trkpt lat="45.9019370" lon="10.2676830">
	<ele>1136.20</ele>
	<time>2025-04-30T06:58:02.000Z</time>
</trkpt>
<trkpt lat="45.9019300" lon="10.2676740">
	<ele>1136.40</ele>
	<time>2025-04-30T06:58:03.000Z</time>
</trkpt>
<trkpt lat="45.9019190" lon="10.2676760">
	<ele>1136.60</ele>
	<time>2025-04-30T06:58:04.000Z</time>
</trkpt>
<trkpt lat="45.9019240" lon="10.2676760">
	<ele>1136.60</ele>
	<time>2025-04-30T06:58:05.000Z</time>
</trkpt>
<trkpt lat="45.9019270" lon="10.2676750">
	<ele>1136.80</ele>
	<time>2025-04-30T06:58:06.000Z</time>
</trkpt>
<trkpt lat="45.9019300" lon="10.2676760">
	<ele>1137.00</ele>
	<time>2025-04-30T06:58:07.000Z</time>
</trkpt>
<trkpt lat="45.9019320" lon="10.2676780">
	<ele>1137.00</ele>
	<time>2025-04-30T06:58:08.000Z</time>
</trkpt>
<trkpt lat="45.9019370" lon="10.2676770">
	<ele>1137.00</ele>
	<time>2025-04-30T06:58:09.000Z</time>
</trkpt>
<trkpt lat="45.9019410" lon="10.2676820">
	<ele>1137.20</ele>
	<time>2025-04-30T06:58:10.000Z</time>
</trkpt>
<trkpt lat="45.9019420" lon="10.2676870">
	<ele>1137.40</ele>
	<time>2025-04-30T06:58:11.000Z</time>
</trkpt>
<trkpt lat="45.9019410" lon="10.2676890">
	<ele>1137.40</ele>
	<time>2025-04-30T06:58:12.000Z</time>
</trkpt>
<trkpt lat="45.9019390" lon="10.2676920">
	<ele>1137.80</ele>
	<time>2025-04-30T06:58:13.000Z</time>
</trkpt>
<trkpt lat="45.9019380" lon="10.2676910">
	<ele>1138.00</ele>
	<time>2025-04-30T06:58:14.000Z</time>
</trkpt>
<trkpt lat="45.9019370" lon="10.2676850">
	<ele>1138.00</ele>
	<time>2025-04-30T06:58:15.000Z</time>
</trkpt>
<trkpt lat="45.9019340" lon="10.2676900">
	<ele>1138.20</ele>
	<time>2025-04-30T06:58:16.000Z</time>
</trkpt>
<trkpt lat="45.9019300" lon="10.2676910">
	<ele>1138.60</ele>
	<time>2025-04-30T06:58:17.000Z</time>
</trkpt>
<trkpt lat="45.9019280" lon="10.2676970">
	<ele>1138.60</ele>
	<time>2025-04-30T06:58:18.000Z</time>
</trkpt>
<trkpt lat="45.9019210" lon="10.2676930">
	<ele>1138.80</ele>
	<time>2025-04-30T06:58:19.000Z</time>
</trkpt>
<trkpt lat="45.9019140" lon="10.2676940">
	<ele>1138.80</ele>
	<time>2025-04-30T06:58:20.000Z</time>
</trkpt>
<trkpt lat="45.9019120" lon="10.2676940">
	<ele>1139.00</ele>
	<time>2025-04-30T06:58:21.000Z</time>
</trkpt>
<trkpt lat="45.9019140" lon="10.2676860">
	<ele>1139.20</ele>
	<time>2025-04-30T06:58:22.000Z</time>
</trkpt>
<trkpt lat="45.9019130" lon="10.2676820">
	<ele>1139.40</ele>
	<time>2025-04-30T06:58:23.000Z</time>
</trkpt>
<trkpt lat="45.9019120" lon="10.2676830">
	<ele>1139.60</ele>
	<time>2025-04-30T06:58:24.000Z</time>
</trkpt>
<trkpt lat="45.9019090" lon="10.2676840">
	<ele>1139.60</ele>
	<time>2025-04-30T06:58:25.000Z</time>
</trkpt>
<trkpt lat="45.9019090" lon="10.2677010">
	<ele>1139.80</ele>
	<time>2025-04-30T06:58:26.000Z</time>
</trkpt>
<trkpt lat="45.9019050" lon="10.2677080">
	<ele>1140.00</ele>
	<time>2025-04-30T06:58:27.000Z</time>
</trkpt>
<trkpt lat="45.9019000" lon="10.2677140">
	<ele>1140.20</ele>
	<time>2025-04-30T06:58:28.000Z</time>
</trkpt>
<trkpt lat="45.9018980" lon="10.2677130">
	<ele>1140.20</ele>
	<time>2025-04-30T06:58:29.000Z</time>
</trkpt>
<trkpt lat="45.9018970" lon="10.2677260">
	<ele>1140.40</ele>
	<time>2025-04-30T06:58:30.000Z</time>
</trkpt>
<trkpt lat="45.9019010" lon="10.2677370">
	<ele>1140.60</ele>
	<time>2025-04-30T06:58:31.000Z</time>
</trkpt>
<trkpt lat="45.9019000" lon="10.2677400">
	<ele>1140.80</ele>
	<time>2025-04-30T06:58:32.000Z</time>
</trkpt>
<trkpt lat="45.9018960" lon="10.2677390">
	<ele>1141.00</ele>
	<time>2025-04-30T06:58:33.000Z</time>
</trkpt>
<trkpt lat="45.9018940" lon="10.2677370">
	<ele>1141.00</ele>
	<time>2025-04-30T06:58:34.000Z</time>
</trkpt>
<trkpt lat="45.9018920" lon="10.2677390">
	<ele>1141.40</ele>
	<time>2025-04-30T06:58:35.000Z</time>
</trkpt>
<trkpt lat="45.9018910" lon="10.2677420">
	<ele>1141.60</ele>
	<time>2025-04-30T06:58:36.000Z</time>
</trkpt>
<trkpt lat="45.9018880" lon="10.2677550">
	<ele>1141.80</ele>
	<time>2025-04-30T06:58:37.000Z</time>
</trkpt>
<trkpt lat="45.9018800" lon="10.2677550">
	<ele>1142.00</ele>
	<time>2025-04-30T06:58:38.000Z</time>
</trkpt>
<trkpt lat="45.9018780" lon="10.2677640">
	<ele>1142.20</ele>
	<time>2025-04-30T06:58:39.000Z</time>
</trkpt>
<trkpt lat="45.9018750" lon="10.2677700">
	<ele>1142.20</ele>
	<time>2025-04-30T06:58:40.000Z</time>
</trkpt>
<trkpt lat="45.9018720" lon="10.2677750">
	<ele>1142.20</ele>
	<time>2025-04-30T06:58:41.000Z</time>
</trkpt>
<trkpt lat="45.9018660" lon="10.2677800">
	<ele>1142.40</ele>
	<time>2025-04-30T06:58:42.000Z</time>
</trkpt>
<trkpt lat="45.9018600" lon="10.2677800">
	<ele>1142.60</ele>
	<time>2025-04-30T06:58:43.000Z</time>
</trkpt>
<trkpt lat="45.9018560" lon="10.2677830">
	<ele>1142.80</ele>
	<time>2025-04-30T06:58:44.000Z</time>
</trkpt>
<trkpt lat="45.9018530" lon="10.2677850">
	<ele>1143.00</ele>
	<time>2025-04-30T06:58:45.000Z</time>
</trkpt>
<trkpt lat="45.9018500" lon="10.2677950">
	<ele>1143.20</ele>
	<time>2025-04-30T06:58:46.000Z</time>
</trkpt>
<trkpt lat="45.9018490" lon="10.2678100">
	<ele>1143.40</ele>
	<time>2025-04-30T06:58:47.000Z</time>
</trkpt>
<trkpt lat="45.9018450" lon="10.2678140">
	<ele>1143.60</ele>
	<time>2025-04-30T06:58:48.000Z</time>
</trkpt>
<trkpt lat="45.9018390" lon="10.2678200">
	<ele>1143.80</ele>
	<time>2025-04-30T06:58:49.000Z</time>
</trkpt>
<trkpt lat="45.9018340" lon="10.2678260">
	<ele>1144.00</ele>
	<time>2025-04-30T06:58:50.000Z</time>
</trkpt>
<trkpt lat="45.9018270" lon="10.2678150">
	<ele>1144.20</ele>
	<time>2025-04-30T06:58:51.000Z</time>
</trkpt>
<trkpt lat="45.9018230" lon="10.2678150">
	<ele>1144.40</ele>
	<time>2025-04-30T06:58:52.000Z</time>
</trkpt>
<trkpt lat="45.9018190" lon="10.2678140">
	<ele>1144.60</ele>
	<time>2025-04-30T06:58:53.000Z</time>
</trkpt>
<trkpt lat="45.9018190" lon="10.2678050">
	<ele>1144.80</ele>
	<time>2025-04-30T06:58:54.000Z</time>
</trkpt>
<trkpt lat="45.9018170" lon="10.2678010">
	<ele>1144.80</ele>
	<time>2025-04-30T06:58:55.000Z</time>
</trkpt>
<trkpt lat="45.9018150" lon="10.2677970">
	<ele>1145.00</ele>
	<time>2025-04-30T06:58:56.000Z</time>
</trkpt>
<trkpt lat="45.9018110" lon="10.2678000">
	<ele>1145.20</ele>
	<time>2025-04-30T06:58:57.000Z</time>
</trkpt>
<trkpt lat="45.9018010" lon="10.2678070">
	<ele>1145.20</ele>
	<time>2025-04-30T06:58:58.000Z</time>
</trkpt>
<trkpt lat="45.9018010" lon="10.2678150">
	<ele>1145.40</ele>
	<time>2025-04-30T06:58:59.000Z</time>
</trkpt>
<trkpt lat="45.9017960" lon="10.2678220">
	<ele>1145.60</ele>
	<time>2025-04-30T06:59:00.000Z</time>
</trkpt>
<trkpt lat="45.9017930" lon="10.2678250">
	<ele>1145.80</ele>
	<time>2025-04-30T06:59:01.000Z</time>
</trkpt>
<trkpt lat="45.9017910" lon="10.2678280">
	<ele>1145.80</ele>
	<time>2025-04-30T06:59:02.000Z</time>
</trkpt>
<trkpt lat="45.9017880" lon="10.2678310">
	<ele>1146.00</ele>
	<time>2025-04-30T06:59:03.000Z</time>
</trkpt>
<trkpt lat="45.9017850" lon="10.2678350">
	<ele>1146.00</ele>
	<time>2025-04-30T06:59:04.000Z</time>
</trkpt>
<trkpt lat="45.9017770" lon="10.2678290">
	<ele>1146.20</ele>
	<time>2025-04-30T06:59:05.000Z</time>
</trkpt>
<trkpt lat="45.9017700" lon="10.2678200">
	<ele>1146.40</ele>
	<time>2025-04-30T06:59:06.000Z</time>
</trkpt>
<trkpt lat="45.9017640" lon="10.2678100">
	<ele>1146.40</ele>
	<time>2025-04-30T06:59:07.000Z</time>
</trkpt>
<trkpt lat="45.9017580" lon="10.2678030">
	<ele>1146.60</ele>
	<time>2025-04-30T06:59:08.000Z</time>
</trkpt>
<trkpt lat="45.9017550" lon="10.2678030">
	<ele>1146.80</ele>
	<time>2025-04-30T06:59:09.000Z</time>
</trkpt>
<trkpt lat="45.9017520" lon="10.2678040">
	<ele>1147.20</ele>
	<time>2025-04-30T06:59:10.000Z</time>
</trkpt>
<trkpt lat="45.9017450" lon="10.2678080">
	<ele>1147.40</ele>
	<time>2025-04-30T06:59:11.000Z</time>
</trkpt>
<trkpt lat="45.9017400" lon="10.2678170">
	<ele>1147.60</ele>
	<time>2025-04-30T06:59:12.000Z</time>
</trkpt>
<trkpt lat="45.9017350" lon="10.2678230">
	<ele>1147.60</ele>
	<time>2025-04-30T06:59:13.000Z</time>
</trkpt>
<trkpt lat="45.9017290" lon="10.2678240">
	<ele>1147.80</ele>
	<time>2025-04-30T06:59:14.000Z</time>
</trkpt>
<trkpt lat="45.9017270" lon="10.2678210">
	<ele>1148.00</ele>
	<time>2025-04-30T06:59:15.000Z</time>
</trkpt>
<trkpt lat="45.9017250" lon="10.2678120">
	<ele>1148.20</ele>
	<time>2025-04-30T06:59:16.000Z</time>
</trkpt>
<trkpt lat="45.9017220" lon="10.2678140">
	<ele>1148.40</ele>
	<time>2025-04-30T06:59:17.000Z</time>
</trkpt>
<trkpt lat="45.9017190" lon="10.2678200">
	<ele>1148.40</ele>
	<time>2025-04-30T06:59:18.000Z</time>
</trkpt>
<trkpt lat="45.9017160" lon="10.2678240">
	<ele>1148.60</ele>
	<time>2025-04-30T06:59:19.000Z</time>
</trkpt>
<trkpt lat="45.9017110" lon="10.2678220">
	<ele>1148.80</ele>
	<time>2025-04-30T06:59:20.000Z</time>
</trkpt>
<trkpt lat="45.9017060" lon="10.2678200">
	<ele>1148.80</ele>
	<time>2025-04-30T06:59:21.000Z</time>
</trkpt>
<trkpt lat="45.9016990" lon="10.2678140">
	<ele>1149.00</ele>
	<time>2025-04-30T06:59:22.000Z</time>
</trkpt>
<trkpt lat="45.9017000" lon="10.2678190">
	<ele>1149.20</ele>
	<time>2025-04-30T06:59:23.000Z</time>
</trkpt>
<trkpt lat="45.9017020" lon="10.2678350">
	<ele>1149.40</ele>
	<time>2025-04-30T06:59:24.000Z</time>
</trkpt>
<trkpt lat="45.9016960" lon="10.2678460">
	<ele>1149.60</ele>
	<time>2025-04-30T06:59:25.000Z</time>
</trkpt>
<trkpt lat="45.9016920" lon="10.2678360">
	<ele>1149.80</ele>
	<time>2025-04-30T06:59:26.000Z</time>
</trkpt>
<trkpt lat="45.9016880" lon="10.2678310">
	<ele>1149.80</ele>
	<time>2025-04-30T06:59:27.000Z</time>
</trkpt>
<trkpt lat="45.9016850" lon="10.2678210">
	<ele>1150.20</ele>
	<time>2025-04-30T06:59:28.000Z</time>
</trkpt>
<trkpt lat="45.9016740" lon="10.2678200">
	<ele>1150.40</ele>
	<time>2025-04-30T06:59:29.000Z</time>
</trkpt>
<trkpt lat="45.9016660" lon="10.2678250">
	<ele>1150.40</ele>
	<time>2025-04-30T06:59:30.000Z</time>
</trkpt>
<trkpt lat="45.9016600" lon="10.2678270">
	<ele>1150.60</ele>
	<time>2025-04-30T06:59:31.000Z</time>
</trkpt>
<trkpt lat="45.9016530" lon="10.2678360">
	<ele>1150.80</ele>
	<time>2025-04-30T06:59:32.000Z</time>
</trkpt>
<trkpt lat="45.9016500" lon="10.2678430">
	<ele>1151.00</ele>
	<time>2025-04-30T06:59:33.000Z</time>
</trkpt>
<trkpt lat="45.9016460" lon="10.2678490">
	<ele>1151.20</ele>
	<time>2025-04-30T06:59:34.000Z</time>
</trkpt>
<trkpt lat="45.9016420" lon="10.2678610">
	<ele>1151.40</ele>
	<time>2025-04-30T06:59:35.000Z</time>
</trkpt>
<trkpt lat="45.9016370" lon="10.2678690">
	<ele>1151.60</ele>
	<time>2025-04-30T06:59:36.000Z</time>
</trkpt>
<trkpt lat="45.9016290" lon="10.2678770">
	<ele>1151.80</ele>
	<time>2025-04-30T06:59:37.000Z</time>
</trkpt>
<trkpt lat="45.9016260" lon="10.2678830">
	<ele>1151.80</ele>
	<time>2025-04-30T06:59:38.000Z</time>
</trkpt>
<trkpt lat="45.9016210" lon="10.2678920">
	<ele>1152.20</ele>
	<time>2025-04-30T06:59:39.000Z</time>
</trkpt>
<trkpt lat="45.9016180" lon="10.2678980">
	<ele>1152.20</ele>
	<time>2025-04-30T06:59:40.000Z</time>
</trkpt>
<trkpt lat="45.9016160" lon="10.2679040">
	<ele>1152.60</ele>
	<time>2025-04-30T06:59:41.000Z</time>
</trkpt>
<trkpt lat="45.9016210" lon="10.2679210">
	<ele>1153.00</ele>
	<time>2025-04-30T06:59:42.000Z</time>
</trkpt>
<trkpt lat="45.9016230" lon="10.2679450">
	<ele>1153.00</ele>
	<time>2025-04-30T06:59:43.000Z</time>
</trkpt>
<trkpt lat="45.9016210" lon="10.2679670">
	<ele>1153.20</ele>
	<time>2025-04-30T06:59:44.000Z</time>
</trkpt>
<trkpt lat="45.9016200" lon="10.2679680">
	<ele>1153.20</ele>
	<time>2025-04-30T06:59:45.000Z</time>
</trkpt>
<trkpt lat="45.9016200" lon="10.2679820">
	<ele>1153.40</ele>
	<time>2025-04-30T06:59:46.000Z</time>
</trkpt>
<trkpt lat="45.9016220" lon="10.2679920">
	<ele>1153.40</ele>
	<time>2025-04-30T06:59:47.000Z</time>
</trkpt>
<trkpt lat="45.9016210" lon="10.2679990">
	<ele>1153.60</ele>
	<time>2025-04-30T06:59:48.000Z</time>
</trkpt>
<trkpt lat="45.9016160" lon="10.2680070">
	<ele>1153.80</ele>
	<time>2025-04-30T06:59:49.000Z</time>
</trkpt>
<trkpt lat="45.9016090" lon="10.2680160">
	<ele>1154.00</ele>
	<time>2025-04-30T06:59:50.000Z</time>
</trkpt>
<trkpt lat="45.9016080" lon="10.2680300">
	<ele>1154.20</ele>
	<time>2025-04-30T06:59:51.000Z</time>
</trkpt>
<trkpt lat="45.9016090" lon="10.2680340">
	<ele>1154.20</ele>
	<time>2025-04-30T06:59:52.000Z</time>
</trkpt>
<trkpt lat="45.9016090" lon="10.2680380">
	<ele>1154.60</ele>
	<time>2025-04-30T06:59:53.000Z</time>
</trkpt>
<trkpt lat="45.9016110" lon="10.2680450">
	<ele>1154.80</ele>
	<time>2025-04-30T06:59:54.000Z</time>
</trkpt>
<trkpt lat="45.9016220" lon="10.2680570">
	<ele>1154.80</ele>
	<time>2025-04-30T06:59:55.000Z</time>
</trkpt>
<trkpt lat="45.9016290" lon="10.2680640">
	<ele>1155.20</ele>
	<time>2025-04-30T06:59:56.000Z</time>
</trkpt>
<trkpt lat="45.9016270" lon="10.2680730">
	<ele>1155.40</ele>
	<time>2025-04-30T06:59:57.000Z</time>
</trkpt>
<trkpt lat="45.9016300" lon="10.2680860">
	<ele>1155.60</ele>
	<time>2025-04-30T06:59:58.000Z</time>
</trkpt>
<trkpt lat="45.9016320" lon="10.2681040">
	<ele>1155.60</ele>
	<time>2025-04-30T06:59:59.000Z</time>
</trkpt>
<trkpt lat="45.9016380" lon="10.2681200">
	<ele>1155.80</ele>
	<time>2025-04-30T07:00:00.000Z</time>
</trkpt>
<trkpt lat="45.9016370" lon="10.2681230">
	<ele>1156.00</ele>
	<time>2025-04-30T07:00:01.000Z</time>
</trkpt>
<trkpt lat="45.9016350" lon="10.2681450">
	<ele>1156.20</ele>
	<time>2025-04-30T07:00:02.000Z</time>
</trkpt>
<trkpt lat="45.9016320" lon="10.2681650">
	<ele>1156.40</ele>
	<time>2025-04-30T07:00:03.000Z</time>
</trkpt>
<trkpt lat="45.9016280" lon="10.2681830">
	<ele>1156.60</ele>
	<time>2025-04-30T07:00:04.000Z</time>
</trkpt>
<trkpt lat="45.9016290" lon="10.2681890">
	<ele>1156.60</ele>
	<time>2025-04-30T07:00:05.000Z</time>
</trkpt>
<trkpt lat="45.9016230" lon="10.2682040">
	<ele>1156.80</ele>
	<time>2025-04-30T07:00:06.000Z</time>
</trkpt>
<trkpt lat="45.9016230" lon="10.2682210">
	<ele>1157.00</ele>
	<time>2025-04-30T07:00:07.000Z</time>
</trkpt>
<trkpt lat="45.9016180" lon="10.2682410">
	<ele>1157.00</ele>
	<time>2025-04-30T07:00:08.000Z</time>
</trkpt>
<trkpt lat="45.9016140" lon="10.2682580">
	<ele>1157.20</ele>
	<time>2025-04-30T07:00:09.000Z</time>
</trkpt>
<trkpt lat="45.9016090" lon="10.2682780">
	<ele>1157.20</ele>
	<time>2025-04-30T07:00:10.000Z</time>
</trkpt>
<trkpt lat="45.9016090" lon="10.2683040">
	<ele>1157.40</ele>
	<time>2025-04-30T07:00:11.000Z</time>
</trkpt>
<trkpt lat="45.9016180" lon="10.2683300">
	<ele>1157.60</ele>
	<time>2025-04-30T07:00:12.000Z</time>
</trkpt>
<trkpt lat="45.9016170" lon="10.2683340">
	<ele>1157.60</ele>
	<time>2025-04-30T07:00:13.000Z</time>
</trkpt>
<trkpt lat="45.9016160" lon="10.2683410">
	<ele>1158.00</ele>
	<time>2025-04-30T07:00:14.000Z</time>
</trkpt>
<trkpt lat="45.9016170" lon="10.2683440">
	<ele>1158.00</ele>
	<time>2025-04-30T07:00:15.000Z</time>
</trkpt>
<trkpt lat="45.9016090" lon="10.2683460">
	<ele>1158.20</ele>
	<time>2025-04-30T07:00:16.000Z</time>
</trkpt>
<trkpt lat="45.9016090" lon="10.2683500">
	<ele>1158.60</ele>
	<time>2025-04-30T07:00:17.000Z</time>
</trkpt>
<trkpt lat="45.9015970" lon="10.2683660">
	<ele>1158.80</ele>
	<time>2025-04-30T07:00:18.000Z</time>
</trkpt>
<trkpt lat="45.9016000" lon="10.2683800">
	<ele>1159.00</ele>
	<time>2025-04-30T07:00:19.000Z</time>
</trkpt>
<trkpt lat="45.9015960" lon="10.2683940">
	<ele>1159.20</ele>
	<time>2025-04-30T07:00:20.000Z</time>
</trkpt>
<trkpt lat="45.9015910" lon="10.2684090">
	<ele>1159.40</ele>
	<time>2025-04-30T07:00:21.000Z</time>
</trkpt>
<trkpt lat="45.9015940" lon="10.2684260">
	<ele>1159.40</ele>
	<time>2025-04-30T07:00:22.000Z</time>
</trkpt>
<trkpt lat="45.9015970" lon="10.2684290">
	<ele>1159.60</ele>
	<time>2025-04-30T07:00:23.000Z</time>
</trkpt>
<trkpt lat="45.9015900" lon="10.2684400">
	<ele>1160.00</ele>
	<time>2025-04-30T07:00:24.000Z</time>
</trkpt>
<trkpt lat="45.9015770" lon="10.2684510">
	<ele>1160.00</ele>
	<time>2025-04-30T07:00:25.000Z</time>
</trkpt>
<trkpt lat="45.9015710" lon="10.2684650">
	<ele>1160.20</ele>
	<time>2025-04-30T07:00:26.000Z</time>
</trkpt>
<trkpt lat="45.9015650" lon="10.2684810">
	<ele>1160.40</ele>
	<time>2025-04-30T07:00:27.000Z</time>
</trkpt>
<trkpt lat="45.9015490" lon="10.2684880">
	<ele>1160.60</ele>
	<time>2025-04-30T07:00:28.000Z</time>
</trkpt>
<trkpt lat="45.9015300" lon="10.2684910">
	<ele>1160.80</ele>
	<time>2025-04-30T07:00:29.000Z</time>
</trkpt>
<trkpt lat="45.9015300" lon="10.2684940">
	<ele>1160.80</ele>
	<time>2025-04-30T07:00:30.000Z</time>
</trkpt>
<trkpt lat="45.9015310" lon="10.2684990">
	<ele>1161.00</ele>
	<time>2025-04-30T07:00:31.000Z</time>
</trkpt>
<trkpt lat="45.9015330" lon="10.2685030">
	<ele>1161.20</ele>
	<time>2025-04-30T07:00:32.000Z</time>
</trkpt>
<trkpt lat="45.9015140" lon="10.2685280">
	<ele>1161.40</ele>
	<time>2025-04-30T07:00:33.000Z</time>
</trkpt>
<trkpt lat="45.9015050" lon="10.2685340">
	<ele>1161.40</ele>
	<time>2025-04-30T07:00:34.000Z</time>
</trkpt>
<trkpt lat="45.9015050" lon="10.2685380">
	<ele>1161.60</ele>
	<time>2025-04-30T07:00:35.000Z</time>
</trkpt>
<trkpt lat="45.9015100" lon="10.2685180">
	<ele>1161.60</ele>
	<time>2025-04-30T07:00:36.000Z</time>
</trkpt>
<trkpt lat="45.9015090" lon="10.2685160">
	<ele>1161.80</ele>
	<time>2025-04-30T07:00:37.000Z</time>
</trkpt>
<trkpt lat="45.9015130" lon="10.2685030">
	<ele>1162.00</ele>
	<time>2025-04-30T07:00:38.000Z</time>
</trkpt>
<trkpt lat="45.9015150" lon="10.2684880">
	<ele>1162.20</ele>
	<time>2025-04-30T07:00:39.000Z</time>
</trkpt>
<trkpt lat="45.9015140" lon="10.2684810">
	<ele>1162.20</ele>
	<time>2025-04-30T07:00:40.000Z</time>
</trkpt>
<trkpt lat="45.9015170" lon="10.2684910">
	<ele>1162.40</ele>
	<time>2025-04-30T07:00:41.000Z</time>
</trkpt>
<trkpt lat="45.9015220" lon="10.2685050">
	<ele>1162.60</ele>
	<time>2025-04-30T07:00:42.000Z</time>
</trkpt>
<trkpt lat="45.9015230" lon="10.2685160">
	<ele>1162.60</ele>
	<time>2025-04-30T07:00:43.000Z</time>
</trkpt>
<trkpt lat="45.9015140" lon="10.2685340">
	<ele>1162.80</ele>
	<time>2025-04-30T07:00:44.000Z</time>
</trkpt>
<trkpt lat="45.9015000" lon="10.2685550">
	<ele>1163.00</ele>
	<time>2025-04-30T07:00:45.000Z</time>
</trkpt>
<trkpt lat="45.9014900" lon="10.2685670">
	<ele>1163.20</ele>
	<time>2025-04-30T07:00:46.000Z</time>
</trkpt>
<trkpt lat="45.9014910" lon="10.2685730">
	<ele>1163.40</ele>
	<time>2025-04-30T07:00:47.000Z</time>
</trkpt>
<trkpt lat="45.9014870" lon="10.2685800">
	<ele>1163.60</ele>
	<time>2025-04-30T07:00:48.000Z</time>
</trkpt>
<trkpt lat="45.9014840" lon="10.2685770">
	<ele>1163.60</ele>
	<time>2025-04-30T07:00:49.000Z</time>
</trkpt>
<trkpt lat="45.9014810" lon="10.2685860">
	<ele>1163.80</ele>
	<time>2025-04-30T07:00:50.000Z</time>
</trkpt>
<trkpt lat="45.9014750" lon="10.2685890">
	<ele>1164.00</ele>
	<time>2025-04-30T07:00:51.000Z</time>
</trkpt>
<trkpt lat="45.9014700" lon="10.2685830">
	<ele>1164.00</ele>
	<time>2025-04-30T07:00:52.000Z</time>
</trkpt>
<trkpt lat="45.9014650" lon="10.2685820">
	<ele>1164.00</ele>
	<time>2025-04-30T07:00:53.000Z</time>
</trkpt>
<trkpt lat="45.9014640" lon="10.2685850">
	<ele>1164.20</ele>
	<time>2025-04-30T07:00:54.000Z</time>
</trkpt>
<trkpt lat="45.9014610" lon="10.2685950">
	<ele>1164.20</ele>
	<time>2025-04-30T07:00:55.000Z</time>
</trkpt>
<trkpt lat="45.9014600" lon="10.2686150">
	<ele>1164.40</ele>
	<time>2025-04-30T07:00:56.000Z</time>
</trkpt>
<trkpt lat="45.9014540" lon="10.2686260">
	<ele>1164.60</ele>
	<time>2025-04-30T07:00:57.000Z</time>
</trkpt>
<trkpt lat="45.9014510" lon="10.2686360">
	<ele>1164.80</ele>
	<time>2025-04-30T07:00:58.000Z</time>
</trkpt>
<trkpt lat="45.9014470" lon="10.2686430">
	<ele>1164.80</ele>
	<time>2025-04-30T07:00:59.000Z</time>
</trkpt>
<trkpt lat="45.9014440" lon="10.2686510">
	<ele>1165.00</ele>
	<time>2025-04-30T07:01:00.000Z</time>
</trkpt>
<trkpt lat="45.9014380" lon="10.2686450">
	<ele>1165.20</ele>
	<time>2025-04-30T07:01:01.000Z</time>
</trkpt>
<trkpt lat="45.9014360" lon="10.2686460">
	<ele>1165.20</ele>
	<time>2025-04-30T07:01:02.000Z</time>
</trkpt>
<trkpt lat="45.9014320" lon="10.2686400">
	<ele>1165.40</ele>
	<time>2025-04-30T07:01:03.000Z</time>
</trkpt>
<trkpt lat="45.9014240" lon="10.2686260">
	<ele>1165.60</ele>
	<time>2025-04-30T07:01:04.000Z</time>
</trkpt>
<trkpt lat="45.9014130" lon="10.2686220">
	<ele>1165.80</ele>
	<time>2025-04-30T07:01:05.000Z</time>
</trkpt>
<trkpt lat="45.9014110" lon="10.2686220">
	<ele>1166.20</ele>
	<time>2025-04-30T07:01:06.000Z</time>
</trkpt>
<trkpt lat="45.9014120" lon="10.2686170">
	<ele>1166.40</ele>
	<time>2025-04-30T07:01:07.000Z</time>
</trkpt>
<trkpt lat="45.9014040" lon="10.2686200">
	<ele>1166.60</ele>
	<time>2025-04-30T07:01:08.000Z</time>
</trkpt>
<trkpt lat="45.9014020" lon="10.2686150">
	<ele>1166.60</ele>
	<time>2025-04-30T07:01:09.000Z</time>
</trkpt>
<trkpt lat="45.9014000" lon="10.2686120">
	<ele>1166.80</ele>
	<time>2025-04-30T07:01:10.000Z</time>
</trkpt>
<trkpt lat="45.9013990" lon="10.2686140">
	<ele>1167.00</ele>
	<time>2025-04-30T07:01:11.000Z</time>
</trkpt>
<trkpt lat="45.9014010" lon="10.2686180">
	<ele>1167.00</ele>
	<time>2025-04-30T07:01:12.000Z</time>
</trkpt>
<trkpt lat="45.9013990" lon="10.2686230">
	<ele>1167.40</ele>
	<time>2025-04-30T07:01:13.000Z</time>
</trkpt>
<trkpt lat="45.9013990" lon="10.2686270">
	<ele>1167.60</ele>
	<time>2025-04-30T07:01:14.000Z</time>
</trkpt>
<trkpt lat="45.9014020" lon="10.2686420">
	<ele>1167.60</ele>
	<time>2025-04-30T07:01:15.000Z</time>
</trkpt>
<trkpt lat="45.9014090" lon="10.2686670">
	<ele>1167.80</ele>
	<time>2025-04-30T07:01:16.000Z</time>
</trkpt>
<trkpt lat="45.9014130" lon="10.2686730">
	<ele>1168.00</ele>
	<time>2025-04-30T07:01:17.000Z</time>
</trkpt>
<trkpt lat="45.9014100" lon="10.2686740">
	<ele>1168.00</ele>
	<time>2025-04-30T07:01:18.000Z</time>
</trkpt>
<trkpt lat="45.9014070" lon="10.2686790">
	<ele>1168.20</ele>
	<time>2025-04-30T07:01:19.000Z</time>
</trkpt>
<trkpt lat="45.9014080" lon="10.2686870">
	<ele>1168.40</ele>
	<time>2025-04-30T07:01:20.000Z</time>
</trkpt>
<trkpt lat="45.9014120" lon="10.2687040">
	<ele>1168.60</ele>
	<time>2025-04-30T07:01:21.000Z</time>
</trkpt>
<trkpt lat="45.9014130" lon="10.2687120">
	<ele>1168.80</ele>
	<time>2025-04-30T07:01:22.000Z</time>
</trkpt>
<trkpt lat="45.9014130" lon="10.2687180">
	<ele>1169.00</ele>
	<time>2025-04-30T07:01:23.000Z</time>
</trkpt>
<trkpt lat="45.9014130" lon="10.2687210">
	<ele>1169.20</ele>
	<time>2025-04-30T07:01:24.000Z</time>
</trkpt>
<trkpt lat="45.9014160" lon="10.2687370">
	<ele>1169.40</ele>
	<time>2025-04-30T07:01:25.000Z</time>
</trkpt>
<trkpt lat="45.9014180" lon="10.2687360">
	<ele>1169.60</ele>
	<time>2025-04-30T07:01:26.000Z</time>
</trkpt>
<trkpt lat="45.9014180" lon="10.2687420">
	<ele>1169.60</ele>
	<time>2025-04-30T07:01:27.000Z</time>
</trkpt>
<trkpt lat="45.9014190" lon="10.2687460">
	<ele>1170.00</ele>
	<time>2025-04-30T07:01:28.000Z</time>
</trkpt>
<trkpt lat="45.9014140" lon="10.2687480">
	<ele>1170.20</ele>
	<time>2025-04-30T07:01:29.000Z</time>
</trkpt>
<trkpt lat="45.9014090" lon="10.2687420">
	<ele>1170.40</ele>
	<time>2025-04-30T07:01:30.000Z</time>
</trkpt>
<trkpt lat="45.9014070" lon="10.2687420">
	<ele>1170.40</ele>
	<time>2025-04-30T07:01:31.000Z</time>
</trkpt>
<trkpt lat="45.9013950" lon="10.2687380">
	<ele>1170.60</ele>
	<time>2025-04-30T07:01:32.000Z</time>
</trkpt>
<trkpt lat="45.9013930" lon="10.2687370">
	<ele>1171.00</ele>
	<time>2025-04-30T07:01:33.000Z</time>
</trkpt>
<trkpt lat="45.9013890" lon="10.2687370">
	<ele>1171.20</ele>
	<time>2025-04-30T07:01:34.000Z</time>
</trkpt>
<trkpt lat="45.9013870" lon="10.2687350">
	<ele>1171.40</ele>
	<time>2025-04-30T07:01:35.000Z</time>
</trkpt>
<trkpt lat="45.9013820" lon="10.2687480">
	<ele>1171.60</ele>
	<time>2025-04-30T07:01:36.000Z</time>
</trkpt>
<trkpt lat="45.9013780" lon="10.2687540">
	<ele>1171.60</ele>
	<time>2025-04-30T07:01:37.000Z</time>
</trkpt>
<trkpt lat="45.9013760" lon="10.2687710">
	<ele>1171.80</ele>
	<time>2025-04-30T07:01:38.000Z</time>
</trkpt>
<trkpt lat="45.9013730" lon="10.2687860">
	<ele>1172.00</ele>
	<time>2025-04-30T07:01:39.000Z</time>
</trkpt>
<trkpt lat="45.9013670" lon="10.2687980">
	<ele>1172.20</ele>
	<time>2025-04-30T07:01:40.000Z</time>
</trkpt>
<trkpt lat="45.9013630" lon="10.2687990">
	<ele>1172.40</ele>
	<time>2025-04-30T07:01:41.000Z</time>
</trkpt>
<trkpt lat="45.9013590" lon="10.2688030">
	<ele>1172.60</ele>
	<time>2025-04-30T07:01:42.000Z</time>
</trkpt>
<trkpt lat="45.9013540" lon="10.2688040">
	<ele>1172.80</ele>
	<time>2025-04-30T07:01:43.000Z</time>
</trkpt>
<trkpt lat="45.9013520" lon="10.2688050">
	<ele>1173.00</ele>
	<time>2025-04-30T07:01:44.000Z</time>
</trkpt>
<trkpt lat="45.9013480" lon="10.2688130">
	<ele>1173.00</ele>
	<time>2025-04-30T07:01:45.000Z</time>
</trkpt>
<trkpt lat="45.9013450" lon="10.2688250">
	<ele>1173.20</ele>
	<time>2025-04-30T07:01:46.000Z</time>
</trkpt>
<trkpt lat="45.9013530" lon="10.2688300">
	<ele>1173.40</ele>
	<time>2025-04-30T07:01:47.000Z</time>
</trkpt>
<trkpt lat="45.9013480" lon="10.2688250">
	<ele>1173.60</ele>
	<time>2025-04-30T07:01:48.000Z</time>
</trkpt>
<trkpt lat="45.9013420" lon="10.2688100">
	<ele>1173.80</ele>
	<time>2025-04-30T07:01:49.000Z</time>
</trkpt>
<trkpt lat="45.9013350" lon="10.2688100">
	<ele>1174.00</ele>
	<time>2025-04-30T07:01:50.000Z</time>
</trkpt>
<trkpt lat="45.9013250" lon="10.2688010">
	<ele>1174.20</ele>
	<time>2025-04-30T07:01:51.000Z</time>
</trkpt>
<trkpt lat="45.9013180" lon="10.2687930">
	<ele>1174.40</ele>
	<time>2025-04-30T07:01:52.000Z</time>
</trkpt>
<trkpt lat="45.9013150" lon="10.2687900">
	<ele>1174.60</ele>
	<time>2025-04-30T07:01:53.000Z</time>
</trkpt>
<trkpt lat="45.9013170" lon="10.2687860">
	<ele>1174.80</ele>
	<time>2025-04-30T07:01:54.000Z</time>
</trkpt>
<trkpt lat="45.9013140" lon="10.2688020">
	<ele>1175.00</ele>
	<time>2025-04-30T07:01:55.000Z</time>
</trkpt>
<trkpt lat="45.9013170" lon="10.2688170">
	<ele>1175.00</ele>
	<time>2025-04-30T07:01:56.000Z</time>
</trkpt>
<trkpt lat="45.9013070" lon="10.2687950">
	<ele>1175.20</ele>
	<time>2025-04-30T07:01:57.000Z</time>
</trkpt>
<trkpt lat="45.9013040" lon="10.2687890">
	<ele>1175.20</ele>
	<time>2025-04-30T07:01:58.000Z</time>
</trkpt>
<trkpt lat="45.9012960" lon="10.2687760">
	<ele>1175.60</ele>
	<time>2025-04-30T07:01:59.000Z</time>
</trkpt>
<trkpt lat="45.9012820" lon="10.2687600">
	<ele>1175.60</ele>
	<time>2025-04-30T07:02:00.000Z</time>
</trkpt>
<trkpt lat="45.9012730" lon="10.2687470">
	<ele>1176.00</ele>
	<time>2025-04-30T07:02:01.000Z</time>
</trkpt>
<trkpt lat="45.9012670" lon="10.2687450">
	<ele>1176.20</ele>
	<time>2025-04-30T07:02:02.000Z</time>
</trkpt>
<trkpt lat="45.9012650" lon="10.2687460">
	<ele>1176.40</ele>
	<time>2025-04-30T07:02:03.000Z</time>
</trkpt>
<trkpt lat="45.9012580" lon="10.2687420">
	<ele>1176.60</ele>
	<time>2025-04-30T07:02:04.000Z</time>
</trkpt>
<trkpt lat="45.9012470" lon="10.2687360">
	<ele>1176.80</ele>
	<time>2025-04-30T07:02:05.000Z</time>
</trkpt>
<trkpt lat="45.9012340" lon="10.2687430">
	<ele>1177.00</ele>
	<time>2025-04-30T07:02:06.000Z</time>
</trkpt>
<trkpt lat="45.9012290" lon="10.2687510">
	<ele>1177.00</ele>
	<time>2025-04-30T07:02:07.000Z</time>
</trkpt>
<trkpt lat="45.9012210" lon="10.2687600">
	<ele>1177.20</ele>
	<time>2025-04-30T07:02:08.000Z</time>
</trkpt>
<trkpt lat="45.9012150" lon="10.2687630">
	<ele>1177.20</ele>
	<time>2025-04-30T07:02:09.000Z</time>
</trkpt>
<trkpt lat="45.9012140" lon="10.2687730">
	<ele>1177.40</ele>
	<time>2025-04-30T07:02:10.000Z</time>
</trkpt>
<trkpt lat="45.9012100" lon="10.2687780">
	<ele>1177.40</ele>
	<time>2025-04-30T07:02:11.000Z</time>
</trkpt>
<trkpt lat="45.9012060" lon="10.2687750">
	<ele>1177.60</ele>
	<time>2025-04-30T07:02:12.000Z</time>
</trkpt>
<trkpt lat="45.9011990" lon="10.2687730">
	<ele>1177.60</ele>
	<time>2025-04-30T07:02:13.000Z</time>
</trkpt>
<trkpt lat="45.9011960" lon="10.2687690">
	<ele>1177.80</ele>
	<time>2025-04-30T07:02:14.000Z</time>
</trkpt>
<trkpt lat="45.9011870" lon="10.2687800">
	<ele>1178.00</ele>
	<time>2025-04-30T07:02:15.000Z</time>
</trkpt>
<trkpt lat="45.9011830" lon="10.2687840">
	<ele>1178.20</ele>
	<time>2025-04-30T07:02:16.000Z</time>
</trkpt>
<trkpt lat="45.9011800" lon="10.2687860">
	<ele>1178.40</ele>
	<time>2025-04-30T07:02:17.000Z</time>
</trkpt>
<trkpt lat="45.9011820" lon="10.2687830">
	<ele>1178.60</ele>
	<time>2025-04-30T07:02:18.000Z</time>
</trkpt>
<trkpt lat="45.9011790" lon="10.2688010">
	<ele>1178.60</ele>
	<time>2025-04-30T07:02:19.000Z</time>
</trkpt>
<trkpt lat="45.9011760" lon="10.2688070">
	<ele>1178.60</ele>
	<time>2025-04-30T07:02:20.000Z</time>
</trkpt>
<trkpt lat="45.9011710" lon="10.2688090">
	<ele>1178.80</ele>
	<time>2025-04-30T07:02:21.000Z</time>
</trkpt>
<trkpt lat="45.9011640" lon="10.2688110">
	<ele>1179.00</ele>
	<time>2025-04-30T07:02:22.000Z</time>
</trkpt>
<trkpt lat="45.9011630" lon="10.2688080">
	<ele>1179.00</ele>
	<time>2025-04-30T07:02:23.000Z</time>
</trkpt>
<trkpt lat="45.9011610" lon="10.2688110">
	<ele>1179.40</ele>
	<time>2025-04-30T07:02:24.000Z</time>
</trkpt>
<trkpt lat="45.9011530" lon="10.2688100">
	<ele>1179.40</ele>
	<time>2025-04-30T07:02:25.000Z</time>
</trkpt>
<trkpt lat="45.9011500" lon="10.2688130">
	<ele>1179.60</ele>
	<time>2025-04-30T07:02:26.000Z</time>
</trkpt>
<trkpt lat="45.9011480" lon="10.2688150">
	<ele>1179.80</ele>
	<time>2025-04-30T07:02:27.000Z</time>
</trkpt>
<trkpt lat="45.9011430" lon="10.2688150">
	<ele>1180.00</ele>
	<time>2025-04-30T07:02:28.000Z</time>
</trkpt>
<trkpt lat="45.9011380" lon="10.2688120">
	<ele>1180.20</ele>
	<time>2025-04-30T07:02:29.000Z</time>
</trkpt>
<trkpt lat="45.9011310" lon="10.2688090">
	<ele>1180.40</ele>
	<time>2025-04-30T07:02:30.000Z</time>
</trkpt>
<trkpt lat="45.9011280" lon="10.2688070">
	<ele>1180.60</ele>
	<time>2025-04-30T07:02:31.000Z</time>
</trkpt>
<trkpt lat="45.9011190" lon="10.2688020">
	<ele>1180.80</ele>
	<time>2025-04-30T07:02:32.000Z</time>
</trkpt>
<trkpt lat="45.9011150" lon="10.2688050">
	<ele>1180.80</ele>
	<time>2025-04-30T07:02:33.000Z</time>
</trkpt>
<trkpt lat="45.9011120" lon="10.2688060">
	<ele>1181.00</ele>
	<time>2025-04-30T07:02:34.000Z</time>
</trkpt>
<trkpt lat="45.9011070" lon="10.2688140">
	<ele>1181.20</ele>
	<time>2025-04-30T07:02:35.000Z</time>
</trkpt>
<trkpt lat="45.9010990" lon="10.2688110">
	<ele>1181.40</ele>
	<time>2025-04-30T07:02:36.000Z</time>
</trkpt>
<trkpt lat="45.9010960" lon="10.2688100">
	<ele>1181.60</ele>
	<time>2025-04-30T07:02:37.000Z</time>
</trkpt>
<trkpt lat="45.9010930" lon="10.2688130">
	<ele>1181.80</ele>
	<time>2025-04-30T07:02:38.000Z</time>
</trkpt>
<trkpt lat="45.9010900" lon="10.2688160">
	<ele>1182.00</ele>
	<time>2025-04-30T07:02:39.000Z</time>
</trkpt>
<trkpt lat="45.9010850" lon="10.2688250">
	<ele>1182.20</ele>
	<time>2025-04-30T07:02:40.000Z</time>
</trkpt>
<trkpt lat="45.9010890" lon="10.2688370">
	<ele>1182.40</ele>
	<time>2025-04-30T07:02:41.000Z</time>
</trkpt>
<trkpt lat="45.9010860" lon="10.2688360">
	<ele>1182.40</ele>
	<time>2025-04-30T07:02:42.000Z</time>
</trkpt>
<trkpt lat="45.9010820" lon="10.2688370">
	<ele>1182.40</ele>
	<time>2025-04-30T07:02:43.000Z</time>
</trkpt>
<trkpt lat="45.9010790" lon="10.2688380">
	<ele>1182.60</ele>
	<time>2025-04-30T07:02:44.000Z</time>
</trkpt>
<trkpt lat="45.9010780" lon="10.2688340">
	<ele>1182.80</ele>
	<time>2025-04-30T07:02:45.000Z</time>
</trkpt>
<trkpt lat="45.9010750" lon="10.2688380">
	<ele>1182.80</ele>
	<time>2025-04-30T07:02:46.000Z</time>
</trkpt>
<trkpt lat="45.9010720" lon="10.2688290">
	<ele>1183.20</ele>
	<time>2025-04-30T07:02:47.000Z</time>
</trkpt>
<trkpt lat="45.9010700" lon="10.2688260">
	<ele>1183.40</ele>
	<time>2025-04-30T07:02:48.000Z</time>
</trkpt>
<trkpt lat="45.9010680" lon="10.2688260">
	<ele>1183.80</ele>
	<time>2025-04-30T07:02:49.000Z</time>
</trkpt>
<trkpt lat="45.9010670" lon="10.2688260">
	<ele>1184.00</ele>
	<time>2025-04-30T07:02:50.000Z</time>
</trkpt>
<trkpt lat="45.9010620" lon="10.2688210">
	<ele>1184.00</ele>
	<time>2025-04-30T07:02:51.000Z</time>
</trkpt>
<trkpt lat="45.9010630" lon="10.2688210">
	<ele>1184.20</ele>
	<time>2025-04-30T07:02:52.000Z</time>
</trkpt>
<trkpt lat="45.9010610" lon="10.2688220">
	<ele>1184.40</ele>
	<time>2025-04-30T07:02:53.000Z</time>
</trkpt>
<trkpt lat="45.9010550" lon="10.2688160">
	<ele>1184.60</ele>
	<time>2025-04-30T07:02:54.000Z</time>
</trkpt>
<trkpt lat="45.9010440" lon="10.2688140">
	<ele>1184.60</ele>
	<time>2025-04-30T07:02:55.000Z</time>
</trkpt>
<trkpt lat="45.9010360" lon="10.2688060">
	<ele>1184.80</ele>
	<time>2025-04-30T07:02:56.000Z</time>
</trkpt>
<trkpt lat="45.9010310" lon="10.2688070">
	<ele>1185.00</ele>
	<time>2025-04-30T07:02:57.000Z</time>
</trkpt>
<trkpt lat="45.9010260" lon="10.2688060">
	<ele>1185.20</ele>
	<time>2025-04-30T07:02:58.000Z</time>
</trkpt>
<trkpt lat="45.9010160" lon="10.2688020">
	<ele>1185.40</ele>
	<time>2025-04-30T07:02:59.000Z</time>
</trkpt>
<trkpt lat="45.9010080" lon="10.2687960">
	<ele>1185.60</ele>
	<time>2025-04-30T07:03:00.000Z</time>
</trkpt>
<trkpt lat="45.9010050" lon="10.2687960">
	<ele>1185.60</ele>
	<time>2025-04-30T07:03:01.000Z</time>
</trkpt>
<trkpt lat="45.9010110" lon="10.2688090">
	<ele>1185.60</ele>
	<time>2025-04-30T07:03:02.000Z</time>
</trkpt>
<trkpt lat="45.9010120" lon="10.2688140">
	<ele>1185.80</ele>
	<time>2025-04-30T07:03:03.000Z</time>
</trkpt>
<trkpt lat="45.9010090" lon="10.2688150">
	<ele>1186.20</ele>
	<time>2025-04-30T07:03:04.000Z</time>
</trkpt>
<trkpt lat="45.9010020" lon="10.2688190">
	<ele>1186.40</ele>
	<time>2025-04-30T07:03:05.000Z</time>
</trkpt>
<trkpt lat="45.9009930" lon="10.2688220">
	<ele>1186.60</ele>
	<time>2025-04-30T07:03:06.000Z</time>
</trkpt>
<trkpt lat="45.9009910" lon="10.2688280">
	<ele>1186.60</ele>
	<time>2025-04-30T07:03:07.000Z</time>
</trkpt>
<trkpt lat="45.9009890" lon="10.2688290">
	<ele>1187.00</ele>
	<time>2025-04-30T07:03:08.000Z</time>
</trkpt>
<trkpt lat="45.9009840" lon="10.2688260">
	<ele>1187.00</ele>
	<time>2025-04-30T07:03:09.000Z</time>
</trkpt>
<trkpt lat="45.9009810" lon="10.2688240">
	<ele>1187.20</ele>
	<time>2025-04-30T07:03:10.000Z</time>
</trkpt>
<trkpt lat="45.9009710" lon="10.2688160">
	<ele>1187.40</ele>
	<time>2025-04-30T07:03:11.000Z</time>
</trkpt>
<trkpt lat="45.9009670" lon="10.2688070">
	<ele>1187.40</ele>
	<time>2025-04-30T07:03:12.000Z</time>
</trkpt>
<trkpt lat="45.9009630" lon="10.2688020">
	<ele>1187.80</ele>
	<time>2025-04-30T07:03:13.000Z</time>
</trkpt>
<trkpt lat="45.9009580" lon="10.2688050">
	<ele>1187.80</ele>
	<time>2025-04-30T07:03:14.000Z</time>
</trkpt>
<trkpt lat="45.9009550" lon="10.2688050">
	<ele>1188.00</ele>
	<time>2025-04-30T07:03:15.000Z</time>
</trkpt>
<trkpt lat="45.9009510" lon="10.2688110">
	<ele>1188.00</ele>
	<time>2025-04-30T07:03:16.000Z</time>
</trkpt>
<trkpt lat="45.9009420" lon="10.2688160">
	<ele>1188.00</ele>
	<time>2025-04-30T07:03:17.000Z</time>
</trkpt>
<trkpt lat="45.9009350" lon="10.2688160">
	<ele>1188.00</ele>
	<time>2025-04-30T07:03:18.000Z</time>
</trkpt>
<trkpt lat="45.9009320" lon="10.2688190">
	<ele>1188.20</ele>
	<time>2025-04-30T07:03:19.000Z</time>
</trkpt>
<trkpt lat="45.9009240" lon="10.2688200">
	<ele>1188.20</ele>
	<time>2025-04-30T07:03:20.000Z</time>
</trkpt>
<trkpt lat="45.9009180" lon="10.2688190">
	<ele>1188.20</ele>
	<time>2025-04-30T07:03:21.000Z</time>
</trkpt>
<trkpt lat="45.9009160" lon="10.2688190">
	<ele>1188.60</ele>
	<time>2025-04-30T07:03:22.000Z</time>
</trkpt>
<trkpt lat="45.9009050" lon="10.2688140">
	<ele>1188.60</ele>
	<time>2025-04-30T07:03:23.000Z</time>
</trkpt>
<trkpt lat="45.9008960" lon="10.2688110">
	<ele>1188.80</ele>
	<time>2025-04-30T07:03:24.000Z</time>
</trkpt>
<trkpt lat="45.9008920" lon="10.2688130">
	<ele>1189.00</ele>
	<time>2025-04-30T07:03:25.000Z</time>
</trkpt>
<trkpt lat="45.9008940" lon="10.2688250">
	<ele>1189.00</ele>
	<time>2025-04-30T07:03:26.000Z</time>
</trkpt>
<trkpt lat="45.9008980" lon="10.2688400">
	<ele>1189.20</ele>
	<time>2025-04-30T07:03:27.000Z</time>
</trkpt>
<trkpt lat="45.9008950" lon="10.2688590">
	<ele>1189.20</ele>
	<time>2025-04-30T07:03:28.000Z</time>
</trkpt>
<trkpt lat="45.9008850" lon="10.2688710">
	<ele>1189.60</ele>
	<time>2025-04-30T07:03:29.000Z</time>
</trkpt>
<trkpt lat="45.9008690" lon="10.2688810">
	<ele>1190.00</ele>
	<time>2025-04-30T07:03:30.000Z</time>
</trkpt>
<trkpt lat="45.9008650" lon="10.2688870">
	<ele>1190.20</ele>
	<time>2025-04-30T07:03:31.000Z</time>
</trkpt>
<trkpt lat="45.9008590" lon="10.2688900">
	<ele>1190.60</ele>
	<time>2025-04-30T07:03:32.000Z</time>
</trkpt>
<trkpt lat="45.9008500" lon="10.2688850">
	<ele>1190.60</ele>
	<time>2025-04-30T07:03:33.000Z</time>
</trkpt>
<trkpt lat="45.9008520" lon="10.2688910">
	<ele>1190.80</ele>
	<time>2025-04-30T07:03:34.000Z</time>
</trkpt>
<trkpt lat="45.9008520" lon="10.2688920">
	<ele>1191.00</ele>
	<time>2025-04-30T07:03:35.000Z</time>
</trkpt>
<trkpt lat="45.9008460" lon="10.2688950">
	<ele>1191.00</ele>
	<time>2025-04-30T07:03:36.000Z</time>
</trkpt>
<trkpt lat="45.9008430" lon="10.2688960">
	<ele>1191.20</ele>
	<time>2025-04-30T07:03:37.000Z</time>
</trkpt>
<trkpt lat="45.9008360" lon="10.2688980">
	<ele>1191.20</ele>
	<time>2025-04-30T07:03:38.000Z</time>
</trkpt>
<trkpt lat="45.9008290" lon="10.2688960">
	<ele>1191.40</ele>
	<time>2025-04-30T07:03:39.000Z</time>
</trkpt>
<trkpt lat="45.9008260" lon="10.2688970">
	<ele>1191.60</ele>
	<time>2025-04-30T07:03:40.000Z</time>
</trkpt>
<trkpt lat="45.9008220" lon="10.2689000">
	<ele>1191.60</ele>
	<time>2025-04-30T07:03:41.000Z</time>
</trkpt>
<trkpt lat="45.9008190" lon="10.2688970">
	<ele>1191.80</ele>
	<time>2025-04-30T07:03:42.000Z</time>
</trkpt>
<trkpt lat="45.9008180" lon="10.2688960">
	<ele>1192.00</ele>
	<time>2025-04-30T07:03:43.000Z</time>
</trkpt>
<trkpt lat="45.9008160" lon="10.2688970">
	<ele>1192.20</ele>
	<time>2025-04-30T07:03:44.000Z</time>
</trkpt>
<trkpt lat="45.9008130" lon="10.2688920">
	<ele>1192.40</ele>
	<time>2025-04-30T07:03:45.000Z</time>
</trkpt>
<trkpt lat="45.9008140" lon="10.2688920">
	<ele>1192.60</ele>
	<time>2025-04-30T07:03:46.000Z</time>
</trkpt>
<trkpt lat="45.9008150" lon="10.2688940">
	<ele>1192.60</ele>
	<time>2025-04-30T07:03:47.000Z</time>
</trkpt>
<trkpt lat="45.9008170" lon="10.2688970">
	<ele>1192.80</ele>
	<time>2025-04-30T07:03:48.000Z</time>
</trkpt>
<trkpt lat="45.9008070" lon="10.2688920">
	<ele>1193.00</ele>
	<time>2025-04-30T07:03:49.000Z</time>
</trkpt>
<trkpt lat="45.9007990" lon="10.2688880">
	<ele>1193.20</ele>
	<time>2025-04-30T07:03:50.000Z</time>
</trkpt>
<trkpt lat="45.9007960" lon="10.2688900">
	<ele>1193.40</ele>
	<time>2025-04-30T07:03:51.000Z</time>
</trkpt>
<trkpt lat="45.9007910" lon="10.2688920">
	<ele>1193.40</ele>
	<time>2025-04-30T07:03:52.000Z</time>
</trkpt>
<trkpt lat="45.9007820" lon="10.2688820">
	<ele>1193.60</ele>
	<time>2025-04-30T07:03:53.000Z</time>
</trkpt>
<trkpt lat="45.9007770" lon="10.2688770">
	<ele>1193.80</ele>
	<time>2025-04-30T07:03:54.000Z</time>
</trkpt>
<trkpt lat="45.9007760" lon="10.2688750">
	<ele>1194.00</ele>
	<time>2025-04-30T07:03:55.000Z</time>
</trkpt>
<trkpt lat="45.9007640" lon="10.2688750">
	<ele>1194.40</ele>
	<time>2025-04-30T07:03:56.000Z</time>
</trkpt>
<trkpt lat="45.9007460" lon="10.2688830">
	<ele>1194.40</ele>
	<time>2025-04-30T07:03:57.000Z</time>
</trkpt>
<trkpt lat="45.9007220" lon="10.2688930">
	<ele>1194.80</ele>
	<time>2025-04-30T07:03:58.000Z</time>
</trkpt>
<trkpt lat="45.9006950" lon="10.2689060">
	<ele>1194.80</ele>
	<time>2025-04-30T07:03:59.000Z</time>
</trkpt>
<trkpt lat="45.9006730" lon="10.2689070">
	<ele>1195.00</ele>
	<time>2025-04-30T07:04:00.000Z</time>
</trkpt>
<trkpt lat="45.9006600" lon="10.2689130">
	<ele>1195.20</ele>
	<time>2025-04-30T07:04:01.000Z</time>
</trkpt>
<trkpt lat="45.9006500" lon="10.2689120">
	<ele>1195.20</ele>
	<time>2025-04-30T07:04:02.000Z</time>
</trkpt>
<trkpt lat="45.9006470" lon="10.2689160">
	<ele>1195.40</ele>
	<time>2025-04-30T07:04:03.000Z</time>
</trkpt>
<trkpt lat="45.9006480" lon="10.2689190">
	<ele>1195.60</ele>
	<time>2025-04-30T07:04:04.000Z</time>
</trkpt>
<trkpt lat="45.9006560" lon="10.2689270">
	<ele>1195.80</ele>
	<time>2025-04-30T07:04:05.000Z</time>
</trkpt>
<trkpt lat="45.9006520" lon="10.2689330">
	<ele>1196.00</ele>
	<time>2025-04-30T07:04:06.000Z</time>
</trkpt>
<trkpt lat="45.9006480" lon="10.2689390">
	<ele>1196.20</ele>
	<time>2025-04-30T07:04:07.000Z</time>
</trkpt>
<trkpt lat="45.9006440" lon="10.2689410">
	<ele>1196.40</ele>
	<time>2025-04-30T07:04:08.000Z</time>
</trkpt>
<trkpt lat="45.9006400" lon="10.2689410">
	<ele>1196.80</ele>
	<time>2025-04-30T07:04:09.000Z</time>
</trkpt>
<trkpt lat="45.9006400" lon="10.2689400">
	<ele>1197.00</ele>
	<time>2025-04-30T07:04:10.000Z</time>
</trkpt>
<trkpt lat="45.9006570" lon="10.2689670">
	<ele>1197.00</ele>
	<time>2025-04-30T07:04:11.000Z</time>
</trkpt>
<trkpt lat="45.9006620" lon="10.2689790">
	<ele>1197.20</ele>
	<time>2025-04-30T07:04:12.000Z</time>
</trkpt>
<trkpt lat="45.9006590" lon="10.2689790">
	<ele>1197.40</ele>
	<time>2025-04-30T07:04:13.000Z</time>
</trkpt>
<trkpt lat="45.9006530" lon="10.2689710">
	<ele>1197.60</ele>
	<time>2025-04-30T07:04:14.000Z</time>
</trkpt>
<trkpt lat="45.9006450" lon="10.2689630">
	<ele>1197.60</ele>
	<time>2025-04-30T07:04:15.000Z</time>
</trkpt>
<trkpt lat="45.9006460" lon="10.2689590">
	<ele>1197.80</ele>
	<time>2025-04-30T07:04:16.000Z</time>
</trkpt>
<trkpt lat="45.9006400" lon="10.2689460">
	<ele>1198.00</ele>
	<time>2025-04-30T07:04:17.000Z</time>
</trkpt>
<trkpt lat="45.9006300" lon="10.2689400">
	<ele>1198.20</ele>
	<time>2025-04-30T07:04:18.000Z</time>
</trkpt>
<trkpt lat="45.9006250" lon="10.2689280">
	<ele>1198.20</ele>
	<time>2025-04-30T07:04:19.000Z</time>
</trkpt>
<trkpt lat="45.9006260" lon="10.2689200">
	<ele>1198.60</ele>
	<time>2025-04-30T07:04:20.000Z</time>
</trkpt>
<trkpt lat="45.9006240" lon="10.2689200">
	<ele>1198.60</ele>
	<time>2025-04-30T07:04:21.000Z</time>
</trkpt>
<trkpt lat="45.9006190" lon="10.2689250">
	<ele>1198.80</ele>
	<time>2025-04-30T07:04:22.000Z</time>
</trkpt>
<trkpt lat="45.9006140" lon="10.2689350">
	<ele>1199.00</ele>
	<time>2025-04-30T07:04:23.000Z</time>
</trkpt>
<trkpt lat="45.9006130" lon="10.2689340">
	<ele>1199.20</ele>
	<time>2025-04-30T07:04:24.000Z</time>
</trkpt>
<trkpt lat="45.9006080" lon="10.2689290">
	<ele>1199.20</ele>
	<time>2025-04-30T07:04:25.000Z</time>
</trkpt>
<trkpt lat="45.9005970" lon="10.2689170">
	<ele>1199.60</ele>
	<time>2025-04-30T07:04:26.000Z</time>
</trkpt>
<trkpt lat="45.9005920" lon="10.2689060">
	<ele>1199.80</ele>
	<time>2025-04-30T07:04:27.000Z</time>
</trkpt>
<trkpt lat="45.9005900" lon="10.2689040">
	<ele>1200.00</ele>
	<time>2025-04-30T07:04:28.000Z</time>
</trkpt>
<trkpt lat="45.9005920" lon="10.2689150">
	<ele>1200.20</ele>
	<time>2025-04-30T07:04:29.000Z</time>
</trkpt>
<trkpt lat="45.9006030" lon="10.2689370">
	<ele>1200.40</ele>
	<time>2025-04-30T07:04:30.000Z</time>
</trkpt>
<trkpt lat="45.9006040" lon="10.2689440">
	<ele>1200.60</ele>
	<time>2025-04-30T07:04:31.000Z</time>
</trkpt>
<trkpt lat="45.9006010" lon="10.2689450">
	<ele>1201.00</ele>
	<time>2025-04-30T07:04:32.000Z</time>
</trkpt>
<trkpt lat="45.9005980" lon="10.2689530">
	<ele>1201.00</ele>
	<time>2025-04-30T07:04:33.000Z</time>
</trkpt>
<trkpt lat="45.9005930" lon="10.2689540">
	<ele>1201.20</ele>
	<time>2025-04-30T07:04:34.000Z</time>
</trkpt>
<trkpt lat="45.9005920" lon="10.2689550">
	<ele>1201.40</ele>
	<time>2025-04-30T07:04:35.000Z</time>
</trkpt>
<trkpt lat="45.9005880" lon="10.2689480">
	<ele>1201.40</ele>
	<time>2025-04-30T07:04:36.000Z</time>
</trkpt>
<trkpt lat="45.9005830" lon="10.2689530">
	<ele>1201.80</ele>
	<time>2025-04-30T07:04:37.000Z</time>
</trkpt>
<trkpt lat="45.9005820" lon="10.2689590">
	<ele>1202.00</ele>
	<time>2025-04-30T07:04:38.000Z</time>
</trkpt>
<trkpt lat="45.9005730" lon="10.2689590">
	<ele>1202.20</ele>
	<time>2025-04-30T07:04:39.000Z</time>
</trkpt>
<trkpt lat="45.9005700" lon="10.2689620">
	<ele>1202.40</ele>
	<time>2025-04-30T07:04:40.000Z</time>
</trkpt>
<trkpt lat="45.9005600" lon="10.2689650">
	<ele>1202.60</ele>
	<time>2025-04-30T07:04:41.000Z</time>
</trkpt>
<trkpt lat="45.9005590" lon="10.2689700">
	<ele>1202.80</ele>
	<time>2025-04-30T07:04:42.000Z</time>
</trkpt>
<trkpt lat="45.9005600" lon="10.2689720">
	<ele>1202.80</ele>
	<time>2025-04-30T07:04:43.000Z</time>
</trkpt>
<trkpt lat="45.9005620" lon="10.2689690">
	<ele>1203.20</ele>
	<time>2025-04-30T07:04:44.000Z</time>
</trkpt>
<trkpt lat="45.9005600" lon="10.2689770">
	<ele>1203.40</ele>
	<time>2025-04-30T07:04:45.000Z</time>
</trkpt>
<trkpt lat="45.9005470" lon="10.2689700">
	<ele>1203.60</ele>
	<time>2025-04-30T07:04:46.000Z</time>
</trkpt>
<trkpt lat="45.9005340" lon="10.2689620">
	<ele>1203.60</ele>
	<time>2025-04-30T07:04:47.000Z</time>
</trkpt>
<trkpt lat="45.9005290" lon="10.2689610">
	<ele>1203.80</ele>
	<time>2025-04-30T07:04:48.000Z</time>
</trkpt>
<trkpt lat="45.9005190" lon="10.2689590">
	<ele>1204.00</ele>
	<time>2025-04-30T07:04:49.000Z</time>
</trkpt>
<trkpt lat="45.9005040" lon="10.2689590">
	<ele>1204.20</ele>
	<time>2025-04-30T07:04:50.000Z</time>
</trkpt>
<trkpt lat="45.9004930" lon="10.2689510">
	<ele>1204.40</ele>
	<time>2025-04-30T07:04:51.000Z</time>
</trkpt>
<trkpt lat="45.9004810" lon="10.2689400">
	<ele>1204.40</ele>
	<time>2025-04-30T07:04:52.000Z</time>
</trkpt>
<trkpt lat="45.9004710" lon="10.2689280">
	<ele>1204.40</ele>
	<time>2025-04-30T07:04:53.000Z</time>
</trkpt>
<trkpt lat="45.9004560" lon="10.2689190">
	<ele>1204.60</ele>
	<time>2025-04-30T07:04:54.000Z</time>
</trkpt>
<trkpt lat="45.9004420" lon="10.2689160">
	<ele>1204.80</ele>
	<time>2025-04-30T07:04:55.000Z</time>
</trkpt>
<trkpt lat="45.9004190" lon="10.2689220">
	<ele>1204.80</ele>
	<time>2025-04-30T07:04:56.000Z</time>
</trkpt>
<trkpt lat="45.9004120" lon="10.2689220">
	<ele>1205.00</ele>
	<time>2025-04-30T07:04:57.000Z</time>
</trkpt>
<trkpt lat="45.9004080" lon="10.2689290">
	<ele>1205.20</ele>
	<time>2025-04-30T07:04:58.000Z</time>
</trkpt>
<trkpt lat="45.9004050" lon="10.2689360">
	<ele>1205.40</ele>
	<time>2025-04-30T07:04:59.000Z</time>
</trkpt>
<trkpt lat="45.9003990" lon="10.2689430">
	<ele>1205.40</ele>
	<time>2025-04-30T07:05:00.000Z</time>
</trkpt>
<trkpt lat="45.9003900" lon="10.2689630">
	<ele>1205.60</ele>
	<time>2025-04-30T07:05:01.000Z</time>
</trkpt>
<trkpt lat="45.9003910" lon="10.2689900">
	<ele>1205.80</ele>
	<time>2025-04-30T07:05:02.000Z</time>
</trkpt>
<trkpt lat="45.9003900" lon="10.2689960">
	<ele>1205.80</ele>
	<time>2025-04-30T07:05:03.000Z</time>
</trkpt>
<trkpt lat="45.9003980" lon="10.2690090">
	<ele>1206.20</ele>
	<time>2025-04-30T07:05:04.000Z</time>
</trkpt>
<trkpt lat="45.9004070" lon="10.2690250">
	<ele>1206.40</ele>
	<time>2025-04-30T07:05:05.000Z</time>
</trkpt>
<trkpt lat="45.9004130" lon="10.2690380">
	<ele>1206.60</ele>
	<time>2025-04-30T07:05:06.000Z</time>
</trkpt>
<trkpt lat="45.9004160" lon="10.2690400">
	<ele>1206.60</ele>
	<time>2025-04-30T07:05:07.000Z</time>
</trkpt>
<trkpt lat="45.9004210" lon="10.2690540">
	<ele>1207.00</ele>
	<time>2025-04-30T07:05:08.000Z</time>
</trkpt>
<trkpt lat="45.9004200" lon="10.2690630">
	<ele>1207.00</ele>
	<time>2025-04-30T07:05:09.000Z</time>
</trkpt>
<trkpt lat="45.9004210" lon="10.2690720">
	<ele>1207.20</ele>
	<time>2025-04-30T07:05:10.000Z</time>
</trkpt>
<trkpt lat="45.9004170" lon="10.2690850">
	<ele>1207.20</ele>
	<time>2025-04-30T07:05:11.000Z</time>
</trkpt>
<trkpt lat="45.9004130" lon="10.2690970">
	<ele>1207.40</ele>
	<time>2025-04-30T07:05:12.000Z</time>
</trkpt>
<trkpt lat="45.9004040" lon="10.2690960">
	<ele>1207.40</ele>
	<time>2025-04-30T07:05:13.000Z</time>
</trkpt>
<trkpt lat="45.9003920" lon="10.2690940">
	<ele>1207.40</ele>
	<time>2025-04-30T07:05:14.000Z</time>
</trkpt>
<trkpt lat="45.9003860" lon="10.2690990">
	<ele>1207.60</ele>
	<time>2025-04-30T07:05:15.000Z</time>
</trkpt>
<trkpt lat="45.9003800" lon="10.2691010">
	<ele>1207.80</ele>
	<time>2025-04-30T07:05:16.000Z</time>
</trkpt>
<trkpt lat="45.9003740" lon="10.2691100">
	<ele>1208.00</ele>
	<time>2025-04-30T07:05:17.000Z</time>
</trkpt>
<trkpt lat="45.9003710" lon="10.2691160">
	<ele>1208.20</ele>
	<time>2025-04-30T07:05:18.000Z</time>
</trkpt>
<trkpt lat="45.9003680" lon="10.2691180">
	<ele>1208.40</ele>
	<time>2025-04-30T07:05:19.000Z</time>
</trkpt>
<trkpt lat="45.9003650" lon="10.2691270">
	<ele>1208.60</ele>
	<time>2025-04-30T07:05:20.000Z</time>
</trkpt>
<trkpt lat="45.9003690" lon="10.2691500">
	<ele>1208.80</ele>
	<time>2025-04-30T07:05:21.000Z</time>
</trkpt>
<trkpt lat="45.9003690" lon="10.2691550">
	<ele>1208.80</ele>
	<time>2025-04-30T07:05:22.000Z</time>
</trkpt>
<trkpt lat="45.9003620" lon="10.2691570">
	<ele>1209.00</ele>
	<time>2025-04-30T07:05:23.000Z</time>
</trkpt>
<trkpt lat="45.9003570" lon="10.2691660">
	<ele>1209.20</ele>
	<time>2025-04-30T07:05:24.000Z</time>
</trkpt>
<trkpt lat="45.9003580" lon="10.2691800">
	<ele>1209.40</ele>
	<time>2025-04-30T07:05:25.000Z</time>
</trkpt>
<trkpt lat="45.9003510" lon="10.2691800">
	<ele>1209.60</ele>
	<time>2025-04-30T07:05:26.000Z</time>
</trkpt>
<trkpt lat="45.9003500" lon="10.2691880">
	<ele>1209.80</ele>
	<time>2025-04-30T07:05:27.000Z</time>
</trkpt>
<trkpt lat="45.9003610" lon="10.2692060">
	<ele>1210.00</ele>
	<time>2025-04-30T07:05:28.000Z</time>
</trkpt>
<trkpt lat="45.9003680" lon="10.2692250">
	<ele>1210.20</ele>
	<time>2025-04-30T07:05:29.000Z</time>
</trkpt>
<trkpt lat="45.9003710" lon="10.2692320">
	<ele>1210.20</ele>
	<time>2025-04-30T07:05:30.000Z</time>
</trkpt>
<trkpt lat="45.9003670" lon="10.2692380">
	<ele>1210.40</ele>
	<time>2025-04-30T07:05:31.000Z</time>
</trkpt>
<trkpt lat="45.9003560" lon="10.2692320">
	<ele>1210.60</ele>
	<time>2025-04-30T07:05:32.000Z</time>
</trkpt>
<trkpt lat="45.9003460" lon="10.2692230">
	<ele>1210.80</ele>
	<time>2025-04-30T07:05:33.000Z</time>
</trkpt>
<trkpt lat="45.9003390" lon="10.2692180">
	<ele>1211.00</ele>
	<time>2025-04-30T07:05:34.000Z</time>
</trkpt>
<trkpt lat="45.9003310" lon="10.2692090">
	<ele>1211.20</ele>
	<time>2025-04-30T07:05:35.000Z</time>
</trkpt>
<trkpt lat="45.9003310" lon="10.2692080">
	<ele>1211.40</ele>
	<time>2025-04-30T07:05:36.000Z</time>
</trkpt>
<trkpt lat="45.9003260" lon="10.2691970">
	<ele>1211.60</ele>
	<time>2025-04-30T07:05:37.000Z</time>
</trkpt>
<trkpt lat="45.9003200" lon="10.2691880">
	<ele>1211.60</ele>
	<time>2025-04-30T07:05:38.000Z</time>
</trkpt>
<trkpt lat="45.9003030" lon="10.2691740">
	<ele>1211.80</ele>
	<time>2025-04-30T07:05:39.000Z</time>
</trkpt>
<trkpt lat="45.9002920" lon="10.2691730">
	<ele>1212.00</ele>
	<time>2025-04-30T07:05:40.000Z</time>
</trkpt>
<trkpt lat="45.9002880" lon="10.2691800">
	<ele>1212.00</ele>
	<time>2025-04-30T07:05:41.000Z</time>
</trkpt>
<trkpt lat="45.9002790" lon="10.2691730">
	<ele>1212.20</ele>
	<time>2025-04-30T07:05:42.000Z</time>
</trkpt>
<trkpt lat="45.9002640" lon="10.2691550">
	<ele>1212.40</ele>
	<time>2025-04-30T07:05:43.000Z</time>
</trkpt>
<trkpt lat="45.9002590" lon="10.2691480">
	<ele>1212.40</ele>
	<time>2025-04-30T07:05:44.000Z</time>
</trkpt>
<trkpt lat="45.9002480" lon="10.2691340">
	<ele>1212.60</ele>
	<time>2025-04-30T07:05:45.000Z</time>
</trkpt>
<trkpt lat="45.9002370" lon="10.2691260">
	<ele>1212.80</ele>
	<time>2025-04-30T07:05:46.000Z</time>
</trkpt>
<trkpt lat="45.9002270" lon="10.2691230">
	<ele>1212.80</ele>
	<time>2025-04-30T07:05:47.000Z</time>
</trkpt>
<trkpt lat="45.9002230" lon="10.2691130">
	<ele>1213.00</ele>
	<time>2025-04-30T07:05:48.000Z</time>
</trkpt>
<trkpt lat="45.9002130" lon="10.2691130">
	<ele>1213.20</ele>
	<time>2025-04-30T07:05:49.000Z</time>
</trkpt>
<trkpt lat="45.9002160" lon="10.2691210">
	<ele>1213.20</ele>
	<time>2025-04-30T07:05:50.000Z</time>
</trkpt>
<trkpt lat="45.9002060" lon="10.2691190">
	<ele>1213.40</ele>
	<time>2025-04-30T07:05:51.000Z</time>
</trkpt>
<trkpt lat="45.9001970" lon="10.2691200">
	<ele>1213.60</ele>
	<time>2025-04-30T07:05:52.000Z</time>
</trkpt>
<trkpt lat="45.9002010" lon="10.2691340">
	<ele>1213.60</ele>
	<time>2025-04-30T07:05:53.000Z</time>
</trkpt>
<trkpt lat="45.9001970" lon="10.2691410">
	<ele>1213.60</ele>
	<time>2025-04-30T07:05:54.000Z</time>
</trkpt>
<trkpt lat="45.9002030" lon="10.2691590">
	<ele>1213.60</ele>
	<time>2025-04-30T07:05:55.000Z</time>
</trkpt>
<trkpt lat="45.9002060" lon="10.2691700">
	<ele>1213.80</ele>
	<time>2025-04-30T07:05:56.000Z</time>
</trkpt>
<trkpt lat="45.9002020" lon="10.2691820">
	<ele>1213.80</ele>
	<time>2025-04-30T07:05:57.000Z</time>
</trkpt>
<trkpt lat="45.9001990" lon="10.2691780">
	<ele>1213.80</ele>
	<time>2025-04-30T07:05:58.000Z</time>
</trkpt>
<trkpt lat="45.9001980" lon="10.2691780">
	<ele>1214.00</ele>
	<time>2025-04-30T07:05:59.000Z</time>
</trkpt>
<trkpt lat="45.9001940" lon="10.2691820">
	<ele>1214.20</ele>
	<time>2025-04-30T07:06:00.000Z</time>
</trkpt>
<trkpt lat="45.9001930" lon="10.2691850">
	<ele>1214.40</ele>
	<time>2025-04-30T07:06:01.000Z</time>
</trkpt>
<trkpt lat="45.9001730" lon="10.2691600">
	<ele>1214.40</ele>
	<time>2025-04-30T07:06:02.000Z</time>
</trkpt>
<trkpt lat="45.9001600" lon="10.2691520">
	<ele>1214.40</ele>
	<time>2025-04-30T07:06:03.000Z</time>
</trkpt>
<trkpt lat="45.9001630" lon="10.2691560">
	<ele>1214.80</ele>
	<time>2025-04-30T07:06:04.000Z</time>
</trkpt>
<trkpt lat="45.9001650" lon="10.2691670">
	<ele>1214.80</ele>
	<time>2025-04-30T07:06:05.000Z</time>
</trkpt>
<trkpt lat="45.9001570" lon="10.2691660">
	<ele>1215.00</ele>
	<time>2025-04-30T07:06:06.000Z</time>
</trkpt>
<trkpt lat="45.9001480" lon="10.2691630">
	<ele>1215.20</ele>
	<time>2025-04-30T07:06:07.000Z</time>
</trkpt>
<trkpt lat="45.9001370" lon="10.2691570">
	<ele>1215.20</ele>
	<time>2025-04-30T07:06:08.000Z</time>
</trkpt>
<trkpt lat="45.9001310" lon="10.2691510">
	<ele>1215.40</ele>
	<time>2025-04-30T07:06:09.000Z</time>
</trkpt>
<trkpt lat="45.9001280" lon="10.2691450">
	<ele>1215.60</ele>
	<time>2025-04-30T07:06:10.000Z</time>
</trkpt>
<trkpt lat="45.9001230" lon="10.2691360">
	<ele>1215.80</ele>
	<time>2025-04-30T07:06:11.000Z</time>
</trkpt>
<trkpt lat="45.9001150" lon="10.2691250">
	<ele>1216.00</ele>
	<time>2025-04-30T07:06:12.000Z</time>
</trkpt>
<trkpt lat="45.9001190" lon="10.2691160">
	<ele>1216.20</ele>
	<time>2025-04-30T07:06:13.000Z</time>
</trkpt>
<trkpt lat="45.9001170" lon="10.2690910">
	<ele>1216.40</ele>
	<time>2025-04-30T07:06:14.000Z</time>
</trkpt>
<trkpt lat="45.9001170" lon="10.2690770">
	<ele>1216.60</ele>
	<time>2025-04-30T07:06:15.000Z</time>
</trkpt>
<trkpt lat="45.9001100" lon="10.2690640">
	<ele>1216.60</ele>
	<time>2025-04-30T07:06:16.000Z</time>
</trkpt>
<trkpt lat="45.9001120" lon="10.2690840">
	<ele>1216.80</ele>
	<time>2025-04-30T07:06:17.000Z</time>
</trkpt>
<trkpt lat="45.9001170" lon="10.2690860">
	<ele>1216.80</ele>
	<time>2025-04-30T07:06:18.000Z</time>
</trkpt>
<trkpt lat="45.9001110" lon="10.2690700">
	<ele>1216.80</ele>
	<time>2025-04-30T07:06:19.000Z</time>
</trkpt>
<trkpt lat="45.9001060" lon="10.2690530">
	<ele>1217.00</ele>
	<time>2025-04-30T07:06:20.000Z</time>
</trkpt>
<trkpt lat="45.9001020" lon="10.2690390">
	<ele>1217.00</ele>
	<time>2025-04-30T07:06:21.000Z</time>
</trkpt>
<trkpt lat="45.9000980" lon="10.2690250">
	<ele>1217.00</ele>
	<time>2025-04-30T07:06:22.000Z</time>
</trkpt>
<trkpt lat="45.9001000" lon="10.2690110">
	<ele>1217.00</ele>
	<time>2025-04-30T07:06:23.000Z</time>
</trkpt>
<trkpt lat="45.9001080" lon="10.2690020">
	<ele>1217.00</ele>
	<time>2025-04-30T07:06:24.000Z</time>
</trkpt>
<trkpt lat="45.9001070" lon="10.2689940">
	<ele>1217.00</ele>
	<time>2025-04-30T07:06:25.000Z</time>
</trkpt>
<trkpt lat="45.9001050" lon="10.2689850">
	<ele>1217.00</ele>
	<time>2025-04-30T07:06:26.000Z</time>
</trkpt>
<trkpt lat="45.9001010" lon="10.2689740">
	<ele>1217.00</ele>
	<time>2025-04-30T07:06:27.000Z</time>
</trkpt>
<trkpt lat="45.9000950" lon="10.2689520">
	<ele>1217.20</ele>
	<time>2025-04-30T07:06:28.000Z</time>
</trkpt>
<trkpt lat="45.9000940" lon="10.2689370">
	<ele>1217.20</ele>
	<time>2025-04-30T07:06:29.000Z</time>
</trkpt>
<trkpt lat="45.9000880" lon="10.2689180">
	<ele>1217.40</ele>
	<time>2025-04-30T07:06:30.000Z</time>
</trkpt>
<trkpt lat="45.9000860" lon="10.2689050">
	<ele>1217.60</ele>
	<time>2025-04-30T07:06:31.000Z</time>
</trkpt>
<trkpt lat="45.9000810" lon="10.2688960">
	<ele>1217.60</ele>
	<time>2025-04-30T07:06:32.000Z</time>
</trkpt>
<trkpt lat="45.9000750" lon="10.2688880">
	<ele>1217.80</ele>
	<time>2025-04-30T07:06:33.000Z</time>
</trkpt>
<trkpt lat="45.9000770" lon="10.2688860">
	<ele>1217.80</ele>
	<time>2025-04-30T07:06:34.000Z</time>
</trkpt>
<trkpt lat="45.9000810" lon="10.2688830">
	<ele>1218.00</ele>
	<time>2025-04-30T07:06:35.000Z</time>
</trkpt>
<trkpt lat="45.9000770" lon="10.2688770">
	<ele>1218.00</ele>
	<time>2025-04-30T07:06:36.000Z</time>
</trkpt>
<trkpt lat="45.9000650" lon="10.2688610">
	<ele>1218.20</ele>
	<time>2025-04-30T07:06:37.000Z</time>
</trkpt>
<trkpt lat="45.9000480" lon="10.2688410">
	<ele>1218.60</ele>
	<time>2025-04-30T07:06:38.000Z</time>
</trkpt>
<trkpt lat="45.9000260" lon="10.2688180">
	<ele>1218.60</ele>
	<time>2025-04-30T07:06:39.000Z</time>
</trkpt>
<trkpt lat="45.9000140" lon="10.2688030">
	<ele>1218.80</ele>
	<time>2025-04-30T07:06:40.000Z</time>
</trkpt>
<trkpt lat="45.8999970" lon="10.2687770">
	<ele>1218.80</ele>
	<time>2025-04-30T07:06:41.000Z</time>
</trkpt>
<trkpt lat="45.9000030" lon="10.2687650">
	<ele>1219.20</ele>
	<time>2025-04-30T07:06:42.000Z</time>
</trkpt>
<trkpt lat="45.9000130" lon="10.2687630">
	<ele>1219.40</ele>
	<time>2025-04-30T07:06:43.000Z</time>
</trkpt>
<trkpt lat="45.9000160" lon="10.2687590">
	<ele>1219.60</ele>
	<time>2025-04-30T07:06:44.000Z</time>
</trkpt>
<trkpt lat="45.9000190" lon="10.2687450">
	<ele>1219.60</ele>
	<time>2025-04-30T07:06:45.000Z</time>
</trkpt>
<trkpt lat="45.8999920" lon="10.2687230">
	<ele>1219.80</ele>
	<time>2025-04-30T07:06:46.000Z</time>
</trkpt>
<trkpt lat="45.8999760" lon="10.2687210">
	<ele>1220.00</ele>
	<time>2025-04-30T07:06:47.000Z</time>
</trkpt>
<trkpt lat="45.8999540" lon="10.2687150">
	<ele>1220.40</ele>
	<time>2025-04-30T07:06:48.000Z</time>
</trkpt>
<trkpt lat="45.8999540" lon="10.2687130">
	<ele>1220.60</ele>
	<time>2025-04-30T07:06:49.000Z</time>
</trkpt>
<trkpt lat="45.8999430" lon="10.2687110">
	<ele>1221.00</ele>
	<time>2025-04-30T07:06:50.000Z</time>
</trkpt>
<trkpt lat="45.8999410" lon="10.2687080">
	<ele>1221.00</ele>
	<time>2025-04-30T07:06:51.000Z</time>
</trkpt>
<trkpt lat="45.8999350" lon="10.2687050">
	<ele>1221.40</ele>
	<time>2025-04-30T07:06:52.000Z</time>
</trkpt>
<trkpt lat="45.8999350" lon="10.2687080">
	<ele>1221.40</ele>
	<time>2025-04-30T07:06:53.000Z</time>
</trkpt>
<trkpt lat="45.8999360" lon="10.2687080">
	<ele>1221.60</ele>
	<time>2025-04-30T07:06:54.000Z</time>
</trkpt>
<trkpt lat="45.8999330" lon="10.2687100">
	<ele>1221.80</ele>
	<time>2025-04-30T07:06:55.000Z</time>
</trkpt>
<trkpt lat="45.8999260" lon="10.2687130">
	<ele>1221.80</ele>
	<time>2025-04-30T07:06:56.000Z</time>
</trkpt>
<trkpt lat="45.8999180" lon="10.2687080">
	<ele>1222.00</ele>
	<time>2025-04-30T07:06:57.000Z</time>
</trkpt>
<trkpt lat="45.8999040" lon="10.2686960">
	<ele>1222.20</ele>
	<time>2025-04-30T07:06:58.000Z</time>
</trkpt>
<trkpt lat="45.8998950" lon="10.2686980">
	<ele>1222.40</ele>
	<time>2025-04-30T07:06:59.000Z</time>
</trkpt>
<trkpt lat="45.8998870" lon="10.2687090">
	<ele>1222.60</ele>
	<time>2025-04-30T07:07:00.000Z</time>
</trkpt>
<trkpt lat="45.8998830" lon="10.2687070">
	<ele>1223.00</ele>
	<time>2025-04-30T07:07:01.000Z</time>
</trkpt>
<trkpt lat="45.8998750" lon="10.2687010">
	<ele>1223.20</ele>
	<time>2025-04-30T07:07:02.000Z</time>
</trkpt>
<trkpt lat="45.8998660" lon="10.2686950">
	<ele>1223.40</ele>
	<time>2025-04-30T07:07:03.000Z</time>
</trkpt>
<trkpt lat="45.8998520" lon="10.2686830">
	<ele>1223.60</ele>
	<time>2025-04-30T07:07:04.000Z</time>
</trkpt>
<trkpt lat="45.8998280" lon="10.2686660">
	<ele>1223.80</ele>
	<time>2025-04-30T07:07:05.000Z</time>
</trkpt>
<trkpt lat="45.8998190" lon="10.2686590">
	<ele>1224.00</ele>
	<time>2025-04-30T07:07:06.000Z</time>
</trkpt>
<trkpt lat="45.8998060" lon="10.2686370">
	<ele>1224.20</ele>
	<time>2025-04-30T07:07:07.000Z</time>
</trkpt>
<trkpt lat="45.8998040" lon="10.2686310">
	<ele>1224.20</ele>
	<time>2025-04-30T07:07:08.000Z</time>
</trkpt>
<trkpt lat="45.8998020" lon="10.2686250">
	<ele>1224.40</ele>
	<time>2025-04-30T07:07:09.000Z</time>
</trkpt>
<trkpt lat="45.8998020" lon="10.2686190">
	<ele>1224.40</ele>
	<time>2025-04-30T07:07:10.000Z</time>
</trkpt>
<trkpt lat="45.8997950" lon="10.2686190">
	<ele>1224.60</ele>
	<time>2025-04-30T07:07:11.000Z</time>
</trkpt>
<trkpt lat="45.8997970" lon="10.2686210">
	<ele>1224.80</ele>
	<time>2025-04-30T07:07:12.000Z</time>
</trkpt>
<trkpt lat="45.8997950" lon="10.2686160">
	<ele>1225.20</ele>
	<time>2025-04-30T07:07:13.000Z</time>
</trkpt>
<trkpt lat="45.8997930" lon="10.2686200">
	<ele>1225.40</ele>
	<time>2025-04-30T07:07:14.000Z</time>
</trkpt>
<trkpt lat="45.8998020" lon="10.2686210">
	<ele>1225.60</ele>
	<time>2025-04-30T07:07:15.000Z</time>
</trkpt>
<trkpt lat="45.8998030" lon="10.2686130">
	<ele>1225.80</ele>
	<time>2025-04-30T07:07:16.000Z</time>
</trkpt>
<trkpt lat="45.8998100" lon="10.2686170">
	<ele>1226.00</ele>
	<time>2025-04-30T07:07:17.000Z</time>
</trkpt>
<trkpt lat="45.8998220" lon="10.2686140">
	<ele>1226.20</ele>
	<time>2025-04-30T07:07:18.000Z</time>
</trkpt>
<trkpt lat="45.8998290" lon="10.2686120">
	<ele>1226.20</ele>
	<time>2025-04-30T07:07:19.000Z</time>
</trkpt>
<trkpt lat="45.8998310" lon="10.2686050">
	<ele>1226.40</ele>
	<time>2025-04-30T07:07:20.000Z</time>
</trkpt>
<trkpt lat="45.8998310" lon="10.2686000">
	<ele>1226.60</ele>
	<time>2025-04-30T07:07:21.000Z</time>
</trkpt>
<trkpt lat="45.8998300" lon="10.2685980">
	<ele>1226.80</ele>
	<time>2025-04-30T07:07:22.000Z</time>
</trkpt>
<trkpt lat="45.8998230" lon="10.2685910">
	<ele>1226.80</ele>
	<time>2025-04-30T07:07:23.000Z</time>
</trkpt>
<trkpt lat="45.8998120" lon="10.2685820">
	<ele>1227.00</ele>
	<time>2025-04-30T07:07:24.000Z</time>
</trkpt>
<trkpt lat="45.8998000" lon="10.2685690">
	<ele>1227.00</ele>
	<time>2025-04-30T07:07:25.000Z</time>
</trkpt>
<trkpt lat="45.8997960" lon="10.2685500">
	<ele>1227.20</ele>
	<time>2025-04-30T07:07:26.000Z</time>
</trkpt>
<trkpt lat="45.8997930" lon="10.2685310">
	<ele>1227.20</ele>
	<time>2025-04-30T07:07:27.000Z</time>
</trkpt>
<trkpt lat="45.8997910" lon="10.2685260">
	<ele>1227.40</ele>
	<time>2025-04-30T07:07:28.000Z</time>
</trkpt>
<trkpt lat="45.8997910" lon="10.2685230">
	<ele>1227.40</ele>
	<time>2025-04-30T07:07:29.000Z</time>
</trkpt>
<trkpt lat="45.8997910" lon="10.2685210">
	<ele>1227.40</ele>
	<time>2025-04-30T07:07:30.000Z</time>
</trkpt>
<trkpt lat="45.8997910" lon="10.2685190">
	<ele>1227.60</ele>
	<time>2025-04-30T07:07:31.000Z</time>
</trkpt>
<trkpt lat="45.8997950" lon="10.2685190">
	<ele>1227.60</ele>
	<time>2025-04-30T07:07:32.000Z</time>
</trkpt>
<trkpt lat="45.8997970" lon="10.2685180">
	<ele>1228.00</ele>
	<time>2025-04-30T07:07:33.000Z</time>
</trkpt>
<trkpt lat="45.8997960" lon="10.2685180">
	<ele>1228.20</ele>
	<time>2025-04-30T07:07:34.000Z</time>
</trkpt>
<trkpt lat="45.8997880" lon="10.2685170">
	<ele>1228.40</ele>
	<time>2025-04-30T07:07:35.000Z</time>
</trkpt>
<trkpt lat="45.8997750" lon="10.2685120">
	<ele>1228.60</ele>
	<time>2025-04-30T07:07:36.000Z</time>
</trkpt>
<trkpt lat="45.8997590" lon="10.2684980">
	<ele>1228.60</ele>
	<time>2025-04-30T07:07:37.000Z</time>
</trkpt>
<trkpt lat="45.8997490" lon="10.2684800">
	<ele>1228.80</ele>
	<time>2025-04-30T07:07:38.000Z</time>
</trkpt>
<trkpt lat="45.8997460" lon="10.2684650">
	<ele>1229.20</ele>
	<time>2025-04-30T07:07:39.000Z</time>
</trkpt>
<trkpt lat="45.8997380" lon="10.2684520">
	<ele>1229.40</ele>
	<time>2025-04-30T07:07:40.000Z</time>
</trkpt>
<trkpt lat="45.8997320" lon="10.2684390">
	<ele>1229.40</ele>
	<time>2025-04-30T07:07:41.000Z</time>
</trkpt>
<trkpt lat="45.8997330" lon="10.2684410">
	<ele>1229.60</ele>
	<time>2025-04-30T07:07:42.000Z</time>
</trkpt>
<trkpt lat="45.8997270" lon="10.2684440">
	<ele>1229.60</ele>
	<time>2025-04-30T07:07:43.000Z</time>
</trkpt>
<trkpt lat="45.8997240" lon="10.2684430">
	<ele>1229.60</ele>
	<time>2025-04-30T07:07:44.000Z</time>
</trkpt>
<trkpt lat="45.8997270" lon="10.2684490">
	<ele>1229.60</ele>
	<time>2025-04-30T07:07:45.000Z</time>
</trkpt>
<trkpt lat="45.8997290" lon="10.2684570">
	<ele>1229.60</ele>
	<time>2025-04-30T07:07:46.000Z</time>
</trkpt>
<trkpt lat="45.8997280" lon="10.2684590">
	<ele>1229.80</ele>
	<time>2025-04-30T07:07:47.000Z</time>
</trkpt>
<trkpt lat="45.8997290" lon="10.2684610">
	<ele>1229.80</ele>
	<time>2025-04-30T07:07:48.000Z</time>
</trkpt>
<trkpt lat="45.8997300" lon="10.2684530">
	<ele>1229.80</ele>
	<time>2025-04-30T07:07:49.000Z</time>
</trkpt>
<trkpt lat="45.8997270" lon="10.2684410">
	<ele>1229.80</ele>
	<time>2025-04-30T07:07:50.000Z</time>
</trkpt>
<trkpt lat="45.8997240" lon="10.2684360">
	<ele>1229.80</ele>
	<time>2025-04-30T07:07:51.000Z</time>
</trkpt>
<trkpt lat="45.8997240" lon="10.2684340">
	<ele>1230.00</ele>
	<time>2025-04-30T07:07:52.000Z</time>
</trkpt>
<trkpt lat="45.8997240" lon="10.2684370">
	<ele>1230.20</ele>
	<time>2025-04-30T07:07:53.000Z</time>
</trkpt>
<trkpt lat="45.8997230" lon="10.2684380">
	<ele>1230.20</ele>
	<time>2025-04-30T07:07:54.000Z</time>
</trkpt>
<trkpt lat="45.8997250" lon="10.2684370">
	<ele>1230.40</ele>
	<time>2025-04-30T07:07:55.000Z</time>
</trkpt>
<trkpt lat="45.8997260" lon="10.2684380">
	<ele>1230.40</ele>
	<time>2025-04-30T07:07:56.000Z</time>
</trkpt>
<trkpt lat="45.8997180" lon="10.2684340">
	<ele>1230.60</ele>
	<time>2025-04-30T07:07:57.000Z</time>
</trkpt>
<trkpt lat="45.8997310" lon="10.2684370">
	<ele>1230.80</ele>
	<time>2025-04-30T07:07:58.000Z</time>
</trkpt>
<trkpt lat="45.8997250" lon="10.2684390">
	<ele>1231.00</ele>
	<time>2025-04-30T07:07:59.000Z</time>
</trkpt>
<trkpt lat="45.8997230" lon="10.2684390">
	<ele>1231.40</ele>
	<time>2025-04-30T07:08:00.000Z</time>
</trkpt>
<trkpt lat="45.8997180" lon="10.2684420">
	<ele>1231.60</ele>
	<time>2025-04-30T07:08:01.000Z</time>
</trkpt>
<trkpt lat="45.8997070" lon="10.2684470">
	<ele>1231.60</ele>
	<time>2025-04-30T07:08:02.000Z</time>
</trkpt>
<trkpt lat="45.8996930" lon="10.2684540">
	<ele>1231.80</ele>
	<time>2025-04-30T07:08:03.000Z</time>
</trkpt>
<trkpt lat="45.8996850" lon="10.2684550">
	<ele>1232.00</ele>
	<time>2025-04-30T07:08:04.000Z</time>
</trkpt>
<trkpt lat="45.8996850" lon="10.2684530">
	<ele>1232.00</ele>
	<time>2025-04-30T07:08:05.000Z</time>
</trkpt>
<trkpt lat="45.8996750" lon="10.2684480">
	<ele>1232.20</ele>
	<time>2025-04-30T07:08:06.000Z</time>
</trkpt>
<trkpt lat="45.8996730" lon="10.2684420">
	<ele>1232.40</ele>
	<time>2025-04-30T07:08:07.000Z</time>
</trkpt>
<trkpt lat="45.8996720" lon="10.2684380">
	<ele>1232.60</ele>
	<time>2025-04-30T07:08:08.000Z</time>
</trkpt>
<trkpt lat="45.8996710" lon="10.2684270">
	<ele>1232.60</ele>
	<time>2025-04-30T07:08:09.000Z</time>
</trkpt>
<trkpt lat="45.8996700" lon="10.2684140">
	<ele>1232.80</ele>
	<time>2025-04-30T07:08:10.000Z</time>
</trkpt>
<trkpt lat="45.8996610" lon="10.2684010">
	<ele>1233.00</ele>
	<time>2025-04-30T07:08:11.000Z</time>
</trkpt>
<trkpt lat="45.8996580" lon="10.2684010">
	<ele>1233.20</ele>
	<time>2025-04-30T07:08:12.000Z</time>
</trkpt>
<trkpt lat="45.8996480" lon="10.2683930">
	<ele>1233.40</ele>
	<time>2025-04-30T07:08:13.000Z</time>
</trkpt>
<trkpt lat="45.8996440" lon="10.2683870">
	<ele>1233.60</ele>
	<time>2025-04-30T07:08:14.000Z</time>
</trkpt>
<trkpt lat="45.8996410" lon="10.2683860">
	<ele>1233.80</ele>
	<time>2025-04-30T07:08:15.000Z</time>
</trkpt>
<trkpt lat="45.8996400" lon="10.2683880">
	<ele>1234.00</ele>
	<time>2025-04-30T07:08:16.000Z</time>
</trkpt>
<trkpt lat="45.8996410" lon="10.2683950">
	<ele>1234.20</ele>
	<time>2025-04-30T07:08:17.000Z</time>
</trkpt>
<trkpt lat="45.8996210" lon="10.2683980">
	<ele>1234.40</ele>
	<time>2025-04-30T07:08:18.000Z</time>
</trkpt>
<trkpt lat="45.8996020" lon="10.2684060">
	<ele>1234.60</ele>
	<time>2025-04-30T07:08:19.000Z</time>
</trkpt>
<trkpt lat="45.8995920" lon="10.2684060">
	<ele>1235.00</ele>
	<time>2025-04-30T07:08:20.000Z</time>
</trkpt>
<trkpt lat="45.8995980" lon="10.2684050">
	<ele>1235.20</ele>
	<time>2025-04-30T07:08:21.000Z</time>
</trkpt>
<trkpt lat="45.8995960" lon="10.2683910">
	<ele>1235.40</ele>
	<time>2025-04-30T07:08:22.000Z</time>
</trkpt>
<trkpt lat="45.8995930" lon="10.2683760">
	<ele>1235.60</ele>
	<time>2025-04-30T07:08:23.000Z</time>
</trkpt>
<trkpt lat="45.8995990" lon="10.2683690">
	<ele>1235.80</ele>
	<time>2025-04-30T07:08:24.000Z</time>
</trkpt>
<trkpt lat="45.8995930" lon="10.2683580">
	<ele>1236.00</ele>
	<time>2025-04-30T07:08:25.000Z</time>
</trkpt>
<trkpt lat="45.8995810" lon="10.2683450">
	<ele>1236.00</ele>
	<time>2025-04-30T07:08:26.000Z</time>
</trkpt>
<trkpt lat="45.8995700" lon="10.2683350">
	<ele>1236.20</ele>
	<time>2025-04-30T07:08:27.000Z</time>
</trkpt>
<trkpt lat="45.8995590" lon="10.2683340">
	<ele>1236.20</ele>
	<time>2025-04-30T07:08:28.000Z</time>
</trkpt>
<trkpt lat="45.8995530" lon="10.2683330">
	<ele>1236.40</ele>
	<time>2025-04-30T07:08:29.000Z</time>
</trkpt>
<trkpt lat="45.8995510" lon="10.2683370">
	<ele>1236.60</ele>
	<time>2025-04-30T07:08:30.000Z</time>
</trkpt>
<trkpt lat="45.8995490" lon="10.2683390">
	<ele>1236.80</ele>
	<time>2025-04-30T07:08:31.000Z</time>
</trkpt>
<trkpt lat="45.8995370" lon="10.2683350">
	<ele>1237.00</ele>
	<time>2025-04-30T07:08:32.000Z</time>
</trkpt>
<trkpt lat="45.8995270" lon="10.2683320">
	<ele>1237.20</ele>
	<time>2025-04-30T07:08:33.000Z</time>
</trkpt>
<trkpt lat="45.8995150" lon="10.2683270">
	<ele>1237.20</ele>
	<time>2025-04-30T07:08:34.000Z</time>
</trkpt>
<trkpt lat="45.8995060" lon="10.2683210">
	<ele>1237.60</ele>
	<time>2025-04-30T07:08:35.000Z</time>
</trkpt>
<trkpt lat="45.8994920" lon="10.2683140">
	<ele>1237.80</ele>
	<time>2025-04-30T07:08:36.000Z</time>
</trkpt>
<trkpt lat="45.8995010" lon="10.2683270">
	<ele>1238.00</ele>
	<time>2025-04-30T07:08:37.000Z</time>
</trkpt>
<trkpt lat="45.8995050" lon="10.2683320">
	<ele>1238.20</ele>
	<time>2025-04-30T07:08:38.000Z</time>
</trkpt>
<trkpt lat="45.8995020" lon="10.2683320">
	<ele>1238.40</ele>
	<time>2025-04-30T07:08:39.000Z</time>
</trkpt>
<trkpt lat="45.8994990" lon="10.2683280">
	<ele>1238.60</ele>
	<time>2025-04-30T07:08:40.000Z</time>
</trkpt>
<trkpt lat="45.8994990" lon="10.2683250">
	<ele>1238.60</ele>
	<time>2025-04-30T07:08:41.000Z</time>
</trkpt>
<trkpt lat="45.8994940" lon="10.2683250">
	<ele>1239.00</ele>
	<time>2025-04-30T07:08:42.000Z</time>
</trkpt>
<trkpt lat="45.8994880" lon="10.2683320">
	<ele>1239.00</ele>
	<time>2025-04-30T07:08:43.000Z</time>
</trkpt>
<trkpt lat="45.8994880" lon="10.2683390">
	<ele>1239.20</ele>
	<time>2025-04-30T07:08:44.000Z</time>
</trkpt>
<trkpt lat="45.8994880" lon="10.2683410">
	<ele>1239.60</ele>
	<time>2025-04-30T07:08:45.000Z</time>
</trkpt>
<trkpt lat="45.8994900" lon="10.2683530">
	<ele>1239.80</ele>
	<time>2025-04-30T07:08:46.000Z</time>
</trkpt>
<trkpt lat="45.8994820" lon="10.2683490">
	<ele>1239.80</ele>
	<time>2025-04-30T07:08:47.000Z</time>
</trkpt>
<trkpt lat="45.8994740" lon="10.2683370">
	<ele>1240.00</ele>
	<time>2025-04-30T07:08:48.000Z</time>
</trkpt>
<trkpt lat="45.8994730" lon="10.2683350">
	<ele>1240.20</ele>
	<time>2025-04-30T07:08:49.000Z</time>
</trkpt>
<trkpt lat="45.8994700" lon="10.2683450">
	<ele>1240.20</ele>
	<time>2025-04-30T07:08:50.000Z</time>
</trkpt>
<trkpt lat="45.8994730" lon="10.2683450">
	<ele>1240.40</ele>
	<time>2025-04-30T07:08:51.000Z</time>
</trkpt>
<trkpt lat="45.8994750" lon="10.2683340">
	<ele>1240.60</ele>
	<time>2025-04-30T07:08:52.000Z</time>
</trkpt>
<trkpt lat="45.8994760" lon="10.2683260">
	<ele>1240.60</ele>
	<time>2025-04-30T07:08:53.000Z</time>
</trkpt>
<trkpt lat="45.8994720" lon="10.2683190">
	<ele>1240.80</ele>
	<time>2025-04-30T07:08:54.000Z</time>
</trkpt>
<trkpt lat="45.8994680" lon="10.2683180">
	<ele>1241.00</ele>
	<time>2025-04-30T07:08:55.000Z</time>
</trkpt>
<trkpt lat="45.8994570" lon="10.2683100">
	<ele>1241.20</ele>
	<time>2025-04-30T07:08:56.000Z</time>
</trkpt>
<trkpt lat="45.8994570" lon="10.2683250">
	<ele>1241.20</ele>
	<time>2025-04-30T07:08:57.000Z</time>
</trkpt>
<trkpt lat="45.8994450" lon="10.2683160">
	<ele>1241.40</ele>
	<time>2025-04-30T07:08:58.000Z</time>
</trkpt>
<trkpt lat="45.8994290" lon="10.2683040">
	<ele>1241.40</ele>
	<time>2025-04-30T07:08:59.000Z</time>
</trkpt>
<trkpt lat="45.8994160" lon="10.2682950">
	<ele>1241.60</ele>
	<time>2025-04-30T07:09:00.000Z</time>
</trkpt>
<trkpt lat="45.8993960" lon="10.2682930">
	<ele>1242.00</ele>
	<time>2025-04-30T07:09:01.000Z</time>
</trkpt>
<trkpt lat="45.8993800" lon="10.2682920">
	<ele>1242.20</ele>
	<time>2025-04-30T07:09:02.000Z</time>
</trkpt>
<trkpt lat="45.8993780" lon="10.2682900">
	<ele>1242.40</ele>
	<time>2025-04-30T07:09:03.000Z</time>
</trkpt>
<trkpt lat="45.8993790" lon="10.2682900">
	<ele>1242.60</ele>
	<time>2025-04-30T07:09:04.000Z</time>
</trkpt>
<trkpt lat="45.8993790" lon="10.2682910">
	<ele>1242.80</ele>
	<time>2025-04-30T07:09:05.000Z</time>
</trkpt>
<trkpt lat="45.8993730" lon="10.2682900">
	<ele>1243.00</ele>
	<time>2025-04-30T07:09:06.000Z</time>
</trkpt>
<trkpt lat="45.8993730" lon="10.2682880">
	<ele>1243.20</ele>
	<time>2025-04-30T07:09:07.000Z</time>
</trkpt>
<trkpt lat="45.8993740" lon="10.2682880">
	<ele>1243.40</ele>
	<time>2025-04-30T07:09:08.000Z</time>
</trkpt>
<trkpt lat="45.8993680" lon="10.2682770">
	<ele>1243.40</ele>
	<time>2025-04-30T07:09:09.000Z</time>
</trkpt>
<trkpt lat="45.8993530" lon="10.2682700">
	<ele>1243.60</ele>
	<time>2025-04-30T07:09:10.000Z</time>
</trkpt>
<trkpt lat="45.8993450" lon="10.2682630">
	<ele>1243.80</ele>
	<time>2025-04-30T07:09:11.000Z</time>
</trkpt>
<trkpt lat="45.8993400" lon="10.2682590">
	<ele>1243.80</ele>
	<time>2025-04-30T07:09:12.000Z</time>
</trkpt>
<trkpt lat="45.8993530" lon="10.2682720">
	<ele>1244.00</ele>
	<time>2025-04-30T07:09:13.000Z</time>
</trkpt>
<trkpt lat="45.8993520" lon="10.2682720">
	<ele>1244.40</ele>
	<time>2025-04-30T07:09:14.000Z</time>
</trkpt>
<trkpt lat="45.8993520" lon="10.2682730">
	<ele>1244.80</ele>
	<time>2025-04-30T07:09:15.000Z</time>
</trkpt>
<trkpt lat="45.8993450" lon="10.2682700">
	<ele>1244.80</ele>
	<time>2025-04-30T07:09:16.000Z</time>
</trkpt>
<trkpt lat="45.8993430" lon="10.2682740">
	<ele>1245.00</ele>
	<time>2025-04-30T07:09:17.000Z</time>
</trkpt>
<trkpt lat="45.8993400" lon="10.2682750">
	<ele>1245.20</ele>
	<time>2025-04-30T07:09:18.000Z</time>
</trkpt>
<trkpt lat="45.8993370" lon="10.2682740">
	<ele>1245.40</ele>
	<time>2025-04-30T07:09:19.000Z</time>
</trkpt>
<trkpt lat="45.8993340" lon="10.2682750">
	<ele>1245.40</ele>
	<time>2025-04-30T07:09:20.000Z</time>
</trkpt>
<trkpt lat="45.8993320" lon="10.2682730">
	<ele>1245.60</ele>
	<time>2025-04-30T07:09:21.000Z</time>
</trkpt>
<trkpt lat="45.8993330" lon="10.2682610">
	<ele>1245.60</ele>
	<time>2025-04-30T07:09:22.000Z</time>
</trkpt>
<trkpt lat="45.8993400" lon="10.2682570">
	<ele>1245.60</ele>
	<time>2025-04-30T07:09:23.000Z</time>
</trkpt>
<trkpt lat="45.8993410" lon="10.2682540">
	<ele>1245.80</ele>
	<time>2025-04-30T07:09:24.000Z</time>
</trkpt>
<trkpt lat="45.8993410" lon="10.2682540">
	<ele>1246.00</ele>
	<time>2025-04-30T07:09:25.000Z</time>
</trkpt>
<trkpt lat="45.8993410" lon="10.2682540">
	<ele>1246.20</ele>
	<time>2025-04-30T07:09:26.000Z</time>
</trkpt>
<trkpt lat="45.8993410" lon="10.2682540">
	<ele>1246.60</ele>
	<time>2025-04-30T07:09:27.000Z</time>
</trkpt>
<trkpt lat="45.8993410" lon="10.2682540">
	<ele>1246.80</ele>
	<time>2025-04-30T07:09:28.000Z</time>
</trkpt>
<trkpt lat="45.8993410" lon="10.2682540">
	<ele>1246.80</ele>
	<time>2025-04-30T07:09:29.000Z</time>
</trkpt>
<trkpt lat="45.8993410" lon="10.2682540">
	<ele>1247.00</ele>
	<time>2025-04-30T07:09:30.000Z</time>
</trkpt>
<trkpt lat="45.8993410" lon="10.2682540">
	<ele>1247.20</ele>
	<time>2025-04-30T07:09:31.000Z</time>
</trkpt>
<trkpt lat="45.8993410" lon="10.2682540">
	<ele>1247.40</ele>
	<time>2025-04-30T07:09:32.000Z</time>
</trkpt>
<trkpt lat="45.8993410" lon="10.2682540">
	<ele>1247.60</ele>
	<time>2025-04-30T07:09:33.000Z</time>
</trkpt>
<trkpt lat="45.8993410" lon="10.2682540">
	<ele>1247.80</ele>
	<time>2025-04-30T07:09:34.000Z</time>
</trkpt>
<trkpt lat="45.8993410" lon="10.2682540">
	<ele>1248.00</ele>
	<time>2025-04-30T07:09:35.000Z</time>
</trkpt>
<trkpt lat="45.8993410" lon="10.2682540">
	<ele>1248.00</ele>
	<time>2025-04-30T07:09:36.000Z</time>
</trkpt>
<trkpt lat="45.8993410" lon="10.2682570">
	<ele>1248.20</ele>
	<time>2025-04-30T07:09:37.000Z</time>
</trkpt>
<trkpt lat="45.8993400" lon="10.2682570">
	<ele>1248.40</ele>
	<time>2025-04-30T07:09:38.000Z</time>
</trkpt>
<trkpt lat="45.8993340" lon="10.2682540">
	<ele>1248.60</ele>
	<time>2025-04-30T07:09:39.000Z</time>
</trkpt>
<trkpt lat="45.8993110" lon="10.2682440">
	<ele>1248.80</ele>
	<time>2025-04-30T07:09:40.000Z</time>
</trkpt>
<trkpt lat="45.8992930" lon="10.2682330">
	<ele>1249.00</ele>
	<time>2025-04-30T07:09:41.000Z</time>
</trkpt>
<trkpt lat="45.8992780" lon="10.2682190">
	<ele>1249.20</ele>
	<time>2025-04-30T07:09:42.000Z</time>
</trkpt>
<trkpt lat="45.8992690" lon="10.2682140">
	<ele>1249.40</ele>
	<time>2025-04-30T07:09:43.000Z</time>
</trkpt>
<trkpt lat="45.8992630" lon="10.2682070">
	<ele>1249.40</ele>
	<time>2025-04-30T07:09:44.000Z</time>
</trkpt>
<trkpt lat="45.8992570" lon="10.2681980">
	<ele>1249.60</ele>
	<time>2025-04-30T07:09:45.000Z</time>
</trkpt>
<trkpt lat="45.8992500" lon="10.2681930">
	<ele>1249.60</ele>
	<time>2025-04-30T07:09:46.000Z</time>
</trkpt>
<trkpt lat="45.8992370" lon="10.2681870">
	<ele>1249.80</ele>
	<time>2025-04-30T07:09:47.000Z</time>
</trkpt>
<trkpt lat="45.8992290" lon="10.2681790">
	<ele>1249.80</ele>
	<time>2025-04-30T07:09:48.000Z</time>
</trkpt>
<trkpt lat="45.8992240" lon="10.2681700">
	<ele>1250.00</ele>
	<time>2025-04-30T07:09:49.000Z</time>
</trkpt>
<trkpt lat="45.8992210" lon="10.2681700">
	<ele>1250.40</ele>
	<time>2025-04-30T07:09:50.000Z</time>
</trkpt>
<trkpt lat="45.8992050" lon="10.2681410">
	<ele>1250.60</ele>
	<time>2025-04-30T07:09:51.000Z</time>
</trkpt>
<trkpt lat="45.8991970" lon="10.2681120">
	<ele>1250.80</ele>
	<time>2025-04-30T07:09:52.000Z</time>
</trkpt>
<trkpt lat="45.8991970" lon="10.2681070">
	<ele>1251.00</ele>
	<time>2025-04-30T07:09:53.000Z</time>
</trkpt>
<trkpt lat="45.8991920" lon="10.2681000">
	<ele>1251.20</ele>
	<time>2025-04-30T07:09:54.000Z</time>
</trkpt>
<trkpt lat="45.8991850" lon="10.2681060">
	<ele>1251.40</ele>
	<time>2025-04-30T07:09:55.000Z</time>
</trkpt>
<trkpt lat="45.8991870" lon="10.2681150">
	<ele>1251.60</ele>
	<time>2025-04-30T07:09:56.000Z</time>
</trkpt>
<trkpt lat="45.8991790" lon="10.2681080">
	<ele>1251.60</ele>
	<time>2025-04-30T07:09:57.000Z</time>
</trkpt>
<trkpt lat="45.8991760" lon="10.2681050">
	<ele>1252.00</ele>
	<time>2025-04-30T07:09:58.000Z</time>
</trkpt>
<trkpt lat="45.8991740" lon="10.2681010">
	<ele>1252.20</ele>
	<time>2025-04-30T07:09:59.000Z</time>
</trkpt>
<trkpt lat="45.8991730" lon="10.2680950">
	<ele>1252.20</ele>
	<time>2025-04-30T07:10:00.000Z</time>
</trkpt>
<trkpt lat="45.8991660" lon="10.2680900">
	<ele>1252.40</ele>
	<time>2025-04-30T07:10:01.000Z</time>
</trkpt>
<trkpt lat="45.8991540" lon="10.2680770">
	<ele>1252.60</ele>
	<time>2025-04-30T07:10:02.000Z</time>
</trkpt>
<trkpt lat="45.8991400" lon="10.2680740">
	<ele>1252.80</ele>
	<time>2025-04-30T07:10:03.000Z</time>
</trkpt>
<trkpt lat="45.8991110" lon="10.2680640">
	<ele>1253.00</ele>
	<time>2025-04-30T07:10:04.000Z</time>
</trkpt>
<trkpt lat="45.8991130" lon="10.2680660">
	<ele>1253.00</ele>
	<time>2025-04-30T07:10:05.000Z</time>
</trkpt>
<trkpt lat="45.8990870" lon="10.2680460">
	<ele>1253.20</ele>
	<time>2025-04-30T07:10:06.000Z</time>
</trkpt>
<trkpt lat="45.8990660" lon="10.2680420">
	<ele>1253.20</ele>
	<time>2025-04-30T07:10:07.000Z</time>
</trkpt>
<trkpt lat="45.8990660" lon="10.2680440">
	<ele>1253.20</ele>
	<time>2025-04-30T07:10:08.000Z</time>
</trkpt>
<trkpt lat="45.8990620" lon="10.2680460">
	<ele>1253.40</ele>
	<time>2025-04-30T07:10:09.000Z</time>
</trkpt>
<trkpt lat="45.8990480" lon="10.2680390">
	<ele>1253.60</ele>
	<time>2025-04-30T07:10:10.000Z</time>
</trkpt>
<trkpt lat="45.8990390" lon="10.2680400">
	<ele>1253.80</ele>
	<time>2025-04-30T07:10:11.000Z</time>
</trkpt>
<trkpt lat="45.8990310" lon="10.2680380">
	<ele>1254.00</ele>
	<time>2025-04-30T07:10:12.000Z</time>
</trkpt>
<trkpt lat="45.8990270" lon="10.2680380">
	<ele>1254.00</ele>
	<time>2025-04-30T07:10:13.000Z</time>
</trkpt>
<trkpt lat="45.8990260" lon="10.2680410">
	<ele>1254.20</ele>
	<time>2025-04-30T07:10:14.000Z</time>
</trkpt>
<trkpt lat="45.8990200" lon="10.2680370">
	<ele>1254.40</ele>
	<time>2025-04-30T07:10:15.000Z</time>
</trkpt>
<trkpt lat="45.8990030" lon="10.2680340">
	<ele>1254.80</ele>
	<time>2025-04-30T07:10:16.000Z</time>
</trkpt>
<trkpt lat="45.8990040" lon="10.2680320">
	<ele>1254.80</ele>
	<time>2025-04-30T07:10:17.000Z</time>
</trkpt>
<trkpt lat="45.8990020" lon="10.2680250">
	<ele>1255.20</ele>
	<time>2025-04-30T07:10:18.000Z</time>
</trkpt>
<trkpt lat="45.8990080" lon="10.2680390">
	<ele>1255.20</ele>
	<time>2025-04-30T07:10:19.000Z</time>
</trkpt>
<trkpt lat="45.8990070" lon="10.2680380">
	<ele>1255.40</ele>
	<time>2025-04-30T07:10:20.000Z</time>
</trkpt>
<trkpt lat="45.8990060" lon="10.2680360">
	<ele>1255.40</ele>
	<time>2025-04-30T07:10:21.000Z</time>
</trkpt>
<trkpt lat="45.8990020" lon="10.2680380">
	<ele>1255.80</ele>
	<time>2025-04-30T07:10:22.000Z</time>
</trkpt>
<trkpt lat="45.8990000" lon="10.2680410">
	<ele>1256.00</ele>
	<time>2025-04-30T07:10:23.000Z</time>
</trkpt>
<trkpt lat="45.8990000" lon="10.2680430">
	<ele>1256.20</ele>
	<time>2025-04-30T07:10:24.000Z</time>
</trkpt>
<trkpt lat="45.8990010" lon="10.2680410">
	<ele>1256.20</ele>
	<time>2025-04-30T07:10:25.000Z</time>
</trkpt>
<trkpt lat="45.8989980" lon="10.2680300">
	<ele>1256.60</ele>
	<time>2025-04-30T07:10:26.000Z</time>
</trkpt>
<trkpt lat="45.8989950" lon="10.2680220">
	<ele>1256.60</ele>
	<time>2025-04-30T07:10:27.000Z</time>
</trkpt>
<trkpt lat="45.8989920" lon="10.2680200">
	<ele>1256.80</ele>
	<time>2025-04-30T07:10:28.000Z</time>
</trkpt>
<trkpt lat="45.8990040" lon="10.2680260">
	<ele>1257.00</ele>
	<time>2025-04-30T07:10:29.000Z</time>
</trkpt>
<trkpt lat="45.8990040" lon="10.2680260">
	<ele>1257.20</ele>
	<time>2025-04-30T07:10:30.000Z</time>
</trkpt>
<trkpt lat="45.8990060" lon="10.2680280">
	<ele>1257.20</ele>
	<time>2025-04-30T07:10:31.000Z</time>
</trkpt>
<trkpt lat="45.8990040" lon="10.2680290">
	<ele>1257.40</ele>
	<time>2025-04-30T07:10:32.000Z</time>
</trkpt>
<trkpt lat="45.8989910" lon="10.2680330">
	<ele>1257.60</ele>
	<time>2025-04-30T07:10:33.000Z</time>
</trkpt>
<trkpt lat="45.8989920" lon="10.2680420">
	<ele>1257.80</ele>
	<time>2025-04-30T07:10:34.000Z</time>
</trkpt>
<trkpt lat="45.8989930" lon="10.2680460">
	<ele>1258.00</ele>
	<time>2025-04-30T07:10:35.000Z</time>
</trkpt>
<trkpt lat="45.8989880" lon="10.2680460">
	<ele>1258.20</ele>
	<time>2025-04-30T07:10:36.000Z</time>
</trkpt>
<trkpt lat="45.8989860" lon="10.2680460">
	<ele>1258.40</ele>
	<time>2025-04-30T07:10:37.000Z</time>
</trkpt>
<trkpt lat="45.8989840" lon="10.2680480">
	<ele>1258.60</ele>
	<time>2025-04-30T07:10:38.000Z</time>
</trkpt>
<trkpt lat="45.8989830" lon="10.2680500">
	<ele>1258.60</ele>
	<time>2025-04-30T07:10:39.000Z</time>
</trkpt>
<trkpt lat="45.8989840" lon="10.2680500">
	<ele>1258.80</ele>
	<time>2025-04-30T07:10:40.000Z</time>
</trkpt>
<trkpt lat="45.8989810" lon="10.2680560">
	<ele>1258.80</ele>
	<time>2025-04-30T07:10:41.000Z</time>
</trkpt>
<trkpt lat="45.8989770" lon="10.2680520">
	<ele>1259.00</ele>
	<time>2025-04-30T07:10:42.000Z</time>
</trkpt>
<trkpt lat="45.8989690" lon="10.2680490">
	<ele>1259.00</ele>
	<time>2025-04-30T07:10:43.000Z</time>
</trkpt>
<trkpt lat="45.8989670" lon="10.2680530">
	<ele>1259.20</ele>
	<time>2025-04-30T07:10:44.000Z</time>
</trkpt>
<trkpt lat="45.8989650" lon="10.2680530">
	<ele>1259.40</ele>
	<time>2025-04-30T07:10:45.000Z</time>
</trkpt>
<trkpt lat="45.8989640" lon="10.2680460">
	<ele>1259.60</ele>
	<time>2025-04-30T07:10:46.000Z</time>
</trkpt>
<trkpt lat="45.8989580" lon="10.2680420">
	<ele>1259.80</ele>
	<time>2025-04-30T07:10:47.000Z</time>
</trkpt>
<trkpt lat="45.8989550" lon="10.2680400">
	<ele>1259.80</ele>
	<time>2025-04-30T07:10:48.000Z</time>
</trkpt>
<trkpt lat="45.8989490" lon="10.2680420">
	<ele>1260.20</ele>
	<time>2025-04-30T07:10:49.000Z</time>
</trkpt>
<trkpt lat="45.8989610" lon="10.2680350">
	<ele>1260.40</ele>
	<time>2025-04-30T07:10:50.000Z</time>
</trkpt>
<trkpt lat="45.8989710" lon="10.2680220">
	<ele>1260.40</ele>
	<time>2025-04-30T07:10:51.000Z</time>
</trkpt>
<trkpt lat="45.8989740" lon="10.2680150">
	<ele>1260.60</ele>
	<time>2025-04-30T07:10:52.000Z</time>
</trkpt>
<trkpt lat="45.8989800" lon="10.2680180">
	<ele>1260.80</ele>
	<time>2025-04-30T07:10:53.000Z</time>
</trkpt>
<trkpt lat="45.8989950" lon="10.2680230">
	<ele>1261.00</ele>
	<time>2025-04-30T07:10:54.000Z</time>
</trkpt>
<trkpt lat="45.8990230" lon="10.2680240">
	<ele>1261.20</ele>
	<time>2025-04-30T07:10:55.000Z</time>
</trkpt>
<trkpt lat="45.8990400" lon="10.2680200">
	<ele>1261.40</ele>
	<time>2025-04-30T07:10:56.000Z</time>
</trkpt>
<trkpt lat="45.8990590" lon="10.2680300">
	<ele>1261.60</ele>
	<time>2025-04-30T07:10:57.000Z</time>
</trkpt>
<trkpt lat="45.8990540" lon="10.2680330">
	<ele>1261.80</ele>
	<time>2025-04-30T07:10:58.000Z</time>
</trkpt>
<trkpt lat="45.8990450" lon="10.2680350">
	<ele>1261.80</ele>
	<time>2025-04-30T07:10:59.000Z</time>
</trkpt>
<trkpt lat="45.8990310" lon="10.2680280">
	<ele>1262.00</ele>
	<time>2025-04-30T07:11:00.000Z</time>
</trkpt>
<trkpt lat="45.8990190" lon="10.2680120">
	<ele>1262.20</ele>
	<time>2025-04-30T07:11:01.000Z</time>
</trkpt>
<trkpt lat="45.8990000" lon="10.2680000">
	<ele>1262.40</ele>
	<time>2025-04-30T07:11:02.000Z</time>
</trkpt>
<trkpt lat="45.8989810" lon="10.2679890">
	<ele>1262.60</ele>
	<time>2025-04-30T07:11:03.000Z</time>
</trkpt>
<trkpt lat="45.8989700" lon="10.2679890">
	<ele>1262.80</ele>
	<time>2025-04-30T07:11:04.000Z</time>
</trkpt>
<trkpt lat="45.8989620" lon="10.2679880">
	<ele>1263.00</ele>
	<time>2025-04-30T07:11:05.000Z</time>
</trkpt>
<trkpt lat="45.8989700" lon="10.2680090">
	<ele>1263.20</ele>
	<time>2025-04-30T07:11:06.000Z</time>
</trkpt>
<trkpt lat="45.8989680" lon="10.2680190">
	<ele>1263.40</ele>
	<time>2025-04-30T07:11:07.000Z</time>
</trkpt>
<trkpt lat="45.8989560" lon="10.2680130">
	<ele>1263.40</ele>
	<time>2025-04-30T07:11:08.000Z</time>
</trkpt>
<trkpt lat="45.8989550" lon="10.2680090">
	<ele>1263.60</ele>
	<time>2025-04-30T07:11:09.000Z</time>
</trkpt>
<trkpt lat="45.8989380" lon="10.2680010">
	<ele>1263.60</ele>
	<time>2025-04-30T07:11:10.000Z</time>
</trkpt>
<trkpt lat="45.8989190" lon="10.2679950">
	<ele>1263.80</ele>
	<time>2025-04-30T07:11:11.000Z</time>
</trkpt>
<trkpt lat="45.8989150" lon="10.2679960">
	<ele>1263.80</ele>
	<time>2025-04-30T07:11:12.000Z</time>
</trkpt>
<trkpt lat="45.8989200" lon="10.2679990">
	<ele>1264.00</ele>
	<time>2025-04-30T07:11:13.000Z</time>
</trkpt>
<trkpt lat="45.8989240" lon="10.2680020">
	<ele>1264.20</ele>
	<time>2025-04-30T07:11:14.000Z</time>
</trkpt>
<trkpt lat="45.8989250" lon="10.2680060">
	<ele>1264.40</ele>
	<time>2025-04-30T07:11:15.000Z</time>
</trkpt>
<trkpt lat="45.8989200" lon="10.2680160">
	<ele>1264.60</ele>
	<time>2025-04-30T07:11:16.000Z</time>
</trkpt>
<trkpt lat="45.8989170" lon="10.2680250">
	<ele>1264.60</ele>
	<time>2025-04-30T07:11:17.000Z</time>
</trkpt>
<trkpt lat="45.8989170" lon="10.2680360">
	<ele>1264.80</ele>
	<time>2025-04-30T07:11:18.000Z</time>
</trkpt>
<trkpt lat="45.8989210" lon="10.2680470">
	<ele>1265.00</ele>
	<time>2025-04-30T07:11:19.000Z</time>
</trkpt>
<trkpt lat="45.8989250" lon="10.2680530">
	<ele>1265.20</ele>
	<time>2025-04-30T07:11:20.000Z</time>
</trkpt>
<trkpt lat="45.8989400" lon="10.2680800">
	<ele>1265.40</ele>
	<time>2025-04-30T07:11:21.000Z</time>
</trkpt>
<trkpt lat="45.8989570" lon="10.2680990">
	<ele>1265.40</ele>
	<time>2025-04-30T07:11:22.000Z</time>
</trkpt>
<trkpt lat="45.8989680" lon="10.2681160">
	<ele>1265.60</ele>
	<time>2025-04-30T07:11:23.000Z</time>
</trkpt>
<trkpt lat="45.8989560" lon="10.2681170">
	<ele>1265.80</ele>
	<time>2025-04-30T07:11:24.000Z</time>
</trkpt>
<trkpt lat="45.8989320" lon="10.2681280">
	<ele>1266.20</ele>
	<time>2025-04-30T07:11:25.000Z</time>
</trkpt>
<trkpt lat="45.8989230" lon="10.2681330">
	<ele>1266.20</ele>
	<time>2025-04-30T07:11:26.000Z</time>
</trkpt>
<trkpt lat="45.8989180" lon="10.2681260">
	<ele>1266.40</ele>
	<time>2025-04-30T07:11:27.000Z</time>
</trkpt>
<trkpt lat="45.8989060" lon="10.2681180">
	<ele>1266.60</ele>
	<time>2025-04-30T07:11:28.000Z</time>
</trkpt>
<trkpt lat="45.8989000" lon="10.2681180">
	<ele>1266.60</ele>
	<time>2025-04-30T07:11:29.000Z</time>
</trkpt>
<trkpt lat="45.8988940" lon="10.2681120">
	<ele>1266.80</ele>
	<time>2025-04-30T07:11:30.000Z</time>
</trkpt>
<trkpt lat="45.8988900" lon="10.2681100">
	<ele>1266.80</ele>
	<time>2025-04-30T07:11:31.000Z</time>
</trkpt>
<trkpt lat="45.8988880" lon="10.2681120">
	<ele>1267.00</ele>
	<time>2025-04-30T07:11:32.000Z</time>
</trkpt>
<trkpt lat="45.8988780" lon="10.2681060">
	<ele>1267.20</ele>
	<time>2025-04-30T07:11:33.000Z</time>
</trkpt>
<trkpt lat="45.8988720" lon="10.2681040">
	<ele>1267.20</ele>
	<time>2025-04-30T07:11:34.000Z</time>
</trkpt>
<trkpt lat="45.8988720" lon="10.2681190">
	<ele>1267.40</ele>
	<time>2025-04-30T07:11:35.000Z</time>
</trkpt>
<trkpt lat="45.8988650" lon="10.2681080">
	<ele>1267.60</ele>
	<time>2025-04-30T07:11:36.000Z</time>
</trkpt>
<trkpt lat="45.8988570" lon="10.2681050">
	<ele>1268.00</ele>
	<time>2025-04-30T07:11:37.000Z</time>
</trkpt>
<trkpt lat="45.8988530" lon="10.2681060">
	<ele>1268.20</ele>
	<time>2025-04-30T07:11:38.000Z</time>
</trkpt>
<trkpt lat="45.8988500" lon="10.2681070">
	<ele>1268.40</ele>
	<time>2025-04-30T07:11:39.000Z</time>
</trkpt>
<trkpt lat="45.8988380" lon="10.2681000">
	<ele>1268.40</ele>
	<time>2025-04-30T07:11:40.000Z</time>
</trkpt>
<trkpt lat="45.8988230" lon="10.2680720">
	<ele>1268.60</ele>
	<time>2025-04-30T07:11:41.000Z</time>
</trkpt>
<trkpt lat="45.8988160" lon="10.2680640">
	<ele>1268.80</ele>
	<time>2025-04-30T07:11:42.000Z</time>
</trkpt>
<trkpt lat="45.8988150" lon="10.2680610">
	<ele>1268.80</ele>
	<time>2025-04-30T07:11:43.000Z</time>
</trkpt>
<trkpt lat="45.8988180" lon="10.2680610">
	<ele>1269.00</ele>
	<time>2025-04-30T07:11:44.000Z</time>
</trkpt>
<trkpt lat="45.8988170" lon="10.2680610">
	<ele>1269.20</ele>
	<time>2025-04-30T07:11:45.000Z</time>
</trkpt>
<trkpt lat="45.8988180" lon="10.2680610">
	<ele>1269.20</ele>
	<time>2025-04-30T07:11:46.000Z</time>
</trkpt>
<trkpt lat="45.8988190" lon="10.2680630">
	<ele>1269.40</ele>
	<time>2025-04-30T07:11:47.000Z</time>
</trkpt>
<trkpt lat="45.8988090" lon="10.2680650">
	<ele>1269.40</ele>
	<time>2025-04-30T07:11:48.000Z</time>
</trkpt>
<trkpt lat="45.8988060" lon="10.2680630">
	<ele>1269.80</ele>
	<time>2025-04-30T07:11:49.000Z</time>
</trkpt>
<trkpt lat="45.8988080" lon="10.2680590">
	<ele>1270.00</ele>
	<time>2025-04-30T07:11:50.000Z</time>
</trkpt>
<trkpt lat="45.8988070" lon="10.2680640">
	<ele>1270.20</ele>
	<time>2025-04-30T07:11:51.000Z</time>
</trkpt>
<trkpt lat="45.8988090" lon="10.2680640">
	<ele>1270.60</ele>
	<time>2025-04-30T07:11:52.000Z</time>
</trkpt>
<trkpt lat="45.8988080" lon="10.2680720">
	<ele>1270.60</ele>
	<time>2025-04-30T07:11:53.000Z</time>
</trkpt>
<trkpt lat="45.8987890" lon="10.2680560">
	<ele>1270.80</ele>
	<time>2025-04-30T07:11:54.000Z</time>
</trkpt>
<trkpt lat="45.8987860" lon="10.2680470">
	<ele>1271.00</ele>
	<time>2025-04-30T07:11:55.000Z</time>
</trkpt>
<trkpt lat="45.8987840" lon="10.2680340">
	<ele>1271.00</ele>
	<time>2025-04-30T07:11:56.000Z</time>
</trkpt>
<trkpt lat="45.8987850" lon="10.2680320">
	<ele>1271.20</ele>
	<time>2025-04-30T07:11:57.000Z</time>
</trkpt>
<trkpt lat="45.8987870" lon="10.2680280">
	<ele>1271.20</ele>
	<time>2025-04-30T07:11:58.000Z</time>
</trkpt>
<trkpt lat="45.8987800" lon="10.2680190">
	<ele>1271.40</ele>
	<time>2025-04-30T07:11:59.000Z</time>
</trkpt>
<trkpt lat="45.8987690" lon="10.2680220">
	<ele>1271.60</ele>
	<time>2025-04-30T07:12:00.000Z</time>
</trkpt>
<trkpt lat="45.8987600" lon="10.2680340">
	<ele>1271.80</ele>
	<time>2025-04-30T07:12:01.000Z</time>
</trkpt>
<trkpt lat="45.8987470" lon="10.2680460">
	<ele>1272.00</ele>
	<time>2025-04-30T07:12:02.000Z</time>
</trkpt>
<trkpt lat="45.8987390" lon="10.2680360">
	<ele>1272.20</ele>
	<time>2025-04-30T07:12:03.000Z</time>
</trkpt>
<trkpt lat="45.8987370" lon="10.2680350">
	<ele>1272.40</ele>
	<time>2025-04-30T07:12:04.000Z</time>
</trkpt>
<trkpt lat="45.8987360" lon="10.2680370">
	<ele>1272.40</ele>
	<time>2025-04-30T07:12:05.000Z</time>
</trkpt>
<trkpt lat="45.8987390" lon="10.2680240">
	<ele>1272.60</ele>
	<time>2025-04-30T07:12:06.000Z</time>
</trkpt>
<trkpt lat="45.8987340" lon="10.2680190">
	<ele>1272.80</ele>
	<time>2025-04-30T07:12:07.000Z</time>
</trkpt>
<trkpt lat="45.8987350" lon="10.2680170">
	<ele>1272.80</ele>
	<time>2025-04-30T07:12:08.000Z</time>
</trkpt>
<trkpt lat="45.8987340" lon="10.2680150">
	<ele>1272.80</ele>
	<time>2025-04-30T07:12:09.000Z</time>
</trkpt>
<trkpt lat="45.8987330" lon="10.2680150">
	<ele>1273.00</ele>
	<time>2025-04-30T07:12:10.000Z</time>
</trkpt>
<trkpt lat="45.8987350" lon="10.2680110">
	<ele>1273.20</ele>
	<time>2025-04-30T07:12:11.000Z</time>
</trkpt>
<trkpt lat="45.8987350" lon="10.2680090">
	<ele>1273.20</ele>
	<time>2025-04-30T07:12:12.000Z</time>
</trkpt>
<trkpt lat="45.8987370" lon="10.2680110">
	<ele>1273.40</ele>
	<time>2025-04-30T07:12:13.000Z</time>
</trkpt>
<trkpt lat="45.8987370" lon="10.2680180">
	<ele>1273.40</ele>
	<time>2025-04-30T07:12:14.000Z</time>
</trkpt>
<trkpt lat="45.8987470" lon="10.2680360">
	<ele>1273.40</ele>
	<time>2025-04-30T07:12:15.000Z</time>
</trkpt>
<trkpt lat="45.8987570" lon="10.2680520">
	<ele>1273.60</ele>
	<time>2025-04-30T07:12:16.000Z</time>
</trkpt>
<trkpt lat="45.8987610" lon="10.2680800">
	<ele>1273.60</ele>
	<time>2025-04-30T07:12:17.000Z</time>
</trkpt>
<trkpt lat="45.8987610" lon="10.2680990">
	<ele>1273.80</ele>
	<time>2025-04-30T07:12:18.000Z</time>
</trkpt>
<trkpt lat="45.8987590" lon="10.2681110">
	<ele>1273.80</ele>
	<time>2025-04-30T07:12:19.000Z</time>
</trkpt>
<trkpt lat="45.8987530" lon="10.2681170">
	<ele>1273.80</ele>
	<time>2025-04-30T07:12:20.000Z</time>
</trkpt>
<trkpt lat="45.8987550" lon="10.2681170">
	<ele>1274.00</ele>
	<time>2025-04-30T07:12:21.000Z</time>
</trkpt>
<trkpt lat="45.8987540" lon="10.2681160">
	<ele>1274.20</ele>
	<time>2025-04-30T07:12:22.000Z</time>
</trkpt>
<trkpt lat="45.8987550" lon="10.2681180">
	<ele>1274.20</ele>
	<time>2025-04-30T07:12:23.000Z</time>
</trkpt>
<trkpt lat="45.8987560" lon="10.2681220">
	<ele>1274.60</ele>
	<time>2025-04-30T07:12:24.000Z</time>
</trkpt>
<trkpt lat="45.8987550" lon="10.2681260">
	<ele>1274.80</ele>
	<time>2025-04-30T07:12:25.000Z</time>
</trkpt>
<trkpt lat="45.8987550" lon="10.2681300">
	<ele>1274.80</ele>
	<time>2025-04-30T07:12:26.000Z</time>
</trkpt>
<trkpt lat="45.8987510" lon="10.2681430">
	<ele>1274.80</ele>
	<time>2025-04-30T07:12:27.000Z</time>
</trkpt>
<trkpt lat="45.8987440" lon="10.2681510">
	<ele>1275.00</ele>
	<time>2025-04-30T07:12:28.000Z</time>
</trkpt>
<trkpt lat="45.8987410" lon="10.2681580">
	<ele>1275.00</ele>
	<time>2025-04-30T07:12:29.000Z</time>
</trkpt>
<trkpt lat="45.8987400" lon="10.2681700">
	<ele>1275.20</ele>
	<time>2025-04-30T07:12:30.000Z</time>
</trkpt>
<trkpt lat="45.8987440" lon="10.2681840">
	<ele>1275.40</ele>
	<time>2025-04-30T07:12:31.000Z</time>
</trkpt>
<trkpt lat="45.8987490" lon="10.2681920">
	<ele>1275.40</ele>
	<time>2025-04-30T07:12:32.000Z</time>
</trkpt>
<trkpt lat="45.8987510" lon="10.2682030">
	<ele>1275.60</ele>
	<time>2025-04-30T07:12:33.000Z</time>
</trkpt>
<trkpt lat="45.8987460" lon="10.2682120">
	<ele>1275.80</ele>
	<time>2025-04-30T07:12:34.000Z</time>
</trkpt>
<trkpt lat="45.8987450" lon="10.2682120">
	<ele>1276.00</ele>
	<time>2025-04-30T07:12:35.000Z</time>
</trkpt>
<trkpt lat="45.8987380" lon="10.2682150">
	<ele>1276.40</ele>
	<time>2025-04-30T07:12:36.000Z</time>
</trkpt>
<trkpt lat="45.8987370" lon="10.2682260">
	<ele>1276.60</ele>
	<time>2025-04-30T07:12:37.000Z</time>
</trkpt>
<trkpt lat="45.8987380" lon="10.2682420">
	<ele>1276.80</ele>
	<time>2025-04-30T07:12:38.000Z</time>
</trkpt>
<trkpt lat="45.8987350" lon="10.2682450">
	<ele>1276.80</ele>
	<time>2025-04-30T07:12:39.000Z</time>
</trkpt>
<trkpt lat="45.8987320" lon="10.2682570">
	<ele>1277.00</ele>
	<time>2025-04-30T07:12:40.000Z</time>
</trkpt>
<trkpt lat="45.8987310" lon="10.2682660">
	<ele>1277.20</ele>
	<time>2025-04-30T07:12:41.000Z</time>
</trkpt>
<trkpt lat="45.8987320" lon="10.2682660">
	<ele>1277.20</ele>
	<time>2025-04-30T07:12:42.000Z</time>
</trkpt>
<trkpt lat="45.8987310" lon="10.2682640">
	<ele>1277.60</ele>
	<time>2025-04-30T07:12:43.000Z</time>
</trkpt>
<trkpt lat="45.8987230" lon="10.2682700">
	<ele>1277.80</ele>
	<time>2025-04-30T07:12:44.000Z</time>
</trkpt>
<trkpt lat="45.8987180" lon="10.2682760">
	<ele>1278.00</ele>
	<time>2025-04-30T07:12:45.000Z</time>
</trkpt>
<trkpt lat="45.8987130" lon="10.2682810">
	<ele>1278.20</ele>
	<time>2025-04-30T07:12:46.000Z</time>
</trkpt>
<trkpt lat="45.8987090" lon="10.2682990">
	<ele>1278.20</ele>
	<time>2025-04-30T07:12:47.000Z</time>
</trkpt>
<trkpt lat="45.8987110" lon="10.2683060">
	<ele>1278.40</ele>
	<time>2025-04-30T07:12:48.000Z</time>
</trkpt>
<trkpt lat="45.8987080" lon="10.2683220">
	<ele>1278.60</ele>
	<time>2025-04-30T07:12:49.000Z</time>
</trkpt>
<trkpt lat="45.8987020" lon="10.2683420">
	<ele>1278.60</ele>
	<time>2025-04-30T07:12:50.000Z</time>
</trkpt>
<trkpt lat="45.8986960" lon="10.2683580">
	<ele>1278.80</ele>
	<time>2025-04-30T07:12:51.000Z</time>
</trkpt>
<trkpt lat="45.8986900" lon="10.2683680">
	<ele>1279.00</ele>
	<time>2025-04-30T07:12:52.000Z</time>
</trkpt>
<trkpt lat="45.8986930" lon="10.2683730">
	<ele>1279.20</ele>
	<time>2025-04-30T07:12:53.000Z</time>
</trkpt>
<trkpt lat="45.8986920" lon="10.2683770">
	<ele>1279.40</ele>
	<time>2025-04-30T07:12:54.000Z</time>
</trkpt>
<trkpt lat="45.8986920" lon="10.2683800">
	<ele>1279.60</ele>
	<time>2025-04-30T07:12:55.000Z</time>
</trkpt>
<trkpt lat="45.8986910" lon="10.2683820">
	<ele>1279.80</ele>
	<time>2025-04-30T07:12:56.000Z</time>
</trkpt>
<trkpt lat="45.8986910" lon="10.2683840">
	<ele>1279.80</ele>
	<time>2025-04-30T07:12:57.000Z</time>
</trkpt>
<trkpt lat="45.8986950" lon="10.2683910">
	<ele>1280.00</ele>
	<time>2025-04-30T07:12:58.000Z</time>
</trkpt>
<trkpt lat="45.8986980" lon="10.2684040">
	<ele>1280.00</ele>
	<time>2025-04-30T07:12:59.000Z</time>
</trkpt>
<trkpt lat="45.8986990" lon="10.2684090">
	<ele>1280.20</ele>
	<time>2025-04-30T07:13:00.000Z</time>
</trkpt>
<trkpt lat="45.8987000" lon="10.2684170">
	<ele>1280.40</ele>
	<time>2025-04-30T07:13:01.000Z</time>
</trkpt>
<trkpt lat="45.8986980" lon="10.2684370">
	<ele>1280.60</ele>
	<time>2025-04-30T07:13:02.000Z</time>
</trkpt>
<trkpt lat="45.8986960" lon="10.2684450">
	<ele>1280.80</ele>
	<time>2025-04-30T07:13:03.000Z</time>
</trkpt>
<trkpt lat="45.8986960" lon="10.2684510">
	<ele>1281.00</ele>
	<time>2025-04-30T07:13:04.000Z</time>
</trkpt>
<trkpt lat="45.8986950" lon="10.2684520">
	<ele>1281.20</ele>
	<time>2025-04-30T07:13:05.000Z</time>
</trkpt>
<trkpt lat="45.8986930" lon="10.2684480">
	<ele>1281.40</ele>
	<time>2025-04-30T07:13:06.000Z</time>
</trkpt>
<trkpt lat="45.8986890" lon="10.2684460">
	<ele>1281.60</ele>
	<time>2025-04-30T07:13:07.000Z</time>
</trkpt>
<trkpt lat="45.8986860" lon="10.2684560">
	<ele>1281.60</ele>
	<time>2025-04-30T07:13:08.000Z</time>
</trkpt>
<trkpt lat="45.8986840" lon="10.2684610">
	<ele>1281.80</ele>
	<time>2025-04-30T07:13:09.000Z</time>
</trkpt>
<trkpt lat="45.8986820" lon="10.2684640">
	<ele>1282.20</ele>
	<time>2025-04-30T07:13:10.000Z</time>
</trkpt>
<trkpt lat="45.8986820" lon="10.2684670">
	<ele>1282.40</ele>
	<time>2025-04-30T07:13:11.000Z</time>
</trkpt>
<trkpt lat="45.8986790" lon="10.2684700">
	<ele>1282.40</ele>
	<time>2025-04-30T07:13:12.000Z</time>
</trkpt>
<trkpt lat="45.8986780" lon="10.2684770">
	<ele>1282.60</ele>
	<time>2025-04-30T07:13:13.000Z</time>
</trkpt>
<trkpt lat="45.8986770" lon="10.2684820">
	<ele>1282.80</ele>
	<time>2025-04-30T07:13:14.000Z</time>
</trkpt>
<trkpt lat="45.8986750" lon="10.2684870">
	<ele>1282.80</ele>
	<time>2025-04-30T07:13:15.000Z</time>
</trkpt>
<trkpt lat="45.8986760" lon="10.2684890">
	<ele>1283.00</ele>
	<time>2025-04-30T07:13:16.000Z</time>
</trkpt>
<trkpt lat="45.8986770" lon="10.2684950">
	<ele>1283.00</ele>
	<time>2025-04-30T07:13:17.000Z</time>
</trkpt>
<trkpt lat="45.8986770" lon="10.2685110">
	<ele>1283.20</ele>
	<time>2025-04-30T07:13:18.000Z</time>
</trkpt>
<trkpt lat="45.8986760" lon="10.2685240">
	<ele>1283.40</ele>
	<time>2025-04-30T07:13:19.000Z</time>
</trkpt>
<trkpt lat="45.8986730" lon="10.2685380">
	<ele>1283.60</ele>
	<time>2025-04-30T07:13:20.000Z</time>
</trkpt>
<trkpt lat="45.8986740" lon="10.2685430">
	<ele>1283.80</ele>
	<time>2025-04-30T07:13:21.000Z</time>
</trkpt>
<trkpt lat="45.8986730" lon="10.2685490">
	<ele>1284.00</ele>
	<time>2025-04-30T07:13:22.000Z</time>
</trkpt>
<trkpt lat="45.8986670" lon="10.2685540">
	<ele>1284.40</ele>
	<time>2025-04-30T07:13:23.000Z</time>
</trkpt>
<trkpt lat="45.8986620" lon="10.2685670">
	<ele>1284.60</ele>
	<time>2025-04-30T07:13:24.000Z</time>
</trkpt>
<trkpt lat="45.8986590" lon="10.2685730">
	<ele>1284.80</ele>
	<time>2025-04-30T07:13:25.000Z</time>
</trkpt>
<trkpt lat="45.8986570" lon="10.2685760">
	<ele>1285.00</ele>
	<time>2025-04-30T07:13:26.000Z</time>
</trkpt>
<trkpt lat="45.8986580" lon="10.2685740">
	<ele>1285.20</ele>
	<time>2025-04-30T07:13:27.000Z</time>
</trkpt>
<trkpt lat="45.8986560" lon="10.2685780">
	<ele>1285.20</ele>
	<time>2025-04-30T07:13:28.000Z</time>
</trkpt>
<trkpt lat="45.8986550" lon="10.2685820">
	<ele>1285.40</ele>
	<time>2025-04-30T07:13:29.000Z</time>
</trkpt>
<trkpt lat="45.8986540" lon="10.2685850">
	<ele>1285.80</ele>
	<time>2025-04-30T07:13:30.000Z</time>
</trkpt>
<trkpt lat="45.8986470" lon="10.2685830">
	<ele>1286.00</ele>
	<time>2025-04-30T07:13:31.000Z</time>
</trkpt>
<trkpt lat="45.8986400" lon="10.2685850">
	<ele>1286.20</ele>
	<time>2025-04-30T07:13:32.000Z</time>
</trkpt>
<trkpt lat="45.8986360" lon="10.2685840">
	<ele>1286.40</ele>
	<time>2025-04-30T07:13:33.000Z</time>
</trkpt>
<trkpt lat="45.8986350" lon="10.2685850">
	<ele>1286.60</ele>
	<time>2025-04-30T07:13:34.000Z</time>
</trkpt>
<trkpt lat="45.8986330" lon="10.2685870">
	<ele>1286.80</ele>
	<time>2025-04-30T07:13:35.000Z</time>
</trkpt>
<trkpt lat="45.8986290" lon="10.2685910">
	<ele>1286.80</ele>
	<time>2025-04-30T07:13:36.000Z</time>
</trkpt>
<trkpt lat="45.8986270" lon="10.2685920">
	<ele>1287.00</ele>
	<time>2025-04-30T07:13:37.000Z</time>
</trkpt>
<trkpt lat="45.8986240" lon="10.2685950">
	<ele>1287.20</ele>
	<time>2025-04-30T07:13:38.000Z</time>
</trkpt>
<trkpt lat="45.8986140" lon="10.2685980">
	<ele>1287.40</ele>
	<time>2025-04-30T07:13:39.000Z</time>
</trkpt>
<trkpt lat="45.8986080" lon="10.2686020">
	<ele>1287.60</ele>
	<time>2025-04-30T07:13:40.000Z</time>
</trkpt>
<trkpt lat="45.8986100" lon="10.2686010">
	<ele>1287.60</ele>
	<time>2025-04-30T07:13:41.000Z</time>
</trkpt>
<trkpt lat="45.8986110" lon="10.2686010">
	<ele>1287.80</ele>
	<time>2025-04-30T07:13:42.000Z</time>
</trkpt>
<trkpt lat="45.8986110" lon="10.2686010">
	<ele>1288.00</ele>
	<time>2025-04-30T07:13:43.000Z</time>
</trkpt>
<trkpt lat="45.8986100" lon="10.2686020">
	<ele>1288.20</ele>
	<time>2025-04-30T07:13:44.000Z</time>
</trkpt>
<trkpt lat="45.8986080" lon="10.2686000">
	<ele>1288.20</ele>
	<time>2025-04-30T07:13:45.000Z</time>
</trkpt>
<trkpt lat="45.8986060" lon="10.2685990">
	<ele>1288.20</ele>
	<time>2025-04-30T07:13:46.000Z</time>
</trkpt>
<trkpt lat="45.8986030" lon="10.2685980">
	<ele>1288.20</ele>
	<time>2025-04-30T07:13:47.000Z</time>
</trkpt>
<trkpt lat="45.8986010" lon="10.2685980">
	<ele>1288.20</ele>
	<time>2025-04-30T07:13:48.000Z</time>
</trkpt>
<trkpt lat="45.8985990" lon="10.2686000">
	<ele>1288.40</ele>
	<time>2025-04-30T07:13:49.000Z</time>
</trkpt>
<trkpt lat="45.8985980" lon="10.2686060">
	<ele>1288.40</ele>
	<time>2025-04-30T07:13:50.000Z</time>
</trkpt>
<trkpt lat="45.8986020" lon="10.2686070">
	<ele>1288.40</ele>
	<time>2025-04-30T07:13:51.000Z</time>
</trkpt>
<trkpt lat="45.8986020" lon="10.2686100">
	<ele>1288.60</ele>
	<time>2025-04-30T07:13:52.000Z</time>
</trkpt>
<trkpt lat="45.8985990" lon="10.2686110">
	<ele>1288.60</ele>
	<time>2025-04-30T07:13:53.000Z</time>
</trkpt>
<trkpt lat="45.8985940" lon="10.2686100">
	<ele>1288.60</ele>
	<time>2025-04-30T07:13:54.000Z</time>
</trkpt>
<trkpt lat="45.8985830" lon="10.2686120">
	<ele>1288.60</ele>
	<time>2025-04-30T07:13:55.000Z</time>
</trkpt>
<trkpt lat="45.8985720" lon="10.2686100">
	<ele>1288.60</ele>
	<time>2025-04-30T07:13:56.000Z</time>
</trkpt>
<trkpt lat="45.8985670" lon="10.2686060">
	<ele>1288.80</ele>
	<time>2025-04-30T07:13:57.000Z</time>
</trkpt>
<trkpt lat="45.8985630" lon="10.2686060">
	<ele>1288.80</ele>
	<time>2025-04-30T07:13:58.000Z</time>
</trkpt>
<trkpt lat="45.8985590" lon="10.2686090">
	<ele>1289.20</ele>
	<time>2025-04-30T07:13:59.000Z</time>
</trkpt>
<trkpt lat="45.8985550" lon="10.2686100">
	<ele>1289.40</ele>
	<time>2025-04-30T07:14:00.000Z</time>
</trkpt>
<trkpt lat="45.8985530" lon="10.2686080">
	<ele>1289.40</ele>
	<time>2025-04-30T07:14:01.000Z</time>
</trkpt>
<trkpt lat="45.8985520" lon="10.2686030">
	<ele>1289.40</ele>
	<time>2025-04-30T07:14:02.000Z</time>
</trkpt>
<trkpt lat="45.8985520" lon="10.2686040">
	<ele>1289.60</ele>
	<time>2025-04-30T07:14:03.000Z</time>
</trkpt>
<trkpt lat="45.8985490" lon="10.2686040">
	<ele>1289.80</ele>
	<time>2025-04-30T07:14:04.000Z</time>
</trkpt>
<trkpt lat="45.8985480" lon="10.2686030">
	<ele>1289.80</ele>
	<time>2025-04-30T07:14:05.000Z</time>
</trkpt>
<trkpt lat="45.8985450" lon="10.2686020">
	<ele>1290.00</ele>
	<time>2025-04-30T07:14:06.000Z</time>
</trkpt>
<trkpt lat="45.8985440" lon="10.2686030">
	<ele>1290.40</ele>
	<time>2025-04-30T07:14:07.000Z</time>
</trkpt>
<trkpt lat="45.8985380" lon="10.2686030">
	<ele>1290.60</ele>
	<time>2025-04-30T07:14:08.000Z</time>
</trkpt>
<trkpt lat="45.8985350" lon="10.2686020">
	<ele>1290.80</ele>
	<time>2025-04-30T07:14:09.000Z</time>
</trkpt>
<trkpt lat="45.8985290" lon="10.2686050">
	<ele>1291.00</ele>
	<time>2025-04-30T07:14:10.000Z</time>
</trkpt>
<trkpt lat="45.8985260" lon="10.2685980">
	<ele>1291.20</ele>
	<time>2025-04-30T07:14:11.000Z</time>
</trkpt>
<trkpt lat="45.8985240" lon="10.2685970">
	<ele>1291.40</ele>
	<time>2025-04-30T07:14:12.000Z</time>
</trkpt>
<trkpt lat="45.8985210" lon="10.2685960">
	<ele>1291.60</ele>
	<time>2025-04-30T07:14:13.000Z</time>
</trkpt>
<trkpt lat="45.8985200" lon="10.2685930">
	<ele>1291.80</ele>
	<time>2025-04-30T07:14:14.000Z</time>
</trkpt>
<trkpt lat="45.8985170" lon="10.2685950">
	<ele>1292.00</ele>
	<time>2025-04-30T07:14:15.000Z</time>
</trkpt>
<trkpt lat="45.8985130" lon="10.2685980">
	<ele>1292.20</ele>
	<time>2025-04-30T07:14:16.000Z</time>
</trkpt>
<trkpt lat="45.8985100" lon="10.2685990">
	<ele>1292.20</ele>
	<time>2025-04-30T07:14:17.000Z</time>
</trkpt>
<trkpt lat="45.8985090" lon="10.2685990">
	<ele>1292.40</ele>
	<time>2025-04-30T07:14:18.000Z</time>
</trkpt>
<trkpt lat="45.8985090" lon="10.2685980">
	<ele>1292.40</ele>
	<time>2025-04-30T07:14:19.000Z</time>
</trkpt>
<trkpt lat="45.8985070" lon="10.2685990">
	<ele>1292.60</ele>
	<time>2025-04-30T07:14:20.000Z</time>
</trkpt>
<trkpt lat="45.8985020" lon="10.2685960">
	<ele>1293.00</ele>
	<time>2025-04-30T07:14:21.000Z</time>
</trkpt>
<trkpt lat="45.8984980" lon="10.2685970">
	<ele>1293.00</ele>
	<time>2025-04-30T07:14:22.000Z</time>
</trkpt>
<trkpt lat="45.8984940" lon="10.2685980">
	<ele>1293.20</ele>
	<time>2025-04-30T07:14:23.000Z</time>
</trkpt>
<trkpt lat="45.8984930" lon="10.2685980">
	<ele>1293.60</ele>
	<time>2025-04-30T07:14:24.000Z</time>
</trkpt>
<trkpt lat="45.8984930" lon="10.2685980">
	<ele>1293.80</ele>
	<time>2025-04-30T07:14:25.000Z</time>
</trkpt>
<trkpt lat="45.8984930" lon="10.2685980">
	<ele>1294.00</ele>
	<time>2025-04-30T07:14:26.000Z</time>
</trkpt>
<trkpt lat="45.8984930" lon="10.2685980">
	<ele>1294.20</ele>
	<time>2025-04-30T07:14:27.000Z</time>
</trkpt>
<trkpt lat="45.8984930" lon="10.2685980">
	<ele>1294.40</ele>
	<time>2025-04-30T07:14:28.000Z</time>
</trkpt>
<trkpt lat="45.8984930" lon="10.2685980">
	<ele>1294.40</ele>
	<time>2025-04-30T07:14:29.000Z</time>
</trkpt>
<trkpt lat="45.8984930" lon="10.2685980">
	<ele>1294.40</ele>
	<time>2025-04-30T07:14:30.000Z</time>
</trkpt>
<trkpt lat="45.8984930" lon="10.2685980">
	<ele>1294.60</ele>
	<time>2025-04-30T07:14:31.000Z</time>
</trkpt>
<trkpt lat="45.8984930" lon="10.2685980">
	<ele>1294.80</ele>
	<time>2025-04-30T07:14:32.000Z</time>
</trkpt>
<trkpt lat="45.8984930" lon="10.2685980">
	<ele>1295.00</ele>
	<time>2025-04-30T07:14:33.000Z</time>
</trkpt>
<trkpt lat="45.8984930" lon="10.2685980">
	<ele>1295.00</ele>
	<time>2025-04-30T07:14:34.000Z</time>
</trkpt>
<trkpt lat="45.8984930" lon="10.2685980">
	<ele>1295.20</ele>
	<time>2025-04-30T07:14:35.000Z</time>
</trkpt>
<trkpt lat="45.8984930" lon="10.2685980">
	<ele>1295.60</ele>
	<time>2025-04-30T07:14:36.000Z</time>
</trkpt>
<trkpt lat="45.8984930" lon="10.2685990">
	<ele>1295.60</ele>
	<time>2025-04-30T07:14:37.000Z</time>
</trkpt>
<trkpt lat="45.8984930" lon="10.2685990">
	<ele>1295.80</ele>
	<time>2025-04-30T07:14:38.000Z</time>
</trkpt>
<trkpt lat="45.8984930" lon="10.2685990">
	<ele>1296.00</ele>
	<time>2025-04-30T07:14:39.000Z</time>
</trkpt>
<trkpt lat="45.8984920" lon="10.2686020">
	<ele>1296.20</ele>
	<time>2025-04-30T07:14:40.000Z</time>
</trkpt>
<trkpt lat="45.8984850" lon="10.2686020">
	<ele>1296.40</ele>
	<time>2025-04-30T07:14:41.000Z</time>
</trkpt>
<trkpt lat="45.8984820" lon="10.2686040">
	<ele>1296.60</ele>
	<time>2025-04-30T07:14:42.000Z</time>
</trkpt>
<trkpt lat="45.8984810" lon="10.2686040">
	<ele>1296.60</ele>
	<time>2025-04-30T07:14:43.000Z</time>
</trkpt>
<trkpt lat="45.8984730" lon="10.2686060">
	<ele>1297.00</ele>
	<time>2025-04-30T07:14:44.000Z</time>
</trkpt>
<trkpt lat="45.8984650" lon="10.2686080">
	<ele>1297.20</ele>
	<time>2025-04-30T07:14:45.000Z</time>
</trkpt>
<trkpt lat="45.8984610" lon="10.2686090">
	<ele>1297.40</ele>
	<time>2025-04-30T07:14:46.000Z</time>
</trkpt>
<trkpt lat="45.8984570" lon="10.2686090">
	<ele>1297.60</ele>
	<time>2025-04-30T07:14:47.000Z</time>
</trkpt>
<trkpt lat="45.8984510" lon="10.2686100">
	<ele>1297.80</ele>
	<time>2025-04-30T07:14:48.000Z</time>
</trkpt>
<trkpt lat="45.8984470" lon="10.2686100">
	<ele>1297.80</ele>
	<time>2025-04-30T07:14:49.000Z</time>
</trkpt>
<trkpt lat="45.8984420" lon="10.2686100">
	<ele>1298.00</ele>
	<time>2025-04-30T07:14:50.000Z</time>
</trkpt>
<trkpt lat="45.8984360" lon="10.2686090">
	<ele>1298.20</ele>
	<time>2025-04-30T07:14:51.000Z</time>
</trkpt>
<trkpt lat="45.8984250" lon="10.2686060">
	<ele>1298.40</ele>
	<time>2025-04-30T07:14:52.000Z</time>
</trkpt>
<trkpt lat="45.8984120" lon="10.2685980">
	<ele>1298.40</ele>
	<time>2025-04-30T07:14:53.000Z</time>
</trkpt>
<trkpt lat="45.8983970" lon="10.2685900">
	<ele>1298.60</ele>
	<time>2025-04-30T07:14:54.000Z</time>
</trkpt>
<trkpt lat="45.8983870" lon="10.2685870">
	<ele>1298.60</ele>
	<time>2025-04-30T07:14:55.000Z</time>
</trkpt>
<trkpt lat="45.8983770" lon="10.2685840">
	<ele>1299.00</ele>
	<time>2025-04-30T07:14:56.000Z</time>
</trkpt>
<trkpt lat="45.8983650" lon="10.2685750">
	<ele>1299.20</ele>
	<time>2025-04-30T07:14:57.000Z</time>
</trkpt>
<trkpt lat="45.8983510" lon="10.2685660">
	<ele>1299.40</ele>
	<time>2025-04-30T07:14:58.000Z</time>
</trkpt>
<trkpt lat="45.8983390" lon="10.2685630">
	<ele>1299.60</ele>
	<time>2025-04-30T07:14:59.000Z</time>
</trkpt>
<trkpt lat="45.8983280" lon="10.2685570">
	<ele>1299.80</ele>
	<time>2025-04-30T07:15:00.000Z</time>
</trkpt>
<trkpt lat="45.8983250" lon="10.2685520">
	<ele>1300.00</ele>
	<time>2025-04-30T07:15:01.000Z</time>
</trkpt>
<trkpt lat="45.8983210" lon="10.2685510">
	<ele>1300.00</ele>
	<time>2025-04-30T07:15:02.000Z</time>
</trkpt>
<trkpt lat="45.8983180" lon="10.2685500">
	<ele>1300.20</ele>
	<time>2025-04-30T07:15:03.000Z</time>
</trkpt>
<trkpt lat="45.8983160" lon="10.2685510">
	<ele>1300.40</ele>
	<time>2025-04-30T07:15:04.000Z</time>
</trkpt>
<trkpt lat="45.8983140" lon="10.2685520">
	<ele>1300.40</ele>
	<time>2025-04-30T07:15:05.000Z</time>
</trkpt>
<trkpt lat="45.8983090" lon="10.2685580">
	<ele>1300.60</ele>
	<time>2025-04-30T07:15:06.000Z</time>
</trkpt>
<trkpt lat="45.8983060" lon="10.2685630">
	<ele>1300.80</ele>
	<time>2025-04-30T07:15:07.000Z</time>
</trkpt>
<trkpt lat="45.8982990" lon="10.2685630">
	<ele>1300.80</ele>
	<time>2025-04-30T07:15:08.000Z</time>
</trkpt>
<trkpt lat="45.8982900" lon="10.2685600">
	<ele>1301.00</ele>
	<time>2025-04-30T07:15:09.000Z</time>
</trkpt>
<trkpt lat="45.8982860" lon="10.2685590">
	<ele>1301.20</ele>
	<time>2025-04-30T07:15:10.000Z</time>
</trkpt>
<trkpt lat="45.8982830" lon="10.2685580">
	<ele>1301.60</ele>
	<time>2025-04-30T07:15:11.000Z</time>
</trkpt>
<trkpt lat="45.8982800" lon="10.2685560">
	<ele>1301.80</ele>
	<time>2025-04-30T07:15:12.000Z</time>
</trkpt>
<trkpt lat="45.8982780" lon="10.2685470">
	<ele>1302.00</ele>
	<time>2025-04-30T07:15:13.000Z</time>
</trkpt>
<trkpt lat="45.8982760" lon="10.2685420">
	<ele>1302.00</ele>
	<time>2025-04-30T07:15:14.000Z</time>
</trkpt>
<trkpt lat="45.8982730" lon="10.2685360">
	<ele>1302.40</ele>
	<time>2025-04-30T07:15:15.000Z</time>
</trkpt>
<trkpt lat="45.8982720" lon="10.2685320">
	<ele>1302.60</ele>
	<time>2025-04-30T07:15:16.000Z</time>
</trkpt>
<trkpt lat="45.8982650" lon="10.2685350">
	<ele>1302.80</ele>
	<time>2025-04-30T07:15:17.000Z</time>
</trkpt>
<trkpt lat="45.8982540" lon="10.2685300">
	<ele>1302.80</ele>
	<time>2025-04-30T07:15:18.000Z</time>
</trkpt>
<trkpt lat="45.8982500" lon="10.2685280">
	<ele>1303.00</ele>
	<time>2025-04-30T07:15:19.000Z</time>
</trkpt>
<trkpt lat="45.8982480" lon="10.2685270">
	<ele>1303.20</ele>
	<time>2025-04-30T07:15:20.000Z</time>
</trkpt>
<trkpt lat="45.8982440" lon="10.2685270">
	<ele>1303.20</ele>
	<time>2025-04-30T07:15:21.000Z</time>
</trkpt>
<trkpt lat="45.8982420" lon="10.2685260">
	<ele>1303.40</ele>
	<time>2025-04-30T07:15:22.000Z</time>
</trkpt>
<trkpt lat="45.8982450" lon="10.2685240">
	<ele>1303.40</ele>
	<time>2025-04-30T07:15:23.000Z</time>
</trkpt>
<trkpt lat="45.8982440" lon="10.2685200">
	<ele>1303.60</ele>
	<time>2025-04-30T07:15:24.000Z</time>
</trkpt>
<trkpt lat="45.8982350" lon="10.2685230">
	<ele>1303.80</ele>
	<time>2025-04-30T07:15:25.000Z</time>
</trkpt>
<trkpt lat="45.8982300" lon="10.2685280">
	<ele>1304.00</ele>
	<time>2025-04-30T07:15:26.000Z</time>
</trkpt>
<trkpt lat="45.8982270" lon="10.2685260">
	<ele>1304.20</ele>
	<time>2025-04-30T07:15:27.000Z</time>
</trkpt>
<trkpt lat="45.8982210" lon="10.2685190">
	<ele>1304.40</ele>
	<time>2025-04-30T07:15:28.000Z</time>
</trkpt>
<trkpt lat="45.8982180" lon="10.2685150">
	<ele>1304.60</ele>
	<time>2025-04-30T07:15:29.000Z</time>
</trkpt>
<trkpt lat="45.8982150" lon="10.2685150">
	<ele>1304.80</ele>
	<time>2025-04-30T07:15:30.000Z</time>
</trkpt>
<trkpt lat="45.8982140" lon="10.2685170">
	<ele>1305.00</ele>
	<time>2025-04-30T07:15:31.000Z</time>
</trkpt>
<trkpt lat="45.8982100" lon="10.2685160">
	<ele>1305.20</ele>
	<time>2025-04-30T07:15:32.000Z</time>
</trkpt>
<trkpt lat="45.8982030" lon="10.2685160">
	<ele>1305.40</ele>
	<time>2025-04-30T07:15:33.000Z</time>
</trkpt>
<trkpt lat="45.8982000" lon="10.2685150">
	<ele>1305.40</ele>
	<time>2025-04-30T07:15:34.000Z</time>
</trkpt>
<trkpt lat="45.8981970" lon="10.2685140">
	<ele>1305.60</ele>
	<time>2025-04-30T07:15:35.000Z</time>
</trkpt>
<trkpt lat="45.8981950" lon="10.2685150">
	<ele>1305.80</ele>
	<time>2025-04-30T07:15:36.000Z</time>
</trkpt>
<trkpt lat="45.8981910" lon="10.2685140">
	<ele>1306.00</ele>
	<time>2025-04-30T07:15:37.000Z</time>
</trkpt>
<trkpt lat="45.8981890" lon="10.2685110">
	<ele>1306.20</ele>
	<time>2025-04-30T07:15:38.000Z</time>
</trkpt>
<trkpt lat="45.8981870" lon="10.2685090">
	<ele>1306.40</ele>
	<time>2025-04-30T07:15:39.000Z</time>
</trkpt>
<trkpt lat="45.8981820" lon="10.2685080">
	<ele>1306.60</ele>
	<time>2025-04-30T07:15:40.000Z</time>
</trkpt>
<trkpt lat="45.8981770" lon="10.2685070">
	<ele>1306.60</ele>
	<time>2025-04-30T07:15:41.000Z</time>
</trkpt>
<trkpt lat="45.8981740" lon="10.2685050">
	<ele>1306.80</ele>
	<time>2025-04-30T07:15:42.000Z</time>
</trkpt>
<trkpt lat="45.8981720" lon="10.2685050">
	<ele>1307.00</ele>
	<time>2025-04-30T07:15:43.000Z</time>
</trkpt>
<trkpt lat="45.8981690" lon="10.2685050">
	<ele>1307.20</ele>
	<time>2025-04-30T07:15:44.000Z</time>
</trkpt>
<trkpt lat="45.8981630" lon="10.2685060">
	<ele>1307.20</ele>
	<time>2025-04-30T07:15:45.000Z</time>
</trkpt>
<trkpt lat="45.8981600" lon="10.2685050">
	<ele>1307.40</ele>
	<time>2025-04-30T07:15:46.000Z</time>
</trkpt>
<trkpt lat="45.8981550" lon="10.2685060">
	<ele>1307.60</ele>
	<time>2025-04-30T07:15:47.000Z</time>
</trkpt>
<trkpt lat="45.8981520" lon="10.2685060">
	<ele>1307.80</ele>
	<time>2025-04-30T07:15:48.000Z</time>
</trkpt>
<trkpt lat="45.8981480" lon="10.2685070">
	<ele>1308.00</ele>
	<time>2025-04-30T07:15:49.000Z</time>
</trkpt>
<trkpt lat="45.8981450" lon="10.2685040">
	<ele>1308.20</ele>
	<time>2025-04-30T07:15:50.000Z</time>
</trkpt>
<trkpt lat="45.8981390" lon="10.2685010">
	<ele>1308.20</ele>
	<time>2025-04-30T07:15:51.000Z</time>
</trkpt>
<trkpt lat="45.8981360" lon="10.2685010">
	<ele>1308.60</ele>
	<time>2025-04-30T07:15:52.000Z</time>
</trkpt>
<trkpt lat="45.8981360" lon="10.2685030">
	<ele>1308.80</ele>
	<time>2025-04-30T07:15:53.000Z</time>
</trkpt>
<trkpt lat="45.8981300" lon="10.2684950">
	<ele>1309.00</ele>
	<time>2025-04-30T07:15:54.000Z</time>
</trkpt>
<trkpt lat="45.8981260" lon="10.2684920">
	<ele>1309.40</ele>
	<time>2025-04-30T07:15:55.000Z</time>
</trkpt>
<trkpt lat="45.8981240" lon="10.2684900">
	<ele>1309.40</ele>
	<time>2025-04-30T07:15:56.000Z</time>
</trkpt>
<trkpt lat="45.8981230" lon="10.2684880">
	<ele>1309.80</ele>
	<time>2025-04-30T07:15:57.000Z</time>
</trkpt>
<trkpt lat="45.8981190" lon="10.2684860">
	<ele>1310.00</ele>
	<time>2025-04-30T07:15:58.000Z</time>
</trkpt>
<trkpt lat="45.8981180" lon="10.2684890">
	<ele>1310.20</ele>
	<time>2025-04-30T07:15:59.000Z</time>
</trkpt>
<trkpt lat="45.8981180" lon="10.2684930">
	<ele>1310.60</ele>
	<time>2025-04-30T07:16:00.000Z</time>
</trkpt>
<trkpt lat="45.8981160" lon="10.2684910">
	<ele>1310.80</ele>
	<time>2025-04-30T07:16:01.000Z</time>
</trkpt>
<trkpt lat="45.8981090" lon="10.2684900">
	<ele>1310.80</ele>
	<time>2025-04-30T07:16:02.000Z</time>
</trkpt>
<trkpt lat="45.8981030" lon="10.2684920">
	<ele>1310.80</ele>
	<time>2025-04-30T07:16:03.000Z</time>
</trkpt>
<trkpt lat="45.8980960" lon="10.2684890">
	<ele>1311.00</ele>
	<time>2025-04-30T07:16:04.000Z</time>
</trkpt>
<trkpt lat="45.8980890" lon="10.2684860">
	<ele>1311.00</ele>
	<time>2025-04-30T07:16:05.000Z</time>
</trkpt>
<trkpt lat="45.8980860" lon="10.2684890">
	<ele>1311.20</ele>
	<time>2025-04-30T07:16:06.000Z</time>
</trkpt>
<trkpt lat="45.8980840" lon="10.2684910">
	<ele>1311.40</ele>
	<time>2025-04-30T07:16:07.000Z</time>
</trkpt>
<trkpt lat="45.8980830" lon="10.2684950">
	<ele>1311.60</ele>
	<time>2025-04-30T07:16:08.000Z</time>
</trkpt>
<trkpt lat="45.8980780" lon="10.2685010">
	<ele>1311.80</ele>
	<time>2025-04-30T07:16:09.000Z</time>
</trkpt>
<trkpt lat="45.8980760" lon="10.2685120">
	<ele>1312.00</ele>
	<time>2025-04-30T07:16:10.000Z</time>
</trkpt>
<trkpt lat="45.8980770" lon="10.2685310">
	<ele>1312.20</ele>
	<time>2025-04-30T07:16:11.000Z</time>
</trkpt>
<trkpt lat="45.8980730" lon="10.2685430">
	<ele>1312.40</ele>
	<time>2025-04-30T07:16:12.000Z</time>
</trkpt>
<trkpt lat="45.8980710" lon="10.2685470">
	<ele>1312.60</ele>
	<time>2025-04-30T07:16:13.000Z</time>
</trkpt>
<trkpt lat="45.8980680" lon="10.2685500">
	<ele>1312.80</ele>
	<time>2025-04-30T07:16:14.000Z</time>
</trkpt>
<trkpt lat="45.8980610" lon="10.2685630">
	<ele>1313.00</ele>
	<time>2025-04-30T07:16:15.000Z</time>
</trkpt>
<trkpt lat="45.8980530" lon="10.2685670">
	<ele>1313.20</ele>
	<time>2025-04-30T07:16:16.000Z</time>
</trkpt>
<trkpt lat="45.8980490" lon="10.2685640">
	<ele>1313.40</ele>
	<time>2025-04-30T07:16:17.000Z</time>
</trkpt>
<trkpt lat="45.8980450" lon="10.2685610">
	<ele>1313.60</ele>
	<time>2025-04-30T07:16:18.000Z</time>
</trkpt>
<trkpt lat="45.8980340" lon="10.2685640">
	<ele>1313.80</ele>
	<time>2025-04-30T07:16:19.000Z</time>
</trkpt>
<trkpt lat="45.8980270" lon="10.2685630">
	<ele>1314.00</ele>
	<time>2025-04-30T07:16:20.000Z</time>
</trkpt>
<trkpt lat="45.8980190" lon="10.2685520">
	<ele>1314.00</ele>
	<time>2025-04-30T07:16:21.000Z</time>
</trkpt>
<trkpt lat="45.8980070" lon="10.2685440">
	<ele>1314.20</ele>
	<time>2025-04-30T07:16:22.000Z</time>
</trkpt>
<trkpt lat="45.8979980" lon="10.2685480">
	<ele>1314.20</ele>
	<time>2025-04-30T07:16:23.000Z</time>
</trkpt>
<trkpt lat="45.8980010" lon="10.2685580">
	<ele>1314.40</ele>
	<time>2025-04-30T07:16:24.000Z</time>
</trkpt>
<trkpt lat="45.8980040" lon="10.2685630">
	<ele>1314.60</ele>
	<time>2025-04-30T07:16:25.000Z</time>
</trkpt>
<trkpt lat="45.8980080" lon="10.2685640">
	<ele>1314.80</ele>
	<time>2025-04-30T07:16:26.000Z</time>
</trkpt>
<trkpt lat="45.8980090" lon="10.2685730">
	<ele>1315.00</ele>
	<time>2025-04-30T07:16:27.000Z</time>
</trkpt>
<trkpt lat="45.8980070" lon="10.2685780">
	<ele>1315.20</ele>
	<time>2025-04-30T07:16:28.000Z</time>
</trkpt>
<trkpt lat="45.8979960" lon="10.2685850">
	<ele>1315.20</ele>
	<time>2025-04-30T07:16:29.000Z</time>
</trkpt>
<trkpt lat="45.8979860" lon="10.2685940">
	<ele>1315.40</ele>
	<time>2025-04-30T07:16:30.000Z</time>
</trkpt>
<trkpt lat="45.8979700" lon="10.2685920">
	<ele>1315.60</ele>
	<time>2025-04-30T07:16:31.000Z</time>
</trkpt>
<trkpt lat="45.8979650" lon="10.2685950">
	<ele>1315.80</ele>
	<time>2025-04-30T07:16:32.000Z</time>
</trkpt>
<trkpt lat="45.8979560" lon="10.2686020">
	<ele>1316.00</ele>
	<time>2025-04-30T07:16:33.000Z</time>
</trkpt>
<trkpt lat="45.8979510" lon="10.2686140">
	<ele>1316.20</ele>
	<time>2025-04-30T07:16:34.000Z</time>
</trkpt>
<trkpt lat="45.8979530" lon="10.2686290">
	<ele>1316.20</ele>
	<time>2025-04-30T07:16:35.000Z</time>
</trkpt>
<trkpt lat="45.8979510" lon="10.2686340">
	<ele>1316.40</ele>
	<time>2025-04-30T07:16:36.000Z</time>
</trkpt>
<trkpt lat="45.8979450" lon="10.2686360">
	<ele>1316.40</ele>
	<time>2025-04-30T07:16:37.000Z</time>
</trkpt>
<trkpt lat="45.8979400" lon="10.2686440">
	<ele>1316.60</ele>
	<time>2025-04-30T07:16:38.000Z</time>
</trkpt>
<trkpt lat="45.8979360" lon="10.2686520">
	<ele>1316.60</ele>
	<time>2025-04-30T07:16:39.000Z</time>
</trkpt>
<trkpt lat="45.8979330" lon="10.2686600">
	<ele>1316.80</ele>
	<time>2025-04-30T07:16:40.000Z</time>
</trkpt>
<trkpt lat="45.8979330" lon="10.2686700">
	<ele>1316.80</ele>
	<time>2025-04-30T07:16:41.000Z</time>
</trkpt>
<trkpt lat="45.8979330" lon="10.2686760">
	<ele>1317.00</ele>
	<time>2025-04-30T07:16:42.000Z</time>
</trkpt>
<trkpt lat="45.8979290" lon="10.2686800">
	<ele>1317.20</ele>
	<time>2025-04-30T07:16:43.000Z</time>
</trkpt>
<trkpt lat="45.8979240" lon="10.2686870">
	<ele>1317.40</ele>
	<time>2025-04-30T07:16:44.000Z</time>
</trkpt>
<trkpt lat="45.8979220" lon="10.2686870">
	<ele>1317.60</ele>
	<time>2025-04-30T07:16:45.000Z</time>
</trkpt>
<trkpt lat="45.8979150" lon="10.2686870">
	<ele>1317.80</ele>
	<time>2025-04-30T07:16:46.000Z</time>
</trkpt>
<trkpt lat="45.8979150" lon="10.2686930">
	<ele>1318.00</ele>
	<time>2025-04-30T07:16:47.000Z</time>
</trkpt>
<trkpt lat="45.8979030" lon="10.2686880">
	<ele>1318.40</ele>
	<time>2025-04-30T07:16:48.000Z</time>
</trkpt>
<trkpt lat="45.8978940" lon="10.2686770">
	<ele>1318.60</ele>
	<time>2025-04-30T07:16:49.000Z</time>
</trkpt>
<trkpt lat="45.8978830" lon="10.2686610">
	<ele>1318.80</ele>
	<time>2025-04-30T07:16:50.000Z</time>
</trkpt>
<trkpt lat="45.8978710" lon="10.2686540">
	<ele>1319.00</ele>
	<time>2025-04-30T07:16:51.000Z</time>
</trkpt>
<trkpt lat="45.8978600" lon="10.2686530">
	<ele>1319.20</ele>
	<time>2025-04-30T07:16:52.000Z</time>
</trkpt>
<trkpt lat="45.8978550" lon="10.2686540">
	<ele>1319.20</ele>
	<time>2025-04-30T07:16:53.000Z</time>
</trkpt>
<trkpt lat="45.8978550" lon="10.2686620">
	<ele>1319.40</ele>
	<time>2025-04-30T07:16:54.000Z</time>
</trkpt>
<trkpt lat="45.8978510" lon="10.2686690">
	<ele>1319.60</ele>
	<time>2025-04-30T07:16:55.000Z</time>
</trkpt>
<trkpt lat="45.8978470" lon="10.2686800">
	<ele>1319.80</ele>
	<time>2025-04-30T07:16:56.000Z</time>
</trkpt>
<trkpt lat="45.8978450" lon="10.2686900">
	<ele>1319.80</ele>
	<time>2025-04-30T07:16:57.000Z</time>
</trkpt>
<trkpt lat="45.8978450" lon="10.2687030">
	<ele>1320.00</ele>
	<time>2025-04-30T07:16:58.000Z</time>
</trkpt>
<trkpt lat="45.8978420" lon="10.2687010">
	<ele>1320.20</ele>
	<time>2025-04-30T07:16:59.000Z</time>
</trkpt>
<trkpt lat="45.8978400" lon="10.2686990">
	<ele>1320.60</ele>
	<time>2025-04-30T07:17:00.000Z</time>
</trkpt>
<trkpt lat="45.8978380" lon="10.2687030">
	<ele>1320.80</ele>
	<time>2025-04-30T07:17:01.000Z</time>
</trkpt>
<trkpt lat="45.8978350" lon="10.2687030">
	<ele>1321.00</ele>
	<time>2025-04-30T07:17:02.000Z</time>
</trkpt>
<trkpt lat="45.8978320" lon="10.2687020">
	<ele>1321.00</ele>
	<time>2025-04-30T07:17:03.000Z</time>
</trkpt>
<trkpt lat="45.8978260" lon="10.2687020">
	<ele>1321.20</ele>
	<time>2025-04-30T07:17:04.000Z</time>
</trkpt>
<trkpt lat="45.8978260" lon="10.2687060">
	<ele>1321.40</ele>
	<time>2025-04-30T07:17:05.000Z</time>
</trkpt>
<trkpt lat="45.8978270" lon="10.2687230">
	<ele>1321.60</ele>
	<time>2025-04-30T07:17:06.000Z</time>
</trkpt>
<trkpt lat="45.8978250" lon="10.2687330">
	<ele>1321.60</ele>
	<time>2025-04-30T07:17:07.000Z</time>
</trkpt>
<trkpt lat="45.8978240" lon="10.2687380">
	<ele>1321.80</ele>
	<time>2025-04-30T07:17:08.000Z</time>
</trkpt>
<trkpt lat="45.8978240" lon="10.2687360">
	<ele>1322.00</ele>
	<time>2025-04-30T07:17:09.000Z</time>
</trkpt>
<trkpt lat="45.8978240" lon="10.2687360">
	<ele>1322.20</ele>
	<time>2025-04-30T07:17:10.000Z</time>
</trkpt>
<trkpt lat="45.8978270" lon="10.2687280">
	<ele>1322.20</ele>
	<time>2025-04-30T07:17:11.000Z</time>
</trkpt>
<trkpt lat="45.8978460" lon="10.2687310">
	<ele>1322.40</ele>
	<time>2025-04-30T07:17:12.000Z</time>
</trkpt>
<trkpt lat="45.8978540" lon="10.2687350">
	<ele>1322.60</ele>
	<time>2025-04-30T07:17:13.000Z</time>
</trkpt>
<trkpt lat="45.8978630" lon="10.2687470">
	<ele>1322.60</ele>
	<time>2025-04-30T07:17:14.000Z</time>
</trkpt>
<trkpt lat="45.8978650" lon="10.2687600">
	<ele>1322.80</ele>
	<time>2025-04-30T07:17:15.000Z</time>
</trkpt>
<trkpt lat="45.8978630" lon="10.2687650">
	<ele>1323.00</ele>
	<time>2025-04-30T07:17:16.000Z</time>
</trkpt>
<trkpt lat="45.8978570" lon="10.2687660">
	<ele>1323.00</ele>
	<time>2025-04-30T07:17:17.000Z</time>
</trkpt>
<trkpt lat="45.8978550" lon="10.2687660">
	<ele>1323.20</ele>
	<time>2025-04-30T07:17:18.000Z</time>
</trkpt>
<trkpt lat="45.8978510" lon="10.2687650">
	<ele>1323.40</ele>
	<time>2025-04-30T07:17:19.000Z</time>
</trkpt>
<trkpt lat="45.8978450" lon="10.2687700">
	<ele>1323.60</ele>
	<time>2025-04-30T07:17:20.000Z</time>
</trkpt>
<trkpt lat="45.8978390" lon="10.2687670">
	<ele>1323.60</ele>
	<time>2025-04-30T07:17:21.000Z</time>
</trkpt>
<trkpt lat="45.8978350" lon="10.2687680">
	<ele>1324.00</ele>
	<time>2025-04-30T07:17:22.000Z</time>
</trkpt>
<trkpt lat="45.8978360" lon="10.2687740">
	<ele>1324.20</ele>
	<time>2025-04-30T07:17:23.000Z</time>
</trkpt>
<trkpt lat="45.8978330" lon="10.2687830">
	<ele>1324.40</ele>
	<time>2025-04-30T07:17:24.000Z</time>
</trkpt>
<trkpt lat="45.8978320" lon="10.2687960">
	<ele>1324.60</ele>
	<time>2025-04-30T07:17:25.000Z</time>
</trkpt>
<trkpt lat="45.8978260" lon="10.2688050">
	<ele>1324.60</ele>
	<time>2025-04-30T07:17:26.000Z</time>
</trkpt>
<trkpt lat="45.8978300" lon="10.2688210">
	<ele>1325.00</ele>
	<time>2025-04-30T07:17:27.000Z</time>
</trkpt>
<trkpt lat="45.8978360" lon="10.2688270">
	<ele>1325.20</ele>
	<time>2025-04-30T07:17:28.000Z</time>
</trkpt>
<trkpt lat="45.8978230" lon="10.2688250">
	<ele>1325.40</ele>
	<time>2025-04-30T07:17:29.000Z</time>
</trkpt>
<trkpt lat="45.8978090" lon="10.2688200">
	<ele>1325.40</ele>
	<time>2025-04-30T07:17:30.000Z</time>
</trkpt>
<trkpt lat="45.8978000" lon="10.2688210">
	<ele>1325.60</ele>
	<time>2025-04-30T07:17:31.000Z</time>
</trkpt>
<trkpt lat="45.8977890" lon="10.2688190">
	<ele>1325.80</ele>
	<time>2025-04-30T07:17:32.000Z</time>
</trkpt>
<trkpt lat="45.8977800" lon="10.2688200">
	<ele>1325.80</ele>
	<time>2025-04-30T07:17:33.000Z</time>
</trkpt>
<trkpt lat="45.8977750" lon="10.2688220">
	<ele>1326.00</ele>
	<time>2025-04-30T07:17:34.000Z</time>
</trkpt>
<trkpt lat="45.8977730" lon="10.2688260">
	<ele>1326.20</ele>
	<time>2025-04-30T07:17:35.000Z</time>
</trkpt>
<trkpt lat="45.8977710" lon="10.2688270">
	<ele>1326.40</ele>
	<time>2025-04-30T07:17:36.000Z</time>
</trkpt>
<trkpt lat="45.8977750" lon="10.2688370">
	<ele>1326.60</ele>
	<time>2025-04-30T07:17:37.000Z</time>
</trkpt>
<trkpt lat="45.8977770" lon="10.2688380">
	<ele>1326.80</ele>
	<time>2025-04-30T07:17:38.000Z</time>
</trkpt>
<trkpt lat="45.8977830" lon="10.2688440">
	<ele>1326.80</ele>
	<time>2025-04-30T07:17:39.000Z</time>
</trkpt>
<trkpt lat="45.8977820" lon="10.2688440">
	<ele>1327.00</ele>
	<time>2025-04-30T07:17:40.000Z</time>
</trkpt>
<trkpt lat="45.8977800" lon="10.2688450">
	<ele>1327.20</ele>
	<time>2025-04-30T07:17:41.000Z</time>
</trkpt>
<trkpt lat="45.8977730" lon="10.2688500">
	<ele>1327.40</ele>
	<time>2025-04-30T07:17:42.000Z</time>
</trkpt>
<trkpt lat="45.8977630" lon="10.2688560">
	<ele>1327.60</ele>
	<time>2025-04-30T07:17:43.000Z</time>
</trkpt>
<trkpt lat="45.8977620" lon="10.2688590">
	<ele>1327.60</ele>
	<time>2025-04-30T07:17:44.000Z</time>
</trkpt>
<trkpt lat="45.8977640" lon="10.2688650">
	<ele>1327.80</ele>
	<time>2025-04-30T07:17:45.000Z</time>
</trkpt>
<trkpt lat="45.8977610" lon="10.2688670">
	<ele>1328.20</ele>
	<time>2025-04-30T07:17:46.000Z</time>
</trkpt>
<trkpt lat="45.8977580" lon="10.2688690">
	<ele>1328.60</ele>
	<time>2025-04-30T07:17:47.000Z</time>
</trkpt>
<trkpt lat="45.8977510" lon="10.2688700">
	<ele>1328.80</ele>
	<time>2025-04-30T07:17:48.000Z</time>
</trkpt>
<trkpt lat="45.8977470" lon="10.2688710">
	<ele>1329.00</ele>
	<time>2025-04-30T07:17:49.000Z</time>
</trkpt>
<trkpt lat="45.8977430" lon="10.2688660">
	<ele>1329.00</ele>
	<time>2025-04-30T07:17:50.000Z</time>
</trkpt>
<trkpt lat="45.8977400" lon="10.2688630">
	<ele>1329.00</ele>
	<time>2025-04-30T07:17:51.000Z</time>
</trkpt>
<trkpt lat="45.8977390" lon="10.2688600">
	<ele>1329.00</ele>
	<time>2025-04-30T07:17:52.000Z</time>
</trkpt>
<trkpt lat="45.8977320" lon="10.2688570">
	<ele>1329.20</ele>
	<time>2025-04-30T07:17:53.000Z</time>
</trkpt>
<trkpt lat="45.8977270" lon="10.2688750">
	<ele>1329.20</ele>
	<time>2025-04-30T07:17:54.000Z</time>
</trkpt>
<trkpt lat="45.8977280" lon="10.2688950">
	<ele>1329.20</ele>
	<time>2025-04-30T07:17:55.000Z</time>
</trkpt>
<trkpt lat="45.8977250" lon="10.2689080">
	<ele>1329.40</ele>
	<time>2025-04-30T07:17:56.000Z</time>
</trkpt>
<trkpt lat="45.8977100" lon="10.2689110">
	<ele>1329.60</ele>
	<time>2025-04-30T07:17:57.000Z</time>
</trkpt>
<trkpt lat="45.8977000" lon="10.2689120">
	<ele>1329.80</ele>
	<time>2025-04-30T07:17:58.000Z</time>
</trkpt>
<trkpt lat="45.8976810" lon="10.2689030">
	<ele>1329.80</ele>
	<time>2025-04-30T07:17:59.000Z</time>
</trkpt>
<trkpt lat="45.8976710" lon="10.2688930">
	<ele>1330.00</ele>
	<time>2025-04-30T07:18:00.000Z</time>
</trkpt>
<trkpt lat="45.8976610" lon="10.2688880">
	<ele>1330.20</ele>
	<time>2025-04-30T07:18:01.000Z</time>
</trkpt>
<trkpt lat="45.8976470" lon="10.2688880">
	<ele>1330.40</ele>
	<time>2025-04-30T07:18:02.000Z</time>
</trkpt>
<trkpt lat="45.8976350" lon="10.2688820">
	<ele>1330.80</ele>
	<time>2025-04-30T07:18:03.000Z</time>
</trkpt>
<trkpt lat="45.8976220" lon="10.2688780">
	<ele>1331.00</ele>
	<time>2025-04-30T07:18:04.000Z</time>
</trkpt>
<trkpt lat="45.8976130" lon="10.2688800">
	<ele>1331.20</ele>
	<time>2025-04-30T07:18:05.000Z</time>
</trkpt>
<trkpt lat="45.8976030" lon="10.2688740">
	<ele>1331.20</ele>
	<time>2025-04-30T07:18:06.000Z</time>
</trkpt>
<trkpt lat="45.8975970" lon="10.2688750">
	<ele>1331.40</ele>
	<time>2025-04-30T07:18:07.000Z</time>
</trkpt>
<trkpt lat="45.8975900" lon="10.2688740">
	<ele>1331.40</ele>
	<time>2025-04-30T07:18:08.000Z</time>
</trkpt>
<trkpt lat="45.8975840" lon="10.2688840">
	<ele>1331.60</ele>
	<time>2025-04-30T07:18:09.000Z</time>
</trkpt>
<trkpt lat="45.8975740" lon="10.2688860">
	<ele>1331.60</ele>
	<time>2025-04-30T07:18:10.000Z</time>
</trkpt>
<trkpt lat="45.8975610" lon="10.2688820">
	<ele>1331.80</ele>
	<time>2025-04-30T07:18:11.000Z</time>
</trkpt>
<trkpt lat="45.8975400" lon="10.2688730">
	<ele>1331.80</ele>
	<time>2025-04-30T07:18:12.000Z</time>
</trkpt>
<trkpt lat="45.8975300" lon="10.2688680">
	<ele>1331.80</ele>
	<time>2025-04-30T07:18:13.000Z</time>
</trkpt>
<trkpt lat="45.8975210" lon="10.2688700">
	<ele>1332.00</ele>
	<time>2025-04-30T07:18:14.000Z</time>
</trkpt>
<trkpt lat="45.8975120" lon="10.2688830">
	<ele>1332.20</ele>
	<time>2025-04-30T07:18:15.000Z</time>
</trkpt>
<trkpt lat="45.8975120" lon="10.2688980">
	<ele>1332.20</ele>
	<time>2025-04-30T07:18:16.000Z</time>
</trkpt>
<trkpt lat="45.8975060" lon="10.2689120">
	<ele>1332.40</ele>
	<time>2025-04-30T07:18:17.000Z</time>
</trkpt>
<trkpt lat="45.8975010" lon="10.2689210">
	<ele>1332.60</ele>
	<time>2025-04-30T07:18:18.000Z</time>
</trkpt>
<trkpt lat="45.8975020" lon="10.2689280">
	<ele>1332.80</ele>
	<time>2025-04-30T07:18:19.000Z</time>
</trkpt>
<trkpt lat="45.8974990" lon="10.2689200">
	<ele>1332.80</ele>
	<time>2025-04-30T07:18:20.000Z</time>
</trkpt>
<trkpt lat="45.8974950" lon="10.2689170">
	<ele>1333.00</ele>
	<time>2025-04-30T07:18:21.000Z</time>
</trkpt>
<trkpt lat="45.8974930" lon="10.2689180">
	<ele>1333.00</ele>
	<time>2025-04-30T07:18:22.000Z</time>
</trkpt>
<trkpt lat="45.8974920" lon="10.2689200">
	<ele>1333.20</ele>
	<time>2025-04-30T07:18:23.000Z</time>
</trkpt>
<trkpt lat="45.8974870" lon="10.2689260">
	<ele>1333.20</ele>
	<time>2025-04-30T07:18:24.000Z</time>
</trkpt>
<trkpt lat="45.8974710" lon="10.2689320">
	<ele>1333.20</ele>
	<time>2025-04-30T07:18:25.000Z</time>
</trkpt>
<trkpt lat="45.8974670" lon="10.2689340">
	<ele>1333.40</ele>
	<time>2025-04-30T07:18:26.000Z</time>
</trkpt>
<trkpt lat="45.8974660" lon="10.2689350">
	<ele>1333.60</ele>
	<time>2025-04-30T07:18:27.000Z</time>
</trkpt>
<trkpt lat="45.8974680" lon="10.2689340">
	<ele>1334.00</ele>
	<time>2025-04-30T07:18:28.000Z</time>
</trkpt>
<trkpt lat="45.8974850" lon="10.2689490">
	<ele>1334.00</ele>
	<time>2025-04-30T07:18:29.000Z</time>
</trkpt>
<trkpt lat="45.8974870" lon="10.2689510">
	<ele>1334.20</ele>
	<time>2025-04-30T07:18:30.000Z</time>
</trkpt>
<trkpt lat="45.8974780" lon="10.2689470">
	<ele>1334.20</ele>
	<time>2025-04-30T07:18:31.000Z</time>
</trkpt>
<trkpt lat="45.8974790" lon="10.2689450">
	<ele>1334.40</ele>
	<time>2025-04-30T07:18:32.000Z</time>
</trkpt>
<trkpt lat="45.8974740" lon="10.2689400">
	<ele>1334.40</ele>
	<time>2025-04-30T07:18:33.000Z</time>
</trkpt>
<trkpt lat="45.8974660" lon="10.2689480">
	<ele>1334.40</ele>
	<time>2025-04-30T07:18:34.000Z</time>
</trkpt>
<trkpt lat="45.8974650" lon="10.2689530">
	<ele>1334.40</ele>
	<time>2025-04-30T07:18:35.000Z</time>
</trkpt>
<trkpt lat="45.8974670" lon="10.2689640">
	<ele>1334.40</ele>
	<time>2025-04-30T07:18:36.000Z</time>
</trkpt>
<trkpt lat="45.8974610" lon="10.2689740">
	<ele>1334.60</ele>
	<time>2025-04-30T07:18:37.000Z</time>
</trkpt>
<trkpt lat="45.8974570" lon="10.2689800">
	<ele>1334.60</ele>
	<time>2025-04-30T07:18:38.000Z</time>
</trkpt>
<trkpt lat="45.8974490" lon="10.2689790">
	<ele>1334.80</ele>
	<time>2025-04-30T07:18:39.000Z</time>
</trkpt>
<trkpt lat="45.8974330" lon="10.2689690">
	<ele>1335.00</ele>
	<time>2025-04-30T07:18:40.000Z</time>
</trkpt>
<trkpt lat="45.8974150" lon="10.2689630">
	<ele>1335.00</ele>
	<time>2025-04-30T07:18:41.000Z</time>
</trkpt>
<trkpt lat="45.8974080" lon="10.2689730">
	<ele>1335.00</ele>
	<time>2025-04-30T07:18:42.000Z</time>
</trkpt>
<trkpt lat="45.8974070" lon="10.2689800">
	<ele>1335.40</ele>
	<time>2025-04-30T07:18:43.000Z</time>
</trkpt>
<trkpt lat="45.8974100" lon="10.2689800">
	<ele>1335.60</ele>
	<time>2025-04-30T07:18:44.000Z</time>
</trkpt>
<trkpt lat="45.8974130" lon="10.2689750">
	<ele>1335.80</ele>
	<time>2025-04-30T07:18:45.000Z</time>
</trkpt>
<trkpt lat="45.8974290" lon="10.2690000">
	<ele>1336.00</ele>
	<time>2025-04-30T07:18:46.000Z</time>
</trkpt>
<trkpt lat="45.8974100" lon="10.2689910">
	<ele>1336.00</ele>
	<time>2025-04-30T07:18:47.000Z</time>
</trkpt>
<trkpt lat="45.8974020" lon="10.2689920">
	<ele>1336.20</ele>
	<time>2025-04-30T07:18:48.000Z</time>
</trkpt>
<trkpt lat="45.8974030" lon="10.2690000">
	<ele>1336.40</ele>
	<time>2025-04-30T07:18:49.000Z</time>
</trkpt>
<trkpt lat="45.8973950" lon="10.2689970">
	<ele>1336.60</ele>
	<time>2025-04-30T07:18:50.000Z</time>
</trkpt>
<trkpt lat="45.8973800" lon="10.2689960">
	<ele>1337.00</ele>
	<time>2025-04-30T07:18:51.000Z</time>
</trkpt>
<trkpt lat="45.8973630" lon="10.2689910">
	<ele>1337.20</ele>
	<time>2025-04-30T07:18:52.000Z</time>
</trkpt>
<trkpt lat="45.8973550" lon="10.2689870">
	<ele>1337.40</ele>
	<time>2025-04-30T07:18:53.000Z</time>
</trkpt>
<trkpt lat="45.8973570" lon="10.2689960">
	<ele>1337.40</ele>
	<time>2025-04-30T07:18:54.000Z</time>
</trkpt>
<trkpt lat="45.8973600" lon="10.2690020">
	<ele>1337.60</ele>
	<time>2025-04-30T07:18:55.000Z</time>
</trkpt>
<trkpt lat="45.8973640" lon="10.2690050">
	<ele>1337.80</ele>
	<time>2025-04-30T07:18:56.000Z</time>
</trkpt>
<trkpt lat="45.8974090" lon="10.2690390">
	<ele>1338.00</ele>
	<time>2025-04-30T07:18:57.000Z</time>
</trkpt>
<trkpt lat="45.8974150" lon="10.2690480">
	<ele>1338.20</ele>
	<time>2025-04-30T07:18:58.000Z</time>
</trkpt>
<trkpt lat="45.8974160" lon="10.2690520">
	<ele>1338.40</ele>
	<time>2025-04-30T07:18:59.000Z</time>
</trkpt>
<trkpt lat="45.8974180" lon="10.2690580">
	<ele>1338.40</ele>
	<time>2025-04-30T07:19:00.000Z</time>
</trkpt>
<trkpt lat="45.8974120" lon="10.2690650">
	<ele>1338.80</ele>
	<time>2025-04-30T07:19:01.000Z</time>
</trkpt>
<trkpt lat="45.8974100" lon="10.2690760">
	<ele>1339.00</ele>
	<time>2025-04-30T07:19:02.000Z</time>
</trkpt>
<trkpt lat="45.8974090" lon="10.2690830">
	<ele>1339.20</ele>
	<time>2025-04-30T07:19:03.000Z</time>
</trkpt>
<trkpt lat="45.8974020" lon="10.2690900">
	<ele>1339.60</ele>
	<time>2025-04-30T07:19:04.000Z</time>
</trkpt>
<trkpt lat="45.8974080" lon="10.2691100">
	<ele>1339.80</ele>
	<time>2025-04-30T07:19:05.000Z</time>
</trkpt>
<trkpt lat="45.8974120" lon="10.2691170">
	<ele>1340.00</ele>
	<time>2025-04-30T07:19:06.000Z</time>
</trkpt>
<trkpt lat="45.8974150" lon="10.2691200">
	<ele>1340.00</ele>
	<time>2025-04-30T07:19:07.000Z</time>
</trkpt>
<trkpt lat="45.8974250" lon="10.2691220">
	<ele>1340.20</ele>
	<time>2025-04-30T07:19:08.000Z</time>
</trkpt>
<trkpt lat="45.8974290" lon="10.2691200">
	<ele>1340.60</ele>
	<time>2025-04-30T07:19:09.000Z</time>
</trkpt>
<trkpt lat="45.8974320" lon="10.2691190">
	<ele>1340.60</ele>
	<time>2025-04-30T07:19:10.000Z</time>
</trkpt>
<trkpt lat="45.8974320" lon="10.2691130">
	<ele>1340.80</ele>
	<time>2025-04-30T07:19:11.000Z</time>
</trkpt>
<trkpt lat="45.8974180" lon="10.2691100">
	<ele>1341.00</ele>
	<time>2025-04-30T07:19:12.000Z</time>
</trkpt>
<trkpt lat="45.8974220" lon="10.2691070">
	<ele>1341.20</ele>
	<time>2025-04-30T07:19:13.000Z</time>
</trkpt>
<trkpt lat="45.8974170" lon="10.2691080">
	<ele>1341.40</ele>
	<time>2025-04-30T07:19:14.000Z</time>
</trkpt>
<trkpt lat="45.8974150" lon="10.2691120">
	<ele>1341.40</ele>
	<time>2025-04-30T07:19:15.000Z</time>
</trkpt>
<trkpt lat="45.8974040" lon="10.2691050">
	<ele>1341.80</ele>
	<time>2025-04-30T07:19:16.000Z</time>
</trkpt>
<trkpt lat="45.8973880" lon="10.2690950">
	<ele>1342.00</ele>
	<time>2025-04-30T07:19:17.000Z</time>
</trkpt>
<trkpt lat="45.8973760" lon="10.2690940">
	<ele>1342.20</ele>
	<time>2025-04-30T07:19:18.000Z</time>
</trkpt>
<trkpt lat="45.8973700" lon="10.2691030">
	<ele>1342.40</ele>
	<time>2025-04-30T07:19:19.000Z</time>
</trkpt>
<trkpt lat="45.8973640" lon="10.2691090">
	<ele>1342.40</ele>
	<time>2025-04-30T07:19:20.000Z</time>
</trkpt>
<trkpt lat="45.8973510" lon="10.2691050">
	<ele>1342.60</ele>
	<time>2025-04-30T07:19:21.000Z</time>
</trkpt>
<trkpt lat="45.8973440" lon="10.2691040">
	<ele>1342.80</ele>
	<time>2025-04-30T07:19:22.000Z</time>
</trkpt>
<trkpt lat="45.8973430" lon="10.2691230">
	<ele>1343.00</ele>
	<time>2025-04-30T07:19:23.000Z</time>
</trkpt>
<trkpt lat="45.8973270" lon="10.2691130">
	<ele>1343.40</ele>
	<time>2025-04-30T07:19:24.000Z</time>
</trkpt>
<trkpt lat="45.8973180" lon="10.2691100">
	<ele>1343.60</ele>
	<time>2025-04-30T07:19:25.000Z</time>
</trkpt>
<trkpt lat="45.8973160" lon="10.2691090">
	<ele>1343.80</ele>
	<time>2025-04-30T07:19:26.000Z</time>
</trkpt>
<trkpt lat="45.8973090" lon="10.2690870">
	<ele>1344.00</ele>
	<time>2025-04-30T07:19:27.000Z</time>
</trkpt>
<trkpt lat="45.8972990" lon="10.2690710">
	<ele>1344.00</ele>
	<time>2025-04-30T07:19:28.000Z</time>
</trkpt>
<trkpt lat="45.8972880" lon="10.2690620">
	<ele>1344.00</ele>
	<time>2025-04-30T07:19:29.000Z</time>
</trkpt>
<trkpt lat="45.8972860" lon="10.2690640">
	<ele>1344.20</ele>
	<time>2025-04-30T07:19:30.000Z</time>
</trkpt>
<trkpt lat="45.8972780" lon="10.2690650">
	<ele>1344.60</ele>
	<time>2025-04-30T07:19:31.000Z</time>
</trkpt>
<trkpt lat="45.8972710" lon="10.2690680">
	<ele>1344.80</ele>
	<time>2025-04-30T07:19:32.000Z</time>
</trkpt>
<trkpt lat="45.8972660" lon="10.2690740">
	<ele>1345.00</ele>
	<time>2025-04-30T07:19:33.000Z</time>
</trkpt>
<trkpt lat="45.8972640" lon="10.2690730">
	<ele>1345.20</ele>
	<time>2025-04-30T07:19:34.000Z</time>
</trkpt>
<trkpt lat="45.8972580" lon="10.2690810">
	<ele>1345.20</ele>
	<time>2025-04-30T07:19:35.000Z</time>
</trkpt>
<trkpt lat="45.8972540" lon="10.2690850">
	<ele>1345.20</ele>
	<time>2025-04-30T07:19:36.000Z</time>
</trkpt>
<trkpt lat="45.8972520" lon="10.2690830">
	<ele>1345.20</ele>
	<time>2025-04-30T07:19:37.000Z</time>
</trkpt>
<trkpt lat="45.8972540" lon="10.2690830">
	<ele>1345.40</ele>
	<time>2025-04-30T07:19:38.000Z</time>
</trkpt>
<trkpt lat="45.8972540" lon="10.2690800">
	<ele>1345.60</ele>
	<time>2025-04-30T07:19:39.000Z</time>
</trkpt>
<trkpt lat="45.8972530" lon="10.2690780">
	<ele>1346.00</ele>
	<time>2025-04-30T07:19:40.000Z</time>
</trkpt>
<trkpt lat="45.8972510" lon="10.2690770">
	<ele>1346.20</ele>
	<time>2025-04-30T07:19:41.000Z</time>
</trkpt>
<trkpt lat="45.8972400" lon="10.2690870">
	<ele>1346.40</ele>
	<time>2025-04-30T07:19:42.000Z</time>
</trkpt>
<trkpt lat="45.8972170" lon="10.2690860">
	<ele>1346.60</ele>
	<time>2025-04-30T07:19:43.000Z</time>
</trkpt>
<trkpt lat="45.8972150" lon="10.2690860">
	<ele>1346.60</ele>
	<time>2025-04-30T07:19:44.000Z</time>
</trkpt>
<trkpt lat="45.8972170" lon="10.2690850">
	<ele>1346.60</ele>
	<time>2025-04-30T07:19:45.000Z</time>
</trkpt>
<trkpt lat="45.8972110" lon="10.2690750">
	<ele>1346.60</ele>
	<time>2025-04-30T07:19:46.000Z</time>
</trkpt>
<trkpt lat="45.8972080" lon="10.2690720">
	<ele>1346.60</ele>
	<time>2025-04-30T07:19:47.000Z</time>
</trkpt>
<trkpt lat="45.8972040" lon="10.2690700">
	<ele>1346.60</ele>
	<time>2025-04-30T07:19:48.000Z</time>
</trkpt>
<trkpt lat="45.8972010" lon="10.2690820">
	<ele>1346.60</ele>
	<time>2025-04-30T07:19:49.000Z</time>
</trkpt>
<trkpt lat="45.8972030" lon="10.2690870">
	<ele>1346.60</ele>
	<time>2025-04-30T07:19:50.000Z</time>
</trkpt>
<trkpt lat="45.8972040" lon="10.2690860">
	<ele>1346.60</ele>
	<time>2025-04-30T07:19:51.000Z</time>
</trkpt>
<trkpt lat="45.8972050" lon="10.2690850">
	<ele>1346.60</ele>
	<time>2025-04-30T07:19:52.000Z</time>
</trkpt>
<trkpt lat="45.8972040" lon="10.2690820">
	<ele>1346.60</ele>
	<time>2025-04-30T07:19:53.000Z</time>
</trkpt>
<trkpt lat="45.8971880" lon="10.2690660">
	<ele>1346.60</ele>
	<time>2025-04-30T07:19:54.000Z</time>
</trkpt>
<trkpt lat="45.8971770" lon="10.2690460">
	<ele>1346.60</ele>
	<time>2025-04-30T07:19:55.000Z</time>
</trkpt>
<trkpt lat="45.8971720" lon="10.2690270">
	<ele>1346.60</ele>
	<time>2025-04-30T07:19:56.000Z</time>
</trkpt>
<trkpt lat="45.8971680" lon="10.2690150">
	<ele>1346.40</ele>
	<time>2025-04-30T07:19:57.000Z</time>
</trkpt>
<trkpt lat="45.8971670" lon="10.2689980">
	<ele>1346.40</ele>
	<time>2025-04-30T07:19:58.000Z</time>
</trkpt>
<trkpt lat="45.8971670" lon="10.2689810">
	<ele>1346.40</ele>
	<time>2025-04-30T07:19:59.000Z</time>
</trkpt>
<trkpt lat="45.8971600" lon="10.2689730">
	<ele>1346.40</ele>
	<time>2025-04-30T07:20:00.000Z</time>
</trkpt>
<trkpt lat="45.8971500" lon="10.2689660">
	<ele>1346.60</ele>
	<time>2025-04-30T07:20:01.000Z</time>
</trkpt>
<trkpt lat="45.8971370" lon="10.2689560">
	<ele>1346.60</ele>
	<time>2025-04-30T07:20:02.000Z</time>
</trkpt>
<trkpt lat="45.8971240" lon="10.2689470">
	<ele>1346.80</ele>
	<time>2025-04-30T07:20:03.000Z</time>
</trkpt>
<trkpt lat="45.8971140" lon="10.2689420">
	<ele>1346.80</ele>
	<time>2025-04-30T07:20:04.000Z</time>
</trkpt>
<trkpt lat="45.8971090" lon="10.2689390">
	<ele>1346.80</ele>
	<time>2025-04-30T07:20:05.000Z</time>
</trkpt>
<trkpt lat="45.8971060" lon="10.2689380">
	<ele>1347.00</ele>
	<time>2025-04-30T07:20:06.000Z</time>
</trkpt>
<trkpt lat="45.8970920" lon="10.2689210">
	<ele>1347.20</ele>
	<time>2025-04-30T07:20:07.000Z</time>
</trkpt>
<trkpt lat="45.8970790" lon="10.2689040">
	<ele>1347.20</ele>
	<time>2025-04-30T07:20:08.000Z</time>
</trkpt>
<trkpt lat="45.8970650" lon="10.2688930">
	<ele>1347.20</ele>
	<time>2025-04-30T07:20:09.000Z</time>
</trkpt>
<trkpt lat="45.8970520" lon="10.2688800">
	<ele>1347.40</ele>
	<time>2025-04-30T07:20:10.000Z</time>
</trkpt>
<trkpt lat="45.8970430" lon="10.2688680">
	<ele>1347.40</ele>
	<time>2025-04-30T07:20:11.000Z</time>
</trkpt>
<trkpt lat="45.8970400" lon="10.2688640">
	<ele>1347.60</ele>
	<time>2025-04-30T07:20:12.000Z</time>
</trkpt>
<trkpt lat="45.8970350" lon="10.2688560">
	<ele>1347.60</ele>
	<time>2025-04-30T07:20:13.000Z</time>
</trkpt>
<trkpt lat="45.8970300" lon="10.2688430">
	<ele>1347.60</ele>
	<time>2025-04-30T07:20:14.000Z</time>
</trkpt>
<trkpt lat="45.8970230" lon="10.2688410">
	<ele>1347.80</ele>
	<time>2025-04-30T07:20:15.000Z</time>
</trkpt>
<trkpt lat="45.8970220" lon="10.2688560">
	<ele>1347.80</ele>
	<time>2025-04-30T07:20:16.000Z</time>
</trkpt>
<trkpt lat="45.8970170" lon="10.2688730">
	<ele>1347.80</ele>
	<time>2025-04-30T07:20:17.000Z</time>
</trkpt>
<trkpt lat="45.8970140" lon="10.2688940">
	<ele>1347.80</ele>
	<time>2025-04-30T07:20:18.000Z</time>
</trkpt>
<trkpt lat="45.8969990" lon="10.2689010">
	<ele>1348.00</ele>
	<time>2025-04-30T07:20:19.000Z</time>
</trkpt>
<trkpt lat="45.8969880" lon="10.2689190">
	<ele>1348.00</ele>
	<time>2025-04-30T07:20:20.000Z</time>
</trkpt>
<trkpt lat="45.8969880" lon="10.2689390">
	<ele>1348.00</ele>
	<time>2025-04-30T07:20:21.000Z</time>
</trkpt>
<trkpt lat="45.8969860" lon="10.2689570">
	<ele>1348.20</ele>
	<time>2025-04-30T07:20:22.000Z</time>
</trkpt>
<trkpt lat="45.8969870" lon="10.2689780">
	<ele>1348.20</ele>
	<time>2025-04-30T07:20:23.000Z</time>
</trkpt>
<trkpt lat="45.8969860" lon="10.2689950">
	<ele>1348.20</ele>
	<time>2025-04-30T07:20:24.000Z</time>
</trkpt>
<trkpt lat="45.8969770" lon="10.2690030">
	<ele>1348.40</ele>
	<time>2025-04-30T07:20:25.000Z</time>
</trkpt>
<trkpt lat="45.8969740" lon="10.2690110">
	<ele>1348.60</ele>
	<time>2025-04-30T07:20:26.000Z</time>
</trkpt>
<trkpt lat="45.8969820" lon="10.2690330">
	<ele>1348.80</ele>
	<time>2025-04-30T07:20:27.000Z</time>
</trkpt>
<trkpt lat="45.8970020" lon="10.2690710">
	<ele>1349.00</ele>
	<time>2025-04-30T07:20:28.000Z</time>
</trkpt>
<trkpt lat="45.8970030" lon="10.2690930">
	<ele>1349.00</ele>
	<time>2025-04-30T07:20:29.000Z</time>
</trkpt>
<trkpt lat="45.8969920" lon="10.2691190">
	<ele>1349.20</ele>
	<time>2025-04-30T07:20:30.000Z</time>
</trkpt>
<trkpt lat="45.8969860" lon="10.2691380">
	<ele>1349.20</ele>
	<time>2025-04-30T07:20:31.000Z</time>
</trkpt>
<trkpt lat="45.8969750" lon="10.2691450">
	<ele>1349.20</ele>
	<time>2025-04-30T07:20:32.000Z</time>
</trkpt>
<trkpt lat="45.8969660" lon="10.2691520">
	<ele>1349.20</ele>
	<time>2025-04-30T07:20:33.000Z</time>
</trkpt>
<trkpt lat="45.8969550" lon="10.2691670">
	<ele>1349.40</ele>
	<time>2025-04-30T07:20:34.000Z</time>
</trkpt>
<trkpt lat="45.8969450" lon="10.2691790">
	<ele>1349.60</ele>
	<time>2025-04-30T07:20:35.000Z</time>
</trkpt>
<trkpt lat="45.8969340" lon="10.2691930">
	<ele>1349.80</ele>
	<time>2025-04-30T07:20:36.000Z</time>
</trkpt>
<trkpt lat="45.8969170" lon="10.2692120">
	<ele>1350.00</ele>
	<time>2025-04-30T07:20:37.000Z</time>
</trkpt>
<trkpt lat="45.8968950" lon="10.2692360">
	<ele>1350.20</ele>
	<time>2025-04-30T07:20:38.000Z</time>
</trkpt>
<trkpt lat="45.8969000" lon="10.2692640">
	<ele>1350.20</ele>
	<time>2025-04-30T07:20:39.000Z</time>
</trkpt>
<trkpt lat="45.8968970" lon="10.2692700">
	<ele>1350.40</ele>
	<time>2025-04-30T07:20:40.000Z</time>
</trkpt>
<trkpt lat="45.8968880" lon="10.2692870">
	<ele>1350.40</ele>
	<time>2025-04-30T07:20:41.000Z</time>
</trkpt>
<trkpt lat="45.8968690" lon="10.2693050">
	<ele>1350.40</ele>
	<time>2025-04-30T07:20:42.000Z</time>
</trkpt>
<trkpt lat="45.8968560" lon="10.2693300">
	<ele>1350.40</ele>
	<time>2025-04-30T07:20:43.000Z</time>
</trkpt>
<trkpt lat="45.8968430" lon="10.2693550">
	<ele>1350.60</ele>
	<time>2025-04-30T07:20:44.000Z</time>
</trkpt>
<trkpt lat="45.8968400" lon="10.2693770">
	<ele>1350.80</ele>
	<time>2025-04-30T07:20:45.000Z</time>
</trkpt>
<trkpt lat="45.8968330" lon="10.2693860">
	<ele>1350.80</ele>
	<time>2025-04-30T07:20:46.000Z</time>
</trkpt>
<trkpt lat="45.8968290" lon="10.2693910">
	<ele>1351.00</ele>
	<time>2025-04-30T07:20:47.000Z</time>
</trkpt>
<trkpt lat="45.8968280" lon="10.2694000">
	<ele>1351.00</ele>
	<time>2025-04-30T07:20:48.000Z</time>
</trkpt>
<trkpt lat="45.8968340" lon="10.2694170">
	<ele>1351.20</ele>
	<time>2025-04-30T07:20:49.000Z</time>
</trkpt>
<trkpt lat="45.8968470" lon="10.2694260">
	<ele>1351.20</ele>
	<time>2025-04-30T07:20:50.000Z</time>
</trkpt>
<trkpt lat="45.8968640" lon="10.2694520">
	<ele>1351.40</ele>
	<time>2025-04-30T07:20:51.000Z</time>
</trkpt>
<trkpt lat="45.8968650" lon="10.2694570">
	<ele>1351.40</ele>
	<time>2025-04-30T07:20:52.000Z</time>
</trkpt>
<trkpt lat="45.8968660" lon="10.2694540">
	<ele>1351.40</ele>
	<time>2025-04-30T07:20:53.000Z</time>
</trkpt>
<trkpt lat="45.8968830" lon="10.2694490">
	<ele>1351.40</ele>
	<time>2025-04-30T07:20:54.000Z</time>
</trkpt>
<trkpt lat="45.8968870" lon="10.2694640">
	<ele>1351.40</ele>
	<time>2025-04-30T07:20:55.000Z</time>
</trkpt>
<trkpt lat="45.8968980" lon="10.2694970">
	<ele>1351.40</ele>
	<time>2025-04-30T07:20:56.000Z</time>
</trkpt>
<trkpt lat="45.8969100" lon="10.2695250">
	<ele>1351.40</ele>
	<time>2025-04-30T07:20:57.000Z</time>
</trkpt>
<trkpt lat="45.8969280" lon="10.2695500">
	<ele>1351.40</ele>
	<time>2025-04-30T07:20:58.000Z</time>
</trkpt>
<trkpt lat="45.8969410" lon="10.2695670">
	<ele>1351.40</ele>
	<time>2025-04-30T07:20:59.000Z</time>
</trkpt>
<trkpt lat="45.8969550" lon="10.2695960">
	<ele>1351.40</ele>
	<time>2025-04-30T07:21:00.000Z</time>
</trkpt>
<trkpt lat="45.8969380" lon="10.2696080">
	<ele>1351.40</ele>
	<time>2025-04-30T07:21:01.000Z</time>
</trkpt>
<trkpt lat="45.8969470" lon="10.2696210">
	<ele>1351.40</ele>
	<time>2025-04-30T07:21:02.000Z</time>
</trkpt>
<trkpt lat="45.8969470" lon="10.2696200">
	<ele>1351.60</ele>
	<time>2025-04-30T07:21:03.000Z</time>
</trkpt>
<trkpt lat="45.8969480" lon="10.2696270">
	<ele>1351.80</ele>
	<time>2025-04-30T07:21:04.000Z</time>
</trkpt>
<trkpt lat="45.8969510" lon="10.2696370">
	<ele>1351.80</ele>
	<time>2025-04-30T07:21:05.000Z</time>
</trkpt>
<trkpt lat="45.8969550" lon="10.2696520">
	<ele>1352.00</ele>
	<time>2025-04-30T07:21:06.000Z</time>
</trkpt>
<trkpt lat="45.8969550" lon="10.2696640">
	<ele>1352.00</ele>
	<time>2025-04-30T07:21:07.000Z</time>
</trkpt>
<trkpt lat="45.8969590" lon="10.2696790">
	<ele>1352.00</ele>
	<time>2025-04-30T07:21:08.000Z</time>
</trkpt>
<trkpt lat="45.8969620" lon="10.2696940">
	<ele>1352.00</ele>
	<time>2025-04-30T07:21:09.000Z</time>
</trkpt>
<trkpt lat="45.8969630" lon="10.2697060">
	<ele>1352.20</ele>
	<time>2025-04-30T07:21:10.000Z</time>
</trkpt>
<trkpt lat="45.8969600" lon="10.2697130">
	<ele>1352.40</ele>
	<time>2025-04-30T07:21:11.000Z</time>
</trkpt>
<trkpt lat="45.8969510" lon="10.2697210">
	<ele>1352.60</ele>
	<time>2025-04-30T07:21:12.000Z</time>
</trkpt>
<trkpt lat="45.8969580" lon="10.2697320">
	<ele>1352.60</ele>
	<time>2025-04-30T07:21:13.000Z</time>
</trkpt>
<trkpt lat="45.8969610" lon="10.2697480">
	<ele>1352.80</ele>
	<time>2025-04-30T07:21:14.000Z</time>
</trkpt>
<trkpt lat="45.8969580" lon="10.2697580">
	<ele>1353.00</ele>
	<time>2025-04-30T07:21:15.000Z</time>
</trkpt>
<trkpt lat="45.8969580" lon="10.2697680">
	<ele>1353.20</ele>
	<time>2025-04-30T07:21:16.000Z</time>
</trkpt>
<trkpt lat="45.8969560" lon="10.2697770">
	<ele>1353.60</ele>
	<time>2025-04-30T07:21:17.000Z</time>
</trkpt>
<trkpt lat="45.8969530" lon="10.2697870">
	<ele>1353.80</ele>
	<time>2025-04-30T07:21:18.000Z</time>
</trkpt>
<trkpt lat="45.8969510" lon="10.2698010">
	<ele>1353.80</ele>
	<time>2025-04-30T07:21:19.000Z</time>
</trkpt>
<trkpt lat="45.8969490" lon="10.2698160">
	<ele>1354.00</ele>
	<time>2025-04-30T07:21:20.000Z</time>
</trkpt>
<trkpt lat="45.8969490" lon="10.2698290">
	<ele>1354.00</ele>
	<time>2025-04-30T07:21:21.000Z</time>
</trkpt>
<trkpt lat="45.8969510" lon="10.2698370">
	<ele>1354.20</ele>
	<time>2025-04-30T07:21:22.000Z</time>
</trkpt>
<trkpt lat="45.8969510" lon="10.2698460">
	<ele>1354.20</ele>
	<time>2025-04-30T07:21:23.000Z</time>
</trkpt>
<trkpt lat="45.8969560" lon="10.2698630">
	<ele>1354.20</ele>
	<time>2025-04-30T07:21:24.000Z</time>
</trkpt>
<trkpt lat="45.8969660" lon="10.2698750">
	<ele>1354.20</ele>
	<time>2025-04-30T07:21:25.000Z</time>
</trkpt>
<trkpt lat="45.8969780" lon="10.2698860">
	<ele>1354.40</ele>
	<time>2025-04-30T07:21:26.000Z</time>
</trkpt>
<trkpt lat="45.8969920" lon="10.2699020">
	<ele>1354.40</ele>
	<time>2025-04-30T07:21:27.000Z</time>
</trkpt>
<trkpt lat="45.8969980" lon="10.2699170">
	<ele>1354.60</ele>
	<time>2025-04-30T07:21:28.000Z</time>
</trkpt>
<trkpt lat="45.8970110" lon="10.2699430">
	<ele>1354.80</ele>
	<time>2025-04-30T07:21:29.000Z</time>
</trkpt>
<trkpt lat="45.8970260" lon="10.2699570">
	<ele>1354.80</ele>
	<time>2025-04-30T07:21:30.000Z</time>
</trkpt>
<trkpt lat="45.8970320" lon="10.2699650">
	<ele>1355.00</ele>
	<time>2025-04-30T07:21:31.000Z</time>
</trkpt>
<trkpt lat="45.8970300" lon="10.2699740">
	<ele>1355.20</ele>
	<time>2025-04-30T07:21:32.000Z</time>
</trkpt>
<trkpt lat="45.8970250" lon="10.2699800">
	<ele>1355.40</ele>
	<time>2025-04-30T07:21:33.000Z</time>
</trkpt>
<trkpt lat="45.8970370" lon="10.2700020">
	<ele>1355.60</ele>
	<time>2025-04-30T07:21:34.000Z</time>
</trkpt>
<trkpt lat="45.8970380" lon="10.2700150">
	<ele>1355.60</ele>
	<time>2025-04-30T07:21:35.000Z</time>
</trkpt>
<trkpt lat="45.8970410" lon="10.2700250">
	<ele>1355.80</ele>
	<time>2025-04-30T07:21:36.000Z</time>
</trkpt>
<trkpt lat="45.8970690" lon="10.2700370">
	<ele>1355.80</ele>
	<time>2025-04-30T07:21:37.000Z</time>
</trkpt>
<trkpt lat="45.8970740" lon="10.2700510">
	<ele>1356.20</ele>
	<time>2025-04-30T07:21:38.000Z</time>
</trkpt>
<trkpt lat="45.8970830" lon="10.2700590">
	<ele>1356.40</ele>
	<time>2025-04-30T07:21:39.000Z</time>
</trkpt>
<trkpt lat="45.8970870" lon="10.2700620">
	<ele>1356.60</ele>
	<time>2025-04-30T07:21:40.000Z</time>
</trkpt>
<trkpt lat="45.8970900" lon="10.2700640">
	<ele>1356.80</ele>
	<time>2025-04-30T07:21:41.000Z</time>
</trkpt>
<trkpt lat="45.8970930" lon="10.2700710">
	<ele>1357.00</ele>
	<time>2025-04-30T07:21:42.000Z</time>
</trkpt>
<trkpt lat="45.8971010" lon="10.2700880">
	<ele>1357.00</ele>
	<time>2025-04-30T07:21:43.000Z</time>
</trkpt>
<trkpt lat="45.8971310" lon="10.2701030">
	<ele>1357.00</ele>
	<time>2025-04-30T07:21:44.000Z</time>
</trkpt>
<trkpt lat="45.8971440" lon="10.2701150">
	<ele>1357.00</ele>
	<time>2025-04-30T07:21:45.000Z</time>
</trkpt>
<trkpt lat="45.8971500" lon="10.2701220">
	<ele>1357.00</ele>
	<time>2025-04-30T07:21:46.000Z</time>
</trkpt>
<trkpt lat="45.8971620" lon="10.2701270">
	<ele>1357.00</ele>
	<time>2025-04-30T07:21:47.000Z</time>
</trkpt>
<trkpt lat="45.8971560" lon="10.2701320">
	<ele>1357.00</ele>
	<time>2025-04-30T07:21:48.000Z</time>
</trkpt>
<trkpt lat="45.8971270" lon="10.2701200">
	<ele>1357.20</ele>
	<time>2025-04-30T07:21:49.000Z</time>
</trkpt>
<trkpt lat="45.8971110" lon="10.2701120">
	<ele>1357.20</ele>
	<time>2025-04-30T07:21:50.000Z</time>
</trkpt>
<trkpt lat="45.8971100" lon="10.2701120">
	<ele>1357.20</ele>
	<time>2025-04-30T07:21:51.000Z</time>
</trkpt>
<trkpt lat="45.8971020" lon="10.2701160">
	<ele>1357.20</ele>
	<time>2025-04-30T07:21:52.000Z</time>
</trkpt>
<trkpt lat="45.8971050" lon="10.2701230">
	<ele>1357.40</ele>
	<time>2025-04-30T07:21:53.000Z</time>
</trkpt>
<trkpt lat="45.8971090" lon="10.2701290">
	<ele>1357.40</ele>
	<time>2025-04-30T07:21:54.000Z</time>
</trkpt>
<trkpt lat="45.8971160" lon="10.2701420">
	<ele>1357.40</ele>
	<time>2025-04-30T07:21:55.000Z</time>
</trkpt>
<trkpt lat="45.8971290" lon="10.2701520">
	<ele>1357.40</ele>
	<time>2025-04-30T07:21:56.000Z</time>
</trkpt>
<trkpt lat="45.8971370" lon="10.2701590">
	<ele>1357.40</ele>
	<time>2025-04-30T07:21:57.000Z</time>
</trkpt>
<trkpt lat="45.8971360" lon="10.2701630">
	<ele>1357.40</ele>
	<time>2025-04-30T07:21:58.000Z</time>
</trkpt>
<trkpt lat="45.8971320" lon="10.2701680">
	<ele>1357.40</ele>
	<time>2025-04-30T07:21:59.000Z</time>
</trkpt>
<trkpt lat="45.8971250" lon="10.2701730">
	<ele>1357.80</ele>
	<time>2025-04-30T07:22:00.000Z</time>
</trkpt>
<trkpt lat="45.8971110" lon="10.2701780">
	<ele>1358.00</ele>
	<time>2025-04-30T07:22:01.000Z</time>
</trkpt>
<trkpt lat="45.8971010" lon="10.2701860">
	<ele>1358.20</ele>
	<time>2025-04-30T07:22:02.000Z</time>
</trkpt>
<trkpt lat="45.8970950" lon="10.2701930">
	<ele>1358.40</ele>
	<time>2025-04-30T07:22:03.000Z</time>
</trkpt>
<trkpt lat="45.8970830" lon="10.2701980">
	<ele>1358.60</ele>
	<time>2025-04-30T07:22:04.000Z</time>
</trkpt>
<trkpt lat="45.8970700" lon="10.2702050">
	<ele>1358.80</ele>
	<time>2025-04-30T07:22:05.000Z</time>
</trkpt>
<trkpt lat="45.8970600" lon="10.2702150">
	<ele>1359.00</ele>
	<time>2025-04-30T07:22:06.000Z</time>
</trkpt>
<trkpt lat="45.8970510" lon="10.2702090">
	<ele>1359.20</ele>
	<time>2025-04-30T07:22:07.000Z</time>
</trkpt>
<trkpt lat="45.8970530" lon="10.2702140">
	<ele>1359.20</ele>
	<time>2025-04-30T07:22:08.000Z</time>
</trkpt>
<trkpt lat="45.8970420" lon="10.2702100">
	<ele>1359.40</ele>
	<time>2025-04-30T07:22:09.000Z</time>
</trkpt>
<trkpt lat="45.8970350" lon="10.2702210">
	<ele>1359.40</ele>
	<time>2025-04-30T07:22:10.000Z</time>
</trkpt>
<trkpt lat="45.8970250" lon="10.2702280">
	<ele>1359.80</ele>
	<time>2025-04-30T07:22:11.000Z</time>
</trkpt>
<trkpt lat="45.8970220" lon="10.2702450">
	<ele>1360.00</ele>
	<time>2025-04-30T07:22:12.000Z</time>
</trkpt>
<trkpt lat="45.8970120" lon="10.2702560">
	<ele>1360.00</ele>
	<time>2025-04-30T07:22:13.000Z</time>
</trkpt>
<trkpt lat="45.8969910" lon="10.2702560">
	<ele>1360.20</ele>
	<time>2025-04-30T07:22:14.000Z</time>
</trkpt>
<trkpt lat="45.8969940" lon="10.2702560">
	<ele>1360.40</ele>
	<time>2025-04-30T07:22:15.000Z</time>
</trkpt>
<trkpt lat="45.8969800" lon="10.2702450">
	<ele>1360.40</ele>
	<time>2025-04-30T07:22:16.000Z</time>
</trkpt>
<trkpt lat="45.8969710" lon="10.2702430">
	<ele>1360.40</ele>
	<time>2025-04-30T07:22:17.000Z</time>
</trkpt>
<trkpt lat="45.8969710" lon="10.2702470">
	<ele>1360.60</ele>
	<time>2025-04-30T07:22:18.000Z</time>
</trkpt>
<trkpt lat="45.8969730" lon="10.2702630">
	<ele>1361.00</ele>
	<time>2025-04-30T07:22:19.000Z</time>
</trkpt>
<trkpt lat="45.8969640" lon="10.2702800">
	<ele>1361.40</ele>
	<time>2025-04-30T07:22:20.000Z</time>
</trkpt>
<trkpt lat="45.8969520" lon="10.2702980">
	<ele>1361.60</ele>
	<time>2025-04-30T07:22:21.000Z</time>
</trkpt>
<trkpt lat="45.8969530" lon="10.2703110">
	<ele>1361.80</ele>
	<time>2025-04-30T07:22:22.000Z</time>
</trkpt>
<trkpt lat="45.8969520" lon="10.2703160">
	<ele>1361.80</ele>
	<time>2025-04-30T07:22:23.000Z</time>
</trkpt>
<trkpt lat="45.8969580" lon="10.2703320">
	<ele>1361.80</ele>
	<time>2025-04-30T07:22:24.000Z</time>
</trkpt>
<trkpt lat="45.8969640" lon="10.2703600">
	<ele>1362.00</ele>
	<time>2025-04-30T07:22:25.000Z</time>
</trkpt>
<trkpt lat="45.8969630" lon="10.2703830">
	<ele>1362.00</ele>
	<time>2025-04-30T07:22:26.000Z</time>
</trkpt>
<trkpt lat="45.8969650" lon="10.2704050">
	<ele>1362.00</ele>
	<time>2025-04-30T07:22:27.000Z</time>
</trkpt>
<trkpt lat="45.8969650" lon="10.2704150">
	<ele>1362.20</ele>
	<time>2025-04-30T07:22:28.000Z</time>
</trkpt>
<trkpt lat="45.8969550" lon="10.2704030">
	<ele>1362.40</ele>
	<time>2025-04-30T07:22:29.000Z</time>
</trkpt>
<trkpt lat="45.8969430" lon="10.2703940">
	<ele>1362.40</ele>
	<time>2025-04-30T07:22:30.000Z</time>
</trkpt>
<trkpt lat="45.8969400" lon="10.2703910">
	<ele>1362.60</ele>
	<time>2025-04-30T07:22:31.000Z</time>
</trkpt>
<trkpt lat="45.8969220" lon="10.2703730">
	<ele>1362.80</ele>
	<time>2025-04-30T07:22:32.000Z</time>
</trkpt>
<trkpt lat="45.8969050" lon="10.2703580">
	<ele>1362.80</ele>
	<time>2025-04-30T07:22:33.000Z</time>
</trkpt>
<trkpt lat="45.8968890" lon="10.2703610">
	<ele>1362.80</ele>
	<time>2025-04-30T07:22:34.000Z</time>
</trkpt>
<trkpt lat="45.8968690" lon="10.2703700">
	<ele>1363.00</ele>
	<time>2025-04-30T07:22:35.000Z</time>
</trkpt>
<trkpt lat="45.8968700" lon="10.2703890">
	<ele>1363.20</ele>
	<time>2025-04-30T07:22:36.000Z</time>
</trkpt>
<trkpt lat="45.8968700" lon="10.2704000">
	<ele>1363.20</ele>
	<time>2025-04-30T07:22:37.000Z</time>
</trkpt>
<trkpt lat="45.8968610" lon="10.2704020">
	<ele>1363.20</ele>
	<time>2025-04-30T07:22:38.000Z</time>
</trkpt>
<trkpt lat="45.8968470" lon="10.2704070">
	<ele>1363.20</ele>
	<time>2025-04-30T07:22:39.000Z</time>
</trkpt>
<trkpt lat="45.8968400" lon="10.2704150">
	<ele>1363.40</ele>
	<time>2025-04-30T07:22:40.000Z</time>
</trkpt>
<trkpt lat="45.8968320" lon="10.2704170">
	<ele>1363.40</ele>
	<time>2025-04-30T07:22:41.000Z</time>
</trkpt>
<trkpt lat="45.8968380" lon="10.2704290">
	<ele>1363.60</ele>
	<time>2025-04-30T07:22:42.000Z</time>
</trkpt>
<trkpt lat="45.8968370" lon="10.2704290">
	<ele>1364.00</ele>
	<time>2025-04-30T07:22:43.000Z</time>
</trkpt>
<trkpt lat="45.8968300" lon="10.2704330">
	<ele>1364.00</ele>
	<time>2025-04-30T07:22:44.000Z</time>
</trkpt>
<trkpt lat="45.8968300" lon="10.2704320">
	<ele>1364.40</ele>
	<time>2025-04-30T07:22:45.000Z</time>
</trkpt>
<trkpt lat="45.8968320" lon="10.2704310">
	<ele>1364.60</ele>
	<time>2025-04-30T07:22:46.000Z</time>
</trkpt>
<trkpt lat="45.8968230" lon="10.2704220">
	<ele>1364.60</ele>
	<time>2025-04-30T07:22:47.000Z</time>
</trkpt>
<trkpt lat="45.8968160" lon="10.2704180">
	<ele>1364.60</ele>
	<time>2025-04-30T07:22:48.000Z</time>
</trkpt>
<trkpt lat="45.8967940" lon="10.2704060">
	<ele>1364.60</ele>
	<time>2025-04-30T07:22:49.000Z</time>
</trkpt>
<trkpt lat="45.8967950" lon="10.2704100">
	<ele>1364.60</ele>
	<time>2025-04-30T07:22:50.000Z</time>
</trkpt>
<trkpt lat="45.8968030" lon="10.2704130">
	<ele>1364.60</ele>
	<time>2025-04-30T07:22:51.000Z</time>
</trkpt>
<trkpt lat="45.8967980" lon="10.2703980">
	<ele>1364.60</ele>
	<time>2025-04-30T07:22:52.000Z</time>
</trkpt>
<trkpt lat="45.8967860" lon="10.2703840">
	<ele>1364.60</ele>
	<time>2025-04-30T07:22:53.000Z</time>
</trkpt>
<trkpt lat="45.8967890" lon="10.2703850">
	<ele>1364.60</ele>
	<time>2025-04-30T07:22:54.000Z</time>
</trkpt>
<trkpt lat="45.8967910" lon="10.2703880">
	<ele>1364.60</ele>
	<time>2025-04-30T07:22:55.000Z</time>
</trkpt>
<trkpt lat="45.8967890" lon="10.2703960">
	<ele>1364.80</ele>
	<time>2025-04-30T07:22:56.000Z</time>
</trkpt>
<trkpt lat="45.8967920" lon="10.2704040">
	<ele>1364.80</ele>
	<time>2025-04-30T07:22:57.000Z</time>
</trkpt>
<trkpt lat="45.8968000" lon="10.2704190">
	<ele>1364.80</ele>
	<time>2025-04-30T07:22:58.000Z</time>
</trkpt>
<trkpt lat="45.8968030" lon="10.2704320">
	<ele>1365.00</ele>
	<time>2025-04-30T07:22:59.000Z</time>
</trkpt>
<trkpt lat="45.8967980" lon="10.2704450">
	<ele>1365.00</ele>
	<time>2025-04-30T07:23:00.000Z</time>
</trkpt>
<trkpt lat="45.8967910" lon="10.2704570">
	<ele>1365.00</ele>
	<time>2025-04-30T07:23:01.000Z</time>
</trkpt>
<trkpt lat="45.8967800" lon="10.2704620">
	<ele>1365.00</ele>
	<time>2025-04-30T07:23:02.000Z</time>
</trkpt>
<trkpt lat="45.8967720" lon="10.2704680">
	<ele>1365.00</ele>
	<time>2025-04-30T07:23:03.000Z</time>
</trkpt>
<trkpt lat="45.8967690" lon="10.2704740">
	<ele>1365.20</ele>
	<time>2025-04-30T07:23:04.000Z</time>
</trkpt>
<trkpt lat="45.8967660" lon="10.2704770">
	<ele>1365.40</ele>
	<time>2025-04-30T07:23:05.000Z</time>
</trkpt>
<trkpt lat="45.8967620" lon="10.2704850">
	<ele>1365.60</ele>
	<time>2025-04-30T07:23:06.000Z</time>
</trkpt>
<trkpt lat="45.8967670" lon="10.2704900">
	<ele>1365.80</ele>
	<time>2025-04-30T07:23:07.000Z</time>
</trkpt>
<trkpt lat="45.8967620" lon="10.2704980">
	<ele>1366.00</ele>
	<time>2025-04-30T07:23:08.000Z</time>
</trkpt>
<trkpt lat="45.8967600" lon="10.2705010">
	<ele>1366.00</ele>
	<time>2025-04-30T07:23:09.000Z</time>
</trkpt>
<trkpt lat="45.8967550" lon="10.2705040">
	<ele>1366.20</ele>
	<time>2025-04-30T07:23:10.000Z</time>
</trkpt>
<trkpt lat="45.8967540" lon="10.2705110">
	<ele>1366.20</ele>
	<time>2025-04-30T07:23:11.000Z</time>
</trkpt>
<trkpt lat="45.8967490" lon="10.2705180">
	<ele>1366.40</ele>
	<time>2025-04-30T07:23:12.000Z</time>
</trkpt>
<trkpt lat="45.8967450" lon="10.2705290">
	<ele>1366.40</ele>
	<time>2025-04-30T07:23:13.000Z</time>
</trkpt>
<trkpt lat="45.8967420" lon="10.2705430">
	<ele>1366.60</ele>
	<time>2025-04-30T07:23:14.000Z</time>
</trkpt>
<trkpt lat="45.8967370" lon="10.2705600">
	<ele>1367.00</ele>
	<time>2025-04-30T07:23:15.000Z</time>
</trkpt>
<trkpt lat="45.8967280" lon="10.2705660">
	<ele>1367.20</ele>
	<time>2025-04-30T07:23:16.000Z</time>
</trkpt>
<trkpt lat="45.8967260" lon="10.2705760">
	<ele>1367.40</ele>
	<time>2025-04-30T07:23:17.000Z</time>
</trkpt>
<trkpt lat="45.8967240" lon="10.2705850">
	<ele>1367.40</ele>
	<time>2025-04-30T07:23:18.000Z</time>
</trkpt>
<trkpt lat="45.8967160" lon="10.2705900">
	<ele>1367.60</ele>
	<time>2025-04-30T07:23:19.000Z</time>
</trkpt>
<trkpt lat="45.8967110" lon="10.2706000">
	<ele>1368.00</ele>
	<time>2025-04-30T07:23:20.000Z</time>
</trkpt>
<trkpt lat="45.8967070" lon="10.2705950">
	<ele>1368.00</ele>
	<time>2025-04-30T07:23:21.000Z</time>
</trkpt>
<trkpt lat="45.8966980" lon="10.2705960">
	<ele>1368.20</ele>
	<time>2025-04-30T07:23:22.000Z</time>
</trkpt>
<trkpt lat="45.8966810" lon="10.2705920">
	<ele>1368.20</ele>
	<time>2025-04-30T07:23:23.000Z</time>
</trkpt>
<trkpt lat="45.8966690" lon="10.2705900">
	<ele>1368.40</ele>
	<time>2025-04-30T07:23:24.000Z</time>
</trkpt>
<trkpt lat="45.8966580" lon="10.2705930">
	<ele>1368.60</ele>
	<time>2025-04-30T07:23:25.000Z</time>
</trkpt>
<trkpt lat="45.8966560" lon="10.2705950">
	<ele>1368.60</ele>
	<time>2025-04-30T07:23:26.000Z</time>
</trkpt>
<trkpt lat="45.8966550" lon="10.2706010">
	<ele>1368.80</ele>
	<time>2025-04-30T07:23:27.000Z</time>
</trkpt>
<trkpt lat="45.8966570" lon="10.2706050">
	<ele>1369.00</ele>
	<time>2025-04-30T07:23:28.000Z</time>
</trkpt>
<trkpt lat="45.8966430" lon="10.2706030">
	<ele>1369.00</ele>
	<time>2025-04-30T07:23:29.000Z</time>
</trkpt>
<trkpt lat="45.8966290" lon="10.2706050">
	<ele>1369.20</ele>
	<time>2025-04-30T07:23:30.000Z</time>
</trkpt>
<trkpt lat="45.8966250" lon="10.2706090">
	<ele>1369.20</ele>
	<time>2025-04-30T07:23:31.000Z</time>
</trkpt>
<trkpt lat="45.8966190" lon="10.2706040">
	<ele>1369.40</ele>
	<time>2025-04-30T07:23:32.000Z</time>
</trkpt>
<trkpt lat="45.8966180" lon="10.2706110">
	<ele>1369.40</ele>
	<time>2025-04-30T07:23:33.000Z</time>
</trkpt>
<trkpt lat="45.8966170" lon="10.2706130">
	<ele>1369.60</ele>
	<time>2025-04-30T07:23:34.000Z</time>
</trkpt>
<trkpt lat="45.8966070" lon="10.2706150">
	<ele>1369.80</ele>
	<time>2025-04-30T07:23:35.000Z</time>
</trkpt>
<trkpt lat="45.8965960" lon="10.2706170">
	<ele>1370.00</ele>
	<time>2025-04-30T07:23:36.000Z</time>
</trkpt>
<trkpt lat="45.8965910" lon="10.2706230">
	<ele>1370.00</ele>
	<time>2025-04-30T07:23:37.000Z</time>
</trkpt>
<trkpt lat="45.8965850" lon="10.2706260">
	<ele>1370.20</ele>
	<time>2025-04-30T07:23:38.000Z</time>
</trkpt>
<trkpt lat="45.8965820" lon="10.2706280">
	<ele>1370.40</ele>
	<time>2025-04-30T07:23:39.000Z</time>
</trkpt>
<trkpt lat="45.8965780" lon="10.2706420">
	<ele>1370.60</ele>
	<time>2025-04-30T07:23:40.000Z</time>
</trkpt>
<trkpt lat="45.8965710" lon="10.2706440">
	<ele>1370.80</ele>
	<time>2025-04-30T07:23:41.000Z</time>
</trkpt>
<trkpt lat="45.8965660" lon="10.2706480">
	<ele>1370.80</ele>
	<time>2025-04-30T07:23:42.000Z</time>
</trkpt>
<trkpt lat="45.8965590" lon="10.2706520">
	<ele>1371.00</ele>
	<time>2025-04-30T07:23:43.000Z</time>
</trkpt>
<trkpt lat="45.8965550" lon="10.2706540">
	<ele>1371.20</ele>
	<time>2025-04-30T07:23:44.000Z</time>
</trkpt>
<trkpt lat="45.8965530" lon="10.2706540">
	<ele>1371.40</ele>
	<time>2025-04-30T07:23:45.000Z</time>
</trkpt>
<trkpt lat="45.8965490" lon="10.2706490">
	<ele>1371.60</ele>
	<time>2025-04-30T07:23:46.000Z</time>
</trkpt>
<trkpt lat="45.8965400" lon="10.2706420">
	<ele>1371.60</ele>
	<time>2025-04-30T07:23:47.000Z</time>
</trkpt>
<trkpt lat="45.8965410" lon="10.2706340">
	<ele>1371.60</ele>
	<time>2025-04-30T07:23:48.000Z</time>
</trkpt>
<trkpt lat="45.8965420" lon="10.2706380">
	<ele>1371.80</ele>
	<time>2025-04-30T07:23:49.000Z</time>
</trkpt>
<trkpt lat="45.8965400" lon="10.2706350">
	<ele>1371.80</ele>
	<time>2025-04-30T07:23:50.000Z</time>
</trkpt>
<trkpt lat="45.8965330" lon="10.2706250">
	<ele>1372.00</ele>
	<time>2025-04-30T07:23:51.000Z</time>
</trkpt>
<trkpt lat="45.8965320" lon="10.2706360">
	<ele>1372.00</ele>
	<time>2025-04-30T07:23:52.000Z</time>
</trkpt>
<trkpt lat="45.8965290" lon="10.2706380">
	<ele>1372.20</ele>
	<time>2025-04-30T07:23:53.000Z</time>
</trkpt>
<trkpt lat="45.8965260" lon="10.2706440">
	<ele>1372.20</ele>
	<time>2025-04-30T07:23:54.000Z</time>
</trkpt>
<trkpt lat="45.8965270" lon="10.2706570">
	<ele>1372.40</ele>
	<time>2025-04-30T07:23:55.000Z</time>
</trkpt>
<trkpt lat="45.8965230" lon="10.2706660">
	<ele>1372.60</ele>
	<time>2025-04-30T07:23:56.000Z</time>
</trkpt>
<trkpt lat="45.8965260" lon="10.2706760">
	<ele>1372.80</ele>
	<time>2025-04-30T07:23:57.000Z</time>
</trkpt>
<trkpt lat="45.8965230" lon="10.2706790">
	<ele>1373.00</ele>
	<time>2025-04-30T07:23:58.000Z</time>
</trkpt>
<trkpt lat="45.8965230" lon="10.2706860">
	<ele>1373.20</ele>
	<time>2025-04-30T07:23:59.000Z</time>
</trkpt>
<trkpt lat="45.8965220" lon="10.2706940">
	<ele>1373.40</ele>
	<time>2025-04-30T07:24:00.000Z</time>
</trkpt>
<trkpt lat="45.8965120" lon="10.2706910">
	<ele>1373.60</ele>
	<time>2025-04-30T07:24:01.000Z</time>
</trkpt>
<trkpt lat="45.8964990" lon="10.2706880">
	<ele>1374.00</ele>
	<time>2025-04-30T07:24:02.000Z</time>
</trkpt>
<trkpt lat="45.8964940" lon="10.2706880">
	<ele>1374.20</ele>
	<time>2025-04-30T07:24:03.000Z</time>
</trkpt>
<trkpt lat="45.8964900" lon="10.2706860">
	<ele>1374.40</ele>
	<time>2025-04-30T07:24:04.000Z</time>
</trkpt>
<trkpt lat="45.8964800" lon="10.2706840">
	<ele>1374.60</ele>
	<time>2025-04-30T07:24:05.000Z</time>
</trkpt>
<trkpt lat="45.8964680" lon="10.2706780">
	<ele>1374.80</ele>
	<time>2025-04-30T07:24:06.000Z</time>
</trkpt>
<trkpt lat="45.8964600" lon="10.2706750">
	<ele>1375.00</ele>
	<time>2025-04-30T07:24:07.000Z</time>
</trkpt>
<trkpt lat="45.8964580" lon="10.2706850">
	<ele>1375.00</ele>
	<time>2025-04-30T07:24:08.000Z</time>
</trkpt>
<trkpt lat="45.8964570" lon="10.2706900">
	<ele>1375.20</ele>
	<time>2025-04-30T07:24:09.000Z</time>
</trkpt>
<trkpt lat="45.8964490" lon="10.2706990">
	<ele>1375.40</ele>
	<time>2025-04-30T07:24:10.000Z</time>
</trkpt>
<trkpt lat="45.8964450" lon="10.2707150">
	<ele>1375.60</ele>
	<time>2025-04-30T07:24:11.000Z</time>
</trkpt>
<trkpt lat="45.8964410" lon="10.2707300">
	<ele>1375.80</ele>
	<time>2025-04-30T07:24:12.000Z</time>
</trkpt>
<trkpt lat="45.8964430" lon="10.2707500">
	<ele>1375.80</ele>
	<time>2025-04-30T07:24:13.000Z</time>
</trkpt>
<trkpt lat="45.8964240" lon="10.2707520">
	<ele>1376.00</ele>
	<time>2025-04-30T07:24:14.000Z</time>
</trkpt>
<trkpt lat="45.8964150" lon="10.2707570">
	<ele>1376.20</ele>
	<time>2025-04-30T07:24:15.000Z</time>
</trkpt>
<trkpt lat="45.8964140" lon="10.2707650">
	<ele>1376.20</ele>
	<time>2025-04-30T07:24:16.000Z</time>
</trkpt>
<trkpt lat="45.8964130" lon="10.2707720">
	<ele>1376.40</ele>
	<time>2025-04-30T07:24:17.000Z</time>
</trkpt>
<trkpt lat="45.8964090" lon="10.2707800">
	<ele>1376.40</ele>
	<time>2025-04-30T07:24:18.000Z</time>
</trkpt>
<trkpt lat="45.8964080" lon="10.2707860">
	<ele>1376.40</ele>
	<time>2025-04-30T07:24:19.000Z</time>
</trkpt>
<trkpt lat="45.8964060" lon="10.2707860">
	<ele>1376.60</ele>
	<time>2025-04-30T07:24:20.000Z</time>
</trkpt>
<trkpt lat="45.8964050" lon="10.2707830">
	<ele>1377.00</ele>
	<time>2025-04-30T07:24:21.000Z</time>
</trkpt>
<trkpt lat="45.8964040" lon="10.2707790">
	<ele>1377.40</ele>
	<time>2025-04-30T07:24:22.000Z</time>
</trkpt>
<trkpt lat="45.8964050" lon="10.2707780">
	<ele>1377.60</ele>
	<time>2025-04-30T07:24:23.000Z</time>
</trkpt>
<trkpt lat="45.8964040" lon="10.2707760">
	<ele>1377.80</ele>
	<time>2025-04-30T07:24:24.000Z</time>
</trkpt>
<trkpt lat="45.8963920" lon="10.2707650">
	<ele>1378.00</ele>
	<time>2025-04-30T07:24:25.000Z</time>
</trkpt>
<trkpt lat="45.8963790" lon="10.2707600">
	<ele>1378.00</ele>
	<time>2025-04-30T07:24:26.000Z</time>
</trkpt>
<trkpt lat="45.8963700" lon="10.2707640">
	<ele>1378.00</ele>
	<time>2025-04-30T07:24:27.000Z</time>
</trkpt>
<trkpt lat="45.8963630" lon="10.2707640">
	<ele>1378.00</ele>
	<time>2025-04-30T07:24:28.000Z</time>
</trkpt>
<trkpt lat="45.8963590" lon="10.2707630">
	<ele>1378.00</ele>
	<time>2025-04-30T07:24:29.000Z</time>
</trkpt>
<trkpt lat="45.8963580" lon="10.2707650">
	<ele>1378.00</ele>
	<time>2025-04-30T07:24:30.000Z</time>
</trkpt>
<trkpt lat="45.8963620" lon="10.2707700">
	<ele>1378.20</ele>
	<time>2025-04-30T07:24:31.000Z</time>
</trkpt>
<trkpt lat="45.8963550" lon="10.2707620">
	<ele>1378.20</ele>
	<time>2025-04-30T07:24:32.000Z</time>
</trkpt>
<trkpt lat="45.8963410" lon="10.2707530">
	<ele>1378.20</ele>
	<time>2025-04-30T07:24:33.000Z</time>
</trkpt>
<trkpt lat="45.8963340" lon="10.2707590">
	<ele>1378.20</ele>
	<time>2025-04-30T07:24:34.000Z</time>
</trkpt>
<trkpt lat="45.8963350" lon="10.2707650">
	<ele>1378.20</ele>
	<time>2025-04-30T07:24:35.000Z</time>
</trkpt>
<trkpt lat="45.8963250" lon="10.2707640">
	<ele>1378.40</ele>
	<time>2025-04-30T07:24:36.000Z</time>
</trkpt>
<trkpt lat="45.8963080" lon="10.2707650">
	<ele>1378.40</ele>
	<time>2025-04-30T07:24:37.000Z</time>
</trkpt>
<trkpt lat="45.8962940" lon="10.2707610">
	<ele>1378.40</ele>
	<time>2025-04-30T07:24:38.000Z</time>
</trkpt>
<trkpt lat="45.8962900" lon="10.2707590">
	<ele>1378.60</ele>
	<time>2025-04-30T07:24:39.000Z</time>
</trkpt>
<trkpt lat="45.8962980" lon="10.2707720">
	<ele>1378.80</ele>
	<time>2025-04-30T07:24:40.000Z</time>
</trkpt>
<trkpt lat="45.8963040" lon="10.2707850">
	<ele>1378.80</ele>
	<time>2025-04-30T07:24:41.000Z</time>
</trkpt>
<trkpt lat="45.8963010" lon="10.2707900">
	<ele>1378.80</ele>
	<time>2025-04-30T07:24:42.000Z</time>
</trkpt>
<trkpt lat="45.8962950" lon="10.2707850">
	<ele>1379.00</ele>
	<time>2025-04-30T07:24:43.000Z</time>
</trkpt>
<trkpt lat="45.8962930" lon="10.2707830">
	<ele>1379.00</ele>
	<time>2025-04-30T07:24:44.000Z</time>
</trkpt>
<trkpt lat="45.8962920" lon="10.2707940">
	<ele>1379.20</ele>
	<time>2025-04-30T07:24:45.000Z</time>
</trkpt>
<trkpt lat="45.8962810" lon="10.2707950">
	<ele>1379.20</ele>
	<time>2025-04-30T07:24:46.000Z</time>
</trkpt>
<trkpt lat="45.8962750" lon="10.2708050">
	<ele>1379.40</ele>
	<time>2025-04-30T07:24:47.000Z</time>
</trkpt>
<trkpt lat="45.8962700" lon="10.2708050">
	<ele>1379.60</ele>
	<time>2025-04-30T07:24:48.000Z</time>
</trkpt>
<trkpt lat="45.8962640" lon="10.2708070">
	<ele>1379.60</ele>
	<time>2025-04-30T07:24:49.000Z</time>
</trkpt>
<trkpt lat="45.8962550" lon="10.2708060">
	<ele>1379.80</ele>
	<time>2025-04-30T07:24:50.000Z</time>
</trkpt>
<trkpt lat="45.8962450" lon="10.2708090">
	<ele>1379.80</ele>
	<time>2025-04-30T07:24:51.000Z</time>
</trkpt>
<trkpt lat="45.8962520" lon="10.2708230">
	<ele>1380.00</ele>
	<time>2025-04-30T07:24:52.000Z</time>
</trkpt>
<trkpt lat="45.8962720" lon="10.2708400">
	<ele>1380.00</ele>
	<time>2025-04-30T07:24:53.000Z</time>
</trkpt>
<trkpt lat="45.8962880" lon="10.2708500">
	<ele>1380.20</ele>
	<time>2025-04-30T07:24:54.000Z</time>
</trkpt>
<trkpt lat="45.8962870" lon="10.2708570">
	<ele>1380.20</ele>
	<time>2025-04-30T07:24:55.000Z</time>
</trkpt>
<trkpt lat="45.8962810" lon="10.2708570">
	<ele>1380.40</ele>
	<time>2025-04-30T07:24:56.000Z</time>
</trkpt>
<trkpt lat="45.8962850" lon="10.2708640">
	<ele>1380.40</ele>
	<time>2025-04-30T07:24:57.000Z</time>
</trkpt>
<trkpt lat="45.8962870" lon="10.2708670">
	<ele>1380.60</ele>
	<time>2025-04-30T07:24:58.000Z</time>
</trkpt>
<trkpt lat="45.8962900" lon="10.2708660">
	<ele>1380.80</ele>
	<time>2025-04-30T07:24:59.000Z</time>
</trkpt>
<trkpt lat="45.8962890" lon="10.2708660">
	<ele>1380.80</ele>
	<time>2025-04-30T07:25:00.000Z</time>
</trkpt>
<trkpt lat="45.8962960" lon="10.2708690">
	<ele>1381.00</ele>
	<time>2025-04-30T07:25:01.000Z</time>
</trkpt>
<trkpt lat="45.8963010" lon="10.2708650">
	<ele>1381.00</ele>
	<time>2025-04-30T07:25:02.000Z</time>
</trkpt>
<trkpt lat="45.8963100" lon="10.2708590">
	<ele>1380.80</ele>
	<time>2025-04-30T07:25:03.000Z</time>
</trkpt>
<trkpt lat="45.8963000" lon="10.2708420">
	<ele>1380.80</ele>
	<time>2025-04-30T07:25:04.000Z</time>
</trkpt>
<trkpt lat="45.8962830" lon="10.2708290">
	<ele>1380.80</ele>
	<time>2025-04-30T07:25:05.000Z</time>
</trkpt>
<trkpt lat="45.8962820" lon="10.2708260">
	<ele>1380.80</ele>
	<time>2025-04-30T07:25:06.000Z</time>
</trkpt>
<trkpt lat="45.8962670" lon="10.2708150">
	<ele>1380.80</ele>
	<time>2025-04-30T07:25:07.000Z</time>
</trkpt>
<trkpt lat="45.8962490" lon="10.2708050">
	<ele>1380.80</ele>
	<time>2025-04-30T07:25:08.000Z</time>
</trkpt>
<trkpt lat="45.8962490" lon="10.2708090">
	<ele>1380.80</ele>
	<time>2025-04-30T07:25:09.000Z</time>
</trkpt>
<trkpt lat="45.8962480" lon="10.2708080">
	<ele>1380.80</ele>
	<time>2025-04-30T07:25:10.000Z</time>
</trkpt>
<trkpt lat="45.8962390" lon="10.2708020">
	<ele>1381.00</ele>
	<time>2025-04-30T07:25:11.000Z</time>
</trkpt>
<trkpt lat="45.8962330" lon="10.2707970">
	<ele>1381.20</ele>
	<time>2025-04-30T07:25:12.000Z</time>
</trkpt>
<trkpt lat="45.8962330" lon="10.2707970">
	<ele>1381.20</ele>
	<time>2025-04-30T07:25:13.000Z</time>
</trkpt>
<trkpt lat="45.8962370" lon="10.2707940">
	<ele>1381.20</ele>
	<time>2025-04-30T07:25:14.000Z</time>
</trkpt>
<trkpt lat="45.8962350" lon="10.2707960">
	<ele>1381.20</ele>
	<time>2025-04-30T07:25:15.000Z</time>
</trkpt>
<trkpt lat="45.8962290" lon="10.2707960">
	<ele>1381.40</ele>
	<time>2025-04-30T07:25:16.000Z</time>
</trkpt>
<trkpt lat="45.8962280" lon="10.2707990">
	<ele>1381.40</ele>
	<time>2025-04-30T07:25:17.000Z</time>
</trkpt>
<trkpt lat="45.8962340" lon="10.2708010">
	<ele>1381.60</ele>
	<time>2025-04-30T07:25:18.000Z</time>
</trkpt>
<trkpt lat="45.8962130" lon="10.2707970">
	<ele>1381.80</ele>
	<time>2025-04-30T07:25:19.000Z</time>
</trkpt>
<trkpt lat="45.8961680" lon="10.2707560">
	<ele>1382.00</ele>
	<time>2025-04-30T07:25:20.000Z</time>
</trkpt>
<trkpt lat="45.8961620" lon="10.2707570">
	<ele>1382.20</ele>
	<time>2025-04-30T07:25:21.000Z</time>
</trkpt>
<trkpt lat="45.8961570" lon="10.2707580">
	<ele>1382.40</ele>
	<time>2025-04-30T07:25:22.000Z</time>
</trkpt>
<trkpt lat="45.8961450" lon="10.2707360">
	<ele>1382.60</ele>
	<time>2025-04-30T07:25:23.000Z</time>
</trkpt>
<trkpt lat="45.8961290" lon="10.2707000">
	<ele>1382.80</ele>
	<time>2025-04-30T07:25:24.000Z</time>
</trkpt>
<trkpt lat="45.8961220" lon="10.2706900">
	<ele>1382.80</ele>
	<time>2025-04-30T07:25:25.000Z</time>
</trkpt>
<trkpt lat="45.8961150" lon="10.2707060">
	<ele>1383.00</ele>
	<time>2025-04-30T07:25:26.000Z</time>
</trkpt>
<trkpt lat="45.8961160" lon="10.2707210">
	<ele>1383.20</ele>
	<time>2025-04-30T07:25:27.000Z</time>
</trkpt>
<trkpt lat="45.8961120" lon="10.2707210">
	<ele>1383.40</ele>
	<time>2025-04-30T07:25:28.000Z</time>
</trkpt>
<trkpt lat="45.8961010" lon="10.2707320">
	<ele>1383.60</ele>
	<time>2025-04-30T07:25:29.000Z</time>
</trkpt>
<trkpt lat="45.8960790" lon="10.2707130">
	<ele>1383.80</ele>
	<time>2025-04-30T07:25:30.000Z</time>
</trkpt>
<trkpt lat="45.8960690" lon="10.2707090">
	<ele>1384.00</ele>
	<time>2025-04-30T07:25:31.000Z</time>
</trkpt>
<trkpt lat="45.8960600" lon="10.2706950">
	<ele>1384.20</ele>
	<time>2025-04-30T07:25:32.000Z</time>
</trkpt>
<trkpt lat="45.8960590" lon="10.2706830">
	<ele>1384.40</ele>
	<time>2025-04-30T07:25:33.000Z</time>
</trkpt>
<trkpt lat="45.8960600" lon="10.2707110">
	<ele>1384.40</ele>
	<time>2025-04-30T07:25:34.000Z</time>
</trkpt>
<trkpt lat="45.8960560" lon="10.2707160">
	<ele>1384.40</ele>
	<time>2025-04-30T07:25:35.000Z</time>
</trkpt>
<trkpt lat="45.8960430" lon="10.2706940">
	<ele>1384.40</ele>
	<time>2025-04-30T07:25:36.000Z</time>
</trkpt>
<trkpt lat="45.8960270" lon="10.2706710">
	<ele>1384.40</ele>
	<time>2025-04-30T07:25:37.000Z</time>
</trkpt>
<trkpt lat="45.8960170" lon="10.2706530">
	<ele>1384.60</ele>
	<time>2025-04-30T07:25:38.000Z</time>
</trkpt>
<trkpt lat="45.8960140" lon="10.2706450">
	<ele>1384.60</ele>
	<time>2025-04-30T07:25:39.000Z</time>
</trkpt>
<trkpt lat="45.8960130" lon="10.2706460">
	<ele>1384.60</ele>
	<time>2025-04-30T07:25:40.000Z</time>
</trkpt>
<trkpt lat="45.8960100" lon="10.2706440">
	<ele>1384.80</ele>
	<time>2025-04-30T07:25:41.000Z</time>
</trkpt>
<trkpt lat="45.8960090" lon="10.2706400">
	<ele>1384.80</ele>
	<time>2025-04-30T07:25:42.000Z</time>
</trkpt>
<trkpt lat="45.8960070" lon="10.2706400">
	<ele>1385.00</ele>
	<time>2025-04-30T07:25:43.000Z</time>
</trkpt>
<trkpt lat="45.8959950" lon="10.2706330">
	<ele>1385.20</ele>
	<time>2025-04-30T07:25:44.000Z</time>
</trkpt>
<trkpt lat="45.8959900" lon="10.2706310">
	<ele>1385.40</ele>
	<time>2025-04-30T07:25:45.000Z</time>
</trkpt>
<trkpt lat="45.8960030" lon="10.2706430">
	<ele>1385.60</ele>
	<time>2025-04-30T07:25:46.000Z</time>
</trkpt>
<trkpt lat="45.8960070" lon="10.2706450">
	<ele>1385.60</ele>
	<time>2025-04-30T07:25:47.000Z</time>
</trkpt>
<trkpt lat="45.8960080" lon="10.2706390">
	<ele>1385.80</ele>
	<time>2025-04-30T07:25:48.000Z</time>
</trkpt>
<trkpt lat="45.8960030" lon="10.2706250">
	<ele>1386.00</ele>
	<time>2025-04-30T07:25:49.000Z</time>
</trkpt>
<trkpt lat="45.8959940" lon="10.2706080">
	<ele>1386.20</ele>
	<time>2025-04-30T07:25:50.000Z</time>
</trkpt>
<trkpt lat="45.8959890" lon="10.2705950">
	<ele>1386.40</ele>
	<time>2025-04-30T07:25:51.000Z</time>
</trkpt>
<trkpt lat="45.8959810" lon="10.2705760">
	<ele>1386.60</ele>
	<time>2025-04-30T07:25:52.000Z</time>
</trkpt>
<trkpt lat="45.8959780" lon="10.2705590">
	<ele>1386.60</ele>
	<time>2025-04-30T07:25:53.000Z</time>
</trkpt>
<trkpt lat="45.8959690" lon="10.2705290">
	<ele>1386.80</ele>
	<time>2025-04-30T07:25:54.000Z</time>
</trkpt>
<trkpt lat="45.8959670" lon="10.2705110">
	<ele>1386.80</ele>
	<time>2025-04-30T07:25:55.000Z</time>
</trkpt>
<trkpt lat="45.8959630" lon="10.2704990">
	<ele>1387.00</ele>
	<time>2025-04-30T07:25:56.000Z</time>
</trkpt>
<trkpt lat="45.8959600" lon="10.2704900">
	<ele>1387.20</ele>
	<time>2025-04-30T07:25:57.000Z</time>
</trkpt>
<trkpt lat="45.8959510" lon="10.2704840">
	<ele>1387.40</ele>
	<time>2025-04-30T07:25:58.000Z</time>
</trkpt>
<trkpt lat="45.8959400" lon="10.2704780">
	<ele>1387.60</ele>
	<time>2025-04-30T07:25:59.000Z</time>
</trkpt>
<trkpt lat="45.8959360" lon="10.2704750">
	<ele>1387.60</ele>
	<time>2025-04-30T07:26:00.000Z</time>
</trkpt>
<trkpt lat="45.8959240" lon="10.2704730">
	<ele>1388.00</ele>
	<time>2025-04-30T07:26:01.000Z</time>
</trkpt>
<trkpt lat="45.8959190" lon="10.2704750">
	<ele>1388.20</ele>
	<time>2025-04-30T07:26:02.000Z</time>
</trkpt>
<trkpt lat="45.8959180" lon="10.2704800">
	<ele>1388.40</ele>
	<time>2025-04-30T07:26:03.000Z</time>
</trkpt>
<trkpt lat="45.8959190" lon="10.2704840">
	<ele>1388.60</ele>
	<time>2025-04-30T07:26:04.000Z</time>
</trkpt>
<trkpt lat="45.8959200" lon="10.2704820">
	<ele>1388.80</ele>
	<time>2025-04-30T07:26:05.000Z</time>
</trkpt>
<trkpt lat="45.8959190" lon="10.2704870">
	<ele>1388.80</ele>
	<time>2025-04-30T07:26:06.000Z</time>
</trkpt>
<trkpt lat="45.8959090" lon="10.2704800">
	<ele>1389.00</ele>
	<time>2025-04-30T07:26:07.000Z</time>
</trkpt>
<trkpt lat="45.8959050" lon="10.2704810">
	<ele>1389.20</ele>
	<time>2025-04-30T07:26:08.000Z</time>
</trkpt>
<trkpt lat="45.8958780" lon="10.2704770">
	<ele>1389.20</ele>
	<time>2025-04-30T07:26:09.000Z</time>
</trkpt>
<trkpt lat="45.8958940" lon="10.2704740">
	<ele>1389.40</ele>
	<time>2025-04-30T07:26:10.000Z</time>
</trkpt>
<trkpt lat="45.8958940" lon="10.2704610">
	<ele>1389.40</ele>
	<time>2025-04-30T07:26:11.000Z</time>
</trkpt>
<trkpt lat="45.8958870" lon="10.2704480">
	<ele>1389.80</ele>
	<time>2025-04-30T07:26:12.000Z</time>
</trkpt>
<trkpt lat="45.8958780" lon="10.2704390">
	<ele>1389.80</ele>
	<time>2025-04-30T07:26:13.000Z</time>
</trkpt>
<trkpt lat="45.8958760" lon="10.2704380">
	<ele>1390.00</ele>
	<time>2025-04-30T07:26:14.000Z</time>
</trkpt>
<trkpt lat="45.8958730" lon="10.2704310">
	<ele>1390.20</ele>
	<time>2025-04-30T07:26:15.000Z</time>
</trkpt>
<trkpt lat="45.8958730" lon="10.2704270">
	<ele>1390.20</ele>
	<time>2025-04-30T07:26:16.000Z</time>
</trkpt>
<trkpt lat="45.8958770" lon="10.2704300">
	<ele>1390.40</ele>
	<time>2025-04-30T07:26:17.000Z</time>
</trkpt>
<trkpt lat="45.8958360" lon="10.2704170">
	<ele>1390.60</ele>
	<time>2025-04-30T07:26:18.000Z</time>
</trkpt>
<trkpt lat="45.8958190" lon="10.2704260">
	<ele>1390.80</ele>
	<time>2025-04-30T07:26:19.000Z</time>
</trkpt>
<trkpt lat="45.8957970" lon="10.2704220">
	<ele>1391.00</ele>
	<time>2025-04-30T07:26:20.000Z</time>
</trkpt>
<trkpt lat="45.8957630" lon="10.2704020">
	<ele>1391.20</ele>
	<time>2025-04-30T07:26:21.000Z</time>
</trkpt>
<trkpt lat="45.8957610" lon="10.2703930">
	<ele>1391.20</ele>
	<time>2025-04-30T07:26:22.000Z</time>
</trkpt>
<trkpt lat="45.8957580" lon="10.2703870">
	<ele>1391.40</ele>
	<time>2025-04-30T07:26:23.000Z</time>
</trkpt>
<trkpt lat="45.8957610" lon="10.2703800">
	<ele>1391.60</ele>
	<time>2025-04-30T07:26:24.000Z</time>
</trkpt>
<trkpt lat="45.8957650" lon="10.2703720">
	<ele>1391.80</ele>
	<time>2025-04-30T07:26:25.000Z</time>
</trkpt>
<trkpt lat="45.8957750" lon="10.2703690">
	<ele>1392.00</ele>
	<time>2025-04-30T07:26:26.000Z</time>
</trkpt>
<trkpt lat="45.8957870" lon="10.2703680">
	<ele>1392.00</ele>
	<time>2025-04-30T07:26:27.000Z</time>
</trkpt>
<trkpt lat="45.8957910" lon="10.2703640">
	<ele>1392.20</ele>
	<time>2025-04-30T07:26:28.000Z</time>
</trkpt>
<trkpt lat="45.8957800" lon="10.2703450">
	<ele>1392.20</ele>
	<time>2025-04-30T07:26:29.000Z</time>
</trkpt>
<trkpt lat="45.8957680" lon="10.2703210">
	<ele>1392.20</ele>
	<time>2025-04-30T07:26:30.000Z</time>
</trkpt>
<trkpt lat="45.8957600" lon="10.2703090">
	<ele>1392.40</ele>
	<time>2025-04-30T07:26:31.000Z</time>
</trkpt>
<trkpt lat="45.8957410" lon="10.2702940">
	<ele>1392.60</ele>
	<time>2025-04-30T07:26:32.000Z</time>
</trkpt>
<trkpt lat="45.8957350" lon="10.2702860">
	<ele>1392.80</ele>
	<time>2025-04-30T07:26:33.000Z</time>
</trkpt>
<trkpt lat="45.8957330" lon="10.2702730">
	<ele>1393.00</ele>
	<time>2025-04-30T07:26:34.000Z</time>
</trkpt>
<trkpt lat="45.8957280" lon="10.2702610">
	<ele>1393.20</ele>
	<time>2025-04-30T07:26:35.000Z</time>
</trkpt>
<trkpt lat="45.8957240" lon="10.2702570">
	<ele>1393.40</ele>
	<time>2025-04-30T07:26:36.000Z</time>
</trkpt>
<trkpt lat="45.8957290" lon="10.2702640">
	<ele>1393.40</ele>
	<time>2025-04-30T07:26:37.000Z</time>
</trkpt>
<trkpt lat="45.8957360" lon="10.2702660">
	<ele>1393.60</ele>
	<time>2025-04-30T07:26:38.000Z</time>
</trkpt>
<trkpt lat="45.8957330" lon="10.2702720">
	<ele>1393.60</ele>
	<time>2025-04-30T07:26:39.000Z</time>
</trkpt>
<trkpt lat="45.8957370" lon="10.2702770">
	<ele>1393.40</ele>
	<time>2025-04-30T07:26:40.000Z</time>
</trkpt>
<trkpt lat="45.8957340" lon="10.2702770">
	<ele>1393.40</ele>
	<time>2025-04-30T07:26:41.000Z</time>
</trkpt>
<trkpt lat="45.8957360" lon="10.2702760">
	<ele>1393.20</ele>
	<time>2025-04-30T07:26:42.000Z</time>
</trkpt>
<trkpt lat="45.8957380" lon="10.2702700">
	<ele>1393.20</ele>
	<time>2025-04-30T07:26:43.000Z</time>
</trkpt>
<trkpt lat="45.8957370" lon="10.2702660">
	<ele>1393.20</ele>
	<time>2025-04-30T07:26:44.000Z</time>
</trkpt>
<trkpt lat="45.8957390" lon="10.2702740">
	<ele>1393.20</ele>
	<time>2025-04-30T07:26:45.000Z</time>
</trkpt>
<trkpt lat="45.8957400" lon="10.2702750">
	<ele>1393.40</ele>
	<time>2025-04-30T07:26:46.000Z</time>
</trkpt>
<trkpt lat="45.8957490" lon="10.2702920">
	<ele>1393.40</ele>
	<time>2025-04-30T07:26:47.000Z</time>
</trkpt>
<trkpt lat="45.8957500" lon="10.2703020">
	<ele>1393.60</ele>
	<time>2025-04-30T07:26:48.000Z</time>
</trkpt>
<trkpt lat="45.8957450" lon="10.2703040">
	<ele>1393.60</ele>
	<time>2025-04-30T07:26:49.000Z</time>
</trkpt>
<trkpt lat="45.8957430" lon="10.2702980">
	<ele>1393.60</ele>
	<time>2025-04-30T07:26:50.000Z</time>
</trkpt>
<trkpt lat="45.8957430" lon="10.2702930">
	<ele>1393.60</ele>
	<time>2025-04-30T07:26:51.000Z</time>
</trkpt>
<trkpt lat="45.8957370" lon="10.2702860">
	<ele>1393.60</ele>
	<time>2025-04-30T07:26:52.000Z</time>
</trkpt>
<trkpt lat="45.8957360" lon="10.2702860">
	<ele>1393.80</ele>
	<time>2025-04-30T07:26:53.000Z</time>
</trkpt>
<trkpt lat="45.8957310" lon="10.2702760">
	<ele>1394.00</ele>
	<time>2025-04-30T07:26:54.000Z</time>
</trkpt>
<trkpt lat="45.8957270" lon="10.2702630">
	<ele>1394.20</ele>
	<time>2025-04-30T07:26:55.000Z</time>
</trkpt>
<trkpt lat="45.8957280" lon="10.2702410">
	<ele>1394.40</ele>
	<time>2025-04-30T07:26:56.000Z</time>
</trkpt>
<trkpt lat="45.8957120" lon="10.2702320">
	<ele>1394.60</ele>
	<time>2025-04-30T07:26:57.000Z</time>
</trkpt>
<trkpt lat="45.8957020" lon="10.2702160">
	<ele>1394.80</ele>
	<time>2025-04-30T07:26:58.000Z</time>
</trkpt>
<trkpt lat="45.8957030" lon="10.2702010">
	<ele>1394.80</ele>
	<time>2025-04-30T07:26:59.000Z</time>
</trkpt>
<trkpt lat="45.8956980" lon="10.2701830">
	<ele>1395.00</ele>
	<time>2025-04-30T07:27:00.000Z</time>
</trkpt>
<trkpt lat="45.8956920" lon="10.2701750">
	<ele>1395.20</ele>
	<time>2025-04-30T07:27:01.000Z</time>
</trkpt>
<trkpt lat="45.8956970" lon="10.2701730">
	<ele>1395.40</ele>
	<time>2025-04-30T07:27:02.000Z</time>
</trkpt>
<trkpt lat="45.8956990" lon="10.2701770">
	<ele>1395.60</ele>
	<time>2025-04-30T07:27:03.000Z</time>
</trkpt>
<trkpt lat="45.8956880" lon="10.2701730">
	<ele>1395.80</ele>
	<time>2025-04-30T07:27:04.000Z</time>
</trkpt>
<trkpt lat="45.8956710" lon="10.2701640">
	<ele>1396.00</ele>
	<time>2025-04-30T07:27:05.000Z</time>
</trkpt>
<trkpt lat="45.8956680" lon="10.2701550">
	<ele>1396.20</ele>
	<time>2025-04-30T07:27:06.000Z</time>
</trkpt>
<trkpt lat="45.8956690" lon="10.2701420">
	<ele>1396.40</ele>
	<time>2025-04-30T07:27:07.000Z</time>
</trkpt>
<trkpt lat="45.8956670" lon="10.2701130">
	<ele>1396.60</ele>
	<time>2025-04-30T07:27:08.000Z</time>
</trkpt>
<trkpt lat="45.8956680" lon="10.2700970">
	<ele>1396.60</ele>
	<time>2025-04-30T07:27:09.000Z</time>
</trkpt>
<trkpt lat="45.8956810" lon="10.2700920">
	<ele>1397.00</ele>
	<time>2025-04-30T07:27:10.000Z</time>
</trkpt>
<trkpt lat="45.8957040" lon="10.2700980">
	<ele>1397.20</ele>
	<time>2025-04-30T07:27:11.000Z</time>
</trkpt>
<trkpt lat="45.8957090" lon="10.2700950">
	<ele>1397.40</ele>
	<time>2025-04-30T07:27:12.000Z</time>
</trkpt>
<trkpt lat="45.8956970" lon="10.2700800">
	<ele>1397.40</ele>
	<time>2025-04-30T07:27:13.000Z</time>
</trkpt>
<trkpt lat="45.8956800" lon="10.2700600">
	<ele>1397.60</ele>
	<time>2025-04-30T07:27:14.000Z</time>
</trkpt>
<trkpt lat="45.8956680" lon="10.2700460">
	<ele>1397.80</ele>
	<time>2025-04-30T07:27:15.000Z</time>
</trkpt>
<trkpt lat="45.8956580" lon="10.2700340">
	<ele>1397.80</ele>
	<time>2025-04-30T07:27:16.000Z</time>
</trkpt>
<trkpt lat="45.8956610" lon="10.2700280">
	<ele>1398.00</ele>
	<time>2025-04-30T07:27:17.000Z</time>
</trkpt>
<trkpt lat="45.8956540" lon="10.2700190">
	<ele>1398.20</ele>
	<time>2025-04-30T07:27:18.000Z</time>
</trkpt>
<trkpt lat="45.8956500" lon="10.2700130">
	<ele>1398.40</ele>
	<time>2025-04-30T07:27:19.000Z</time>
</trkpt>
<trkpt lat="45.8956470" lon="10.2700000">
	<ele>1398.60</ele>
	<time>2025-04-30T07:27:20.000Z</time>
</trkpt>
<trkpt lat="45.8956360" lon="10.2699810">
	<ele>1398.80</ele>
	<time>2025-04-30T07:27:21.000Z</time>
</trkpt>
<trkpt lat="45.8956310" lon="10.2699660">
	<ele>1399.00</ele>
	<time>2025-04-30T07:27:22.000Z</time>
</trkpt>
<trkpt lat="45.8956210" lon="10.2699550">
	<ele>1399.20</ele>
	<time>2025-04-30T07:27:23.000Z</time>
</trkpt>
<trkpt lat="45.8956170" lon="10.2699490">
	<ele>1399.40</ele>
	<time>2025-04-30T07:27:24.000Z</time>
</trkpt>
<trkpt lat="45.8956120" lon="10.2699450">
	<ele>1399.60</ele>
	<time>2025-04-30T07:27:25.000Z</time>
</trkpt>
<trkpt lat="45.8956050" lon="10.2699320">
	<ele>1399.60</ele>
	<time>2025-04-30T07:27:26.000Z</time>
</trkpt>
<trkpt lat="45.8955930" lon="10.2699200">
	<ele>1399.60</ele>
	<time>2025-04-30T07:27:27.000Z</time>
</trkpt>
<trkpt lat="45.8955910" lon="10.2698990">
	<ele>1399.60</ele>
	<time>2025-04-30T07:27:28.000Z</time>
</trkpt>
<trkpt lat="45.8955990" lon="10.2698860">
	<ele>1399.60</ele>
	<time>2025-04-30T07:27:29.000Z</time>
</trkpt>
<trkpt lat="45.8956190" lon="10.2698850">
	<ele>1399.60</ele>
	<time>2025-04-30T07:27:30.000Z</time>
</trkpt>
<trkpt lat="45.8956210" lon="10.2698800">
	<ele>1399.60</ele>
	<time>2025-04-30T07:27:31.000Z</time>
</trkpt>
<trkpt lat="45.8956330" lon="10.2698780">
	<ele>1399.60</ele>
	<time>2025-04-30T07:27:32.000Z</time>
</trkpt>
<trkpt lat="45.8956430" lon="10.2698820">
	<ele>1399.60</ele>
	<time>2025-04-30T07:27:33.000Z</time>
</trkpt>
<trkpt lat="45.8956430" lon="10.2698780">
	<ele>1399.60</ele>
	<time>2025-04-30T07:27:34.000Z</time>
</trkpt>
<trkpt lat="45.8956300" lon="10.2698680">
	<ele>1399.60</ele>
	<time>2025-04-30T07:27:35.000Z</time>
</trkpt>
<trkpt lat="45.8955960" lon="10.2698470">
	<ele>1399.60</ele>
	<time>2025-04-30T07:27:36.000Z</time>
</trkpt>
<trkpt lat="45.8955760" lon="10.2698200">
	<ele>1399.80</ele>
	<time>2025-04-30T07:27:37.000Z</time>
</trkpt>
<trkpt lat="45.8955650" lon="10.2698020">
	<ele>1400.00</ele>
	<time>2025-04-30T07:27:38.000Z</time>
</trkpt>
<trkpt lat="45.8955670" lon="10.2697810">
	<ele>1400.00</ele>
	<time>2025-04-30T07:27:39.000Z</time>
</trkpt>
<trkpt lat="45.8955720" lon="10.2697700">
	<ele>1400.20</ele>
	<time>2025-04-30T07:27:40.000Z</time>
</trkpt>
<trkpt lat="45.8955760" lon="10.2697620">
	<ele>1400.20</ele>
	<time>2025-04-30T07:27:41.000Z</time>
</trkpt>
<trkpt lat="45.8955790" lon="10.2697580">
	<ele>1400.40</ele>
	<time>2025-04-30T07:27:42.000Z</time>
</trkpt>
<trkpt lat="45.8955760" lon="10.2697570">
	<ele>1400.40</ele>
	<time>2025-04-30T07:27:43.000Z</time>
</trkpt>
<trkpt lat="45.8955730" lon="10.2697530">
	<ele>1400.60</ele>
	<time>2025-04-30T07:27:44.000Z</time>
</trkpt>
<trkpt lat="45.8955580" lon="10.2697430">
	<ele>1400.60</ele>
	<time>2025-04-30T07:27:45.000Z</time>
</trkpt>
<trkpt lat="45.8955710" lon="10.2697340">
	<ele>1400.80</ele>
	<time>2025-04-30T07:27:46.000Z</time>
</trkpt>
<trkpt lat="45.8955770" lon="10.2697240">
	<ele>1400.80</ele>
	<time>2025-04-30T07:27:47.000Z</time>
</trkpt>
<trkpt lat="45.8955810" lon="10.2697180">
	<ele>1401.20</ele>
	<time>2025-04-30T07:27:48.000Z</time>
</trkpt>
<trkpt lat="45.8955740" lon="10.2697020">
	<ele>1401.20</ele>
	<time>2025-04-30T07:27:49.000Z</time>
</trkpt>
<trkpt lat="45.8955670" lon="10.2696860">
	<ele>1401.40</ele>
	<time>2025-04-30T07:27:50.000Z</time>
</trkpt>
<trkpt lat="45.8955670" lon="10.2696770">
	<ele>1401.40</ele>
	<time>2025-04-30T07:27:51.000Z</time>
</trkpt>
<trkpt lat="45.8955600" lon="10.2696670">
	<ele>1401.60</ele>
	<time>2025-04-30T07:27:52.000Z</time>
</trkpt>
<trkpt lat="45.8955530" lon="10.2696600">
	<ele>1401.60</ele>
	<time>2025-04-30T07:27:53.000Z</time>
</trkpt>
<trkpt lat="45.8955480" lon="10.2696440">
	<ele>1401.80</ele>
	<time>2025-04-30T07:27:54.000Z</time>
</trkpt>
<trkpt lat="45.8955510" lon="10.2696330">
	<ele>1401.80</ele>
	<time>2025-04-30T07:27:55.000Z</time>
</trkpt>
<trkpt lat="45.8955510" lon="10.2696240">
	<ele>1402.00</ele>
	<time>2025-04-30T07:27:56.000Z</time>
</trkpt>
<trkpt lat="45.8955530" lon="10.2696180">
	<ele>1402.20</ele>
	<time>2025-04-30T07:27:57.000Z</time>
</trkpt>
<trkpt lat="45.8955510" lon="10.2696180">
	<ele>1402.40</ele>
	<time>2025-04-30T07:27:58.000Z</time>
</trkpt>
<trkpt lat="45.8955450" lon="10.2696210">
	<ele>1402.60</ele>
	<time>2025-04-30T07:27:59.000Z</time>
</trkpt>
<trkpt lat="45.8955430" lon="10.2696150">
	<ele>1403.00</ele>
	<time>2025-04-30T07:28:00.000Z</time>
</trkpt>
<trkpt lat="45.8955480" lon="10.2696100">
	<ele>1403.20</ele>
	<time>2025-04-30T07:28:01.000Z</time>
</trkpt>
<trkpt lat="45.8955530" lon="10.2696010">
	<ele>1403.40</ele>
	<time>2025-04-30T07:28:02.000Z</time>
</trkpt>
<trkpt lat="45.8955550" lon="10.2695940">
	<ele>1403.60</ele>
	<time>2025-04-30T07:28:03.000Z</time>
</trkpt>
<trkpt lat="45.8955550" lon="10.2695930">
	<ele>1403.80</ele>
	<time>2025-04-30T07:28:04.000Z</time>
</trkpt>
<trkpt lat="45.8955460" lon="10.2695860">
	<ele>1404.00</ele>
	<time>2025-04-30T07:28:05.000Z</time>
</trkpt>
<trkpt lat="45.8955410" lon="10.2695790">
	<ele>1404.20</ele>
	<time>2025-04-30T07:28:06.000Z</time>
</trkpt>
<trkpt lat="45.8955380" lon="10.2695640">
	<ele>1404.20</ele>
	<time>2025-04-30T07:28:07.000Z</time>
</trkpt>
<trkpt lat="45.8955380" lon="10.2695440">
	<ele>1404.40</ele>
	<time>2025-04-30T07:28:08.000Z</time>
</trkpt>
<trkpt lat="45.8955330" lon="10.2695140">
	<ele>1404.40</ele>
	<time>2025-04-30T07:28:09.000Z</time>
</trkpt>
<trkpt lat="45.8955190" lon="10.2694840">
	<ele>1404.40</ele>
	<time>2025-04-30T07:28:10.000Z</time>
</trkpt>
<trkpt lat="45.8954940" lon="10.2694510">
	<ele>1404.40</ele>
	<time>2025-04-30T07:28:11.000Z</time>
</trkpt>
<trkpt lat="45.8954760" lon="10.2694220">
	<ele>1404.60</ele>
	<time>2025-04-30T07:28:12.000Z</time>
</trkpt>
<trkpt lat="45.8954750" lon="10.2694030">
	<ele>1404.60</ele>
	<time>2025-04-30T07:28:13.000Z</time>
</trkpt>
<trkpt lat="45.8954740" lon="10.2693970">
	<ele>1404.60</ele>
	<time>2025-04-30T07:28:14.000Z</time>
</trkpt>
<trkpt lat="45.8954750" lon="10.2693850">
	<ele>1404.60</ele>
	<time>2025-04-30T07:28:15.000Z</time>
</trkpt>
<trkpt lat="45.8954760" lon="10.2693750">
	<ele>1404.80</ele>
	<time>2025-04-30T07:28:16.000Z</time>
</trkpt>
<trkpt lat="45.8954770" lon="10.2693730">
	<ele>1405.00</ele>
	<time>2025-04-30T07:28:17.000Z</time>
</trkpt>
<trkpt lat="45.8954680" lon="10.2693680">
	<ele>1405.00</ele>
	<time>2025-04-30T07:28:18.000Z</time>
</trkpt>
<trkpt lat="45.8954660" lon="10.2693630">
	<ele>1405.20</ele>
	<time>2025-04-30T07:28:19.000Z</time>
</trkpt>
<trkpt lat="45.8954670" lon="10.2693560">
	<ele>1405.20</ele>
	<time>2025-04-30T07:28:20.000Z</time>
</trkpt>
<trkpt lat="45.8954600" lon="10.2693480">
	<ele>1405.40</ele>
	<time>2025-04-30T07:28:21.000Z</time>
</trkpt>
<trkpt lat="45.8954620" lon="10.2693460">
	<ele>1405.40</ele>
	<time>2025-04-30T07:28:22.000Z</time>
</trkpt>
<trkpt lat="45.8954700" lon="10.2693360">
	<ele>1405.60</ele>
	<time>2025-04-30T07:28:23.000Z</time>
</trkpt>
<trkpt lat="45.8954650" lon="10.2693220">
	<ele>1405.80</ele>
	<time>2025-04-30T07:28:24.000Z</time>
</trkpt>
<trkpt lat="45.8954460" lon="10.2693080">
	<ele>1405.80</ele>
	<time>2025-04-30T07:28:25.000Z</time>
</trkpt>
<trkpt lat="45.8954230" lon="10.2692790">
	<ele>1406.00</ele>
	<time>2025-04-30T07:28:26.000Z</time>
</trkpt>
<trkpt lat="45.8954190" lon="10.2692610">
	<ele>1406.00</ele>
	<time>2025-04-30T07:28:27.000Z</time>
</trkpt>
<trkpt lat="45.8954020" lon="10.2692540">
	<ele>1406.20</ele>
	<time>2025-04-30T07:28:28.000Z</time>
</trkpt>
<trkpt lat="45.8953870" lon="10.2692370">
	<ele>1406.40</ele>
	<time>2025-04-30T07:28:29.000Z</time>
</trkpt>
<trkpt lat="45.8953760" lon="10.2692300">
	<ele>1406.60</ele>
	<time>2025-04-30T07:28:30.000Z</time>
</trkpt>
<trkpt lat="45.8953760" lon="10.2692260">
	<ele>1407.00</ele>
	<time>2025-04-30T07:28:31.000Z</time>
</trkpt>
<trkpt lat="45.8953720" lon="10.2692250">
	<ele>1407.00</ele>
	<time>2025-04-30T07:28:32.000Z</time>
</trkpt>
<trkpt lat="45.8953700" lon="10.2692280">
	<ele>1407.20</ele>
	<time>2025-04-30T07:28:33.000Z</time>
</trkpt>
<trkpt lat="45.8953610" lon="10.2692240">
	<ele>1407.40</ele>
	<time>2025-04-30T07:28:34.000Z</time>
</trkpt>
<trkpt lat="45.8953460" lon="10.2692150">
	<ele>1407.40</ele>
	<time>2025-04-30T07:28:35.000Z</time>
</trkpt>
<trkpt lat="45.8953410" lon="10.2692150">
	<ele>1407.60</ele>
	<time>2025-04-30T07:28:36.000Z</time>
</trkpt>
<trkpt lat="45.8953380" lon="10.2692150">
	<ele>1407.80</ele>
	<time>2025-04-30T07:28:37.000Z</time>
</trkpt>
<trkpt lat="45.8953350" lon="10.2692080">
	<ele>1408.00</ele>
	<time>2025-04-30T07:28:38.000Z</time>
</trkpt>
<trkpt lat="45.8953380" lon="10.2691970">
	<ele>1408.20</ele>
	<time>2025-04-30T07:28:39.000Z</time>
</trkpt>
<trkpt lat="45.8953380" lon="10.2691920">
	<ele>1408.20</ele>
	<time>2025-04-30T07:28:40.000Z</time>
</trkpt>
<trkpt lat="45.8953370" lon="10.2691900">
	<ele>1408.20</ele>
	<time>2025-04-30T07:28:41.000Z</time>
</trkpt>
<trkpt lat="45.8953250" lon="10.2691830">
	<ele>1408.40</ele>
	<time>2025-04-30T07:28:42.000Z</time>
</trkpt>
<trkpt lat="45.8953080" lon="10.2691620">
	<ele>1408.60</ele>
	<time>2025-04-30T07:28:43.000Z</time>
</trkpt>
<trkpt lat="45.8952960" lon="10.2691450">
	<ele>1408.80</ele>
	<time>2025-04-30T07:28:44.000Z</time>
</trkpt>
<trkpt lat="45.8952990" lon="10.2691420">
	<ele>1408.80</ele>
	<time>2025-04-30T07:28:45.000Z</time>
</trkpt>
<trkpt lat="45.8953000" lon="10.2691250">
	<ele>1409.20</ele>
	<time>2025-04-30T07:28:46.000Z</time>
</trkpt>
<trkpt lat="45.8953010" lon="10.2691220">
	<ele>1409.40</ele>
	<time>2025-04-30T07:28:47.000Z</time>
</trkpt>
<trkpt lat="45.8952940" lon="10.2691150">
	<ele>1409.60</ele>
	<time>2025-04-30T07:28:48.000Z</time>
</trkpt>
<trkpt lat="45.8952920" lon="10.2691070">
	<ele>1409.60</ele>
	<time>2025-04-30T07:28:49.000Z</time>
</trkpt>
<trkpt lat="45.8952850" lon="10.2690980">
	<ele>1409.80</ele>
	<time>2025-04-30T07:28:50.000Z</time>
</trkpt>
<trkpt lat="45.8952840" lon="10.2690920">
	<ele>1410.00</ele>
	<time>2025-04-30T07:28:51.000Z</time>
</trkpt>
<trkpt lat="45.8952770" lon="10.2690830">
	<ele>1410.20</ele>
	<time>2025-04-30T07:28:52.000Z</time>
</trkpt>
<trkpt lat="45.8952720" lon="10.2690730">
	<ele>1410.40</ele>
	<time>2025-04-30T07:28:53.000Z</time>
</trkpt>
<trkpt lat="45.8952620" lon="10.2690660">
	<ele>1410.60</ele>
	<time>2025-04-30T07:28:54.000Z</time>
</trkpt>
<trkpt lat="45.8952520" lon="10.2690610">
	<ele>1410.80</ele>
	<time>2025-04-30T07:28:55.000Z</time>
</trkpt>
<trkpt lat="45.8952360" lon="10.2690500">
	<ele>1411.00</ele>
	<time>2025-04-30T07:28:56.000Z</time>
</trkpt>
<trkpt lat="45.8952330" lon="10.2690450">
	<ele>1411.00</ele>
	<time>2025-04-30T07:28:57.000Z</time>
</trkpt>
<trkpt lat="45.8952280" lon="10.2690320">
	<ele>1411.40</ele>
	<time>2025-04-30T07:28:58.000Z</time>
</trkpt>
<trkpt lat="45.8952220" lon="10.2690210">
	<ele>1411.40</ele>
	<time>2025-04-30T07:28:59.000Z</time>
</trkpt>
<trkpt lat="45.8952200" lon="10.2690010">
	<ele>1411.60</ele>
	<time>2025-04-30T07:29:00.000Z</time>
</trkpt>
<trkpt lat="45.8952040" lon="10.2689810">
	<ele>1411.60</ele>
	<time>2025-04-30T07:29:01.000Z</time>
</trkpt>
<trkpt lat="45.8951890" lon="10.2689680">
	<ele>1411.80</ele>
	<time>2025-04-30T07:29:02.000Z</time>
</trkpt>
<trkpt lat="45.8951710" lon="10.2689610">
	<ele>1412.00</ele>
	<time>2025-04-30T07:29:03.000Z</time>
</trkpt>
<trkpt lat="45.8951640" lon="10.2689580">
	<ele>1412.20</ele>
	<time>2025-04-30T07:29:04.000Z</time>
</trkpt>
<trkpt lat="45.8951600" lon="10.2689620">
	<ele>1412.40</ele>
	<time>2025-04-30T07:29:05.000Z</time>
</trkpt>
<trkpt lat="45.8951360" lon="10.2689440">
	<ele>1412.40</ele>
	<time>2025-04-30T07:29:06.000Z</time>
</trkpt>
<trkpt lat="45.8951220" lon="10.2689330">
	<ele>1412.60</ele>
	<time>2025-04-30T07:29:07.000Z</time>
</trkpt>
<trkpt lat="45.8951140" lon="10.2689230">
	<ele>1412.80</ele>
	<time>2025-04-30T07:29:08.000Z</time>
</trkpt>
<trkpt lat="45.8951020" lon="10.2689280">
	<ele>1412.80</ele>
	<time>2025-04-30T07:29:09.000Z</time>
</trkpt>
<trkpt lat="45.8950910" lon="10.2689330">
	<ele>1413.00</ele>
	<time>2025-04-30T07:29:10.000Z</time>
</trkpt>
<trkpt lat="45.8950850" lon="10.2689400">
	<ele>1413.20</ele>
	<time>2025-04-30T07:29:11.000Z</time>
</trkpt>
<trkpt lat="45.8950820" lon="10.2689460">
	<ele>1413.40</ele>
	<time>2025-04-30T07:29:12.000Z</time>
</trkpt>
<trkpt lat="45.8950880" lon="10.2689480">
	<ele>1413.60</ele>
	<time>2025-04-30T07:29:13.000Z</time>
</trkpt>
<trkpt lat="45.8950890" lon="10.2689500">
	<ele>1413.80</ele>
	<time>2025-04-30T07:29:14.000Z</time>
</trkpt>
<trkpt lat="45.8950890" lon="10.2689400">
	<ele>1414.00</ele>
	<time>2025-04-30T07:29:15.000Z</time>
</trkpt>
<trkpt lat="45.8950950" lon="10.2689240">
	<ele>1414.00</ele>
	<time>2025-04-30T07:29:16.000Z</time>
</trkpt>
<trkpt lat="45.8950870" lon="10.2689090">
	<ele>1414.20</ele>
	<time>2025-04-30T07:29:17.000Z</time>
</trkpt>
<trkpt lat="45.8950740" lon="10.2689060">
	<ele>1414.60</ele>
	<time>2025-04-30T07:29:18.000Z</time>
</trkpt>
<trkpt lat="45.8950750" lon="10.2689000">
	<ele>1414.80</ele>
	<time>2025-04-30T07:29:19.000Z</time>
</trkpt>
<trkpt lat="45.8950720" lon="10.2688970">
	<ele>1415.00</ele>
	<time>2025-04-30T07:29:20.000Z</time>
</trkpt>
<trkpt lat="45.8950500" lon="10.2688950">
	<ele>1415.20</ele>
	<time>2025-04-30T07:29:21.000Z</time>
</trkpt>
<trkpt lat="45.8950470" lon="10.2688940">
	<ele>1415.40</ele>
	<time>2025-04-30T07:29:22.000Z</time>
</trkpt>
<trkpt lat="45.8950460" lon="10.2688950">
	<ele>1415.60</ele>
	<time>2025-04-30T07:29:23.000Z</time>
</trkpt>
<trkpt lat="45.8950620" lon="10.2688970">
	<ele>1415.80</ele>
	<time>2025-04-30T07:29:24.000Z</time>
</trkpt>
<trkpt lat="45.8950740" lon="10.2688920">
	<ele>1415.80</ele>
	<time>2025-04-30T07:29:25.000Z</time>
</trkpt>
<trkpt lat="45.8950880" lon="10.2688880">
	<ele>1416.00</ele>
	<time>2025-04-30T07:29:26.000Z</time>
</trkpt>
<trkpt lat="45.8950890" lon="10.2688910">
	<ele>1416.20</ele>
	<time>2025-04-30T07:29:27.000Z</time>
</trkpt>
<trkpt lat="45.8950820" lon="10.2688900">
	<ele>1416.40</ele>
	<time>2025-04-30T07:29:28.000Z</time>
</trkpt>
<trkpt lat="45.8950840" lon="10.2688920">
	<ele>1416.60</ele>
	<time>2025-04-30T07:29:29.000Z</time>
</trkpt>
<trkpt lat="45.8950880" lon="10.2689000">
	<ele>1416.80</ele>
	<time>2025-04-30T07:29:30.000Z</time>
</trkpt>
<trkpt lat="45.8950880" lon="10.2689050">
	<ele>1417.00</ele>
	<time>2025-04-30T07:29:31.000Z</time>
</trkpt>
<trkpt lat="45.8950840" lon="10.2689010">
	<ele>1417.20</ele>
	<time>2025-04-30T07:29:32.000Z</time>
</trkpt>
<trkpt lat="45.8950840" lon="10.2688920">
	<ele>1417.40</ele>
	<time>2025-04-30T07:29:33.000Z</time>
</trkpt>
<trkpt lat="45.8950920" lon="10.2688900">
	<ele>1417.40</ele>
	<time>2025-04-30T07:29:34.000Z</time>
</trkpt>
<trkpt lat="45.8951010" lon="10.2688890">
	<ele>1417.60</ele>
	<time>2025-04-30T07:29:35.000Z</time>
</trkpt>
<trkpt lat="45.8951020" lon="10.2688930">
	<ele>1417.80</ele>
	<time>2025-04-30T07:29:36.000Z</time>
</trkpt>
<trkpt lat="45.8951070" lon="10.2688950">
	<ele>1418.00</ele>
	<time>2025-04-30T07:29:37.000Z</time>
</trkpt>
<trkpt lat="45.8951070" lon="10.2688940">
	<ele>1418.20</ele>
	<time>2025-04-30T07:29:38.000Z</time>
</trkpt>
<trkpt lat="45.8950900" lon="10.2688790">
	<ele>1418.40</ele>
	<time>2025-04-30T07:29:39.000Z</time>
</trkpt>
<trkpt lat="45.8950790" lon="10.2688640">
	<ele>1418.60</ele>
	<time>2025-04-30T07:29:40.000Z</time>
</trkpt>
<trkpt lat="45.8950810" lon="10.2688510">
	<ele>1418.80</ele>
	<time>2025-04-30T07:29:41.000Z</time>
</trkpt>
<trkpt lat="45.8950700" lon="10.2688340">
	<ele>1419.00</ele>
	<time>2025-04-30T07:29:42.000Z</time>
</trkpt>
<trkpt lat="45.8950520" lon="10.2688170">
	<ele>1419.20</ele>
	<time>2025-04-30T07:29:43.000Z</time>
</trkpt>
<trkpt lat="45.8950230" lon="10.2688020">
	<ele>1419.40</ele>
	<time>2025-04-30T07:29:44.000Z</time>
</trkpt>
<trkpt lat="45.8949980" lon="10.2687870">
	<ele>1419.80</ele>
	<time>2025-04-30T07:29:45.000Z</time>
</trkpt>
<trkpt lat="45.8949830" lon="10.2687800">
	<ele>1420.00</ele>
	<time>2025-04-30T07:29:46.000Z</time>
</trkpt>
<trkpt lat="45.8949820" lon="10.2687830">
	<ele>1420.20</ele>
	<time>2025-04-30T07:29:47.000Z</time>
</trkpt>
<trkpt lat="45.8949920" lon="10.2687820">
	<ele>1420.40</ele>
	<time>2025-04-30T07:29:48.000Z</time>
</trkpt>
<trkpt lat="45.8949940" lon="10.2687660">
	<ele>1420.40</ele>
	<time>2025-04-30T07:29:49.000Z</time>
</trkpt>
<trkpt lat="45.8949800" lon="10.2687530">
	<ele>1420.60</ele>
	<time>2025-04-30T07:29:50.000Z</time>
</trkpt>
<trkpt lat="45.8949690" lon="10.2687460">
	<ele>1420.80</ele>
	<time>2025-04-30T07:29:51.000Z</time>
</trkpt>
<trkpt lat="45.8949640" lon="10.2687400">
	<ele>1421.00</ele>
	<time>2025-04-30T07:29:52.000Z</time>
</trkpt>
<trkpt lat="45.8949620" lon="10.2687390">
	<ele>1421.20</ele>
	<time>2025-04-30T07:29:53.000Z</time>
</trkpt>
<trkpt lat="45.8949590" lon="10.2687320">
	<ele>1421.40</ele>
	<time>2025-04-30T07:29:54.000Z</time>
</trkpt>
<trkpt lat="45.8949460" lon="10.2687200">
	<ele>1421.60</ele>
	<time>2025-04-30T07:29:55.000Z</time>
</trkpt>
<trkpt lat="45.8949360" lon="10.2687110">
	<ele>1421.60</ele>
	<time>2025-04-30T07:29:56.000Z</time>
</trkpt>
<trkpt lat="45.8949220" lon="10.2687020">
	<ele>1421.80</ele>
	<time>2025-04-30T07:29:57.000Z</time>
</trkpt>
<trkpt lat="45.8949200" lon="10.2687050">
	<ele>1422.00</ele>
	<time>2025-04-30T07:29:58.000Z</time>
</trkpt>
<trkpt lat="45.8949110" lon="10.2687040">
	<ele>1422.00</ele>
	<time>2025-04-30T07:29:59.000Z</time>
</trkpt>
<trkpt lat="45.8948960" lon="10.2686930">
	<ele>1422.20</ele>
	<time>2025-04-30T07:30:00.000Z</time>
</trkpt>
<trkpt lat="45.8948910" lon="10.2686950">
	<ele>1422.40</ele>
	<time>2025-04-30T07:30:01.000Z</time>
</trkpt>
<trkpt lat="45.8948920" lon="10.2687020">
	<ele>1422.60</ele>
	<time>2025-04-30T07:30:02.000Z</time>
</trkpt>
<trkpt lat="45.8948890" lon="10.2687030">
	<ele>1423.00</ele>
	<time>2025-04-30T07:30:03.000Z</time>
</trkpt>
<trkpt lat="45.8948800" lon="10.2686940">
	<ele>1423.20</ele>
	<time>2025-04-30T07:30:04.000Z</time>
</trkpt>
<trkpt lat="45.8948690" lon="10.2686850">
	<ele>1423.40</ele>
	<time>2025-04-30T07:30:05.000Z</time>
</trkpt>
<trkpt lat="45.8948580" lon="10.2686770">
	<ele>1423.60</ele>
	<time>2025-04-30T07:30:06.000Z</time>
</trkpt>
<trkpt lat="45.8948520" lon="10.2686660">
	<ele>1424.00</ele>
	<time>2025-04-30T07:30:07.000Z</time>
</trkpt>
<trkpt lat="45.8948510" lon="10.2686610">
	<ele>1424.20</ele>
	<time>2025-04-30T07:30:08.000Z</time>
</trkpt>
<trkpt lat="45.8948440" lon="10.2686660">
	<ele>1424.20</ele>
	<time>2025-04-30T07:30:09.000Z</time>
</trkpt>
<trkpt lat="45.8948450" lon="10.2686640">
	<ele>1424.40</ele>
	<time>2025-04-30T07:30:10.000Z</time>
</trkpt>
<trkpt lat="45.8948480" lon="10.2686650">
	<ele>1424.40</ele>
	<time>2025-04-30T07:30:11.000Z</time>
</trkpt>
<trkpt lat="45.8948470" lon="10.2686500">
	<ele>1424.80</ele>
	<time>2025-04-30T07:30:12.000Z</time>
</trkpt>
<trkpt lat="45.8948480" lon="10.2686350">
	<ele>1424.80</ele>
	<time>2025-04-30T07:30:13.000Z</time>
</trkpt>
<trkpt lat="45.8948370" lon="10.2686240">
	<ele>1425.00</ele>
	<time>2025-04-30T07:30:14.000Z</time>
</trkpt>
<trkpt lat="45.8948270" lon="10.2686190">
	<ele>1425.00</ele>
	<time>2025-04-30T07:30:15.000Z</time>
</trkpt>
<trkpt lat="45.8948130" lon="10.2686190">
	<ele>1425.20</ele>
	<time>2025-04-30T07:30:16.000Z</time>
</trkpt>
<trkpt lat="45.8948150" lon="10.2686250">
	<ele>1425.40</ele>
	<time>2025-04-30T07:30:17.000Z</time>
</trkpt>
<trkpt lat="45.8948150" lon="10.2686220">
	<ele>1425.40</ele>
	<time>2025-04-30T07:30:18.000Z</time>
</trkpt>
<trkpt lat="45.8948120" lon="10.2686190">
	<ele>1425.60</ele>
	<time>2025-04-30T07:30:19.000Z</time>
</trkpt>
<trkpt lat="45.8948100" lon="10.2686160">
	<ele>1425.80</ele>
	<time>2025-04-30T07:30:20.000Z</time>
</trkpt>
<trkpt lat="45.8948120" lon="10.2686090">
	<ele>1426.00</ele>
	<time>2025-04-30T07:30:21.000Z</time>
</trkpt>
<trkpt lat="45.8948040" lon="10.2685990">
	<ele>1426.00</ele>
	<time>2025-04-30T07:30:22.000Z</time>
</trkpt>
<trkpt lat="45.8948040" lon="10.2685980">
	<ele>1426.20</ele>
	<time>2025-04-30T07:30:23.000Z</time>
</trkpt>
<trkpt lat="45.8948030" lon="10.2685990">
	<ele>1426.40</ele>
	<time>2025-04-30T07:30:24.000Z</time>
</trkpt>
<trkpt lat="45.8947940" lon="10.2685910">
	<ele>1426.80</ele>
	<time>2025-04-30T07:30:25.000Z</time>
</trkpt>
<trkpt lat="45.8947840" lon="10.2685740">
	<ele>1427.00</ele>
	<time>2025-04-30T07:30:26.000Z</time>
</trkpt>
<trkpt lat="45.8947770" lon="10.2685670">
	<ele>1427.20</ele>
	<time>2025-04-30T07:30:27.000Z</time>
</trkpt>
<trkpt lat="45.8947710" lon="10.2685590">
	<ele>1427.20</ele>
	<time>2025-04-30T07:30:28.000Z</time>
</trkpt>
<trkpt lat="45.8947620" lon="10.2685510">
	<ele>1427.40</ele>
	<time>2025-04-30T07:30:29.000Z</time>
</trkpt>
<trkpt lat="45.8947540" lon="10.2685380">
	<ele>1427.60</ele>
	<time>2025-04-30T07:30:30.000Z</time>
</trkpt>
<trkpt lat="45.8947500" lon="10.2685350">
	<ele>1427.60</ele>
	<time>2025-04-30T07:30:31.000Z</time>
</trkpt>
<trkpt lat="45.8947440" lon="10.2685310">
	<ele>1427.80</ele>
	<time>2025-04-30T07:30:32.000Z</time>
</trkpt>
<trkpt lat="45.8947510" lon="10.2685320">
	<ele>1428.00</ele>
	<time>2025-04-30T07:30:33.000Z</time>
</trkpt>
<trkpt lat="45.8947500" lon="10.2685370">
	<ele>1428.40</ele>
	<time>2025-04-30T07:30:34.000Z</time>
</trkpt>
<trkpt lat="45.8947440" lon="10.2685280">
	<ele>1428.60</ele>
	<time>2025-04-30T07:30:35.000Z</time>
</trkpt>
<trkpt lat="45.8947400" lon="10.2685170">
	<ele>1428.80</ele>
	<time>2025-04-30T07:30:36.000Z</time>
</trkpt>
<trkpt lat="45.8947330" lon="10.2685030">
	<ele>1428.80</ele>
	<time>2025-04-30T07:30:37.000Z</time>
</trkpt>
<trkpt lat="45.8947280" lon="10.2684970">
	<ele>1429.00</ele>
	<time>2025-04-30T07:30:38.000Z</time>
</trkpt>
<trkpt lat="45.8947240" lon="10.2684990">
	<ele>1429.00</ele>
	<time>2025-04-30T07:30:39.000Z</time>
</trkpt>
<trkpt lat="45.8947300" lon="10.2684800">
	<ele>1429.40</ele>
	<time>2025-04-30T07:30:40.000Z</time>
</trkpt>
<trkpt lat="45.8947330" lon="10.2684600">
	<ele>1429.40</ele>
	<time>2025-04-30T07:30:41.000Z</time>
</trkpt>
<trkpt lat="45.8947380" lon="10.2684450">
	<ele>1429.60</ele>
	<time>2025-04-30T07:30:42.000Z</time>
</trkpt>
<trkpt lat="45.8947550" lon="10.2684430">
	<ele>1429.80</ele>
	<time>2025-04-30T07:30:43.000Z</time>
</trkpt>
<trkpt lat="45.8947530" lon="10.2684290">
	<ele>1430.00</ele>
	<time>2025-04-30T07:30:44.000Z</time>
</trkpt>
<trkpt lat="45.8947490" lon="10.2684240">
	<ele>1430.20</ele>
	<time>2025-04-30T07:30:45.000Z</time>
</trkpt>
<trkpt lat="45.8947330" lon="10.2684200">
	<ele>1430.20</ele>
	<time>2025-04-30T07:30:46.000Z</time>
</trkpt>
<trkpt lat="45.8947260" lon="10.2684180">
	<ele>1430.40</ele>
	<time>2025-04-30T07:30:47.000Z</time>
</trkpt>
<trkpt lat="45.8947240" lon="10.2684250">
	<ele>1430.60</ele>
	<time>2025-04-30T07:30:48.000Z</time>
</trkpt>
<trkpt lat="45.8947220" lon="10.2684240">
	<ele>1430.80</ele>
	<time>2025-04-30T07:30:49.000Z</time>
</trkpt>
<trkpt lat="45.8947240" lon="10.2684240">
	<ele>1431.00</ele>
	<time>2025-04-30T07:30:50.000Z</time>
</trkpt>
<trkpt lat="45.8947200" lon="10.2684170">
	<ele>1431.20</ele>
	<time>2025-04-30T07:30:51.000Z</time>
</trkpt>
<trkpt lat="45.8947080" lon="10.2684010">
	<ele>1431.40</ele>
	<time>2025-04-30T07:30:52.000Z</time>
</trkpt>
<trkpt lat="45.8947080" lon="10.2684010">
	<ele>1431.60</ele>
	<time>2025-04-30T07:30:53.000Z</time>
</trkpt>
<trkpt lat="45.8947060" lon="10.2684100">
	<ele>1431.60</ele>
	<time>2025-04-30T07:30:54.000Z</time>
</trkpt>
<trkpt lat="45.8947050" lon="10.2684030">
	<ele>1431.80</ele>
	<time>2025-04-30T07:30:55.000Z</time>
</trkpt>
<trkpt lat="45.8947040" lon="10.2683960">
	<ele>1431.80</ele>
	<time>2025-04-30T07:30:56.000Z</time>
</trkpt>
<trkpt lat="45.8947050" lon="10.2683880">
	<ele>1432.00</ele>
	<time>2025-04-30T07:30:57.000Z</time>
</trkpt>
<trkpt lat="45.8946910" lon="10.2683780">
	<ele>1432.20</ele>
	<time>2025-04-30T07:30:58.000Z</time>
</trkpt>
<trkpt lat="45.8946870" lon="10.2683650">
	<ele>1432.60</ele>
	<time>2025-04-30T07:30:59.000Z</time>
</trkpt>
<trkpt lat="45.8946830" lon="10.2683480">
	<ele>1432.80</ele>
	<time>2025-04-30T07:31:00.000Z</time>
</trkpt>
<trkpt lat="45.8946520" lon="10.2683180">
	<ele>1432.80</ele>
	<time>2025-04-30T07:31:01.000Z</time>
</trkpt>
<trkpt lat="45.8946370" lon="10.2682980">
	<ele>1433.20</ele>
	<time>2025-04-30T07:31:02.000Z</time>
</trkpt>
<trkpt lat="45.8946320" lon="10.2682960">
	<ele>1433.20</ele>
	<time>2025-04-30T07:31:03.000Z</time>
</trkpt>
<trkpt lat="45.8946350" lon="10.2682910">
	<ele>1433.40</ele>
	<time>2025-04-30T07:31:04.000Z</time>
</trkpt>
<trkpt lat="45.8946380" lon="10.2682980">
	<ele>1433.60</ele>
	<time>2025-04-30T07:31:05.000Z</time>
</trkpt>
<trkpt lat="45.8946330" lon="10.2683140">
	<ele>1434.00</ele>
	<time>2025-04-30T07:31:06.000Z</time>
</trkpt>
<trkpt lat="45.8946230" lon="10.2683160">
	<ele>1434.20</ele>
	<time>2025-04-30T07:31:07.000Z</time>
</trkpt>
<trkpt lat="45.8946140" lon="10.2683150">
	<ele>1434.20</ele>
	<time>2025-04-30T07:31:08.000Z</time>
</trkpt>
<trkpt lat="45.8946110" lon="10.2683100">
	<ele>1434.40</ele>
	<time>2025-04-30T07:31:09.000Z</time>
</trkpt>
<trkpt lat="45.8946080" lon="10.2683100">
	<ele>1434.60</ele>
	<time>2025-04-30T07:31:10.000Z</time>
</trkpt>
<trkpt lat="45.8945980" lon="10.2683080">
	<ele>1434.80</ele>
	<time>2025-04-30T07:31:11.000Z</time>
</trkpt>
<trkpt lat="45.8945870" lon="10.2683030">
	<ele>1435.00</ele>
	<time>2025-04-30T07:31:12.000Z</time>
</trkpt>
<trkpt lat="45.8945800" lon="10.2683030">
	<ele>1435.20</ele>
	<time>2025-04-30T07:31:13.000Z</time>
</trkpt>
<trkpt lat="45.8945620" lon="10.2682920">
	<ele>1435.20</ele>
	<time>2025-04-30T07:31:14.000Z</time>
</trkpt>
<trkpt lat="45.8945540" lon="10.2682910">
	<ele>1435.60</ele>
	<time>2025-04-30T07:31:15.000Z</time>
</trkpt>
<trkpt lat="45.8945550" lon="10.2682970">
	<ele>1435.60</ele>
	<time>2025-04-30T07:31:16.000Z</time>
</trkpt>
<trkpt lat="45.8945540" lon="10.2683020">
	<ele>1435.80</ele>
	<time>2025-04-30T07:31:17.000Z</time>
</trkpt>
<trkpt lat="45.8945500" lon="10.2683030">
	<ele>1436.00</ele>
	<time>2025-04-30T07:31:18.000Z</time>
</trkpt>
<trkpt lat="45.8945590" lon="10.2683030">
	<ele>1436.20</ele>
	<time>2025-04-30T07:31:19.000Z</time>
</trkpt>
<trkpt lat="45.8945640" lon="10.2683010">
	<ele>1436.40</ele>
	<time>2025-04-30T07:31:20.000Z</time>
</trkpt>
<trkpt lat="45.8945680" lon="10.2682960">
	<ele>1436.40</ele>
	<time>2025-04-30T07:31:21.000Z</time>
</trkpt>
<trkpt lat="45.8945800" lon="10.2682890">
	<ele>1436.80</ele>
	<time>2025-04-30T07:31:22.000Z</time>
</trkpt>
<trkpt lat="45.8945860" lon="10.2682870">
	<ele>1437.00</ele>
	<time>2025-04-30T07:31:23.000Z</time>
</trkpt>
<trkpt lat="45.8945820" lon="10.2682870">
	<ele>1437.40</ele>
	<time>2025-04-30T07:31:24.000Z</time>
</trkpt>
<trkpt lat="45.8945780" lon="10.2682890">
	<ele>1437.40</ele>
	<time>2025-04-30T07:31:25.000Z</time>
</trkpt>
<trkpt lat="45.8945750" lon="10.2682880">
	<ele>1437.60</ele>
	<time>2025-04-30T07:31:26.000Z</time>
</trkpt>
<trkpt lat="45.8945720" lon="10.2682850">
	<ele>1437.80</ele>
	<time>2025-04-30T07:31:27.000Z</time>
</trkpt>
<trkpt lat="45.8945700" lon="10.2682790">
	<ele>1438.00</ele>
	<time>2025-04-30T07:31:28.000Z</time>
</trkpt>
<trkpt lat="45.8945570" lon="10.2682640">
	<ele>1438.20</ele>
	<time>2025-04-30T07:31:29.000Z</time>
</trkpt>
<trkpt lat="45.8945510" lon="10.2682600">
	<ele>1438.40</ele>
	<time>2025-04-30T07:31:30.000Z</time>
</trkpt>
<trkpt lat="45.8945560" lon="10.2682590">
	<ele>1438.40</ele>
	<time>2025-04-30T07:31:31.000Z</time>
</trkpt>
<trkpt lat="45.8945550" lon="10.2682560">
	<ele>1438.60</ele>
	<time>2025-04-30T07:31:32.000Z</time>
</trkpt>
<trkpt lat="45.8945550" lon="10.2682560">
	<ele>1438.60</ele>
	<time>2025-04-30T07:31:33.000Z</time>
</trkpt>
<trkpt lat="45.8945550" lon="10.2682560">
	<ele>1438.60</ele>
	<time>2025-04-30T07:31:34.000Z</time>
</trkpt>
<trkpt lat="45.8945550" lon="10.2682560">
	<ele>1438.60</ele>
	<time>2025-04-30T07:31:35.000Z</time>
</trkpt>
<trkpt lat="45.8945630" lon="10.2682530">
	<ele>1438.60</ele>
	<time>2025-04-30T07:31:36.000Z</time>
</trkpt>
<trkpt lat="45.8945670" lon="10.2682490">
	<ele>1438.60</ele>
	<time>2025-04-30T07:31:37.000Z</time>
</trkpt>
<trkpt lat="45.8945720" lon="10.2682520">
	<ele>1438.60</ele>
	<time>2025-04-30T07:31:38.000Z</time>
</trkpt>
<trkpt lat="45.8945720" lon="10.2682510">
	<ele>1438.60</ele>
	<time>2025-04-30T07:31:39.000Z</time>
</trkpt>
<trkpt lat="45.8945760" lon="10.2682590">
	<ele>1438.60</ele>
	<time>2025-04-30T07:31:40.000Z</time>
</trkpt>
<trkpt lat="45.8945820" lon="10.2682660">
	<ele>1438.60</ele>
	<time>2025-04-30T07:31:41.000Z</time>
</trkpt>
<trkpt lat="45.8945820" lon="10.2682670">
	<ele>1439.00</ele>
	<time>2025-04-30T07:31:42.000Z</time>
</trkpt>
<trkpt lat="45.8945900" lon="10.2682690">
	<ele>1439.20</ele>
	<time>2025-04-30T07:31:43.000Z</time>
</trkpt>
<trkpt lat="45.8945690" lon="10.2682590">
	<ele>1439.20</ele>
	<time>2025-04-30T07:31:44.000Z</time>
</trkpt>
<trkpt lat="45.8945390" lon="10.2682460">
	<ele>1439.20</ele>
	<time>2025-04-30T07:31:45.000Z</time>
</trkpt>
<trkpt lat="45.8945300" lon="10.2682410">
	<ele>1439.40</ele>
	<time>2025-04-30T07:31:46.000Z</time>
</trkpt>
<trkpt lat="45.8945330" lon="10.2682410">
	<ele>1439.40</ele>
	<time>2025-04-30T07:31:47.000Z</time>
</trkpt>
<trkpt lat="45.8945340" lon="10.2682400">
	<ele>1439.40</ele>
	<time>2025-04-30T07:31:48.000Z</time>
</trkpt>
<trkpt lat="45.8945330" lon="10.2682410">
	<ele>1439.40</ele>
	<time>2025-04-30T07:31:49.000Z</time>
</trkpt>
<trkpt lat="45.8945320" lon="10.2682430">
	<ele>1439.40</ele>
	<time>2025-04-30T07:31:50.000Z</time>
</trkpt>
<trkpt lat="45.8945390" lon="10.2682540">
	<ele>1439.40</ele>
	<time>2025-04-30T07:31:51.000Z</time>
</trkpt>
<trkpt lat="45.8945450" lon="10.2682610">
	<ele>1439.40</ele>
	<time>2025-04-30T07:31:52.000Z</time>
</trkpt>
<trkpt lat="45.8945490" lon="10.2682650">
	<ele>1439.20</ele>
	<time>2025-04-30T07:31:53.000Z</time>
</trkpt>
<trkpt lat="45.8945500" lon="10.2682670">
	<ele>1439.20</ele>
	<time>2025-04-30T07:31:54.000Z</time>
</trkpt>
<trkpt lat="45.8945550" lon="10.2682710">
	<ele>1439.20</ele>
	<time>2025-04-30T07:31:55.000Z</time>
</trkpt>
<trkpt lat="45.8945600" lon="10.2682720">
	<ele>1439.20</ele>
	<time>2025-04-30T07:31:56.000Z</time>
</trkpt>
<trkpt lat="45.8945660" lon="10.2682770">
	<ele>1439.20</ele>
	<time>2025-04-30T07:31:57.000Z</time>
</trkpt>
<trkpt lat="45.8945700" lon="10.2682770">
	<ele>1439.20</ele>
	<time>2025-04-30T07:31:58.000Z</time>
</trkpt>
<trkpt lat="45.8945730" lon="10.2682740">
	<ele>1439.00</ele>
	<time>2025-04-30T07:31:59.000Z</time>
</trkpt>
<trkpt lat="45.8945780" lon="10.2682750">
	<ele>1438.80</ele>
	<time>2025-04-30T07:32:00.000Z</time>
</trkpt>
<trkpt lat="45.8945760" lon="10.2682790">
	<ele>1438.60</ele>
	<time>2025-04-30T07:32:01.000Z</time>
</trkpt>
<trkpt lat="45.8945700" lon="10.2682750">
	<ele>1438.60</ele>
	<time>2025-04-30T07:32:02.000Z</time>
</trkpt>
<trkpt lat="45.8945640" lon="10.2682770">
	<ele>1438.60</ele>
	<time>2025-04-30T07:32:03.000Z</time>
</trkpt>
<trkpt lat="45.8945640" lon="10.2682840">
	<ele>1438.80</ele>
	<time>2025-04-30T07:32:04.000Z</time>
</trkpt>
<trkpt lat="45.8945750" lon="10.2682920">
	<ele>1438.80</ele>
	<time>2025-04-30T07:32:05.000Z</time>
</trkpt>
<trkpt lat="45.8945800" lon="10.2682950">
	<ele>1438.80</ele>
	<time>2025-04-30T07:32:06.000Z</time>
</trkpt>
<trkpt lat="45.8945810" lon="10.2682960">
	<ele>1438.80</ele>
	<time>2025-04-30T07:32:07.000Z</time>
</trkpt>
<trkpt lat="45.8945800" lon="10.2682970">
	<ele>1438.80</ele>
	<time>2025-04-30T07:32:08.000Z</time>
</trkpt>
<trkpt lat="45.8945790" lon="10.2682960">
	<ele>1439.00</ele>
	<time>2025-04-30T07:32:09.000Z</time>
</trkpt>
<trkpt lat="45.8945850" lon="10.2682990">
	<ele>1439.00</ele>
	<time>2025-04-30T07:32:10.000Z</time>
</trkpt>
<trkpt lat="45.8945860" lon="10.2683000">
	<ele>1438.80</ele>
	<time>2025-04-30T07:32:11.000Z</time>
</trkpt>
<trkpt lat="45.8945870" lon="10.2683000">
	<ele>1438.80</ele>
	<time>2025-04-30T07:32:12.000Z</time>
</trkpt>
<trkpt lat="45.8945870" lon="10.2682990">
	<ele>1438.80</ele>
	<time>2025-04-30T07:32:13.000Z</time>
</trkpt>
<trkpt lat="45.8945870" lon="10.2683050">
	<ele>1438.80</ele>
	<time>2025-04-30T07:32:14.000Z</time>
</trkpt>
<trkpt lat="45.8945890" lon="10.2683090">
	<ele>1438.80</ele>
	<time>2025-04-30T07:32:15.000Z</time>
</trkpt>
<trkpt lat="45.8945870" lon="10.2683120">
	<ele>1438.80</ele>
	<time>2025-04-30T07:32:16.000Z</time>
</trkpt>
<trkpt lat="45.8945830" lon="10.2683150">
	<ele>1438.80</ele>
	<time>2025-04-30T07:32:17.000Z</time>
</trkpt>
<trkpt lat="45.8945760" lon="10.2683080">
	<ele>1438.80</ele>
	<time>2025-04-30T07:32:18.000Z</time>
</trkpt>
<trkpt lat="45.8945730" lon="10.2683030">
	<ele>1438.80</ele>
	<time>2025-04-30T07:32:19.000Z</time>
</trkpt>
<trkpt lat="45.8945750" lon="10.2683060">
	<ele>1438.80</ele>
	<time>2025-04-30T07:32:20.000Z</time>
</trkpt>
<trkpt lat="45.8945700" lon="10.2683080">
	<ele>1438.80</ele>
	<time>2025-04-30T07:32:21.000Z</time>
</trkpt>
<trkpt lat="45.8945660" lon="10.2683070">
	<ele>1438.80</ele>
	<time>2025-04-30T07:32:22.000Z</time>
</trkpt>
<trkpt lat="45.8945570" lon="10.2683080">
	<ele>1438.80</ele>
	<time>2025-04-30T07:32:23.000Z</time>
</trkpt>
<trkpt lat="45.8945550" lon="10.2683060">
	<ele>1438.80</ele>
	<time>2025-04-30T07:32:24.000Z</time>
</trkpt>
<trkpt lat="45.8945630" lon="10.2683070">
	<ele>1438.80</ele>
	<time>2025-04-30T07:32:25.000Z</time>
</trkpt>
<trkpt lat="45.8945710" lon="10.2683090">
	<ele>1438.80</ele>
	<time>2025-04-30T07:32:26.000Z</time>
</trkpt>
<trkpt lat="45.8945750" lon="10.2683110">
	<ele>1438.80</ele>
	<time>2025-04-30T07:32:27.000Z</time>
</trkpt>
<trkpt lat="45.8945760" lon="10.2683130">
	<ele>1439.00</ele>
	<time>2025-04-30T07:32:28.000Z</time>
</trkpt>
<trkpt lat="45.8945810" lon="10.2683130">
	<ele>1439.20</ele>
	<time>2025-04-30T07:32:29.000Z</time>
</trkpt>
<trkpt lat="45.8945790" lon="10.2683150">
	<ele>1439.20</ele>
	<time>2025-04-30T07:32:30.000Z</time>
</trkpt>
<trkpt lat="45.8945810" lon="10.2683110">
	<ele>1439.20</ele>
	<time>2025-04-30T07:32:31.000Z</time>
</trkpt>
<trkpt lat="45.8945750" lon="10.2683040">
	<ele>1439.00</ele>
	<time>2025-04-30T07:32:32.000Z</time>
</trkpt>
<trkpt lat="45.8945650" lon="10.2682950">
	<ele>1439.00</ele>
	<time>2025-04-30T07:32:33.000Z</time>
</trkpt>
<trkpt lat="45.8945580" lon="10.2682850">
	<ele>1438.80</ele>
	<time>2025-04-30T07:32:34.000Z</time>
</trkpt>
<trkpt lat="45.8945520" lon="10.2682810">
	<ele>1438.80</ele>
	<time>2025-04-30T07:32:35.000Z</time>
</trkpt>
<trkpt lat="45.8945470" lon="10.2682800">
	<ele>1439.00</ele>
	<time>2025-04-30T07:32:36.000Z</time>
</trkpt>
<trkpt lat="45.8945420" lon="10.2682770">
	<ele>1439.20</ele>
	<time>2025-04-30T07:32:37.000Z</time>
</trkpt>
<trkpt lat="45.8945310" lon="10.2682700">
	<ele>1439.40</ele>
	<time>2025-04-30T07:32:38.000Z</time>
</trkpt>
<trkpt lat="45.8945250" lon="10.2682590">
	<ele>1439.60</ele>
	<time>2025-04-30T07:32:39.000Z</time>
</trkpt>
<trkpt lat="45.8945180" lon="10.2682560">
	<ele>1439.60</ele>
	<time>2025-04-30T07:32:40.000Z</time>
</trkpt>
<trkpt lat="45.8945170" lon="10.2682500">
	<ele>1439.80</ele>
	<time>2025-04-30T07:32:41.000Z</time>
</trkpt>
<trkpt lat="45.8945130" lon="10.2682440">
	<ele>1440.00</ele>
	<time>2025-04-30T07:32:42.000Z</time>
</trkpt>
<trkpt lat="45.8945240" lon="10.2682420">
	<ele>1440.00</ele>
	<time>2025-04-30T07:32:43.000Z</time>
</trkpt>
<trkpt lat="45.8945250" lon="10.2682380">
	<ele>1440.20</ele>
	<time>2025-04-30T07:32:44.000Z</time>
</trkpt>
<trkpt lat="45.8945140" lon="10.2682300">
	<ele>1440.40</ele>
	<time>2025-04-30T07:32:45.000Z</time>
</trkpt>
<trkpt lat="45.8945110" lon="10.2682270">
	<ele>1440.40</ele>
	<time>2025-04-30T07:32:46.000Z</time>
</trkpt>
<trkpt lat="45.8945300" lon="10.2682210">
	<ele>1440.60</ele>
	<time>2025-04-30T07:32:47.000Z</time>
</trkpt>
<trkpt lat="45.8945450" lon="10.2682100">
	<ele>1440.60</ele>
	<time>2025-04-30T07:32:48.000Z</time>
</trkpt>
<trkpt lat="45.8945430" lon="10.2682100">
	<ele>1440.60</ele>
	<time>2025-04-30T07:32:49.000Z</time>
</trkpt>
<trkpt lat="45.8945430" lon="10.2682100">
	<ele>1440.60</ele>
	<time>2025-04-30T07:32:50.000Z</time>
</trkpt>
<trkpt lat="45.8945410" lon="10.2682090">
	<ele>1440.60</ele>
	<time>2025-04-30T07:32:51.000Z</time>
</trkpt>
<trkpt lat="45.8945360" lon="10.2681950">
	<ele>1440.60</ele>
	<time>2025-04-30T07:32:52.000Z</time>
</trkpt>
<trkpt lat="45.8945300" lon="10.2681770">
	<ele>1440.60</ele>
	<time>2025-04-30T07:32:53.000Z</time>
</trkpt>
<trkpt lat="45.8945330" lon="10.2681620">
	<ele>1440.60</ele>
	<time>2025-04-30T07:32:54.000Z</time>
</trkpt>
<trkpt lat="45.8945340" lon="10.2681490">
	<ele>1440.80</ele>
	<time>2025-04-30T07:32:55.000Z</time>
</trkpt>
<trkpt lat="45.8945250" lon="10.2681500">
	<ele>1441.00</ele>
	<time>2025-04-30T07:32:56.000Z</time>
</trkpt>
<trkpt lat="45.8945140" lon="10.2681430">
	<ele>1441.20</ele>
	<time>2025-04-30T07:32:57.000Z</time>
</trkpt>
<trkpt lat="45.8945070" lon="10.2681380">
	<ele>1441.40</ele>
	<time>2025-04-30T07:32:58.000Z</time>
</trkpt>
<trkpt lat="45.8944980" lon="10.2681360">
	<ele>1441.40</ele>
	<time>2025-04-30T07:32:59.000Z</time>
</trkpt>
<trkpt lat="45.8944880" lon="10.2681280">
	<ele>1441.40</ele>
	<time>2025-04-30T07:33:00.000Z</time>
</trkpt>
<trkpt lat="45.8944830" lon="10.2681150">
	<ele>1441.60</ele>
	<time>2025-04-30T07:33:01.000Z</time>
</trkpt>
<trkpt lat="45.8944790" lon="10.2681000">
	<ele>1441.80</ele>
	<time>2025-04-30T07:33:02.000Z</time>
</trkpt>
<trkpt lat="45.8944780" lon="10.2680900">
	<ele>1441.80</ele>
	<time>2025-04-30T07:33:03.000Z</time>
</trkpt>
<trkpt lat="45.8944730" lon="10.2680910">
	<ele>1442.00</ele>
	<time>2025-04-30T07:33:04.000Z</time>
</trkpt>
<trkpt lat="45.8944650" lon="10.2680810">
	<ele>1442.00</ele>
	<time>2025-04-30T07:33:05.000Z</time>
</trkpt>
<trkpt lat="45.8944670" lon="10.2680800">
	<ele>1442.20</ele>
	<time>2025-04-30T07:33:06.000Z</time>
</trkpt>
<trkpt lat="45.8944740" lon="10.2680840">
	<ele>1442.20</ele>
	<time>2025-04-30T07:33:07.000Z</time>
</trkpt>
<trkpt lat="45.8944840" lon="10.2680940">
	<ele>1442.40</ele>
	<time>2025-04-30T07:33:08.000Z</time>
</trkpt>
<trkpt lat="45.8944840" lon="10.2680920">
	<ele>1442.80</ele>
	<time>2025-04-30T07:33:09.000Z</time>
</trkpt>
<trkpt lat="45.8944780" lon="10.2680910">
	<ele>1442.80</ele>
	<time>2025-04-30T07:33:10.000Z</time>
</trkpt>
<trkpt lat="45.8944760" lon="10.2680880">
	<ele>1443.00</ele>
	<time>2025-04-30T07:33:11.000Z</time>
</trkpt>
<trkpt lat="45.8944770" lon="10.2680790">
	<ele>1443.00</ele>
	<time>2025-04-30T07:33:12.000Z</time>
</trkpt>
<trkpt lat="45.8944730" lon="10.2680640">
	<ele>1443.20</ele>
	<time>2025-04-30T07:33:13.000Z</time>
</trkpt>
<trkpt lat="45.8944690" lon="10.2680500">
	<ele>1443.40</ele>
	<time>2025-04-30T07:33:14.000Z</time>
</trkpt>
<trkpt lat="45.8944580" lon="10.2680370">
	<ele>1443.60</ele>
	<time>2025-04-30T07:33:15.000Z</time>
</trkpt>
<trkpt lat="45.8944530" lon="10.2680340">
	<ele>1443.80</ele>
	<time>2025-04-30T07:33:16.000Z</time>
</trkpt>
<trkpt lat="45.8944450" lon="10.2680340">
	<ele>1443.80</ele>
	<time>2025-04-30T07:33:17.000Z</time>
</trkpt>
<trkpt lat="45.8944500" lon="10.2680320">
	<ele>1444.00</ele>
	<time>2025-04-30T07:33:18.000Z</time>
</trkpt>
<trkpt lat="45.8944540" lon="10.2680150">
	<ele>1444.40</ele>
	<time>2025-04-30T07:33:19.000Z</time>
</trkpt>
<trkpt lat="45.8944610" lon="10.2679840">
	<ele>1444.60</ele>
	<time>2025-04-30T07:33:20.000Z</time>
</trkpt>
<trkpt lat="45.8944750" lon="10.2679600">
	<ele>1444.80</ele>
	<time>2025-04-30T07:33:21.000Z</time>
</trkpt>
<trkpt lat="45.8944790" lon="10.2679500">
	<ele>1445.00</ele>
	<time>2025-04-30T07:33:22.000Z</time>
</trkpt>
<trkpt lat="45.8944850" lon="10.2679550">
	<ele>1445.00</ele>
	<time>2025-04-30T07:33:23.000Z</time>
</trkpt>
<trkpt lat="45.8944720" lon="10.2679540">
	<ele>1445.20</ele>
	<time>2025-04-30T07:33:24.000Z</time>
</trkpt>
<trkpt lat="45.8944590" lon="10.2679460">
	<ele>1445.40</ele>
	<time>2025-04-30T07:33:25.000Z</time>
</trkpt>
<trkpt lat="45.8944550" lon="10.2679350">
	<ele>1445.60</ele>
	<time>2025-04-30T07:33:26.000Z</time>
</trkpt>
<trkpt lat="45.8944510" lon="10.2679270">
	<ele>1445.60</ele>
	<time>2025-04-30T07:33:27.000Z</time>
</trkpt>
<trkpt lat="45.8944510" lon="10.2679270">
	<ele>1445.80</ele>
	<time>2025-04-30T07:33:28.000Z</time>
</trkpt>
<trkpt lat="45.8944600" lon="10.2679220">
	<ele>1446.20</ele>
	<time>2025-04-30T07:33:29.000Z</time>
</trkpt>
<trkpt lat="45.8944530" lon="10.2679200">
	<ele>1446.40</ele>
	<time>2025-04-30T07:33:30.000Z</time>
</trkpt>
<trkpt lat="45.8944470" lon="10.2679140">
	<ele>1446.60</ele>
	<time>2025-04-30T07:33:31.000Z</time>
</trkpt>
<trkpt lat="45.8944420" lon="10.2679040">
	<ele>1446.60</ele>
	<time>2025-04-30T07:33:32.000Z</time>
</trkpt>
<trkpt lat="45.8944380" lon="10.2678730">
	<ele>1446.80</ele>
	<time>2025-04-30T07:33:33.000Z</time>
</trkpt>
<trkpt lat="45.8944290" lon="10.2678560">
	<ele>1447.00</ele>
	<time>2025-04-30T07:33:34.000Z</time>
</trkpt>
<trkpt lat="45.8944200" lon="10.2678500">
	<ele>1447.20</ele>
	<time>2025-04-30T07:33:35.000Z</time>
</trkpt>
<trkpt lat="45.8944210" lon="10.2678360">
	<ele>1447.40</ele>
	<time>2025-04-30T07:33:36.000Z</time>
</trkpt>
<trkpt lat="45.8944140" lon="10.2678230">
	<ele>1447.40</ele>
	<time>2025-04-30T07:33:37.000Z</time>
</trkpt>
<trkpt lat="45.8944150" lon="10.2678120">
	<ele>1447.80</ele>
	<time>2025-04-30T07:33:38.000Z</time>
</trkpt>
<trkpt lat="45.8944210" lon="10.2678000">
	<ele>1447.80</ele>
	<time>2025-04-30T07:33:39.000Z</time>
</trkpt>
<trkpt lat="45.8944210" lon="10.2677850">
	<ele>1448.00</ele>
	<time>2025-04-30T07:33:40.000Z</time>
</trkpt>
<trkpt lat="45.8944270" lon="10.2677680">
	<ele>1448.00</ele>
	<time>2025-04-30T07:33:41.000Z</time>
</trkpt>
<trkpt lat="45.8944260" lon="10.2677570">
	<ele>1448.00</ele>
	<time>2025-04-30T07:33:42.000Z</time>
</trkpt>
<trkpt lat="45.8944260" lon="10.2677480">
	<ele>1448.00</ele>
	<time>2025-04-30T07:33:43.000Z</time>
</trkpt>
<trkpt lat="45.8944200" lon="10.2677430">
	<ele>1447.80</ele>
	<time>2025-04-30T07:33:44.000Z</time>
</trkpt>
<trkpt lat="45.8944190" lon="10.2677420">
	<ele>1447.80</ele>
	<time>2025-04-30T07:33:45.000Z</time>
</trkpt>
<trkpt lat="45.8944160" lon="10.2677440">
	<ele>1447.80</ele>
	<time>2025-04-30T07:33:46.000Z</time>
</trkpt>
<trkpt lat="45.8944030" lon="10.2677350">
	<ele>1447.80</ele>
	<time>2025-04-30T07:33:47.000Z</time>
</trkpt>
<trkpt lat="45.8944000" lon="10.2677330">
	<ele>1447.80</ele>
	<time>2025-04-30T07:33:48.000Z</time>
</trkpt>
<trkpt lat="45.8943990" lon="10.2677280">
	<ele>1447.60</ele>
	<time>2025-04-30T07:33:49.000Z</time>
</trkpt>
<trkpt lat="45.8944110" lon="10.2677180">
	<ele>1447.60</ele>
	<time>2025-04-30T07:33:50.000Z</time>
</trkpt>
<trkpt lat="45.8944250" lon="10.2677090">
	<ele>1447.40</ele>
	<time>2025-04-30T07:33:51.000Z</time>
</trkpt>
<trkpt lat="45.8944290" lon="10.2676950">
	<ele>1447.40</ele>
	<time>2025-04-30T07:33:52.000Z</time>
</trkpt>
<trkpt lat="45.8944310" lon="10.2676820">
	<ele>1447.20</ele>
	<time>2025-04-30T07:33:53.000Z</time>
</trkpt>
<trkpt lat="45.8944290" lon="10.2676720">
	<ele>1447.00</ele>
	<time>2025-04-30T07:33:54.000Z</time>
</trkpt>
<trkpt lat="45.8944170" lon="10.2676640">
	<ele>1447.00</ele>
	<time>2025-04-30T07:33:55.000Z</time>
</trkpt>
<trkpt lat="45.8944010" lon="10.2676570">
	<ele>1447.00</ele>
	<time>2025-04-30T07:33:56.000Z</time>
</trkpt>
<trkpt lat="45.8943970" lon="10.2676510">
	<ele>1447.00</ele>
	<time>2025-04-30T07:33:57.000Z</time>
</trkpt>
<trkpt lat="45.8943930" lon="10.2676390">
	<ele>1447.00</ele>
	<time>2025-04-30T07:33:58.000Z</time>
</trkpt>
<trkpt lat="45.8944000" lon="10.2676300">
	<ele>1447.00</ele>
	<time>2025-04-30T07:33:59.000Z</time>
</trkpt>
<trkpt lat="45.8943990" lon="10.2676260">
	<ele>1447.00</ele>
	<time>2025-04-30T07:34:00.000Z</time>
</trkpt>
<trkpt lat="45.8943980" lon="10.2675990">
	<ele>1446.80</ele>
	<time>2025-04-30T07:34:01.000Z</time>
</trkpt>
<trkpt lat="45.8943960" lon="10.2675810">
	<ele>1446.60</ele>
	<time>2025-04-30T07:34:02.000Z</time>
</trkpt>
<trkpt lat="45.8943870" lon="10.2675690">
	<ele>1446.60</ele>
	<time>2025-04-30T07:34:03.000Z</time>
</trkpt>
<trkpt lat="45.8943850" lon="10.2675540">
	<ele>1446.60</ele>
	<time>2025-04-30T07:34:04.000Z</time>
</trkpt>
<trkpt lat="45.8943850" lon="10.2675500">
	<ele>1446.60</ele>
	<time>2025-04-30T07:34:05.000Z</time>
</trkpt>
<trkpt lat="45.8943850" lon="10.2675520">
	<ele>1446.60</ele>
	<time>2025-04-30T07:34:06.000Z</time>
</trkpt>
<trkpt lat="45.8943930" lon="10.2675510">
	<ele>1446.40</ele>
	<time>2025-04-30T07:34:07.000Z</time>
</trkpt>
<trkpt lat="45.8943880" lon="10.2675370">
	<ele>1446.60</ele>
	<time>2025-04-30T07:34:08.000Z</time>
</trkpt>
<trkpt lat="45.8944070" lon="10.2675340">
	<ele>1446.60</ele>
	<time>2025-04-30T07:34:09.000Z</time>
</trkpt>
<trkpt lat="45.8944130" lon="10.2675280">
	<ele>1446.60</ele>
	<time>2025-04-30T07:34:10.000Z</time>
</trkpt>
<trkpt lat="45.8944240" lon="10.2675210">
	<ele>1446.60</ele>
	<time>2025-04-30T07:34:11.000Z</time>
</trkpt>
<trkpt lat="45.8944380" lon="10.2675160">
	<ele>1446.80</ele>
	<time>2025-04-30T07:34:12.000Z</time>
</trkpt>
<trkpt lat="45.8944440" lon="10.2675100">
	<ele>1446.80</ele>
	<time>2025-04-30T07:34:13.000Z</time>
</trkpt>
<trkpt lat="45.8944400" lon="10.2675030">
	<ele>1447.00</ele>
	<time>2025-04-30T07:34:14.000Z</time>
</trkpt>
<trkpt lat="45.8944400" lon="10.2675000">
	<ele>1447.20</ele>
	<time>2025-04-30T07:34:15.000Z</time>
</trkpt>
<trkpt lat="45.8944280" lon="10.2674980">
	<ele>1447.20</ele>
	<time>2025-04-30T07:34:16.000Z</time>
</trkpt>
<trkpt lat="45.8944270" lon="10.2674980">
	<ele>1447.40</ele>
	<time>2025-04-30T07:34:17.000Z</time>
</trkpt>
<trkpt lat="45.8944290" lon="10.2675050">
	<ele>1447.40</ele>
	<time>2025-04-30T07:34:18.000Z</time>
</trkpt>
<trkpt lat="45.8944320" lon="10.2675060">
	<ele>1447.40</ele>
	<time>2025-04-30T07:34:19.000Z</time>
</trkpt>
<trkpt lat="45.8944330" lon="10.2675040">
	<ele>1447.60</ele>
	<time>2025-04-30T07:34:20.000Z</time>
</trkpt>
<trkpt lat="45.8944340" lon="10.2675030">
	<ele>1447.60</ele>
	<time>2025-04-30T07:34:21.000Z</time>
</trkpt>
<trkpt lat="45.8944330" lon="10.2675020">
	<ele>1447.80</ele>
	<time>2025-04-30T07:34:22.000Z</time>
</trkpt>
<trkpt lat="45.8944340" lon="10.2674980">
	<ele>1447.80</ele>
	<time>2025-04-30T07:34:23.000Z</time>
</trkpt>
<trkpt lat="45.8944410" lon="10.2674960">
	<ele>1448.00</ele>
	<time>2025-04-30T07:34:24.000Z</time>
</trkpt>
<trkpt lat="45.8944440" lon="10.2674960">
	<ele>1448.00</ele>
	<time>2025-04-30T07:34:25.000Z</time>
</trkpt>
<trkpt lat="45.8944410" lon="10.2674960">
	<ele>1448.20</ele>
	<time>2025-04-30T07:34:26.000Z</time>
</trkpt>
<trkpt lat="45.8944000" lon="10.2674940">
	<ele>1448.20</ele>
	<time>2025-04-30T07:34:27.000Z</time>
</trkpt>
<trkpt lat="45.8943670" lon="10.2674960">
	<ele>1448.20</ele>
	<time>2025-04-30T07:34:28.000Z</time>
</trkpt>
<trkpt lat="45.8943610" lon="10.2675210">
	<ele>1448.20</ele>
	<time>2025-04-30T07:34:29.000Z</time>
</trkpt>
<trkpt lat="45.8943690" lon="10.2675310">
	<ele>1448.40</ele>
	<time>2025-04-30T07:34:30.000Z</time>
</trkpt>
<trkpt lat="45.8943650" lon="10.2675380">
	<ele>1448.60</ele>
	<time>2025-04-30T07:34:31.000Z</time>
</trkpt>
<trkpt lat="45.8943560" lon="10.2675400">
	<ele>1448.80</ele>
	<time>2025-04-30T07:34:32.000Z</time>
</trkpt>
<trkpt lat="45.8943620" lon="10.2675420">
	<ele>1449.00</ele>
	<time>2025-04-30T07:34:33.000Z</time>
</trkpt>
<trkpt lat="45.8943620" lon="10.2675530">
	<ele>1449.00</ele>
	<time>2025-04-30T07:34:34.000Z</time>
</trkpt>
<trkpt lat="45.8943600" lon="10.2675590">
	<ele>1449.40</ele>
	<time>2025-04-30T07:34:35.000Z</time>
</trkpt>
<trkpt lat="45.8943610" lon="10.2675690">
	<ele>1449.60</ele>
	<time>2025-04-30T07:34:36.000Z</time>
</trkpt>
<trkpt lat="45.8943620" lon="10.2675750">
	<ele>1449.80</ele>
	<time>2025-04-30T07:34:37.000Z</time>
</trkpt>
<trkpt lat="45.8943540" lon="10.2675780">
	<ele>1450.00</ele>
	<time>2025-04-30T07:34:38.000Z</time>
</trkpt>
<trkpt lat="45.8943630" lon="10.2675850">
	<ele>1450.20</ele>
	<time>2025-04-30T07:34:39.000Z</time>
</trkpt>
<trkpt lat="45.8943630" lon="10.2675920">
	<ele>1450.40</ele>
	<time>2025-04-30T07:34:40.000Z</time>
</trkpt>
<trkpt lat="45.8943580" lon="10.2675950">
	<ele>1450.60</ele>
	<time>2025-04-30T07:34:41.000Z</time>
</trkpt>
<trkpt lat="45.8943640" lon="10.2676050">
	<ele>1450.80</ele>
	<time>2025-04-30T07:34:42.000Z</time>
</trkpt>
<trkpt lat="45.8943650" lon="10.2676160">
	<ele>1451.00</ele>
	<time>2025-04-30T07:34:43.000Z</time>
</trkpt>
<trkpt lat="45.8943600" lon="10.2676230">
	<ele>1451.20</ele>
	<time>2025-04-30T07:34:44.000Z</time>
</trkpt>
<trkpt lat="45.8943540" lon="10.2676240">
	<ele>1451.40</ele>
	<time>2025-04-30T07:34:45.000Z</time>
</trkpt>
<trkpt lat="45.8943460" lon="10.2676270">
	<ele>1451.60</ele>
	<time>2025-04-30T07:34:46.000Z</time>
</trkpt>
<trkpt lat="45.8943440" lon="10.2676340">
	<ele>1451.80</ele>
	<time>2025-04-30T07:34:47.000Z</time>
</trkpt>
<trkpt lat="45.8943460" lon="10.2676440">
	<ele>1451.80</ele>
	<time>2025-04-30T07:34:48.000Z</time>
</trkpt>
<trkpt lat="45.8943500" lon="10.2676520">
	<ele>1452.20</ele>
	<time>2025-04-30T07:34:49.000Z</time>
</trkpt>
<trkpt lat="45.8943430" lon="10.2676580">
	<ele>1452.40</ele>
	<time>2025-04-30T07:34:50.000Z</time>
</trkpt>
<trkpt lat="45.8943340" lon="10.2676640">
	<ele>1452.60</ele>
	<time>2025-04-30T07:34:51.000Z</time>
</trkpt>
<trkpt lat="45.8943260" lon="10.2676700">
	<ele>1453.00</ele>
	<time>2025-04-30T07:34:52.000Z</time>
</trkpt>
<trkpt lat="45.8943240" lon="10.2676810">
	<ele>1453.00</ele>
	<time>2025-04-30T07:34:53.000Z</time>
</trkpt>
<trkpt lat="45.8943200" lon="10.2676870">
	<ele>1453.20</ele>
	<time>2025-04-30T07:34:54.000Z</time>
</trkpt>
<trkpt lat="45.8943140" lon="10.2676890">
	<ele>1453.60</ele>
	<time>2025-04-30T07:34:55.000Z</time>
</trkpt>
<trkpt lat="45.8943090" lon="10.2676920">
	<ele>1453.60</ele>
	<time>2025-04-30T07:34:56.000Z</time>
</trkpt>
<trkpt lat="45.8943060" lon="10.2676950">
	<ele>1453.80</ele>
	<time>2025-04-30T07:34:57.000Z</time>
</trkpt>
<trkpt lat="45.8943060" lon="10.2677000">
	<ele>1454.00</ele>
	<time>2025-04-30T07:34:58.000Z</time>
</trkpt>
<trkpt lat="45.8943090" lon="10.2677030">
	<ele>1454.40</ele>
	<time>2025-04-30T07:34:59.000Z</time>
</trkpt>
<trkpt lat="45.8943110" lon="10.2677070">
	<ele>1454.60</ele>
	<time>2025-04-30T07:35:00.000Z</time>
</trkpt>
<trkpt lat="45.8943070" lon="10.2677080">
	<ele>1454.60</ele>
	<time>2025-04-30T07:35:01.000Z</time>
</trkpt>
<trkpt lat="45.8943070" lon="10.2677130">
	<ele>1454.60</ele>
	<time>2025-04-30T07:35:02.000Z</time>
</trkpt>
<trkpt lat="45.8943130" lon="10.2677160">
	<ele>1454.80</ele>
	<time>2025-04-30T07:35:03.000Z</time>
</trkpt>
<trkpt lat="45.8943380" lon="10.2677180">
	<ele>1454.80</ele>
	<time>2025-04-30T07:35:04.000Z</time>
</trkpt>
<trkpt lat="45.8943510" lon="10.2677170">
	<ele>1454.80</ele>
	<time>2025-04-30T07:35:05.000Z</time>
</trkpt>
<trkpt lat="45.8943640" lon="10.2677190">
	<ele>1454.80</ele>
	<time>2025-04-30T07:35:06.000Z</time>
</trkpt>
<trkpt lat="45.8943760" lon="10.2677230">
	<ele>1454.80</ele>
	<time>2025-04-30T07:35:07.000Z</time>
</trkpt>
<trkpt lat="45.8943660" lon="10.2677270">
	<ele>1455.20</ele>
	<time>2025-04-30T07:35:08.000Z</time>
</trkpt>
<trkpt lat="45.8943460" lon="10.2677250">
	<ele>1455.40</ele>
	<time>2025-04-30T07:35:09.000Z</time>
</trkpt>
<trkpt lat="45.8943180" lon="10.2677270">
	<ele>1455.60</ele>
	<time>2025-04-30T07:35:10.000Z</time>
</trkpt>
<trkpt lat="45.8943100" lon="10.2677310">
	<ele>1455.60</ele>
	<time>2025-04-30T07:35:11.000Z</time>
</trkpt>
<trkpt lat="45.8943070" lon="10.2677320">
	<ele>1455.80</ele>
	<time>2025-04-30T07:35:12.000Z</time>
</trkpt>
<trkpt lat="45.8943030" lon="10.2677320">
	<ele>1456.00</ele>
	<time>2025-04-30T07:35:13.000Z</time>
</trkpt>
<trkpt lat="45.8943030" lon="10.2677300">
	<ele>1456.00</ele>
	<time>2025-04-30T07:35:14.000Z</time>
</trkpt>
<trkpt lat="45.8943080" lon="10.2677270">
	<ele>1456.20</ele>
	<time>2025-04-30T07:35:15.000Z</time>
</trkpt>
<trkpt lat="45.8943030" lon="10.2677280">
	<ele>1456.20</ele>
	<time>2025-04-30T07:35:16.000Z</time>
</trkpt>
<trkpt lat="45.8943020" lon="10.2677300">
	<ele>1456.40</ele>
	<time>2025-04-30T07:35:17.000Z</time>
</trkpt>
<trkpt lat="45.8942940" lon="10.2677230">
	<ele>1456.40</ele>
	<time>2025-04-30T07:35:18.000Z</time>
</trkpt>
<trkpt lat="45.8942930" lon="10.2677170">
	<ele>1456.40</ele>
	<time>2025-04-30T07:35:19.000Z</time>
</trkpt>
<trkpt lat="45.8942810" lon="10.2677100">
	<ele>1456.40</ele>
	<time>2025-04-30T07:35:20.000Z</time>
</trkpt>
<trkpt lat="45.8942790" lon="10.2677080">
	<ele>1456.60</ele>
	<time>2025-04-30T07:35:21.000Z</time>
</trkpt>
<trkpt lat="45.8942770" lon="10.2677100">
	<ele>1456.60</ele>
	<time>2025-04-30T07:35:22.000Z</time>
</trkpt>
<trkpt lat="45.8942790" lon="10.2677170">
	<ele>1456.20</ele>
	<time>2025-04-30T07:35:23.000Z</time>
</trkpt>
<trkpt lat="45.8942730" lon="10.2677150">
	<ele>1456.40</ele>
	<time>2025-04-30T07:35:24.000Z</time>
</trkpt>
<trkpt lat="45.8942800" lon="10.2677160">
	<ele>1456.40</ele>
	<time>2025-04-30T07:35:25.000Z</time>
</trkpt>
<trkpt lat="45.8942700" lon="10.2677140">
	<ele>1456.60</ele>
	<time>2025-04-30T07:35:26.000Z</time>
</trkpt>
<trkpt lat="45.8942510" lon="10.2677080">
	<ele>1456.60</ele>
	<time>2025-04-30T07:35:27.000Z</time>
</trkpt>
<trkpt lat="45.8942300" lon="10.2677090">
	<ele>1456.60</ele>
	<time>2025-04-30T07:35:28.000Z</time>
</trkpt>
<trkpt lat="45.8942140" lon="10.2677170">
	<ele>1456.60</ele>
	<time>2025-04-30T07:35:29.000Z</time>
</trkpt>
<trkpt lat="45.8942050" lon="10.2677270">
	<ele>1456.80</ele>
	<time>2025-04-30T07:35:30.000Z</time>
</trkpt>
<trkpt lat="45.8941880" lon="10.2677320">
	<ele>1457.00</ele>
	<time>2025-04-30T07:35:31.000Z</time>
</trkpt>
<trkpt lat="45.8941810" lon="10.2677370">
	<ele>1457.20</ele>
	<time>2025-04-30T07:35:32.000Z</time>
</trkpt>
<trkpt lat="45.8941830" lon="10.2677460">
	<ele>1457.40</ele>
	<time>2025-04-30T07:35:33.000Z</time>
</trkpt>
<trkpt lat="45.8941750" lon="10.2677480">
	<ele>1457.60</ele>
	<time>2025-04-30T07:35:34.000Z</time>
</trkpt>
<trkpt lat="45.8941680" lon="10.2677510">
	<ele>1457.80</ele>
	<time>2025-04-30T07:35:35.000Z</time>
</trkpt>
<trkpt lat="45.8941590" lon="10.2677570">
	<ele>1458.00</ele>
	<time>2025-04-30T07:35:36.000Z</time>
</trkpt>
<trkpt lat="45.8941510" lon="10.2677570">
	<ele>1458.00</ele>
	<time>2025-04-30T07:35:37.000Z</time>
</trkpt>
<trkpt lat="45.8941360" lon="10.2677580">
	<ele>1458.20</ele>
	<time>2025-04-30T07:35:38.000Z</time>
</trkpt>
<trkpt lat="45.8941300" lon="10.2677650">
	<ele>1458.20</ele>
	<time>2025-04-30T07:35:39.000Z</time>
</trkpt>
<trkpt lat="45.8941220" lon="10.2677710">
	<ele>1458.20</ele>
	<time>2025-04-30T07:35:40.000Z</time>
</trkpt>
<trkpt lat="45.8941190" lon="10.2677770">
	<ele>1458.40</ele>
	<time>2025-04-30T07:35:41.000Z</time>
</trkpt>
<trkpt lat="45.8941160" lon="10.2677830">
	<ele>1458.60</ele>
	<time>2025-04-30T07:35:42.000Z</time>
</trkpt>
<trkpt lat="45.8941120" lon="10.2677870">
	<ele>1458.60</ele>
	<time>2025-04-30T07:35:43.000Z</time>
</trkpt>
<trkpt lat="45.8941120" lon="10.2677950">
	<ele>1458.80</ele>
	<time>2025-04-30T07:35:44.000Z</time>
</trkpt>
<trkpt lat="45.8941150" lon="10.2678030">
	<ele>1459.00</ele>
	<time>2025-04-30T07:35:45.000Z</time>
</trkpt>
<trkpt lat="45.8941120" lon="10.2678060">
	<ele>1459.40</ele>
	<time>2025-04-30T07:35:46.000Z</time>
</trkpt>
<trkpt lat="45.8941100" lon="10.2678110">
	<ele>1459.80</ele>
	<time>2025-04-30T07:35:47.000Z</time>
</trkpt>
<trkpt lat="45.8941130" lon="10.2678260">
	<ele>1460.00</ele>
	<time>2025-04-30T07:35:48.000Z</time>
</trkpt>
<trkpt lat="45.8941200" lon="10.2678320">
	<ele>1460.20</ele>
	<time>2025-04-30T07:35:49.000Z</time>
</trkpt>
<trkpt lat="45.8941250" lon="10.2678360">
	<ele>1460.40</ele>
	<time>2025-04-30T07:35:50.000Z</time>
</trkpt>
<trkpt lat="45.8941270" lon="10.2678390">
	<ele>1460.40</ele>
	<time>2025-04-30T07:35:51.000Z</time>
</trkpt>
<trkpt lat="45.8941330" lon="10.2678440">
	<ele>1460.40</ele>
	<time>2025-04-30T07:35:52.000Z</time>
</trkpt>
<trkpt lat="45.8941360" lon="10.2678450">
	<ele>1460.40</ele>
	<time>2025-04-30T07:35:53.000Z</time>
</trkpt>
<trkpt lat="45.8941330" lon="10.2678500">
	<ele>1460.40</ele>
	<time>2025-04-30T07:35:54.000Z</time>
</trkpt>
<trkpt lat="45.8941310" lon="10.2678550">
	<ele>1460.40</ele>
	<time>2025-04-30T07:35:55.000Z</time>
</trkpt>
<trkpt lat="45.8941350" lon="10.2678630">
	<ele>1460.40</ele>
	<time>2025-04-30T07:35:56.000Z</time>
</trkpt>
<trkpt lat="45.8941330" lon="10.2678610">
	<ele>1460.40</ele>
	<time>2025-04-30T07:35:57.000Z</time>
</trkpt>
<trkpt lat="45.8941400" lon="10.2678510">
	<ele>1460.20</ele>
	<time>2025-04-30T07:35:58.000Z</time>
</trkpt>
<trkpt lat="45.8941520" lon="10.2678450">
	<ele>1460.20</ele>
	<time>2025-04-30T07:35:59.000Z</time>
</trkpt>
<trkpt lat="45.8941520" lon="10.2678450">
	<ele>1460.20</ele>
	<time>2025-04-30T07:36:00.000Z</time>
</trkpt>
<trkpt lat="45.8941500" lon="10.2678480">
	<ele>1460.00</ele>
	<time>2025-04-30T07:36:01.000Z</time>
</trkpt>
<trkpt lat="45.8941410" lon="10.2678450">
	<ele>1459.80</ele>
	<time>2025-04-30T07:36:02.000Z</time>
</trkpt>
<trkpt lat="45.8941340" lon="10.2678430">
	<ele>1459.60</ele>
	<time>2025-04-30T07:36:03.000Z</time>
</trkpt>
<trkpt lat="45.8941290" lon="10.2678460">
	<ele>1459.60</ele>
	<time>2025-04-30T07:36:04.000Z</time>
</trkpt>
<trkpt lat="45.8941210" lon="10.2678450">
	<ele>1459.40</ele>
	<time>2025-04-30T07:36:05.000Z</time>
</trkpt>
<trkpt lat="45.8941170" lon="10.2678420">
	<ele>1459.40</ele>
	<time>2025-04-30T07:36:06.000Z</time>
</trkpt>
<trkpt lat="45.8941160" lon="10.2678400">
	<ele>1459.40</ele>
	<time>2025-04-30T07:36:07.000Z</time>
</trkpt>
<trkpt lat="45.8941200" lon="10.2678350">
	<ele>1459.40</ele>
	<time>2025-04-30T07:36:08.000Z</time>
</trkpt>
<trkpt lat="45.8941190" lon="10.2678340">
	<ele>1459.40</ele>
	<time>2025-04-30T07:36:09.000Z</time>
</trkpt>
<trkpt lat="45.8941190" lon="10.2678310">
	<ele>1459.40</ele>
	<time>2025-04-30T07:36:10.000Z</time>
</trkpt>
<trkpt lat="45.8941110" lon="10.2678280">
	<ele>1459.40</ele>
	<time>2025-04-30T07:36:11.000Z</time>
</trkpt>
<trkpt lat="45.8941100" lon="10.2678280">
	<ele>1459.40</ele>
	<time>2025-04-30T07:36:12.000Z</time>
</trkpt>
<trkpt lat="45.8941100" lon="10.2678280">
	<ele>1459.40</ele>
	<time>2025-04-30T07:36:13.000Z</time>
</trkpt>
<trkpt lat="45.8941100" lon="10.2678280">
	<ele>1459.60</ele>
	<time>2025-04-30T07:36:14.000Z</time>
</trkpt>
<trkpt lat="45.8941100" lon="10.2678280">
	<ele>1459.60</ele>
	<time>2025-04-30T07:36:15.000Z</time>
</trkpt>
<trkpt lat="45.8941100" lon="10.2678280">
	<ele>1459.60</ele>
	<time>2025-04-30T07:36:16.000Z</time>
</trkpt>
<trkpt lat="45.8941100" lon="10.2678280">
	<ele>1459.60</ele>
	<time>2025-04-30T07:36:17.000Z</time>
</trkpt>
<trkpt lat="45.8941100" lon="10.2678280">
	<ele>1459.80</ele>
	<time>2025-04-30T07:36:18.000Z</time>
</trkpt>
<trkpt lat="45.8941100" lon="10.2678280">
	<ele>1459.80</ele>
	<time>2025-04-30T07:36:19.000Z</time>
</trkpt>
<trkpt lat="45.8941100" lon="10.2678280">
	<ele>1459.80</ele>
	<time>2025-04-30T07:36:20.000Z</time>
</trkpt>
<trkpt lat="45.8941100" lon="10.2678280">
	<ele>1459.80</ele>
	<time>2025-04-30T07:36:21.000Z</time>
</trkpt>
<trkpt lat="45.8941100" lon="10.2678280">
	<ele>1459.80</ele>
	<time>2025-04-30T07:36:22.000Z</time>
</trkpt>
<trkpt lat="45.8941100" lon="10.2678280">
	<ele>1459.80</ele>
	<time>2025-04-30T07:36:23.000Z</time>
</trkpt>
<trkpt lat="45.8941110" lon="10.2678280">
	<ele>1459.80</ele>
	<time>2025-04-30T07:36:24.000Z</time>
</trkpt>
<trkpt lat="45.8941090" lon="10.2678230">
	<ele>1460.00</ele>
	<time>2025-04-30T07:36:25.000Z</time>
</trkpt>
<trkpt lat="45.8941040" lon="10.2678080">
	<ele>1460.00</ele>
	<time>2025-04-30T07:36:26.000Z</time>
</trkpt>
<trkpt lat="45.8941040" lon="10.2678050">
	<ele>1460.00</ele>
	<time>2025-04-30T07:36:27.000Z</time>
</trkpt>
<trkpt lat="45.8941050" lon="10.2678000">
	<ele>1460.00</ele>
	<time>2025-04-30T07:36:28.000Z</time>
</trkpt>
<trkpt lat="45.8941030" lon="10.2677920">
	<ele>1460.00</ele>
	<time>2025-04-30T07:36:29.000Z</time>
</trkpt>
<trkpt lat="45.8941000" lon="10.2677840">
	<ele>1460.00</ele>
	<time>2025-04-30T07:36:30.000Z</time>
</trkpt>
<trkpt lat="45.8941010" lon="10.2677790">
	<ele>1460.00</ele>
	<time>2025-04-30T07:36:31.000Z</time>
</trkpt>
<trkpt lat="45.8941020" lon="10.2677730">
	<ele>1460.00</ele>
	<time>2025-04-30T07:36:32.000Z</time>
</trkpt>
<trkpt lat="45.8940990" lon="10.2677650">
	<ele>1460.00</ele>
	<time>2025-04-30T07:36:33.000Z</time>
</trkpt>
<trkpt lat="45.8940950" lon="10.2677580">
	<ele>1460.00</ele>
	<time>2025-04-30T07:36:34.000Z</time>
</trkpt>
<trkpt lat="45.8940920" lon="10.2677550">
	<ele>1460.00</ele>
	<time>2025-04-30T07:36:35.000Z</time>
</trkpt>
<trkpt lat="45.8940900" lon="10.2677520">
	<ele>1460.00</ele>
	<time>2025-04-30T07:36:36.000Z</time>
</trkpt>
<trkpt lat="45.8940900" lon="10.2677480">
	<ele>1460.00</ele>
	<time>2025-04-30T07:36:37.000Z</time>
</trkpt>
<trkpt lat="45.8940910" lon="10.2677460">
	<ele>1460.20</ele>
	<time>2025-04-30T07:36:38.000Z</time>
</trkpt>
<trkpt lat="45.8940930" lon="10.2677470">
	<ele>1460.20</ele>
	<time>2025-04-30T07:36:39.000Z</time>
</trkpt>
<trkpt lat="45.8940920" lon="10.2677460">
	<ele>1460.20</ele>
	<time>2025-04-30T07:36:40.000Z</time>
</trkpt>
<trkpt lat="45.8940920" lon="10.2677460">
	<ele>1460.20</ele>
	<time>2025-04-30T07:36:41.000Z</time>
</trkpt>
<trkpt lat="45.8940920" lon="10.2677460">
	<ele>1460.20</ele>
	<time>2025-04-30T07:36:42.000Z</time>
</trkpt>
<trkpt lat="45.8940920" lon="10.2677460">
	<ele>1460.20</ele>
	<time>2025-04-30T07:36:43.000Z</time>
</trkpt>
<trkpt lat="45.8940920" lon="10.2677460">
	<ele>1460.20</ele>
	<time>2025-04-30T07:36:44.000Z</time>
</trkpt>
<trkpt lat="45.8940920" lon="10.2677460">
	<ele>1460.20</ele>
	<time>2025-04-30T07:36:45.000Z</time>
</trkpt>
<trkpt lat="45.8940920" lon="10.2677460">
	<ele>1460.20</ele>
	<time>2025-04-30T07:36:46.000Z</time>
</trkpt>
<trkpt lat="45.8940920" lon="10.2677460">
	<ele>1460.00</ele>
	<time>2025-04-30T07:36:47.000Z</time>
</trkpt>
<trkpt lat="45.8940920" lon="10.2677460">
	<ele>1460.00</ele>
	<time>2025-04-30T07:36:48.000Z</time>
</trkpt>
<trkpt lat="45.8940920" lon="10.2677460">
	<ele>1460.00</ele>
	<time>2025-04-30T07:36:49.000Z</time>
</trkpt>
<trkpt lat="45.8940920" lon="10.2677460">
	<ele>1459.80</ele>
	<time>2025-04-30T07:36:50.000Z</time>
</trkpt>
<trkpt lat="45.8940920" lon="10.2677460">
	<ele>1459.80</ele>
	<time>2025-04-30T07:36:51.000Z</time>
</trkpt>
<trkpt lat="45.8940930" lon="10.2677460">
	<ele>1459.80</ele>
	<time>2025-04-30T07:36:52.000Z</time>
</trkpt>
<trkpt lat="45.8940950" lon="10.2677460">
	<ele>1459.80</ele>
	<time>2025-04-30T07:36:53.000Z</time>
</trkpt>
<trkpt lat="45.8940970" lon="10.2677420">
	<ele>1459.80</ele>
	<time>2025-04-30T07:36:54.000Z</time>
</trkpt>
<trkpt lat="45.8940870" lon="10.2677350">
	<ele>1459.80</ele>
	<time>2025-04-30T07:36:55.000Z</time>
</trkpt>
<trkpt lat="45.8940860" lon="10.2677310">
	<ele>1459.80</ele>
	<time>2025-04-30T07:36:56.000Z</time>
</trkpt>
<trkpt lat="45.8940860" lon="10.2677310">
	<ele>1459.80</ele>
	<time>2025-04-30T07:36:57.000Z</time>
</trkpt>
<trkpt lat="45.8940860" lon="10.2677310">
	<ele>1459.60</ele>
	<time>2025-04-30T07:36:58.000Z</time>
</trkpt>
<trkpt lat="45.8940850" lon="10.2677310">
	<ele>1459.40</ele>
	<time>2025-04-30T07:36:59.000Z</time>
</trkpt>
<trkpt lat="45.8940750" lon="10.2677440">
	<ele>1459.40</ele>
	<time>2025-04-30T07:37:00.000Z</time>
</trkpt>
<trkpt lat="45.8940640" lon="10.2677570">
	<ele>1459.20</ele>
	<time>2025-04-30T07:37:01.000Z</time>
</trkpt>
<trkpt lat="45.8940570" lon="10.2677670">
	<ele>1459.20</ele>
	<time>2025-04-30T07:37:02.000Z</time>
</trkpt>
<trkpt lat="45.8940590" lon="10.2677740">
	<ele>1459.20</ele>
	<time>2025-04-30T07:37:03.000Z</time>
</trkpt>
<trkpt lat="45.8940580" lon="10.2677740">
	<ele>1459.00</ele>
	<time>2025-04-30T07:37:04.000Z</time>
</trkpt>
<trkpt lat="45.8940500" lon="10.2677780">
	<ele>1458.80</ele>
	<time>2025-04-30T07:37:05.000Z</time>
</trkpt>
<trkpt lat="45.8940430" lon="10.2677850">
	<ele>1458.80</ele>
	<time>2025-04-30T07:37:06.000Z</time>
</trkpt>
<trkpt lat="45.8940370" lon="10.2677900">
	<ele>1458.60</ele>
	<time>2025-04-30T07:37:07.000Z</time>
</trkpt>
<trkpt lat="45.8940310" lon="10.2677970">
	<ele>1458.40</ele>
	<time>2025-04-30T07:37:08.000Z</time>
</trkpt>
<trkpt lat="45.8940260" lon="10.2678050">
	<ele>1458.20</ele>
	<time>2025-04-30T07:37:09.000Z</time>
</trkpt>
<trkpt lat="45.8940200" lon="10.2678200">
	<ele>1458.00</ele>
	<time>2025-04-30T07:37:10.000Z</time>
</trkpt>
<trkpt lat="45.8940130" lon="10.2678310">
	<ele>1458.00</ele>
	<time>2025-04-30T07:37:11.000Z</time>
</trkpt>
<trkpt lat="45.8940090" lon="10.2678460">
	<ele>1458.00</ele>
	<time>2025-04-30T07:37:12.000Z</time>
</trkpt>
<trkpt lat="45.8940160" lon="10.2678610">
	<ele>1458.00</ele>
	<time>2025-04-30T07:37:13.000Z</time>
</trkpt>
<trkpt lat="45.8940200" lon="10.2678570">
	<ele>1458.00</ele>
	<time>2025-04-30T07:37:14.000Z</time>
</trkpt>
<trkpt lat="45.8940220" lon="10.2678540">
	<ele>1458.00</ele>
	<time>2025-04-30T07:37:15.000Z</time>
</trkpt>
<trkpt lat="45.8940330" lon="10.2678550">
	<ele>1458.20</ele>
	<time>2025-04-30T07:37:16.000Z</time>
</trkpt>
<trkpt lat="45.8940310" lon="10.2678510">
	<ele>1458.20</ele>
	<time>2025-04-30T07:37:17.000Z</time>
</trkpt>
<trkpt lat="45.8940310" lon="10.2678520">
	<ele>1458.20</ele>
	<time>2025-04-30T07:37:18.000Z</time>
</trkpt>
<trkpt lat="45.8940320" lon="10.2678550">
	<ele>1458.20</ele>
	<time>2025-04-30T07:37:19.000Z</time>
</trkpt>
<trkpt lat="45.8940430" lon="10.2678520">
	<ele>1458.20</ele>
	<time>2025-04-30T07:37:20.000Z</time>
</trkpt>
<trkpt lat="45.8940440" lon="10.2678530">
	<ele>1458.20</ele>
	<time>2025-04-30T07:37:21.000Z</time>
</trkpt>
<trkpt lat="45.8940510" lon="10.2678540">
	<ele>1458.20</ele>
	<time>2025-04-30T07:37:22.000Z</time>
</trkpt>
<trkpt lat="45.8940500" lon="10.2678550">
	<ele>1458.20</ele>
	<time>2025-04-30T07:37:23.000Z</time>
</trkpt>
<trkpt lat="45.8940520" lon="10.2678630">
	<ele>1458.20</ele>
	<time>2025-04-30T07:37:24.000Z</time>
</trkpt>
<trkpt lat="45.8940550" lon="10.2678780">
	<ele>1458.20</ele>
	<time>2025-04-30T07:37:25.000Z</time>
</trkpt>
<trkpt lat="45.8940530" lon="10.2678880">
	<ele>1458.00</ele>
	<time>2025-04-30T07:37:26.000Z</time>
</trkpt>
<trkpt lat="45.8940440" lon="10.2678970">
	<ele>1457.80</ele>
	<time>2025-04-30T07:37:27.000Z</time>
</trkpt>
<trkpt lat="45.8940440" lon="10.2679180">
	<ele>1457.80</ele>
	<time>2025-04-30T07:37:28.000Z</time>
</trkpt>
<trkpt lat="45.8940550" lon="10.2679320">
	<ele>1457.60</ele>
	<time>2025-04-30T07:37:29.000Z</time>
</trkpt>
<trkpt lat="45.8940690" lon="10.2679450">
	<ele>1457.60</ele>
	<time>2025-04-30T07:37:30.000Z</time>
</trkpt>
<trkpt lat="45.8940840" lon="10.2679510">
	<ele>1457.40</ele>
	<time>2025-04-30T07:37:31.000Z</time>
</trkpt>
<trkpt lat="45.8940900" lon="10.2679580">
	<ele>1457.20</ele>
	<time>2025-04-30T07:37:32.000Z</time>
</trkpt>
<trkpt lat="45.8940900" lon="10.2679670">
	<ele>1457.00</ele>
	<time>2025-04-30T07:37:33.000Z</time>
</trkpt>
<trkpt lat="45.8940900" lon="10.2679730">
	<ele>1457.00</ele>
	<time>2025-04-30T07:37:34.000Z</time>
</trkpt>
<trkpt lat="45.8940930" lon="10.2679840">
	<ele>1456.80</ele>
	<time>2025-04-30T07:37:35.000Z</time>
</trkpt>
<trkpt lat="45.8940960" lon="10.2679890">
	<ele>1456.60</ele>
	<time>2025-04-30T07:37:36.000Z</time>
</trkpt>
<trkpt lat="45.8940900" lon="10.2679950">
	<ele>1456.40</ele>
	<time>2025-04-30T07:37:37.000Z</time>
</trkpt>
<trkpt lat="45.8940860" lon="10.2679990">
	<ele>1456.40</ele>
	<time>2025-04-30T07:37:38.000Z</time>
</trkpt>
<trkpt lat="45.8940830" lon="10.2680030">
	<ele>1456.20</ele>
	<time>2025-04-30T07:37:39.000Z</time>
</trkpt>
<trkpt lat="45.8940700" lon="10.2680070">
	<ele>1456.00</ele>
	<time>2025-04-30T07:37:40.000Z</time>
</trkpt>
<trkpt lat="45.8940690" lon="10.2680130">
	<ele>1455.80</ele>
	<time>2025-04-30T07:37:41.000Z</time>
</trkpt>
<trkpt lat="45.8940630" lon="10.2680220">
	<ele>1455.60</ele>
	<time>2025-04-30T07:37:42.000Z</time>
</trkpt>
<trkpt lat="45.8940520" lon="10.2680210">
	<ele>1455.40</ele>
	<time>2025-04-30T07:37:43.000Z</time>
</trkpt>
<trkpt lat="45.8940410" lon="10.2680170">
	<ele>1455.20</ele>
	<time>2025-04-30T07:37:44.000Z</time>
</trkpt>
<trkpt lat="45.8940380" lon="10.2680180">
	<ele>1455.00</ele>
	<time>2025-04-30T07:37:45.000Z</time>
</trkpt>
<trkpt lat="45.8940310" lon="10.2680230">
	<ele>1455.00</ele>
	<time>2025-04-30T07:37:46.000Z</time>
</trkpt>
<trkpt lat="45.8940280" lon="10.2680270">
	<ele>1454.80</ele>
	<time>2025-04-30T07:37:47.000Z</time>
</trkpt>
<trkpt lat="45.8940310" lon="10.2680360">
	<ele>1454.80</ele>
	<time>2025-04-30T07:37:48.000Z</time>
</trkpt>
<trkpt lat="45.8940300" lon="10.2680450">
	<ele>1454.60</ele>
	<time>2025-04-30T07:37:49.000Z</time>
</trkpt>
<trkpt lat="45.8940160" lon="10.2680450">
	<ele>1454.60</ele>
	<time>2025-04-30T07:37:50.000Z</time>
</trkpt>
<trkpt lat="45.8939960" lon="10.2680560">
	<ele>1454.40</ele>
	<time>2025-04-30T07:37:51.000Z</time>
</trkpt>
<trkpt lat="45.8939810" lon="10.2680610">
	<ele>1454.40</ele>
	<time>2025-04-30T07:37:52.000Z</time>
</trkpt>
<trkpt lat="45.8939650" lon="10.2680770">
	<ele>1454.20</ele>
	<time>2025-04-30T07:37:53.000Z</time>
</trkpt>
<trkpt lat="45.8939620" lon="10.2680860">
	<ele>1454.20</ele>
	<time>2025-04-30T07:37:54.000Z</time>
</trkpt>
<trkpt lat="45.8939590" lon="10.2680800">
	<ele>1454.00</ele>
	<time>2025-04-30T07:37:55.000Z</time>
</trkpt>
<trkpt lat="45.8939540" lon="10.2680780">
	<ele>1454.00</ele>
	<time>2025-04-30T07:37:56.000Z</time>
</trkpt>
<trkpt lat="45.8939570" lon="10.2680840">
	<ele>1453.80</ele>
	<time>2025-04-30T07:37:57.000Z</time>
</trkpt>
<trkpt lat="45.8939540" lon="10.2680870">
	<ele>1453.80</ele>
	<time>2025-04-30T07:37:58.000Z</time>
</trkpt>
<trkpt lat="45.8939510" lon="10.2680960">
	<ele>1453.60</ele>
	<time>2025-04-30T07:37:59.000Z</time>
</trkpt>
<trkpt lat="45.8939330" lon="10.2680980">
	<ele>1453.60</ele>
	<time>2025-04-30T07:38:00.000Z</time>
</trkpt>
<trkpt lat="45.8939210" lon="10.2681030">
	<ele>1453.60</ele>
	<time>2025-04-30T07:38:01.000Z</time>
</trkpt>
<trkpt lat="45.8939140" lon="10.2681110">
	<ele>1453.60</ele>
	<time>2025-04-30T07:38:02.000Z</time>
</trkpt>
<trkpt lat="45.8939120" lon="10.2681150">
	<ele>1453.40</ele>
	<time>2025-04-30T07:38:03.000Z</time>
</trkpt>
<trkpt lat="45.8939030" lon="10.2681270">
	<ele>1453.20</ele>
	<time>2025-04-30T07:38:04.000Z</time>
</trkpt>
<trkpt lat="45.8938930" lon="10.2681300">
	<ele>1453.20</ele>
	<time>2025-04-30T07:38:05.000Z</time>
</trkpt>
<trkpt lat="45.8938840" lon="10.2681370">
	<ele>1453.00</ele>
	<time>2025-04-30T07:38:06.000Z</time>
</trkpt>
<trkpt lat="45.8938750" lon="10.2681440">
	<ele>1453.00</ele>
	<time>2025-04-30T07:38:07.000Z</time>
</trkpt>
<trkpt lat="45.8938610" lon="10.2681470">
	<ele>1453.00</ele>
	<time>2025-04-30T07:38:08.000Z</time>
</trkpt>
<trkpt lat="45.8938490" lon="10.2681510">
	<ele>1453.00</ele>
	<time>2025-04-30T07:38:09.000Z</time>
</trkpt>
<trkpt lat="45.8938340" lon="10.2681560">
	<ele>1453.00</ele>
	<time>2025-04-30T07:38:10.000Z</time>
</trkpt>
<trkpt lat="45.8938170" lon="10.2681480">
	<ele>1453.00</ele>
	<time>2025-04-30T07:38:11.000Z</time>
</trkpt>
<trkpt lat="45.8938100" lon="10.2681400">
	<ele>1453.00</ele>
	<time>2025-04-30T07:38:12.000Z</time>
</trkpt>
<trkpt lat="45.8938000" lon="10.2681340">
	<ele>1453.00</ele>
	<time>2025-04-30T07:38:13.000Z</time>
</trkpt>
<trkpt lat="45.8937860" lon="10.2681270">
	<ele>1453.00</ele>
	<time>2025-04-30T07:38:14.000Z</time>
</trkpt>
<trkpt lat="45.8937750" lon="10.2681300">
	<ele>1453.00</ele>
	<time>2025-04-30T07:38:15.000Z</time>
</trkpt>
<trkpt lat="45.8937690" lon="10.2681370">
	<ele>1453.00</ele>
	<time>2025-04-30T07:38:16.000Z</time>
</trkpt>
<trkpt lat="45.8937570" lon="10.2681470">
	<ele>1452.80</ele>
	<time>2025-04-30T07:38:17.000Z</time>
</trkpt>
<trkpt lat="45.8937520" lon="10.2681570">
	<ele>1452.40</ele>
	<time>2025-04-30T07:38:18.000Z</time>
</trkpt>
<trkpt lat="45.8937440" lon="10.2681620">
	<ele>1452.40</ele>
	<time>2025-04-30T07:38:19.000Z</time>
</trkpt>
<trkpt lat="45.8937380" lon="10.2681550">
	<ele>1452.40</ele>
	<time>2025-04-30T07:38:20.000Z</time>
</trkpt>
<trkpt lat="45.8937370" lon="10.2681520">
	<ele>1452.20</ele>
	<time>2025-04-30T07:38:21.000Z</time>
</trkpt>
<trkpt lat="45.8937260" lon="10.2681470">
	<ele>1452.40</ele>
	<time>2025-04-30T07:38:22.000Z</time>
</trkpt>
<trkpt lat="45.8937240" lon="10.2681460">
	<ele>1452.60</ele>
	<time>2025-04-30T07:38:23.000Z</time>
</trkpt>
<trkpt lat="45.8937270" lon="10.2681470">
	<ele>1452.60</ele>
	<time>2025-04-30T07:38:24.000Z</time>
</trkpt>
<trkpt lat="45.8937270" lon="10.2681520">
	<ele>1452.60</ele>
	<time>2025-04-30T07:38:25.000Z</time>
</trkpt>
<trkpt lat="45.8937250" lon="10.2681720">
	<ele>1452.60</ele>
	<time>2025-04-30T07:38:26.000Z</time>
</trkpt>
<trkpt lat="45.8937280" lon="10.2681870">
	<ele>1452.40</ele>
	<time>2025-04-30T07:38:27.000Z</time>
</trkpt>
<trkpt lat="45.8937280" lon="10.2682000">
	<ele>1452.40</ele>
	<time>2025-04-30T07:38:28.000Z</time>
</trkpt>
<trkpt lat="45.8937150" lon="10.2681970">
	<ele>1452.20</ele>
	<time>2025-04-30T07:38:29.000Z</time>
</trkpt>
<trkpt lat="45.8936990" lon="10.2681940">
	<ele>1452.20</ele>
	<time>2025-04-30T07:38:30.000Z</time>
</trkpt>
<trkpt lat="45.8936810" lon="10.2681920">
	<ele>1452.20</ele>
	<time>2025-04-30T07:38:31.000Z</time>
</trkpt>
<trkpt lat="45.8936680" lon="10.2681950">
	<ele>1452.00</ele>
	<time>2025-04-30T07:38:32.000Z</time>
</trkpt>
<trkpt lat="45.8936620" lon="10.2682020">
	<ele>1451.80</ele>
	<time>2025-04-30T07:38:33.000Z</time>
</trkpt>
<trkpt lat="45.8936470" lon="10.2682080">
	<ele>1451.80</ele>
	<time>2025-04-30T07:38:34.000Z</time>
</trkpt>
<trkpt lat="45.8936350" lon="10.2682260">
	<ele>1451.60</ele>
	<time>2025-04-30T07:38:35.000Z</time>
</trkpt>
<trkpt lat="45.8936340" lon="10.2682410">
	<ele>1451.60</ele>
	<time>2025-04-30T07:38:36.000Z</time>
</trkpt>
<trkpt lat="45.8936280" lon="10.2682460">
	<ele>1451.60</ele>
	<time>2025-04-30T07:38:37.000Z</time>
</trkpt>
<trkpt lat="45.8936190" lon="10.2682480">
	<ele>1451.40</ele>
	<time>2025-04-30T07:38:38.000Z</time>
</trkpt>
<trkpt lat="45.8936120" lon="10.2682550">
	<ele>1451.40</ele>
	<time>2025-04-30T07:38:39.000Z</time>
</trkpt>
<trkpt lat="45.8936010" lon="10.2682630">
	<ele>1451.40</ele>
	<time>2025-04-30T07:38:40.000Z</time>
</trkpt>
<trkpt lat="45.8935850" lon="10.2682730">
	<ele>1451.20</ele>
	<time>2025-04-30T07:38:41.000Z</time>
</trkpt>
<trkpt lat="45.8935750" lon="10.2682770">
	<ele>1451.00</ele>
	<time>2025-04-30T07:38:42.000Z</time>
</trkpt>
<trkpt lat="45.8935510" lon="10.2682870">
	<ele>1451.00</ele>
	<time>2025-04-30T07:38:43.000Z</time>
</trkpt>
<trkpt lat="45.8935330" lon="10.2682930">
	<ele>1451.00</ele>
	<time>2025-04-30T07:38:44.000Z</time>
</trkpt>
<trkpt lat="45.8935160" lon="10.2683020">
	<ele>1451.00</ele>
	<time>2025-04-30T07:38:45.000Z</time>
</trkpt>
<trkpt lat="45.8935130" lon="10.2683070">
	<ele>1450.80</ele>
	<time>2025-04-30T07:38:46.000Z</time>
</trkpt>
<trkpt lat="45.8935090" lon="10.2683300">
	<ele>1450.60</ele>
	<time>2025-04-30T07:38:47.000Z</time>
</trkpt>
<trkpt lat="45.8935170" lon="10.2683460">
	<ele>1450.60</ele>
	<time>2025-04-30T07:38:48.000Z</time>
</trkpt>
<trkpt lat="45.8935190" lon="10.2683420">
	<ele>1450.40</ele>
	<time>2025-04-30T07:38:49.000Z</time>
</trkpt>
<trkpt lat="45.8935140" lon="10.2683510">
	<ele>1450.40</ele>
	<time>2025-04-30T07:38:50.000Z</time>
</trkpt>
<trkpt lat="45.8935050" lon="10.2683610">
	<ele>1450.40</ele>
	<time>2025-04-30T07:38:51.000Z</time>
</trkpt>
<trkpt lat="45.8934930" lon="10.2683690">
	<ele>1450.20</ele>
	<time>2025-04-30T07:38:52.000Z</time>
</trkpt>
<trkpt lat="45.8934810" lon="10.2683770">
	<ele>1450.20</ele>
	<time>2025-04-30T07:38:53.000Z</time>
</trkpt>
<trkpt lat="45.8934750" lon="10.2683820">
	<ele>1450.20</ele>
	<time>2025-04-30T07:38:54.000Z</time>
</trkpt>
<trkpt lat="45.8934540" lon="10.2683830">
	<ele>1450.00</ele>
	<time>2025-04-30T07:38:55.000Z</time>
</trkpt>
<trkpt lat="45.8934450" lon="10.2683850">
	<ele>1449.80</ele>
	<time>2025-04-30T07:38:56.000Z</time>
</trkpt>
<trkpt lat="45.8934400" lon="10.2683850">
	<ele>1449.60</ele>
	<time>2025-04-30T07:38:57.000Z</time>
</trkpt>
<trkpt lat="45.8934360" lon="10.2683940">
	<ele>1449.40</ele>
	<time>2025-04-30T07:38:58.000Z</time>
</trkpt>
<trkpt lat="45.8934320" lon="10.2683950">
	<ele>1449.20</ele>
	<time>2025-04-30T07:38:59.000Z</time>
</trkpt>
<trkpt lat="45.8934300" lon="10.2683920">
	<ele>1449.00</ele>
	<time>2025-04-30T07:39:00.000Z</time>
</trkpt>
<trkpt lat="45.8934210" lon="10.2684020">
	<ele>1449.00</ele>
	<time>2025-04-30T07:39:01.000Z</time>
</trkpt>
<trkpt lat="45.8934070" lon="10.2684170">
	<ele>1448.80</ele>
	<time>2025-04-30T07:39:02.000Z</time>
</trkpt>
<trkpt lat="45.8934010" lon="10.2684360">
	<ele>1448.60</ele>
	<time>2025-04-30T07:39:03.000Z</time>
</trkpt>
<trkpt lat="45.8934100" lon="10.2684600">
	<ele>1448.40</ele>
	<time>2025-04-30T07:39:04.000Z</time>
</trkpt>
<trkpt lat="45.8934020" lon="10.2684770">
	<ele>1448.20</ele>
	<time>2025-04-30T07:39:05.000Z</time>
</trkpt>
<trkpt lat="45.8933910" lon="10.2685000">
	<ele>1448.20</ele>
	<time>2025-04-30T07:39:06.000Z</time>
</trkpt>
<trkpt lat="45.8933680" lon="10.2685210">
	<ele>1448.00</ele>
	<time>2025-04-30T07:39:07.000Z</time>
</trkpt>
<trkpt lat="45.8933480" lon="10.2685280">
	<ele>1447.80</ele>
	<time>2025-04-30T07:39:08.000Z</time>
</trkpt>
<trkpt lat="45.8933150" lon="10.2685340">
	<ele>1447.80</ele>
	<time>2025-04-30T07:39:09.000Z</time>
</trkpt>
<trkpt lat="45.8932990" lon="10.2685390">
	<ele>1447.60</ele>
	<time>2025-04-30T07:39:10.000Z</time>
</trkpt>
<trkpt lat="45.8932790" lon="10.2685370">
	<ele>1447.40</ele>
	<time>2025-04-30T07:39:11.000Z</time>
</trkpt>
<trkpt lat="45.8932630" lon="10.2685450">
	<ele>1447.20</ele>
	<time>2025-04-30T07:39:12.000Z</time>
</trkpt>
<trkpt lat="45.8932590" lon="10.2685490">
	<ele>1447.20</ele>
	<time>2025-04-30T07:39:13.000Z</time>
</trkpt>
<trkpt lat="45.8932600" lon="10.2685510">
	<ele>1447.20</ele>
	<time>2025-04-30T07:39:14.000Z</time>
</trkpt>
<trkpt lat="45.8932650" lon="10.2685560">
	<ele>1447.20</ele>
	<time>2025-04-30T07:39:15.000Z</time>
</trkpt>
<trkpt lat="45.8932590" lon="10.2685640">
	<ele>1447.20</ele>
	<time>2025-04-30T07:39:16.000Z</time>
</trkpt>
<trkpt lat="45.8932520" lon="10.2685700">
	<ele>1447.20</ele>
	<time>2025-04-30T07:39:17.000Z</time>
</trkpt>
<trkpt lat="45.8932370" lon="10.2685740">
	<ele>1447.20</ele>
	<time>2025-04-30T07:39:18.000Z</time>
</trkpt>
<trkpt lat="45.8932350" lon="10.2685730">
	<ele>1447.00</ele>
	<time>2025-04-30T07:39:19.000Z</time>
</trkpt>
<trkpt lat="45.8932330" lon="10.2685710">
	<ele>1447.00</ele>
	<time>2025-04-30T07:39:20.000Z</time>
</trkpt>
<trkpt lat="45.8932310" lon="10.2685570">
	<ele>1446.80</ele>
	<time>2025-04-30T07:39:21.000Z</time>
</trkpt>
<trkpt lat="45.8932290" lon="10.2685480">
	<ele>1446.60</ele>
	<time>2025-04-30T07:39:22.000Z</time>
</trkpt>
<trkpt lat="45.8932120" lon="10.2685470">
	<ele>1446.60</ele>
	<time>2025-04-30T07:39:23.000Z</time>
</trkpt>
<trkpt lat="45.8931990" lon="10.2685410">
	<ele>1446.40</ele>
	<time>2025-04-30T07:39:24.000Z</time>
</trkpt>
<trkpt lat="45.8931970" lon="10.2685340">
	<ele>1446.40</ele>
	<time>2025-04-30T07:39:25.000Z</time>
</trkpt>
<trkpt lat="45.8931950" lon="10.2685310">
	<ele>1446.20</ele>
	<time>2025-04-30T07:39:26.000Z</time>
</trkpt>
<trkpt lat="45.8931800" lon="10.2685260">
	<ele>1446.20</ele>
	<time>2025-04-30T07:39:27.000Z</time>
</trkpt>
<trkpt lat="45.8931550" lon="10.2685080">
	<ele>1446.20</ele>
	<time>2025-04-30T07:39:28.000Z</time>
</trkpt>
<trkpt lat="45.8931280" lon="10.2684940">
	<ele>1446.20</ele>
	<time>2025-04-30T07:39:29.000Z</time>
</trkpt>
<trkpt lat="45.8931290" lon="10.2684940">
	<ele>1446.00</ele>
	<time>2025-04-30T07:39:30.000Z</time>
</trkpt>
<trkpt lat="45.8931310" lon="10.2684900">
	<ele>1446.00</ele>
	<time>2025-04-30T07:39:31.000Z</time>
</trkpt>
<trkpt lat="45.8931250" lon="10.2684950">
	<ele>1446.00</ele>
	<time>2025-04-30T07:39:32.000Z</time>
</trkpt>
<trkpt lat="45.8931180" lon="10.2685060">
	<ele>1446.00</ele>
	<time>2025-04-30T07:39:33.000Z</time>
</trkpt>
<trkpt lat="45.8931160" lon="10.2685000">
	<ele>1445.80</ele>
	<time>2025-04-30T07:39:34.000Z</time>
</trkpt>
<trkpt lat="45.8931130" lon="10.2685250">
	<ele>1445.40</ele>
	<time>2025-04-30T07:39:35.000Z</time>
</trkpt>
<trkpt lat="45.8931080" lon="10.2685210">
	<ele>1445.00</ele>
	<time>2025-04-30T07:39:36.000Z</time>
</trkpt>
<trkpt lat="45.8931110" lon="10.2685220">
	<ele>1444.80</ele>
	<time>2025-04-30T07:39:37.000Z</time>
</trkpt>
<trkpt lat="45.8930910" lon="10.2685210">
	<ele>1444.60</ele>
	<time>2025-04-30T07:39:38.000Z</time>
</trkpt>
<trkpt lat="45.8930710" lon="10.2685250">
	<ele>1444.40</ele>
	<time>2025-04-30T07:39:39.000Z</time>
</trkpt>
<trkpt lat="45.8930570" lon="10.2685290">
	<ele>1444.40</ele>
	<time>2025-04-30T07:39:40.000Z</time>
</trkpt>
<trkpt lat="45.8930460" lon="10.2685300">
	<ele>1444.20</ele>
	<time>2025-04-30T07:39:41.000Z</time>
</trkpt>
<trkpt lat="45.8930390" lon="10.2685350">
	<ele>1444.20</ele>
	<time>2025-04-30T07:39:42.000Z</time>
</trkpt>
<trkpt lat="45.8930360" lon="10.2685370">
	<ele>1444.20</ele>
	<time>2025-04-30T07:39:43.000Z</time>
</trkpt>
<trkpt lat="45.8930280" lon="10.2685320">
	<ele>1444.20</ele>
	<time>2025-04-30T07:39:44.000Z</time>
</trkpt>
<trkpt lat="45.8930280" lon="10.2685290">
	<ele>1444.20</ele>
	<time>2025-04-30T07:39:45.000Z</time>
</trkpt>
<trkpt lat="45.8930300" lon="10.2685340">
	<ele>1444.20</ele>
	<time>2025-04-30T07:39:46.000Z</time>
</trkpt>
<trkpt lat="45.8930310" lon="10.2685320">
	<ele>1444.40</ele>
	<time>2025-04-30T07:39:47.000Z</time>
</trkpt>
<trkpt lat="45.8930330" lon="10.2685320">
	<ele>1444.40</ele>
	<time>2025-04-30T07:39:48.000Z</time>
</trkpt>
<trkpt lat="45.8930280" lon="10.2685280">
	<ele>1444.40</ele>
	<time>2025-04-30T07:39:49.000Z</time>
</trkpt>
<trkpt lat="45.8930280" lon="10.2685250">
	<ele>1444.40</ele>
	<time>2025-04-30T07:39:50.000Z</time>
</trkpt>
<trkpt lat="45.8930230" lon="10.2685260">
	<ele>1444.40</ele>
	<time>2025-04-30T07:39:51.000Z</time>
</trkpt>
<trkpt lat="45.8930120" lon="10.2685240">
	<ele>1444.40</ele>
	<time>2025-04-30T07:39:52.000Z</time>
</trkpt>
<trkpt lat="45.8930100" lon="10.2685170">
	<ele>1444.40</ele>
	<time>2025-04-30T07:39:53.000Z</time>
</trkpt>
<trkpt lat="45.8930010" lon="10.2685170">
	<ele>1444.40</ele>
	<time>2025-04-30T07:39:54.000Z</time>
</trkpt>
<trkpt lat="45.8929920" lon="10.2685140">
	<ele>1444.20</ele>
	<time>2025-04-30T07:39:55.000Z</time>
</trkpt>
<trkpt lat="45.8929840" lon="10.2685110">
	<ele>1444.20</ele>
	<time>2025-04-30T07:39:56.000Z</time>
</trkpt>
<trkpt lat="45.8929760" lon="10.2685070">
	<ele>1444.00</ele>
	<time>2025-04-30T07:39:57.000Z</time>
</trkpt>
<trkpt lat="45.8929730" lon="10.2685080">
	<ele>1444.00</ele>
	<time>2025-04-30T07:39:58.000Z</time>
</trkpt>
<trkpt lat="45.8929660" lon="10.2685160">
	<ele>1443.80</ele>
	<time>2025-04-30T07:39:59.000Z</time>
</trkpt>
<trkpt lat="45.8929630" lon="10.2685220">
	<ele>1443.80</ele>
	<time>2025-04-30T07:40:00.000Z</time>
</trkpt>
<trkpt lat="45.8929600" lon="10.2685190">
	<ele>1443.60</ele>
	<time>2025-04-30T07:40:01.000Z</time>
</trkpt>
<trkpt lat="45.8929590" lon="10.2685210">
	<ele>1443.40</ele>
	<time>2025-04-30T07:40:02.000Z</time>
</trkpt>
<trkpt lat="45.8929530" lon="10.2685330">
	<ele>1443.40</ele>
	<time>2025-04-30T07:40:03.000Z</time>
</trkpt>
<trkpt lat="45.8929550" lon="10.2685450">
	<ele>1443.40</ele>
	<time>2025-04-30T07:40:04.000Z</time>
</trkpt>
<trkpt lat="45.8929340" lon="10.2685490">
	<ele>1443.40</ele>
	<time>2025-04-30T07:40:05.000Z</time>
</trkpt>
<trkpt lat="45.8929370" lon="10.2685540">
	<ele>1443.20</ele>
	<time>2025-04-30T07:40:06.000Z</time>
</trkpt>
<trkpt lat="45.8929370" lon="10.2685550">
	<ele>1443.20</ele>
	<time>2025-04-30T07:40:07.000Z</time>
</trkpt>
<trkpt lat="45.8929350" lon="10.2685550">
	<ele>1443.20</ele>
	<time>2025-04-30T07:40:08.000Z</time>
</trkpt>
<trkpt lat="45.8929420" lon="10.2685720">
	<ele>1443.00</ele>
	<time>2025-04-30T07:40:09.000Z</time>
</trkpt>
<trkpt lat="45.8929440" lon="10.2685740">
	<ele>1442.80</ele>
	<time>2025-04-30T07:40:10.000Z</time>
</trkpt>
<trkpt lat="45.8929420" lon="10.2685740">
	<ele>1442.40</ele>
	<time>2025-04-30T07:40:11.000Z</time>
</trkpt>
<trkpt lat="45.8929420" lon="10.2685800">
	<ele>1442.40</ele>
	<time>2025-04-30T07:40:12.000Z</time>
</trkpt>
<trkpt lat="45.8929370" lon="10.2685900">
	<ele>1442.20</ele>
	<time>2025-04-30T07:40:13.000Z</time>
</trkpt>
<trkpt lat="45.8929370" lon="10.2685920">
	<ele>1442.00</ele>
	<time>2025-04-30T07:40:14.000Z</time>
</trkpt>
<trkpt lat="45.8929410" lon="10.2686000">
	<ele>1442.00</ele>
	<time>2025-04-30T07:40:15.000Z</time>
</trkpt>
<trkpt lat="45.8929520" lon="10.2686140">
	<ele>1442.00</ele>
	<time>2025-04-30T07:40:16.000Z</time>
</trkpt>
<trkpt lat="45.8929570" lon="10.2686210">
	<ele>1441.80</ele>
	<time>2025-04-30T07:40:17.000Z</time>
</trkpt>
<trkpt lat="45.8929510" lon="10.2686210">
	<ele>1441.80</ele>
	<time>2025-04-30T07:40:18.000Z</time>
</trkpt>
<trkpt lat="45.8929420" lon="10.2686180">
	<ele>1441.80</ele>
	<time>2025-04-30T07:40:19.000Z</time>
</trkpt>
<trkpt lat="45.8929390" lon="10.2686200">
	<ele>1441.60</ele>
	<time>2025-04-30T07:40:20.000Z</time>
</trkpt>
<trkpt lat="45.8929390" lon="10.2686200">
	<ele>1441.60</ele>
	<time>2025-04-30T07:40:21.000Z</time>
</trkpt>
<trkpt lat="45.8929390" lon="10.2686260">
	<ele>1441.60</ele>
	<time>2025-04-30T07:40:22.000Z</time>
</trkpt>
<trkpt lat="45.8929460" lon="10.2686380">
	<ele>1441.40</ele>
	<time>2025-04-30T07:40:23.000Z</time>
</trkpt>
<trkpt lat="45.8929590" lon="10.2686490">
	<ele>1441.20</ele>
	<time>2025-04-30T07:40:24.000Z</time>
</trkpt>
<trkpt lat="45.8929630" lon="10.2686500">
	<ele>1441.20</ele>
	<time>2025-04-30T07:40:25.000Z</time>
</trkpt>
<trkpt lat="45.8929550" lon="10.2686500">
	<ele>1441.00</ele>
	<time>2025-04-30T07:40:26.000Z</time>
</trkpt>
<trkpt lat="45.8929700" lon="10.2686570">
	<ele>1441.20</ele>
	<time>2025-04-30T07:40:27.000Z</time>
</trkpt>
<trkpt lat="45.8929930" lon="10.2686720">
	<ele>1441.00</ele>
	<time>2025-04-30T07:40:28.000Z</time>
</trkpt>
<trkpt lat="45.8930120" lon="10.2686820">
	<ele>1441.00</ele>
	<time>2025-04-30T07:40:29.000Z</time>
</trkpt>
<trkpt lat="45.8930260" lon="10.2686890">
	<ele>1441.00</ele>
	<time>2025-04-30T07:40:30.000Z</time>
</trkpt>
<trkpt lat="45.8930470" lon="10.2687040">
	<ele>1441.00</ele>
	<time>2025-04-30T07:40:31.000Z</time>
</trkpt>
<trkpt lat="45.8930620" lon="10.2687130">
	<ele>1441.00</ele>
	<time>2025-04-30T07:40:32.000Z</time>
</trkpt>
<trkpt lat="45.8930710" lon="10.2687260">
	<ele>1441.00</ele>
	<time>2025-04-30T07:40:33.000Z</time>
</trkpt>
<trkpt lat="45.8930780" lon="10.2687380">
	<ele>1441.00</ele>
	<time>2025-04-30T07:40:34.000Z</time>
</trkpt>
<trkpt lat="45.8930710" lon="10.2687390">
	<ele>1441.00</ele>
	<time>2025-04-30T07:40:35.000Z</time>
</trkpt>
<trkpt lat="45.8930700" lon="10.2687400">
	<ele>1441.20</ele>
	<time>2025-04-30T07:40:36.000Z</time>
</trkpt>
<trkpt lat="45.8930620" lon="10.2687400">
	<ele>1441.20</ele>
	<time>2025-04-30T07:40:37.000Z</time>
</trkpt>
<trkpt lat="45.8930530" lon="10.2687410">
	<ele>1441.20</ele>
	<time>2025-04-30T07:40:38.000Z</time>
</trkpt>
<trkpt lat="45.8930430" lon="10.2687400">
	<ele>1441.20</ele>
	<time>2025-04-30T07:40:39.000Z</time>
</trkpt>
<trkpt lat="45.8930420" lon="10.2687420">
	<ele>1441.20</ele>
	<time>2025-04-30T07:40:40.000Z</time>
</trkpt>
<trkpt lat="45.8930390" lon="10.2687490">
	<ele>1441.20</ele>
	<time>2025-04-30T07:40:41.000Z</time>
</trkpt>
<trkpt lat="45.8930370" lon="10.2687540">
	<ele>1441.00</ele>
	<time>2025-04-30T07:40:42.000Z</time>
</trkpt>
<trkpt lat="45.8929680" lon="10.2687710">
	<ele>1421.80</ele>
	<time>2025-04-30T07:44:07.000Z</time>
</trkpt>
<trkpt lat="45.8929400" lon="10.2687400">
	<ele>1422.00</ele>
	<time>2025-04-30T07:44:08.000Z</time>
</trkpt>
<trkpt lat="45.8929130" lon="10.2687390">
	<ele>1422.20</ele>
	<time>2025-04-30T07:44:09.000Z</time>
</trkpt>
<trkpt lat="45.8928840" lon="10.2687460">
	<ele>1422.20</ele>
	<time>2025-04-30T07:44:10.000Z</time>
</trkpt>
<trkpt lat="45.8928570" lon="10.2687820">
	<ele>1422.40</ele>
	<time>2025-04-30T07:44:11.000Z</time>
</trkpt>
<trkpt lat="45.8928220" lon="10.2688240">
	<ele>1422.60</ele>
	<time>2025-04-30T07:44:12.000Z</time>
</trkpt>
<trkpt lat="45.8928170" lon="10.2688280">
	<ele>1423.00</ele>
	<time>2025-04-30T07:44:13.000Z</time>
</trkpt>
<trkpt lat="45.8928140" lon="10.2688330">
	<ele>1423.20</ele>
	<time>2025-04-30T07:44:14.000Z</time>
</trkpt>
<trkpt lat="45.8928120" lon="10.2688370">
	<ele>1423.40</ele>
	<time>2025-04-30T07:44:15.000Z</time>
</trkpt>
<trkpt lat="45.8928100" lon="10.2688350">
	<ele>1423.60</ele>
	<time>2025-04-30T07:44:16.000Z</time>
</trkpt>
<trkpt lat="45.8927990" lon="10.2688460">
	<ele>1423.60</ele>
	<time>2025-04-30T07:44:17.000Z</time>
</trkpt>
<trkpt lat="45.8927870" lon="10.2688590">
	<ele>1423.80</ele>
	<time>2025-04-30T07:44:18.000Z</time>
</trkpt>
<trkpt lat="45.8927830" lon="10.2688720">
	<ele>1424.00</ele>
	<time>2025-04-30T07:44:19.000Z</time>
</trkpt>
<trkpt lat="45.8927810" lon="10.2688810">
	<ele>1424.00</ele>
	<time>2025-04-30T07:44:20.000Z</time>
</trkpt>
<trkpt lat="45.8927750" lon="10.2688830">
	<ele>1424.20</ele>
	<time>2025-04-30T07:44:21.000Z</time>
</trkpt>
<trkpt lat="45.8927740" lon="10.2688820">
	<ele>1424.80</ele>
	<time>2025-04-30T07:44:22.000Z</time>
</trkpt>
<trkpt lat="45.8927710" lon="10.2688930">
	<ele>1425.00</ele>
	<time>2025-04-30T07:44:23.000Z</time>
</trkpt>
<trkpt lat="45.8927660" lon="10.2688990">
	<ele>1425.20</ele>
	<time>2025-04-30T07:44:24.000Z</time>
</trkpt>
<trkpt lat="45.8927600" lon="10.2689070">
	<ele>1425.40</ele>
	<time>2025-04-30T07:44:25.000Z</time>
</trkpt>
<trkpt lat="45.8927480" lon="10.2689260">
	<ele>1425.80</ele>
	<time>2025-04-30T07:44:26.000Z</time>
</trkpt>
<trkpt lat="45.8927390" lon="10.2689420">
	<ele>1426.00</ele>
	<time>2025-04-30T07:44:27.000Z</time>
</trkpt>
<trkpt lat="45.8927300" lon="10.2689580">
	<ele>1426.20</ele>
	<time>2025-04-30T07:44:28.000Z</time>
</trkpt>
<trkpt lat="45.8927210" lon="10.2689760">
	<ele>1426.40</ele>
	<time>2025-04-30T07:44:29.000Z</time>
</trkpt>
<trkpt lat="45.8927100" lon="10.2689940">
	<ele>1426.80</ele>
	<time>2025-04-30T07:44:30.000Z</time>
</trkpt>
<trkpt lat="45.8926990" lon="10.2690010">
	<ele>1426.80</ele>
	<time>2025-04-30T07:44:31.000Z</time>
</trkpt>
<trkpt lat="45.8926780" lon="10.2690330">
	<ele>1427.00</ele>
	<time>2025-04-30T07:44:32.000Z</time>
</trkpt>
<trkpt lat="45.8926540" lon="10.2690570">
	<ele>1427.20</ele>
	<time>2025-04-30T07:44:33.000Z</time>
</trkpt>
<trkpt lat="45.8926350" lon="10.2690690">
	<ele>1427.20</ele>
	<time>2025-04-30T07:44:34.000Z</time>
</trkpt>
<trkpt lat="45.8926250" lon="10.2690820">
	<ele>1427.20</ele>
	<time>2025-04-30T07:44:35.000Z</time>
</trkpt>
<trkpt lat="45.8926210" lon="10.2690960">
	<ele>1427.60</ele>
	<time>2025-04-30T07:44:36.000Z</time>
</trkpt>
<trkpt lat="45.8926150" lon="10.2690990">
	<ele>1427.80</ele>
	<time>2025-04-30T07:44:37.000Z</time>
</trkpt>
<trkpt lat="45.8925990" lon="10.2690900">
	<ele>1428.20</ele>
	<time>2025-04-30T07:44:38.000Z</time>
</trkpt>
<trkpt lat="45.8925970" lon="10.2690920">
	<ele>1428.40</ele>
	<time>2025-04-30T07:44:39.000Z</time>
</trkpt>
<trkpt lat="45.8925810" lon="10.2690940">
	<ele>1428.40</ele>
	<time>2025-04-30T07:44:40.000Z</time>
</trkpt>
<trkpt lat="45.8925620" lon="10.2691080">
	<ele>1428.60</ele>
	<time>2025-04-30T07:44:41.000Z</time>
</trkpt>
<trkpt lat="45.8925530" lon="10.2691270">
	<ele>1428.80</ele>
	<time>2025-04-30T07:44:42.000Z</time>
</trkpt>
<trkpt lat="45.8925530" lon="10.2691510">
	<ele>1429.20</ele>
	<time>2025-04-30T07:44:43.000Z</time>
</trkpt>
<trkpt lat="45.8925620" lon="10.2691670">
	<ele>1429.20</ele>
	<time>2025-04-30T07:44:44.000Z</time>
</trkpt>
<trkpt lat="45.8925730" lon="10.2691810">
	<ele>1429.60</ele>
	<time>2025-04-30T07:44:45.000Z</time>
</trkpt>
<trkpt lat="45.8925700" lon="10.2691930">
	<ele>1429.80</ele>
	<time>2025-04-30T07:44:46.000Z</time>
</trkpt>
<trkpt lat="45.8925570" lon="10.2692060">
	<ele>1430.00</ele>
	<time>2025-04-30T07:44:47.000Z</time>
</trkpt>
<trkpt lat="45.8925530" lon="10.2692160">
	<ele>1430.20</ele>
	<time>2025-04-30T07:44:48.000Z</time>
</trkpt>
<trkpt lat="45.8925480" lon="10.2692250">
	<ele>1430.40</ele>
	<time>2025-04-30T07:44:49.000Z</time>
</trkpt>
<trkpt lat="45.8925620" lon="10.2692690">
	<ele>1430.40</ele>
	<time>2025-04-30T07:44:50.000Z</time>
</trkpt>
<trkpt lat="45.8925720" lon="10.2692910">
	<ele>1430.60</ele>
	<time>2025-04-30T07:44:51.000Z</time>
</trkpt>
<trkpt lat="45.8925840" lon="10.2693190">
	<ele>1430.80</ele>
	<time>2025-04-30T07:44:52.000Z</time>
</trkpt>
<trkpt lat="45.8925920" lon="10.2693140">
	<ele>1430.80</ele>
	<time>2025-04-30T07:44:53.000Z</time>
</trkpt>
<trkpt lat="45.8925940" lon="10.2693200">
	<ele>1431.00</ele>
	<time>2025-04-30T07:44:54.000Z</time>
</trkpt>
<trkpt lat="45.8926000" lon="10.2693480">
	<ele>1431.00</ele>
	<time>2025-04-30T07:44:55.000Z</time>
</trkpt>
<trkpt lat="45.8926070" lon="10.2693630">
	<ele>1431.20</ele>
	<time>2025-04-30T07:44:56.000Z</time>
</trkpt>
<trkpt lat="45.8926010" lon="10.2693590">
	<ele>1431.40</ele>
	<time>2025-04-30T07:44:57.000Z</time>
</trkpt>
<trkpt lat="45.8926030" lon="10.2693670">
	<ele>1431.40</ele>
	<time>2025-04-30T07:44:58.000Z</time>
</trkpt>
<trkpt lat="45.8925900" lon="10.2693750">
	<ele>1431.60</ele>
	<time>2025-04-30T07:44:59.000Z</time>
</trkpt>
<trkpt lat="45.8925630" lon="10.2693850">
	<ele>1431.80</ele>
	<time>2025-04-30T07:45:00.000Z</time>
</trkpt>
<trkpt lat="45.8925430" lon="10.2694140">
	<ele>1432.00</ele>
	<time>2025-04-30T07:45:01.000Z</time>
</trkpt>
<trkpt lat="45.8925270" lon="10.2694060">
	<ele>1432.20</ele>
	<time>2025-04-30T07:45:02.000Z</time>
</trkpt>
<trkpt lat="45.8925070" lon="10.2694000">
	<ele>1432.20</ele>
	<time>2025-04-30T07:45:03.000Z</time>
</trkpt>
<trkpt lat="45.8924980" lon="10.2693910">
	<ele>1432.20</ele>
	<time>2025-04-30T07:45:04.000Z</time>
</trkpt>
<trkpt lat="45.8924840" lon="10.2693810">
	<ele>1432.20</ele>
	<time>2025-04-30T07:45:05.000Z</time>
</trkpt>
<trkpt lat="45.8924720" lon="10.2693790">
	<ele>1432.40</ele>
	<time>2025-04-30T07:45:06.000Z</time>
</trkpt>
<trkpt lat="45.8924580" lon="10.2693770">
	<ele>1432.40</ele>
	<time>2025-04-30T07:45:07.000Z</time>
</trkpt>
<trkpt lat="45.8924530" lon="10.2693800">
	<ele>1432.60</ele>
	<time>2025-04-30T07:45:08.000Z</time>
</trkpt>
<trkpt lat="45.8924340" lon="10.2693810">
	<ele>1432.80</ele>
	<time>2025-04-30T07:45:09.000Z</time>
</trkpt>
<trkpt lat="45.8924120" lon="10.2693800">
	<ele>1433.00</ele>
	<time>2025-04-30T07:45:10.000Z</time>
</trkpt>
<trkpt lat="45.8923940" lon="10.2693750">
	<ele>1433.00</ele>
	<time>2025-04-30T07:45:11.000Z</time>
</trkpt>
<trkpt lat="45.8923820" lon="10.2693820">
	<ele>1433.20</ele>
	<time>2025-04-30T07:45:12.000Z</time>
</trkpt>
<trkpt lat="45.8923680" lon="10.2693890">
	<ele>1433.20</ele>
	<time>2025-04-30T07:45:13.000Z</time>
</trkpt>
<trkpt lat="45.8923610" lon="10.2693870">
	<ele>1433.60</ele>
	<time>2025-04-30T07:45:14.000Z</time>
</trkpt>
<trkpt lat="45.8923530" lon="10.2693880">
	<ele>1433.60</ele>
	<time>2025-04-30T07:45:15.000Z</time>
</trkpt>
<trkpt lat="45.8923530" lon="10.2693810">
	<ele>1433.60</ele>
	<time>2025-04-30T07:45:16.000Z</time>
</trkpt>
<trkpt lat="45.8923540" lon="10.2693750">
	<ele>1433.80</ele>
	<time>2025-04-30T07:45:17.000Z</time>
</trkpt>
<trkpt lat="45.8923500" lon="10.2693750">
	<ele>1433.60</ele>
	<time>2025-04-30T07:45:18.000Z</time>
</trkpt>
<trkpt lat="45.8923320" lon="10.2693770">
	<ele>1433.60</ele>
	<time>2025-04-30T07:45:19.000Z</time>
</trkpt>
<trkpt lat="45.8923100" lon="10.2693710">
	<ele>1433.40</ele>
	<time>2025-04-30T07:45:20.000Z</time>
</trkpt>
<trkpt lat="45.8923000" lon="10.2693670">
	<ele>1433.40</ele>
	<time>2025-04-30T07:45:21.000Z</time>
</trkpt>
<trkpt lat="45.8922850" lon="10.2693610">
	<ele>1433.40</ele>
	<time>2025-04-30T07:45:22.000Z</time>
</trkpt>
<trkpt lat="45.8922840" lon="10.2693640">
	<ele>1433.40</ele>
	<time>2025-04-30T07:45:23.000Z</time>
</trkpt>
<trkpt lat="45.8922710" lon="10.2693800">
	<ele>1433.40</ele>
	<time>2025-04-30T07:45:24.000Z</time>
</trkpt>
<trkpt lat="45.8922670" lon="10.2694060">
	<ele>1433.40</ele>
	<time>2025-04-30T07:45:25.000Z</time>
</trkpt>
<trkpt lat="45.8922650" lon="10.2694340">
	<ele>1433.40</ele>
	<time>2025-04-30T07:45:26.000Z</time>
</trkpt>
<trkpt lat="45.8922710" lon="10.2694410">
	<ele>1433.40</ele>
	<time>2025-04-30T07:45:27.000Z</time>
</trkpt>
<trkpt lat="45.8922630" lon="10.2694410">
	<ele>1433.20</ele>
	<time>2025-04-30T07:45:28.000Z</time>
</trkpt>
<trkpt lat="45.8922630" lon="10.2694290">
	<ele>1433.20</ele>
	<time>2025-04-30T07:45:29.000Z</time>
</trkpt>
<trkpt lat="45.8922400" lon="10.2694200">
	<ele>1433.00</ele>
	<time>2025-04-30T07:45:30.000Z</time>
</trkpt>
<trkpt lat="45.8922170" lon="10.2694240">
	<ele>1433.00</ele>
	<time>2025-04-30T07:45:31.000Z</time>
</trkpt>
<trkpt lat="45.8921940" lon="10.2694230">
	<ele>1432.80</ele>
	<time>2025-04-30T07:45:32.000Z</time>
</trkpt>
<trkpt lat="45.8921830" lon="10.2694210">
	<ele>1432.80</ele>
	<time>2025-04-30T07:45:33.000Z</time>
</trkpt>
<trkpt lat="45.8921640" lon="10.2694160">
	<ele>1432.80</ele>
	<time>2025-04-30T07:45:34.000Z</time>
</trkpt>
<trkpt lat="45.8921430" lon="10.2694130">
	<ele>1432.60</ele>
	<time>2025-04-30T07:45:35.000Z</time>
</trkpt>
<trkpt lat="45.8921280" lon="10.2694210">
	<ele>1432.40</ele>
	<time>2025-04-30T07:45:36.000Z</time>
</trkpt>
<trkpt lat="45.8921130" lon="10.2694230">
	<ele>1432.20</ele>
	<time>2025-04-30T07:45:37.000Z</time>
</trkpt>
<trkpt lat="45.8921110" lon="10.2694150">
	<ele>1432.00</ele>
	<time>2025-04-30T07:45:38.000Z</time>
</trkpt>
<trkpt lat="45.8921030" lon="10.2694110">
	<ele>1431.80</ele>
	<time>2025-04-30T07:45:39.000Z</time>
</trkpt>
<trkpt lat="45.8920950" lon="10.2694210">
	<ele>1431.60</ele>
	<time>2025-04-30T07:45:40.000Z</time>
</trkpt>
<trkpt lat="45.8920910" lon="10.2694200">
	<ele>1431.60</ele>
	<time>2025-04-30T07:45:41.000Z</time>
</trkpt>
<trkpt lat="45.8920840" lon="10.2694160">
	<ele>1431.40</ele>
	<time>2025-04-30T07:45:42.000Z</time>
</trkpt>
<trkpt lat="45.8920740" lon="10.2694050">
	<ele>1431.20</ele>
	<time>2025-04-30T07:45:43.000Z</time>
</trkpt>
<trkpt lat="45.8920730" lon="10.2693980">
	<ele>1431.20</ele>
	<time>2025-04-30T07:45:44.000Z</time>
</trkpt>
<trkpt lat="45.8920710" lon="10.2693930">
	<ele>1431.00</ele>
	<time>2025-04-30T07:45:45.000Z</time>
</trkpt>
<trkpt lat="45.8920770" lon="10.2693930">
	<ele>1430.80</ele>
	<time>2025-04-30T07:45:46.000Z</time>
</trkpt>
<trkpt lat="45.8920840" lon="10.2693960">
	<ele>1430.60</ele>
	<time>2025-04-30T07:45:47.000Z</time>
</trkpt>
<trkpt lat="45.8920860" lon="10.2694040">
	<ele>1430.60</ele>
	<time>2025-04-30T07:45:48.000Z</time>
</trkpt>
<trkpt lat="45.8920830" lon="10.2694000">
	<ele>1430.40</ele>
	<time>2025-04-30T07:45:49.000Z</time>
</trkpt>
<trkpt lat="45.8920830" lon="10.2693940">
	<ele>1430.40</ele>
	<time>2025-04-30T07:45:50.000Z</time>
</trkpt>
<trkpt lat="45.8920790" lon="10.2693900">
	<ele>1430.20</ele>
	<time>2025-04-30T07:45:51.000Z</time>
</trkpt>
<trkpt lat="45.8920760" lon="10.2693890">
	<ele>1430.00</ele>
	<time>2025-04-30T07:45:52.000Z</time>
</trkpt>
<trkpt lat="45.8920760" lon="10.2693870">
	<ele>1429.80</ele>
	<time>2025-04-30T07:45:53.000Z</time>
</trkpt>
<trkpt lat="45.8920750" lon="10.2693860">
	<ele>1429.60</ele>
	<time>2025-04-30T07:45:54.000Z</time>
</trkpt>
<trkpt lat="45.8920790" lon="10.2693820">
	<ele>1429.60</ele>
	<time>2025-04-30T07:45:55.000Z</time>
</trkpt>
<trkpt lat="45.8920810" lon="10.2693760">
	<ele>1429.40</ele>
	<time>2025-04-30T07:45:56.000Z</time>
</trkpt>
<trkpt lat="45.8920790" lon="10.2693750">
	<ele>1429.40</ele>
	<time>2025-04-30T07:45:57.000Z</time>
</trkpt>
<trkpt lat="45.8920750" lon="10.2693740">
	<ele>1429.20</ele>
	<time>2025-04-30T07:45:58.000Z</time>
</trkpt>
<trkpt lat="45.8920710" lon="10.2693700">
	<ele>1429.20</ele>
	<time>2025-04-30T07:45:59.000Z</time>
</trkpt>
<trkpt lat="45.8920650" lon="10.2693650">
	<ele>1429.00</ele>
	<time>2025-04-30T07:46:00.000Z</time>
</trkpt>
<trkpt lat="45.8920590" lon="10.2693620">
	<ele>1429.00</ele>
	<time>2025-04-30T07:46:01.000Z</time>
</trkpt>
<trkpt lat="45.8920510" lon="10.2693650">
	<ele>1429.00</ele>
	<time>2025-04-30T07:46:02.000Z</time>
</trkpt>
<trkpt lat="45.8920250" lon="10.2693610">
	<ele>1428.80</ele>
	<time>2025-04-30T07:46:03.000Z</time>
</trkpt>
<trkpt lat="45.8920070" lon="10.2693690">
	<ele>1428.80</ele>
	<time>2025-04-30T07:46:04.000Z</time>
</trkpt>
<trkpt lat="45.8919840" lon="10.2693680">
	<ele>1428.60</ele>
	<time>2025-04-30T07:46:05.000Z</time>
</trkpt>
<trkpt lat="45.8919750" lon="10.2693700">
	<ele>1428.60</ele>
	<time>2025-04-30T07:46:06.000Z</time>
</trkpt>
<trkpt lat="45.8919660" lon="10.2693680">
	<ele>1428.40</ele>
	<time>2025-04-30T07:46:07.000Z</time>
</trkpt>
<trkpt lat="45.8919580" lon="10.2693690">
	<ele>1428.40</ele>
	<time>2025-04-30T07:46:08.000Z</time>
</trkpt>
<trkpt lat="45.8919460" lon="10.2693790">
	<ele>1428.20</ele>
	<time>2025-04-30T07:46:09.000Z</time>
</trkpt>
<trkpt lat="45.8919350" lon="10.2693820">
	<ele>1428.00</ele>
	<time>2025-04-30T07:46:10.000Z</time>
</trkpt>
<trkpt lat="45.8919260" lon="10.2693810">
	<ele>1427.60</ele>
	<time>2025-04-30T07:46:11.000Z</time>
</trkpt>
<trkpt lat="45.8919210" lon="10.2693830">
	<ele>1427.60</ele>
	<time>2025-04-30T07:46:12.000Z</time>
</trkpt>
<trkpt lat="45.8919170" lon="10.2693870">
	<ele>1427.60</ele>
	<time>2025-04-30T07:46:13.000Z</time>
</trkpt>
<trkpt lat="45.8919030" lon="10.2693840">
	<ele>1427.40</ele>
	<time>2025-04-30T07:46:14.000Z</time>
</trkpt>
<trkpt lat="45.8918900" lon="10.2693780">
	<ele>1427.40</ele>
	<time>2025-04-30T07:46:15.000Z</time>
</trkpt>
<trkpt lat="45.8918800" lon="10.2693810">
	<ele>1427.40</ele>
	<time>2025-04-30T07:46:16.000Z</time>
</trkpt>
<trkpt lat="45.8918700" lon="10.2693950">
	<ele>1427.40</ele>
	<time>2025-04-30T07:46:17.000Z</time>
</trkpt>
<trkpt lat="45.8918670" lon="10.2694030">
	<ele>1427.40</ele>
	<time>2025-04-30T07:46:18.000Z</time>
</trkpt>
<trkpt lat="45.8918620" lon="10.2694130">
	<ele>1427.40</ele>
	<time>2025-04-30T07:46:19.000Z</time>
</trkpt>
<trkpt lat="45.8918560" lon="10.2694210">
	<ele>1427.40</ele>
	<time>2025-04-30T07:46:20.000Z</time>
</trkpt>
<trkpt lat="45.8918430" lon="10.2694130">
	<ele>1427.40</ele>
	<time>2025-04-30T07:46:21.000Z</time>
</trkpt>
<trkpt lat="45.8918400" lon="10.2694220">
	<ele>1427.40</ele>
	<time>2025-04-30T07:46:22.000Z</time>
</trkpt>
<trkpt lat="45.8918390" lon="10.2694320">
	<ele>1427.40</ele>
	<time>2025-04-30T07:46:23.000Z</time>
</trkpt>
<trkpt lat="45.8918360" lon="10.2694410">
	<ele>1427.40</ele>
	<time>2025-04-30T07:46:24.000Z</time>
</trkpt>
<trkpt lat="45.8918340" lon="10.2694590">
	<ele>1427.60</ele>
	<time>2025-04-30T07:46:25.000Z</time>
</trkpt>
<trkpt lat="45.8918260" lon="10.2694650">
	<ele>1427.60</ele>
	<time>2025-04-30T07:46:26.000Z</time>
</trkpt>
<trkpt lat="45.8918300" lon="10.2694730">
	<ele>1427.80</ele>
	<time>2025-04-30T07:46:27.000Z</time>
</trkpt>
<trkpt lat="45.8918380" lon="10.2694790">
	<ele>1427.80</ele>
	<time>2025-04-30T07:46:28.000Z</time>
</trkpt>
<trkpt lat="45.8918540" lon="10.2694940">
	<ele>1427.80</ele>
	<time>2025-04-30T07:46:29.000Z</time>
</trkpt>
<trkpt lat="45.8918480" lon="10.2695080">
	<ele>1428.00</ele>
	<time>2025-04-30T07:46:30.000Z</time>
</trkpt>
<trkpt lat="45.8918410" lon="10.2695140">
	<ele>1428.00</ele>
	<time>2025-04-30T07:46:31.000Z</time>
</trkpt>
<trkpt lat="45.8918420" lon="10.2695290">
	<ele>1427.80</ele>
	<time>2025-04-30T07:46:32.000Z</time>
</trkpt>
<trkpt lat="45.8918430" lon="10.2695410">
	<ele>1427.80</ele>
	<time>2025-04-30T07:46:33.000Z</time>
</trkpt>
<trkpt lat="45.8918340" lon="10.2695470">
	<ele>1427.80</ele>
	<time>2025-04-30T07:46:34.000Z</time>
</trkpt>
<trkpt lat="45.8918280" lon="10.2695520">
	<ele>1427.60</ele>
	<time>2025-04-30T07:46:35.000Z</time>
</trkpt>
<trkpt lat="45.8918240" lon="10.2695590">
	<ele>1427.60</ele>
	<time>2025-04-30T07:46:36.000Z</time>
</trkpt>
<trkpt lat="45.8918250" lon="10.2695660">
	<ele>1427.40</ele>
	<time>2025-04-30T07:46:37.000Z</time>
</trkpt>
<trkpt lat="45.8918290" lon="10.2695700">
	<ele>1427.40</ele>
	<time>2025-04-30T07:46:38.000Z</time>
</trkpt>
<trkpt lat="45.8918240" lon="10.2695750">
	<ele>1427.40</ele>
	<time>2025-04-30T07:46:39.000Z</time>
</trkpt>
<trkpt lat="45.8918250" lon="10.2695840">
	<ele>1427.40</ele>
	<time>2025-04-30T07:46:40.000Z</time>
</trkpt>
<trkpt lat="45.8918370" lon="10.2695900">
	<ele>1427.60</ele>
	<time>2025-04-30T07:46:41.000Z</time>
</trkpt>
<trkpt lat="45.8918400" lon="10.2695860">
	<ele>1427.60</ele>
	<time>2025-04-30T07:46:42.000Z</time>
</trkpt>
<trkpt lat="45.8918480" lon="10.2695850">
	<ele>1427.60</ele>
	<time>2025-04-30T07:46:43.000Z</time>
</trkpt>
<trkpt lat="45.8918600" lon="10.2695930">
	<ele>1427.60</ele>
	<time>2025-04-30T07:46:44.000Z</time>
</trkpt>
<trkpt lat="45.8918560" lon="10.2696010">
	<ele>1427.60</ele>
	<time>2025-04-30T07:46:45.000Z</time>
</trkpt>
<trkpt lat="45.8918530" lon="10.2696060">
	<ele>1427.60</ele>
	<time>2025-04-30T07:46:46.000Z</time>
</trkpt>
<trkpt lat="45.8918490" lon="10.2696080">
	<ele>1427.60</ele>
	<time>2025-04-30T07:46:47.000Z</time>
</trkpt>
<trkpt lat="45.8918440" lon="10.2696060">
	<ele>1427.60</ele>
	<time>2025-04-30T07:46:48.000Z</time>
</trkpt>
<trkpt lat="45.8918420" lon="10.2696110">
	<ele>1427.80</ele>
	<time>2025-04-30T07:46:49.000Z</time>
</trkpt>
<trkpt lat="45.8918350" lon="10.2696150">
	<ele>1427.80</ele>
	<time>2025-04-30T07:46:50.000Z</time>
</trkpt>
<trkpt lat="45.8918380" lon="10.2696260">
	<ele>1427.80</ele>
	<time>2025-04-30T07:46:51.000Z</time>
</trkpt>
<trkpt lat="45.8918360" lon="10.2696250">
	<ele>1427.80</ele>
	<time>2025-04-30T07:46:52.000Z</time>
</trkpt>
<trkpt lat="45.8918330" lon="10.2696280">
	<ele>1427.80</ele>
	<time>2025-04-30T07:46:53.000Z</time>
</trkpt>
<trkpt lat="45.8918280" lon="10.2696280">
	<ele>1427.80</ele>
	<time>2025-04-30T07:46:54.000Z</time>
</trkpt>
<trkpt lat="45.8918220" lon="10.2696340">
	<ele>1427.80</ele>
	<time>2025-04-30T07:46:55.000Z</time>
</trkpt>
<trkpt lat="45.8918030" lon="10.2696200">
	<ele>1428.00</ele>
	<time>2025-04-30T07:46:56.000Z</time>
</trkpt>
<trkpt lat="45.8917880" lon="10.2696120">
	<ele>1428.00</ele>
	<time>2025-04-30T07:46:57.000Z</time>
</trkpt>
<trkpt lat="45.8917800" lon="10.2696000">
	<ele>1428.00</ele>
	<time>2025-04-30T07:46:58.000Z</time>
</trkpt>
<trkpt lat="45.8917710" lon="10.2695970">
	<ele>1428.20</ele>
	<time>2025-04-30T07:46:59.000Z</time>
</trkpt>
<trkpt lat="45.8917580" lon="10.2695960">
	<ele>1428.20</ele>
	<time>2025-04-30T07:47:00.000Z</time>
</trkpt>
<trkpt lat="45.8917470" lon="10.2695960">
	<ele>1428.00</ele>
	<time>2025-04-30T07:47:01.000Z</time>
</trkpt>
<trkpt lat="45.8917440" lon="10.2696000">
	<ele>1428.00</ele>
	<time>2025-04-30T07:47:02.000Z</time>
</trkpt>
<trkpt lat="45.8917270" lon="10.2695890">
	<ele>1428.20</ele>
	<time>2025-04-30T07:47:03.000Z</time>
</trkpt>
<trkpt lat="45.8917080" lon="10.2695860">
	<ele>1428.20</ele>
	<time>2025-04-30T07:47:04.000Z</time>
</trkpt>
<trkpt lat="45.8916800" lon="10.2695790">
	<ele>1428.20</ele>
	<time>2025-04-30T07:47:05.000Z</time>
</trkpt>
<trkpt lat="45.8916620" lon="10.2695630">
	<ele>1428.40</ele>
	<time>2025-04-30T07:47:06.000Z</time>
</trkpt>
<trkpt lat="45.8916560" lon="10.2695640">
	<ele>1428.60</ele>
	<time>2025-04-30T07:47:07.000Z</time>
</trkpt>
<trkpt lat="45.8916470" lon="10.2695630">
	<ele>1428.80</ele>
	<time>2025-04-30T07:47:08.000Z</time>
</trkpt>
<trkpt lat="45.8916450" lon="10.2695710">
	<ele>1429.00</ele>
	<time>2025-04-30T07:47:09.000Z</time>
</trkpt>
<trkpt lat="45.8916350" lon="10.2695680">
	<ele>1429.20</ele>
	<time>2025-04-30T07:47:10.000Z</time>
</trkpt>
<trkpt lat="45.8916160" lon="10.2695500">
	<ele>1429.40</ele>
	<time>2025-04-30T07:47:11.000Z</time>
</trkpt>
<trkpt lat="45.8916150" lon="10.2695240">
	<ele>1432.00</ele>
	<time>2025-04-30T07:47:55.000Z</time>
</trkpt>
<trkpt lat="45.8916170" lon="10.2695170">
	<ele>1432.20</ele>
	<time>2025-04-30T07:47:56.000Z</time>
</trkpt>
<trkpt lat="45.8916220" lon="10.2695100">
	<ele>1432.20</ele>
	<time>2025-04-30T07:47:57.000Z</time>
</trkpt>
<trkpt lat="45.8916290" lon="10.2695070">
	<ele>1432.20</ele>
	<time>2025-04-30T07:47:58.000Z</time>
</trkpt>
<trkpt lat="45.8916300" lon="10.2695070">
	<ele>1432.00</ele>
	<time>2025-04-30T07:47:59.000Z</time>
</trkpt>
<trkpt lat="45.8915940" lon="10.2695110">
	<ele>1432.00</ele>
	<time>2025-04-30T07:48:00.000Z</time>
</trkpt>
<trkpt lat="45.8915880" lon="10.2695280">
	<ele>1431.80</ele>
	<time>2025-04-30T07:48:01.000Z</time>
</trkpt>
<trkpt lat="45.8915800" lon="10.2695390">
	<ele>1431.80</ele>
	<time>2025-04-30T07:48:02.000Z</time>
</trkpt>
<trkpt lat="45.8915770" lon="10.2695490">
	<ele>1431.60</ele>
	<time>2025-04-30T07:48:03.000Z</time>
</trkpt>
<trkpt lat="45.8915730" lon="10.2695500">
	<ele>1431.60</ele>
	<time>2025-04-30T07:48:04.000Z</time>
</trkpt>
<trkpt lat="45.8915730" lon="10.2695490">
	<ele>1431.60</ele>
	<time>2025-04-30T07:48:05.000Z</time>
</trkpt>
<trkpt lat="45.8915750" lon="10.2695510">
	<ele>1431.60</ele>
	<time>2025-04-30T07:48:06.000Z</time>
</trkpt>
<trkpt lat="45.8915770" lon="10.2695580">
	<ele>1431.40</ele>
	<time>2025-04-30T07:48:07.000Z</time>
</trkpt>
<trkpt lat="45.8915780" lon="10.2695630">
	<ele>1431.40</ele>
	<time>2025-04-30T07:48:08.000Z</time>
</trkpt>
<trkpt lat="45.8915720" lon="10.2695790">
	<ele>1431.40</ele>
	<time>2025-04-30T07:48:09.000Z</time>
</trkpt>
<trkpt lat="45.8915690" lon="10.2695960">
	<ele>1431.20</ele>
	<time>2025-04-30T07:48:10.000Z</time>
</trkpt>
<trkpt lat="45.8915610" lon="10.2696100">
	<ele>1431.00</ele>
	<time>2025-04-30T07:48:11.000Z</time>
</trkpt>
<trkpt lat="45.8915510" lon="10.2696240">
	<ele>1430.80</ele>
	<time>2025-04-30T07:48:12.000Z</time>
</trkpt>
<trkpt lat="45.8915520" lon="10.2696420">
	<ele>1430.60</ele>
	<time>2025-04-30T07:48:13.000Z</time>
</trkpt>
<trkpt lat="45.8915430" lon="10.2696560">
	<ele>1430.60</ele>
	<time>2025-04-30T07:48:14.000Z</time>
</trkpt>
<trkpt lat="45.8915360" lon="10.2696580">
	<ele>1430.40</ele>
	<time>2025-04-30T07:48:15.000Z</time>
</trkpt>
<trkpt lat="45.8915320" lon="10.2696620">
	<ele>1430.40</ele>
	<time>2025-04-30T07:48:16.000Z</time>
</trkpt>
<trkpt lat="45.8915300" lon="10.2696640">
	<ele>1430.40</ele>
	<time>2025-04-30T07:48:17.000Z</time>
</trkpt>
<trkpt lat="45.8915160" lon="10.2696770">
	<ele>1430.40</ele>
	<time>2025-04-30T07:48:18.000Z</time>
</trkpt>
<trkpt lat="45.8915120" lon="10.2696910">
	<ele>1430.40</ele>
	<time>2025-04-30T07:48:19.000Z</time>
</trkpt>
<trkpt lat="45.8915000" lon="10.2696990">
	<ele>1430.40</ele>
	<time>2025-04-30T07:48:20.000Z</time>
</trkpt>
<trkpt lat="45.8914870" lon="10.2696990">
	<ele>1430.60</ele>
	<time>2025-04-30T07:48:21.000Z</time>
</trkpt>
<trkpt lat="45.8914870" lon="10.2697010">
	<ele>1430.60</ele>
	<time>2025-04-30T07:48:22.000Z</time>
</trkpt>
<trkpt lat="45.8914710" lon="10.2697050">
	<ele>1430.60</ele>
	<time>2025-04-30T07:48:23.000Z</time>
</trkpt>
<trkpt lat="45.8914550" lon="10.2697090">
	<ele>1430.80</ele>
	<time>2025-04-30T07:48:24.000Z</time>
</trkpt>
<trkpt lat="45.8914450" lon="10.2697250">
	<ele>1431.00</ele>
	<time>2025-04-30T07:48:25.000Z</time>
</trkpt>
<trkpt lat="45.8914410" lon="10.2697390">
	<ele>1431.20</ele>
	<time>2025-04-30T07:48:26.000Z</time>
</trkpt>
<trkpt lat="45.8914470" lon="10.2697550">
	<ele>1431.40</ele>
	<time>2025-04-30T07:48:27.000Z</time>
</trkpt>
<trkpt lat="45.8914500" lon="10.2697600">
	<ele>1431.40</ele>
	<time>2025-04-30T07:48:28.000Z</time>
</trkpt>
<trkpt lat="45.8914390" lon="10.2697550">
	<ele>1431.60</ele>
	<time>2025-04-30T07:48:29.000Z</time>
</trkpt>
<trkpt lat="45.8914270" lon="10.2697560">
	<ele>1431.60</ele>
	<time>2025-04-30T07:48:30.000Z</time>
</trkpt>
<trkpt lat="45.8914230" lon="10.2697530">
	<ele>1431.60</ele>
	<time>2025-04-30T07:48:31.000Z</time>
</trkpt>
<trkpt lat="45.8914220" lon="10.2697500">
	<ele>1431.60</ele>
	<time>2025-04-30T07:48:32.000Z</time>
</trkpt>
<trkpt lat="45.8914230" lon="10.2697470">
	<ele>1431.60</ele>
	<time>2025-04-30T07:48:33.000Z</time>
</trkpt>
<trkpt lat="45.8914250" lon="10.2697450">
	<ele>1431.60</ele>
	<time>2025-04-30T07:48:34.000Z</time>
</trkpt>
<trkpt lat="45.8914260" lon="10.2697450">
	<ele>1431.40</ele>
	<time>2025-04-30T07:48:35.000Z</time>
</trkpt>
<trkpt lat="45.8914270" lon="10.2697460">
	<ele>1431.60</ele>
	<time>2025-04-30T07:48:36.000Z</time>
</trkpt>
<trkpt lat="45.8914220" lon="10.2697420">
	<ele>1431.80</ele>
	<time>2025-04-30T07:48:37.000Z</time>
</trkpt>
<trkpt lat="45.8914220" lon="10.2697400">
	<ele>1431.80</ele>
	<time>2025-04-30T07:48:38.000Z</time>
</trkpt>
<trkpt lat="45.8914280" lon="10.2697610">
	<ele>1431.60</ele>
	<time>2025-04-30T07:48:39.000Z</time>
</trkpt>
<trkpt lat="45.8914290" lon="10.2697630">
	<ele>1431.60</ele>
	<time>2025-04-30T07:48:40.000Z</time>
</trkpt>
<trkpt lat="45.8914290" lon="10.2697760">
	<ele>1431.60</ele>
	<time>2025-04-30T07:48:41.000Z</time>
</trkpt>
<trkpt lat="45.8914090" lon="10.2697820">
	<ele>1431.60</ele>
	<time>2025-04-30T07:48:42.000Z</time>
</trkpt>
<trkpt lat="45.8914010" lon="10.2697940">
	<ele>1431.60</ele>
	<time>2025-04-30T07:48:43.000Z</time>
</trkpt>
<trkpt lat="45.8913980" lon="10.2698040">
	<ele>1431.60</ele>
	<time>2025-04-30T07:48:44.000Z</time>
</trkpt>
<trkpt lat="45.8913980" lon="10.2698200">
	<ele>1431.60</ele>
	<time>2025-04-30T07:48:45.000Z</time>
</trkpt>
<trkpt lat="45.8913970" lon="10.2698320">
	<ele>1431.60</ele>
	<time>2025-04-30T07:48:46.000Z</time>
</trkpt>
<trkpt lat="45.8913840" lon="10.2698380">
	<ele>1431.60</ele>
	<time>2025-04-30T07:48:47.000Z</time>
</trkpt>
<trkpt lat="45.8913700" lon="10.2698440">
	<ele>1431.60</ele>
	<time>2025-04-30T07:48:48.000Z</time>
</trkpt>
<trkpt lat="45.8913620" lon="10.2698540">
	<ele>1431.80</ele>
	<time>2025-04-30T07:48:49.000Z</time>
</trkpt>
<trkpt lat="45.8913610" lon="10.2698640">
	<ele>1431.80</ele>
	<time>2025-04-30T07:48:50.000Z</time>
</trkpt>
<trkpt lat="45.8913460" lon="10.2698600">
	<ele>1431.60</ele>
	<time>2025-04-30T07:48:51.000Z</time>
</trkpt>
<trkpt lat="45.8913280" lon="10.2698600">
	<ele>1431.60</ele>
	<time>2025-04-30T07:48:52.000Z</time>
</trkpt>
<trkpt lat="45.8913110" lon="10.2698570">
	<ele>1431.80</ele>
	<time>2025-04-30T07:48:53.000Z</time>
</trkpt>
<trkpt lat="45.8913040" lon="10.2698640">
	<ele>1431.80</ele>
	<time>2025-04-30T07:48:54.000Z</time>
</trkpt>
<trkpt lat="45.8913010" lon="10.2698690">
	<ele>1431.80</ele>
	<time>2025-04-30T07:48:55.000Z</time>
</trkpt>
<trkpt lat="45.8912990" lon="10.2698720">
	<ele>1431.80</ele>
	<time>2025-04-30T07:48:56.000Z</time>
</trkpt>
<trkpt lat="45.8912940" lon="10.2698770">
	<ele>1432.00</ele>
	<time>2025-04-30T07:48:57.000Z</time>
</trkpt>
<trkpt lat="45.8912930" lon="10.2698750">
	<ele>1432.00</ele>
	<time>2025-04-30T07:48:58.000Z</time>
</trkpt>
<trkpt lat="45.8913020" lon="10.2698900">
	<ele>1432.20</ele>
	<time>2025-04-30T07:48:59.000Z</time>
</trkpt>
<trkpt lat="45.8913040" lon="10.2698930">
	<ele>1432.40</ele>
	<time>2025-04-30T07:49:00.000Z</time>
</trkpt>
<trkpt lat="45.8912960" lon="10.2698970">
	<ele>1432.60</ele>
	<time>2025-04-30T07:49:01.000Z</time>
</trkpt>
<trkpt lat="45.8912950" lon="10.2699010">
	<ele>1432.80</ele>
	<time>2025-04-30T07:49:02.000Z</time>
</trkpt>
<trkpt lat="45.8912920" lon="10.2699020">
	<ele>1433.00</ele>
	<time>2025-04-30T07:49:03.000Z</time>
</trkpt>
<trkpt lat="45.8912810" lon="10.2698930">
	<ele>1433.40</ele>
	<time>2025-04-30T07:49:04.000Z</time>
</trkpt>
<trkpt lat="45.8912730" lon="10.2698970">
	<ele>1433.60</ele>
	<time>2025-04-30T07:49:05.000Z</time>
</trkpt>
<trkpt lat="45.8912710" lon="10.2698960">
	<ele>1433.80</ele>
	<time>2025-04-30T07:49:06.000Z</time>
</trkpt>
<trkpt lat="45.8912680" lon="10.2698930">
	<ele>1434.00</ele>
	<time>2025-04-30T07:49:07.000Z</time>
</trkpt>
<trkpt lat="45.8912680" lon="10.2698870">
	<ele>1434.00</ele>
	<time>2025-04-30T07:49:08.000Z</time>
</trkpt>
<trkpt lat="45.8912720" lon="10.2698880">
	<ele>1434.20</ele>
	<time>2025-04-30T07:49:09.000Z</time>
</trkpt>
<trkpt lat="45.8912610" lon="10.2698930">
	<ele>1434.40</ele>
	<time>2025-04-30T07:49:10.000Z</time>
</trkpt>
<trkpt lat="45.8912440" lon="10.2698900">
	<ele>1434.40</ele>
	<time>2025-04-30T07:49:11.000Z</time>
</trkpt>
<trkpt lat="45.8912310" lon="10.2698790">
	<ele>1434.60</ele>
	<time>2025-04-30T07:49:12.000Z</time>
</trkpt>
<trkpt lat="45.8912270" lon="10.2698720">
	<ele>1434.80</ele>
	<time>2025-04-30T07:49:13.000Z</time>
</trkpt>
<trkpt lat="45.8912340" lon="10.2698760">
	<ele>1435.00</ele>
	<time>2025-04-30T07:49:14.000Z</time>
</trkpt>
<trkpt lat="45.8912450" lon="10.2698800">
	<ele>1435.20</ele>
	<time>2025-04-30T07:49:15.000Z</time>
</trkpt>
<trkpt lat="45.8912530" lon="10.2698850">
	<ele>1435.20</ele>
	<time>2025-04-30T07:49:16.000Z</time>
</trkpt>
<trkpt lat="45.8912400" lon="10.2698740">
	<ele>1435.60</ele>
	<time>2025-04-30T07:49:17.000Z</time>
</trkpt>
<trkpt lat="45.8912350" lon="10.2698730">
	<ele>1436.00</ele>
	<time>2025-04-30T07:49:18.000Z</time>
</trkpt>
<trkpt lat="45.8912310" lon="10.2698680">
	<ele>1436.00</ele>
	<time>2025-04-30T07:49:19.000Z</time>
</trkpt>
<trkpt lat="45.8912060" lon="10.2698530">
	<ele>1436.20</ele>
	<time>2025-04-30T07:49:20.000Z</time>
</trkpt>
<trkpt lat="45.8912040" lon="10.2698510">
	<ele>1436.20</ele>
	<time>2025-04-30T07:49:21.000Z</time>
</trkpt>
<trkpt lat="45.8912060" lon="10.2698500">
	<ele>1436.20</ele>
	<time>2025-04-30T07:49:22.000Z</time>
</trkpt>
<trkpt lat="45.8912210" lon="10.2698600">
	<ele>1436.20</ele>
	<time>2025-04-30T07:49:23.000Z</time>
</trkpt>
<trkpt lat="45.8912330" lon="10.2698710">
	<ele>1436.20</ele>
	<time>2025-04-30T07:49:24.000Z</time>
</trkpt>
<trkpt lat="45.8912430" lon="10.2698740">
	<ele>1436.40</ele>
	<time>2025-04-30T07:49:25.000Z</time>
</trkpt>
<trkpt lat="45.8912560" lon="10.2698840">
	<ele>1436.40</ele>
	<time>2025-04-30T07:49:26.000Z</time>
</trkpt>
<trkpt lat="45.8912570" lon="10.2698940">
	<ele>1436.20</ele>
	<time>2025-04-30T07:49:27.000Z</time>
</trkpt>
<trkpt lat="45.8912580" lon="10.2698940">
	<ele>1436.20</ele>
	<time>2025-04-30T07:49:28.000Z</time>
</trkpt>
<trkpt lat="45.8912520" lon="10.2698940">
	<ele>1436.20</ele>
	<time>2025-04-30T07:49:29.000Z</time>
</trkpt>
<trkpt lat="45.8912410" lon="10.2698900">
	<ele>1436.20</ele>
	<time>2025-04-30T07:49:30.000Z</time>
</trkpt>
<trkpt lat="45.8912420" lon="10.2698880">
	<ele>1436.20</ele>
	<time>2025-04-30T07:49:31.000Z</time>
</trkpt>
<trkpt lat="45.8912420" lon="10.2698890">
	<ele>1436.20</ele>
	<time>2025-04-30T07:49:32.000Z</time>
</trkpt>
<trkpt lat="45.8912420" lon="10.2698880">
	<ele>1436.20</ele>
	<time>2025-04-30T07:49:33.000Z</time>
</trkpt>
<trkpt lat="45.8912420" lon="10.2698830">
	<ele>1436.20</ele>
	<time>2025-04-30T07:49:34.000Z</time>
</trkpt>
<trkpt lat="45.8912290" lon="10.2698690">
	<ele>1436.20</ele>
	<time>2025-04-30T07:49:35.000Z</time>
</trkpt>
<trkpt lat="45.8912280" lon="10.2698580">
	<ele>1436.20</ele>
	<time>2025-04-30T07:49:36.000Z</time>
</trkpt>
<trkpt lat="45.8912290" lon="10.2698450">
	<ele>1436.20</ele>
	<time>2025-04-30T07:49:37.000Z</time>
</trkpt>
<trkpt lat="45.8912190" lon="10.2698300">
	<ele>1436.40</ele>
	<time>2025-04-30T07:49:38.000Z</time>
</trkpt>
<trkpt lat="45.8912130" lon="10.2698150">
	<ele>1436.60</ele>
	<time>2025-04-30T07:49:39.000Z</time>
</trkpt>
<trkpt lat="45.8912100" lon="10.2698020">
	<ele>1436.60</ele>
	<time>2025-04-30T07:49:40.000Z</time>
</trkpt>
<trkpt lat="45.8912100" lon="10.2697960">
	<ele>1436.60</ele>
	<time>2025-04-30T07:49:41.000Z</time>
</trkpt>
<trkpt lat="45.8912100" lon="10.2697840">
	<ele>1436.60</ele>
	<time>2025-04-30T07:49:42.000Z</time>
</trkpt>
<trkpt lat="45.8912080" lon="10.2697740">
	<ele>1436.40</ele>
	<time>2025-04-30T07:49:43.000Z</time>
</trkpt>
<trkpt lat="45.8912010" lon="10.2697570">
	<ele>1436.20</ele>
	<time>2025-04-30T07:49:44.000Z</time>
</trkpt>
<trkpt lat="45.8911970" lon="10.2697460">
	<ele>1436.00</ele>
	<time>2025-04-30T07:49:45.000Z</time>
</trkpt>
<trkpt lat="45.8911940" lon="10.2697360">
	<ele>1435.80</ele>
	<time>2025-04-30T07:49:46.000Z</time>
</trkpt>
<trkpt lat="45.8911930" lon="10.2697280">
	<ele>1435.60</ele>
	<time>2025-04-30T07:49:47.000Z</time>
</trkpt>
<trkpt lat="45.8911930" lon="10.2697150">
	<ele>1435.60</ele>
	<time>2025-04-30T07:49:48.000Z</time>
</trkpt>
<trkpt lat="45.8911920" lon="10.2697020">
	<ele>1435.40</ele>
	<time>2025-04-30T07:49:49.000Z</time>
</trkpt>
<trkpt lat="45.8911960" lon="10.2696960">
	<ele>1435.40</ele>
	<time>2025-04-30T07:49:50.000Z</time>
</trkpt>
<trkpt lat="45.8911960" lon="10.2696960">
	<ele>1435.20</ele>
	<time>2025-04-30T07:49:51.000Z</time>
</trkpt>
<trkpt lat="45.8911960" lon="10.2696940">
	<ele>1435.20</ele>
	<time>2025-04-30T07:49:52.000Z</time>
</trkpt>
<trkpt lat="45.8911920" lon="10.2696910">
	<ele>1435.20</ele>
	<time>2025-04-30T07:49:53.000Z</time>
</trkpt>
<trkpt lat="45.8911840" lon="10.2696880">
	<ele>1435.20</ele>
	<time>2025-04-30T07:49:54.000Z</time>
</trkpt>
<trkpt lat="45.8911760" lon="10.2696820">
	<ele>1435.20</ele>
	<time>2025-04-30T07:49:55.000Z</time>
</trkpt>
<trkpt lat="45.8911830" lon="10.2696720">
	<ele>1435.20</ele>
	<time>2025-04-30T07:49:56.000Z</time>
</trkpt>
<trkpt lat="45.8911940" lon="10.2696610">
	<ele>1435.00</ele>
	<time>2025-04-30T07:49:57.000Z</time>
</trkpt>
<trkpt lat="45.8911930" lon="10.2696540">
	<ele>1435.00</ele>
	<time>2025-04-30T07:49:58.000Z</time>
</trkpt>
<trkpt lat="45.8911940" lon="10.2696450">
	<ele>1435.00</ele>
	<time>2025-04-30T07:49:59.000Z</time>
</trkpt>
<trkpt lat="45.8911890" lon="10.2696320">
	<ele>1435.00</ele>
	<time>2025-04-30T07:50:00.000Z</time>
</trkpt>
<trkpt lat="45.8911870" lon="10.2696230">
	<ele>1435.00</ele>
	<time>2025-04-30T07:50:01.000Z</time>
</trkpt>
<trkpt lat="45.8911860" lon="10.2696120">
	<ele>1435.00</ele>
	<time>2025-04-30T07:50:02.000Z</time>
</trkpt>
<trkpt lat="45.8911850" lon="10.2696010">
	<ele>1435.00</ele>
	<time>2025-04-30T07:50:03.000Z</time>
</trkpt>
<trkpt lat="45.8911810" lon="10.2695890">
	<ele>1435.20</ele>
	<time>2025-04-30T07:50:04.000Z</time>
</trkpt>
<trkpt lat="45.8911840" lon="10.2695790">
	<ele>1435.20</ele>
	<time>2025-04-30T07:50:05.000Z</time>
</trkpt>
<trkpt lat="45.8911890" lon="10.2695670">
	<ele>1435.20</ele>
	<time>2025-04-30T07:50:06.000Z</time>
</trkpt>
<trkpt lat="45.8911920" lon="10.2695530">
	<ele>1435.40</ele>
	<time>2025-04-30T07:50:07.000Z</time>
</trkpt>
<trkpt lat="45.8911910" lon="10.2695410">
	<ele>1435.40</ele>
	<time>2025-04-30T07:50:08.000Z</time>
</trkpt>
<trkpt lat="45.8911810" lon="10.2695270">
	<ele>1435.60</ele>
	<time>2025-04-30T07:50:09.000Z</time>
</trkpt>
<trkpt lat="45.8911820" lon="10.2695230">
	<ele>1435.60</ele>
	<time>2025-04-30T07:50:10.000Z</time>
</trkpt>
<trkpt lat="45.8911780" lon="10.2695160">
	<ele>1435.60</ele>
	<time>2025-04-30T07:50:11.000Z</time>
</trkpt>
<trkpt lat="45.8911840" lon="10.2695080">
	<ele>1435.60</ele>
	<time>2025-04-30T07:50:12.000Z</time>
</trkpt>
<trkpt lat="45.8911870" lon="10.2694910">
	<ele>1435.60</ele>
	<time>2025-04-30T07:50:13.000Z</time>
</trkpt>
<trkpt lat="45.8911900" lon="10.2694750">
	<ele>1435.60</ele>
	<time>2025-04-30T07:50:14.000Z</time>
</trkpt>
<trkpt lat="45.8911910" lon="10.2694570">
	<ele>1435.40</ele>
	<time>2025-04-30T07:50:15.000Z</time>
</trkpt>
<trkpt lat="45.8911930" lon="10.2694450">
	<ele>1435.40</ele>
	<time>2025-04-30T07:50:16.000Z</time>
</trkpt>
<trkpt lat="45.8911940" lon="10.2694300">
	<ele>1435.20</ele>
	<time>2025-04-30T07:50:17.000Z</time>
</trkpt>
<trkpt lat="45.8911880" lon="10.2694150">
	<ele>1435.00</ele>
	<time>2025-04-30T07:50:18.000Z</time>
</trkpt>
<trkpt lat="45.8911920" lon="10.2694140">
	<ele>1434.80</ele>
	<time>2025-04-30T07:50:19.000Z</time>
</trkpt>
<trkpt lat="45.8911980" lon="10.2694090">
	<ele>1434.40</ele>
	<time>2025-04-30T07:50:20.000Z</time>
</trkpt>
<trkpt lat="45.8912070" lon="10.2694130">
	<ele>1434.20</ele>
	<time>2025-04-30T07:50:21.000Z</time>
</trkpt>
<trkpt lat="45.8912120" lon="10.2694160">
	<ele>1434.00</ele>
	<time>2025-04-30T07:50:22.000Z</time>
</trkpt>
<trkpt lat="45.8912240" lon="10.2694170">
	<ele>1433.80</ele>
	<time>2025-04-30T07:50:23.000Z</time>
</trkpt>
<trkpt lat="45.8912330" lon="10.2694080">
	<ele>1433.60</ele>
	<time>2025-04-30T07:50:24.000Z</time>
</trkpt>
<trkpt lat="45.8912540" lon="10.2694050">
	<ele>1433.60</ele>
	<time>2025-04-30T07:50:25.000Z</time>
</trkpt>
<trkpt lat="45.8912730" lon="10.2693940">
	<ele>1433.40</ele>
	<time>2025-04-30T07:50:26.000Z</time>
</trkpt>
<trkpt lat="45.8912710" lon="10.2693800">
	<ele>1433.20</ele>
	<time>2025-04-30T07:50:27.000Z</time>
</trkpt>
<trkpt lat="45.8912570" lon="10.2693670">
	<ele>1433.20</ele>
	<time>2025-04-30T07:50:28.000Z</time>
</trkpt>
<trkpt lat="45.8912440" lon="10.2693530">
	<ele>1433.20</ele>
	<time>2025-04-30T07:50:29.000Z</time>
</trkpt>
<trkpt lat="45.8912380" lon="10.2693370">
	<ele>1433.00</ele>
	<time>2025-04-30T07:50:30.000Z</time>
</trkpt>
<trkpt lat="45.8912390" lon="10.2693280">
	<ele>1433.00</ele>
	<time>2025-04-30T07:50:31.000Z</time>
</trkpt>
<trkpt lat="45.8912380" lon="10.2693180">
	<ele>1433.00</ele>
	<time>2025-04-30T07:50:32.000Z</time>
</trkpt>
<trkpt lat="45.8912340" lon="10.2693150">
	<ele>1433.00</ele>
	<time>2025-04-30T07:50:33.000Z</time>
</trkpt>
<trkpt lat="45.8912240" lon="10.2693160">
	<ele>1433.00</ele>
	<time>2025-04-30T07:50:34.000Z</time>
</trkpt>
<trkpt lat="45.8912130" lon="10.2693020">
	<ele>1433.00</ele>
	<time>2025-04-30T07:50:35.000Z</time>
</trkpt>
<trkpt lat="45.8912180" lon="10.2692900">
	<ele>1432.80</ele>
	<time>2025-04-30T07:50:36.000Z</time>
</trkpt>
<trkpt lat="45.8912190" lon="10.2692770">
	<ele>1432.80</ele>
	<time>2025-04-30T07:50:37.000Z</time>
</trkpt>
<trkpt lat="45.8912230" lon="10.2692630">
	<ele>1432.80</ele>
	<time>2025-04-30T07:50:38.000Z</time>
</trkpt>
<trkpt lat="45.8912120" lon="10.2692470">
	<ele>1432.60</ele>
	<time>2025-04-30T07:50:39.000Z</time>
</trkpt>
<trkpt lat="45.8912190" lon="10.2692390">
	<ele>1432.60</ele>
	<time>2025-04-30T07:50:40.000Z</time>
</trkpt>
<trkpt lat="45.8912190" lon="10.2692320">
	<ele>1432.80</ele>
	<time>2025-04-30T07:50:41.000Z</time>
</trkpt>
<trkpt lat="45.8912250" lon="10.2692300">
	<ele>1432.80</ele>
	<time>2025-04-30T07:50:42.000Z</time>
</trkpt>
<trkpt lat="45.8912270" lon="10.2692290">
	<ele>1433.00</ele>
	<time>2025-04-30T07:50:43.000Z</time>
</trkpt>
<trkpt lat="45.8912210" lon="10.2692220">
	<ele>1433.20</ele>
	<time>2025-04-30T07:50:44.000Z</time>
</trkpt>
<trkpt lat="45.8912160" lon="10.2692160">
	<ele>1433.40</ele>
	<time>2025-04-30T07:50:45.000Z</time>
</trkpt>
<trkpt lat="45.8912050" lon="10.2692050">
	<ele>1433.60</ele>
	<time>2025-04-30T07:50:46.000Z</time>
</trkpt>
<trkpt lat="45.8911880" lon="10.2692010">
	<ele>1433.60</ele>
	<time>2025-04-30T07:50:47.000Z</time>
</trkpt>
<trkpt lat="45.8911840" lon="10.2692040">
	<ele>1433.60</ele>
	<time>2025-04-30T07:50:48.000Z</time>
</trkpt>
<trkpt lat="45.8911860" lon="10.2692030">
	<ele>1433.60</ele>
	<time>2025-04-30T07:50:49.000Z</time>
</trkpt>
<trkpt lat="45.8911950" lon="10.2692010">
	<ele>1433.80</ele>
	<time>2025-04-30T07:50:50.000Z</time>
</trkpt>
<trkpt lat="45.8912060" lon="10.2692010">
	<ele>1434.00</ele>
	<time>2025-04-30T07:50:51.000Z</time>
</trkpt>
<trkpt lat="45.8912060" lon="10.2691900">
	<ele>1434.00</ele>
	<time>2025-04-30T07:50:52.000Z</time>
</trkpt>
<trkpt lat="45.8911950" lon="10.2691760">
	<ele>1434.00</ele>
	<time>2025-04-30T07:50:53.000Z</time>
</trkpt>
<trkpt lat="45.8911810" lon="10.2691590">
	<ele>1434.00</ele>
	<time>2025-04-30T07:50:54.000Z</time>
</trkpt>
<trkpt lat="45.8911740" lon="10.2691390">
	<ele>1434.20</ele>
	<time>2025-04-30T07:50:55.000Z</time>
</trkpt>
<trkpt lat="45.8911660" lon="10.2691170">
	<ele>1434.20</ele>
	<time>2025-04-30T07:50:56.000Z</time>
</trkpt>
<trkpt lat="45.8911640" lon="10.2690860">
	<ele>1434.20</ele>
	<time>2025-04-30T07:50:57.000Z</time>
</trkpt>
<trkpt lat="45.8911660" lon="10.2690670">
	<ele>1434.20</ele>
	<time>2025-04-30T07:50:58.000Z</time>
</trkpt>
<trkpt lat="45.8911740" lon="10.2690630">
	<ele>1434.40</ele>
	<time>2025-04-30T07:50:59.000Z</time>
</trkpt>
<trkpt lat="45.8911920" lon="10.2690700">
	<ele>1434.40</ele>
	<time>2025-04-30T07:51:00.000Z</time>
</trkpt>
<trkpt lat="45.8911990" lon="10.2690700">
	<ele>1434.40</ele>
	<time>2025-04-30T07:51:01.000Z</time>
</trkpt>
<trkpt lat="45.8912010" lon="10.2690670">
	<ele>1434.60</ele>
	<time>2025-04-30T07:51:02.000Z</time>
</trkpt>
<trkpt lat="45.8912010" lon="10.2690620">
	<ele>1434.60</ele>
	<time>2025-04-30T07:51:03.000Z</time>
</trkpt>
<trkpt lat="45.8912220" lon="10.2690720">
	<ele>1434.80</ele>
	<time>2025-04-30T07:51:04.000Z</time>
</trkpt>
<trkpt lat="45.8912440" lon="10.2690820">
	<ele>1435.00</ele>
	<time>2025-04-30T07:51:05.000Z</time>
</trkpt>
<trkpt lat="45.8912660" lon="10.2690860">
	<ele>1435.20</ele>
	<time>2025-04-30T07:51:06.000Z</time>
</trkpt>
<trkpt lat="45.8912710" lon="10.2690810">
	<ele>1435.20</ele>
	<time>2025-04-30T07:51:07.000Z</time>
</trkpt>
<trkpt lat="45.8912780" lon="10.2690750">
	<ele>1435.40</ele>
	<time>2025-04-30T07:51:08.000Z</time>
</trkpt>
<trkpt lat="45.8912740" lon="10.2690700">
	<ele>1435.60</ele>
	<time>2025-04-30T07:51:09.000Z</time>
</trkpt>
<trkpt lat="45.8912650" lon="10.2690780">
	<ele>1435.60</ele>
	<time>2025-04-30T07:51:10.000Z</time>
</trkpt>
<trkpt lat="45.8912490" lon="10.2690800">
	<ele>1435.60</ele>
	<time>2025-04-30T07:51:11.000Z</time>
</trkpt>
<trkpt lat="45.8912320" lon="10.2690730">
	<ele>1435.80</ele>
	<time>2025-04-30T07:51:12.000Z</time>
</trkpt>
<trkpt lat="45.8912340" lon="10.2690650">
	<ele>1436.00</ele>
	<time>2025-04-30T07:51:13.000Z</time>
</trkpt>
<trkpt lat="45.8912310" lon="10.2690620">
	<ele>1436.20</ele>
	<time>2025-04-30T07:51:14.000Z</time>
</trkpt>
<trkpt lat="45.8912410" lon="10.2690650">
	<ele>1436.20</ele>
	<time>2025-04-30T07:51:15.000Z</time>
</trkpt>
<trkpt lat="45.8912560" lon="10.2690730">
	<ele>1436.40</ele>
	<time>2025-04-30T07:51:16.000Z</time>
</trkpt>
<trkpt lat="45.8912540" lon="10.2690720">
	<ele>1436.40</ele>
	<time>2025-04-30T07:51:17.000Z</time>
</trkpt>
<trkpt lat="45.8912520" lon="10.2690720">
	<ele>1436.40</ele>
	<time>2025-04-30T07:51:18.000Z</time>
</trkpt>
<trkpt lat="45.8912680" lon="10.2690920">
	<ele>1436.40</ele>
	<time>2025-04-30T07:51:19.000Z</time>
</trkpt>
<trkpt lat="45.8912790" lon="10.2691040">
	<ele>1436.40</ele>
	<time>2025-04-30T07:51:20.000Z</time>
</trkpt>
<trkpt lat="45.8912870" lon="10.2691100">
	<ele>1436.20</ele>
	<time>2025-04-30T07:51:21.000Z</time>
</trkpt>
<trkpt lat="45.8912840" lon="10.2691060">
	<ele>1436.20</ele>
	<time>2025-04-30T07:51:22.000Z</time>
</trkpt>
<trkpt lat="45.8912740" lon="10.2690930">
	<ele>1436.00</ele>
	<time>2025-04-30T07:51:23.000Z</time>
</trkpt>
<trkpt lat="45.8912760" lon="10.2690890">
	<ele>1435.80</ele>
	<time>2025-04-30T07:51:24.000Z</time>
</trkpt>
<trkpt lat="45.8912430" lon="10.2690630">
	<ele>1435.60</ele>
	<time>2025-04-30T07:51:25.000Z</time>
</trkpt>
<trkpt lat="45.8912350" lon="10.2690510">
	<ele>1435.20</ele>
	<time>2025-04-30T07:51:26.000Z</time>
</trkpt>
<trkpt lat="45.8912290" lon="10.2690350">
	<ele>1435.00</ele>
	<time>2025-04-30T07:51:27.000Z</time>
</trkpt>
<trkpt lat="45.8912210" lon="10.2690180">
	<ele>1435.00</ele>
	<time>2025-04-30T07:51:28.000Z</time>
</trkpt>
<trkpt lat="45.8912140" lon="10.2690040">
	<ele>1434.80</ele>
	<time>2025-04-30T07:51:29.000Z</time>
</trkpt>
<trkpt lat="45.8912170" lon="10.2689950">
	<ele>1434.60</ele>
	<time>2025-04-30T07:51:30.000Z</time>
</trkpt>
<trkpt lat="45.8912220" lon="10.2689870">
	<ele>1434.60</ele>
	<time>2025-04-30T07:51:31.000Z</time>
</trkpt>
<trkpt lat="45.8912170" lon="10.2689810">
	<ele>1434.40</ele>
	<time>2025-04-30T07:51:32.000Z</time>
</trkpt>
<trkpt lat="45.8912140" lon="10.2689750">
	<ele>1434.20</ele>
	<time>2025-04-30T07:51:33.000Z</time>
</trkpt>
<trkpt lat="45.8911990" lon="10.2689510">
	<ele>1434.00</ele>
	<time>2025-04-30T07:51:34.000Z</time>
</trkpt>
<trkpt lat="45.8911810" lon="10.2689320">
	<ele>1433.60</ele>
	<time>2025-04-30T07:51:35.000Z</time>
</trkpt>
<trkpt lat="45.8911890" lon="10.2689170">
	<ele>1433.40</ele>
	<time>2025-04-30T07:51:36.000Z</time>
</trkpt>
<trkpt lat="45.8911940" lon="10.2688960">
	<ele>1433.20</ele>
	<time>2025-04-30T07:51:37.000Z</time>
</trkpt>
<trkpt lat="45.8912020" lon="10.2688760">
	<ele>1433.20</ele>
	<time>2025-04-30T07:51:38.000Z</time>
</trkpt>
<trkpt lat="45.8911970" lon="10.2688580">
	<ele>1433.00</ele>
	<time>2025-04-30T07:51:39.000Z</time>
</trkpt>
<trkpt lat="45.8911920" lon="10.2688440">
	<ele>1432.80</ele>
	<time>2025-04-30T07:51:40.000Z</time>
</trkpt>
<trkpt lat="45.8911870" lon="10.2688220">
	<ele>1432.60</ele>
	<time>2025-04-30T07:51:41.000Z</time>
</trkpt>
<trkpt lat="45.8911860" lon="10.2688050">
	<ele>1432.40</ele>
	<time>2025-04-30T07:51:42.000Z</time>
</trkpt>
<trkpt lat="45.8911890" lon="10.2687970">
	<ele>1432.20</ele>
	<time>2025-04-30T07:51:43.000Z</time>
</trkpt>
<trkpt lat="45.8911840" lon="10.2687890">
	<ele>1432.00</ele>
	<time>2025-04-30T07:51:44.000Z</time>
</trkpt>
<trkpt lat="45.8911800" lon="10.2687820">
	<ele>1431.80</ele>
	<time>2025-04-30T07:51:45.000Z</time>
</trkpt>
<trkpt lat="45.8911760" lon="10.2687680">
	<ele>1431.60</ele>
	<time>2025-04-30T07:51:46.000Z</time>
</trkpt>
<trkpt lat="45.8911650" lon="10.2687490">
	<ele>1431.40</ele>
	<time>2025-04-30T07:51:47.000Z</time>
</trkpt>
<trkpt lat="45.8911670" lon="10.2687410">
	<ele>1431.40</ele>
	<time>2025-04-30T07:51:48.000Z</time>
</trkpt>
<trkpt lat="45.8911540" lon="10.2687390">
	<ele>1431.20</ele>
	<time>2025-04-30T07:51:49.000Z</time>
</trkpt>
<trkpt lat="45.8911310" lon="10.2687170">
	<ele>1431.20</ele>
	<time>2025-04-30T07:51:50.000Z</time>
</trkpt>
<trkpt lat="45.8911110" lon="10.2686970">
	<ele>1431.20</ele>
	<time>2025-04-30T07:51:51.000Z</time>
</trkpt>
<trkpt lat="45.8911180" lon="10.2686840">
	<ele>1431.00</ele>
	<time>2025-04-30T07:51:52.000Z</time>
</trkpt>
<trkpt lat="45.8911260" lon="10.2686710">
	<ele>1431.00</ele>
	<time>2025-04-30T07:51:53.000Z</time>
</trkpt>
<trkpt lat="45.8911070" lon="10.2686560">
	<ele>1430.80</ele>
	<time>2025-04-30T07:51:54.000Z</time>
</trkpt>
<trkpt lat="45.8910890" lon="10.2686410">
	<ele>1430.60</ele>
	<time>2025-04-30T07:51:55.000Z</time>
</trkpt>
<trkpt lat="45.8910830" lon="10.2686320">
	<ele>1430.60</ele>
	<time>2025-04-30T07:51:56.000Z</time>
</trkpt>
<trkpt lat="45.8910800" lon="10.2686210">
	<ele>1430.40</ele>
	<time>2025-04-30T07:51:57.000Z</time>
</trkpt>
<trkpt lat="45.8910640" lon="10.2686000">
	<ele>1430.40</ele>
	<time>2025-04-30T07:51:58.000Z</time>
</trkpt>
<trkpt lat="45.8910470" lon="10.2685790">
	<ele>1430.40</ele>
	<time>2025-04-30T07:51:59.000Z</time>
</trkpt>
<trkpt lat="45.8910290" lon="10.2685620">
	<ele>1430.40</ele>
	<time>2025-04-30T07:52:00.000Z</time>
</trkpt>
<trkpt lat="45.8910300" lon="10.2685560">
	<ele>1430.40</ele>
	<time>2025-04-30T07:52:01.000Z</time>
</trkpt>
<trkpt lat="45.8910380" lon="10.2685530">
	<ele>1430.40</ele>
	<time>2025-04-30T07:52:02.000Z</time>
</trkpt>
<trkpt lat="45.8910390" lon="10.2685500">
	<ele>1430.40</ele>
	<time>2025-04-30T07:52:03.000Z</time>
</trkpt>
<trkpt lat="45.8910510" lon="10.2685490">
	<ele>1430.20</ele>
	<time>2025-04-30T07:52:04.000Z</time>
</trkpt>
<trkpt lat="45.8910520" lon="10.2685480">
	<ele>1430.20</ele>
	<time>2025-04-30T07:52:05.000Z</time>
</trkpt>
<trkpt lat="45.8910490" lon="10.2685450">
	<ele>1430.40</ele>
	<time>2025-04-30T07:52:06.000Z</time>
</trkpt>
<trkpt lat="45.8910320" lon="10.2685380">
	<ele>1430.20</ele>
	<time>2025-04-30T07:52:07.000Z</time>
</trkpt>
<trkpt lat="45.8910180" lon="10.2685310">
	<ele>1430.20</ele>
	<time>2025-04-30T07:52:08.000Z</time>
</trkpt>
<trkpt lat="45.8909990" lon="10.2685180">
	<ele>1430.20</ele>
	<time>2025-04-30T07:52:09.000Z</time>
</trkpt>
<trkpt lat="45.8909730" lon="10.2685040">
	<ele>1430.20</ele>
	<time>2025-04-30T07:52:10.000Z</time>
</trkpt>
<trkpt lat="45.8909740" lon="10.2685020">
	<ele>1430.20</ele>
	<time>2025-04-30T07:52:11.000Z</time>
</trkpt>
<trkpt lat="45.8909800" lon="10.2684950">
	<ele>1430.20</ele>
	<time>2025-04-30T07:52:12.000Z</time>
</trkpt>
<trkpt lat="45.8909790" lon="10.2684840">
	<ele>1430.20</ele>
	<time>2025-04-30T07:52:13.000Z</time>
</trkpt>
<trkpt lat="45.8909840" lon="10.2684860">
	<ele>1430.20</ele>
	<time>2025-04-30T07:52:14.000Z</time>
</trkpt>
<trkpt lat="45.8909920" lon="10.2684880">
	<ele>1430.20</ele>
	<time>2025-04-30T07:52:15.000Z</time>
</trkpt>
<trkpt lat="45.8910310" lon="10.2684850">
	<ele>1430.20</ele>
	<time>2025-04-30T07:52:16.000Z</time>
</trkpt>
<trkpt lat="45.8910850" lon="10.2684870">
	<ele>1430.20</ele>
	<time>2025-04-30T07:52:17.000Z</time>
</trkpt>
<trkpt lat="45.8911110" lon="10.2684880">
	<ele>1430.00</ele>
	<time>2025-04-30T07:52:18.000Z</time>
</trkpt>
<trkpt lat="45.8911200" lon="10.2684860">
	<ele>1430.00</ele>
	<time>2025-04-30T07:52:19.000Z</time>
</trkpt>
<trkpt lat="45.8911120" lon="10.2684940">
	<ele>1430.00</ele>
	<time>2025-04-30T07:52:20.000Z</time>
</trkpt>
<trkpt lat="45.8911120" lon="10.2684900">
	<ele>1430.00</ele>
	<time>2025-04-30T07:52:21.000Z</time>
</trkpt>
<trkpt lat="45.8911120" lon="10.2684920">
	<ele>1430.20</ele>
	<time>2025-04-30T07:52:22.000Z</time>
</trkpt>
<trkpt lat="45.8911130" lon="10.2684940">
	<ele>1430.40</ele>
	<time>2025-04-30T07:52:23.000Z</time>
</trkpt>
<trkpt lat="45.8911100" lon="10.2684900">
	<ele>1430.40</ele>
	<time>2025-04-30T07:52:24.000Z</time>
</trkpt>
<trkpt lat="45.8911140" lon="10.2684860">
	<ele>1430.60</ele>
	<time>2025-04-30T07:52:25.000Z</time>
</trkpt>
<trkpt lat="45.8911110" lon="10.2684800">
	<ele>1430.60</ele>
	<time>2025-04-30T07:52:26.000Z</time>
</trkpt>
<trkpt lat="45.8911190" lon="10.2684830">
	<ele>1430.60</ele>
	<time>2025-04-30T07:52:27.000Z</time>
</trkpt>
<trkpt lat="45.8911350" lon="10.2684850">
	<ele>1430.60</ele>
	<time>2025-04-30T07:52:28.000Z</time>
</trkpt>
<trkpt lat="45.8911470" lon="10.2684840">
	<ele>1430.80</ele>
	<time>2025-04-30T07:52:29.000Z</time>
</trkpt>
<trkpt lat="45.8911600" lon="10.2684850">
	<ele>1430.80</ele>
	<time>2025-04-30T07:52:30.000Z</time>
</trkpt>
<trkpt lat="45.8911870" lon="10.2684830">
	<ele>1433.00</ele>
	<time>2025-04-30T07:52:44.000Z</time>
</trkpt>
<trkpt lat="45.8911880" lon="10.2684780">
	<ele>1434.00</ele>
	<time>2025-04-30T07:53:03.000Z</time>
</trkpt>
<trkpt lat="45.8911640" lon="10.2684630">
	<ele>1434.00</ele>
	<time>2025-04-30T07:53:04.000Z</time>
</trkpt>
<trkpt lat="45.8911600" lon="10.2684560">
	<ele>1434.00</ele>
	<time>2025-04-30T07:53:05.000Z</time>
</trkpt>
<trkpt lat="45.8911590" lon="10.2684510">
	<ele>1434.20</ele>
	<time>2025-04-30T07:53:06.000Z</time>
</trkpt>
<trkpt lat="45.8911600" lon="10.2684510">
	<ele>1434.40</ele>
	<time>2025-04-30T07:53:07.000Z</time>
</trkpt>
<trkpt lat="45.8911460" lon="10.2684500">
	<ele>1434.40</ele>
	<time>2025-04-30T07:53:08.000Z</time>
</trkpt>
<trkpt lat="45.8911450" lon="10.2684500">
	<ele>1434.60</ele>
	<time>2025-04-30T07:53:09.000Z</time>
</trkpt>
<trkpt lat="45.8911440" lon="10.2684490">
	<ele>1434.80</ele>
	<time>2025-04-30T07:53:10.000Z</time>
</trkpt>
<trkpt lat="45.8911400" lon="10.2684420">
	<ele>1435.00</ele>
	<time>2025-04-30T07:53:11.000Z</time>
</trkpt>
<trkpt lat="45.8911400" lon="10.2684370">
	<ele>1435.20</ele>
	<time>2025-04-30T07:53:12.000Z</time>
</trkpt>
<trkpt lat="45.8911370" lon="10.2684340">
	<ele>1435.60</ele>
	<time>2025-04-30T07:53:13.000Z</time>
</trkpt>
<trkpt lat="45.8911490" lon="10.2684350">
	<ele>1436.00</ele>
	<time>2025-04-30T07:53:14.000Z</time>
</trkpt>
<trkpt lat="45.8911740" lon="10.2684450">
	<ele>1436.20</ele>
	<time>2025-04-30T07:53:15.000Z</time>
</trkpt>
<trkpt lat="45.8911860" lon="10.2684490">
	<ele>1436.20</ele>
	<time>2025-04-30T07:53:16.000Z</time>
</trkpt>
<trkpt lat="45.8911890" lon="10.2684450">
	<ele>1436.40</ele>
	<time>2025-04-30T07:53:17.000Z</time>
</trkpt>
<trkpt lat="45.8911940" lon="10.2684430">
	<ele>1436.80</ele>
	<time>2025-04-30T07:53:18.000Z</time>
</trkpt>
<trkpt lat="45.8911940" lon="10.2684420">
	<ele>1437.00</ele>
	<time>2025-04-30T07:53:19.000Z</time>
</trkpt>
<trkpt lat="45.8911980" lon="10.2684380">
	<ele>1437.20</ele>
	<time>2025-04-30T07:53:20.000Z</time>
</trkpt>
<trkpt lat="45.8911920" lon="10.2684300">
	<ele>1437.40</ele>
	<time>2025-04-30T07:53:21.000Z</time>
</trkpt>
<trkpt lat="45.8911800" lon="10.2684200">
	<ele>1437.60</ele>
	<time>2025-04-30T07:53:22.000Z</time>
</trkpt>
<trkpt lat="45.8911860" lon="10.2684220">
	<ele>1438.00</ele>
	<time>2025-04-30T07:53:23.000Z</time>
</trkpt>
<trkpt lat="45.8911890" lon="10.2684180">
	<ele>1438.20</ele>
	<time>2025-04-30T07:53:24.000Z</time>
</trkpt>
<trkpt lat="45.8911870" lon="10.2684140">
	<ele>1438.40</ele>
	<time>2025-04-30T07:53:25.000Z</time>
</trkpt>
<trkpt lat="45.8911810" lon="10.2684060">
	<ele>1438.40</ele>
	<time>2025-04-30T07:53:26.000Z</time>
</trkpt>
<trkpt lat="45.8911800" lon="10.2683990">
	<ele>1438.60</ele>
	<time>2025-04-30T07:53:27.000Z</time>
</trkpt>
<trkpt lat="45.8911750" lon="10.2683950">
	<ele>1438.80</ele>
	<time>2025-04-30T07:53:28.000Z</time>
</trkpt>
<trkpt lat="45.8911860" lon="10.2683980">
	<ele>1439.20</ele>
	<time>2025-04-30T07:53:29.000Z</time>
</trkpt>
<trkpt lat="45.8912020" lon="10.2683950">
	<ele>1439.40</ele>
	<time>2025-04-30T07:53:30.000Z</time>
</trkpt>
<trkpt lat="45.8912020" lon="10.2683910">
	<ele>1439.40</ele>
	<time>2025-04-30T07:53:31.000Z</time>
</trkpt>
<trkpt lat="45.8912030" lon="10.2683880">
	<ele>1439.60</ele>
	<time>2025-04-30T07:53:32.000Z</time>
</trkpt>
<trkpt lat="45.8912010" lon="10.2683860">
	<ele>1440.00</ele>
	<time>2025-04-30T07:53:33.000Z</time>
</trkpt>
<trkpt lat="45.8911990" lon="10.2683820">
	<ele>1440.20</ele>
	<time>2025-04-30T07:53:34.000Z</time>
</trkpt>
<trkpt lat="45.8911970" lon="10.2683780">
	<ele>1440.20</ele>
	<time>2025-04-30T07:53:35.000Z</time>
</trkpt>
<trkpt lat="45.8911700" lon="10.2683620">
	<ele>1440.40</ele>
	<time>2025-04-30T07:53:36.000Z</time>
</trkpt>
<trkpt lat="45.8911470" lon="10.2683480">
	<ele>1440.60</ele>
	<time>2025-04-30T07:53:37.000Z</time>
</trkpt>
<trkpt lat="45.8911360" lon="10.2683370">
	<ele>1440.60</ele>
	<time>2025-04-30T07:53:38.000Z</time>
</trkpt>
<trkpt lat="45.8911380" lon="10.2683340">
	<ele>1440.80</ele>
	<time>2025-04-30T07:53:39.000Z</time>
</trkpt>
<trkpt lat="45.8911470" lon="10.2683250">
	<ele>1441.20</ele>
	<time>2025-04-30T07:53:40.000Z</time>
</trkpt>
<trkpt lat="45.8911460" lon="10.2683210">
	<ele>1441.40</ele>
	<time>2025-04-30T07:53:41.000Z</time>
</trkpt>
<trkpt lat="45.8911510" lon="10.2683210">
	<ele>1441.40</ele>
	<time>2025-04-30T07:53:42.000Z</time>
</trkpt>
<trkpt lat="45.8911610" lon="10.2683160">
	<ele>1441.60</ele>
	<time>2025-04-30T07:53:43.000Z</time>
</trkpt>
<trkpt lat="45.8911640" lon="10.2683110">
	<ele>1441.60</ele>
	<time>2025-04-30T07:53:44.000Z</time>
</trkpt>
<trkpt lat="45.8911630" lon="10.2683100">
	<ele>1441.80</ele>
	<time>2025-04-30T07:53:45.000Z</time>
</trkpt>
<trkpt lat="45.8911600" lon="10.2683040">
	<ele>1441.80</ele>
	<time>2025-04-30T07:53:46.000Z</time>
</trkpt>
<trkpt lat="45.8911610" lon="10.2682960">
	<ele>1442.00</ele>
	<time>2025-04-30T07:53:47.000Z</time>
</trkpt>
<trkpt lat="45.8911630" lon="10.2682910">
	<ele>1442.20</ele>
	<time>2025-04-30T07:53:48.000Z</time>
</trkpt>
<trkpt lat="45.8911590" lon="10.2682930">
	<ele>1442.20</ele>
	<time>2025-04-30T07:53:49.000Z</time>
</trkpt>
<trkpt lat="45.8911520" lon="10.2682920">
	<ele>1442.60</ele>
	<time>2025-04-30T07:53:50.000Z</time>
</trkpt>
<trkpt lat="45.8911470" lon="10.2682870">
	<ele>1442.80</ele>
	<time>2025-04-30T07:53:51.000Z</time>
</trkpt>
<trkpt lat="45.8911380" lon="10.2682780">
	<ele>1443.00</ele>
	<time>2025-04-30T07:53:52.000Z</time>
</trkpt>
<trkpt lat="45.8911430" lon="10.2682780">
	<ele>1443.20</ele>
	<time>2025-04-30T07:53:53.000Z</time>
</trkpt>
<trkpt lat="45.8911440" lon="10.2682770">
	<ele>1443.20</ele>
	<time>2025-04-30T07:53:54.000Z</time>
</trkpt>
<trkpt lat="45.8911510" lon="10.2682810">
	<ele>1443.40</ele>
	<time>2025-04-30T07:53:55.000Z</time>
</trkpt>
<trkpt lat="45.8911570" lon="10.2682750">
	<ele>1443.60</ele>
	<time>2025-04-30T07:53:56.000Z</time>
</trkpt>
<trkpt lat="45.8911600" lon="10.2682650">
	<ele>1443.60</ele>
	<time>2025-04-30T07:53:57.000Z</time>
</trkpt>
<trkpt lat="45.8911660" lon="10.2682610">
	<ele>1444.00</ele>
	<time>2025-04-30T07:53:58.000Z</time>
</trkpt>
<trkpt lat="45.8911710" lon="10.2682600">
	<ele>1444.20</ele>
	<time>2025-04-30T07:53:59.000Z</time>
</trkpt>
<trkpt lat="45.8911710" lon="10.2682590">
	<ele>1444.40</ele>
	<time>2025-04-30T07:54:00.000Z</time>
</trkpt>
<trkpt lat="45.8911660" lon="10.2682540">
	<ele>1444.60</ele>
	<time>2025-04-30T07:54:01.000Z</time>
</trkpt>
<trkpt lat="45.8911610" lon="10.2682490">
	<ele>1444.60</ele>
	<time>2025-04-30T07:54:02.000Z</time>
</trkpt>
<trkpt lat="45.8911650" lon="10.2682450">
	<ele>1444.80</ele>
	<time>2025-04-30T07:54:03.000Z</time>
</trkpt>
<trkpt lat="45.8911640" lon="10.2682470">
	<ele>1445.20</ele>
	<time>2025-04-30T07:54:04.000Z</time>
</trkpt>
<trkpt lat="45.8911780" lon="10.2682470">
	<ele>1445.40</ele>
	<time>2025-04-30T07:54:05.000Z</time>
</trkpt>
<trkpt lat="45.8911850" lon="10.2682480">
	<ele>1445.60</ele>
	<time>2025-04-30T07:54:06.000Z</time>
</trkpt>
<trkpt lat="45.8911800" lon="10.2682440">
	<ele>1445.60</ele>
	<time>2025-04-30T07:54:07.000Z</time>
</trkpt>
<trkpt lat="45.8911760" lon="10.2682340">
	<ele>1445.80</ele>
	<time>2025-04-30T07:54:08.000Z</time>
</trkpt>
<trkpt lat="45.8911780" lon="10.2682320">
	<ele>1446.00</ele>
	<time>2025-04-30T07:54:09.000Z</time>
</trkpt>
<trkpt lat="45.8911790" lon="10.2682270">
	<ele>1446.20</ele>
	<time>2025-04-30T07:54:10.000Z</time>
</trkpt>
<trkpt lat="45.8911780" lon="10.2682080">
	<ele>1446.20</ele>
	<time>2025-04-30T07:54:11.000Z</time>
</trkpt>
<trkpt lat="45.8911870" lon="10.2681850">
	<ele>1446.40</ele>
	<time>2025-04-30T07:54:12.000Z</time>
</trkpt>
<trkpt lat="45.8911930" lon="10.2681650">
	<ele>1446.60</ele>
	<time>2025-04-30T07:54:13.000Z</time>
</trkpt>
<trkpt lat="45.8911950" lon="10.2681600">
	<ele>1446.60</ele>
	<time>2025-04-30T07:54:14.000Z</time>
</trkpt>
<trkpt lat="45.8912020" lon="10.2681430">
	<ele>1446.80</ele>
	<time>2025-04-30T07:54:15.000Z</time>
</trkpt>
<trkpt lat="45.8912070" lon="10.2681280">
	<ele>1446.80</ele>
	<time>2025-04-30T07:54:16.000Z</time>
</trkpt>
<trkpt lat="45.8912080" lon="10.2681230">
	<ele>1447.00</ele>
	<time>2025-04-30T07:54:17.000Z</time>
</trkpt>
<trkpt lat="45.8912060" lon="10.2681160">
	<ele>1447.00</ele>
	<time>2025-04-30T07:54:18.000Z</time>
</trkpt>
<trkpt lat="45.8911980" lon="10.2681090">
	<ele>1447.20</ele>
	<time>2025-04-30T07:54:19.000Z</time>
</trkpt>
<trkpt lat="45.8911870" lon="10.2681060">
	<ele>1447.40</ele>
	<time>2025-04-30T07:54:20.000Z</time>
</trkpt>
<trkpt lat="45.8911810" lon="10.2681090">
	<ele>1447.60</ele>
	<time>2025-04-30T07:54:21.000Z</time>
</trkpt>
<trkpt lat="45.8911790" lon="10.2681090">
	<ele>1447.80</ele>
	<time>2025-04-30T07:54:22.000Z</time>
</trkpt>
<trkpt lat="45.8911790" lon="10.2681080">
	<ele>1447.80</ele>
	<time>2025-04-30T07:54:23.000Z</time>
</trkpt>
<trkpt lat="45.8911770" lon="10.2681050">
	<ele>1448.00</ele>
	<time>2025-04-30T07:54:24.000Z</time>
</trkpt>
<trkpt lat="45.8911700" lon="10.2680970">
	<ele>1448.00</ele>
	<time>2025-04-30T07:54:25.000Z</time>
</trkpt>
<trkpt lat="45.8911670" lon="10.2680810">
	<ele>1448.00</ele>
	<time>2025-04-30T07:54:26.000Z</time>
</trkpt>
<trkpt lat="45.8911710" lon="10.2680620">
	<ele>1448.60</ele>
	<time>2025-04-30T07:54:27.000Z</time>
</trkpt>
<trkpt lat="45.8911730" lon="10.2680550">
	<ele>1448.80</ele>
	<time>2025-04-30T07:54:28.000Z</time>
</trkpt>
<trkpt lat="45.8911650" lon="10.2680530">
	<ele>1449.20</ele>
	<time>2025-04-30T07:54:29.000Z</time>
</trkpt>
<trkpt lat="45.8911640" lon="10.2680580">
	<ele>1449.40</ele>
	<time>2025-04-30T07:54:30.000Z</time>
</trkpt>
<trkpt lat="45.8911580" lon="10.2680550">
	<ele>1449.60</ele>
	<time>2025-04-30T07:54:31.000Z</time>
</trkpt>
<trkpt lat="45.8911570" lon="10.2680430">
	<ele>1449.60</ele>
	<time>2025-04-30T07:54:32.000Z</time>
</trkpt>
<trkpt lat="45.8911510" lon="10.2680340">
	<ele>1449.80</ele>
	<time>2025-04-30T07:54:33.000Z</time>
</trkpt>
<trkpt lat="45.8911500" lon="10.2680360">
	<ele>1449.80</ele>
	<time>2025-04-30T07:54:34.000Z</time>
</trkpt>
<trkpt lat="45.8911560" lon="10.2680370">
	<ele>1450.20</ele>
	<time>2025-04-30T07:54:35.000Z</time>
</trkpt>
<trkpt lat="45.8911570" lon="10.2680290">
	<ele>1450.40</ele>
	<time>2025-04-30T07:54:36.000Z</time>
</trkpt>
<trkpt lat="45.8911590" lon="10.2680280">
	<ele>1450.60</ele>
	<time>2025-04-30T07:54:37.000Z</time>
</trkpt>
<trkpt lat="45.8911620" lon="10.2680250">
	<ele>1450.60</ele>
	<time>2025-04-30T07:54:38.000Z</time>
</trkpt>
<trkpt lat="45.8911570" lon="10.2680210">
	<ele>1450.60</ele>
	<time>2025-04-30T07:54:39.000Z</time>
</trkpt>
<trkpt lat="45.8911540" lon="10.2680220">
	<ele>1450.80</ele>
	<time>2025-04-30T07:54:40.000Z</time>
</trkpt>
<trkpt lat="45.8911520" lon="10.2680220">
	<ele>1450.60</ele>
	<time>2025-04-30T07:54:41.000Z</time>
</trkpt>
<trkpt lat="45.8911470" lon="10.2680170">
	<ele>1450.80</ele>
	<time>2025-04-30T07:54:42.000Z</time>
</trkpt>
<trkpt lat="45.8911460" lon="10.2680150">
	<ele>1450.80</ele>
	<time>2025-04-30T07:54:43.000Z</time>
</trkpt>
<trkpt lat="45.8911440" lon="10.2680110">
	<ele>1450.60</ele>
	<time>2025-04-30T07:54:44.000Z</time>
</trkpt>
<trkpt lat="45.8911460" lon="10.2679970">
	<ele>1450.60</ele>
	<time>2025-04-30T07:54:45.000Z</time>
</trkpt>
<trkpt lat="45.8911500" lon="10.2679870">
	<ele>1450.80</ele>
	<time>2025-04-30T07:54:46.000Z</time>
</trkpt>
<trkpt lat="45.8911460" lon="10.2679770">
	<ele>1450.80</ele>
	<time>2025-04-30T07:54:47.000Z</time>
</trkpt>
<trkpt lat="45.8911430" lon="10.2679690">
	<ele>1450.80</ele>
	<time>2025-04-30T07:54:48.000Z</time>
</trkpt>
<trkpt lat="45.8911370" lon="10.2679570">
	<ele>1451.00</ele>
	<time>2025-04-30T07:54:49.000Z</time>
</trkpt>
<trkpt lat="45.8911290" lon="10.2679580">
	<ele>1451.00</ele>
	<time>2025-04-30T07:54:50.000Z</time>
</trkpt>
<trkpt lat="45.8911210" lon="10.2679490">
	<ele>1451.00</ele>
	<time>2025-04-30T07:54:51.000Z</time>
</trkpt>
<trkpt lat="45.8911170" lon="10.2679420">
	<ele>1451.20</ele>
	<time>2025-04-30T07:54:52.000Z</time>
</trkpt>
<trkpt lat="45.8911160" lon="10.2679390">
	<ele>1451.40</ele>
	<time>2025-04-30T07:54:53.000Z</time>
</trkpt>
<trkpt lat="45.8911090" lon="10.2679260">
	<ele>1451.80</ele>
	<time>2025-04-30T07:54:54.000Z</time>
</trkpt>
<trkpt lat="45.8911110" lon="10.2679190">
	<ele>1451.80</ele>
	<time>2025-04-30T07:54:55.000Z</time>
</trkpt>
<trkpt lat="45.8911090" lon="10.2679100">
	<ele>1452.00</ele>
	<time>2025-04-30T07:54:56.000Z</time>
</trkpt>
<trkpt lat="45.8911080" lon="10.2679060">
	<ele>1452.00</ele>
	<time>2025-04-30T07:54:57.000Z</time>
</trkpt>
<trkpt lat="45.8911150" lon="10.2679010">
	<ele>1452.20</ele>
	<time>2025-04-30T07:54:58.000Z</time>
</trkpt>
<trkpt lat="45.8911150" lon="10.2678970">
	<ele>1452.20</ele>
	<time>2025-04-30T07:54:59.000Z</time>
</trkpt>
<trkpt lat="45.8911140" lon="10.2678930">
	<ele>1452.40</ele>
	<time>2025-04-30T07:55:00.000Z</time>
</trkpt>
<trkpt lat="45.8911100" lon="10.2679000">
	<ele>1452.60</ele>
	<time>2025-04-30T07:55:01.000Z</time>
</trkpt>
<trkpt lat="45.8910990" lon="10.2679040">
	<ele>1452.80</ele>
	<time>2025-04-30T07:55:02.000Z</time>
</trkpt>
<trkpt lat="45.8910890" lon="10.2678990">
	<ele>1452.80</ele>
	<time>2025-04-30T07:55:03.000Z</time>
</trkpt>
<trkpt lat="45.8910810" lon="10.2678870">
	<ele>1452.80</ele>
	<time>2025-04-30T07:55:04.000Z</time>
</trkpt>
<trkpt lat="45.8910750" lon="10.2678750">
	<ele>1452.80</ele>
	<time>2025-04-30T07:55:05.000Z</time>
</trkpt>
<trkpt lat="45.8910680" lon="10.2678660">
	<ele>1452.80</ele>
	<time>2025-04-30T07:55:06.000Z</time>
</trkpt>
<trkpt lat="45.8910570" lon="10.2678610">
	<ele>1452.80</ele>
	<time>2025-04-30T07:55:07.000Z</time>
</trkpt>
<trkpt lat="45.8910510" lon="10.2678610">
	<ele>1453.00</ele>
	<time>2025-04-30T07:55:08.000Z</time>
</trkpt>
<trkpt lat="45.8910490" lon="10.2678660">
	<ele>1453.20</ele>
	<time>2025-04-30T07:55:09.000Z</time>
</trkpt>
<trkpt lat="45.8910420" lon="10.2678610">
	<ele>1453.40</ele>
	<time>2025-04-30T07:55:10.000Z</time>
</trkpt>
<trkpt lat="45.8910420" lon="10.2678610">
	<ele>1453.60</ele>
	<time>2025-04-30T07:55:11.000Z</time>
</trkpt>
<trkpt lat="45.8910400" lon="10.2678620">
	<ele>1453.80</ele>
	<time>2025-04-30T07:55:12.000Z</time>
</trkpt>
<trkpt lat="45.8910390" lon="10.2678650">
	<ele>1453.80</ele>
	<time>2025-04-30T07:55:13.000Z</time>
</trkpt>
<trkpt lat="45.8910250" lon="10.2678640">
	<ele>1454.00</ele>
	<time>2025-04-30T07:55:14.000Z</time>
</trkpt>
<trkpt lat="45.8910100" lon="10.2678600">
	<ele>1454.00</ele>
	<time>2025-04-30T07:55:15.000Z</time>
</trkpt>
<trkpt lat="45.8910050" lon="10.2678440">
	<ele>1454.20</ele>
	<time>2025-04-30T07:55:16.000Z</time>
</trkpt>
<trkpt lat="45.8910030" lon="10.2678410">
	<ele>1454.40</ele>
	<time>2025-04-30T07:55:17.000Z</time>
</trkpt>
<trkpt lat="45.8910100" lon="10.2678360">
	<ele>1454.40</ele>
	<time>2025-04-30T07:55:18.000Z</time>
</trkpt>
<trkpt lat="45.8910120" lon="10.2678440">
	<ele>1454.60</ele>
	<time>2025-04-30T07:55:19.000Z</time>
</trkpt>
<trkpt lat="45.8910220" lon="10.2678420">
	<ele>1454.80</ele>
	<time>2025-04-30T07:55:20.000Z</time>
</trkpt>
<trkpt lat="45.8910250" lon="10.2678400">
	<ele>1454.80</ele>
	<time>2025-04-30T07:55:21.000Z</time>
</trkpt>
<trkpt lat="45.8910320" lon="10.2678300">
	<ele>1454.80</ele>
	<time>2025-04-30T07:55:22.000Z</time>
</trkpt>
<trkpt lat="45.8910330" lon="10.2678220">
	<ele>1454.80</ele>
	<time>2025-04-30T07:55:23.000Z</time>
</trkpt>
<trkpt lat="45.8910320" lon="10.2678220">
	<ele>1454.80</ele>
	<time>2025-04-30T07:55:24.000Z</time>
</trkpt>
<trkpt lat="45.8910260" lon="10.2678220">
	<ele>1454.80</ele>
	<time>2025-04-30T07:55:25.000Z</time>
</trkpt>
<trkpt lat="45.8910180" lon="10.2678080">
	<ele>1454.60</ele>
	<time>2025-04-30T07:55:26.000Z</time>
</trkpt>
<trkpt lat="45.8910140" lon="10.2677960">
	<ele>1454.40</ele>
	<time>2025-04-30T07:55:27.000Z</time>
</trkpt>
<trkpt lat="45.8910090" lon="10.2677950">
	<ele>1454.40</ele>
	<time>2025-04-30T07:55:28.000Z</time>
</trkpt>
<trkpt lat="45.8910040" lon="10.2677970">
	<ele>1454.20</ele>
	<time>2025-04-30T07:55:29.000Z</time>
</trkpt>
<trkpt lat="45.8910030" lon="10.2678000">
	<ele>1454.20</ele>
	<time>2025-04-30T07:55:30.000Z</time>
</trkpt>
<trkpt lat="45.8909990" lon="10.2678010">
	<ele>1454.20</ele>
	<time>2025-04-30T07:55:31.000Z</time>
</trkpt>
<trkpt lat="45.8909890" lon="10.2677940">
	<ele>1454.00</ele>
	<time>2025-04-30T07:55:32.000Z</time>
</trkpt>
<trkpt lat="45.8909890" lon="10.2677860">
	<ele>1453.60</ele>
	<time>2025-04-30T07:55:33.000Z</time>
</trkpt>
<trkpt lat="45.8909920" lon="10.2677780">
	<ele>1453.40</ele>
	<time>2025-04-30T07:55:34.000Z</time>
</trkpt>
<trkpt lat="45.8909920" lon="10.2677720">
	<ele>1453.20</ele>
	<time>2025-04-30T07:55:35.000Z</time>
</trkpt>
<trkpt lat="45.8910000" lon="10.2677670">
	<ele>1453.00</ele>
	<time>2025-04-30T07:55:36.000Z</time>
</trkpt>
<trkpt lat="45.8910080" lon="10.2677660">
	<ele>1452.80</ele>
	<time>2025-04-30T07:55:37.000Z</time>
</trkpt>
<trkpt lat="45.8910090" lon="10.2677620">
	<ele>1452.60</ele>
	<time>2025-04-30T07:55:38.000Z</time>
</trkpt>
<trkpt lat="45.8910110" lon="10.2677600">
	<ele>1452.60</ele>
	<time>2025-04-30T07:55:39.000Z</time>
</trkpt>
<trkpt lat="45.8910120" lon="10.2677600">
	<ele>1452.60</ele>
	<time>2025-04-30T07:55:40.000Z</time>
</trkpt>
<trkpt lat="45.8910120" lon="10.2677660">
	<ele>1452.40</ele>
	<time>2025-04-30T07:55:41.000Z</time>
</trkpt>
<trkpt lat="45.8910090" lon="10.2677640">
	<ele>1452.40</ele>
	<time>2025-04-30T07:55:42.000Z</time>
</trkpt>
<trkpt lat="45.8910060" lon="10.2677620">
	<ele>1452.40</ele>
	<time>2025-04-30T07:55:43.000Z</time>
</trkpt>
<trkpt lat="45.8910030" lon="10.2677610">
	<ele>1452.40</ele>
	<time>2025-04-30T07:55:44.000Z</time>
</trkpt>
<trkpt lat="45.8910010" lon="10.2677610">
	<ele>1452.40</ele>
	<time>2025-04-30T07:55:45.000Z</time>
</trkpt>
<trkpt lat="45.8909900" lon="10.2677690">
	<ele>1452.40</ele>
	<time>2025-04-30T07:55:46.000Z</time>
</trkpt>
<trkpt lat="45.8909860" lon="10.2677660">
	<ele>1452.40</ele>
	<time>2025-04-30T07:55:47.000Z</time>
</trkpt>
<trkpt lat="45.8909860" lon="10.2677620">
	<ele>1452.40</ele>
	<time>2025-04-30T07:55:48.000Z</time>
</trkpt>
<trkpt lat="45.8909840" lon="10.2677590">
	<ele>1452.40</ele>
	<time>2025-04-30T07:55:49.000Z</time>
</trkpt>
<trkpt lat="45.8909840" lon="10.2677560">
	<ele>1452.60</ele>
	<time>2025-04-30T07:55:50.000Z</time>
</trkpt>
<trkpt lat="45.8909860" lon="10.2677540">
	<ele>1452.40</ele>
	<time>2025-04-30T07:55:51.000Z</time>
</trkpt>
<trkpt lat="45.8909820" lon="10.2677520">
	<ele>1452.40</ele>
	<time>2025-04-30T07:55:52.000Z</time>
</trkpt>
<trkpt lat="45.8909720" lon="10.2677370">
	<ele>1452.40</ele>
	<time>2025-04-30T07:55:53.000Z</time>
</trkpt>
<trkpt lat="45.8909620" lon="10.2677300">
	<ele>1452.40</ele>
	<time>2025-04-30T07:55:54.000Z</time>
</trkpt>
<trkpt lat="45.8909590" lon="10.2677280">
	<ele>1452.40</ele>
	<time>2025-04-30T07:55:55.000Z</time>
</trkpt>
<trkpt lat="45.8909580" lon="10.2677260">
	<ele>1452.40</ele>
	<time>2025-04-30T07:55:56.000Z</time>
</trkpt>
<trkpt lat="45.8909510" lon="10.2677330">
	<ele>1452.40</ele>
	<time>2025-04-30T07:55:57.000Z</time>
</trkpt>
<trkpt lat="45.8909400" lon="10.2677360">
	<ele>1452.40</ele>
	<time>2025-04-30T07:55:58.000Z</time>
</trkpt>
<trkpt lat="45.8909380" lon="10.2677350">
	<ele>1452.40</ele>
	<time>2025-04-30T07:55:59.000Z</time>
</trkpt>
<trkpt lat="45.8909120" lon="10.2677370">
	<ele>1453.00</ele>
	<time>2025-04-30T07:58:50.000Z</time>
</trkpt>
<trkpt lat="45.8909020" lon="10.2677270">
	<ele>1453.00</ele>
	<time>2025-04-30T07:58:51.000Z</time>
</trkpt>
<trkpt lat="45.8908930" lon="10.2677200">
	<ele>1453.00</ele>
	<time>2025-04-30T07:58:52.000Z</time>
</trkpt>
<trkpt lat="45.8908880" lon="10.2677160">
	<ele>1453.00</ele>
	<time>2025-04-30T07:58:53.000Z</time>
</trkpt>
<trkpt lat="45.8908850" lon="10.2677090">
	<ele>1453.00</ele>
	<time>2025-04-30T07:58:54.000Z</time>
</trkpt>
<trkpt lat="45.8908850" lon="10.2676990">
	<ele>1453.00</ele>
	<time>2025-04-30T07:58:55.000Z</time>
</trkpt>
<trkpt lat="45.8908890" lon="10.2676970">
	<ele>1453.00</ele>
	<time>2025-04-30T07:58:56.000Z</time>
</trkpt>
<trkpt lat="45.8908960" lon="10.2677020">
	<ele>1453.00</ele>
	<time>2025-04-30T07:58:57.000Z</time>
</trkpt>
<trkpt lat="45.8909070" lon="10.2677120">
	<ele>1453.00</ele>
	<time>2025-04-30T07:58:58.000Z</time>
</trkpt>
<trkpt lat="45.8909100" lon="10.2677120">
	<ele>1453.00</ele>
	<time>2025-04-30T07:58:59.000Z</time>
</trkpt>
<trkpt lat="45.8909110" lon="10.2677040">
	<ele>1453.00</ele>
	<time>2025-04-30T07:59:00.000Z</time>
</trkpt>
<trkpt lat="45.8909090" lon="10.2676890">
	<ele>1453.00</ele>
	<time>2025-04-30T07:59:01.000Z</time>
</trkpt>
<trkpt lat="45.8909050" lon="10.2676730">
	<ele>1453.00</ele>
	<time>2025-04-30T07:59:02.000Z</time>
</trkpt>
<trkpt lat="45.8908990" lon="10.2676570">
	<ele>1453.00</ele>
	<time>2025-04-30T07:59:03.000Z</time>
</trkpt>
<trkpt lat="45.8908890" lon="10.2676480">
	<ele>1453.00</ele>
	<time>2025-04-30T07:59:04.000Z</time>
</trkpt>
<trkpt lat="45.8908840" lon="10.2676400">
	<ele>1453.00</ele>
	<time>2025-04-30T07:59:05.000Z</time>
</trkpt>
<trkpt lat="45.8908790" lon="10.2676250">
	<ele>1453.00</ele>
	<time>2025-04-30T07:59:06.000Z</time>
</trkpt>
<trkpt lat="45.8908740" lon="10.2676120">
	<ele>1453.00</ele>
	<time>2025-04-30T07:59:07.000Z</time>
</trkpt>
<trkpt lat="45.8908760" lon="10.2676030">
	<ele>1453.00</ele>
	<time>2025-04-30T07:59:08.000Z</time>
</trkpt>
<trkpt lat="45.8908750" lon="10.2675890">
	<ele>1453.00</ele>
	<time>2025-04-30T07:59:09.000Z</time>
</trkpt>
<trkpt lat="45.8908710" lon="10.2675670">
	<ele>1453.00</ele>
	<time>2025-04-30T07:59:10.000Z</time>
</trkpt>
<trkpt lat="45.8908640" lon="10.2675570">
	<ele>1453.00</ele>
	<time>2025-04-30T07:59:11.000Z</time>
</trkpt>
<trkpt lat="45.8908540" lon="10.2675470">
	<ele>1453.00</ele>
	<time>2025-04-30T07:59:12.000Z</time>
</trkpt>
<trkpt lat="45.8908440" lon="10.2675440">
	<ele>1453.00</ele>
	<time>2025-04-30T07:59:13.000Z</time>
</trkpt>
<trkpt lat="45.8908410" lon="10.2675430">
	<ele>1453.00</ele>
	<time>2025-04-30T07:59:14.000Z</time>
</trkpt>
<trkpt lat="45.8908380" lon="10.2675450">
	<ele>1452.00</ele>
	<time>2025-04-30T07:59:15.000Z</time>
</trkpt>
<trkpt lat="45.8908280" lon="10.2675370">
	<ele>1451.40</ele>
	<time>2025-04-30T07:59:16.000Z</time>
</trkpt>
<trkpt lat="45.8908220" lon="10.2675260">
	<ele>1451.00</ele>
	<time>2025-04-30T07:59:17.000Z</time>
</trkpt>
<trkpt lat="45.8908230" lon="10.2675190">
	<ele>1451.00</ele>
	<time>2025-04-30T07:59:18.000Z</time>
</trkpt>
<trkpt lat="45.8908190" lon="10.2675180">
	<ele>1451.00</ele>
	<time>2025-04-30T07:59:19.000Z</time>
</trkpt>
<trkpt lat="45.8908390" lon="10.2675070">
	<ele>1451.00</ele>
	<time>2025-04-30T07:59:20.000Z</time>
</trkpt>
<trkpt lat="45.8908500" lon="10.2675030">
	<ele>1451.00</ele>
	<time>2025-04-30T07:59:21.000Z</time>
</trkpt>
<trkpt lat="45.8908620" lon="10.2674920">
	<ele>1451.00</ele>
	<time>2025-04-30T07:59:22.000Z</time>
</trkpt>
<trkpt lat="45.8908690" lon="10.2674820">
	<ele>1450.80</ele>
	<time>2025-04-30T07:59:23.000Z</time>
</trkpt>
<trkpt lat="45.8908680" lon="10.2674650">
	<ele>1450.80</ele>
	<time>2025-04-30T07:59:24.000Z</time>
</trkpt>
<trkpt lat="45.8908770" lon="10.2674470">
	<ele>1450.80</ele>
	<time>2025-04-30T07:59:25.000Z</time>
</trkpt>
<trkpt lat="45.8908870" lon="10.2674410">
	<ele>1450.60</ele>
	<time>2025-04-30T07:59:26.000Z</time>
</trkpt>
<trkpt lat="45.8908860" lon="10.2674450">
	<ele>1450.20</ele>
	<time>2025-04-30T07:59:27.000Z</time>
</trkpt>
<trkpt lat="45.8908850" lon="10.2674430">
	<ele>1449.80</ele>
	<time>2025-04-30T07:59:28.000Z</time>
</trkpt>
<trkpt lat="45.8908940" lon="10.2674390">
	<ele>1449.60</ele>
	<time>2025-04-30T07:59:29.000Z</time>
</trkpt>
<trkpt lat="45.8908950" lon="10.2674410">
	<ele>1449.40</ele>
	<time>2025-04-30T07:59:30.000Z</time>
</trkpt>
<trkpt lat="45.8909020" lon="10.2674340">
	<ele>1449.20</ele>
	<time>2025-04-30T07:59:31.000Z</time>
</trkpt>
<trkpt lat="45.8908970" lon="10.2674240">
	<ele>1449.00</ele>
	<time>2025-04-30T07:59:32.000Z</time>
</trkpt>
<trkpt lat="45.8909000" lon="10.2674090">
	<ele>1448.60</ele>
	<time>2025-04-30T07:59:33.000Z</time>
</trkpt>
<trkpt lat="45.8909070" lon="10.2673820">
	<ele>1448.60</ele>
	<time>2025-04-30T07:59:34.000Z</time>
</trkpt>
<trkpt lat="45.8909060" lon="10.2673440">
	<ele>1448.20</ele>
	<time>2025-04-30T07:59:35.000Z</time>
</trkpt>
<trkpt lat="45.8909160" lon="10.2673060">
	<ele>1448.20</ele>
	<time>2025-04-30T07:59:36.000Z</time>
</trkpt>
<trkpt lat="45.8909080" lon="10.2672770">
	<ele>1448.00</ele>
	<time>2025-04-30T07:59:37.000Z</time>
</trkpt>
<trkpt lat="45.8909060" lon="10.2672640">
	<ele>1447.80</ele>
	<time>2025-04-30T07:59:38.000Z</time>
</trkpt>
<trkpt lat="45.8909020" lon="10.2672550">
	<ele>1447.80</ele>
	<time>2025-04-30T07:59:39.000Z</time>
</trkpt>
<trkpt lat="45.8909070" lon="10.2672330">
	<ele>1447.60</ele>
	<time>2025-04-30T07:59:40.000Z</time>
</trkpt>
<trkpt lat="45.8909100" lon="10.2672090">
	<ele>1447.40</ele>
	<time>2025-04-30T07:59:41.000Z</time>
</trkpt>
<trkpt lat="45.8909300" lon="10.2672100">
	<ele>1447.20</ele>
	<time>2025-04-30T07:59:42.000Z</time>
</trkpt>
<trkpt lat="45.8909250" lon="10.2672110">
	<ele>1447.00</ele>
	<time>2025-04-30T07:59:43.000Z</time>
</trkpt>
<trkpt lat="45.8909180" lon="10.2672100">
	<ele>1446.80</ele>
	<time>2025-04-30T07:59:44.000Z</time>
</trkpt>
<trkpt lat="45.8909190" lon="10.2671990">
	<ele>1446.40</ele>
	<time>2025-04-30T07:59:45.000Z</time>
</trkpt>
<trkpt lat="45.8909160" lon="10.2671890">
	<ele>1446.20</ele>
	<time>2025-04-30T07:59:46.000Z</time>
</trkpt>
<trkpt lat="45.8909170" lon="10.2671810">
	<ele>1445.80</ele>
	<time>2025-04-30T07:59:47.000Z</time>
</trkpt>
<trkpt lat="45.8909080" lon="10.2671760">
	<ele>1445.60</ele>
	<time>2025-04-30T07:59:48.000Z</time>
</trkpt>
<trkpt lat="45.8908890" lon="10.2671730">
	<ele>1445.40</ele>
	<time>2025-04-30T07:59:49.000Z</time>
</trkpt>
<trkpt lat="45.8908700" lon="10.2671780">
	<ele>1445.40</ele>
	<time>2025-04-30T07:59:50.000Z</time>
</trkpt>
<trkpt lat="45.8908640" lon="10.2671730">
	<ele>1445.00</ele>
	<time>2025-04-30T07:59:51.000Z</time>
</trkpt>
<trkpt lat="45.8908610" lon="10.2671630">
	<ele>1445.00</ele>
	<time>2025-04-30T07:59:52.000Z</time>
</trkpt>
<trkpt lat="45.8908590" lon="10.2671570">
	<ele>1444.80</ele>
	<time>2025-04-30T07:59:53.000Z</time>
</trkpt>
<trkpt lat="45.8908570" lon="10.2671520">
	<ele>1444.60</ele>
	<time>2025-04-30T07:59:54.000Z</time>
</trkpt>
<trkpt lat="45.8908600" lon="10.2671410">
	<ele>1444.20</ele>
	<time>2025-04-30T07:59:55.000Z</time>
</trkpt>
<trkpt lat="45.8908570" lon="10.2671340">
	<ele>1444.00</ele>
	<time>2025-04-30T07:59:56.000Z</time>
</trkpt>
<trkpt lat="45.8908560" lon="10.2671290">
	<ele>1443.80</ele>
	<time>2025-04-30T07:59:57.000Z</time>
</trkpt>
<trkpt lat="45.8908520" lon="10.2671240">
	<ele>1443.40</ele>
	<time>2025-04-30T07:59:58.000Z</time>
</trkpt>
<trkpt lat="45.8908510" lon="10.2671160">
	<ele>1443.20</ele>
	<time>2025-04-30T07:59:59.000Z</time>
</trkpt>
<trkpt lat="45.8908570" lon="10.2671040">
	<ele>1443.00</ele>
	<time>2025-04-30T08:00:00.000Z</time>
</trkpt>
<trkpt lat="45.8908570" lon="10.2670950">
	<ele>1442.80</ele>
	<time>2025-04-30T08:00:01.000Z</time>
</trkpt>
<trkpt lat="45.8908550" lon="10.2670860">
	<ele>1442.60</ele>
	<time>2025-04-30T08:00:02.000Z</time>
</trkpt>
<trkpt lat="45.8908510" lon="10.2670710">
	<ele>1442.40</ele>
	<time>2025-04-30T08:00:03.000Z</time>
</trkpt>
<trkpt lat="45.8908490" lon="10.2670570">
	<ele>1442.20</ele>
	<time>2025-04-30T08:00:04.000Z</time>
</trkpt>
<trkpt lat="45.8908520" lon="10.2670540">
	<ele>1441.80</ele>
	<time>2025-04-30T08:00:05.000Z</time>
</trkpt>
<trkpt lat="45.8908420" lon="10.2670470">
	<ele>1441.40</ele>
	<time>2025-04-30T08:00:06.000Z</time>
</trkpt>
<trkpt lat="45.8908400" lon="10.2670410">
	<ele>1441.00</ele>
	<time>2025-04-30T08:00:07.000Z</time>
</trkpt>
<trkpt lat="45.8908390" lon="10.2670390">
	<ele>1440.80</ele>
	<time>2025-04-30T08:00:08.000Z</time>
</trkpt>
<trkpt lat="45.8908360" lon="10.2670370">
	<ele>1440.60</ele>
	<time>2025-04-30T08:00:09.000Z</time>
</trkpt>
<trkpt lat="45.8908360" lon="10.2670500">
	<ele>1440.60</ele>
	<time>2025-04-30T08:00:10.000Z</time>
</trkpt>
<trkpt lat="45.8908340" lon="10.2670530">
	<ele>1440.60</ele>
	<time>2025-04-30T08:00:11.000Z</time>
</trkpt>
<trkpt lat="45.8908330" lon="10.2670550">
	<ele>1440.40</ele>
	<time>2025-04-30T08:00:12.000Z</time>
</trkpt>
<trkpt lat="45.8908270" lon="10.2670310">
	<ele>1440.40</ele>
	<time>2025-04-30T08:00:13.000Z</time>
</trkpt>
<trkpt lat="45.8908200" lon="10.2670120">
	<ele>1440.40</ele>
	<time>2025-04-30T08:00:14.000Z</time>
</trkpt>
<trkpt lat="45.8908180" lon="10.2669910">
	<ele>1440.40</ele>
	<time>2025-04-30T08:00:15.000Z</time>
</trkpt>
<trkpt lat="45.8908130" lon="10.2669840">
	<ele>1440.20</ele>
	<time>2025-04-30T08:00:16.000Z</time>
</trkpt>
<trkpt lat="45.8908120" lon="10.2669810">
	<ele>1440.20</ele>
	<time>2025-04-30T08:00:17.000Z</time>
</trkpt>
<trkpt lat="45.8908190" lon="10.2669930">
	<ele>1440.20</ele>
	<time>2025-04-30T08:00:18.000Z</time>
</trkpt>
<trkpt lat="45.8908210" lon="10.2669940">
	<ele>1440.20</ele>
	<time>2025-04-30T08:00:19.000Z</time>
</trkpt>
<trkpt lat="45.8908210" lon="10.2669930">
	<ele>1440.20</ele>
	<time>2025-04-30T08:00:20.000Z</time>
</trkpt>
<trkpt lat="45.8908180" lon="10.2669880">
	<ele>1440.20</ele>
	<time>2025-04-30T08:00:21.000Z</time>
</trkpt>
<trkpt lat="45.8908060" lon="10.2669850">
	<ele>1440.20</ele>
	<time>2025-04-30T08:00:22.000Z</time>
</trkpt>
<trkpt lat="45.8907960" lon="10.2669850">
	<ele>1440.20</ele>
	<time>2025-04-30T08:00:23.000Z</time>
</trkpt>
<trkpt lat="45.8907890" lon="10.2669820">
	<ele>1440.20</ele>
	<time>2025-04-30T08:00:24.000Z</time>
</trkpt>
<trkpt lat="45.8907810" lon="10.2669640">
	<ele>1440.20</ele>
	<time>2025-04-30T08:00:25.000Z</time>
</trkpt>
<trkpt lat="45.8907860" lon="10.2669600">
	<ele>1440.00</ele>
	<time>2025-04-30T08:00:26.000Z</time>
</trkpt>
<trkpt lat="45.8907880" lon="10.2669570">
	<ele>1439.60</ele>
	<time>2025-04-30T08:00:27.000Z</time>
</trkpt>
<trkpt lat="45.8907810" lon="10.2669410">
	<ele>1439.40</ele>
	<time>2025-04-30T08:00:28.000Z</time>
</trkpt>
<trkpt lat="45.8907720" lon="10.2669160">
	<ele>1439.20</ele>
	<time>2025-04-30T08:00:29.000Z</time>
</trkpt>
<trkpt lat="45.8907650" lon="10.2668910">
	<ele>1439.00</ele>
	<time>2025-04-30T08:00:30.000Z</time>
</trkpt>
<trkpt lat="45.8907540" lon="10.2668650">
	<ele>1438.80</ele>
	<time>2025-04-30T08:00:31.000Z</time>
</trkpt>
<trkpt lat="45.8907440" lon="10.2668440">
	<ele>1438.80</ele>
	<time>2025-04-30T08:00:32.000Z</time>
</trkpt>
<trkpt lat="45.8907340" lon="10.2668300">
	<ele>1438.60</ele>
	<time>2025-04-30T08:00:33.000Z</time>
</trkpt>
<trkpt lat="45.8907300" lon="10.2668250">
	<ele>1438.60</ele>
	<time>2025-04-30T08:00:34.000Z</time>
</trkpt>
<trkpt lat="45.8907150" lon="10.2668200">
	<ele>1438.40</ele>
	<time>2025-04-30T08:00:35.000Z</time>
</trkpt>
<trkpt lat="45.8907090" lon="10.2668170">
	<ele>1438.20</ele>
	<time>2025-04-30T08:00:36.000Z</time>
</trkpt>
<trkpt lat="45.8907050" lon="10.2668150">
	<ele>1438.00</ele>
	<time>2025-04-30T08:00:37.000Z</time>
</trkpt>
<trkpt lat="45.8906950" lon="10.2668080">
	<ele>1437.60</ele>
	<time>2025-04-30T08:00:38.000Z</time>
</trkpt>
<trkpt lat="45.8906900" lon="10.2668050">
	<ele>1437.40</ele>
	<time>2025-04-30T08:00:39.000Z</time>
</trkpt>
<trkpt lat="45.8906890" lon="10.2667960">
	<ele>1437.00</ele>
	<time>2025-04-30T08:00:40.000Z</time>
</trkpt>
<trkpt lat="45.8906850" lon="10.2667830">
	<ele>1436.80</ele>
	<time>2025-04-30T08:00:41.000Z</time>
</trkpt>
<trkpt lat="45.8906770" lon="10.2667790">
	<ele>1436.40</ele>
	<time>2025-04-30T08:00:42.000Z</time>
</trkpt>
<trkpt lat="45.8906710" lon="10.2667770">
	<ele>1436.40</ele>
	<time>2025-04-30T08:00:43.000Z</time>
</trkpt>
<trkpt lat="45.8906630" lon="10.2667610">
	<ele>1436.00</ele>
	<time>2025-04-30T08:00:44.000Z</time>
</trkpt>
<trkpt lat="45.8906560" lon="10.2667510">
	<ele>1435.80</ele>
	<time>2025-04-30T08:00:45.000Z</time>
</trkpt>
<trkpt lat="45.8906500" lon="10.2667510">
	<ele>1435.40</ele>
	<time>2025-04-30T08:00:46.000Z</time>
</trkpt>
<trkpt lat="45.8906350" lon="10.2667540">
	<ele>1435.20</ele>
	<time>2025-04-30T08:00:47.000Z</time>
</trkpt>
<trkpt lat="45.8906210" lon="10.2667530">
	<ele>1434.80</ele>
	<time>2025-04-30T08:00:48.000Z</time>
</trkpt>
<trkpt lat="45.8906060" lon="10.2667480">
	<ele>1434.40</ele>
	<time>2025-04-30T08:00:49.000Z</time>
</trkpt>
<trkpt lat="45.8905920" lon="10.2667390">
	<ele>1434.20</ele>
	<time>2025-04-30T08:00:50.000Z</time>
</trkpt>
<trkpt lat="45.8905910" lon="10.2667250">
	<ele>1433.80</ele>
	<time>2025-04-30T08:00:51.000Z</time>
</trkpt>
<trkpt lat="45.8905940" lon="10.2667090">
	<ele>1433.80</ele>
	<time>2025-04-30T08:00:52.000Z</time>
</trkpt>
<trkpt lat="45.8905910" lon="10.2667010">
	<ele>1433.60</ele>
	<time>2025-04-30T08:00:53.000Z</time>
</trkpt>
<trkpt lat="45.8905840" lon="10.2667070">
	<ele>1433.40</ele>
	<time>2025-04-30T08:00:54.000Z</time>
</trkpt>
<trkpt lat="45.8905680" lon="10.2667110">
	<ele>1432.80</ele>
	<time>2025-04-30T08:00:55.000Z</time>
</trkpt>
<trkpt lat="45.8905600" lon="10.2667140">
	<ele>1432.60</ele>
	<time>2025-04-30T08:00:56.000Z</time>
</trkpt>
<trkpt lat="45.8905450" lon="10.2667130">
	<ele>1432.40</ele>
	<time>2025-04-30T08:00:57.000Z</time>
</trkpt>
<trkpt lat="45.8905380" lon="10.2667120">
	<ele>1432.40</ele>
	<time>2025-04-30T08:00:58.000Z</time>
</trkpt>
<trkpt lat="45.8905360" lon="10.2667080">
	<ele>1432.40</ele>
	<time>2025-04-30T08:00:59.000Z</time>
</trkpt>
<trkpt lat="45.8905360" lon="10.2667060">
	<ele>1432.20</ele>
	<time>2025-04-30T08:01:00.000Z</time>
</trkpt>
<trkpt lat="45.8905280" lon="10.2667130">
	<ele>1432.20</ele>
	<time>2025-04-30T08:01:01.000Z</time>
</trkpt>
<trkpt lat="45.8905180" lon="10.2667150">
	<ele>1432.00</ele>
	<time>2025-04-30T08:01:02.000Z</time>
</trkpt>
<trkpt lat="45.8905060" lon="10.2667060">
	<ele>1431.80</ele>
	<time>2025-04-30T08:01:03.000Z</time>
</trkpt>
<trkpt lat="45.8904900" lon="10.2666630">
	<ele>1429.40</ele>
	<time>2025-04-30T08:01:52.000Z</time>
</trkpt>
<trkpt lat="45.8904760" lon="10.2666390">
	<ele>1429.20</ele>
	<time>2025-04-30T08:01:53.000Z</time>
</trkpt>
<trkpt lat="45.8904670" lon="10.2666360">
	<ele>1429.20</ele>
	<time>2025-04-30T08:01:54.000Z</time>
</trkpt>
<trkpt lat="45.8904630" lon="10.2666330">
	<ele>1429.00</ele>
	<time>2025-04-30T08:01:55.000Z</time>
</trkpt>
<trkpt lat="45.8904560" lon="10.2666270">
	<ele>1429.00</ele>
	<time>2025-04-30T08:01:56.000Z</time>
</trkpt>
<trkpt lat="45.8904530" lon="10.2666230">
	<ele>1428.80</ele>
	<time>2025-04-30T08:01:57.000Z</time>
</trkpt>
<trkpt lat="45.8904450" lon="10.2666220">
	<ele>1428.40</ele>
	<time>2025-04-30T08:01:58.000Z</time>
</trkpt>
<trkpt lat="45.8904380" lon="10.2666150">
	<ele>1428.20</ele>
	<time>2025-04-30T08:01:59.000Z</time>
</trkpt>
<trkpt lat="45.8904430" lon="10.2666090">
	<ele>1428.00</ele>
	<time>2025-04-30T08:02:00.000Z</time>
</trkpt>
<trkpt lat="45.8904460" lon="10.2666080">
	<ele>1427.80</ele>
	<time>2025-04-30T08:02:01.000Z</time>
</trkpt>
<trkpt lat="45.8904410" lon="10.2665900">
	<ele>1427.60</ele>
	<time>2025-04-30T08:02:02.000Z</time>
</trkpt>
<trkpt lat="45.8904340" lon="10.2665790">
	<ele>1427.20</ele>
	<time>2025-04-30T08:02:03.000Z</time>
</trkpt>
<trkpt lat="45.8904300" lon="10.2665750">
	<ele>1427.00</ele>
	<time>2025-04-30T08:02:04.000Z</time>
</trkpt>
<trkpt lat="45.8904290" lon="10.2665750">
	<ele>1426.60</ele>
	<time>2025-04-30T08:02:05.000Z</time>
</trkpt>
<trkpt lat="45.8904330" lon="10.2665450">
	<ele>1426.40</ele>
	<time>2025-04-30T08:02:06.000Z</time>
</trkpt>
<trkpt lat="45.8904380" lon="10.2665370">
	<ele>1426.20</ele>
	<time>2025-04-30T08:02:07.000Z</time>
</trkpt>
<trkpt lat="45.8904400" lon="10.2665350">
	<ele>1425.80</ele>
	<time>2025-04-30T08:02:08.000Z</time>
</trkpt>
<trkpt lat="45.8904360" lon="10.2665330">
	<ele>1425.60</ele>
	<time>2025-04-30T08:02:09.000Z</time>
</trkpt>
<trkpt lat="45.8904310" lon="10.2665210">
	<ele>1425.60</ele>
	<time>2025-04-30T08:02:10.000Z</time>
</trkpt>
<trkpt lat="45.8904300" lon="10.2665200">
	<ele>1425.40</ele>
	<time>2025-04-30T08:02:11.000Z</time>
</trkpt>
<trkpt lat="45.8904330" lon="10.2665190">
	<ele>1425.40</ele>
	<time>2025-04-30T08:02:12.000Z</time>
</trkpt>
<trkpt lat="45.8904400" lon="10.2665150">
	<ele>1425.00</ele>
	<time>2025-04-30T08:02:13.000Z</time>
</trkpt>
<trkpt lat="45.8904480" lon="10.2665110">
	<ele>1424.60</ele>
	<time>2025-04-30T08:02:14.000Z</time>
</trkpt>
<trkpt lat="45.8904410" lon="10.2665120">
	<ele>1424.20</ele>
	<time>2025-04-30T08:02:15.000Z</time>
</trkpt>
<trkpt lat="45.8904270" lon="10.2665130">
	<ele>1424.20</ele>
	<time>2025-04-30T08:02:16.000Z</time>
</trkpt>
<trkpt lat="45.8904170" lon="10.2665020">
	<ele>1424.00</ele>
	<time>2025-04-30T08:02:17.000Z</time>
</trkpt>
<trkpt lat="45.8904120" lon="10.2664950">
	<ele>1423.80</ele>
	<time>2025-04-30T08:02:18.000Z</time>
</trkpt>
<trkpt lat="45.8904070" lon="10.2664920">
	<ele>1423.60</ele>
	<time>2025-04-30T08:02:19.000Z</time>
</trkpt>
<trkpt lat="45.8903920" lon="10.2664930">
	<ele>1423.00</ele>
	<time>2025-04-30T08:02:20.000Z</time>
</trkpt>
<trkpt lat="45.8903850" lon="10.2664910">
	<ele>1422.40</ele>
	<time>2025-04-30T08:02:21.000Z</time>
</trkpt>
<trkpt lat="45.8903870" lon="10.2664780">
	<ele>1422.20</ele>
	<time>2025-04-30T08:02:22.000Z</time>
</trkpt>
<trkpt lat="45.8903870" lon="10.2664700">
	<ele>1422.00</ele>
	<time>2025-04-30T08:02:23.000Z</time>
</trkpt>
<trkpt lat="45.8903870" lon="10.2664660">
	<ele>1421.80</ele>
	<time>2025-04-30T08:02:24.000Z</time>
</trkpt>
<trkpt lat="45.8903820" lon="10.2664650">
	<ele>1421.40</ele>
	<time>2025-04-30T08:02:25.000Z</time>
</trkpt>
<trkpt lat="45.8903780" lon="10.2664650">
	<ele>1421.00</ele>
	<time>2025-04-30T08:02:26.000Z</time>
</trkpt>
<trkpt lat="45.8903710" lon="10.2664580">
	<ele>1420.80</ele>
	<time>2025-04-30T08:02:27.000Z</time>
</trkpt>
<trkpt lat="45.8903640" lon="10.2664530">
	<ele>1420.80</ele>
	<time>2025-04-30T08:02:28.000Z</time>
</trkpt>
<trkpt lat="45.8903580" lon="10.2664470">
	<ele>1420.60</ele>
	<time>2025-04-30T08:02:29.000Z</time>
</trkpt>
<trkpt lat="45.8903510" lon="10.2664410">
	<ele>1420.40</ele>
	<time>2025-04-30T08:02:30.000Z</time>
</trkpt>
<trkpt lat="45.8903490" lon="10.2664470">
	<ele>1420.00</ele>
	<time>2025-04-30T08:02:31.000Z</time>
</trkpt>
<trkpt lat="45.8903480" lon="10.2664540">
	<ele>1419.40</ele>
	<time>2025-04-30T08:02:32.000Z</time>
</trkpt>
<trkpt lat="45.8903400" lon="10.2664480">
	<ele>1419.20</ele>
	<time>2025-04-30T08:02:33.000Z</time>
</trkpt>
<trkpt lat="45.8903380" lon="10.2664460">
	<ele>1418.80</ele>
	<time>2025-04-30T08:02:34.000Z</time>
</trkpt>
<trkpt lat="45.8903350" lon="10.2664290">
	<ele>1418.60</ele>
	<time>2025-04-30T08:02:35.000Z</time>
</trkpt>
<trkpt lat="45.8903320" lon="10.2664150">
	<ele>1418.40</ele>
	<time>2025-04-30T08:02:36.000Z</time>
</trkpt>
<trkpt lat="45.8903300" lon="10.2664090">
	<ele>1418.20</ele>
	<time>2025-04-30T08:02:37.000Z</time>
</trkpt>
<trkpt lat="45.8903350" lon="10.2664040">
	<ele>1418.20</ele>
	<time>2025-04-30T08:02:38.000Z</time>
</trkpt>
<trkpt lat="45.8903340" lon="10.2663940">
	<ele>1418.00</ele>
	<time>2025-04-30T08:02:39.000Z</time>
</trkpt>
<trkpt lat="45.8903330" lon="10.2663850">
	<ele>1417.80</ele>
	<time>2025-04-30T08:02:40.000Z</time>
</trkpt>
<trkpt lat="45.8903290" lon="10.2663840">
	<ele>1417.60</ele>
	<time>2025-04-30T08:02:41.000Z</time>
</trkpt>
<trkpt lat="45.8903240" lon="10.2663740">
	<ele>1417.40</ele>
	<time>2025-04-30T08:02:42.000Z</time>
</trkpt>
<trkpt lat="45.8902930" lon="10.2662870">
	<ele>1421.20</ele>
	<time>2025-04-30T08:04:13.000Z</time>
</trkpt>
<trkpt lat="45.8902910" lon="10.2662810">
	<ele>1421.40</ele>
	<time>2025-04-30T08:04:14.000Z</time>
</trkpt>
<trkpt lat="45.8902980" lon="10.2662860">
	<ele>1421.40</ele>
	<time>2025-04-30T08:04:15.000Z</time>
</trkpt>
<trkpt lat="45.8902740" lon="10.2662900">
	<ele>1421.60</ele>
	<time>2025-04-30T08:04:16.000Z</time>
</trkpt>
<trkpt lat="45.8902650" lon="10.2662760">
	<ele>1423.00</ele>
	<time>2025-04-30T08:05:05.000Z</time>
</trkpt>
<trkpt lat="45.8902650" lon="10.2662410">
	<ele>1422.80</ele>
	<time>2025-04-30T08:05:06.000Z</time>
</trkpt>
<trkpt lat="45.8902880" lon="10.2662270">
	<ele>1422.40</ele>
	<time>2025-04-30T08:05:07.000Z</time>
</trkpt>
<trkpt lat="45.8902900" lon="10.2662090">
	<ele>1422.00</ele>
	<time>2025-04-30T08:05:08.000Z</time>
</trkpt>
<trkpt lat="45.8903000" lon="10.2662030">
	<ele>1421.80</ele>
	<time>2025-04-30T08:05:09.000Z</time>
</trkpt>
<trkpt lat="45.8903250" lon="10.2662080">
	<ele>1421.60</ele>
	<time>2025-04-30T08:05:10.000Z</time>
</trkpt>
<trkpt lat="45.8903380" lon="10.2662090">
	<ele>1421.40</ele>
	<time>2025-04-30T08:05:11.000Z</time>
</trkpt>
<trkpt lat="45.8903420" lon="10.2662080">
	<ele>1421.20</ele>
	<time>2025-04-30T08:05:12.000Z</time>
</trkpt>
<trkpt lat="45.8903460" lon="10.2661990">
	<ele>1421.20</ele>
	<time>2025-04-30T08:05:13.000Z</time>
</trkpt>
<trkpt lat="45.8903390" lon="10.2661810">
	<ele>1421.20</ele>
	<time>2025-04-30T08:05:14.000Z</time>
</trkpt>
<trkpt lat="45.8903410" lon="10.2661770">
	<ele>1420.80</ele>
	<time>2025-04-30T08:05:15.000Z</time>
</trkpt>
<trkpt lat="45.8903400" lon="10.2661620">
	<ele>1420.60</ele>
	<time>2025-04-30T08:05:16.000Z</time>
</trkpt>
<trkpt lat="45.8903470" lon="10.2661530">
	<ele>1420.20</ele>
	<time>2025-04-30T08:05:17.000Z</time>
</trkpt>
<trkpt lat="45.8903490" lon="10.2661430">
	<ele>1420.00</ele>
	<time>2025-04-30T08:05:18.000Z</time>
</trkpt>
<trkpt lat="45.8903510" lon="10.2661320">
	<ele>1419.80</ele>
	<time>2025-04-30T08:05:19.000Z</time>
</trkpt>
<trkpt lat="45.8903480" lon="10.2661170">
	<ele>1419.60</ele>
	<time>2025-04-30T08:05:20.000Z</time>
</trkpt>
<trkpt lat="45.8903400" lon="10.2661030">
	<ele>1419.40</ele>
	<time>2025-04-30T08:05:21.000Z</time>
</trkpt>
<trkpt lat="45.8903350" lon="10.2660930">
	<ele>1419.20</ele>
	<time>2025-04-30T08:05:22.000Z</time>
</trkpt>
<trkpt lat="45.8903300" lon="10.2660860">
	<ele>1419.00</ele>
	<time>2025-04-30T08:05:23.000Z</time>
</trkpt>
<trkpt lat="45.8903330" lon="10.2660840">
	<ele>1418.80</ele>
	<time>2025-04-30T08:05:24.000Z</time>
</trkpt>
<trkpt lat="45.8903400" lon="10.2660780">
	<ele>1418.80</ele>
	<time>2025-04-30T08:05:25.000Z</time>
</trkpt>
<trkpt lat="45.8903450" lon="10.2660660">
	<ele>1418.60</ele>
	<time>2025-04-30T08:05:26.000Z</time>
</trkpt>
<trkpt lat="45.8903450" lon="10.2660480">
	<ele>1418.40</ele>
	<time>2025-04-30T08:05:27.000Z</time>
</trkpt>
<trkpt lat="45.8903460" lon="10.2660230">
	<ele>1418.20</ele>
	<time>2025-04-30T08:05:28.000Z</time>
</trkpt>
<trkpt lat="45.8903470" lon="10.2660160">
	<ele>1418.00</ele>
	<time>2025-04-30T08:05:29.000Z</time>
</trkpt>
<trkpt lat="45.8903480" lon="10.2660110">
	<ele>1418.00</ele>
	<time>2025-04-30T08:05:30.000Z</time>
</trkpt>
<trkpt lat="45.8903510" lon="10.2660090">
	<ele>1417.80</ele>
	<time>2025-04-30T08:05:31.000Z</time>
</trkpt>
<trkpt lat="45.8903390" lon="10.2659830">
	<ele>1417.60</ele>
	<time>2025-04-30T08:05:32.000Z</time>
</trkpt>
<trkpt lat="45.8903420" lon="10.2659820">
	<ele>1417.60</ele>
	<time>2025-04-30T08:05:33.000Z</time>
</trkpt>
<trkpt lat="45.8903450" lon="10.2659800">
	<ele>1417.60</ele>
	<time>2025-04-30T08:05:34.000Z</time>
</trkpt>
<trkpt lat="45.8903440" lon="10.2659790">
	<ele>1417.60</ele>
	<time>2025-04-30T08:05:35.000Z</time>
</trkpt>
<trkpt lat="45.8903450" lon="10.2659760">
	<ele>1417.60</ele>
	<time>2025-04-30T08:05:36.000Z</time>
</trkpt>
<trkpt lat="45.8903460" lon="10.2659750">
	<ele>1417.40</ele>
	<time>2025-04-30T08:05:37.000Z</time>
</trkpt>
<trkpt lat="45.8903530" lon="10.2659580">
	<ele>1417.40</ele>
	<time>2025-04-30T08:05:38.000Z</time>
</trkpt>
<trkpt lat="45.8903560" lon="10.2659560">
	<ele>1417.40</ele>
	<time>2025-04-30T08:05:39.000Z</time>
</trkpt>
<trkpt lat="45.8903520" lon="10.2659450">
	<ele>1417.60</ele>
	<time>2025-04-30T08:05:40.000Z</time>
</trkpt>
<trkpt lat="45.8903480" lon="10.2659520">
	<ele>1417.60</ele>
	<time>2025-04-30T08:05:41.000Z</time>
</trkpt>
<trkpt lat="45.8903520" lon="10.2659470">
	<ele>1417.60</ele>
	<time>2025-04-30T08:05:42.000Z</time>
</trkpt>
<trkpt lat="45.8903570" lon="10.2659490">
	<ele>1417.60</ele>
	<time>2025-04-30T08:05:43.000Z</time>
</trkpt>
<trkpt lat="45.8903550" lon="10.2659510">
	<ele>1417.60</ele>
	<time>2025-04-30T08:05:44.000Z</time>
</trkpt>
<trkpt lat="45.8903560" lon="10.2659490">
	<ele>1417.60</ele>
	<time>2025-04-30T08:05:45.000Z</time>
</trkpt>
<trkpt lat="45.8903570" lon="10.2659450">
	<ele>1417.60</ele>
	<time>2025-04-30T08:05:46.000Z</time>
</trkpt>
<trkpt lat="45.8903550" lon="10.2659400">
	<ele>1417.40</ele>
	<time>2025-04-30T08:05:47.000Z</time>
</trkpt>
<trkpt lat="45.8903570" lon="10.2659390">
	<ele>1417.40</ele>
	<time>2025-04-30T08:05:48.000Z</time>
</trkpt>
<trkpt lat="45.8903550" lon="10.2659310">
	<ele>1417.40</ele>
	<time>2025-04-30T08:05:49.000Z</time>
</trkpt>
<trkpt lat="45.8903580" lon="10.2659300">
	<ele>1417.60</ele>
	<time>2025-04-30T08:05:50.000Z</time>
</trkpt>
<trkpt lat="45.8903610" lon="10.2659300">
	<ele>1417.60</ele>
	<time>2025-04-30T08:05:51.000Z</time>
</trkpt>
<trkpt lat="45.8903550" lon="10.2659210">
	<ele>1417.60</ele>
	<time>2025-04-30T08:05:52.000Z</time>
</trkpt>
<trkpt lat="45.8903590" lon="10.2659190">
	<ele>1417.60</ele>
	<time>2025-04-30T08:05:53.000Z</time>
</trkpt>
<trkpt lat="45.8903590" lon="10.2659170">
	<ele>1417.60</ele>
	<time>2025-04-30T08:05:54.000Z</time>
</trkpt>
<trkpt lat="45.8903590" lon="10.2659150">
	<ele>1417.60</ele>
	<time>2025-04-30T08:05:55.000Z</time>
</trkpt>
<trkpt lat="45.8903580" lon="10.2659150">
	<ele>1417.60</ele>
	<time>2025-04-30T08:05:56.000Z</time>
</trkpt>
<trkpt lat="45.8903610" lon="10.2659160">
	<ele>1417.60</ele>
	<time>2025-04-30T08:05:57.000Z</time>
</trkpt>
<trkpt lat="45.8903650" lon="10.2659160">
	<ele>1417.40</ele>
	<time>2025-04-30T08:05:58.000Z</time>
</trkpt>
<trkpt lat="45.8903610" lon="10.2659130">
	<ele>1417.40</ele>
	<time>2025-04-30T08:05:59.000Z</time>
</trkpt>
<trkpt lat="45.8903570" lon="10.2659120">
	<ele>1417.40</ele>
	<time>2025-04-30T08:06:00.000Z</time>
</trkpt>
<trkpt lat="45.8903590" lon="10.2659090">
	<ele>1417.40</ele>
	<time>2025-04-30T08:06:01.000Z</time>
</trkpt>
<trkpt lat="45.8903580" lon="10.2659080">
	<ele>1417.60</ele>
	<time>2025-04-30T08:06:02.000Z</time>
</trkpt>
<trkpt lat="45.8903580" lon="10.2659080">
	<ele>1417.60</ele>
	<time>2025-04-30T08:06:03.000Z</time>
</trkpt>
<trkpt lat="45.8903580" lon="10.2659080">
	<ele>1417.60</ele>
	<time>2025-04-30T08:06:04.000Z</time>
</trkpt>
<trkpt lat="45.8903580" lon="10.2659080">
	<ele>1417.60</ele>
	<time>2025-04-30T08:06:05.000Z</time>
</trkpt>
<trkpt lat="45.8903580" lon="10.2659080">
	<ele>1417.60</ele>
	<time>2025-04-30T08:06:06.000Z</time>
</trkpt>
<trkpt lat="45.8903580" lon="10.2659080">
	<ele>1417.40</ele>
	<time>2025-04-30T08:06:07.000Z</time>
</trkpt>
<trkpt lat="45.8903580" lon="10.2659080">
	<ele>1417.40</ele>
	<time>2025-04-30T08:06:08.000Z</time>
</trkpt>
<trkpt lat="45.8903580" lon="10.2659080">
	<ele>1417.20</ele>
	<time>2025-04-30T08:06:09.000Z</time>
</trkpt>
<trkpt lat="45.8903580" lon="10.2659080">
	<ele>1417.20</ele>
	<time>2025-04-30T08:06:10.000Z</time>
</trkpt>
<trkpt lat="45.8903580" lon="10.2659080">
	<ele>1417.00</ele>
	<time>2025-04-30T08:06:11.000Z</time>
</trkpt>
<trkpt lat="45.8903580" lon="10.2659080">
	<ele>1416.80</ele>
	<time>2025-04-30T08:06:12.000Z</time>
</trkpt>
<trkpt lat="45.8903580" lon="10.2659080">
	<ele>1416.80</ele>
	<time>2025-04-30T08:06:13.000Z</time>
</trkpt>
<trkpt lat="45.8903580" lon="10.2659080">
	<ele>1416.40</ele>
	<time>2025-04-30T08:06:14.000Z</time>
</trkpt>
<trkpt lat="45.8903580" lon="10.2659080">
	<ele>1416.40</ele>
	<time>2025-04-30T08:06:15.000Z</time>
</trkpt>
<trkpt lat="45.8903580" lon="10.2659080">
	<ele>1416.00</ele>
	<time>2025-04-30T08:06:16.000Z</time>
</trkpt>
<trkpt lat="45.8903580" lon="10.2659080">
	<ele>1415.60</ele>
	<time>2025-04-30T08:06:17.000Z</time>
</trkpt>
<trkpt lat="45.8903570" lon="10.2659040">
	<ele>1415.40</ele>
	<time>2025-04-30T08:06:18.000Z</time>
</trkpt>
<trkpt lat="45.8903550" lon="10.2658910">
	<ele>1415.20</ele>
	<time>2025-04-30T08:06:19.000Z</time>
</trkpt>
<trkpt lat="45.8903530" lon="10.2658810">
	<ele>1415.00</ele>
	<time>2025-04-30T08:06:20.000Z</time>
</trkpt>
<trkpt lat="45.8903450" lon="10.2658730">
	<ele>1414.80</ele>
	<time>2025-04-30T08:06:21.000Z</time>
</trkpt>
<trkpt lat="45.8903430" lon="10.2658690">
	<ele>1414.80</ele>
	<time>2025-04-30T08:06:22.000Z</time>
</trkpt>
<trkpt lat="45.8903420" lon="10.2658640">
	<ele>1414.80</ele>
	<time>2025-04-30T08:06:23.000Z</time>
</trkpt>
<trkpt lat="45.8903420" lon="10.2658560">
	<ele>1414.80</ele>
	<time>2025-04-30T08:06:24.000Z</time>
</trkpt>
<trkpt lat="45.8903420" lon="10.2658490">
	<ele>1414.80</ele>
	<time>2025-04-30T08:06:25.000Z</time>
</trkpt>
<trkpt lat="45.8903420" lon="10.2658400">
	<ele>1414.80</ele>
	<time>2025-04-30T08:06:26.000Z</time>
</trkpt>
<trkpt lat="45.8903420" lon="10.2658360">
	<ele>1414.80</ele>
	<time>2025-04-30T08:06:27.000Z</time>
</trkpt>
<trkpt lat="45.8903470" lon="10.2658350">
	<ele>1414.80</ele>
	<time>2025-04-30T08:06:28.000Z</time>
</trkpt>
<trkpt lat="45.8903640" lon="10.2658390">
	<ele>1414.60</ele>
	<time>2025-04-30T08:06:29.000Z</time>
</trkpt>
<trkpt lat="45.8903860" lon="10.2658450">
	<ele>1414.40</ele>
	<time>2025-04-30T08:06:30.000Z</time>
</trkpt>
<trkpt lat="45.8903980" lon="10.2658420">
	<ele>1414.20</ele>
	<time>2025-04-30T08:06:31.000Z</time>
</trkpt>
<trkpt lat="45.8904110" lon="10.2658290">
	<ele>1414.20</ele>
	<time>2025-04-30T08:06:32.000Z</time>
</trkpt>
<trkpt lat="45.8904200" lon="10.2658170">
	<ele>1414.00</ele>
	<time>2025-04-30T08:06:33.000Z</time>
</trkpt>
<trkpt lat="45.8904320" lon="10.2658120">
	<ele>1414.00</ele>
	<time>2025-04-30T08:06:34.000Z</time>
</trkpt>
<trkpt lat="45.8904480" lon="10.2658190">
	<ele>1413.80</ele>
	<time>2025-04-30T08:06:35.000Z</time>
</trkpt>
<trkpt lat="45.8904600" lon="10.2658210">
	<ele>1413.80</ele>
	<time>2025-04-30T08:06:36.000Z</time>
</trkpt>
<trkpt lat="45.8904660" lon="10.2658150">
	<ele>1413.80</ele>
	<time>2025-04-30T08:06:37.000Z</time>
</trkpt>
<trkpt lat="45.8904710" lon="10.2658080">
	<ele>1413.60</ele>
	<time>2025-04-30T08:06:38.000Z</time>
</trkpt>
<trkpt lat="45.8904610" lon="10.2657960">
	<ele>1413.40</ele>
	<time>2025-04-30T08:06:39.000Z</time>
</trkpt>
<trkpt lat="45.8904660" lon="10.2657920">
	<ele>1413.40</ele>
	<time>2025-04-30T08:06:40.000Z</time>
</trkpt>
<trkpt lat="45.8904760" lon="10.2657890">
	<ele>1413.00</ele>
	<time>2025-04-30T08:06:41.000Z</time>
</trkpt>
<trkpt lat="45.8904750" lon="10.2657770">
	<ele>1412.80</ele>
	<time>2025-04-30T08:06:42.000Z</time>
</trkpt>
<trkpt lat="45.8904760" lon="10.2657640">
	<ele>1412.80</ele>
	<time>2025-04-30T08:06:43.000Z</time>
</trkpt>
<trkpt lat="45.8904850" lon="10.2657580">
	<ele>1412.80</ele>
	<time>2025-04-30T08:06:44.000Z</time>
</trkpt>
<trkpt lat="45.8904920" lon="10.2657510">
	<ele>1412.60</ele>
	<time>2025-04-30T08:06:45.000Z</time>
</trkpt>
<trkpt lat="45.8904960" lon="10.2657470">
	<ele>1412.60</ele>
	<time>2025-04-30T08:06:46.000Z</time>
</trkpt>
<trkpt lat="45.8904960" lon="10.2657450">
	<ele>1412.60</ele>
	<time>2025-04-30T08:06:47.000Z</time>
</trkpt>
<trkpt lat="45.8905030" lon="10.2657420">
	<ele>1412.60</ele>
	<time>2025-04-30T08:06:48.000Z</time>
</trkpt>
<trkpt lat="45.8905080" lon="10.2657340">
	<ele>1412.60</ele>
	<time>2025-04-30T08:06:49.000Z</time>
</trkpt>
<trkpt lat="45.8905010" lon="10.2657210">
	<ele>1412.60</ele>
	<time>2025-04-30T08:06:50.000Z</time>
</trkpt>
<trkpt lat="45.8904870" lon="10.2657010">
	<ele>1412.80</ele>
	<time>2025-04-30T08:06:51.000Z</time>
</trkpt>
<trkpt lat="45.8904720" lon="10.2656780">
	<ele>1412.80</ele>
	<time>2025-04-30T08:06:52.000Z</time>
</trkpt>
<trkpt lat="45.8904620" lon="10.2656560">
	<ele>1412.80</ele>
	<time>2025-04-30T08:06:53.000Z</time>
</trkpt>
<trkpt lat="45.8904600" lon="10.2656370">
	<ele>1412.80</ele>
	<time>2025-04-30T08:06:54.000Z</time>
</trkpt>
<trkpt lat="45.8904580" lon="10.2656290">
	<ele>1412.80</ele>
	<time>2025-04-30T08:06:55.000Z</time>
</trkpt>
<trkpt lat="45.8904540" lon="10.2656150">
	<ele>1412.80</ele>
	<time>2025-04-30T08:06:56.000Z</time>
</trkpt>
<trkpt lat="45.8904620" lon="10.2656090">
	<ele>1412.80</ele>
	<time>2025-04-30T08:06:57.000Z</time>
</trkpt>
<trkpt lat="45.8904620" lon="10.2656050">
	<ele>1412.60</ele>
	<time>2025-04-30T08:06:58.000Z</time>
</trkpt>
<trkpt lat="45.8904670" lon="10.2656070">
	<ele>1412.60</ele>
	<time>2025-04-30T08:06:59.000Z</time>
</trkpt>
<trkpt lat="45.8904670" lon="10.2656070">
	<ele>1412.60</ele>
	<time>2025-04-30T08:07:00.000Z</time>
</trkpt>
<trkpt lat="45.8904690" lon="10.2656040">
	<ele>1412.60</ele>
	<time>2025-04-30T08:07:01.000Z</time>
</trkpt>
<trkpt lat="45.8904730" lon="10.2655950">
	<ele>1412.60</ele>
	<time>2025-04-30T08:07:02.000Z</time>
</trkpt>
<trkpt lat="45.8904830" lon="10.2655890">
	<ele>1412.20</ele>
	<time>2025-04-30T08:07:03.000Z</time>
</trkpt>
<trkpt lat="45.8904920" lon="10.2655820">
	<ele>1412.00</ele>
	<time>2025-04-30T08:07:04.000Z</time>
</trkpt>
<trkpt lat="45.8905030" lon="10.2655810">
	<ele>1411.60</ele>
	<time>2025-04-30T08:07:05.000Z</time>
</trkpt>
<trkpt lat="45.8905770" lon="10.2655830">
	<ele>1411.40</ele>
	<time>2025-04-30T08:07:06.000Z</time>
</trkpt>
<trkpt lat="45.8905910" lon="10.2655820">
	<ele>1411.00</ele>
	<time>2025-04-30T08:07:07.000Z</time>
</trkpt>
<trkpt lat="45.8905970" lon="10.2655720">
	<ele>1410.80</ele>
	<time>2025-04-30T08:07:08.000Z</time>
</trkpt>
<trkpt lat="45.8905960" lon="10.2655630">
	<ele>1410.40</ele>
	<time>2025-04-30T08:07:09.000Z</time>
</trkpt>
<trkpt lat="45.8905980" lon="10.2655610">
	<ele>1410.20</ele>
	<time>2025-04-30T08:07:10.000Z</time>
</trkpt>
<trkpt lat="45.8906010" lon="10.2655650">
	<ele>1410.00</ele>
	<time>2025-04-30T08:07:11.000Z</time>
</trkpt>
<trkpt lat="45.8906000" lon="10.2655640">
	<ele>1409.80</ele>
	<time>2025-04-30T08:07:12.000Z</time>
</trkpt>
<trkpt lat="45.8906010" lon="10.2655650">
	<ele>1409.80</ele>
	<time>2025-04-30T08:07:13.000Z</time>
</trkpt>
<trkpt lat="45.8906040" lon="10.2655670">
	<ele>1409.80</ele>
	<time>2025-04-30T08:07:14.000Z</time>
</trkpt>
<trkpt lat="45.8906050" lon="10.2655660">
	<ele>1409.80</ele>
	<time>2025-04-30T08:07:15.000Z</time>
</trkpt>
<trkpt lat="45.8906070" lon="10.2655640">
	<ele>1409.80</ele>
	<time>2025-04-30T08:07:16.000Z</time>
</trkpt>
<trkpt lat="45.8906060" lon="10.2655670">
	<ele>1409.80</ele>
	<time>2025-04-30T08:07:17.000Z</time>
</trkpt>
<trkpt lat="45.8906080" lon="10.2655760">
	<ele>1409.80</ele>
	<time>2025-04-30T08:07:18.000Z</time>
</trkpt>
<trkpt lat="45.8906210" lon="10.2655740">
	<ele>1409.80</ele>
	<time>2025-04-30T08:07:19.000Z</time>
</trkpt>
<trkpt lat="45.8906220" lon="10.2655770">
	<ele>1409.80</ele>
	<time>2025-04-30T08:07:20.000Z</time>
</trkpt>
<trkpt lat="45.8906240" lon="10.2655760">
	<ele>1410.00</ele>
	<time>2025-04-30T08:07:21.000Z</time>
</trkpt>
<trkpt lat="45.8906170" lon="10.2655640">
	<ele>1410.00</ele>
	<time>2025-04-30T08:07:22.000Z</time>
</trkpt>
<trkpt lat="45.8906150" lon="10.2655700">
	<ele>1409.60</ele>
	<time>2025-04-30T08:07:23.000Z</time>
</trkpt>
<trkpt lat="45.8906120" lon="10.2655710">
	<ele>1409.40</ele>
	<time>2025-04-30T08:07:24.000Z</time>
</trkpt>
<trkpt lat="45.8906050" lon="10.2655700">
	<ele>1409.20</ele>
	<time>2025-04-30T08:07:25.000Z</time>
</trkpt>
<trkpt lat="45.8906070" lon="10.2655610">
	<ele>1409.00</ele>
	<time>2025-04-30T08:07:26.000Z</time>
</trkpt>
<trkpt lat="45.8906080" lon="10.2655570">
	<ele>1408.80</ele>
	<time>2025-04-30T08:07:27.000Z</time>
</trkpt>
<trkpt lat="45.8906090" lon="10.2655490">
	<ele>1408.60</ele>
	<time>2025-04-30T08:07:28.000Z</time>
</trkpt>
<trkpt lat="45.8906110" lon="10.2655420">
	<ele>1408.40</ele>
	<time>2025-04-30T08:07:29.000Z</time>
</trkpt>
<trkpt lat="45.8906240" lon="10.2655410">
	<ele>1408.00</ele>
	<time>2025-04-30T08:07:30.000Z</time>
</trkpt>
<trkpt lat="45.8906260" lon="10.2655400">
	<ele>1407.80</ele>
	<time>2025-04-30T08:07:31.000Z</time>
</trkpt>
<trkpt lat="45.8906280" lon="10.2655390">
	<ele>1407.60</ele>
	<time>2025-04-30T08:07:32.000Z</time>
</trkpt>
<trkpt lat="45.8906250" lon="10.2655320">
	<ele>1407.40</ele>
	<time>2025-04-30T08:07:33.000Z</time>
</trkpt>
<trkpt lat="45.8906250" lon="10.2655310">
	<ele>1407.40</ele>
	<time>2025-04-30T08:07:34.000Z</time>
</trkpt>
<trkpt lat="45.8906250" lon="10.2655170">
	<ele>1407.40</ele>
	<time>2025-04-30T08:07:35.000Z</time>
</trkpt>
<trkpt lat="45.8906240" lon="10.2655100">
	<ele>1407.20</ele>
	<time>2025-04-30T08:07:36.000Z</time>
</trkpt>
<trkpt lat="45.8906240" lon="10.2655010">
	<ele>1407.00</ele>
	<time>2025-04-30T08:07:37.000Z</time>
</trkpt>
<trkpt lat="45.8906350" lon="10.2654950">
	<ele>1406.80</ele>
	<time>2025-04-30T08:07:38.000Z</time>
</trkpt>
<trkpt lat="45.8906350" lon="10.2654860">
	<ele>1406.40</ele>
	<time>2025-04-30T08:07:39.000Z</time>
</trkpt>
<trkpt lat="45.8906510" lon="10.2655070">
	<ele>1406.00</ele>
	<time>2025-04-30T08:07:40.000Z</time>
</trkpt>
<trkpt lat="45.8906550" lon="10.2655100">
	<ele>1405.60</ele>
	<time>2025-04-30T08:07:41.000Z</time>
</trkpt>
<trkpt lat="45.8906500" lon="10.2655160">
	<ele>1405.40</ele>
	<time>2025-04-30T08:07:42.000Z</time>
</trkpt>
<trkpt lat="45.8906510" lon="10.2655160">
	<ele>1405.20</ele>
	<time>2025-04-30T08:07:43.000Z</time>
</trkpt>
<trkpt lat="45.8906480" lon="10.2655200">
	<ele>1405.00</ele>
	<time>2025-04-30T08:07:44.000Z</time>
</trkpt>
<trkpt lat="45.8906590" lon="10.2655150">
	<ele>1404.60</ele>
	<time>2025-04-30T08:07:45.000Z</time>
</trkpt>
<trkpt lat="45.8906630" lon="10.2654980">
	<ele>1404.40</ele>
	<time>2025-04-30T08:07:46.000Z</time>
</trkpt>
<trkpt lat="45.8906730" lon="10.2654880">
	<ele>1404.00</ele>
	<time>2025-04-30T08:07:47.000Z</time>
</trkpt>
<trkpt lat="45.8906870" lon="10.2654820">
	<ele>1403.80</ele>
	<time>2025-04-30T08:07:48.000Z</time>
</trkpt>
<trkpt lat="45.8906930" lon="10.2654790">
	<ele>1403.80</ele>
	<time>2025-04-30T08:07:49.000Z</time>
</trkpt>
<trkpt lat="45.8906930" lon="10.2654780">
	<ele>1403.60</ele>
	<time>2025-04-30T08:07:50.000Z</time>
</trkpt>
<trkpt lat="45.8907000" lon="10.2654760">
	<ele>1403.60</ele>
	<time>2025-04-30T08:07:51.000Z</time>
</trkpt>
<trkpt lat="45.8907070" lon="10.2654670">
	<ele>1403.60</ele>
	<time>2025-04-30T08:07:52.000Z</time>
</trkpt>
<trkpt lat="45.8907100" lon="10.2654690">
	<ele>1403.60</ele>
	<time>2025-04-30T08:07:53.000Z</time>
</trkpt>
<trkpt lat="45.8907170" lon="10.2654740">
	<ele>1403.60</ele>
	<time>2025-04-30T08:07:54.000Z</time>
</trkpt>
<trkpt lat="45.8907190" lon="10.2654780">
	<ele>1403.60</ele>
	<time>2025-04-30T08:07:55.000Z</time>
</trkpt>
<trkpt lat="45.8907170" lon="10.2654670">
	<ele>1403.60</ele>
	<time>2025-04-30T08:07:56.000Z</time>
</trkpt>
<trkpt lat="45.8907250" lon="10.2654750">
	<ele>1403.40</ele>
	<time>2025-04-30T08:07:57.000Z</time>
</trkpt>
<trkpt lat="45.8907310" lon="10.2654760">
	<ele>1403.40</ele>
	<time>2025-04-30T08:07:58.000Z</time>
</trkpt>
<trkpt lat="45.8907320" lon="10.2654800">
	<ele>1403.20</ele>
	<time>2025-04-30T08:07:59.000Z</time>
</trkpt>
<trkpt lat="45.8907330" lon="10.2654810">
	<ele>1402.80</ele>
	<time>2025-04-30T08:08:00.000Z</time>
</trkpt>
<trkpt lat="45.8907330" lon="10.2654820">
	<ele>1402.60</ele>
	<time>2025-04-30T08:08:01.000Z</time>
</trkpt>
<trkpt lat="45.8907230" lon="10.2654700">
	<ele>1402.60</ele>
	<time>2025-04-30T08:08:02.000Z</time>
</trkpt>
<trkpt lat="45.8907130" lon="10.2654600">
	<ele>1402.40</ele>
	<time>2025-04-30T08:08:03.000Z</time>
</trkpt>
<trkpt lat="45.8907020" lon="10.2654390">
	<ele>1402.40</ele>
	<time>2025-04-30T08:08:04.000Z</time>
</trkpt>
<trkpt lat="45.8907000" lon="10.2654210">
	<ele>1402.40</ele>
	<time>2025-04-30T08:08:05.000Z</time>
</trkpt>
<trkpt lat="45.8907000" lon="10.2654180">
	<ele>1402.20</ele>
	<time>2025-04-30T08:08:06.000Z</time>
</trkpt>
<trkpt lat="45.8907050" lon="10.2654220">
	<ele>1402.20</ele>
	<time>2025-04-30T08:08:07.000Z</time>
</trkpt>
<trkpt lat="45.8906920" lon="10.2654000">
	<ele>1402.00</ele>
	<time>2025-04-30T08:08:08.000Z</time>
</trkpt>
<trkpt lat="45.8906980" lon="10.2653980">
	<ele>1402.00</ele>
	<time>2025-04-30T08:08:09.000Z</time>
</trkpt>
<trkpt lat="45.8906990" lon="10.2653930">
	<ele>1402.00</ele>
	<time>2025-04-30T08:08:10.000Z</time>
</trkpt>
<trkpt lat="45.8906960" lon="10.2653900">
	<ele>1401.80</ele>
	<time>2025-04-30T08:08:11.000Z</time>
</trkpt>
<trkpt lat="45.8906930" lon="10.2653800">
	<ele>1401.80</ele>
	<time>2025-04-30T08:08:12.000Z</time>
</trkpt>
<trkpt lat="45.8906950" lon="10.2653690">
	<ele>1401.60</ele>
	<time>2025-04-30T08:08:13.000Z</time>
</trkpt>
<trkpt lat="45.8907020" lon="10.2653590">
	<ele>1401.40</ele>
	<time>2025-04-30T08:08:14.000Z</time>
</trkpt>
<trkpt lat="45.8907130" lon="10.2653510">
	<ele>1401.20</ele>
	<time>2025-04-30T08:08:15.000Z</time>
</trkpt>
<trkpt lat="45.8907250" lon="10.2653370">
	<ele>1401.00</ele>
	<time>2025-04-30T08:08:16.000Z</time>
</trkpt>
<trkpt lat="45.8907330" lon="10.2653190">
	<ele>1401.00</ele>
	<time>2025-04-30T08:08:17.000Z</time>
</trkpt>
<trkpt lat="45.8907330" lon="10.2652910">
	<ele>1400.80</ele>
	<time>2025-04-30T08:08:18.000Z</time>
</trkpt>
<trkpt lat="45.8907340" lon="10.2652830">
	<ele>1400.80</ele>
	<time>2025-04-30T08:08:19.000Z</time>
</trkpt>
<trkpt lat="45.8907400" lon="10.2652650">
	<ele>1400.80</ele>
	<time>2025-04-30T08:08:20.000Z</time>
</trkpt>
<trkpt lat="45.8907460" lon="10.2652510">
	<ele>1400.80</ele>
	<time>2025-04-30T08:08:21.000Z</time>
</trkpt>
<trkpt lat="45.8907560" lon="10.2652400">
	<ele>1401.00</ele>
	<time>2025-04-30T08:08:22.000Z</time>
</trkpt>
<trkpt lat="45.8907670" lon="10.2652260">
	<ele>1401.00</ele>
	<time>2025-04-30T08:08:23.000Z</time>
</trkpt>
<trkpt lat="45.8907690" lon="10.2652190">
	<ele>1401.20</ele>
	<time>2025-04-30T08:08:24.000Z</time>
</trkpt>
<trkpt lat="45.8907820" lon="10.2652140">
	<ele>1401.20</ele>
	<time>2025-04-30T08:08:25.000Z</time>
</trkpt>
<trkpt lat="45.8907930" lon="10.2652070">
	<ele>1401.40</ele>
	<time>2025-04-30T08:08:26.000Z</time>
</trkpt>
<trkpt lat="45.8908010" lon="10.2652020">
	<ele>1401.60</ele>
	<time>2025-04-30T08:08:27.000Z</time>
</trkpt>
<trkpt lat="45.8908160" lon="10.2652010">
	<ele>1402.00</ele>
	<time>2025-04-30T08:08:28.000Z</time>
</trkpt>
<trkpt lat="45.8908290" lon="10.2652000">
	<ele>1402.00</ele>
	<time>2025-04-30T08:08:29.000Z</time>
</trkpt>
<trkpt lat="45.8908420" lon="10.2652000">
	<ele>1402.60</ele>
	<time>2025-04-30T08:08:30.000Z</time>
</trkpt>
<trkpt lat="45.8908600" lon="10.2652010">
	<ele>1403.00</ele>
	<time>2025-04-30T08:08:31.000Z</time>
</trkpt>
<trkpt lat="45.8908660" lon="10.2652010">
	<ele>1403.20</ele>
	<time>2025-04-30T08:08:32.000Z</time>
</trkpt>
<trkpt lat="45.8908710" lon="10.2651920">
	<ele>1403.40</ele>
	<time>2025-04-30T08:08:33.000Z</time>
</trkpt>
<trkpt lat="45.8908720" lon="10.2651780">
	<ele>1403.60</ele>
	<time>2025-04-30T08:08:34.000Z</time>
</trkpt>
<trkpt lat="45.8908650" lon="10.2651620">
	<ele>1403.60</ele>
	<time>2025-04-30T08:08:35.000Z</time>
</trkpt>
<trkpt lat="45.8908610" lon="10.2651460">
	<ele>1403.80</ele>
	<time>2025-04-30T08:08:36.000Z</time>
</trkpt>
<trkpt lat="45.8908630" lon="10.2651310">
	<ele>1404.00</ele>
	<time>2025-04-30T08:08:37.000Z</time>
</trkpt>
<trkpt lat="45.8908630" lon="10.2651270">
	<ele>1404.00</ele>
	<time>2025-04-30T08:08:38.000Z</time>
</trkpt>
<trkpt lat="45.8908660" lon="10.2651140">
	<ele>1404.40</ele>
	<time>2025-04-30T08:08:39.000Z</time>
</trkpt>
<trkpt lat="45.8908650" lon="10.2651040">
	<ele>1404.80</ele>
	<time>2025-04-30T08:08:40.000Z</time>
</trkpt>
<trkpt lat="45.8908740" lon="10.2650990">
	<ele>1404.80</ele>
	<time>2025-04-30T08:08:41.000Z</time>
</trkpt>
<trkpt lat="45.8908700" lon="10.2650840">
	<ele>1405.00</ele>
	<time>2025-04-30T08:08:42.000Z</time>
</trkpt>
<trkpt lat="45.8908740" lon="10.2650780">
	<ele>1405.20</ele>
	<time>2025-04-30T08:08:43.000Z</time>
</trkpt>
<trkpt lat="45.8908750" lon="10.2650740">
	<ele>1405.60</ele>
	<time>2025-04-30T08:08:44.000Z</time>
</trkpt>
<trkpt lat="45.8908680" lon="10.2650830">
	<ele>1405.60</ele>
	<time>2025-04-30T08:08:45.000Z</time>
</trkpt>
<trkpt lat="45.8908690" lon="10.2650800">
	<ele>1405.80</ele>
	<time>2025-04-30T08:08:46.000Z</time>
</trkpt>
<trkpt lat="45.8908530" lon="10.2650670">
	<ele>1406.20</ele>
	<time>2025-04-30T08:08:47.000Z</time>
</trkpt>
<trkpt lat="45.8908490" lon="10.2650620">
	<ele>1406.40</ele>
	<time>2025-04-30T08:08:48.000Z</time>
</trkpt>
<trkpt lat="45.8908370" lon="10.2650360">
	<ele>1406.60</ele>
	<time>2025-04-30T08:08:49.000Z</time>
</trkpt>
<trkpt lat="45.8908210" lon="10.2650150">
	<ele>1406.80</ele>
	<time>2025-04-30T08:08:50.000Z</time>
</trkpt>
<trkpt lat="45.8908110" lon="10.2650020">
	<ele>1406.80</ele>
	<time>2025-04-30T08:08:51.000Z</time>
</trkpt>
<trkpt lat="45.8907880" lon="10.2649770">
	<ele>1407.00</ele>
	<time>2025-04-30T08:08:52.000Z</time>
</trkpt>
<trkpt lat="45.8907740" lon="10.2649650">
	<ele>1407.00</ele>
	<time>2025-04-30T08:08:53.000Z</time>
</trkpt>
<trkpt lat="45.8907650" lon="10.2649570">
	<ele>1407.20</ele>
	<time>2025-04-30T08:08:54.000Z</time>
</trkpt>
<trkpt lat="45.8907580" lon="10.2649490">
	<ele>1407.40</ele>
	<time>2025-04-30T08:08:55.000Z</time>
</trkpt>
<trkpt lat="45.8907520" lon="10.2649380">
	<ele>1407.60</ele>
	<time>2025-04-30T08:08:56.000Z</time>
</trkpt>
<trkpt lat="45.8907580" lon="10.2649330">
	<ele>1408.00</ele>
	<time>2025-04-30T08:08:57.000Z</time>
</trkpt>
<trkpt lat="45.8907620" lon="10.2649340">
	<ele>1408.20</ele>
	<time>2025-04-30T08:08:58.000Z</time>
</trkpt>
<trkpt lat="45.8907640" lon="10.2649320">
	<ele>1408.20</ele>
	<time>2025-04-30T08:08:59.000Z</time>
</trkpt>
<trkpt lat="45.8907620" lon="10.2649280">
	<ele>1408.40</ele>
	<time>2025-04-30T08:09:00.000Z</time>
</trkpt>
<trkpt lat="45.8907610" lon="10.2649270">
	<ele>1408.60</ele>
	<time>2025-04-30T08:09:01.000Z</time>
</trkpt>
<trkpt lat="45.8907610" lon="10.2649250">
	<ele>1408.80</ele>
	<time>2025-04-30T08:09:02.000Z</time>
</trkpt>
<trkpt lat="45.8907610" lon="10.2649220">
	<ele>1409.00</ele>
	<time>2025-04-30T08:09:03.000Z</time>
</trkpt>
<trkpt lat="45.8907660" lon="10.2649160">
	<ele>1409.20</ele>
	<time>2025-04-30T08:09:04.000Z</time>
</trkpt>
<trkpt lat="45.8907650" lon="10.2649120">
	<ele>1409.40</ele>
	<time>2025-04-30T08:09:05.000Z</time>
</trkpt>
<trkpt lat="45.8907650" lon="10.2649120">
	<ele>1409.60</ele>
	<time>2025-04-30T08:09:06.000Z</time>
</trkpt>
<trkpt lat="45.8907600" lon="10.2649160">
	<ele>1409.80</ele>
	<time>2025-04-30T08:09:07.000Z</time>
</trkpt>
<trkpt lat="45.8907660" lon="10.2649200">
	<ele>1410.00</ele>
	<time>2025-04-30T08:09:08.000Z</time>
</trkpt>
<trkpt lat="45.8907680" lon="10.2649220">
	<ele>1410.20</ele>
	<time>2025-04-30T08:09:09.000Z</time>
</trkpt>
<trkpt lat="45.8907740" lon="10.2649270">
	<ele>1410.20</ele>
	<time>2025-04-30T08:09:10.000Z</time>
</trkpt>
<trkpt lat="45.8907750" lon="10.2649200">
	<ele>1410.40</ele>
	<time>2025-04-30T08:09:11.000Z</time>
</trkpt>
<trkpt lat="45.8907790" lon="10.2649140">
	<ele>1410.60</ele>
	<time>2025-04-30T08:09:12.000Z</time>
</trkpt>
<trkpt lat="45.8907800" lon="10.2649160">
	<ele>1410.80</ele>
	<time>2025-04-30T08:09:13.000Z</time>
</trkpt>
<trkpt lat="45.8907830" lon="10.2649110">
	<ele>1411.00</ele>
	<time>2025-04-30T08:09:14.000Z</time>
</trkpt>
<trkpt lat="45.8907880" lon="10.2649100">
	<ele>1411.20</ele>
	<time>2025-04-30T08:09:15.000Z</time>
</trkpt>
<trkpt lat="45.8908030" lon="10.2649130">
	<ele>1411.20</ele>
	<time>2025-04-30T08:09:16.000Z</time>
</trkpt>
<trkpt lat="45.8908060" lon="10.2649130">
	<ele>1411.40</ele>
	<time>2025-04-30T08:09:17.000Z</time>
</trkpt>
<trkpt lat="45.8908220" lon="10.2649090">
	<ele>1411.60</ele>
	<time>2025-04-30T08:09:18.000Z</time>
</trkpt>
<trkpt lat="45.8908410" lon="10.2649170">
	<ele>1411.80</ele>
	<time>2025-04-30T08:09:19.000Z</time>
</trkpt>
<trkpt lat="45.8908630" lon="10.2649210">
	<ele>1412.20</ele>
	<time>2025-04-30T08:09:20.000Z</time>
</trkpt>
<trkpt lat="45.8908700" lon="10.2649120">
	<ele>1412.40</ele>
	<time>2025-04-30T08:09:21.000Z</time>
</trkpt>
<trkpt lat="45.8908720" lon="10.2649000">
	<ele>1412.40</ele>
	<time>2025-04-30T08:09:22.000Z</time>
</trkpt>
<trkpt lat="45.8908670" lon="10.2648970">
	<ele>1412.60</ele>
	<time>2025-04-30T08:09:23.000Z</time>
</trkpt>
<trkpt lat="45.8908650" lon="10.2648900">
	<ele>1413.00</ele>
	<time>2025-04-30T08:09:24.000Z</time>
</trkpt>
<trkpt lat="45.8908500" lon="10.2648910">
	<ele>1413.20</ele>
	<time>2025-04-30T08:09:25.000Z</time>
</trkpt>
<trkpt lat="45.8908290" lon="10.2648900">
	<ele>1413.40</ele>
	<time>2025-04-30T08:09:26.000Z</time>
</trkpt>
<trkpt lat="45.8908060" lon="10.2648830">
	<ele>1413.40</ele>
	<time>2025-04-30T08:09:27.000Z</time>
</trkpt>
<trkpt lat="45.8907940" lon="10.2648710">
	<ele>1413.60</ele>
	<time>2025-04-30T08:09:28.000Z</time>
</trkpt>
<trkpt lat="45.8907930" lon="10.2648680">
	<ele>1413.60</ele>
	<time>2025-04-30T08:09:29.000Z</time>
</trkpt>
<trkpt lat="45.8907930" lon="10.2648670">
	<ele>1413.60</ele>
	<time>2025-04-30T08:09:30.000Z</time>
</trkpt>
<trkpt lat="45.8907970" lon="10.2648590">
	<ele>1413.80</ele>
	<time>2025-04-30T08:09:31.000Z</time>
</trkpt>
<trkpt lat="45.8908010" lon="10.2648560">
	<ele>1414.00</ele>
	<time>2025-04-30T08:09:32.000Z</time>
</trkpt>
<trkpt lat="45.8908000" lon="10.2648570">
	<ele>1414.20</ele>
	<time>2025-04-30T08:09:33.000Z</time>
</trkpt>
<trkpt lat="45.8907990" lon="10.2648590">
	<ele>1414.40</ele>
	<time>2025-04-30T08:09:34.000Z</time>
</trkpt>
<trkpt lat="45.8908100" lon="10.2648500">
	<ele>1414.60</ele>
	<time>2025-04-30T08:09:35.000Z</time>
</trkpt>
<trkpt lat="45.8908220" lon="10.2648380">
	<ele>1414.80</ele>
	<time>2025-04-30T08:09:36.000Z</time>
</trkpt>
<trkpt lat="45.8908250" lon="10.2648290">
	<ele>1415.00</ele>
	<time>2025-04-30T08:09:37.000Z</time>
</trkpt>
<trkpt lat="45.8908240" lon="10.2648250">
	<ele>1415.20</ele>
	<time>2025-04-30T08:09:38.000Z</time>
</trkpt>
<trkpt lat="45.8908250" lon="10.2648210">
	<ele>1415.60</ele>
	<time>2025-04-30T08:09:39.000Z</time>
</trkpt>
<trkpt lat="45.8908260" lon="10.2648090">
	<ele>1415.80</ele>
	<time>2025-04-30T08:09:40.000Z</time>
</trkpt>
<trkpt lat="45.8908320" lon="10.2647850">
	<ele>1416.00</ele>
	<time>2025-04-30T08:09:41.000Z</time>
</trkpt>
<trkpt lat="45.8908350" lon="10.2647610">
	<ele>1416.20</ele>
	<time>2025-04-30T08:09:42.000Z</time>
</trkpt>
<trkpt lat="45.8908390" lon="10.2647450">
	<ele>1416.40</ele>
	<time>2025-04-30T08:09:43.000Z</time>
</trkpt>
<trkpt lat="45.8908380" lon="10.2647400">
	<ele>1416.60</ele>
	<time>2025-04-30T08:09:44.000Z</time>
</trkpt>
<trkpt lat="45.8908380" lon="10.2647270">
	<ele>1416.60</ele>
	<time>2025-04-30T08:09:45.000Z</time>
</trkpt>
<trkpt lat="45.8908310" lon="10.2647240">
	<ele>1416.80</ele>
	<time>2025-04-30T08:09:46.000Z</time>
</trkpt>
<trkpt lat="45.8908450" lon="10.2647190">
	<ele>1416.80</ele>
	<time>2025-04-30T08:09:47.000Z</time>
</trkpt>
<trkpt lat="45.8908430" lon="10.2647190">
	<ele>1417.00</ele>
	<time>2025-04-30T08:09:48.000Z</time>
</trkpt>
<trkpt lat="45.8908400" lon="10.2647170">
	<ele>1417.20</ele>
	<time>2025-04-30T08:09:49.000Z</time>
</trkpt>
<trkpt lat="45.8908360" lon="10.2647170">
	<ele>1417.20</ele>
	<time>2025-04-30T08:09:50.000Z</time>
</trkpt>
<trkpt lat="45.8908260" lon="10.2647150">
	<ele>1417.40</ele>
	<time>2025-04-30T08:09:51.000Z</time>
</trkpt>
<trkpt lat="45.8908220" lon="10.2647140">
	<ele>1417.60</ele>
	<time>2025-04-30T08:09:52.000Z</time>
</trkpt>
<trkpt lat="45.8908330" lon="10.2646970">
	<ele>1417.80</ele>
	<time>2025-04-30T08:09:53.000Z</time>
</trkpt>
<trkpt lat="45.8908370" lon="10.2646780">
	<ele>1418.00</ele>
	<time>2025-04-30T08:09:54.000Z</time>
</trkpt>
<trkpt lat="45.8907960" lon="10.2646790">
	<ele>1426.20</ele>
	<time>2025-04-30T08:10:49.000Z</time>
</trkpt>
<trkpt lat="45.8907750" lon="10.2646840">
	<ele>1426.40</ele>
	<time>2025-04-30T08:10:50.000Z</time>
</trkpt>
<trkpt lat="45.8907670" lon="10.2646890">
	<ele>1426.40</ele>
	<time>2025-04-30T08:10:51.000Z</time>
</trkpt>
<trkpt lat="45.8907620" lon="10.2646880">
	<ele>1426.40</ele>
	<time>2025-04-30T08:10:52.000Z</time>
</trkpt>
<trkpt lat="45.8907570" lon="10.2646820">
	<ele>1426.60</ele>
	<time>2025-04-30T08:10:53.000Z</time>
</trkpt>
<trkpt lat="45.8907530" lon="10.2646790">
	<ele>1426.60</ele>
	<time>2025-04-30T08:10:54.000Z</time>
</trkpt>
<trkpt lat="45.8907480" lon="10.2646770">
	<ele>1426.80</ele>
	<time>2025-04-30T08:10:55.000Z</time>
</trkpt>
<trkpt lat="45.8907440" lon="10.2646720">
	<ele>1427.00</ele>
	<time>2025-04-30T08:10:56.000Z</time>
</trkpt>
<trkpt lat="45.8907430" lon="10.2646700">
	<ele>1427.20</ele>
	<time>2025-04-30T08:10:57.000Z</time>
</trkpt>
<trkpt lat="45.8907430" lon="10.2646690">
	<ele>1427.40</ele>
	<time>2025-04-30T08:10:58.000Z</time>
</trkpt>
<trkpt lat="45.8907390" lon="10.2646740">
	<ele>1427.60</ele>
	<time>2025-04-30T08:10:59.000Z</time>
</trkpt>
<trkpt lat="45.8907450" lon="10.2646730">
	<ele>1427.80</ele>
	<time>2025-04-30T08:11:00.000Z</time>
</trkpt>
<trkpt lat="45.8907460" lon="10.2646700">
	<ele>1428.00</ele>
	<time>2025-04-30T08:11:01.000Z</time>
</trkpt>
<trkpt lat="45.8907470" lon="10.2646680">
	<ele>1428.00</ele>
	<time>2025-04-30T08:11:02.000Z</time>
</trkpt>
<trkpt lat="45.8907460" lon="10.2646660">
	<ele>1428.20</ele>
	<time>2025-04-30T08:11:03.000Z</time>
</trkpt>
<trkpt lat="45.8907400" lon="10.2646630">
	<ele>1428.40</ele>
	<time>2025-04-30T08:11:04.000Z</time>
</trkpt>
<trkpt lat="45.8907440" lon="10.2646650">
	<ele>1428.60</ele>
	<time>2025-04-30T08:11:05.000Z</time>
</trkpt>
<trkpt lat="45.8907440" lon="10.2646610">
	<ele>1428.80</ele>
	<time>2025-04-30T08:11:06.000Z</time>
</trkpt>
<trkpt lat="45.8907460" lon="10.2646530">
	<ele>1429.00</ele>
	<time>2025-04-30T08:11:07.000Z</time>
</trkpt>
<trkpt lat="45.8907440" lon="10.2646430">
	<ele>1429.00</ele>
	<time>2025-04-30T08:11:08.000Z</time>
</trkpt>
<trkpt lat="45.8907380" lon="10.2646340">
	<ele>1429.20</ele>
	<time>2025-04-30T08:11:09.000Z</time>
</trkpt>
<trkpt lat="45.8907320" lon="10.2646250">
	<ele>1429.20</ele>
	<time>2025-04-30T08:11:10.000Z</time>
</trkpt>
<trkpt lat="45.8907260" lon="10.2646150">
	<ele>1429.20</ele>
	<time>2025-04-30T08:11:11.000Z</time>
</trkpt>
<trkpt lat="45.8907190" lon="10.2646060">
	<ele>1429.20</ele>
	<time>2025-04-30T08:11:12.000Z</time>
</trkpt>
<trkpt lat="45.8907160" lon="10.2646030">
	<ele>1429.20</ele>
	<time>2025-04-30T08:11:13.000Z</time>
</trkpt>
<trkpt lat="45.8907080" lon="10.2645980">
	<ele>1429.00</ele>
	<time>2025-04-30T08:11:14.000Z</time>
</trkpt>
<trkpt lat="45.8907020" lon="10.2645970">
	<ele>1428.80</ele>
	<time>2025-04-30T08:11:15.000Z</time>
</trkpt>
<trkpt lat="45.8906950" lon="10.2645980">
	<ele>1428.60</ele>
	<time>2025-04-30T08:11:16.000Z</time>
</trkpt>
<trkpt lat="45.8906890" lon="10.2645980">
	<ele>1428.60</ele>
	<time>2025-04-30T08:11:17.000Z</time>
</trkpt>
<trkpt lat="45.8906880" lon="10.2645940">
	<ele>1428.40</ele>
	<time>2025-04-30T08:11:18.000Z</time>
</trkpt>
<trkpt lat="45.8906900" lon="10.2645870">
	<ele>1428.20</ele>
	<time>2025-04-30T08:11:19.000Z</time>
</trkpt>
<trkpt lat="45.8906900" lon="10.2645820">
	<ele>1428.00</ele>
	<time>2025-04-30T08:11:20.000Z</time>
</trkpt>
<trkpt lat="45.8906870" lon="10.2645760">
	<ele>1427.60</ele>
	<time>2025-04-30T08:11:21.000Z</time>
</trkpt>
<trkpt lat="45.8906820" lon="10.2645700">
	<ele>1427.40</ele>
	<time>2025-04-30T08:11:22.000Z</time>
</trkpt>
<trkpt lat="45.8906800" lon="10.2645680">
	<ele>1427.40</ele>
	<time>2025-04-30T08:11:23.000Z</time>
</trkpt>
<trkpt lat="45.8906760" lon="10.2645600">
	<ele>1427.20</ele>
	<time>2025-04-30T08:11:24.000Z</time>
</trkpt>
<trkpt lat="45.8906760" lon="10.2645500">
	<ele>1427.20</ele>
	<time>2025-04-30T08:11:25.000Z</time>
</trkpt>
<trkpt lat="45.8906770" lon="10.2645400">
	<ele>1426.80</ele>
	<time>2025-04-30T08:11:26.000Z</time>
</trkpt>
<trkpt lat="45.8906750" lon="10.2645320">
	<ele>1426.60</ele>
	<time>2025-04-30T08:11:27.000Z</time>
</trkpt>
<trkpt lat="45.8906720" lon="10.2645230">
	<ele>1426.40</ele>
	<time>2025-04-30T08:11:28.000Z</time>
</trkpt>
<trkpt lat="45.8906740" lon="10.2645130">
	<ele>1426.40</ele>
	<time>2025-04-30T08:11:29.000Z</time>
</trkpt>
<trkpt lat="45.8906800" lon="10.2644960">
	<ele>1426.20</ele>
	<time>2025-04-30T08:11:30.000Z</time>
</trkpt>
<trkpt lat="45.8906860" lon="10.2644860">
	<ele>1426.20</ele>
	<time>2025-04-30T08:11:31.000Z</time>
</trkpt>
<trkpt lat="45.8906880" lon="10.2644770">
	<ele>1426.20</ele>
	<time>2025-04-30T08:11:32.000Z</time>
</trkpt>
<trkpt lat="45.8906880" lon="10.2644710">
	<ele>1426.40</ele>
	<time>2025-04-30T08:11:33.000Z</time>
</trkpt>
<trkpt lat="45.8906890" lon="10.2644580">
	<ele>1426.60</ele>
	<time>2025-04-30T08:11:34.000Z</time>
</trkpt>
<trkpt lat="45.8906930" lon="10.2644480">
	<ele>1426.80</ele>
	<time>2025-04-30T08:11:35.000Z</time>
</trkpt>
<trkpt lat="45.8906970" lon="10.2644390">
	<ele>1427.00</ele>
	<time>2025-04-30T08:11:36.000Z</time>
</trkpt>
<trkpt lat="45.8906970" lon="10.2644260">
	<ele>1427.20</ele>
	<time>2025-04-30T08:11:37.000Z</time>
</trkpt>
<trkpt lat="45.8906960" lon="10.2644180">
	<ele>1427.20</ele>
	<time>2025-04-30T08:11:38.000Z</time>
</trkpt>
<trkpt lat="45.8906940" lon="10.2644110">
	<ele>1427.40</ele>
	<time>2025-04-30T08:11:39.000Z</time>
</trkpt>
<trkpt lat="45.8906930" lon="10.2644060">
	<ele>1427.40</ele>
	<time>2025-04-30T08:11:40.000Z</time>
</trkpt>
<trkpt lat="45.8906940" lon="10.2643840">
	<ele>1427.40</ele>
	<time>2025-04-30T08:11:41.000Z</time>
</trkpt>
<trkpt lat="45.8906950" lon="10.2643620">
	<ele>1427.20</ele>
	<time>2025-04-30T08:11:42.000Z</time>
</trkpt>
<trkpt lat="45.8906950" lon="10.2643440">
	<ele>1427.20</ele>
	<time>2025-04-30T08:11:43.000Z</time>
</trkpt>
<trkpt lat="45.8906900" lon="10.2643300">
	<ele>1427.00</ele>
	<time>2025-04-30T08:11:44.000Z</time>
</trkpt>
<trkpt lat="45.8906840" lon="10.2643150">
	<ele>1427.00</ele>
	<time>2025-04-30T08:11:45.000Z</time>
</trkpt>
<trkpt lat="45.8906780" lon="10.2642970">
	<ele>1427.00</ele>
	<time>2025-04-30T08:11:46.000Z</time>
</trkpt>
<trkpt lat="45.8906740" lon="10.2642840">
	<ele>1426.80</ele>
	<time>2025-04-30T08:11:47.000Z</time>
</trkpt>
<trkpt lat="45.8906680" lon="10.2642710">
	<ele>1426.80</ele>
	<time>2025-04-30T08:11:48.000Z</time>
</trkpt>
<trkpt lat="45.8906630" lon="10.2642600">
	<ele>1427.00</ele>
	<time>2025-04-30T08:11:49.000Z</time>
</trkpt>
<trkpt lat="45.8906610" lon="10.2642370">
	<ele>1427.00</ele>
	<time>2025-04-30T08:11:50.000Z</time>
</trkpt>
<trkpt lat="45.8906630" lon="10.2642120">
	<ele>1427.00</ele>
	<time>2025-04-30T08:11:51.000Z</time>
</trkpt>
<trkpt lat="45.8906650" lon="10.2641990">
	<ele>1427.00</ele>
	<time>2025-04-30T08:11:52.000Z</time>
</trkpt>
<trkpt lat="45.8906640" lon="10.2641840">
	<ele>1427.20</ele>
	<time>2025-04-30T08:11:53.000Z</time>
</trkpt>
<trkpt lat="45.8906780" lon="10.2641640">
	<ele>1427.20</ele>
	<time>2025-04-30T08:11:54.000Z</time>
</trkpt>
<trkpt lat="45.8906780" lon="10.2641570">
	<ele>1427.00</ele>
	<time>2025-04-30T08:11:55.000Z</time>
</trkpt>
<trkpt lat="45.8906800" lon="10.2641240">
	<ele>1427.00</ele>
	<time>2025-04-30T08:11:56.000Z</time>
</trkpt>
<trkpt lat="45.8906730" lon="10.2640890">
	<ele>1426.80</ele>
	<time>2025-04-30T08:11:57.000Z</time>
</trkpt>
<trkpt lat="45.8906640" lon="10.2640720">
	<ele>1426.60</ele>
	<time>2025-04-30T08:11:58.000Z</time>
</trkpt>
<trkpt lat="45.8906520" lon="10.2640500">
	<ele>1426.60</ele>
	<time>2025-04-30T08:11:59.000Z</time>
</trkpt>
<trkpt lat="45.8906520" lon="10.2640340">
	<ele>1426.40</ele>
	<time>2025-04-30T08:12:00.000Z</time>
</trkpt>
<trkpt lat="45.8906580" lon="10.2640190">
	<ele>1426.40</ele>
	<time>2025-04-30T08:12:01.000Z</time>
</trkpt>
<trkpt lat="45.8906620" lon="10.2640150">
	<ele>1426.20</ele>
	<time>2025-04-30T08:12:02.000Z</time>
</trkpt>
<trkpt lat="45.8906650" lon="10.2639960">
	<ele>1426.00</ele>
	<time>2025-04-30T08:12:03.000Z</time>
</trkpt>
<trkpt lat="45.8906640" lon="10.2639870">
	<ele>1426.00</ele>
	<time>2025-04-30T08:12:04.000Z</time>
</trkpt>
<trkpt lat="45.8906580" lon="10.2639850">
	<ele>1425.80</ele>
	<time>2025-04-30T08:12:05.000Z</time>
</trkpt>
<trkpt lat="45.8906510" lon="10.2639680">
	<ele>1425.80</ele>
	<time>2025-04-30T08:12:06.000Z</time>
</trkpt>
<trkpt lat="45.8906380" lon="10.2639510">
	<ele>1425.60</ele>
	<time>2025-04-30T08:12:07.000Z</time>
</trkpt>
<trkpt lat="45.8906270" lon="10.2639310">
	<ele>1425.60</ele>
	<time>2025-04-30T08:12:08.000Z</time>
</trkpt>
<trkpt lat="45.8906250" lon="10.2639110">
	<ele>1425.40</ele>
	<time>2025-04-30T08:12:09.000Z</time>
</trkpt>
<trkpt lat="45.8906230" lon="10.2639060">
	<ele>1425.20</ele>
	<time>2025-04-30T08:12:10.000Z</time>
</trkpt>
<trkpt lat="45.8906140" lon="10.2638990">
	<ele>1425.20</ele>
	<time>2025-04-30T08:12:11.000Z</time>
</trkpt>
<trkpt lat="45.8906160" lon="10.2638950">
	<ele>1425.20</ele>
	<time>2025-04-30T08:12:12.000Z</time>
</trkpt>
<trkpt lat="45.8906100" lon="10.2638870">
	<ele>1425.20</ele>
	<time>2025-04-30T08:12:13.000Z</time>
</trkpt>
<trkpt lat="45.8906090" lon="10.2638850">
	<ele>1425.20</ele>
	<time>2025-04-30T08:12:14.000Z</time>
</trkpt>
<trkpt lat="45.8906080" lon="10.2638820">
	<ele>1425.20</ele>
	<time>2025-04-30T08:12:15.000Z</time>
</trkpt>
<trkpt lat="45.8906040" lon="10.2638800">
	<ele>1425.20</ele>
	<time>2025-04-30T08:12:16.000Z</time>
</trkpt>
<trkpt lat="45.8906060" lon="10.2638690">
	<ele>1425.20</ele>
	<time>2025-04-30T08:12:17.000Z</time>
</trkpt>
<trkpt lat="45.8906140" lon="10.2638540">
	<ele>1425.40</ele>
	<time>2025-04-30T08:12:18.000Z</time>
</trkpt>
<trkpt lat="45.8906120" lon="10.2638390">
	<ele>1425.40</ele>
	<time>2025-04-30T08:12:19.000Z</time>
</trkpt>
<trkpt lat="45.8906080" lon="10.2638280">
	<ele>1425.40</ele>
	<time>2025-04-30T08:12:20.000Z</time>
</trkpt>
<trkpt lat="45.8905950" lon="10.2638270">
	<ele>1425.60</ele>
	<time>2025-04-30T08:12:21.000Z</time>
</trkpt>
<trkpt lat="45.8905880" lon="10.2638260">
	<ele>1425.60</ele>
	<time>2025-04-30T08:12:22.000Z</time>
</trkpt>
<trkpt lat="45.8905840" lon="10.2638270">
	<ele>1425.80</ele>
	<time>2025-04-30T08:12:23.000Z</time>
</trkpt>
<trkpt lat="45.8905820" lon="10.2638290">
	<ele>1425.80</ele>
	<time>2025-04-30T08:12:24.000Z</time>
</trkpt>
<trkpt lat="45.8905880" lon="10.2638250">
	<ele>1425.80</ele>
	<time>2025-04-30T08:12:25.000Z</time>
</trkpt>
<trkpt lat="45.8905910" lon="10.2638250">
	<ele>1426.00</ele>
	<time>2025-04-30T08:12:26.000Z</time>
</trkpt>
<trkpt lat="45.8905920" lon="10.2638230">
	<ele>1426.00</ele>
	<time>2025-04-30T08:12:27.000Z</time>
</trkpt>
<trkpt lat="45.8905710" lon="10.2638210">
	<ele>1426.00</ele>
	<time>2025-04-30T08:12:28.000Z</time>
</trkpt>
<trkpt lat="45.8905650" lon="10.2638190">
	<ele>1426.00</ele>
	<time>2025-04-30T08:12:29.000Z</time>
</trkpt>
<trkpt lat="45.8905620" lon="10.2638190">
	<ele>1426.00</ele>
	<time>2025-04-30T08:12:30.000Z</time>
</trkpt>
<trkpt lat="45.8905600" lon="10.2638200">
	<ele>1426.00</ele>
	<time>2025-04-30T08:12:31.000Z</time>
</trkpt>
<trkpt lat="45.8905620" lon="10.2638170">
	<ele>1426.00</ele>
	<time>2025-04-30T08:12:32.000Z</time>
</trkpt>
<trkpt lat="45.8905720" lon="10.2638080">
	<ele>1426.00</ele>
	<time>2025-04-30T08:12:33.000Z</time>
</trkpt>
<trkpt lat="45.8905700" lon="10.2638080">
	<ele>1426.00</ele>
	<time>2025-04-30T08:12:34.000Z</time>
</trkpt>
<trkpt lat="45.8905700" lon="10.2638080">
	<ele>1426.00</ele>
	<time>2025-04-30T08:12:35.000Z</time>
</trkpt>
<trkpt lat="45.8905700" lon="10.2638080">
	<ele>1426.00</ele>
	<time>2025-04-30T08:12:36.000Z</time>
</trkpt>
<trkpt lat="45.8905700" lon="10.2638080">
	<ele>1426.00</ele>
	<time>2025-04-30T08:12:37.000Z</time>
</trkpt>
<trkpt lat="45.8905700" lon="10.2638080">
	<ele>1426.00</ele>
	<time>2025-04-30T08:12:38.000Z</time>
</trkpt>
<trkpt lat="45.8905700" lon="10.2638080">
	<ele>1426.00</ele>
	<time>2025-04-30T08:12:39.000Z</time>
</trkpt>
<trkpt lat="45.8905680" lon="10.2638070">
	<ele>1426.00</ele>
	<time>2025-04-30T08:12:40.000Z</time>
</trkpt>
<trkpt lat="45.8905650" lon="10.2638060">
	<ele>1426.00</ele>
	<time>2025-04-30T08:12:41.000Z</time>
</trkpt>
<trkpt lat="45.8905590" lon="10.2638000">
	<ele>1426.00</ele>
	<time>2025-04-30T08:12:42.000Z</time>
</trkpt>
<trkpt lat="45.8905510" lon="10.2637910">
	<ele>1426.00</ele>
	<time>2025-04-30T08:12:43.000Z</time>
</trkpt>
<trkpt lat="45.8905470" lon="10.2637870">
	<ele>1426.00</ele>
	<time>2025-04-30T08:12:44.000Z</time>
</trkpt>
<trkpt lat="45.8905430" lon="10.2637810">
	<ele>1426.00</ele>
	<time>2025-04-30T08:12:45.000Z</time>
</trkpt>
<trkpt lat="45.8905380" lon="10.2637780">
	<ele>1426.00</ele>
	<time>2025-04-30T08:12:46.000Z</time>
</trkpt>
<trkpt lat="45.8905460" lon="10.2637860">
	<ele>1426.00</ele>
	<time>2025-04-30T08:12:47.000Z</time>
</trkpt>
<trkpt lat="45.8905500" lon="10.2637820">
	<ele>1426.00</ele>
	<time>2025-04-30T08:12:48.000Z</time>
</trkpt>
<trkpt lat="45.8905510" lon="10.2637750">
	<ele>1426.00</ele>
	<time>2025-04-30T08:12:49.000Z</time>
</trkpt>
<trkpt lat="45.8905410" lon="10.2637670">
	<ele>1426.00</ele>
	<time>2025-04-30T08:12:50.000Z</time>
</trkpt>
<trkpt lat="45.8905410" lon="10.2637630">
	<ele>1426.00</ele>
	<time>2025-04-30T08:12:51.000Z</time>
</trkpt>
<trkpt lat="45.8905410" lon="10.2637590">
	<ele>1426.00</ele>
	<time>2025-04-30T08:12:52.000Z</time>
</trkpt>
<trkpt lat="45.8905410" lon="10.2637570">
	<ele>1425.80</ele>
	<time>2025-04-30T08:12:53.000Z</time>
</trkpt>
<trkpt lat="45.8905470" lon="10.2637450">
	<ele>1425.80</ele>
	<time>2025-04-30T08:12:54.000Z</time>
</trkpt>
<trkpt lat="45.8905510" lon="10.2637420">
	<ele>1426.00</ele>
	<time>2025-04-30T08:12:55.000Z</time>
</trkpt>
<trkpt lat="45.8905570" lon="10.2637410">
	<ele>1426.20</ele>
	<time>2025-04-30T08:12:56.000Z</time>
</trkpt>
<trkpt lat="45.8905550" lon="10.2637380">
	<ele>1426.60</ele>
	<time>2025-04-30T08:12:57.000Z</time>
</trkpt>
<trkpt lat="45.8905490" lon="10.2637360">
	<ele>1426.80</ele>
	<time>2025-04-30T08:12:58.000Z</time>
</trkpt>
<trkpt lat="45.8905450" lon="10.2637290">
	<ele>1427.00</ele>
	<time>2025-04-30T08:12:59.000Z</time>
</trkpt>
<trkpt lat="45.8905490" lon="10.2637260">
	<ele>1427.20</ele>
	<time>2025-04-30T08:13:00.000Z</time>
</trkpt>
<trkpt lat="45.8905540" lon="10.2637210">
	<ele>1427.40</ele>
	<time>2025-04-30T08:13:01.000Z</time>
</trkpt>
<trkpt lat="45.8905560" lon="10.2637110">
	<ele>1427.80</ele>
	<time>2025-04-30T08:13:02.000Z</time>
</trkpt>
<trkpt lat="45.8905520" lon="10.2637050">
	<ele>1428.00</ele>
	<time>2025-04-30T08:13:03.000Z</time>
</trkpt>
<trkpt lat="45.8905520" lon="10.2636920">
	<ele>1428.00</ele>
	<time>2025-04-30T08:13:04.000Z</time>
</trkpt>
<trkpt lat="45.8905580" lon="10.2636790">
	<ele>1428.40</ele>
	<time>2025-04-30T08:13:05.000Z</time>
</trkpt>
<trkpt lat="45.8905620" lon="10.2636730">
	<ele>1428.60</ele>
	<time>2025-04-30T08:13:06.000Z</time>
</trkpt>
<trkpt lat="45.8905590" lon="10.2636680">
	<ele>1428.60</ele>
	<time>2025-04-30T08:13:07.000Z</time>
</trkpt>
<trkpt lat="45.8905570" lon="10.2636660">
	<ele>1428.80</ele>
	<time>2025-04-30T08:13:08.000Z</time>
</trkpt>
<trkpt lat="45.8905660" lon="10.2636570">
	<ele>1429.00</ele>
	<time>2025-04-30T08:13:09.000Z</time>
</trkpt>
<trkpt lat="45.8905770" lon="10.2636460">
	<ele>1429.20</ele>
	<time>2025-04-30T08:13:10.000Z</time>
</trkpt>
<trkpt lat="45.8905840" lon="10.2636390">
	<ele>1429.20</ele>
	<time>2025-04-30T08:13:11.000Z</time>
</trkpt>
<trkpt lat="45.8905790" lon="10.2636410">
	<ele>1429.40</ele>
	<time>2025-04-30T08:13:12.000Z</time>
</trkpt>
<trkpt lat="45.8905750" lon="10.2636440">
	<ele>1429.80</ele>
	<time>2025-04-30T08:13:13.000Z</time>
</trkpt>
<trkpt lat="45.8905780" lon="10.2636460">
	<ele>1430.00</ele>
	<time>2025-04-30T08:13:14.000Z</time>
</trkpt>
<trkpt lat="45.8905870" lon="10.2636380">
	<ele>1430.20</ele>
	<time>2025-04-30T08:13:15.000Z</time>
</trkpt>
<trkpt lat="45.8905900" lon="10.2636350">
	<ele>1430.20</ele>
	<time>2025-04-30T08:13:16.000Z</time>
</trkpt>
<trkpt lat="45.8905920" lon="10.2636320">
	<ele>1430.40</ele>
	<time>2025-04-30T08:13:17.000Z</time>
</trkpt>
<trkpt lat="45.8906090" lon="10.2636210">
	<ele>1430.60</ele>
	<time>2025-04-30T08:13:18.000Z</time>
</trkpt>
<trkpt lat="45.8906110" lon="10.2636200">
	<ele>1430.80</ele>
	<time>2025-04-30T08:13:19.000Z</time>
</trkpt>
<trkpt lat="45.8906180" lon="10.2636220">
	<ele>1430.80</ele>
	<time>2025-04-30T08:13:20.000Z</time>
</trkpt>
<trkpt lat="45.8906200" lon="10.2636200">
	<ele>1431.00</ele>
	<time>2025-04-30T08:13:21.000Z</time>
</trkpt>
<trkpt lat="45.8906090" lon="10.2636230">
	<ele>1431.20</ele>
	<time>2025-04-30T08:13:22.000Z</time>
</trkpt>
<trkpt lat="45.8906020" lon="10.2636240">
	<ele>1431.40</ele>
	<time>2025-04-30T08:13:23.000Z</time>
</trkpt>
<trkpt lat="45.8905890" lon="10.2636400">
	<ele>1431.60</ele>
	<time>2025-04-30T08:13:24.000Z</time>
</trkpt>
<trkpt lat="45.8905770" lon="10.2636520">
	<ele>1431.80</ele>
	<time>2025-04-30T08:13:25.000Z</time>
</trkpt>
<trkpt lat="45.8905660" lon="10.2636630">
	<ele>1432.00</ele>
	<time>2025-04-30T08:13:26.000Z</time>
</trkpt>
<trkpt lat="45.8905460" lon="10.2636770">
	<ele>1432.40</ele>
	<time>2025-04-30T08:13:27.000Z</time>
</trkpt>
<trkpt lat="45.8905220" lon="10.2636970">
	<ele>1432.40</ele>
	<time>2025-04-30T08:13:28.000Z</time>
</trkpt>
<trkpt lat="45.8905550" lon="10.2636730">
	<ele>1432.60</ele>
	<time>2025-04-30T08:13:29.000Z</time>
</trkpt>
<trkpt lat="45.8905700" lon="10.2636490">
	<ele>1432.80</ele>
	<time>2025-04-30T08:13:30.000Z</time>
</trkpt>
<trkpt lat="45.8905650" lon="10.2636440">
	<ele>1433.00</ele>
	<time>2025-04-30T08:13:31.000Z</time>
</trkpt>
<trkpt lat="45.8905630" lon="10.2636240">
	<ele>1433.20</ele>
	<time>2025-04-30T08:13:32.000Z</time>
</trkpt>
<trkpt lat="45.8905620" lon="10.2636220">
	<ele>1433.20</ele>
	<time>2025-04-30T08:13:33.000Z</time>
</trkpt>
<trkpt lat="45.8905600" lon="10.2636240">
	<ele>1433.60</ele>
	<time>2025-04-30T08:13:34.000Z</time>
</trkpt>
<trkpt lat="45.8905590" lon="10.2636230">
	<ele>1433.80</ele>
	<time>2025-04-30T08:13:35.000Z</time>
</trkpt>
<trkpt lat="45.8905540" lon="10.2636190">
	<ele>1434.00</ele>
	<time>2025-04-30T08:13:36.000Z</time>
</trkpt>
<trkpt lat="45.8905450" lon="10.2636230">
	<ele>1434.20</ele>
	<time>2025-04-30T08:13:37.000Z</time>
</trkpt>
<trkpt lat="45.8905380" lon="10.2636200">
	<ele>1434.40</ele>
	<time>2025-04-30T08:13:38.000Z</time>
</trkpt>
<trkpt lat="45.8905340" lon="10.2636200">
	<ele>1434.60</ele>
	<time>2025-04-30T08:13:39.000Z</time>
</trkpt>
<trkpt lat="45.8905240" lon="10.2636220">
	<ele>1434.80</ele>
	<time>2025-04-30T08:13:40.000Z</time>
</trkpt>
<trkpt lat="45.8905140" lon="10.2636230">
	<ele>1434.80</ele>
	<time>2025-04-30T08:13:41.000Z</time>
</trkpt>
<trkpt lat="45.8905130" lon="10.2636210">
	<ele>1435.00</ele>
	<time>2025-04-30T08:13:42.000Z</time>
</trkpt>
<trkpt lat="45.8905120" lon="10.2636210">
	<ele>1435.40</ele>
	<time>2025-04-30T08:13:43.000Z</time>
</trkpt>
<trkpt lat="45.8905120" lon="10.2636210">
	<ele>1435.60</ele>
	<time>2025-04-30T08:13:44.000Z</time>
</trkpt>
<trkpt lat="45.8905120" lon="10.2636210">
	<ele>1435.80</ele>
	<time>2025-04-30T08:13:45.000Z</time>
</trkpt>
<trkpt lat="45.8905120" lon="10.2636210">
	<ele>1435.80</ele>
	<time>2025-04-30T08:13:46.000Z</time>
</trkpt>
<trkpt lat="45.8905120" lon="10.2636210">
	<ele>1436.00</ele>
	<time>2025-04-30T08:13:47.000Z</time>
</trkpt>
<trkpt lat="45.8905120" lon="10.2636210">
	<ele>1436.00</ele>
	<time>2025-04-30T08:13:48.000Z</time>
</trkpt>
<trkpt lat="45.8905120" lon="10.2636210">
	<ele>1436.00</ele>
	<time>2025-04-30T08:13:49.000Z</time>
</trkpt>
<trkpt lat="45.8905120" lon="10.2636210">
	<ele>1436.20</ele>
	<time>2025-04-30T08:13:50.000Z</time>
</trkpt>
<trkpt lat="45.8905120" lon="10.2636210">
	<ele>1436.60</ele>
	<time>2025-04-30T08:13:51.000Z</time>
</trkpt>
<trkpt lat="45.8905130" lon="10.2636210">
	<ele>1436.60</ele>
	<time>2025-04-30T08:13:52.000Z</time>
</trkpt>
<trkpt lat="45.8905140" lon="10.2636210">
	<ele>1436.80</ele>
	<time>2025-04-30T08:13:53.000Z</time>
</trkpt>
<trkpt lat="45.8905140" lon="10.2636210">
	<ele>1436.80</ele>
	<time>2025-04-30T08:13:54.000Z</time>
</trkpt>
<trkpt lat="45.8905140" lon="10.2636210">
	<ele>1437.20</ele>
	<time>2025-04-30T08:13:55.000Z</time>
</trkpt>
<trkpt lat="45.8905150" lon="10.2636210">
	<ele>1437.60</ele>
	<time>2025-04-30T08:13:56.000Z</time>
</trkpt>
<trkpt lat="45.8905150" lon="10.2636210">
	<ele>1437.80</ele>
	<time>2025-04-30T08:13:57.000Z</time>
</trkpt>
<trkpt lat="45.8905170" lon="10.2636200">
	<ele>1437.80</ele>
	<time>2025-04-30T08:13:58.000Z</time>
</trkpt>
<trkpt lat="45.8905200" lon="10.2636200">
	<ele>1437.80</ele>
	<time>2025-04-30T08:13:59.000Z</time>
</trkpt>
<trkpt lat="45.8905220" lon="10.2636190">
	<ele>1438.00</ele>
	<time>2025-04-30T08:14:00.000Z</time>
</trkpt>
<trkpt lat="45.8905230" lon="10.2636190">
	<ele>1437.80</ele>
	<time>2025-04-30T08:14:01.000Z</time>
</trkpt>
<trkpt lat="45.8905300" lon="10.2636150">
	<ele>1437.80</ele>
	<time>2025-04-30T08:14:02.000Z</time>
</trkpt>
<trkpt lat="45.8905330" lon="10.2636120">
	<ele>1438.00</ele>
	<time>2025-04-30T08:14:03.000Z</time>
</trkpt>
<trkpt lat="45.8905340" lon="10.2636060">
	<ele>1438.00</ele>
	<time>2025-04-30T08:14:04.000Z</time>
</trkpt>
<trkpt lat="45.8905340" lon="10.2636000">
	<ele>1438.00</ele>
	<time>2025-04-30T08:14:05.000Z</time>
</trkpt>
<trkpt lat="45.8905340" lon="10.2635970">
	<ele>1438.00</ele>
	<time>2025-04-30T08:14:06.000Z</time>
</trkpt>
<trkpt lat="45.8905340" lon="10.2635960">
	<ele>1438.00</ele>
	<time>2025-04-30T08:14:07.000Z</time>
</trkpt>
<trkpt lat="45.8905370" lon="10.2635880">
	<ele>1438.00</ele>
	<time>2025-04-30T08:14:08.000Z</time>
</trkpt>
<trkpt lat="45.8905490" lon="10.2635730">
	<ele>1438.00</ele>
	<time>2025-04-30T08:14:09.000Z</time>
</trkpt>
<trkpt lat="45.8905630" lon="10.2635550">
	<ele>1437.80</ele>
	<time>2025-04-30T08:14:10.000Z</time>
</trkpt>
<trkpt lat="45.8905670" lon="10.2635410">
	<ele>1437.60</ele>
	<time>2025-04-30T08:14:11.000Z</time>
</trkpt>
<trkpt lat="45.8905700" lon="10.2635300">
	<ele>1437.20</ele>
	<time>2025-04-30T08:14:12.000Z</time>
</trkpt>
<trkpt lat="45.8905700" lon="10.2635200">
	<ele>1437.00</ele>
	<time>2025-04-30T08:14:13.000Z</time>
</trkpt>
<trkpt lat="45.8905700" lon="10.2635140">
	<ele>1436.60</ele>
	<time>2025-04-30T08:14:14.000Z</time>
</trkpt>
<trkpt lat="45.8905660" lon="10.2635040">
	<ele>1436.40</ele>
	<time>2025-04-30T08:14:15.000Z</time>
</trkpt>
<trkpt lat="45.8905700" lon="10.2634880">
	<ele>1436.40</ele>
	<time>2025-04-30T08:14:16.000Z</time>
</trkpt>
<trkpt lat="45.8905670" lon="10.2634740">
	<ele>1436.20</ele>
	<time>2025-04-30T08:14:17.000Z</time>
</trkpt>
<trkpt lat="45.8905580" lon="10.2634710">
	<ele>1436.20</ele>
	<time>2025-04-30T08:14:18.000Z</time>
</trkpt>
<trkpt lat="45.8905490" lon="10.2634710">
	<ele>1435.80</ele>
	<time>2025-04-30T08:14:19.000Z</time>
</trkpt>
<trkpt lat="45.8905480" lon="10.2634680">
	<ele>1435.40</ele>
	<time>2025-04-30T08:14:20.000Z</time>
</trkpt>
<trkpt lat="45.8905460" lon="10.2634580">
	<ele>1435.40</ele>
	<time>2025-04-30T08:14:21.000Z</time>
</trkpt>
<trkpt lat="45.8905420" lon="10.2634500">
	<ele>1435.00</ele>
	<time>2025-04-30T08:14:22.000Z</time>
</trkpt>
<trkpt lat="45.8905400" lon="10.2634400">
	<ele>1434.80</ele>
	<time>2025-04-30T08:14:23.000Z</time>
</trkpt>
<trkpt lat="45.8905370" lon="10.2634300">
	<ele>1434.80</ele>
	<time>2025-04-30T08:14:24.000Z</time>
</trkpt>
<trkpt lat="45.8905340" lon="10.2634250">
	<ele>1434.60</ele>
	<time>2025-04-30T08:14:25.000Z</time>
</trkpt>
<trkpt lat="45.8905320" lon="10.2634240">
	<ele>1434.60</ele>
	<time>2025-04-30T08:14:26.000Z</time>
</trkpt>
<trkpt lat="45.8905300" lon="10.2634250">
	<ele>1434.40</ele>
	<time>2025-04-30T08:14:27.000Z</time>
</trkpt>
<trkpt lat="45.8905270" lon="10.2634270">
	<ele>1434.40</ele>
	<time>2025-04-30T08:14:28.000Z</time>
</trkpt>
<trkpt lat="45.8905240" lon="10.2634240">
	<ele>1434.40</ele>
	<time>2025-04-30T08:14:29.000Z</time>
</trkpt>
<trkpt lat="45.8905190" lon="10.2634250">
	<ele>1434.20</ele>
	<time>2025-04-30T08:14:30.000Z</time>
</trkpt>
<trkpt lat="45.8905150" lon="10.2634260">
	<ele>1434.00</ele>
	<time>2025-04-30T08:14:31.000Z</time>
</trkpt>
<trkpt lat="45.8905170" lon="10.2634200">
	<ele>1434.20</ele>
	<time>2025-04-30T08:14:32.000Z</time>
</trkpt>
<trkpt lat="45.8905140" lon="10.2634180">
	<ele>1434.20</ele>
	<time>2025-04-30T08:14:33.000Z</time>
</trkpt>
<trkpt lat="45.8905210" lon="10.2634090">
	<ele>1434.20</ele>
	<time>2025-04-30T08:14:34.000Z</time>
</trkpt>
<trkpt lat="45.8905250" lon="10.2634080">
	<ele>1434.20</ele>
	<time>2025-04-30T08:14:35.000Z</time>
</trkpt>
<trkpt lat="45.8905270" lon="10.2634110">
	<ele>1434.20</ele>
	<time>2025-04-30T08:14:36.000Z</time>
</trkpt>
<trkpt lat="45.8905170" lon="10.2634140">
	<ele>1434.20</ele>
	<time>2025-04-30T08:14:37.000Z</time>
</trkpt>
<trkpt lat="45.8905030" lon="10.2634190">
	<ele>1434.40</ele>
	<time>2025-04-30T08:14:38.000Z</time>
</trkpt>
<trkpt lat="45.8904900" lon="10.2634270">
	<ele>1434.40</ele>
	<time>2025-04-30T08:14:39.000Z</time>
</trkpt>
<trkpt lat="45.8904840" lon="10.2634290">
	<ele>1434.60</ele>
	<time>2025-04-30T08:14:40.000Z</time>
</trkpt>
<trkpt lat="45.8904790" lon="10.2634310">
	<ele>1434.40</ele>
	<time>2025-04-30T08:14:41.000Z</time>
</trkpt>
<trkpt lat="45.8904750" lon="10.2634280">
	<ele>1434.40</ele>
	<time>2025-04-30T08:14:42.000Z</time>
</trkpt>
<trkpt lat="45.8904740" lon="10.2634230">
	<ele>1434.40</ele>
	<time>2025-04-30T08:14:43.000Z</time>
</trkpt>
<trkpt lat="45.8904780" lon="10.2634110">
	<ele>1434.20</ele>
	<time>2025-04-30T08:14:44.000Z</time>
</trkpt>
<trkpt lat="45.8904720" lon="10.2633990">
	<ele>1434.20</ele>
	<time>2025-04-30T08:14:45.000Z</time>
</trkpt>
<trkpt lat="45.8904650" lon="10.2633910">
	<ele>1434.20</ele>
	<time>2025-04-30T08:14:46.000Z</time>
</trkpt>
<trkpt lat="45.8904640" lon="10.2633700">
	<ele>1434.20</ele>
	<time>2025-04-30T08:14:47.000Z</time>
</trkpt>
<trkpt lat="45.8904640" lon="10.2633520">
	<ele>1434.20</ele>
	<time>2025-04-30T08:14:48.000Z</time>
</trkpt>
<trkpt lat="45.8904620" lon="10.2633490">
	<ele>1434.20</ele>
	<time>2025-04-30T08:14:49.000Z</time>
</trkpt>
<trkpt lat="45.8904700" lon="10.2633370">
	<ele>1434.00</ele>
	<time>2025-04-30T08:14:50.000Z</time>
</trkpt>
<trkpt lat="45.8904710" lon="10.2633300">
	<ele>1434.00</ele>
	<time>2025-04-30T08:14:51.000Z</time>
</trkpt>
<trkpt lat="45.8904740" lon="10.2633120">
	<ele>1434.00</ele>
	<time>2025-04-30T08:14:52.000Z</time>
</trkpt>
<trkpt lat="45.8904800" lon="10.2632950">
	<ele>1434.00</ele>
	<time>2025-04-30T08:14:53.000Z</time>
</trkpt>
<trkpt lat="45.8904900" lon="10.2632630">
	<ele>1434.00</ele>
	<time>2025-04-30T08:14:54.000Z</time>
</trkpt>
<trkpt lat="45.8904880" lon="10.2632420">
	<ele>1434.40</ele>
	<time>2025-04-30T08:14:55.000Z</time>
</trkpt>
<trkpt lat="45.8904790" lon="10.2632230">
	<ele>1434.60</ele>
	<time>2025-04-30T08:14:56.000Z</time>
</trkpt>
<trkpt lat="45.8904780" lon="10.2632080">
	<ele>1434.80</ele>
	<time>2025-04-30T08:14:57.000Z</time>
</trkpt>
<trkpt lat="45.8904790" lon="10.2632010">
	<ele>1435.00</ele>
	<time>2025-04-30T08:14:58.000Z</time>
</trkpt>
<trkpt lat="45.8904890" lon="10.2631590">
	<ele>1436.00</ele>
	<time>2025-04-30T08:15:55.000Z</time>
</trkpt>
<trkpt lat="45.8905140" lon="10.2631520">
	<ele>1436.00</ele>
	<time>2025-04-30T08:15:56.000Z</time>
</trkpt>
<trkpt lat="45.8905220" lon="10.2631530">
	<ele>1436.00</ele>
	<time>2025-04-30T08:15:57.000Z</time>
</trkpt>
<trkpt lat="45.8905130" lon="10.2631680">
	<ele>1436.00</ele>
	<time>2025-04-30T08:15:58.000Z</time>
</trkpt>
<trkpt lat="45.8905110" lon="10.2631770">
	<ele>1436.00</ele>
	<time>2025-04-30T08:15:59.000Z</time>
</trkpt>
<trkpt lat="45.8905080" lon="10.2631850">
	<ele>1436.00</ele>
	<time>2025-04-30T08:16:00.000Z</time>
</trkpt>
<trkpt lat="45.8905070" lon="10.2631910">
	<ele>1436.20</ele>
	<time>2025-04-30T08:16:01.000Z</time>
</trkpt>
<trkpt lat="45.8905070" lon="10.2631900">
	<ele>1436.20</ele>
	<time>2025-04-30T08:16:02.000Z</time>
</trkpt>
<trkpt lat="45.8905070" lon="10.2631890">
	<ele>1436.40</ele>
	<time>2025-04-30T08:16:03.000Z</time>
</trkpt>
<trkpt lat="45.8905080" lon="10.2631900">
	<ele>1436.40</ele>
	<time>2025-04-30T08:16:04.000Z</time>
</trkpt>
<trkpt lat="45.8905070" lon="10.2631880">
	<ele>1436.60</ele>
	<time>2025-04-30T08:16:05.000Z</time>
</trkpt>
<trkpt lat="45.8905050" lon="10.2631890">
	<ele>1436.80</ele>
	<time>2025-04-30T08:16:06.000Z</time>
</trkpt>
<trkpt lat="45.8905110" lon="10.2631880">
	<ele>1437.00</ele>
	<time>2025-04-30T08:16:07.000Z</time>
</trkpt>
<trkpt lat="45.8905190" lon="10.2631890">
	<ele>1437.40</ele>
	<time>2025-04-30T08:16:08.000Z</time>
</trkpt>
<trkpt lat="45.8905230" lon="10.2631890">
	<ele>1437.60</ele>
	<time>2025-04-30T08:16:09.000Z</time>
</trkpt>
<trkpt lat="45.8905260" lon="10.2631910">
	<ele>1437.60</ele>
	<time>2025-04-30T08:16:10.000Z</time>
</trkpt>
<trkpt lat="45.8905370" lon="10.2631930">
	<ele>1438.00</ele>
	<time>2025-04-30T08:16:11.000Z</time>
</trkpt>
<trkpt lat="45.8905500" lon="10.2632100">
	<ele>1438.00</ele>
	<time>2025-04-30T08:16:12.000Z</time>
</trkpt>
<trkpt lat="45.8905620" lon="10.2632150">
	<ele>1438.20</ele>
	<time>2025-04-30T08:16:13.000Z</time>
</trkpt>
<trkpt lat="45.8905730" lon="10.2632170">
	<ele>1438.40</ele>
	<time>2025-04-30T08:16:14.000Z</time>
</trkpt>
<trkpt lat="45.8905830" lon="10.2632250">
	<ele>1438.60</ele>
	<time>2025-04-30T08:16:15.000Z</time>
</trkpt>
<trkpt lat="45.8905940" lon="10.2632360">
	<ele>1438.80</ele>
	<time>2025-04-30T08:16:16.000Z</time>
</trkpt>
<trkpt lat="45.8906030" lon="10.2632450">
	<ele>1439.00</ele>
	<time>2025-04-30T08:16:17.000Z</time>
</trkpt>
<trkpt lat="45.8906080" lon="10.2632480">
	<ele>1439.00</ele>
	<time>2025-04-30T08:16:18.000Z</time>
</trkpt>
<trkpt lat="45.8906100" lon="10.2632540">
	<ele>1439.00</ele>
	<time>2025-04-30T08:16:19.000Z</time>
</trkpt>
<trkpt lat="45.8906100" lon="10.2632450">
	<ele>1439.00</ele>
	<time>2025-04-30T08:16:20.000Z</time>
</trkpt>
<trkpt lat="45.8906130" lon="10.2632400">
	<ele>1439.00</ele>
	<time>2025-04-30T08:16:21.000Z</time>
</trkpt>
<trkpt lat="45.8906170" lon="10.2632390">
	<ele>1439.00</ele>
	<time>2025-04-30T08:16:22.000Z</time>
</trkpt>
<trkpt lat="45.8906260" lon="10.2632330">
	<ele>1439.00</ele>
	<time>2025-04-30T08:16:23.000Z</time>
</trkpt>
<trkpt lat="45.8906430" lon="10.2632320">
	<ele>1439.00</ele>
	<time>2025-04-30T08:16:24.000Z</time>
</trkpt>
<trkpt lat="45.8906560" lon="10.2632350">
	<ele>1439.00</ele>
	<time>2025-04-30T08:16:25.000Z</time>
</trkpt>
<trkpt lat="45.8906720" lon="10.2632340">
	<ele>1439.00</ele>
	<time>2025-04-30T08:16:26.000Z</time>
</trkpt>
<trkpt lat="45.8906870" lon="10.2632380">
	<ele>1439.00</ele>
	<time>2025-04-30T08:16:27.000Z</time>
</trkpt>
<trkpt lat="45.8906980" lon="10.2632470">
	<ele>1438.80</ele>
	<time>2025-04-30T08:16:28.000Z</time>
</trkpt>
<trkpt lat="45.8907030" lon="10.2632560">
	<ele>1438.80</ele>
	<time>2025-04-30T08:16:29.000Z</time>
</trkpt>
<trkpt lat="45.8907040" lon="10.2632660">
	<ele>1438.80</ele>
	<time>2025-04-30T08:16:30.000Z</time>
</trkpt>
<trkpt lat="45.8907090" lon="10.2632680">
	<ele>1438.80</ele>
	<time>2025-04-30T08:16:31.000Z</time>
</trkpt>
<trkpt lat="45.8907140" lon="10.2632700">
	<ele>1438.80</ele>
	<time>2025-04-30T08:16:32.000Z</time>
</trkpt>
<trkpt lat="45.8907180" lon="10.2632700">
	<ele>1438.80</ele>
	<time>2025-04-30T08:16:33.000Z</time>
</trkpt>
<trkpt lat="45.8907260" lon="10.2632740">
	<ele>1438.80</ele>
	<time>2025-04-30T08:16:34.000Z</time>
</trkpt>
<trkpt lat="45.8907400" lon="10.2632790">
	<ele>1438.80</ele>
	<time>2025-04-30T08:16:35.000Z</time>
</trkpt>
<trkpt lat="45.8907510" lon="10.2632800">
	<ele>1438.80</ele>
	<time>2025-04-30T08:16:36.000Z</time>
</trkpt>
<trkpt lat="45.8907550" lon="10.2632800">
	<ele>1439.00</ele>
	<time>2025-04-30T08:16:37.000Z</time>
</trkpt>
<trkpt lat="45.8907580" lon="10.2632770">
	<ele>1439.00</ele>
	<time>2025-04-30T08:16:38.000Z</time>
</trkpt>
<trkpt lat="45.8907660" lon="10.2632660">
	<ele>1439.00</ele>
	<time>2025-04-30T08:16:39.000Z</time>
</trkpt>
<trkpt lat="45.8907760" lon="10.2632550">
	<ele>1439.20</ele>
	<time>2025-04-30T08:16:40.000Z</time>
</trkpt>
<trkpt lat="45.8907890" lon="10.2632350">
	<ele>1439.20</ele>
	<time>2025-04-30T08:16:41.000Z</time>
</trkpt>
<trkpt lat="45.8908060" lon="10.2632060">
	<ele>1439.20</ele>
	<time>2025-04-30T08:16:42.000Z</time>
</trkpt>
<trkpt lat="45.8908210" lon="10.2631850">
	<ele>1439.20</ele>
	<time>2025-04-30T08:16:43.000Z</time>
</trkpt>
<trkpt lat="45.8908420" lon="10.2631600">
	<ele>1439.00</ele>
	<time>2025-04-30T08:16:44.000Z</time>
</trkpt>
<trkpt lat="45.8908590" lon="10.2631300">
	<ele>1439.00</ele>
	<time>2025-04-30T08:16:45.000Z</time>
</trkpt>
<trkpt lat="45.8908660" lon="10.2631180">
	<ele>1439.00</ele>
	<time>2025-04-30T08:16:46.000Z</time>
</trkpt>
<trkpt lat="45.8908780" lon="10.2631120">
	<ele>1439.00</ele>
	<time>2025-04-30T08:16:47.000Z</time>
</trkpt>
<trkpt lat="45.8908900" lon="10.2631130">
	<ele>1439.00</ele>
	<time>2025-04-30T08:16:48.000Z</time>
</trkpt>
<trkpt lat="45.8909110" lon="10.2631160">
	<ele>1439.00</ele>
	<time>2025-04-30T08:16:49.000Z</time>
</trkpt>
<trkpt lat="45.8909330" lon="10.2631110">
	<ele>1439.00</ele>
	<time>2025-04-30T08:16:50.000Z</time>
</trkpt>
<trkpt lat="45.8909470" lon="10.2630910">
	<ele>1438.80</ele>
	<time>2025-04-30T08:16:51.000Z</time>
</trkpt>
<trkpt lat="45.8909580" lon="10.2630660">
	<ele>1438.80</ele>
	<time>2025-04-30T08:16:52.000Z</time>
</trkpt>
<trkpt lat="45.8909560" lon="10.2630370">
	<ele>1438.80</ele>
	<time>2025-04-30T08:16:53.000Z</time>
</trkpt>
<trkpt lat="45.8909590" lon="10.2630070">
	<ele>1438.80</ele>
	<time>2025-04-30T08:16:54.000Z</time>
</trkpt>
<trkpt lat="45.8909640" lon="10.2629740">
	<ele>1438.80</ele>
	<time>2025-04-30T08:16:55.000Z</time>
</trkpt>
<trkpt lat="45.8909680" lon="10.2629450">
	<ele>1438.80</ele>
	<time>2025-04-30T08:16:56.000Z</time>
</trkpt>
<trkpt lat="45.8909800" lon="10.2629260">
	<ele>1438.80</ele>
	<time>2025-04-30T08:16:57.000Z</time>
</trkpt>
<trkpt lat="45.8909860" lon="10.2629320">
	<ele>1438.80</ele>
	<time>2025-04-30T08:16:58.000Z</time>
</trkpt>
<trkpt lat="45.8909830" lon="10.2629290">
	<ele>1438.80</ele>
	<time>2025-04-30T08:16:59.000Z</time>
</trkpt>
<trkpt lat="45.8909870" lon="10.2629180">
	<ele>1438.80</ele>
	<time>2025-04-30T08:17:00.000Z</time>
</trkpt>
<trkpt lat="45.8909940" lon="10.2629100">
	<ele>1438.80</ele>
	<time>2025-04-30T08:17:01.000Z</time>
</trkpt>
<trkpt lat="45.8909970" lon="10.2629080">
	<ele>1438.60</ele>
	<time>2025-04-30T08:17:02.000Z</time>
</trkpt>
<trkpt lat="45.8910010" lon="10.2629020">
	<ele>1438.60</ele>
	<time>2025-04-30T08:17:03.000Z</time>
</trkpt>
<trkpt lat="45.8910090" lon="10.2629000">
	<ele>1438.60</ele>
	<time>2025-04-30T08:17:04.000Z</time>
</trkpt>
<trkpt lat="45.8910240" lon="10.2629010">
	<ele>1438.60</ele>
	<time>2025-04-30T08:17:05.000Z</time>
</trkpt>
<trkpt lat="45.8910380" lon="10.2629040">
	<ele>1438.60</ele>
	<time>2025-04-30T08:17:06.000Z</time>
</trkpt>
<trkpt lat="45.8910510" lon="10.2628980">
	<ele>1438.60</ele>
	<time>2025-04-30T08:17:07.000Z</time>
</trkpt>
<trkpt lat="45.8910550" lon="10.2628860">
	<ele>1438.80</ele>
	<time>2025-04-30T08:17:08.000Z</time>
</trkpt>
<trkpt lat="45.8910630" lon="10.2628760">
	<ele>1438.80</ele>
	<time>2025-04-30T08:17:09.000Z</time>
</trkpt>
<trkpt lat="45.8910750" lon="10.2628760">
	<ele>1439.00</ele>
	<time>2025-04-30T08:17:10.000Z</time>
</trkpt>
<trkpt lat="45.8910850" lon="10.2628750">
	<ele>1439.00</ele>
	<time>2025-04-30T08:17:11.000Z</time>
</trkpt>
<trkpt lat="45.8910860" lon="10.2628680">
	<ele>1439.20</ele>
	<time>2025-04-30T08:17:12.000Z</time>
</trkpt>
<trkpt lat="45.8910940" lon="10.2628540">
	<ele>1439.20</ele>
	<time>2025-04-30T08:17:13.000Z</time>
</trkpt>
<trkpt lat="45.8911030" lon="10.2628400">
	<ele>1439.20</ele>
	<time>2025-04-30T08:17:14.000Z</time>
</trkpt>
<trkpt lat="45.8911090" lon="10.2628210">
	<ele>1439.20</ele>
	<time>2025-04-30T08:17:15.000Z</time>
</trkpt>
<trkpt lat="45.8911080" lon="10.2628010">
	<ele>1439.20</ele>
	<time>2025-04-30T08:17:16.000Z</time>
</trkpt>
<trkpt lat="45.8911030" lon="10.2627890">
	<ele>1439.20</ele>
	<time>2025-04-30T08:17:17.000Z</time>
</trkpt>
<trkpt lat="45.8910990" lon="10.2627850">
	<ele>1439.20</ele>
	<time>2025-04-30T08:17:18.000Z</time>
</trkpt>
<trkpt lat="45.8910980" lon="10.2627800">
	<ele>1439.00</ele>
	<time>2025-04-30T08:17:19.000Z</time>
</trkpt>
<trkpt lat="45.8911000" lon="10.2627670">
	<ele>1439.00</ele>
	<time>2025-04-30T08:17:20.000Z</time>
</trkpt>
<trkpt lat="45.8911010" lon="10.2627520">
	<ele>1439.00</ele>
	<time>2025-04-30T08:17:21.000Z</time>
</trkpt>
<trkpt lat="45.8910990" lon="10.2627370">
	<ele>1439.00</ele>
	<time>2025-04-30T08:17:22.000Z</time>
</trkpt>
<trkpt lat="45.8911000" lon="10.2627210">
	<ele>1438.80</ele>
	<time>2025-04-30T08:17:23.000Z</time>
</trkpt>
<trkpt lat="45.8911030" lon="10.2627040">
	<ele>1438.60</ele>
	<time>2025-04-30T08:17:24.000Z</time>
</trkpt>
<trkpt lat="45.8911100" lon="10.2626840">
	<ele>1438.40</ele>
	<time>2025-04-30T08:17:25.000Z</time>
</trkpt>
<trkpt lat="45.8911110" lon="10.2626660">
	<ele>1438.20</ele>
	<time>2025-04-30T08:17:26.000Z</time>
</trkpt>
<trkpt lat="45.8911110" lon="10.2626590">
	<ele>1437.80</ele>
	<time>2025-04-30T08:17:27.000Z</time>
</trkpt>
<trkpt lat="45.8911080" lon="10.2626550">
	<ele>1437.40</ele>
	<time>2025-04-30T08:17:28.000Z</time>
</trkpt>
<trkpt lat="45.8910980" lon="10.2626440">
	<ele>1437.20</ele>
	<time>2025-04-30T08:17:29.000Z</time>
</trkpt>
<trkpt lat="45.8910970" lon="10.2626440">
	<ele>1437.00</ele>
	<time>2025-04-30T08:17:30.000Z</time>
</trkpt>
<trkpt lat="45.8910960" lon="10.2626310">
	<ele>1436.80</ele>
	<time>2025-04-30T08:17:31.000Z</time>
</trkpt>
<trkpt lat="45.8911020" lon="10.2626120">
	<ele>1436.80</ele>
	<time>2025-04-30T08:17:32.000Z</time>
</trkpt>
<trkpt lat="45.8911020" lon="10.2626050">
	<ele>1436.60</ele>
	<time>2025-04-30T08:17:33.000Z</time>
</trkpt>
<trkpt lat="45.8911130" lon="10.2625850">
	<ele>1436.40</ele>
	<time>2025-04-30T08:17:34.000Z</time>
</trkpt>
<trkpt lat="45.8911250" lon="10.2625580">
	<ele>1436.40</ele>
	<time>2025-04-30T08:17:35.000Z</time>
</trkpt>
<trkpt lat="45.8911260" lon="10.2625490">
	<ele>1436.20</ele>
	<time>2025-04-30T08:17:36.000Z</time>
</trkpt>
<trkpt lat="45.8911330" lon="10.2625390">
	<ele>1436.00</ele>
	<time>2025-04-30T08:17:37.000Z</time>
</trkpt>
<trkpt lat="45.8911460" lon="10.2625170">
	<ele>1435.80</ele>
	<time>2025-04-30T08:17:38.000Z</time>
</trkpt>
<trkpt lat="45.8911510" lon="10.2624980">
	<ele>1435.60</ele>
	<time>2025-04-30T08:17:39.000Z</time>
</trkpt>
<trkpt lat="45.8911440" lon="10.2624820">
	<ele>1435.40</ele>
	<time>2025-04-30T08:17:40.000Z</time>
</trkpt>
<trkpt lat="45.8911460" lon="10.2624610">
	<ele>1435.20</ele>
	<time>2025-04-30T08:17:41.000Z</time>
</trkpt>
<trkpt lat="45.8911420" lon="10.2624480">
	<ele>1435.00</ele>
	<time>2025-04-30T08:17:42.000Z</time>
</trkpt>
<trkpt lat="45.8911490" lon="10.2624310">
	<ele>1435.00</ele>
	<time>2025-04-30T08:17:43.000Z</time>
</trkpt>
<trkpt lat="45.8911580" lon="10.2624200">
	<ele>1435.00</ele>
	<time>2025-04-30T08:17:44.000Z</time>
</trkpt>
<trkpt lat="45.8911620" lon="10.2624130">
	<ele>1434.80</ele>
	<time>2025-04-30T08:17:45.000Z</time>
</trkpt>
<trkpt lat="45.8911620" lon="10.2624090">
	<ele>1434.80</ele>
	<time>2025-04-30T08:17:46.000Z</time>
</trkpt>
<trkpt lat="45.8911630" lon="10.2624080">
	<ele>1434.80</ele>
	<time>2025-04-30T08:17:47.000Z</time>
</trkpt>
<trkpt lat="45.8911640" lon="10.2624040">
	<ele>1434.60</ele>
	<time>2025-04-30T08:17:48.000Z</time>
</trkpt>
<trkpt lat="45.8911640" lon="10.2623960">
	<ele>1434.40</ele>
	<time>2025-04-30T08:17:49.000Z</time>
</trkpt>
<trkpt lat="45.8911670" lon="10.2623930">
	<ele>1434.20</ele>
	<time>2025-04-30T08:17:50.000Z</time>
</trkpt>
<trkpt lat="45.8911720" lon="10.2623880">
	<ele>1434.00</ele>
	<time>2025-04-30T08:17:51.000Z</time>
</trkpt>
<trkpt lat="45.8911780" lon="10.2623780">
	<ele>1434.00</ele>
	<time>2025-04-30T08:17:52.000Z</time>
</trkpt>
<trkpt lat="45.8911820" lon="10.2623670">
	<ele>1433.80</ele>
	<time>2025-04-30T08:17:53.000Z</time>
</trkpt>
<trkpt lat="45.8911840" lon="10.2623550">
	<ele>1433.60</ele>
	<time>2025-04-30T08:17:54.000Z</time>
</trkpt>
<trkpt lat="45.8911840" lon="10.2623410">
	<ele>1433.20</ele>
	<time>2025-04-30T08:17:55.000Z</time>
</trkpt>
<trkpt lat="45.8911790" lon="10.2623280">
	<ele>1433.20</ele>
	<time>2025-04-30T08:17:56.000Z</time>
</trkpt>
<trkpt lat="45.8911750" lon="10.2623220">
	<ele>1433.00</ele>
	<time>2025-04-30T08:17:57.000Z</time>
</trkpt>
<trkpt lat="45.8911780" lon="10.2623130">
	<ele>1433.00</ele>
	<time>2025-04-30T08:17:58.000Z</time>
</trkpt>
<trkpt lat="45.8911790" lon="10.2623100">
	<ele>1433.00</ele>
	<time>2025-04-30T08:17:59.000Z</time>
</trkpt>
<trkpt lat="45.8911780" lon="10.2623070">
	<ele>1433.00</ele>
	<time>2025-04-30T08:18:00.000Z</time>
</trkpt>
<trkpt lat="45.8911740" lon="10.2623010">
	<ele>1433.20</ele>
	<time>2025-04-30T08:18:01.000Z</time>
</trkpt>
<trkpt lat="45.8911690" lon="10.2622920">
	<ele>1433.40</ele>
	<time>2025-04-30T08:18:02.000Z</time>
</trkpt>
<trkpt lat="45.8911670" lon="10.2622830">
	<ele>1433.60</ele>
	<time>2025-04-30T08:18:03.000Z</time>
</trkpt>
<trkpt lat="45.8911680" lon="10.2622750">
	<ele>1433.80</ele>
	<time>2025-04-30T08:18:04.000Z</time>
</trkpt>
<trkpt lat="45.8911660" lon="10.2622620">
	<ele>1434.20</ele>
	<time>2025-04-30T08:18:05.000Z</time>
</trkpt>
<trkpt lat="45.8911640" lon="10.2622490">
	<ele>1434.40</ele>
	<time>2025-04-30T08:18:06.000Z</time>
</trkpt>
<trkpt lat="45.8911650" lon="10.2622360">
	<ele>1434.80</ele>
	<time>2025-04-30T08:18:07.000Z</time>
</trkpt>
<trkpt lat="45.8911680" lon="10.2622240">
	<ele>1435.00</ele>
	<time>2025-04-30T08:18:08.000Z</time>
</trkpt>
<trkpt lat="45.8911710" lon="10.2622160">
	<ele>1435.40</ele>
	<time>2025-04-30T08:18:09.000Z</time>
</trkpt>
<trkpt lat="45.8911720" lon="10.2622100">
	<ele>1435.40</ele>
	<time>2025-04-30T08:18:10.000Z</time>
</trkpt>
<trkpt lat="45.8911730" lon="10.2622050">
	<ele>1435.60</ele>
	<time>2025-04-30T08:18:11.000Z</time>
</trkpt>
<trkpt lat="45.8911800" lon="10.2622010">
	<ele>1435.80</ele>
	<time>2025-04-30T08:18:12.000Z</time>
</trkpt>
<trkpt lat="45.8911850" lon="10.2622000">
	<ele>1435.80</ele>
	<time>2025-04-30T08:18:13.000Z</time>
</trkpt>
<trkpt lat="45.8911840" lon="10.2621910">
	<ele>1436.00</ele>
	<time>2025-04-30T08:18:14.000Z</time>
</trkpt>
<trkpt lat="45.8911830" lon="10.2621880">
	<ele>1436.40</ele>
	<time>2025-04-30T08:18:15.000Z</time>
</trkpt>
<trkpt lat="45.8911810" lon="10.2621810">
	<ele>1436.60</ele>
	<time>2025-04-30T08:18:16.000Z</time>
</trkpt>
<trkpt lat="45.8911830" lon="10.2621730">
	<ele>1436.80</ele>
	<time>2025-04-30T08:18:17.000Z</time>
</trkpt>
<trkpt lat="45.8911820" lon="10.2621660">
	<ele>1437.00</ele>
	<time>2025-04-30T08:18:18.000Z</time>
</trkpt>
<trkpt lat="45.8911820" lon="10.2621560">
	<ele>1437.20</ele>
	<time>2025-04-30T08:18:19.000Z</time>
</trkpt>
<trkpt lat="45.8911810" lon="10.2621500">
	<ele>1437.40</ele>
	<time>2025-04-30T08:18:20.000Z</time>
</trkpt>
<trkpt lat="45.8911800" lon="10.2621440">
	<ele>1437.60</ele>
	<time>2025-04-30T08:18:21.000Z</time>
</trkpt>
<trkpt lat="45.8911740" lon="10.2621410">
	<ele>1437.80</ele>
	<time>2025-04-30T08:18:22.000Z</time>
</trkpt>
<trkpt lat="45.8911630" lon="10.2621210">
	<ele>1438.00</ele>
	<time>2025-04-30T08:18:23.000Z</time>
</trkpt>
<trkpt lat="45.8911530" lon="10.2621150">
	<ele>1438.20</ele>
	<time>2025-04-30T08:18:24.000Z</time>
</trkpt>
<trkpt lat="45.8911460" lon="10.2621070">
	<ele>1438.40</ele>
	<time>2025-04-30T08:18:25.000Z</time>
</trkpt>
<trkpt lat="45.8911410" lon="10.2620980">
	<ele>1438.60</ele>
	<time>2025-04-30T08:18:26.000Z</time>
</trkpt>
<trkpt lat="45.8911370" lon="10.2620960">
	<ele>1438.80</ele>
	<time>2025-04-30T08:18:27.000Z</time>
</trkpt>
<trkpt lat="45.8911370" lon="10.2620930">
	<ele>1438.80</ele>
	<time>2025-04-30T08:18:28.000Z</time>
</trkpt>
<trkpt lat="45.8911380" lon="10.2620870">
	<ele>1439.20</ele>
	<time>2025-04-30T08:18:29.000Z</time>
</trkpt>
<trkpt lat="45.8911430" lon="10.2620800">
	<ele>1439.40</ele>
	<time>2025-04-30T08:18:30.000Z</time>
</trkpt>
<trkpt lat="45.8911430" lon="10.2620730">
	<ele>1439.80</ele>
	<time>2025-04-30T08:18:31.000Z</time>
</trkpt>
<trkpt lat="45.8911460" lon="10.2620700">
	<ele>1439.80</ele>
	<time>2025-04-30T08:18:32.000Z</time>
</trkpt>
<trkpt lat="45.8911480" lon="10.2620740">
	<ele>1440.00</ele>
	<time>2025-04-30T08:18:33.000Z</time>
</trkpt>
<trkpt lat="45.8911480" lon="10.2620750">
	<ele>1440.20</ele>
	<time>2025-04-30T08:18:34.000Z</time>
</trkpt>
<trkpt lat="45.8911470" lon="10.2620740">
	<ele>1440.20</ele>
	<time>2025-04-30T08:18:35.000Z</time>
</trkpt>
<trkpt lat="45.8911470" lon="10.2620720">
	<ele>1440.20</ele>
	<time>2025-04-30T08:18:36.000Z</time>
</trkpt>
<trkpt lat="45.8911460" lon="10.2620630">
	<ele>1440.40</ele>
	<time>2025-04-30T08:18:37.000Z</time>
</trkpt>
<trkpt lat="45.8911480" lon="10.2620600">
	<ele>1440.40</ele>
	<time>2025-04-30T08:18:38.000Z</time>
</trkpt>
<trkpt lat="45.8911480" lon="10.2620590">
	<ele>1440.40</ele>
	<time>2025-04-30T08:18:39.000Z</time>
</trkpt>
<trkpt lat="45.8911370" lon="10.2620590">
	<ele>1440.20</ele>
	<time>2025-04-30T08:18:40.000Z</time>
</trkpt>
<trkpt lat="45.8911320" lon="10.2620530">
	<ele>1440.20</ele>
	<time>2025-04-30T08:18:41.000Z</time>
</trkpt>
<trkpt lat="45.8911320" lon="10.2620540">
	<ele>1440.20</ele>
	<time>2025-04-30T08:18:42.000Z</time>
</trkpt>
<trkpt lat="45.8911280" lon="10.2620550">
	<ele>1440.20</ele>
	<time>2025-04-30T08:18:43.000Z</time>
</trkpt>
<trkpt lat="45.8911290" lon="10.2620550">
	<ele>1440.20</ele>
	<time>2025-04-30T08:18:44.000Z</time>
</trkpt>
<trkpt lat="45.8911290" lon="10.2620550">
	<ele>1440.00</ele>
	<time>2025-04-30T08:18:45.000Z</time>
</trkpt>
<trkpt lat="45.8911290" lon="10.2620550">
	<ele>1440.00</ele>
	<time>2025-04-30T08:18:46.000Z</time>
</trkpt>
<trkpt lat="45.8911290" lon="10.2620550">
	<ele>1440.00</ele>
	<time>2025-04-30T08:18:47.000Z</time>
</trkpt>
<trkpt lat="45.8911290" lon="10.2620550">
	<ele>1440.00</ele>
	<time>2025-04-30T08:18:48.000Z</time>
</trkpt>
<trkpt lat="45.8911290" lon="10.2620550">
	<ele>1440.00</ele>
	<time>2025-04-30T08:18:49.000Z</time>
</trkpt>
<trkpt lat="45.8911290" lon="10.2620550">
	<ele>1440.00</ele>
	<time>2025-04-30T08:18:50.000Z</time>
</trkpt>
<trkpt lat="45.8911290" lon="10.2620550">
	<ele>1440.00</ele>
	<time>2025-04-30T08:18:51.000Z</time>
</trkpt>
<trkpt lat="45.8911290" lon="10.2620550">
	<ele>1440.00</ele>
	<time>2025-04-30T08:18:52.000Z</time>
</trkpt>
<trkpt lat="45.8911320" lon="10.2620550">
	<ele>1440.00</ele>
	<time>2025-04-30T08:18:53.000Z</time>
</trkpt>
<trkpt lat="45.8911320" lon="10.2620550">
	<ele>1440.00</ele>
	<time>2025-04-30T08:18:54.000Z</time>
</trkpt>
<trkpt lat="45.8911330" lon="10.2620550">
	<ele>1440.00</ele>
	<time>2025-04-30T08:18:55.000Z</time>
</trkpt>
<trkpt lat="45.8911340" lon="10.2620550">
	<ele>1440.00</ele>
	<time>2025-04-30T08:18:56.000Z</time>
</trkpt>
<trkpt lat="45.8911340" lon="10.2620550">
	<ele>1440.00</ele>
	<time>2025-04-30T08:18:57.000Z</time>
</trkpt>
<trkpt lat="45.8911350" lon="10.2620540">
	<ele>1440.00</ele>
	<time>2025-04-30T08:18:58.000Z</time>
</trkpt>
<trkpt lat="45.8911350" lon="10.2620540">
	<ele>1440.20</ele>
	<time>2025-04-30T08:18:59.000Z</time>
</trkpt>
<trkpt lat="45.8911350" lon="10.2620530">
	<ele>1440.40</ele>
	<time>2025-04-30T08:19:00.000Z</time>
</trkpt>
<trkpt lat="45.8911350" lon="10.2620520">
	<ele>1440.40</ele>
	<time>2025-04-30T08:19:01.000Z</time>
</trkpt>
<trkpt lat="45.8911350" lon="10.2620490">
	<ele>1440.80</ele>
	<time>2025-04-30T08:19:02.000Z</time>
</trkpt>
<trkpt lat="45.8911350" lon="10.2620490">
	<ele>1441.00</ele>
	<time>2025-04-30T08:19:03.000Z</time>
</trkpt>
<trkpt lat="45.8911350" lon="10.2620490">
	<ele>1441.20</ele>
	<time>2025-04-30T08:19:04.000Z</time>
</trkpt>
<trkpt lat="45.8911350" lon="10.2620490">
	<ele>1441.20</ele>
	<time>2025-04-30T08:19:05.000Z</time>
</trkpt>
<trkpt lat="45.8911340" lon="10.2620480">
	<ele>1441.40</ele>
	<time>2025-04-30T08:19:06.000Z</time>
</trkpt>
<trkpt lat="45.8911340" lon="10.2620480">
	<ele>1441.60</ele>
	<time>2025-04-30T08:19:07.000Z</time>
</trkpt>
<trkpt lat="45.8911330" lon="10.2620480">
	<ele>1441.80</ele>
	<time>2025-04-30T08:19:08.000Z</time>
</trkpt>
<trkpt lat="45.8911320" lon="10.2620450">
	<ele>1442.00</ele>
	<time>2025-04-30T08:19:09.000Z</time>
</trkpt>
<trkpt lat="45.8911320" lon="10.2620400">
	<ele>1442.20</ele>
	<time>2025-04-30T08:19:10.000Z</time>
</trkpt>
<trkpt lat="45.8911320" lon="10.2620390">
	<ele>1442.60</ele>
	<time>2025-04-30T08:19:11.000Z</time>
</trkpt>
<trkpt lat="45.8911310" lon="10.2620380">
	<ele>1442.60</ele>
	<time>2025-04-30T08:19:12.000Z</time>
</trkpt>
<trkpt lat="45.8911310" lon="10.2620370">
	<ele>1442.80</ele>
	<time>2025-04-30T08:19:13.000Z</time>
</trkpt>
<trkpt lat="45.8911310" lon="10.2620330">
	<ele>1443.20</ele>
	<time>2025-04-30T08:19:14.000Z</time>
</trkpt>
<trkpt lat="45.8911260" lon="10.2620280">
	<ele>1443.60</ele>
	<time>2025-04-30T08:19:15.000Z</time>
</trkpt>
<trkpt lat="45.8911250" lon="10.2620250">
	<ele>1443.80</ele>
	<time>2025-04-30T08:19:16.000Z</time>
</trkpt>
<trkpt lat="45.8911240" lon="10.2620220">
	<ele>1444.00</ele>
	<time>2025-04-30T08:19:17.000Z</time>
</trkpt>
<trkpt lat="45.8911210" lon="10.2620210">
	<ele>1444.20</ele>
	<time>2025-04-30T08:19:18.000Z</time>
</trkpt>
<trkpt lat="45.8911180" lon="10.2620180">
	<ele>1444.40</ele>
	<time>2025-04-30T08:19:19.000Z</time>
</trkpt>
<trkpt lat="45.8911130" lon="10.2620170">
	<ele>1444.80</ele>
	<time>2025-04-30T08:19:20.000Z</time>
</trkpt>
<trkpt lat="45.8911090" lon="10.2620160">
	<ele>1445.00</ele>
	<time>2025-04-30T08:19:21.000Z</time>
</trkpt>
<trkpt lat="45.8911070" lon="10.2620160">
	<ele>1445.20</ele>
	<time>2025-04-30T08:19:22.000Z</time>
</trkpt>
<trkpt lat="45.8911050" lon="10.2620160">
	<ele>1445.20</ele>
	<time>2025-04-30T08:19:23.000Z</time>
</trkpt>
<trkpt lat="45.8911050" lon="10.2620150">
	<ele>1445.40</ele>
	<time>2025-04-30T08:19:24.000Z</time>
</trkpt>
<trkpt lat="45.8911040" lon="10.2620140">
	<ele>1445.60</ele>
	<time>2025-04-30T08:19:25.000Z</time>
</trkpt>
<trkpt lat="45.8911040" lon="10.2620120">
	<ele>1445.80</ele>
	<time>2025-04-30T08:19:26.000Z</time>
</trkpt>
<trkpt lat="45.8911030" lon="10.2620090">
	<ele>1446.00</ele>
	<time>2025-04-30T08:19:27.000Z</time>
</trkpt>
<trkpt lat="45.8911030" lon="10.2620030">
	<ele>1446.20</ele>
	<time>2025-04-30T08:19:28.000Z</time>
</trkpt>
<trkpt lat="45.8911030" lon="10.2619990">
	<ele>1446.20</ele>
	<time>2025-04-30T08:19:29.000Z</time>
</trkpt>
<trkpt lat="45.8911010" lon="10.2619960">
	<ele>1446.20</ele>
	<time>2025-04-30T08:19:30.000Z</time>
</trkpt>
<trkpt lat="45.8910980" lon="10.2619950">
	<ele>1446.20</ele>
	<time>2025-04-30T08:19:31.000Z</time>
</trkpt>
<trkpt lat="45.8910950" lon="10.2619910">
	<ele>1446.00</ele>
	<time>2025-04-30T08:19:32.000Z</time>
</trkpt>
<trkpt lat="45.8910930" lon="10.2619880">
	<ele>1446.00</ele>
	<time>2025-04-30T08:19:33.000Z</time>
</trkpt>
<trkpt lat="45.8910920" lon="10.2619850">
	<ele>1445.60</ele>
	<time>2025-04-30T08:19:34.000Z</time>
</trkpt>
<trkpt lat="45.8910900" lon="10.2619810">
	<ele>1445.60</ele>
	<time>2025-04-30T08:19:35.000Z</time>
</trkpt>
<trkpt lat="45.8910900" lon="10.2619740">
	<ele>1445.40</ele>
	<time>2025-04-30T08:19:36.000Z</time>
</trkpt>
<trkpt lat="45.8910900" lon="10.2619650">
	<ele>1445.40</ele>
	<time>2025-04-30T08:19:37.000Z</time>
</trkpt>
<trkpt lat="45.8910900" lon="10.2619580">
	<ele>1445.00</ele>
	<time>2025-04-30T08:19:38.000Z</time>
</trkpt>
<trkpt lat="45.8910900" lon="10.2619520">
	<ele>1444.60</ele>
	<time>2025-04-30T08:19:39.000Z</time>
</trkpt>
<trkpt lat="45.8910900" lon="10.2619460">
	<ele>1444.40</ele>
	<time>2025-04-30T08:19:40.000Z</time>
</trkpt>
<trkpt lat="45.8910900" lon="10.2619390">
	<ele>1444.20</ele>
	<time>2025-04-30T08:19:41.000Z</time>
</trkpt>
<trkpt lat="45.8910900" lon="10.2619350">
	<ele>1444.20</ele>
	<time>2025-04-30T08:19:42.000Z</time>
</trkpt>
<trkpt lat="45.8910900" lon="10.2619290">
	<ele>1444.00</ele>
	<time>2025-04-30T08:19:43.000Z</time>
</trkpt>
<trkpt lat="45.8910900" lon="10.2619220">
	<ele>1443.80</ele>
	<time>2025-04-30T08:19:44.000Z</time>
</trkpt>
<trkpt lat="45.8910900" lon="10.2619130">
	<ele>1443.40</ele>
	<time>2025-04-30T08:19:45.000Z</time>
</trkpt>
<trkpt lat="45.8910900" lon="10.2619060">
	<ele>1443.20</ele>
	<time>2025-04-30T08:19:46.000Z</time>
</trkpt>
<trkpt lat="45.8910900" lon="10.2619010">
	<ele>1443.00</ele>
	<time>2025-04-30T08:19:47.000Z</time>
</trkpt>
<trkpt lat="45.8910900" lon="10.2618970">
	<ele>1442.80</ele>
	<time>2025-04-30T08:19:48.000Z</time>
</trkpt>
<trkpt lat="45.8910880" lon="10.2618900">
	<ele>1442.40</ele>
	<time>2025-04-30T08:19:49.000Z</time>
</trkpt>
<trkpt lat="45.8910820" lon="10.2618810">
	<ele>1442.20</ele>
	<time>2025-04-30T08:19:50.000Z</time>
</trkpt>
<trkpt lat="45.8910730" lon="10.2618720">
	<ele>1442.20</ele>
	<time>2025-04-30T08:19:51.000Z</time>
</trkpt>
<trkpt lat="45.8910630" lon="10.2618600">
	<ele>1442.00</ele>
	<time>2025-04-30T08:19:52.000Z</time>
</trkpt>
<trkpt lat="45.8910520" lon="10.2618450">
	<ele>1442.00</ele>
	<time>2025-04-30T08:19:53.000Z</time>
</trkpt>
<trkpt lat="45.8910440" lon="10.2618290">
	<ele>1442.00</ele>
	<time>2025-04-30T08:19:54.000Z</time>
</trkpt>
<trkpt lat="45.8910400" lon="10.2618040">
	<ele>1441.80</ele>
	<time>2025-04-30T08:19:55.000Z</time>
</trkpt>
<trkpt lat="45.8910370" lon="10.2617800">
	<ele>1441.80</ele>
	<time>2025-04-30T08:19:56.000Z</time>
</trkpt>
<trkpt lat="45.8910290" lon="10.2617590">
	<ele>1441.80</ele>
	<time>2025-04-30T08:19:57.000Z</time>
</trkpt>
<trkpt lat="45.8910220" lon="10.2617390">
	<ele>1441.80</ele>
	<time>2025-04-30T08:19:58.000Z</time>
</trkpt>
<trkpt lat="45.8910190" lon="10.2617310">
	<ele>1441.80</ele>
	<time>2025-04-30T08:19:59.000Z</time>
</trkpt>
<trkpt lat="45.8910160" lon="10.2617260">
	<ele>1441.60</ele>
	<time>2025-04-30T08:20:00.000Z</time>
</trkpt>
<trkpt lat="45.8910170" lon="10.2617220">
	<ele>1441.40</ele>
	<time>2025-04-30T08:20:01.000Z</time>
</trkpt>
<trkpt lat="45.8910210" lon="10.2617170">
	<ele>1441.40</ele>
	<time>2025-04-30T08:20:02.000Z</time>
</trkpt>
<trkpt lat="45.8910260" lon="10.2617050">
	<ele>1441.20</ele>
	<time>2025-04-30T08:20:03.000Z</time>
</trkpt>
<trkpt lat="45.8910280" lon="10.2616850">
	<ele>1441.00</ele>
	<time>2025-04-30T08:20:04.000Z</time>
</trkpt>
<trkpt lat="45.8910270" lon="10.2616630">
	<ele>1441.00</ele>
	<time>2025-04-30T08:20:05.000Z</time>
</trkpt>
<trkpt lat="45.8910290" lon="10.2616430">
	<ele>1440.80</ele>
	<time>2025-04-30T08:20:06.000Z</time>
</trkpt>
<trkpt lat="45.8910230" lon="10.2616250">
	<ele>1440.80</ele>
	<time>2025-04-30T08:20:07.000Z</time>
</trkpt>
<trkpt lat="45.8910200" lon="10.2616100">
	<ele>1440.80</ele>
	<time>2025-04-30T08:20:08.000Z</time>
</trkpt>
<trkpt lat="45.8910230" lon="10.2615930">
	<ele>1440.80</ele>
	<time>2025-04-30T08:20:09.000Z</time>
</trkpt>
<trkpt lat="45.8910260" lon="10.2615790">
	<ele>1440.80</ele>
	<time>2025-04-30T08:20:10.000Z</time>
</trkpt>
<trkpt lat="45.8910240" lon="10.2615720">
	<ele>1440.80</ele>
	<time>2025-04-30T08:20:11.000Z</time>
</trkpt>
<trkpt lat="45.8910200" lon="10.2615630">
	<ele>1440.80</ele>
	<time>2025-04-30T08:20:12.000Z</time>
</trkpt>
<trkpt lat="45.8910100" lon="10.2615500">
	<ele>1440.60</ele>
	<time>2025-04-30T08:20:13.000Z</time>
</trkpt>
<trkpt lat="45.8910020" lon="10.2615290">
	<ele>1440.60</ele>
	<time>2025-04-30T08:20:14.000Z</time>
</trkpt>
<trkpt lat="45.8909970" lon="10.2615260">
	<ele>1440.80</ele>
	<time>2025-04-30T08:20:15.000Z</time>
</trkpt>
<trkpt lat="45.8909930" lon="10.2615240">
	<ele>1440.80</ele>
	<time>2025-04-30T08:20:16.000Z</time>
</trkpt>
<trkpt lat="45.8909820" lon="10.2615090">
	<ele>1440.80</ele>
	<time>2025-04-30T08:20:17.000Z</time>
</trkpt>
<trkpt lat="45.8909750" lon="10.2614900">
	<ele>1441.00</ele>
	<time>2025-04-30T08:20:18.000Z</time>
</trkpt>
<trkpt lat="45.8909720" lon="10.2614720">
	<ele>1441.00</ele>
	<time>2025-04-30T08:20:19.000Z</time>
</trkpt>
<trkpt lat="45.8909740" lon="10.2614540">
	<ele>1441.20</ele>
	<time>2025-04-30T08:20:20.000Z</time>
</trkpt>
<trkpt lat="45.8909690" lon="10.2614310">
	<ele>1441.20</ele>
	<time>2025-04-30T08:20:21.000Z</time>
</trkpt>
<trkpt lat="45.8909600" lon="10.2614090">
	<ele>1441.20</ele>
	<time>2025-04-30T08:20:22.000Z</time>
</trkpt>
<trkpt lat="45.8909490" lon="10.2613870">
	<ele>1441.00</ele>
	<time>2025-04-30T08:20:23.000Z</time>
</trkpt>
<trkpt lat="45.8909410" lon="10.2613690">
	<ele>1440.80</ele>
	<time>2025-04-30T08:20:24.000Z</time>
</trkpt>
<trkpt lat="45.8909370" lon="10.2613610">
	<ele>1440.80</ele>
	<time>2025-04-30T08:20:25.000Z</time>
</trkpt>
<trkpt lat="45.8909340" lon="10.2613530">
	<ele>1440.60</ele>
	<time>2025-04-30T08:20:26.000Z</time>
</trkpt>
<trkpt lat="45.8909340" lon="10.2613460">
	<ele>1440.60</ele>
	<time>2025-04-30T08:20:27.000Z</time>
</trkpt>
<trkpt lat="45.8909390" lon="10.2613400">
	<ele>1440.60</ele>
	<time>2025-04-30T08:20:28.000Z</time>
</trkpt>
<trkpt lat="45.8909340" lon="10.2613390">
	<ele>1440.40</ele>
	<time>2025-04-30T08:20:29.000Z</time>
</trkpt>
<trkpt lat="45.8909270" lon="10.2613400">
	<ele>1440.40</ele>
	<time>2025-04-30T08:20:30.000Z</time>
</trkpt>
<trkpt lat="45.8909260" lon="10.2613350">
	<ele>1440.40</ele>
	<time>2025-04-30T08:20:31.000Z</time>
</trkpt>
<trkpt lat="45.8909280" lon="10.2613330">
	<ele>1440.40</ele>
	<time>2025-04-30T08:20:32.000Z</time>
</trkpt>
<trkpt lat="45.8909420" lon="10.2613290">
	<ele>1440.40</ele>
	<time>2025-04-30T08:20:33.000Z</time>
</trkpt>
<trkpt lat="45.8909510" lon="10.2613260">
	<ele>1440.20</ele>
	<time>2025-04-30T08:20:34.000Z</time>
</trkpt>
<trkpt lat="45.8909490" lon="10.2613200">
	<ele>1440.20</ele>
	<time>2025-04-30T08:20:35.000Z</time>
</trkpt>
<trkpt lat="45.8909630" lon="10.2613210">
	<ele>1440.20</ele>
	<time>2025-04-30T08:20:36.000Z</time>
</trkpt>
<trkpt lat="45.8909750" lon="10.2613200">
	<ele>1440.20</ele>
	<time>2025-04-30T08:20:37.000Z</time>
</trkpt>
<trkpt lat="45.8909810" lon="10.2613170">
	<ele>1440.00</ele>
	<time>2025-04-30T08:20:38.000Z</time>
</trkpt>
<trkpt lat="45.8909830" lon="10.2613150">
	<ele>1439.80</ele>
	<time>2025-04-30T08:20:39.000Z</time>
</trkpt>
<trkpt lat="45.8909870" lon="10.2613120">
	<ele>1439.40</ele>
	<time>2025-04-30T08:20:40.000Z</time>
</trkpt>
<trkpt lat="45.8909870" lon="10.2613120">
	<ele>1439.00</ele>
	<time>2025-04-30T08:20:41.000Z</time>
</trkpt>
<trkpt lat="45.8909800" lon="10.2613160">
	<ele>1438.60</ele>
	<time>2025-04-30T08:20:42.000Z</time>
</trkpt>
<trkpt lat="45.8909730" lon="10.2613240">
	<ele>1438.40</ele>
	<time>2025-04-30T08:20:43.000Z</time>
</trkpt>
<trkpt lat="45.8909610" lon="10.2613220">
	<ele>1438.20</ele>
	<time>2025-04-30T08:20:44.000Z</time>
</trkpt>
<trkpt lat="45.8909510" lon="10.2613090">
	<ele>1438.00</ele>
	<time>2025-04-30T08:20:45.000Z</time>
</trkpt>
<trkpt lat="45.8909390" lon="10.2612870">
	<ele>1437.80</ele>
	<time>2025-04-30T08:20:46.000Z</time>
</trkpt>
<trkpt lat="45.8909310" lon="10.2612710">
	<ele>1437.40</ele>
	<time>2025-04-30T08:20:47.000Z</time>
</trkpt>
<trkpt lat="45.8909270" lon="10.2612530">
	<ele>1437.20</ele>
	<time>2025-04-30T08:20:48.000Z</time>
</trkpt>
<trkpt lat="45.8909230" lon="10.2612400">
	<ele>1437.00</ele>
	<time>2025-04-30T08:20:49.000Z</time>
</trkpt>
<trkpt lat="45.8909270" lon="10.2612330">
	<ele>1436.80</ele>
	<time>2025-04-30T08:20:50.000Z</time>
</trkpt>
<trkpt lat="45.8909280" lon="10.2612170">
	<ele>1436.40</ele>
	<time>2025-04-30T08:20:51.000Z</time>
</trkpt>
<trkpt lat="45.8909240" lon="10.2611970">
	<ele>1436.20</ele>
	<time>2025-04-30T08:20:52.000Z</time>
</trkpt>
<trkpt lat="45.8909100" lon="10.2611810">
	<ele>1436.00</ele>
	<time>2025-04-30T08:20:53.000Z</time>
</trkpt>
<trkpt lat="45.8908930" lon="10.2611750">
	<ele>1435.80</ele>
	<time>2025-04-30T08:20:54.000Z</time>
</trkpt>
<trkpt lat="45.8908760" lon="10.2611640">
	<ele>1435.40</ele>
	<time>2025-04-30T08:20:55.000Z</time>
</trkpt>
<trkpt lat="45.8908670" lon="10.2611430">
	<ele>1435.00</ele>
	<time>2025-04-30T08:20:56.000Z</time>
</trkpt>
<trkpt lat="45.8908590" lon="10.2611280">
	<ele>1434.60</ele>
	<time>2025-04-30T08:20:57.000Z</time>
</trkpt>
<trkpt lat="45.8908560" lon="10.2611180">
	<ele>1434.40</ele>
	<time>2025-04-30T08:20:58.000Z</time>
</trkpt>
<trkpt lat="45.8908540" lon="10.2611070">
	<ele>1434.20</ele>
	<time>2025-04-30T08:20:59.000Z</time>
</trkpt>
<trkpt lat="45.8908480" lon="10.2611030">
	<ele>1434.20</ele>
	<time>2025-04-30T08:21:00.000Z</time>
</trkpt>
<trkpt lat="45.8908420" lon="10.2611040">
	<ele>1434.00</ele>
	<time>2025-04-30T08:21:01.000Z</time>
</trkpt>
<trkpt lat="45.8908430" lon="10.2610840">
	<ele>1433.80</ele>
	<time>2025-04-30T08:21:02.000Z</time>
</trkpt>
<trkpt lat="45.8908450" lon="10.2610810">
	<ele>1433.60</ele>
	<time>2025-04-30T08:21:03.000Z</time>
</trkpt>
<trkpt lat="45.8908460" lon="10.2610760">
	<ele>1433.60</ele>
	<time>2025-04-30T08:21:04.000Z</time>
</trkpt>
<trkpt lat="45.8909020" lon="10.2609590">
	<ele>1415.20</ele>
	<time>2025-04-30T08:23:28.000Z</time>
</trkpt>
<trkpt lat="45.8909130" lon="10.2609640">
	<ele>1415.00</ele>
	<time>2025-04-30T08:23:29.000Z</time>
</trkpt>
<trkpt lat="45.8909180" lon="10.2609760">
	<ele>1415.00</ele>
	<time>2025-04-30T08:23:30.000Z</time>
</trkpt>
<trkpt lat="45.8909190" lon="10.2609920">
	<ele>1414.80</ele>
	<time>2025-04-30T08:23:31.000Z</time>
</trkpt>
<trkpt lat="45.8909190" lon="10.2610060">
	<ele>1414.60</ele>
	<time>2025-04-30T08:23:32.000Z</time>
</trkpt>
<trkpt lat="45.8909190" lon="10.2610130">
	<ele>1414.60</ele>
	<time>2025-04-30T08:23:33.000Z</time>
</trkpt>
<trkpt lat="45.8909250" lon="10.2610130">
	<ele>1414.20</ele>
	<time>2025-04-30T08:23:34.000Z</time>
</trkpt>
<trkpt lat="45.8909220" lon="10.2610220">
	<ele>1414.00</ele>
	<time>2025-04-30T08:23:35.000Z</time>
</trkpt>
<trkpt lat="45.8909280" lon="10.2610390">
	<ele>1413.60</ele>
	<time>2025-04-30T08:23:36.000Z</time>
</trkpt>
<trkpt lat="45.8909350" lon="10.2610640">
	<ele>1413.20</ele>
	<time>2025-04-30T08:23:37.000Z</time>
</trkpt>
<trkpt lat="45.8909370" lon="10.2610680">
	<ele>1412.80</ele>
	<time>2025-04-30T08:23:38.000Z</time>
</trkpt>
<trkpt lat="45.8909400" lon="10.2610720">
	<ele>1412.60</ele>
	<time>2025-04-30T08:23:39.000Z</time>
</trkpt>
<trkpt lat="45.8909350" lon="10.2610860">
	<ele>1412.40</ele>
	<time>2025-04-30T08:23:40.000Z</time>
</trkpt>
<trkpt lat="45.8909350" lon="10.2610890">
	<ele>1412.20</ele>
	<time>2025-04-30T08:23:41.000Z</time>
</trkpt>
<trkpt lat="45.8909490" lon="10.2610950">
	<ele>1412.00</ele>
	<time>2025-04-30T08:23:42.000Z</time>
</trkpt>
<trkpt lat="45.8909470" lon="10.2610950">
	<ele>1412.00</ele>
	<time>2025-04-30T08:23:43.000Z</time>
</trkpt>
<trkpt lat="45.8909440" lon="10.2610960">
	<ele>1411.80</ele>
	<time>2025-04-30T08:23:44.000Z</time>
</trkpt>
<trkpt lat="45.8909440" lon="10.2610990">
	<ele>1411.60</ele>
	<time>2025-04-30T08:23:45.000Z</time>
</trkpt>
<trkpt lat="45.8909590" lon="10.2611060">
	<ele>1411.60</ele>
	<time>2025-04-30T08:23:46.000Z</time>
</trkpt>
<trkpt lat="45.8909700" lon="10.2611120">
	<ele>1411.60</ele>
	<time>2025-04-30T08:23:47.000Z</time>
</trkpt>
<trkpt lat="45.8909770" lon="10.2611320">
	<ele>1411.40</ele>
	<time>2025-04-30T08:23:48.000Z</time>
</trkpt>
<trkpt lat="45.8909850" lon="10.2611450">
	<ele>1411.40</ele>
	<time>2025-04-30T08:23:49.000Z</time>
</trkpt>
<trkpt lat="45.8909950" lon="10.2611470">
	<ele>1411.40</ele>
	<time>2025-04-30T08:23:50.000Z</time>
</trkpt>
<trkpt lat="45.8910000" lon="10.2611490">
	<ele>1411.40</ele>
	<time>2025-04-30T08:23:51.000Z</time>
</trkpt>
<trkpt lat="45.8909960" lon="10.2611420">
	<ele>1411.40</ele>
	<time>2025-04-30T08:23:52.000Z</time>
</trkpt>
<trkpt lat="45.8909940" lon="10.2611420">
	<ele>1411.40</ele>
	<time>2025-04-30T08:23:53.000Z</time>
</trkpt>
<trkpt lat="45.8910020" lon="10.2611440">
	<ele>1411.20</ele>
	<time>2025-04-30T08:23:54.000Z</time>
</trkpt>
<trkpt lat="45.8910040" lon="10.2611490">
	<ele>1411.20</ele>
	<time>2025-04-30T08:23:55.000Z</time>
</trkpt>
<trkpt lat="45.8910170" lon="10.2611530">
	<ele>1411.20</ele>
	<time>2025-04-30T08:23:56.000Z</time>
</trkpt>
<trkpt lat="45.8910210" lon="10.2611540">
	<ele>1411.20</ele>
	<time>2025-04-30T08:23:57.000Z</time>
</trkpt>
<trkpt lat="45.8910390" lon="10.2611560">
	<ele>1411.00</ele>
	<time>2025-04-30T08:23:58.000Z</time>
</trkpt>
<trkpt lat="45.8910470" lon="10.2611590">
	<ele>1410.80</ele>
	<time>2025-04-30T08:23:59.000Z</time>
</trkpt>
<trkpt lat="45.8910500" lon="10.2611630">
	<ele>1410.80</ele>
	<time>2025-04-30T08:24:00.000Z</time>
</trkpt>
<trkpt lat="45.8910590" lon="10.2611670">
	<ele>1410.60</ele>
	<time>2025-04-30T08:24:01.000Z</time>
</trkpt>
<trkpt lat="45.8910760" lon="10.2611640">
	<ele>1410.40</ele>
	<time>2025-04-30T08:24:02.000Z</time>
</trkpt>
<trkpt lat="45.8910970" lon="10.2611640">
	<ele>1410.00</ele>
	<time>2025-04-30T08:24:03.000Z</time>
</trkpt>
<trkpt lat="45.8911030" lon="10.2611650">
	<ele>1409.80</ele>
	<time>2025-04-30T08:24:04.000Z</time>
</trkpt>
<trkpt lat="45.8911250" lon="10.2611570">
	<ele>1409.60</ele>
	<time>2025-04-30T08:24:05.000Z</time>
</trkpt>
<trkpt lat="45.8911290" lon="10.2611560">
	<ele>1409.40</ele>
	<time>2025-04-30T08:24:06.000Z</time>
</trkpt>
<trkpt lat="45.8911330" lon="10.2611520">
	<ele>1409.40</ele>
	<time>2025-04-30T08:24:07.000Z</time>
</trkpt>
<trkpt lat="45.8911360" lon="10.2611500">
	<ele>1409.40</ele>
	<time>2025-04-30T08:24:08.000Z</time>
</trkpt>
<trkpt lat="45.8911550" lon="10.2611440">
	<ele>1409.20</ele>
	<time>2025-04-30T08:24:09.000Z</time>
</trkpt>
<trkpt lat="45.8911730" lon="10.2611400">
	<ele>1409.20</ele>
	<time>2025-04-30T08:24:10.000Z</time>
</trkpt>
<trkpt lat="45.8911900" lon="10.2611300">
	<ele>1409.40</ele>
	<time>2025-04-30T08:24:11.000Z</time>
</trkpt>
<trkpt lat="45.8912140" lon="10.2611240">
	<ele>1409.40</ele>
	<time>2025-04-30T08:24:12.000Z</time>
</trkpt>
<trkpt lat="45.8912190" lon="10.2611250">
	<ele>1409.60</ele>
	<time>2025-04-30T08:24:13.000Z</time>
</trkpt>
<trkpt lat="45.8912390" lon="10.2611100">
	<ele>1409.60</ele>
	<time>2025-04-30T08:24:14.000Z</time>
</trkpt>
<trkpt lat="45.8912590" lon="10.2611000">
	<ele>1409.60</ele>
	<time>2025-04-30T08:24:15.000Z</time>
</trkpt>
<trkpt lat="45.8912660" lon="10.2611000">
	<ele>1409.60</ele>
	<time>2025-04-30T08:24:16.000Z</time>
</trkpt>
<trkpt lat="45.8912830" lon="10.2610830">
	<ele>1409.60</ele>
	<time>2025-04-30T08:24:17.000Z</time>
</trkpt>
<trkpt lat="45.8913050" lon="10.2610660">
	<ele>1409.40</ele>
	<time>2025-04-30T08:24:18.000Z</time>
</trkpt>
<trkpt lat="45.8913220" lon="10.2610430">
	<ele>1409.40</ele>
	<time>2025-04-30T08:24:19.000Z</time>
</trkpt>
<trkpt lat="45.8913370" lon="10.2610150">
	<ele>1409.20</ele>
	<time>2025-04-30T08:24:20.000Z</time>
</trkpt>
<trkpt lat="45.8913510" lon="10.2609920">
	<ele>1409.00</ele>
	<time>2025-04-30T08:24:21.000Z</time>
</trkpt>
<trkpt lat="45.8913700" lon="10.2609670">
	<ele>1408.80</ele>
	<time>2025-04-30T08:24:22.000Z</time>
</trkpt>
<trkpt lat="45.8913860" lon="10.2609450">
	<ele>1408.60</ele>
	<time>2025-04-30T08:24:23.000Z</time>
</trkpt>
<trkpt lat="45.8913890" lon="10.2609420">
	<ele>1408.60</ele>
	<time>2025-04-30T08:24:24.000Z</time>
</trkpt>
<trkpt lat="45.8914040" lon="10.2609060">
	<ele>1408.40</ele>
	<time>2025-04-30T08:24:25.000Z</time>
</trkpt>
<trkpt lat="45.8914060" lon="10.2608990">
	<ele>1408.20</ele>
	<time>2025-04-30T08:24:26.000Z</time>
</trkpt>
<trkpt lat="45.8914120" lon="10.2608710">
	<ele>1408.00</ele>
	<time>2025-04-30T08:24:27.000Z</time>
</trkpt>
<trkpt lat="45.8914150" lon="10.2608640">
	<ele>1407.80</ele>
	<time>2025-04-30T08:24:28.000Z</time>
</trkpt>
<trkpt lat="45.8914160" lon="10.2608580">
	<ele>1407.40</ele>
	<time>2025-04-30T08:24:29.000Z</time>
</trkpt>
<trkpt lat="45.8914260" lon="10.2608470">
	<ele>1407.20</ele>
	<time>2025-04-30T08:24:30.000Z</time>
</trkpt>
<trkpt lat="45.8914400" lon="10.2608470">
	<ele>1407.00</ele>
	<time>2025-04-30T08:24:31.000Z</time>
</trkpt>
<trkpt lat="45.8914430" lon="10.2608460">
	<ele>1406.80</ele>
	<time>2025-04-30T08:24:32.000Z</time>
</trkpt>
<trkpt lat="45.8914540" lon="10.2608390">
	<ele>1406.40</ele>
	<time>2025-04-30T08:24:33.000Z</time>
</trkpt>
<trkpt lat="45.8914690" lon="10.2608340">
	<ele>1406.20</ele>
	<time>2025-04-30T08:24:34.000Z</time>
</trkpt>
<trkpt lat="45.8914860" lon="10.2608300">
	<ele>1406.00</ele>
	<time>2025-04-30T08:24:35.000Z</time>
</trkpt>
<trkpt lat="45.8914920" lon="10.2608320">
	<ele>1405.60</ele>
	<time>2025-04-30T08:24:36.000Z</time>
</trkpt>
<trkpt lat="45.8914940" lon="10.2608330">
	<ele>1405.40</ele>
	<time>2025-04-30T08:24:37.000Z</time>
</trkpt>
<trkpt lat="45.8915030" lon="10.2608250">
	<ele>1405.20</ele>
	<time>2025-04-30T08:24:38.000Z</time>
</trkpt>
<trkpt lat="45.8915240" lon="10.2608160">
	<ele>1405.00</ele>
	<time>2025-04-30T08:24:39.000Z</time>
</trkpt>
<trkpt lat="45.8915440" lon="10.2608010">
	<ele>1405.00</ele>
	<time>2025-04-30T08:24:40.000Z</time>
</trkpt>
<trkpt lat="45.8915630" lon="10.2607840">
	<ele>1405.00</ele>
	<time>2025-04-30T08:24:41.000Z</time>
</trkpt>
<trkpt lat="45.8915840" lon="10.2607620">
	<ele>1405.00</ele>
	<time>2025-04-30T08:24:42.000Z</time>
</trkpt>
<trkpt lat="45.8915980" lon="10.2607430">
	<ele>1404.80</ele>
	<time>2025-04-30T08:24:43.000Z</time>
</trkpt>
<trkpt lat="45.8916110" lon="10.2607310">
	<ele>1404.80</ele>
	<time>2025-04-30T08:24:44.000Z</time>
</trkpt>
<trkpt lat="45.8916130" lon="10.2607260">
	<ele>1404.80</ele>
	<time>2025-04-30T08:24:45.000Z</time>
</trkpt>
<trkpt lat="45.8916190" lon="10.2607260">
	<ele>1404.80</ele>
	<time>2025-04-30T08:24:46.000Z</time>
</trkpt>
<trkpt lat="45.8916210" lon="10.2607250">
	<ele>1404.80</ele>
	<time>2025-04-30T08:24:47.000Z</time>
</trkpt>
<trkpt lat="45.8916160" lon="10.2607150">
	<ele>1404.80</ele>
	<time>2025-04-30T08:24:48.000Z</time>
</trkpt>
<trkpt lat="45.8916130" lon="10.2607130">
	<ele>1404.80</ele>
	<time>2025-04-30T08:24:49.000Z</time>
</trkpt>
<trkpt lat="45.8916090" lon="10.2607110">
	<ele>1405.00</ele>
	<time>2025-04-30T08:24:50.000Z</time>
</trkpt>
<trkpt lat="45.8916080" lon="10.2607120">
	<ele>1405.00</ele>
	<time>2025-04-30T08:24:51.000Z</time>
</trkpt>
<trkpt lat="45.8916120" lon="10.2607110">
	<ele>1405.00</ele>
	<time>2025-04-30T08:24:52.000Z</time>
</trkpt>
<trkpt lat="45.8916190" lon="10.2607130">
	<ele>1405.00</ele>
	<time>2025-04-30T08:24:53.000Z</time>
</trkpt>
<trkpt lat="45.8916210" lon="10.2607170">
	<ele>1405.00</ele>
	<time>2025-04-30T08:24:54.000Z</time>
</trkpt>
<trkpt lat="45.8916180" lon="10.2607190">
	<ele>1405.00</ele>
	<time>2025-04-30T08:24:55.000Z</time>
</trkpt>
<trkpt lat="45.8916180" lon="10.2607180">
	<ele>1405.00</ele>
	<time>2025-04-30T08:24:56.000Z</time>
</trkpt>
<trkpt lat="45.8916210" lon="10.2607110">
	<ele>1405.00</ele>
	<time>2025-04-30T08:24:57.000Z</time>
</trkpt>
<trkpt lat="45.8916240" lon="10.2607090">
	<ele>1405.00</ele>
	<time>2025-04-30T08:24:58.000Z</time>
</trkpt>
<trkpt lat="45.8916240" lon="10.2607040">
	<ele>1405.00</ele>
	<time>2025-04-30T08:24:59.000Z</time>
</trkpt>
<trkpt lat="45.8916240" lon="10.2606940">
	<ele>1404.80</ele>
	<time>2025-04-30T08:25:00.000Z</time>
</trkpt>
<trkpt lat="45.8916240" lon="10.2606890">
	<ele>1404.80</ele>
	<time>2025-04-30T08:25:01.000Z</time>
</trkpt>
<trkpt lat="45.8916260" lon="10.2606880">
	<ele>1404.80</ele>
	<time>2025-04-30T08:25:02.000Z</time>
</trkpt>
<trkpt lat="45.8916380" lon="10.2606930">
	<ele>1404.80</ele>
	<time>2025-04-30T08:25:03.000Z</time>
</trkpt>
<trkpt lat="45.8916420" lon="10.2606940">
	<ele>1404.80</ele>
	<time>2025-04-30T08:25:04.000Z</time>
</trkpt>
<trkpt lat="45.8916410" lon="10.2606910">
	<ele>1404.80</ele>
	<time>2025-04-30T08:25:05.000Z</time>
</trkpt>
<trkpt lat="45.8916410" lon="10.2606980">
	<ele>1404.80</ele>
	<time>2025-04-30T08:25:06.000Z</time>
</trkpt>
<trkpt lat="45.8916420" lon="10.2606990">
	<ele>1404.80</ele>
	<time>2025-04-30T08:25:07.000Z</time>
</trkpt>
<trkpt lat="45.8916420" lon="10.2606990">
	<ele>1404.80</ele>
	<time>2025-04-30T08:25:08.000Z</time>
</trkpt>
<trkpt lat="45.8916420" lon="10.2606990">
	<ele>1405.00</ele>
	<time>2025-04-30T08:25:09.000Z</time>
</trkpt>
<trkpt lat="45.8916420" lon="10.2606990">
	<ele>1404.80</ele>
	<time>2025-04-30T08:25:10.000Z</time>
</trkpt>
<trkpt lat="45.8916450" lon="10.2606990">
	<ele>1404.80</ele>
	<time>2025-04-30T08:25:11.000Z</time>
</trkpt>
<trkpt lat="45.8916580" lon="10.2607000">
	<ele>1404.80</ele>
	<time>2025-04-30T08:25:12.000Z</time>
</trkpt>
<trkpt lat="45.8916690" lon="10.2606940">
	<ele>1404.80</ele>
	<time>2025-04-30T08:25:13.000Z</time>
</trkpt>
<trkpt lat="45.8916810" lon="10.2606820">
	<ele>1404.40</ele>
	<time>2025-04-30T08:25:14.000Z</time>
</trkpt>
<trkpt lat="45.8916910" lon="10.2606670">
	<ele>1404.40</ele>
	<time>2025-04-30T08:25:15.000Z</time>
</trkpt>
<trkpt lat="45.8916990" lon="10.2606690">
	<ele>1404.20</ele>
	<time>2025-04-30T08:25:16.000Z</time>
</trkpt>
<trkpt lat="45.8917070" lon="10.2606650">
	<ele>1404.00</ele>
	<time>2025-04-30T08:25:17.000Z</time>
</trkpt>
<trkpt lat="45.8917120" lon="10.2606660">
	<ele>1403.80</ele>
	<time>2025-04-30T08:25:18.000Z</time>
</trkpt>
<trkpt lat="45.8917290" lon="10.2606600">
	<ele>1403.60</ele>
	<time>2025-04-30T08:25:19.000Z</time>
</trkpt>
<trkpt lat="45.8917370" lon="10.2606570">
	<ele>1403.40</ele>
	<time>2025-04-30T08:25:20.000Z</time>
</trkpt>
<trkpt lat="45.8917420" lon="10.2606430">
	<ele>1403.20</ele>
	<time>2025-04-30T08:25:21.000Z</time>
</trkpt>
<trkpt lat="45.8917520" lon="10.2606300">
	<ele>1403.20</ele>
	<time>2025-04-30T08:25:22.000Z</time>
</trkpt>
<trkpt lat="45.8917540" lon="10.2606290">
	<ele>1402.80</ele>
	<time>2025-04-30T08:25:23.000Z</time>
</trkpt>
<trkpt lat="45.8917580" lon="10.2606260">
	<ele>1402.40</ele>
	<time>2025-04-30T08:25:24.000Z</time>
</trkpt>
<trkpt lat="45.8917590" lon="10.2606230">
	<ele>1402.00</ele>
	<time>2025-04-30T08:25:25.000Z</time>
</trkpt>
<trkpt lat="45.8917670" lon="10.2606080">
	<ele>1401.60</ele>
	<time>2025-04-30T08:25:26.000Z</time>
</trkpt>
<trkpt lat="45.8917810" lon="10.2606000">
	<ele>1401.40</ele>
	<time>2025-04-30T08:25:27.000Z</time>
</trkpt>
<trkpt lat="45.8917970" lon="10.2605950">
	<ele>1401.20</ele>
	<time>2025-04-30T08:25:28.000Z</time>
</trkpt>
<trkpt lat="45.8917990" lon="10.2605900">
	<ele>1400.80</ele>
	<time>2025-04-30T08:25:29.000Z</time>
</trkpt>
<trkpt lat="45.8918000" lon="10.2605870">
	<ele>1400.60</ele>
	<time>2025-04-30T08:25:30.000Z</time>
</trkpt>
<trkpt lat="45.8918100" lon="10.2605840">
	<ele>1400.20</ele>
	<time>2025-04-30T08:25:31.000Z</time>
</trkpt>
<trkpt lat="45.8918240" lon="10.2605680">
	<ele>1400.00</ele>
	<time>2025-04-30T08:25:32.000Z</time>
</trkpt>
<trkpt lat="45.8918400" lon="10.2605530">
	<ele>1399.80</ele>
	<time>2025-04-30T08:25:33.000Z</time>
</trkpt>
<trkpt lat="45.8918610" lon="10.2605350">
	<ele>1399.20</ele>
	<time>2025-04-30T08:25:34.000Z</time>
</trkpt>
<trkpt lat="45.8918800" lon="10.2605220">
	<ele>1399.00</ele>
	<time>2025-04-30T08:25:35.000Z</time>
</trkpt>
<trkpt lat="45.8918970" lon="10.2605140">
	<ele>1398.80</ele>
	<time>2025-04-30T08:25:36.000Z</time>
</trkpt>
<trkpt lat="45.8919090" lon="10.2605050">
	<ele>1398.20</ele>
	<time>2025-04-30T08:25:37.000Z</time>
</trkpt>
<trkpt lat="45.8919180" lon="10.2604940">
	<ele>1398.00</ele>
	<time>2025-04-30T08:25:38.000Z</time>
</trkpt>
<trkpt lat="45.8919230" lon="10.2604830">
	<ele>1397.80</ele>
	<time>2025-04-30T08:25:39.000Z</time>
</trkpt>
<trkpt lat="45.8919310" lon="10.2604760">
	<ele>1397.60</ele>
	<time>2025-04-30T08:25:40.000Z</time>
</trkpt>
<trkpt lat="45.8919460" lon="10.2604690">
	<ele>1397.60</ele>
	<time>2025-04-30T08:25:41.000Z</time>
</trkpt>
<trkpt lat="45.8919560" lon="10.2604610">
	<ele>1397.60</ele>
	<time>2025-04-30T08:25:42.000Z</time>
</trkpt>
<trkpt lat="45.8919680" lon="10.2604510">
	<ele>1397.60</ele>
	<time>2025-04-30T08:25:43.000Z</time>
</trkpt>
<trkpt lat="45.8919790" lon="10.2604430">
	<ele>1397.60</ele>
	<time>2025-04-30T08:25:44.000Z</time>
</trkpt>
<trkpt lat="45.8919870" lon="10.2604280">
	<ele>1397.60</ele>
	<time>2025-04-30T08:25:45.000Z</time>
</trkpt>
<trkpt lat="45.8919920" lon="10.2604160">
	<ele>1397.20</ele>
	<time>2025-04-30T08:25:46.000Z</time>
</trkpt>
<trkpt lat="45.8920050" lon="10.2604060">
	<ele>1397.00</ele>
	<time>2025-04-30T08:25:47.000Z</time>
</trkpt>
<trkpt lat="45.8920280" lon="10.2604040">
	<ele>1397.00</ele>
	<time>2025-04-30T08:25:48.000Z</time>
</trkpt>
<trkpt lat="45.8920470" lon="10.2604120">
	<ele>1396.80</ele>
	<time>2025-04-30T08:25:49.000Z</time>
</trkpt>
<trkpt lat="45.8920610" lon="10.2604140">
	<ele>1396.60</ele>
	<time>2025-04-30T08:25:50.000Z</time>
</trkpt>
<trkpt lat="45.8920720" lon="10.2604130">
	<ele>1396.60</ele>
	<time>2025-04-30T08:25:51.000Z</time>
</trkpt>
<trkpt lat="45.8920880" lon="10.2604100">
	<ele>1396.60</ele>
	<time>2025-04-30T08:25:52.000Z</time>
</trkpt>
<trkpt lat="45.8921000" lon="10.2604070">
	<ele>1396.60</ele>
	<time>2025-04-30T08:25:53.000Z</time>
</trkpt>
<trkpt lat="45.8921110" lon="10.2603990">
	<ele>1396.60</ele>
	<time>2025-04-30T08:25:54.000Z</time>
</trkpt>
<trkpt lat="45.8921240" lon="10.2603920">
	<ele>1396.60</ele>
	<time>2025-04-30T08:25:55.000Z</time>
</trkpt>
<trkpt lat="45.8921260" lon="10.2603830">
	<ele>1396.60</ele>
	<time>2025-04-30T08:25:56.000Z</time>
</trkpt>
<trkpt lat="45.8921290" lon="10.2603800">
	<ele>1396.60</ele>
	<time>2025-04-30T08:25:57.000Z</time>
</trkpt>
<trkpt lat="45.8921390" lon="10.2603850">
	<ele>1396.40</ele>
	<time>2025-04-30T08:25:58.000Z</time>
</trkpt>
<trkpt lat="45.8921390" lon="10.2603720">
	<ele>1396.20</ele>
	<time>2025-04-30T08:25:59.000Z</time>
</trkpt>
<trkpt lat="45.8921440" lon="10.2603700">
	<ele>1396.00</ele>
	<time>2025-04-30T08:26:00.000Z</time>
</trkpt>
<trkpt lat="45.8921470" lon="10.2603560">
	<ele>1395.80</ele>
	<time>2025-04-30T08:26:01.000Z</time>
</trkpt>
<trkpt lat="45.8921460" lon="10.2603400">
	<ele>1395.40</ele>
	<time>2025-04-30T08:26:02.000Z</time>
</trkpt>
<trkpt lat="45.8921550" lon="10.2603300">
	<ele>1395.00</ele>
	<time>2025-04-30T08:26:03.000Z</time>
</trkpt>
<trkpt lat="45.8921700" lon="10.2603220">
	<ele>1394.80</ele>
	<time>2025-04-30T08:26:04.000Z</time>
</trkpt>
<trkpt lat="45.8921830" lon="10.2603010">
	<ele>1394.60</ele>
	<time>2025-04-30T08:26:05.000Z</time>
</trkpt>
<trkpt lat="45.8921960" lon="10.2602820">
	<ele>1394.40</ele>
	<time>2025-04-30T08:26:06.000Z</time>
</trkpt>
<trkpt lat="45.8922050" lon="10.2602500">
	<ele>1394.00</ele>
	<time>2025-04-30T08:26:07.000Z</time>
</trkpt>
<trkpt lat="45.8922080" lon="10.2602260">
	<ele>1393.80</ele>
	<time>2025-04-30T08:26:08.000Z</time>
</trkpt>
<trkpt lat="45.8922060" lon="10.2602020">
	<ele>1393.60</ele>
	<time>2025-04-30T08:26:09.000Z</time>
</trkpt>
<trkpt lat="45.8922080" lon="10.2601930">
	<ele>1393.40</ele>
	<time>2025-04-30T08:26:10.000Z</time>
</trkpt>
<trkpt lat="45.8922260" lon="10.2601710">
	<ele>1393.40</ele>
	<time>2025-04-30T08:26:11.000Z</time>
</trkpt>
<trkpt lat="45.8922420" lon="10.2601580">
	<ele>1393.20</ele>
	<time>2025-04-30T08:26:12.000Z</time>
</trkpt>
<trkpt lat="45.8922510" lon="10.2601520">
	<ele>1393.20</ele>
	<time>2025-04-30T08:26:13.000Z</time>
</trkpt>
<trkpt lat="45.8922550" lon="10.2601410">
	<ele>1392.80</ele>
	<time>2025-04-30T08:26:14.000Z</time>
</trkpt>
<trkpt lat="45.8922640" lon="10.2601330">
	<ele>1392.60</ele>
	<time>2025-04-30T08:26:15.000Z</time>
</trkpt>
<trkpt lat="45.8922750" lon="10.2601260">
	<ele>1392.40</ele>
	<time>2025-04-30T08:26:16.000Z</time>
</trkpt>
<trkpt lat="45.8922850" lon="10.2601140">
	<ele>1392.20</ele>
	<time>2025-04-30T08:26:17.000Z</time>
</trkpt>
<trkpt lat="45.8923040" lon="10.2600970">
	<ele>1392.00</ele>
	<time>2025-04-30T08:26:18.000Z</time>
</trkpt>
<trkpt lat="45.8923260" lon="10.2600790">
	<ele>1392.00</ele>
	<time>2025-04-30T08:26:19.000Z</time>
</trkpt>
<trkpt lat="45.8923290" lon="10.2600730">
	<ele>1392.20</ele>
	<time>2025-04-30T08:26:20.000Z</time>
</trkpt>
<trkpt lat="45.8923310" lon="10.2600680">
	<ele>1392.20</ele>
	<time>2025-04-30T08:26:21.000Z</time>
</trkpt>
<trkpt lat="45.8923330" lon="10.2600650">
	<ele>1392.20</ele>
	<time>2025-04-30T08:26:22.000Z</time>
</trkpt>
<trkpt lat="45.8923450" lon="10.2600530">
	<ele>1392.20</ele>
	<time>2025-04-30T08:26:23.000Z</time>
</trkpt>
<trkpt lat="45.8923530" lon="10.2600460">
	<ele>1392.20</ele>
	<time>2025-04-30T08:26:24.000Z</time>
</trkpt>
<trkpt lat="45.8923510" lon="10.2600410">
	<ele>1392.20</ele>
	<time>2025-04-30T08:26:25.000Z</time>
</trkpt>
<trkpt lat="45.8923460" lon="10.2600490">
	<ele>1391.80</ele>
	<time>2025-04-30T08:26:26.000Z</time>
</trkpt>
<trkpt lat="45.8923430" lon="10.2600510">
	<ele>1391.80</ele>
	<time>2025-04-30T08:26:27.000Z</time>
</trkpt>
<trkpt lat="45.8923370" lon="10.2600470">
	<ele>1391.40</ele>
	<time>2025-04-30T08:26:28.000Z</time>
</trkpt>
<trkpt lat="45.8923320" lon="10.2600320">
	<ele>1391.40</ele>
	<time>2025-04-30T08:26:29.000Z</time>
</trkpt>
<trkpt lat="45.8923320" lon="10.2600200">
	<ele>1391.20</ele>
	<time>2025-04-30T08:26:30.000Z</time>
</trkpt>
<trkpt lat="45.8923310" lon="10.2600020">
	<ele>1391.00</ele>
	<time>2025-04-30T08:26:31.000Z</time>
</trkpt>
<trkpt lat="45.8923350" lon="10.2599830">
	<ele>1390.80</ele>
	<time>2025-04-30T08:26:32.000Z</time>
</trkpt>
<trkpt lat="45.8923330" lon="10.2599600">
	<ele>1390.60</ele>
	<time>2025-04-30T08:26:33.000Z</time>
</trkpt>
<trkpt lat="45.8923390" lon="10.2599490">
	<ele>1390.60</ele>
	<time>2025-04-30T08:26:34.000Z</time>
</trkpt>
<trkpt lat="45.8923440" lon="10.2599380">
	<ele>1390.40</ele>
	<time>2025-04-30T08:26:35.000Z</time>
</trkpt>
<trkpt lat="45.8923520" lon="10.2599270">
	<ele>1390.20</ele>
	<time>2025-04-30T08:26:36.000Z</time>
</trkpt>
<trkpt lat="45.8923590" lon="10.2599190">
	<ele>1390.20</ele>
	<time>2025-04-30T08:26:37.000Z</time>
</trkpt>
<trkpt lat="45.8923680" lon="10.2599120">
	<ele>1390.00</ele>
	<time>2025-04-30T08:26:38.000Z</time>
</trkpt>
<trkpt lat="45.8923680" lon="10.2598960">
	<ele>1390.00</ele>
	<time>2025-04-30T08:26:39.000Z</time>
</trkpt>
<trkpt lat="45.8923660" lon="10.2598770">
	<ele>1390.00</ele>
	<time>2025-04-30T08:26:40.000Z</time>
</trkpt>
<trkpt lat="45.8923740" lon="10.2598620">
	<ele>1390.00</ele>
	<time>2025-04-30T08:26:41.000Z</time>
</trkpt>
<trkpt lat="45.8923800" lon="10.2598530">
	<ele>1390.20</ele>
	<time>2025-04-30T08:26:42.000Z</time>
</trkpt>
<trkpt lat="45.8923880" lon="10.2598510">
	<ele>1390.40</ele>
	<time>2025-04-30T08:26:43.000Z</time>
</trkpt>
<trkpt lat="45.8923920" lon="10.2598500">
	<ele>1390.40</ele>
	<time>2025-04-30T08:26:44.000Z</time>
</trkpt>
<trkpt lat="45.8923990" lon="10.2598480">
	<ele>1390.60</ele>
	<time>2025-04-30T08:26:45.000Z</time>
</trkpt>
<trkpt lat="45.8924030" lon="10.2598460">
	<ele>1390.40</ele>
	<time>2025-04-30T08:26:46.000Z</time>
</trkpt>
<trkpt lat="45.8924060" lon="10.2598450">
	<ele>1390.20</ele>
	<time>2025-04-30T08:26:47.000Z</time>
</trkpt>
<trkpt lat="45.8924030" lon="10.2598440">
	<ele>1390.00</ele>
	<time>2025-04-30T08:26:48.000Z</time>
</trkpt>
<trkpt lat="45.8924040" lon="10.2598470">
	<ele>1389.80</ele>
	<time>2025-04-30T08:26:49.000Z</time>
</trkpt>
<trkpt lat="45.8924110" lon="10.2598410">
	<ele>1389.80</ele>
	<time>2025-04-30T08:26:50.000Z</time>
</trkpt>
<trkpt lat="45.8924090" lon="10.2598420">
	<ele>1389.60</ele>
	<time>2025-04-30T08:26:51.000Z</time>
</trkpt>
<trkpt lat="45.8924080" lon="10.2598420">
	<ele>1389.40</ele>
	<time>2025-04-30T08:26:52.000Z</time>
</trkpt>
<trkpt lat="45.8924050" lon="10.2598410">
	<ele>1389.40</ele>
	<time>2025-04-30T08:26:53.000Z</time>
</trkpt>
<trkpt lat="45.8924040" lon="10.2598400">
	<ele>1389.40</ele>
	<time>2025-04-30T08:26:54.000Z</time>
</trkpt>
<trkpt lat="45.8924050" lon="10.2598400">
	<ele>1389.40</ele>
	<time>2025-04-30T08:26:55.000Z</time>
</trkpt>
<trkpt lat="45.8924030" lon="10.2598330">
	<ele>1389.40</ele>
	<time>2025-04-30T08:26:56.000Z</time>
</trkpt>
<trkpt lat="45.8923990" lon="10.2598200">
	<ele>1389.20</ele>
	<time>2025-04-30T08:26:57.000Z</time>
</trkpt>
<trkpt lat="45.8923950" lon="10.2598180">
	<ele>1389.40</ele>
	<time>2025-04-30T08:26:58.000Z</time>
</trkpt>
<trkpt lat="45.8923960" lon="10.2598180">
	<ele>1389.40</ele>
	<time>2025-04-30T08:26:59.000Z</time>
</trkpt>
<trkpt lat="45.8923970" lon="10.2598200">
	<ele>1389.20</ele>
	<time>2025-04-30T08:27:00.000Z</time>
</trkpt>
<trkpt lat="45.8924010" lon="10.2598200">
	<ele>1389.20</ele>
	<time>2025-04-30T08:27:01.000Z</time>
</trkpt>
<trkpt lat="45.8923970" lon="10.2598130">
	<ele>1389.20</ele>
	<time>2025-04-30T08:27:02.000Z</time>
</trkpt>
<trkpt lat="45.8923970" lon="10.2598130">
	<ele>1389.20</ele>
	<time>2025-04-30T08:27:03.000Z</time>
</trkpt>
<trkpt lat="45.8923970" lon="10.2598130">
	<ele>1389.20</ele>
	<time>2025-04-30T08:27:04.000Z</time>
</trkpt>
<trkpt lat="45.8923970" lon="10.2598130">
	<ele>1389.20</ele>
	<time>2025-04-30T08:27:05.000Z</time>
</trkpt>
<trkpt lat="45.8923970" lon="10.2598130">
	<ele>1389.20</ele>
	<time>2025-04-30T08:27:06.000Z</time>
</trkpt>
<trkpt lat="45.8923970" lon="10.2598130">
	<ele>1389.20</ele>
	<time>2025-04-30T08:27:07.000Z</time>
</trkpt>
<trkpt lat="45.8923970" lon="10.2598130">
	<ele>1389.20</ele>
	<time>2025-04-30T08:27:08.000Z</time>
</trkpt>
<trkpt lat="45.8923970" lon="10.2598130">
	<ele>1389.00</ele>
	<time>2025-04-30T08:27:09.000Z</time>
</trkpt>
<trkpt lat="45.8923970" lon="10.2598130">
	<ele>1389.00</ele>
	<time>2025-04-30T08:27:10.000Z</time>
</trkpt>
<trkpt lat="45.8923970" lon="10.2598130">
	<ele>1389.00</ele>
	<time>2025-04-30T08:27:11.000Z</time>
</trkpt>
<trkpt lat="45.8923970" lon="10.2598130">
	<ele>1389.00</ele>
	<time>2025-04-30T08:27:12.000Z</time>
</trkpt>
<trkpt lat="45.8923970" lon="10.2598130">
	<ele>1389.00</ele>
	<time>2025-04-30T08:27:13.000Z</time>
</trkpt>
<trkpt lat="45.8923970" lon="10.2598130">
	<ele>1389.00</ele>
	<time>2025-04-30T08:27:14.000Z</time>
</trkpt>
<trkpt lat="45.8923970" lon="10.2598130">
	<ele>1389.00</ele>
	<time>2025-04-30T08:27:15.000Z</time>
</trkpt>
<trkpt lat="45.8923970" lon="10.2598130">
	<ele>1389.00</ele>
	<time>2025-04-30T08:27:16.000Z</time>
</trkpt>
<trkpt lat="45.8923970" lon="10.2598130">
	<ele>1389.00</ele>
	<time>2025-04-30T08:27:17.000Z</time>
</trkpt>
<trkpt lat="45.8923970" lon="10.2598130">
	<ele>1389.20</ele>
	<time>2025-04-30T08:27:18.000Z</time>
</trkpt>
<trkpt lat="45.8923970" lon="10.2598130">
	<ele>1389.20</ele>
	<time>2025-04-30T08:27:19.000Z</time>
</trkpt>
<trkpt lat="45.8923970" lon="10.2598130">
	<ele>1389.20</ele>
	<time>2025-04-30T08:27:20.000Z</time>
</trkpt>
<trkpt lat="45.8923960" lon="10.2598100">
	<ele>1389.20</ele>
	<time>2025-04-30T08:27:21.000Z</time>
</trkpt>
<trkpt lat="45.8923960" lon="10.2598070">
	<ele>1389.00</ele>
	<time>2025-04-30T08:27:22.000Z</time>
</trkpt>
<trkpt lat="45.8923960" lon="10.2597990">
	<ele>1389.00</ele>
	<time>2025-04-30T08:27:23.000Z</time>
</trkpt>
<trkpt lat="45.8924030" lon="10.2597780">
	<ele>1388.80</ele>
	<time>2025-04-30T08:27:24.000Z</time>
</trkpt>
<trkpt lat="45.8924080" lon="10.2597550">
	<ele>1388.60</ele>
	<time>2025-04-30T08:27:25.000Z</time>
</trkpt>
<trkpt lat="45.8924150" lon="10.2597330">
	<ele>1388.40</ele>
	<time>2025-04-30T08:27:26.000Z</time>
</trkpt>
<trkpt lat="45.8924220" lon="10.2597150">
	<ele>1388.40</ele>
	<time>2025-04-30T08:27:27.000Z</time>
</trkpt>
<trkpt lat="45.8924320" lon="10.2597010">
	<ele>1388.40</ele>
	<time>2025-04-30T08:27:28.000Z</time>
</trkpt>
<trkpt lat="45.8924410" lon="10.2596860">
	<ele>1388.40</ele>
	<time>2025-04-30T08:27:29.000Z</time>
</trkpt>
<trkpt lat="45.8924510" lon="10.2596750">
	<ele>1388.40</ele>
	<time>2025-04-30T08:27:30.000Z</time>
</trkpt>
<trkpt lat="45.8924520" lon="10.2596610">
	<ele>1388.60</ele>
	<time>2025-04-30T08:27:31.000Z</time>
</trkpt>
<trkpt lat="45.8924450" lon="10.2596450">
	<ele>1388.80</ele>
	<time>2025-04-30T08:27:32.000Z</time>
</trkpt>
<trkpt lat="45.8924470" lon="10.2596390">
	<ele>1389.00</ele>
	<time>2025-04-30T08:27:33.000Z</time>
</trkpt>
<trkpt lat="45.8924540" lon="10.2596360">
	<ele>1389.20</ele>
	<time>2025-04-30T08:27:34.000Z</time>
</trkpt>
<trkpt lat="45.8924680" lon="10.2596310">
	<ele>1389.20</ele>
	<time>2025-04-30T08:27:35.000Z</time>
</trkpt>
<trkpt lat="45.8924740" lon="10.2596250">
	<ele>1389.20</ele>
	<time>2025-04-30T08:27:36.000Z</time>
</trkpt>
<trkpt lat="45.8924850" lon="10.2596170">
	<ele>1389.20</ele>
	<time>2025-04-30T08:27:37.000Z</time>
</trkpt>
<trkpt lat="45.8924900" lon="10.2596140">
	<ele>1389.20</ele>
	<time>2025-04-30T08:27:38.000Z</time>
</trkpt>
<trkpt lat="45.8924990" lon="10.2596060">
	<ele>1389.20</ele>
	<time>2025-04-30T08:27:39.000Z</time>
</trkpt>
<trkpt lat="45.8925080" lon="10.2595980">
	<ele>1389.20</ele>
	<time>2025-04-30T08:27:40.000Z</time>
</trkpt>
<trkpt lat="45.8925190" lon="10.2595890">
	<ele>1389.40</ele>
	<time>2025-04-30T08:27:41.000Z</time>
</trkpt>
<trkpt lat="45.8925260" lon="10.2595770">
	<ele>1389.40</ele>
	<time>2025-04-30T08:27:42.000Z</time>
</trkpt>
<trkpt lat="45.8925310" lon="10.2595670">
	<ele>1389.60</ele>
	<time>2025-04-30T08:27:43.000Z</time>
</trkpt>
<trkpt lat="45.8925360" lon="10.2595600">
	<ele>1389.80</ele>
	<time>2025-04-30T08:27:44.000Z</time>
</trkpt>
<trkpt lat="45.8925400" lon="10.2595520">
	<ele>1389.80</ele>
	<time>2025-04-30T08:27:45.000Z</time>
</trkpt>
<trkpt lat="45.8925410" lon="10.2595460">
	<ele>1390.00</ele>
	<time>2025-04-30T08:27:46.000Z</time>
</trkpt>
<trkpt lat="45.8925430" lon="10.2595410">
	<ele>1390.20</ele>
	<time>2025-04-30T08:27:47.000Z</time>
</trkpt>
<trkpt lat="45.8925440" lon="10.2595380">
	<ele>1390.40</ele>
	<time>2025-04-30T08:27:48.000Z</time>
</trkpt>
<trkpt lat="45.8925580" lon="10.2595290">
	<ele>1390.40</ele>
	<time>2025-04-30T08:27:49.000Z</time>
</trkpt>
<trkpt lat="45.8925660" lon="10.2595220">
	<ele>1390.80</ele>
	<time>2025-04-30T08:27:50.000Z</time>
</trkpt>
<trkpt lat="45.8925750" lon="10.2595130">
	<ele>1390.80</ele>
	<time>2025-04-30T08:27:51.000Z</time>
</trkpt>
<trkpt lat="45.8925790" lon="10.2595100">
	<ele>1391.00</ele>
	<time>2025-04-30T08:27:52.000Z</time>
</trkpt>
<trkpt lat="45.8925810" lon="10.2595070">
	<ele>1391.20</ele>
	<time>2025-04-30T08:27:53.000Z</time>
</trkpt>
<trkpt lat="45.8925810" lon="10.2595050">
	<ele>1391.20</ele>
	<time>2025-04-30T08:27:54.000Z</time>
</trkpt>
<trkpt lat="45.8925810" lon="10.2595060">
	<ele>1391.20</ele>
	<time>2025-04-30T08:27:55.000Z</time>
</trkpt>
<trkpt lat="45.8925750" lon="10.2595080">
	<ele>1391.20</ele>
	<time>2025-04-30T08:27:56.000Z</time>
</trkpt>
<trkpt lat="45.8925740" lon="10.2595090">
	<ele>1391.40</ele>
	<time>2025-04-30T08:27:57.000Z</time>
</trkpt>
<trkpt lat="45.8925770" lon="10.2595130">
	<ele>1391.40</ele>
	<time>2025-04-30T08:27:58.000Z</time>
</trkpt>
<trkpt lat="45.8925800" lon="10.2595130">
	<ele>1391.60</ele>
	<time>2025-04-30T08:27:59.000Z</time>
</trkpt>
<trkpt lat="45.8925830" lon="10.2595110">
	<ele>1391.60</ele>
	<time>2025-04-30T08:28:00.000Z</time>
</trkpt>
<trkpt lat="45.8925840" lon="10.2595090">
	<ele>1391.60</ele>
	<time>2025-04-30T08:28:01.000Z</time>
</trkpt>
<trkpt lat="45.8925940" lon="10.2595050">
	<ele>1391.60</ele>
	<time>2025-04-30T08:28:02.000Z</time>
</trkpt>
<trkpt lat="45.8926030" lon="10.2595060">
	<ele>1391.60</ele>
	<time>2025-04-30T08:28:03.000Z</time>
</trkpt>
<trkpt lat="45.8926120" lon="10.2595090">
	<ele>1391.40</ele>
	<time>2025-04-30T08:28:04.000Z</time>
</trkpt>
<trkpt lat="45.8926200" lon="10.2595070">
	<ele>1391.20</ele>
	<time>2025-04-30T08:28:05.000Z</time>
</trkpt>
<trkpt lat="45.8926260" lon="10.2595040">
	<ele>1391.20</ele>
	<time>2025-04-30T08:28:06.000Z</time>
</trkpt>
<trkpt lat="45.8926390" lon="10.2594970">
	<ele>1391.20</ele>
	<time>2025-04-30T08:28:07.000Z</time>
</trkpt>
<trkpt lat="45.8926480" lon="10.2594850">
	<ele>1391.20</ele>
	<time>2025-04-30T08:28:08.000Z</time>
</trkpt>
<trkpt lat="45.8926540" lon="10.2594730">
	<ele>1391.40</ele>
	<time>2025-04-30T08:28:09.000Z</time>
</trkpt>
<trkpt lat="45.8926590" lon="10.2594610">
	<ele>1391.40</ele>
	<time>2025-04-30T08:28:10.000Z</time>
</trkpt>
<trkpt lat="45.8926660" lon="10.2594480">
	<ele>1391.60</ele>
	<time>2025-04-30T08:28:11.000Z</time>
</trkpt>
<trkpt lat="45.8926730" lon="10.2594340">
	<ele>1391.60</ele>
	<time>2025-04-30T08:28:12.000Z</time>
</trkpt>
<trkpt lat="45.8926830" lon="10.2594210">
	<ele>1391.80</ele>
	<time>2025-04-30T08:28:13.000Z</time>
</trkpt>
<trkpt lat="45.8926890" lon="10.2594040">
	<ele>1392.00</ele>
	<time>2025-04-30T08:28:14.000Z</time>
</trkpt>
<trkpt lat="45.8926980" lon="10.2593900">
	<ele>1392.20</ele>
	<time>2025-04-30T08:28:15.000Z</time>
</trkpt>
<trkpt lat="45.8927010" lon="10.2593790">
	<ele>1392.20</ele>
	<time>2025-04-30T08:28:16.000Z</time>
</trkpt>
<trkpt lat="45.8927050" lon="10.2593670">
	<ele>1392.40</ele>
	<time>2025-04-30T08:28:17.000Z</time>
</trkpt>
<trkpt lat="45.8927100" lon="10.2593510">
	<ele>1392.40</ele>
	<time>2025-04-30T08:28:18.000Z</time>
</trkpt>
<trkpt lat="45.8927090" lon="10.2593270">
	<ele>1392.60</ele>
	<time>2025-04-30T08:28:19.000Z</time>
</trkpt>
<trkpt lat="45.8927090" lon="10.2593070">
	<ele>1392.60</ele>
	<time>2025-04-30T08:28:20.000Z</time>
</trkpt>
<trkpt lat="45.8927080" lon="10.2592900">
	<ele>1392.60</ele>
	<time>2025-04-30T08:28:21.000Z</time>
</trkpt>
<trkpt lat="45.8927100" lon="10.2592730">
	<ele>1392.40</ele>
	<time>2025-04-30T08:28:22.000Z</time>
</trkpt>
<trkpt lat="45.8927120" lon="10.2592580">
	<ele>1392.40</ele>
	<time>2025-04-30T08:28:23.000Z</time>
</trkpt>
<trkpt lat="45.8927090" lon="10.2592460">
	<ele>1392.40</ele>
	<time>2025-04-30T08:28:24.000Z</time>
</trkpt>
<trkpt lat="45.8927140" lon="10.2592300">
	<ele>1392.20</ele>
	<time>2025-04-30T08:28:25.000Z</time>
</trkpt>
<trkpt lat="45.8927180" lon="10.2592170">
	<ele>1392.20</ele>
	<time>2025-04-30T08:28:26.000Z</time>
</trkpt>
<trkpt lat="45.8927210" lon="10.2592090">
	<ele>1392.20</ele>
	<time>2025-04-30T08:28:27.000Z</time>
</trkpt>
<trkpt lat="45.8927260" lon="10.2592000">
	<ele>1392.00</ele>
	<time>2025-04-30T08:28:28.000Z</time>
</trkpt>
<trkpt lat="45.8927300" lon="10.2591920">
	<ele>1391.60</ele>
	<time>2025-04-30T08:28:29.000Z</time>
</trkpt>
<trkpt lat="45.8927330" lon="10.2591850">
	<ele>1391.40</ele>
	<time>2025-04-30T08:28:30.000Z</time>
</trkpt>
<trkpt lat="45.8927350" lon="10.2591790">
	<ele>1391.20</ele>
	<time>2025-04-30T08:28:31.000Z</time>
</trkpt>
<trkpt lat="45.8927350" lon="10.2591680">
	<ele>1391.20</ele>
	<time>2025-04-30T08:28:32.000Z</time>
</trkpt>
<trkpt lat="45.8927340" lon="10.2591560">
	<ele>1390.80</ele>
	<time>2025-04-30T08:28:33.000Z</time>
</trkpt>
<trkpt lat="45.8927320" lon="10.2591420">
	<ele>1390.60</ele>
	<time>2025-04-30T08:28:34.000Z</time>
</trkpt>
<trkpt lat="45.8927250" lon="10.2591260">
	<ele>1390.40</ele>
	<time>2025-04-30T08:28:35.000Z</time>
</trkpt>
<trkpt lat="45.8927180" lon="10.2591110">
	<ele>1390.00</ele>
	<time>2025-04-30T08:28:36.000Z</time>
</trkpt>
<trkpt lat="45.8927080" lon="10.2590950">
	<ele>1389.80</ele>
	<time>2025-04-30T08:28:37.000Z</time>
</trkpt>
<trkpt lat="45.8927070" lon="10.2590770">
	<ele>1389.60</ele>
	<time>2025-04-30T08:28:38.000Z</time>
</trkpt>
<trkpt lat="45.8927020" lon="10.2590660">
	<ele>1389.60</ele>
	<time>2025-04-30T08:28:39.000Z</time>
</trkpt>
<trkpt lat="45.8927010" lon="10.2590580">
	<ele>1389.60</ele>
	<time>2025-04-30T08:28:40.000Z</time>
</trkpt>
<trkpt lat="45.8927000" lon="10.2590470">
	<ele>1389.40</ele>
	<time>2025-04-30T08:28:41.000Z</time>
</trkpt>
<trkpt lat="45.8927030" lon="10.2590290">
	<ele>1389.20</ele>
	<time>2025-04-30T08:28:42.000Z</time>
</trkpt>
<trkpt lat="45.8926940" lon="10.2590110">
	<ele>1389.00</ele>
	<time>2025-04-30T08:28:43.000Z</time>
</trkpt>
<trkpt lat="45.8926830" lon="10.2589940">
	<ele>1389.00</ele>
	<time>2025-04-30T08:28:44.000Z</time>
</trkpt>
<trkpt lat="45.8926680" lon="10.2589810">
	<ele>1389.00</ele>
	<time>2025-04-30T08:28:45.000Z</time>
</trkpt>
<trkpt lat="45.8926640" lon="10.2589700">
	<ele>1389.00</ele>
	<time>2025-04-30T08:28:46.000Z</time>
</trkpt>
<trkpt lat="45.8926570" lon="10.2589570">
	<ele>1389.00</ele>
	<time>2025-04-30T08:28:47.000Z</time>
</trkpt>
<trkpt lat="45.8926460" lon="10.2589480">
	<ele>1389.00</ele>
	<time>2025-04-30T08:28:48.000Z</time>
</trkpt>
<trkpt lat="45.8926380" lon="10.2589370">
	<ele>1389.00</ele>
	<time>2025-04-30T08:28:49.000Z</time>
</trkpt>
<trkpt lat="45.8926310" lon="10.2589300">
	<ele>1389.00</ele>
	<time>2025-04-30T08:28:50.000Z</time>
</trkpt>
<trkpt lat="45.8926270" lon="10.2589210">
	<ele>1389.00</ele>
	<time>2025-04-30T08:28:51.000Z</time>
</trkpt>
<trkpt lat="45.8926270" lon="10.2589130">
	<ele>1388.80</ele>
	<time>2025-04-30T08:28:52.000Z</time>
</trkpt>
<trkpt lat="45.8926260" lon="10.2589000">
	<ele>1388.80</ele>
	<time>2025-04-30T08:28:53.000Z</time>
</trkpt>
<trkpt lat="45.8926230" lon="10.2588870">
	<ele>1388.80</ele>
	<time>2025-04-30T08:28:54.000Z</time>
</trkpt>
<trkpt lat="45.8926180" lon="10.2588740">
	<ele>1388.60</ele>
	<time>2025-04-30T08:28:55.000Z</time>
</trkpt>
<trkpt lat="45.8926240" lon="10.2588630">
	<ele>1388.40</ele>
	<time>2025-04-30T08:28:56.000Z</time>
</trkpt>
<trkpt lat="45.8926330" lon="10.2588520">
	<ele>1388.20</ele>
	<time>2025-04-30T08:28:57.000Z</time>
</trkpt>
<trkpt lat="45.8926370" lon="10.2588450">
	<ele>1388.20</ele>
	<time>2025-04-30T08:28:58.000Z</time>
</trkpt>
<trkpt lat="45.8926370" lon="10.2588410">
	<ele>1388.00</ele>
	<time>2025-04-30T08:28:59.000Z</time>
</trkpt>
<trkpt lat="45.8926370" lon="10.2588350">
	<ele>1387.80</ele>
	<time>2025-04-30T08:29:00.000Z</time>
</trkpt>
<trkpt lat="45.8926230" lon="10.2588290">
	<ele>1387.60</ele>
	<time>2025-04-30T08:29:01.000Z</time>
</trkpt>
<trkpt lat="45.8926160" lon="10.2588150">
	<ele>1387.40</ele>
	<time>2025-04-30T08:29:02.000Z</time>
</trkpt>
<trkpt lat="45.8926160" lon="10.2588140">
	<ele>1387.40</ele>
	<time>2025-04-30T08:29:03.000Z</time>
</trkpt>
<trkpt lat="45.8926140" lon="10.2588110">
	<ele>1387.40</ele>
	<time>2025-04-30T08:29:04.000Z</time>
</trkpt>
<trkpt lat="45.8926150" lon="10.2588000">
	<ele>1387.40</ele>
	<time>2025-04-30T08:29:05.000Z</time>
</trkpt>
<trkpt lat="45.8926110" lon="10.2587890">
	<ele>1387.20</ele>
	<time>2025-04-30T08:29:06.000Z</time>
</trkpt>
<trkpt lat="45.8926050" lon="10.2587810">
	<ele>1387.20</ele>
	<time>2025-04-30T08:29:07.000Z</time>
</trkpt>
<trkpt lat="45.8926030" lon="10.2587710">
	<ele>1387.00</ele>
	<time>2025-04-30T08:29:08.000Z</time>
</trkpt>
<trkpt lat="45.8925980" lon="10.2587620">
	<ele>1387.00</ele>
	<time>2025-04-30T08:29:09.000Z</time>
</trkpt>
<trkpt lat="45.8925900" lon="10.2587480">
	<ele>1386.80</ele>
	<time>2025-04-30T08:29:10.000Z</time>
</trkpt>
<trkpt lat="45.8925790" lon="10.2587320">
	<ele>1386.80</ele>
	<time>2025-04-30T08:29:11.000Z</time>
</trkpt>
<trkpt lat="45.8925690" lon="10.2587200">
	<ele>1386.80</ele>
	<time>2025-04-30T08:29:12.000Z</time>
</trkpt>
<trkpt lat="45.8925610" lon="10.2587100">
	<ele>1386.80</ele>
	<time>2025-04-30T08:29:13.000Z</time>
</trkpt>
<trkpt lat="45.8925610" lon="10.2586970">
	<ele>1386.60</ele>
	<time>2025-04-30T08:29:14.000Z</time>
</trkpt>
<trkpt lat="45.8925630" lon="10.2586860">
	<ele>1386.40</ele>
	<time>2025-04-30T08:29:15.000Z</time>
</trkpt>
<trkpt lat="45.8925670" lon="10.2586790">
	<ele>1386.20</ele>
	<time>2025-04-30T08:29:16.000Z</time>
</trkpt>
<trkpt lat="45.8925720" lon="10.2586720">
	<ele>1386.20</ele>
	<time>2025-04-30T08:29:17.000Z</time>
</trkpt>
<trkpt lat="45.8925740" lon="10.2586650">
	<ele>1386.00</ele>
	<time>2025-04-30T08:29:18.000Z</time>
</trkpt>
<trkpt lat="45.8925690" lon="10.2586560">
	<ele>1385.80</ele>
	<time>2025-04-30T08:29:19.000Z</time>
</trkpt>
<trkpt lat="45.8925620" lon="10.2586410">
	<ele>1385.60</ele>
	<time>2025-04-30T08:29:20.000Z</time>
</trkpt>
<trkpt lat="45.8925610" lon="10.2586250">
	<ele>1385.40</ele>
	<time>2025-04-30T08:29:21.000Z</time>
</trkpt>
<trkpt lat="45.8925550" lon="10.2586120">
	<ele>1385.00</ele>
	<time>2025-04-30T08:29:22.000Z</time>
</trkpt>
<trkpt lat="45.8925510" lon="10.2586030">
	<ele>1384.60</ele>
	<time>2025-04-30T08:29:23.000Z</time>
</trkpt>
<trkpt lat="45.8925520" lon="10.2586000">
	<ele>1384.20</ele>
	<time>2025-04-30T08:29:24.000Z</time>
</trkpt>
<trkpt lat="45.8925550" lon="10.2586020">
	<ele>1384.00</ele>
	<time>2025-04-30T08:29:25.000Z</time>
</trkpt>
<trkpt lat="45.8925570" lon="10.2585940">
	<ele>1383.80</ele>
	<time>2025-04-30T08:29:26.000Z</time>
</trkpt>
<trkpt lat="45.8925540" lon="10.2585870">
	<ele>1383.40</ele>
	<time>2025-04-30T08:29:27.000Z</time>
</trkpt>
<trkpt lat="45.8925510" lon="10.2585750">
	<ele>1383.20</ele>
	<time>2025-04-30T08:29:28.000Z</time>
</trkpt>
<trkpt lat="45.8925500" lon="10.2585670">
	<ele>1383.20</ele>
	<time>2025-04-30T08:29:29.000Z</time>
</trkpt>
<trkpt lat="45.8925500" lon="10.2585600">
	<ele>1382.80</ele>
	<time>2025-04-30T08:29:30.000Z</time>
</trkpt>
<trkpt lat="45.8925470" lon="10.2585550">
	<ele>1382.60</ele>
	<time>2025-04-30T08:29:31.000Z</time>
</trkpt>
<trkpt lat="45.8925540" lon="10.2585440">
	<ele>1382.40</ele>
	<time>2025-04-30T08:29:32.000Z</time>
</trkpt>
<trkpt lat="45.8925520" lon="10.2585300">
	<ele>1382.00</ele>
	<time>2025-04-30T08:29:33.000Z</time>
</trkpt>
<trkpt lat="45.8925420" lon="10.2585210">
	<ele>1382.00</ele>
	<time>2025-04-30T08:29:34.000Z</time>
</trkpt>
<trkpt lat="45.8925440" lon="10.2585200">
	<ele>1381.60</ele>
	<time>2025-04-30T08:29:35.000Z</time>
</trkpt>
<trkpt lat="45.8925400" lon="10.2585230">
	<ele>1381.40</ele>
	<time>2025-04-30T08:29:36.000Z</time>
</trkpt>
<trkpt lat="45.8925450" lon="10.2585260">
	<ele>1381.20</ele>
	<time>2025-04-30T08:29:37.000Z</time>
</trkpt>
<trkpt lat="45.8925460" lon="10.2585240">
	<ele>1381.20</ele>
	<time>2025-04-30T08:29:38.000Z</time>
</trkpt>
<trkpt lat="45.8925490" lon="10.2585110">
	<ele>1380.80</ele>
	<time>2025-04-30T08:29:39.000Z</time>
</trkpt>
<trkpt lat="45.8925460" lon="10.2584970">
	<ele>1380.60</ele>
	<time>2025-04-30T08:29:40.000Z</time>
</trkpt>
<trkpt lat="45.8925450" lon="10.2584860">
	<ele>1380.20</ele>
	<time>2025-04-30T08:29:41.000Z</time>
</trkpt>
<trkpt lat="45.8925420" lon="10.2584800">
	<ele>1380.00</ele>
	<time>2025-04-30T08:29:42.000Z</time>
</trkpt>
<trkpt lat="45.8925350" lon="10.2584700">
	<ele>1379.60</ele>
	<time>2025-04-30T08:29:43.000Z</time>
</trkpt>
<trkpt lat="45.8925320" lon="10.2584610">
	<ele>1379.40</ele>
	<time>2025-04-30T08:29:44.000Z</time>
</trkpt>
<trkpt lat="45.8925250" lon="10.2584500">
	<ele>1379.00</ele>
	<time>2025-04-30T08:29:45.000Z</time>
</trkpt>
<trkpt lat="45.8925190" lon="10.2584370">
	<ele>1379.00</ele>
	<time>2025-04-30T08:29:46.000Z</time>
</trkpt>
<trkpt lat="45.8925170" lon="10.2584200">
	<ele>1378.60</ele>
	<time>2025-04-30T08:29:47.000Z</time>
</trkpt>
<trkpt lat="45.8925140" lon="10.2584080">
	<ele>1378.20</ele>
	<time>2025-04-30T08:29:48.000Z</time>
</trkpt>
<trkpt lat="45.8925150" lon="10.2583970">
	<ele>1378.00</ele>
	<time>2025-04-30T08:29:49.000Z</time>
</trkpt>
<trkpt lat="45.8925090" lon="10.2583850">
	<ele>1377.60</ele>
	<time>2025-04-30T08:29:50.000Z</time>
</trkpt>
<trkpt lat="45.8925070" lon="10.2583680">
	<ele>1377.40</ele>
	<time>2025-04-30T08:29:51.000Z</time>
</trkpt>
<trkpt lat="45.8925080" lon="10.2583470">
	<ele>1377.00</ele>
	<time>2025-04-30T08:29:52.000Z</time>
</trkpt>
<trkpt lat="45.8925180" lon="10.2583270">
	<ele>1376.80</ele>
	<time>2025-04-30T08:29:53.000Z</time>
</trkpt>
<trkpt lat="45.8925180" lon="10.2583210">
	<ele>1376.60</ele>
	<time>2025-04-30T08:29:54.000Z</time>
</trkpt>
<trkpt lat="45.8925080" lon="10.2583150">
	<ele>1376.40</ele>
	<time>2025-04-30T08:29:55.000Z</time>
</trkpt>
<trkpt lat="45.8925030" lon="10.2583130">
	<ele>1376.00</ele>
	<time>2025-04-30T08:29:56.000Z</time>
</trkpt>
<trkpt lat="45.8925020" lon="10.2583030">
	<ele>1375.80</ele>
	<time>2025-04-30T08:29:57.000Z</time>
</trkpt>
<trkpt lat="45.8925020" lon="10.2582910">
	<ele>1375.40</ele>
	<time>2025-04-30T08:29:58.000Z</time>
</trkpt>
<trkpt lat="45.8925040" lon="10.2582800">
	<ele>1375.00</ele>
	<time>2025-04-30T08:29:59.000Z</time>
</trkpt>
<trkpt lat="45.8925080" lon="10.2582660">
	<ele>1374.80</ele>
	<time>2025-04-30T08:30:00.000Z</time>
</trkpt>
<trkpt lat="45.8925080" lon="10.2582520">
	<ele>1374.60</ele>
	<time>2025-04-30T08:30:01.000Z</time>
</trkpt>
<trkpt lat="45.8925090" lon="10.2582330">
	<ele>1374.20</ele>
	<time>2025-04-30T08:30:02.000Z</time>
</trkpt>
<trkpt lat="45.8925090" lon="10.2582140">
	<ele>1374.00</ele>
	<time>2025-04-30T08:30:03.000Z</time>
</trkpt>
<trkpt lat="45.8925110" lon="10.2581960">
	<ele>1373.80</ele>
	<time>2025-04-30T08:30:04.000Z</time>
</trkpt>
<trkpt lat="45.8925100" lon="10.2581850">
	<ele>1373.60</ele>
	<time>2025-04-30T08:30:05.000Z</time>
</trkpt>
<trkpt lat="45.8925090" lon="10.2581800">
	<ele>1373.20</ele>
	<time>2025-04-30T08:30:06.000Z</time>
</trkpt>
<trkpt lat="45.8925100" lon="10.2581770">
	<ele>1373.00</ele>
	<time>2025-04-30T08:30:07.000Z</time>
</trkpt>
<trkpt lat="45.8925200" lon="10.2581740">
	<ele>1372.80</ele>
	<time>2025-04-30T08:30:08.000Z</time>
</trkpt>
<trkpt lat="45.8925190" lon="10.2581760">
	<ele>1372.60</ele>
	<time>2025-04-30T08:30:09.000Z</time>
</trkpt>
<trkpt lat="45.8925210" lon="10.2581800">
	<ele>1372.40</ele>
	<time>2025-04-30T08:30:10.000Z</time>
</trkpt>
<trkpt lat="45.8925130" lon="10.2581840">
	<ele>1372.40</ele>
	<time>2025-04-30T08:30:11.000Z</time>
</trkpt>
<trkpt lat="45.8925060" lon="10.2581830">
	<ele>1372.40</ele>
	<time>2025-04-30T08:30:12.000Z</time>
</trkpt>
<trkpt lat="45.8925080" lon="10.2581790">
	<ele>1372.40</ele>
	<time>2025-04-30T08:30:13.000Z</time>
</trkpt>
<trkpt lat="45.8925030" lon="10.2581810">
	<ele>1372.40</ele>
	<time>2025-04-30T08:30:14.000Z</time>
</trkpt>
<trkpt lat="45.8925050" lon="10.2581690">
	<ele>1372.40</ele>
	<time>2025-04-30T08:30:15.000Z</time>
</trkpt>
<trkpt lat="45.8925110" lon="10.2581520">
	<ele>1372.20</ele>
	<time>2025-04-30T08:30:16.000Z</time>
</trkpt>
<trkpt lat="45.8925130" lon="10.2581390">
	<ele>1372.20</ele>
	<time>2025-04-30T08:30:17.000Z</time>
</trkpt>
<trkpt lat="45.8925120" lon="10.2581360">
	<ele>1372.00</ele>
	<time>2025-04-30T08:30:18.000Z</time>
</trkpt>
<trkpt lat="45.8925050" lon="10.2581340">
	<ele>1372.00</ele>
	<time>2025-04-30T08:30:19.000Z</time>
</trkpt>
<trkpt lat="45.8924920" lon="10.2581260">
	<ele>1371.60</ele>
	<time>2025-04-30T08:30:20.000Z</time>
</trkpt>
<trkpt lat="45.8924790" lon="10.2581200">
	<ele>1371.40</ele>
	<time>2025-04-30T08:30:21.000Z</time>
</trkpt>
<trkpt lat="45.8924700" lon="10.2581120">
	<ele>1371.20</ele>
	<time>2025-04-30T08:30:22.000Z</time>
</trkpt>
<trkpt lat="45.8924590" lon="10.2580960">
	<ele>1370.80</ele>
	<time>2025-04-30T08:30:23.000Z</time>
</trkpt>
<trkpt lat="45.8924510" lon="10.2580780">
	<ele>1370.20</ele>
	<time>2025-04-30T08:30:24.000Z</time>
</trkpt>
<trkpt lat="45.8924450" lon="10.2580620">
	<ele>1370.00</ele>
	<time>2025-04-30T08:30:25.000Z</time>
</trkpt>
<trkpt lat="45.8924400" lon="10.2580480">
	<ele>1369.60</ele>
	<time>2025-04-30T08:30:26.000Z</time>
</trkpt>
<trkpt lat="45.8924370" lon="10.2580330">
	<ele>1369.20</ele>
	<time>2025-04-30T08:30:27.000Z</time>
</trkpt>
<trkpt lat="45.8924360" lon="10.2580150">
	<ele>1369.00</ele>
	<time>2025-04-30T08:30:28.000Z</time>
</trkpt>
<trkpt lat="45.8924370" lon="10.2580000">
	<ele>1368.80</ele>
	<time>2025-04-30T08:30:29.000Z</time>
</trkpt>
<trkpt lat="45.8924380" lon="10.2579970">
	<ele>1368.60</ele>
	<time>2025-04-30T08:30:30.000Z</time>
</trkpt>
<trkpt lat="45.8924390" lon="10.2579890">
	<ele>1368.40</ele>
	<time>2025-04-30T08:30:31.000Z</time>
</trkpt>
<trkpt lat="45.8924350" lon="10.2579860">
	<ele>1368.20</ele>
	<time>2025-04-30T08:30:32.000Z</time>
</trkpt>
<trkpt lat="45.8924280" lon="10.2579870">
	<ele>1368.00</ele>
	<time>2025-04-30T08:30:33.000Z</time>
</trkpt>
<trkpt lat="45.8924270" lon="10.2579830">
	<ele>1367.40</ele>
	<time>2025-04-30T08:30:34.000Z</time>
</trkpt>
<trkpt lat="45.8924270" lon="10.2579690">
	<ele>1367.00</ele>
	<time>2025-04-30T08:30:35.000Z</time>
</trkpt>
<trkpt lat="45.8924250" lon="10.2579550">
	<ele>1366.60</ele>
	<time>2025-04-30T08:30:36.000Z</time>
</trkpt>
<trkpt lat="45.8924170" lon="10.2579320">
	<ele>1366.20</ele>
	<time>2025-04-30T08:30:37.000Z</time>
</trkpt>
<trkpt lat="45.8924130" lon="10.2579110">
	<ele>1366.00</ele>
	<time>2025-04-30T08:30:38.000Z</time>
</trkpt>
<trkpt lat="45.8924090" lon="10.2578900">
	<ele>1365.60</ele>
	<time>2025-04-30T08:30:39.000Z</time>
</trkpt>
<trkpt lat="45.8924110" lon="10.2578640">
	<ele>1365.40</ele>
	<time>2025-04-30T08:30:40.000Z</time>
</trkpt>
<trkpt lat="45.8924100" lon="10.2578500">
	<ele>1365.00</ele>
	<time>2025-04-30T08:30:41.000Z</time>
</trkpt>
<trkpt lat="45.8924070" lon="10.2578430">
	<ele>1364.80</ele>
	<time>2025-04-30T08:30:42.000Z</time>
</trkpt>
<trkpt lat="45.8923990" lon="10.2578300">
	<ele>1364.40</ele>
	<time>2025-04-30T08:30:43.000Z</time>
</trkpt>
<trkpt lat="45.8923780" lon="10.2578180">
	<ele>1364.00</ele>
	<time>2025-04-30T08:30:44.000Z</time>
</trkpt>
<trkpt lat="45.8923680" lon="10.2578010">
	<ele>1363.60</ele>
	<time>2025-04-30T08:30:45.000Z</time>
</trkpt>
<trkpt lat="45.8923630" lon="10.2577880">
	<ele>1363.40</ele>
	<time>2025-04-30T08:30:46.000Z</time>
</trkpt>
<trkpt lat="45.8923620" lon="10.2577700">
	<ele>1363.20</ele>
	<time>2025-04-30T08:30:47.000Z</time>
</trkpt>
<trkpt lat="45.8923560" lon="10.2577490">
	<ele>1363.00</ele>
	<time>2025-04-30T08:30:48.000Z</time>
</trkpt>
<trkpt lat="45.8923500" lon="10.2577280">
	<ele>1362.80</ele>
	<time>2025-04-30T08:30:49.000Z</time>
</trkpt>
<trkpt lat="45.8923460" lon="10.2577060">
	<ele>1362.40</ele>
	<time>2025-04-30T08:30:50.000Z</time>
</trkpt>
<trkpt lat="45.8923480" lon="10.2576830">
	<ele>1362.00</ele>
	<time>2025-04-30T08:30:51.000Z</time>
</trkpt>
<trkpt lat="45.8923460" lon="10.2576660">
	<ele>1361.60</ele>
	<time>2025-04-30T08:30:52.000Z</time>
</trkpt>
<trkpt lat="45.8923460" lon="10.2576540">
	<ele>1361.40</ele>
	<time>2025-04-30T08:30:53.000Z</time>
</trkpt>
<trkpt lat="45.8923400" lon="10.2576370">
	<ele>1361.20</ele>
	<time>2025-04-30T08:30:54.000Z</time>
</trkpt>
<trkpt lat="45.8923290" lon="10.2576170">
	<ele>1361.00</ele>
	<time>2025-04-30T08:30:55.000Z</time>
</trkpt>
<trkpt lat="45.8923230" lon="10.2575910">
	<ele>1360.60</ele>
	<time>2025-04-30T08:30:56.000Z</time>
</trkpt>
<trkpt lat="45.8923200" lon="10.2575660">
	<ele>1360.40</ele>
	<time>2025-04-30T08:30:57.000Z</time>
</trkpt>
<trkpt lat="45.8923120" lon="10.2575370">
	<ele>1360.00</ele>
	<time>2025-04-30T08:30:58.000Z</time>
</trkpt>
<trkpt lat="45.8923120" lon="10.2575110">
	<ele>1359.80</ele>
	<time>2025-04-30T08:30:59.000Z</time>
</trkpt>
<trkpt lat="45.8923210" lon="10.2574880">
	<ele>1359.60</ele>
	<time>2025-04-30T08:31:00.000Z</time>
</trkpt>
<trkpt lat="45.8923180" lon="10.2574800">
	<ele>1359.40</ele>
	<time>2025-04-30T08:31:01.000Z</time>
</trkpt>
<trkpt lat="45.8923160" lon="10.2574620">
	<ele>1359.20</ele>
	<time>2025-04-30T08:31:02.000Z</time>
</trkpt>
<trkpt lat="45.8923070" lon="10.2574330">
	<ele>1359.20</ele>
	<time>2025-04-30T08:31:03.000Z</time>
</trkpt>
<trkpt lat="45.8922980" lon="10.2574080">
	<ele>1359.00</ele>
	<time>2025-04-30T08:31:04.000Z</time>
</trkpt>
<trkpt lat="45.8922940" lon="10.2573930">
	<ele>1358.80</ele>
	<time>2025-04-30T08:31:05.000Z</time>
</trkpt>
<trkpt lat="45.8922930" lon="10.2573810">
	<ele>1358.80</ele>
	<time>2025-04-30T08:31:06.000Z</time>
</trkpt>
<trkpt lat="45.8922920" lon="10.2573650">
	<ele>1358.60</ele>
	<time>2025-04-30T08:31:07.000Z</time>
</trkpt>
<trkpt lat="45.8922820" lon="10.2573540">
	<ele>1358.60</ele>
	<time>2025-04-30T08:31:08.000Z</time>
</trkpt>
<trkpt lat="45.8922730" lon="10.2573430">
	<ele>1358.20</ele>
	<time>2025-04-30T08:31:09.000Z</time>
</trkpt>
<trkpt lat="45.8922510" lon="10.2573170">
	<ele>1358.20</ele>
	<time>2025-04-30T08:31:10.000Z</time>
</trkpt>
<trkpt lat="45.8922490" lon="10.2572950">
	<ele>1358.00</ele>
	<time>2025-04-30T08:31:11.000Z</time>
</trkpt>
<trkpt lat="45.8922560" lon="10.2572650">
	<ele>1358.00</ele>
	<time>2025-04-30T08:31:12.000Z</time>
</trkpt>
<trkpt lat="45.8922620" lon="10.2572410">
	<ele>1358.00</ele>
	<time>2025-04-30T08:31:13.000Z</time>
</trkpt>
<trkpt lat="45.8922580" lon="10.2572190">
	<ele>1357.80</ele>
	<time>2025-04-30T08:31:14.000Z</time>
</trkpt>
<trkpt lat="45.8922610" lon="10.2571950">
	<ele>1357.80</ele>
	<time>2025-04-30T08:31:15.000Z</time>
</trkpt>
<trkpt lat="45.8922650" lon="10.2571750">
	<ele>1357.60</ele>
	<time>2025-04-30T08:31:16.000Z</time>
</trkpt>
<trkpt lat="45.8922690" lon="10.2571480">
	<ele>1357.60</ele>
	<time>2025-04-30T08:31:17.000Z</time>
</trkpt>
<trkpt lat="45.8922820" lon="10.2571070">
	<ele>1357.60</ele>
	<time>2025-04-30T08:31:18.000Z</time>
</trkpt>
<trkpt lat="45.8922910" lon="10.2570710">
	<ele>1357.40</ele>
	<time>2025-04-30T08:31:19.000Z</time>
</trkpt>
<trkpt lat="45.8923060" lon="10.2570410">
	<ele>1357.40</ele>
	<time>2025-04-30T08:31:20.000Z</time>
</trkpt>
<trkpt lat="45.8923190" lon="10.2570060">
	<ele>1357.40</ele>
	<time>2025-04-30T08:31:21.000Z</time>
</trkpt>
<trkpt lat="45.8923220" lon="10.2569860">
	<ele>1357.40</ele>
	<time>2025-04-30T08:31:22.000Z</time>
</trkpt>
<trkpt lat="45.8923200" lon="10.2569750">
	<ele>1357.40</ele>
	<time>2025-04-30T08:31:23.000Z</time>
</trkpt>
<trkpt lat="45.8923130" lon="10.2569590">
	<ele>1357.40</ele>
	<time>2025-04-30T08:31:24.000Z</time>
</trkpt>
<trkpt lat="45.8923100" lon="10.2569410">
	<ele>1357.40</ele>
	<time>2025-04-30T08:31:25.000Z</time>
</trkpt>
<trkpt lat="45.8923100" lon="10.2569290">
	<ele>1357.40</ele>
	<time>2025-04-30T08:31:26.000Z</time>
</trkpt>
<trkpt lat="45.8923080" lon="10.2569110">
	<ele>1357.40</ele>
	<time>2025-04-30T08:31:27.000Z</time>
</trkpt>
<trkpt lat="45.8923090" lon="10.2568920">
	<ele>1357.40</ele>
	<time>2025-04-30T08:31:28.000Z</time>
</trkpt>
<trkpt lat="45.8923090" lon="10.2568730">
	<ele>1357.40</ele>
	<time>2025-04-30T08:31:29.000Z</time>
</trkpt>
<trkpt lat="45.8923090" lon="10.2568620">
	<ele>1357.60</ele>
	<time>2025-04-30T08:31:30.000Z</time>
</trkpt>
<trkpt lat="45.8922970" lon="10.2568380">
	<ele>1357.60</ele>
	<time>2025-04-30T08:31:31.000Z</time>
</trkpt>
<trkpt lat="45.8922730" lon="10.2568400">
	<ele>1357.60</ele>
	<time>2025-04-30T08:31:32.000Z</time>
</trkpt>
<trkpt lat="45.8922510" lon="10.2568440">
	<ele>1357.60</ele>
	<time>2025-04-30T08:31:33.000Z</time>
</trkpt>
<trkpt lat="45.8922290" lon="10.2568360">
	<ele>1357.60</ele>
	<time>2025-04-30T08:31:34.000Z</time>
</trkpt>
<trkpt lat="45.8922210" lon="10.2568130">
	<ele>1357.60</ele>
	<time>2025-04-30T08:31:35.000Z</time>
</trkpt>
<trkpt lat="45.8922210" lon="10.2567920">
	<ele>1357.60</ele>
	<time>2025-04-30T08:31:36.000Z</time>
</trkpt>
<trkpt lat="45.8922150" lon="10.2567760">
	<ele>1357.60</ele>
	<time>2025-04-30T08:31:37.000Z</time>
</trkpt>
<trkpt lat="45.8922090" lon="10.2567590">
	<ele>1357.40</ele>
	<time>2025-04-30T08:31:38.000Z</time>
</trkpt>
<trkpt lat="45.8922050" lon="10.2567490">
	<ele>1357.40</ele>
	<time>2025-04-30T08:31:39.000Z</time>
</trkpt>
<trkpt lat="45.8922000" lon="10.2567400">
	<ele>1357.40</ele>
	<time>2025-04-30T08:31:40.000Z</time>
</trkpt>
<trkpt lat="45.8921960" lon="10.2567270">
	<ele>1357.20</ele>
	<time>2025-04-30T08:31:41.000Z</time>
</trkpt>
<trkpt lat="45.8921930" lon="10.2567130">
	<ele>1357.20</ele>
	<time>2025-04-30T08:31:42.000Z</time>
</trkpt>
<trkpt lat="45.8921880" lon="10.2566940">
	<ele>1357.20</ele>
	<time>2025-04-30T08:31:43.000Z</time>
</trkpt>
<trkpt lat="45.8921870" lon="10.2566780">
	<ele>1357.20</ele>
	<time>2025-04-30T08:31:44.000Z</time>
</trkpt>
<trkpt lat="45.8921890" lon="10.2566570">
	<ele>1357.20</ele>
	<time>2025-04-30T08:31:45.000Z</time>
</trkpt>
<trkpt lat="45.8921870" lon="10.2566380">
	<ele>1357.20</ele>
	<time>2025-04-30T08:31:46.000Z</time>
</trkpt>
<trkpt lat="45.8921830" lon="10.2566210">
	<ele>1356.80</ele>
	<time>2025-04-30T08:31:47.000Z</time>
</trkpt>
<trkpt lat="45.8921780" lon="10.2566110">
	<ele>1356.80</ele>
	<time>2025-04-30T08:31:48.000Z</time>
</trkpt>
<trkpt lat="45.8921770" lon="10.2565960">
	<ele>1356.60</ele>
	<time>2025-04-30T08:31:49.000Z</time>
</trkpt>
<trkpt lat="45.8921710" lon="10.2565830">
	<ele>1356.40</ele>
	<time>2025-04-30T08:31:50.000Z</time>
</trkpt>
<trkpt lat="45.8921660" lon="10.2565680">
	<ele>1356.40</ele>
	<time>2025-04-30T08:31:51.000Z</time>
</trkpt>
<trkpt lat="45.8921610" lon="10.2565550">
	<ele>1356.20</ele>
	<time>2025-04-30T08:31:52.000Z</time>
</trkpt>
<trkpt lat="45.8921570" lon="10.2565370">
	<ele>1356.20</ele>
	<time>2025-04-30T08:31:53.000Z</time>
</trkpt>
<trkpt lat="45.8921540" lon="10.2565190">
	<ele>1356.00</ele>
	<time>2025-04-30T08:31:54.000Z</time>
</trkpt>
<trkpt lat="45.8921530" lon="10.2565050">
	<ele>1355.80</ele>
	<time>2025-04-30T08:31:55.000Z</time>
</trkpt>
<trkpt lat="45.8921520" lon="10.2564830">
	<ele>1355.40</ele>
	<time>2025-04-30T08:31:56.000Z</time>
</trkpt>
<trkpt lat="45.8921600" lon="10.2564610">
	<ele>1355.00</ele>
	<time>2025-04-30T08:31:57.000Z</time>
</trkpt>
<trkpt lat="45.8921580" lon="10.2564490">
	<ele>1354.80</ele>
	<time>2025-04-30T08:31:58.000Z</time>
</trkpt>
<trkpt lat="45.8921560" lon="10.2564250">
	<ele>1354.40</ele>
	<time>2025-04-30T08:31:59.000Z</time>
</trkpt>
<trkpt lat="45.8921580" lon="10.2564070">
	<ele>1354.20</ele>
	<time>2025-04-30T08:32:00.000Z</time>
</trkpt>
<trkpt lat="45.8921590" lon="10.2563850">
	<ele>1353.80</ele>
	<time>2025-04-30T08:32:01.000Z</time>
</trkpt>
<trkpt lat="45.8921560" lon="10.2563650">
	<ele>1353.60</ele>
	<time>2025-04-30T08:32:02.000Z</time>
</trkpt>
<trkpt lat="45.8921490" lon="10.2563480">
	<ele>1353.40</ele>
	<time>2025-04-30T08:32:03.000Z</time>
</trkpt>
<trkpt lat="45.8921400" lon="10.2563280">
	<ele>1353.20</ele>
	<time>2025-04-30T08:32:04.000Z</time>
</trkpt>
<trkpt lat="45.8921390" lon="10.2563050">
	<ele>1353.00</ele>
	<time>2025-04-30T08:32:05.000Z</time>
</trkpt>
<trkpt lat="45.8921340" lon="10.2562860">
	<ele>1353.00</ele>
	<time>2025-04-30T08:32:06.000Z</time>
</trkpt>
<trkpt lat="45.8921300" lon="10.2562710">
	<ele>1353.00</ele>
	<time>2025-04-30T08:32:07.000Z</time>
</trkpt>
<trkpt lat="45.8921320" lon="10.2562530">
	<ele>1353.00</ele>
	<time>2025-04-30T08:32:08.000Z</time>
</trkpt>
<trkpt lat="45.8921320" lon="10.2562400">
	<ele>1352.80</ele>
	<time>2025-04-30T08:32:09.000Z</time>
</trkpt>
<trkpt lat="45.8921260" lon="10.2562280">
	<ele>1352.80</ele>
	<time>2025-04-30T08:32:10.000Z</time>
</trkpt>
<trkpt lat="45.8921140" lon="10.2562160">
	<ele>1352.80</ele>
	<time>2025-04-30T08:32:11.000Z</time>
</trkpt>
<trkpt lat="45.8921130" lon="10.2562080">
	<ele>1352.60</ele>
	<time>2025-04-30T08:32:12.000Z</time>
</trkpt>
<trkpt lat="45.8921170" lon="10.2561900">
	<ele>1352.60</ele>
	<time>2025-04-30T08:32:13.000Z</time>
</trkpt>
<trkpt lat="45.8921230" lon="10.2561790">
	<ele>1352.60</ele>
	<time>2025-04-30T08:32:14.000Z</time>
</trkpt>
<trkpt lat="45.8921270" lon="10.2561620">
	<ele>1352.60</ele>
	<time>2025-04-30T08:32:15.000Z</time>
</trkpt>
<trkpt lat="45.8921380" lon="10.2561190">
	<ele>1352.60</ele>
	<time>2025-04-30T08:32:16.000Z</time>
</trkpt>
<trkpt lat="45.8921310" lon="10.2560930">
	<ele>1352.80</ele>
	<time>2025-04-30T08:32:17.000Z</time>
</trkpt>
<trkpt lat="45.8921180" lon="10.2560800">
	<ele>1352.80</ele>
	<time>2025-04-30T08:32:18.000Z</time>
</trkpt>
<trkpt lat="45.8921150" lon="10.2560700">
	<ele>1352.80</ele>
	<time>2025-04-30T08:32:19.000Z</time>
</trkpt>
<trkpt lat="45.8921150" lon="10.2560510">
	<ele>1352.80</ele>
	<time>2025-04-30T08:32:20.000Z</time>
</trkpt>
<trkpt lat="45.8921100" lon="10.2560450">
	<ele>1352.80</ele>
	<time>2025-04-30T08:32:21.000Z</time>
</trkpt>
<trkpt lat="45.8921020" lon="10.2560300">
	<ele>1352.80</ele>
	<time>2025-04-30T08:32:22.000Z</time>
</trkpt>
<trkpt lat="45.8920920" lon="10.2560140">
	<ele>1353.00</ele>
	<time>2025-04-30T08:32:23.000Z</time>
</trkpt>
<trkpt lat="45.8920820" lon="10.2560020">
	<ele>1353.20</ele>
	<time>2025-04-30T08:32:24.000Z</time>
</trkpt>
<trkpt lat="45.8920720" lon="10.2559970">
	<ele>1353.20</ele>
	<time>2025-04-30T08:32:25.000Z</time>
</trkpt>
<trkpt lat="45.8920550" lon="10.2559960">
	<ele>1353.20</ele>
	<time>2025-04-30T08:32:26.000Z</time>
</trkpt>
<trkpt lat="45.8920340" lon="10.2559850">
	<ele>1353.20</ele>
	<time>2025-04-30T08:32:27.000Z</time>
</trkpt>
<trkpt lat="45.8920220" lon="10.2559680">
	<ele>1353.20</ele>
	<time>2025-04-30T08:32:28.000Z</time>
</trkpt>
<trkpt lat="45.8920130" lon="10.2559560">
	<ele>1353.20</ele>
	<time>2025-04-30T08:32:29.000Z</time>
</trkpt>
<trkpt lat="45.8920140" lon="10.2559360">
	<ele>1353.00</ele>
	<time>2025-04-30T08:32:30.000Z</time>
</trkpt>
<trkpt lat="45.8920090" lon="10.2559130">
	<ele>1352.80</ele>
	<time>2025-04-30T08:32:31.000Z</time>
</trkpt>
<trkpt lat="45.8920050" lon="10.2558880">
	<ele>1352.60</ele>
	<time>2025-04-30T08:32:32.000Z</time>
</trkpt>
<trkpt lat="45.8920030" lon="10.2558680">
	<ele>1352.60</ele>
	<time>2025-04-30T08:32:33.000Z</time>
</trkpt>
<trkpt lat="45.8920030" lon="10.2558500">
	<ele>1352.60</ele>
	<time>2025-04-30T08:32:34.000Z</time>
</trkpt>
<trkpt lat="45.8919950" lon="10.2558330">
	<ele>1352.40</ele>
	<time>2025-04-30T08:32:35.000Z</time>
</trkpt>
<trkpt lat="45.8919840" lon="10.2558160">
	<ele>1352.40</ele>
	<time>2025-04-30T08:32:36.000Z</time>
</trkpt>
<trkpt lat="45.8919860" lon="10.2558010">
	<ele>1352.20</ele>
	<time>2025-04-30T08:32:37.000Z</time>
</trkpt>
<trkpt lat="45.8920000" lon="10.2557880">
	<ele>1352.20</ele>
	<time>2025-04-30T08:32:38.000Z</time>
</trkpt>
<trkpt lat="45.8920180" lon="10.2557710">
	<ele>1352.20</ele>
	<time>2025-04-30T08:32:39.000Z</time>
</trkpt>
<trkpt lat="45.8920330" lon="10.2557480">
	<ele>1352.00</ele>
	<time>2025-04-30T08:32:40.000Z</time>
</trkpt>
<trkpt lat="45.8920370" lon="10.2557270">
	<ele>1352.00</ele>
	<time>2025-04-30T08:32:41.000Z</time>
</trkpt>
<trkpt lat="45.8920370" lon="10.2557000">
	<ele>1352.00</ele>
	<time>2025-04-30T08:32:42.000Z</time>
</trkpt>
<trkpt lat="45.8920350" lon="10.2556740">
	<ele>1351.60</ele>
	<time>2025-04-30T08:32:43.000Z</time>
</trkpt>
<trkpt lat="45.8920420" lon="10.2556540">
	<ele>1351.40</ele>
	<time>2025-04-30T08:32:44.000Z</time>
</trkpt>
<trkpt lat="45.8920400" lon="10.2556280">
	<ele>1351.40</ele>
	<time>2025-04-30T08:32:45.000Z</time>
</trkpt>
<trkpt lat="45.8920360" lon="10.2556070">
	<ele>1351.20</ele>
	<time>2025-04-30T08:32:46.000Z</time>
</trkpt>
<trkpt lat="45.8920290" lon="10.2555920">
	<ele>1351.20</ele>
	<time>2025-04-30T08:32:47.000Z</time>
</trkpt>
<trkpt lat="45.8920250" lon="10.2555800">
	<ele>1351.20</ele>
	<time>2025-04-30T08:32:48.000Z</time>
</trkpt>
<trkpt lat="45.8920190" lon="10.2555790">
	<ele>1351.00</ele>
	<time>2025-04-30T08:32:49.000Z</time>
</trkpt>
<trkpt lat="45.8920120" lon="10.2555610">
	<ele>1351.00</ele>
	<time>2025-04-30T08:32:50.000Z</time>
</trkpt>
<trkpt lat="45.8920180" lon="10.2555360">
	<ele>1351.00</ele>
	<time>2025-04-30T08:32:51.000Z</time>
</trkpt>
<trkpt lat="45.8920480" lon="10.2555030">
	<ele>1350.80</ele>
	<time>2025-04-30T08:32:52.000Z</time>
</trkpt>
<trkpt lat="45.8920670" lon="10.2554740">
	<ele>1350.60</ele>
	<time>2025-04-30T08:32:53.000Z</time>
</trkpt>
<trkpt lat="45.8920720" lon="10.2554500">
	<ele>1350.40</ele>
	<time>2025-04-30T08:32:54.000Z</time>
</trkpt>
<trkpt lat="45.8920810" lon="10.2554190">
	<ele>1350.20</ele>
	<time>2025-04-30T08:32:55.000Z</time>
</trkpt>
<trkpt lat="45.8920920" lon="10.2554000">
	<ele>1350.00</ele>
	<time>2025-04-30T08:32:56.000Z</time>
</trkpt>
<trkpt lat="45.8920870" lon="10.2553950">
	<ele>1349.80</ele>
	<time>2025-04-30T08:32:57.000Z</time>
</trkpt>
<trkpt lat="45.8920830" lon="10.2553810">
	<ele>1349.80</ele>
	<time>2025-04-30T08:32:58.000Z</time>
</trkpt>
<trkpt lat="45.8920830" lon="10.2553700">
	<ele>1349.60</ele>
	<time>2025-04-30T08:32:59.000Z</time>
</trkpt>
<trkpt lat="45.8920820" lon="10.2553430">
	<ele>1349.60</ele>
	<time>2025-04-30T08:33:00.000Z</time>
</trkpt>
<trkpt lat="45.8920760" lon="10.2553320">
	<ele>1349.40</ele>
	<time>2025-04-30T08:33:01.000Z</time>
</trkpt>
<trkpt lat="45.8920630" lon="10.2553210">
	<ele>1349.20</ele>
	<time>2025-04-30T08:33:02.000Z</time>
</trkpt>
<trkpt lat="45.8920580" lon="10.2553190">
	<ele>1348.80</ele>
	<time>2025-04-30T08:33:03.000Z</time>
</trkpt>
<trkpt lat="45.8920560" lon="10.2553170">
	<ele>1348.60</ele>
	<time>2025-04-30T08:33:04.000Z</time>
</trkpt>
<trkpt lat="45.8920550" lon="10.2553010">
	<ele>1348.40</ele>
	<time>2025-04-30T08:33:05.000Z</time>
</trkpt>
<trkpt lat="45.8920530" lon="10.2552990">
	<ele>1348.20</ele>
	<time>2025-04-30T08:33:06.000Z</time>
</trkpt>
<trkpt lat="45.8920550" lon="10.2552930">
	<ele>1347.80</ele>
	<time>2025-04-30T08:33:07.000Z</time>
</trkpt>
<trkpt lat="45.8920530" lon="10.2552950">
	<ele>1347.60</ele>
	<time>2025-04-30T08:33:08.000Z</time>
</trkpt>
<trkpt lat="45.8920530" lon="10.2552920">
	<ele>1347.60</ele>
	<time>2025-04-30T08:33:09.000Z</time>
</trkpt>
<trkpt lat="45.8920570" lon="10.2552850">
	<ele>1347.40</ele>
	<time>2025-04-30T08:33:10.000Z</time>
</trkpt>
<trkpt lat="45.8920590" lon="10.2552690">
	<ele>1347.20</ele>
	<time>2025-04-30T08:33:11.000Z</time>
</trkpt>
<trkpt lat="45.8920690" lon="10.2552530">
	<ele>1347.00</ele>
	<time>2025-04-30T08:33:12.000Z</time>
</trkpt>
<trkpt lat="45.8920850" lon="10.2552500">
	<ele>1347.00</ele>
	<time>2025-04-30T08:33:13.000Z</time>
</trkpt>
<trkpt lat="45.8920960" lon="10.2552510">
	<ele>1346.80</ele>
	<time>2025-04-30T08:33:14.000Z</time>
</trkpt>
<trkpt lat="45.8921090" lon="10.2552450">
	<ele>1346.60</ele>
	<time>2025-04-30T08:33:15.000Z</time>
</trkpt>
<trkpt lat="45.8921290" lon="10.2552300">
	<ele>1346.40</ele>
	<time>2025-04-30T08:33:16.000Z</time>
</trkpt>
<trkpt lat="45.8921550" lon="10.2552070">
	<ele>1346.40</ele>
	<time>2025-04-30T08:33:17.000Z</time>
</trkpt>
<trkpt lat="45.8921830" lon="10.2551880">
	<ele>1346.40</ele>
	<time>2025-04-30T08:33:18.000Z</time>
</trkpt>
<trkpt lat="45.8921930" lon="10.2551770">
	<ele>1346.20</ele>
	<time>2025-04-30T08:33:19.000Z</time>
</trkpt>
<trkpt lat="45.8921860" lon="10.2551640">
	<ele>1346.20</ele>
	<time>2025-04-30T08:33:20.000Z</time>
</trkpt>
<trkpt lat="45.8921870" lon="10.2551400">
	<ele>1346.20</ele>
	<time>2025-04-30T08:33:21.000Z</time>
</trkpt>
<trkpt lat="45.8921830" lon="10.2551180">
	<ele>1346.00</ele>
	<time>2025-04-30T08:33:22.000Z</time>
</trkpt>
<trkpt lat="45.8921780" lon="10.2550990">
	<ele>1346.00</ele>
	<time>2025-04-30T08:33:23.000Z</time>
</trkpt>
<trkpt lat="45.8921730" lon="10.2550820">
	<ele>1346.00</ele>
	<time>2025-04-30T08:33:24.000Z</time>
</trkpt>
<trkpt lat="45.8921620" lon="10.2550670">
	<ele>1346.00</ele>
	<time>2025-04-30T08:33:25.000Z</time>
</trkpt>
<trkpt lat="45.8921590" lon="10.2550560">
	<ele>1345.80</ele>
	<time>2025-04-30T08:33:26.000Z</time>
</trkpt>
<trkpt lat="45.8921630" lon="10.2550480">
	<ele>1345.60</ele>
	<time>2025-04-30T08:33:27.000Z</time>
</trkpt>
<trkpt lat="45.8921670" lon="10.2550380">
	<ele>1345.40</ele>
	<time>2025-04-30T08:33:28.000Z</time>
</trkpt>
<trkpt lat="45.8921740" lon="10.2550230">
	<ele>1345.40</ele>
	<time>2025-04-30T08:33:29.000Z</time>
</trkpt>
<trkpt lat="45.8921840" lon="10.2550020">
	<ele>1345.20</ele>
	<time>2025-04-30T08:33:30.000Z</time>
</trkpt>
<trkpt lat="45.8921920" lon="10.2549860">
	<ele>1345.00</ele>
	<time>2025-04-30T08:33:31.000Z</time>
</trkpt>
<trkpt lat="45.8921940" lon="10.2549730">
	<ele>1344.80</ele>
	<time>2025-04-30T08:33:32.000Z</time>
</trkpt>
<trkpt lat="45.8921930" lon="10.2549660">
	<ele>1344.60</ele>
	<time>2025-04-30T08:33:33.000Z</time>
</trkpt>
<trkpt lat="45.8921830" lon="10.2549590">
	<ele>1344.40</ele>
	<time>2025-04-30T08:33:34.000Z</time>
</trkpt>
<trkpt lat="45.8921820" lon="10.2549310">
	<ele>1344.00</ele>
	<time>2025-04-30T08:33:35.000Z</time>
</trkpt>
<trkpt lat="45.8921950" lon="10.2548950">
	<ele>1343.80</ele>
	<time>2025-04-30T08:33:36.000Z</time>
</trkpt>
<trkpt lat="45.8921990" lon="10.2548710">
	<ele>1343.60</ele>
	<time>2025-04-30T08:33:37.000Z</time>
</trkpt>
<trkpt lat="45.8921880" lon="10.2548570">
	<ele>1343.40</ele>
	<time>2025-04-30T08:33:38.000Z</time>
</trkpt>
<trkpt lat="45.8921780" lon="10.2548410">
	<ele>1343.00</ele>
	<time>2025-04-30T08:33:39.000Z</time>
</trkpt>
<trkpt lat="45.8921770" lon="10.2548160">
	<ele>1342.60</ele>
	<time>2025-04-30T08:33:40.000Z</time>
</trkpt>
<trkpt lat="45.8921850" lon="10.2547820">
	<ele>1342.20</ele>
	<time>2025-04-30T08:33:41.000Z</time>
</trkpt>
<trkpt lat="45.8922020" lon="10.2547480">
	<ele>1342.00</ele>
	<time>2025-04-30T08:33:42.000Z</time>
</trkpt>
<trkpt lat="45.8922420" lon="10.2547080">
	<ele>1341.80</ele>
	<time>2025-04-30T08:33:43.000Z</time>
</trkpt>
<trkpt lat="45.8922740" lon="10.2546920">
	<ele>1341.80</ele>
	<time>2025-04-30T08:33:44.000Z</time>
</trkpt>
<trkpt lat="45.8922930" lon="10.2546760">
	<ele>1341.40</ele>
	<time>2025-04-30T08:33:45.000Z</time>
</trkpt>
<trkpt lat="45.8923050" lon="10.2546530">
	<ele>1341.00</ele>
	<time>2025-04-30T08:33:46.000Z</time>
</trkpt>
<trkpt lat="45.8923060" lon="10.2546410">
	<ele>1340.80</ele>
	<time>2025-04-30T08:33:47.000Z</time>
</trkpt>
<trkpt lat="45.8923060" lon="10.2546230">
	<ele>1340.60</ele>
	<time>2025-04-30T08:33:48.000Z</time>
</trkpt>
<trkpt lat="45.8923030" lon="10.2546190">
	<ele>1340.60</ele>
	<time>2025-04-30T08:33:49.000Z</time>
</trkpt>
<trkpt lat="45.8923010" lon="10.2546160">
	<ele>1340.60</ele>
	<time>2025-04-30T08:33:50.000Z</time>
</trkpt>
<trkpt lat="45.8923000" lon="10.2546150">
	<ele>1340.40</ele>
	<time>2025-04-30T08:33:51.000Z</time>
</trkpt>
<trkpt lat="45.8923000" lon="10.2546140">
	<ele>1340.40</ele>
	<time>2025-04-30T08:33:52.000Z</time>
</trkpt>
<trkpt lat="45.8923010" lon="10.2546150">
	<ele>1340.40</ele>
	<time>2025-04-30T08:33:53.000Z</time>
</trkpt>
<trkpt lat="45.8923070" lon="10.2546170">
	<ele>1340.40</ele>
	<time>2025-04-30T08:33:54.000Z</time>
</trkpt>
<trkpt lat="45.8923080" lon="10.2546160">
	<ele>1340.40</ele>
	<time>2025-04-30T08:33:55.000Z</time>
</trkpt>
<trkpt lat="45.8923100" lon="10.2546160">
	<ele>1340.20</ele>
	<time>2025-04-30T08:33:56.000Z</time>
</trkpt>
<trkpt lat="45.8923210" lon="10.2546140">
	<ele>1340.00</ele>
	<time>2025-04-30T08:33:57.000Z</time>
</trkpt>
<trkpt lat="45.8923320" lon="10.2546140">
	<ele>1339.80</ele>
	<time>2025-04-30T08:33:58.000Z</time>
</trkpt>
<trkpt lat="45.8923370" lon="10.2546010">
	<ele>1339.60</ele>
	<time>2025-04-30T08:33:59.000Z</time>
</trkpt>
<trkpt lat="45.8923440" lon="10.2545900">
	<ele>1339.60</ele>
	<time>2025-04-30T08:34:00.000Z</time>
</trkpt>
<trkpt lat="45.8923370" lon="10.2545730">
	<ele>1339.20</ele>
	<time>2025-04-30T08:34:01.000Z</time>
</trkpt>
<trkpt lat="45.8923230" lon="10.2545540">
	<ele>1339.00</ele>
	<time>2025-04-30T08:34:02.000Z</time>
</trkpt>
<trkpt lat="45.8923190" lon="10.2545460">
	<ele>1338.80</ele>
	<time>2025-04-30T08:34:03.000Z</time>
</trkpt>
<trkpt lat="45.8923160" lon="10.2545420">
	<ele>1338.60</ele>
	<time>2025-04-30T08:34:04.000Z</time>
</trkpt>
<trkpt lat="45.8923130" lon="10.2545430">
	<ele>1338.40</ele>
	<time>2025-04-30T08:34:05.000Z</time>
</trkpt>
<trkpt lat="45.8923200" lon="10.2545380">
	<ele>1338.00</ele>
	<time>2025-04-30T08:34:06.000Z</time>
</trkpt>
<trkpt lat="45.8923300" lon="10.2545370">
	<ele>1337.80</ele>
	<time>2025-04-30T08:34:07.000Z</time>
</trkpt>
<trkpt lat="45.8923310" lon="10.2545460">
	<ele>1337.60</ele>
	<time>2025-04-30T08:34:08.000Z</time>
</trkpt>
<trkpt lat="45.8923350" lon="10.2545440">
	<ele>1337.60</ele>
	<time>2025-04-30T08:34:09.000Z</time>
</trkpt>
<trkpt lat="45.8923330" lon="10.2545480">
	<ele>1337.60</ele>
	<time>2025-04-30T08:34:10.000Z</time>
</trkpt>
<trkpt lat="45.8923330" lon="10.2545500">
	<ele>1337.60</ele>
	<time>2025-04-30T08:34:11.000Z</time>
</trkpt>
<trkpt lat="45.8923350" lon="10.2545480">
	<ele>1337.80</ele>
	<time>2025-04-30T08:34:12.000Z</time>
</trkpt>
<trkpt lat="45.8923390" lon="10.2545420">
	<ele>1337.80</ele>
	<time>2025-04-30T08:34:13.000Z</time>
</trkpt>
<trkpt lat="45.8923410" lon="10.2545350">
	<ele>1337.80</ele>
	<time>2025-04-30T08:34:14.000Z</time>
</trkpt>
<trkpt lat="45.8923430" lon="10.2545240">
	<ele>1337.60</ele>
	<time>2025-04-30T08:34:15.000Z</time>
</trkpt>
<trkpt lat="45.8923450" lon="10.2545220">
	<ele>1337.60</ele>
	<time>2025-04-30T08:34:16.000Z</time>
</trkpt>
<trkpt lat="45.8923480" lon="10.2545200">
	<ele>1337.40</ele>
	<time>2025-04-30T08:34:17.000Z</time>
</trkpt>
<trkpt lat="45.8923490" lon="10.2545110">
	<ele>1337.20</ele>
	<time>2025-04-30T08:34:18.000Z</time>
</trkpt>
<trkpt lat="45.8923430" lon="10.2545060">
	<ele>1337.20</ele>
	<time>2025-04-30T08:34:19.000Z</time>
</trkpt>
<trkpt lat="45.8923400" lon="10.2545060">
	<ele>1336.80</ele>
	<time>2025-04-30T08:34:20.000Z</time>
</trkpt>
<trkpt lat="45.8923390" lon="10.2545000">
	<ele>1336.80</ele>
	<time>2025-04-30T08:34:21.000Z</time>
</trkpt>
<trkpt lat="45.8923420" lon="10.2544970">
	<ele>1336.60</ele>
	<time>2025-04-30T08:34:22.000Z</time>
</trkpt>
<trkpt lat="45.8923420" lon="10.2544950">
	<ele>1336.60</ele>
	<time>2025-04-30T08:34:23.000Z</time>
</trkpt>
<trkpt lat="45.8923420" lon="10.2544940">
	<ele>1336.60</ele>
	<time>2025-04-30T08:34:24.000Z</time>
</trkpt>
<trkpt lat="45.8923420" lon="10.2544940">
	<ele>1336.60</ele>
	<time>2025-04-30T08:34:25.000Z</time>
</trkpt>
<trkpt lat="45.8923420" lon="10.2544940">
	<ele>1336.80</ele>
	<time>2025-04-30T08:34:26.000Z</time>
</trkpt>
<trkpt lat="45.8923420" lon="10.2544940">
	<ele>1336.80</ele>
	<time>2025-04-30T08:34:27.000Z</time>
</trkpt>
<trkpt lat="45.8923420" lon="10.2544940">
	<ele>1336.80</ele>
	<time>2025-04-30T08:34:28.000Z</time>
</trkpt>
<trkpt lat="45.8923420" lon="10.2544940">
	<ele>1336.80</ele>
	<time>2025-04-30T08:34:29.000Z</time>
</trkpt>
<trkpt lat="45.8923420" lon="10.2544940">
	<ele>1336.80</ele>
	<time>2025-04-30T08:34:30.000Z</time>
</trkpt>
<trkpt lat="45.8923420" lon="10.2544940">
	<ele>1336.80</ele>
	<time>2025-04-30T08:34:31.000Z</time>
</trkpt>
<trkpt lat="45.8923420" lon="10.2544940">
	<ele>1336.80</ele>
	<time>2025-04-30T08:34:32.000Z</time>
</trkpt>
<trkpt lat="45.8923420" lon="10.2544940">
	<ele>1336.80</ele>
	<time>2025-04-30T08:34:33.000Z</time>
</trkpt>
<trkpt lat="45.8923420" lon="10.2544940">
	<ele>1336.80</ele>
	<time>2025-04-30T08:34:34.000Z</time>
</trkpt>
<trkpt lat="45.8923420" lon="10.2544940">
	<ele>1336.80</ele>
	<time>2025-04-30T08:34:35.000Z</time>
</trkpt>
<trkpt lat="45.8923420" lon="10.2544940">
	<ele>1336.80</ele>
	<time>2025-04-30T08:34:36.000Z</time>
</trkpt>
<trkpt lat="45.8923420" lon="10.2544940">
	<ele>1336.80</ele>
	<time>2025-04-30T08:34:37.000Z</time>
</trkpt>
<trkpt lat="45.8923400" lon="10.2544940">
	<ele>1336.80</ele>
	<time>2025-04-30T08:34:38.000Z</time>
</trkpt>
<trkpt lat="45.8923390" lon="10.2544940">
	<ele>1336.80</ele>
	<time>2025-04-30T08:34:39.000Z</time>
</trkpt>
<trkpt lat="45.8923390" lon="10.2544940">
	<ele>1336.80</ele>
	<time>2025-04-30T08:34:40.000Z</time>
</trkpt>
<trkpt lat="45.8923370" lon="10.2544940">
	<ele>1336.80</ele>
	<time>2025-04-30T08:34:41.000Z</time>
</trkpt>
<trkpt lat="45.8923360" lon="10.2544870">
	<ele>1336.60</ele>
	<time>2025-04-30T08:34:42.000Z</time>
</trkpt>
<trkpt lat="45.8923360" lon="10.2544860">
	<ele>1336.60</ele>
	<time>2025-04-30T08:34:43.000Z</time>
</trkpt>
<trkpt lat="45.8923360" lon="10.2544840">
	<ele>1336.60</ele>
	<time>2025-04-30T08:34:44.000Z</time>
</trkpt>
<trkpt lat="45.8923360" lon="10.2544790">
	<ele>1336.60</ele>
	<time>2025-04-30T08:34:45.000Z</time>
</trkpt>
<trkpt lat="45.8923360" lon="10.2544780">
	<ele>1336.60</ele>
	<time>2025-04-30T08:34:46.000Z</time>
</trkpt>
<trkpt lat="45.8923350" lon="10.2544780">
	<ele>1336.60</ele>
	<time>2025-04-30T08:34:47.000Z</time>
</trkpt>
<trkpt lat="45.8923340" lon="10.2544780">
	<ele>1336.60</ele>
	<time>2025-04-30T08:34:48.000Z</time>
</trkpt>
<trkpt lat="45.8923340" lon="10.2544780">
	<ele>1336.40</ele>
	<time>2025-04-30T08:34:49.000Z</time>
</trkpt>
<trkpt lat="45.8923340" lon="10.2544770">
	<ele>1336.40</ele>
	<time>2025-04-30T08:34:50.000Z</time>
</trkpt>
<trkpt lat="45.8923380" lon="10.2544740">
	<ele>1336.00</ele>
	<time>2025-04-30T08:34:51.000Z</time>
</trkpt>
<trkpt lat="45.8923560" lon="10.2544630">
	<ele>1335.80</ele>
	<time>2025-04-30T08:34:52.000Z</time>
</trkpt>
<trkpt lat="45.8923680" lon="10.2544540">
	<ele>1335.60</ele>
	<time>2025-04-30T08:34:53.000Z</time>
</trkpt>
<trkpt lat="45.8923780" lon="10.2544390">
	<ele>1335.60</ele>
	<time>2025-04-30T08:34:54.000Z</time>
</trkpt>
<trkpt lat="45.8923880" lon="10.2544260">
	<ele>1335.20</ele>
	<time>2025-04-30T08:34:55.000Z</time>
</trkpt>
<trkpt lat="45.8923970" lon="10.2544130">
	<ele>1335.00</ele>
	<time>2025-04-30T08:34:56.000Z</time>
</trkpt>
<trkpt lat="45.8924080" lon="10.2544020">
	<ele>1334.80</ele>
	<time>2025-04-30T08:34:57.000Z</time>
</trkpt>
<trkpt lat="45.8924200" lon="10.2543870">
	<ele>1334.60</ele>
	<time>2025-04-30T08:34:58.000Z</time>
</trkpt>
<trkpt lat="45.8924310" lon="10.2543710">
	<ele>1334.60</ele>
	<time>2025-04-30T08:34:59.000Z</time>
</trkpt>
<trkpt lat="45.8924370" lon="10.2543610">
	<ele>1334.60</ele>
	<time>2025-04-30T08:35:00.000Z</time>
</trkpt>
<trkpt lat="45.8924390" lon="10.2543560">
	<ele>1334.40</ele>
	<time>2025-04-30T08:35:01.000Z</time>
</trkpt>
<trkpt lat="45.8924400" lon="10.2543540">
	<ele>1334.40</ele>
	<time>2025-04-30T08:35:02.000Z</time>
</trkpt>
<trkpt lat="45.8924410" lon="10.2543520">
	<ele>1334.20</ele>
	<time>2025-04-30T08:35:03.000Z</time>
</trkpt>
<trkpt lat="45.8924420" lon="10.2543520">
	<ele>1334.20</ele>
	<time>2025-04-30T08:35:04.000Z</time>
</trkpt>
<trkpt lat="45.8924410" lon="10.2543510">
	<ele>1334.20</ele>
	<time>2025-04-30T08:35:05.000Z</time>
</trkpt>
<trkpt lat="45.8924400" lon="10.2543510">
	<ele>1334.20</ele>
	<time>2025-04-30T08:35:06.000Z</time>
</trkpt>
<trkpt lat="45.8924370" lon="10.2543520">
	<ele>1334.20</ele>
	<time>2025-04-30T08:35:07.000Z</time>
</trkpt>
<trkpt lat="45.8924360" lon="10.2543500">
	<ele>1334.20</ele>
	<time>2025-04-30T08:35:08.000Z</time>
</trkpt>
<trkpt lat="45.8924350" lon="10.2543500">
	<ele>1334.20</ele>
	<time>2025-04-30T08:35:09.000Z</time>
</trkpt>
<trkpt lat="45.8924330" lon="10.2543490">
	<ele>1334.20</ele>
	<time>2025-04-30T08:35:10.000Z</time>
</trkpt>
<trkpt lat="45.8924310" lon="10.2543490">
	<ele>1334.20</ele>
	<time>2025-04-30T08:35:11.000Z</time>
</trkpt>
<trkpt lat="45.8924300" lon="10.2543500">
	<ele>1334.20</ele>
	<time>2025-04-30T08:35:12.000Z</time>
</trkpt>
<trkpt lat="45.8924210" lon="10.2543450">
	<ele>1334.20</ele>
	<time>2025-04-30T08:35:13.000Z</time>
</trkpt>
<trkpt lat="45.8924210" lon="10.2543360">
	<ele>1334.20</ele>
	<time>2025-04-30T08:35:14.000Z</time>
</trkpt>
<trkpt lat="45.8924220" lon="10.2543260">
	<ele>1334.20</ele>
	<time>2025-04-30T08:35:15.000Z</time>
</trkpt>
<trkpt lat="45.8924250" lon="10.2543220">
	<ele>1334.00</ele>
	<time>2025-04-30T08:35:16.000Z</time>
</trkpt>
<trkpt lat="45.8924260" lon="10.2543220">
	<ele>1333.80</ele>
	<time>2025-04-30T08:35:17.000Z</time>
</trkpt>
<trkpt lat="45.8924260" lon="10.2543220">
	<ele>1333.80</ele>
	<time>2025-04-30T08:35:18.000Z</time>
</trkpt>
<trkpt lat="45.8924250" lon="10.2543220">
	<ele>1333.80</ele>
	<time>2025-04-30T08:35:19.000Z</time>
</trkpt>
<trkpt lat="45.8924230" lon="10.2543210">
	<ele>1333.60</ele>
	<time>2025-04-30T08:35:20.000Z</time>
</trkpt>
<trkpt lat="45.8924230" lon="10.2543200">
	<ele>1333.60</ele>
	<time>2025-04-30T08:35:21.000Z</time>
</trkpt>
<trkpt lat="45.8924230" lon="10.2543200">
	<ele>1333.60</ele>
	<time>2025-04-30T08:35:22.000Z</time>
</trkpt>
<trkpt lat="45.8924230" lon="10.2543200">
	<ele>1333.60</ele>
	<time>2025-04-30T08:35:23.000Z</time>
</trkpt>
<trkpt lat="45.8924230" lon="10.2543200">
	<ele>1333.60</ele>
	<time>2025-04-30T08:35:24.000Z</time>
</trkpt>
<trkpt lat="45.8924230" lon="10.2543200">
	<ele>1333.60</ele>
	<time>2025-04-30T08:35:25.000Z</time>
</trkpt>
<trkpt lat="45.8924230" lon="10.2543200">
	<ele>1333.60</ele>
	<time>2025-04-30T08:35:26.000Z</time>
</trkpt>
<trkpt lat="45.8924230" lon="10.2543200">
	<ele>1333.40</ele>
	<time>2025-04-30T08:35:27.000Z</time>
</trkpt>
<trkpt lat="45.8924230" lon="10.2543140">
	<ele>1333.00</ele>
	<time>2025-04-30T08:35:28.000Z</time>
</trkpt>
<trkpt lat="45.8924300" lon="10.2542960">
	<ele>1332.80</ele>
	<time>2025-04-30T08:35:29.000Z</time>
</trkpt>
<trkpt lat="45.8924350" lon="10.2542810">
	<ele>1332.60</ele>
	<time>2025-04-30T08:35:30.000Z</time>
</trkpt>
<trkpt lat="45.8924430" lon="10.2542650">
	<ele>1332.20</ele>
	<time>2025-04-30T08:35:31.000Z</time>
</trkpt>
<trkpt lat="45.8924500" lon="10.2542480">
	<ele>1332.00</ele>
	<time>2025-04-30T08:35:32.000Z</time>
</trkpt>
<trkpt lat="45.8924580" lon="10.2542330">
	<ele>1331.80</ele>
	<time>2025-04-30T08:35:33.000Z</time>
</trkpt>
<trkpt lat="45.8924680" lon="10.2542170">
	<ele>1331.60</ele>
	<time>2025-04-30T08:35:34.000Z</time>
</trkpt>
<trkpt lat="45.8924780" lon="10.2542030">
	<ele>1331.60</ele>
	<time>2025-04-30T08:35:35.000Z</time>
</trkpt>
<trkpt lat="45.8924890" lon="10.2541910">
	<ele>1331.40</ele>
	<time>2025-04-30T08:35:36.000Z</time>
</trkpt>
<trkpt lat="45.8925010" lon="10.2541780">
	<ele>1331.40</ele>
	<time>2025-04-30T08:35:37.000Z</time>
</trkpt>
<trkpt lat="45.8925130" lon="10.2541680">
	<ele>1331.00</ele>
	<time>2025-04-30T08:35:38.000Z</time>
</trkpt>
<trkpt lat="45.8925210" lon="10.2541560">
	<ele>1330.80</ele>
	<time>2025-04-30T08:35:39.000Z</time>
</trkpt>
<trkpt lat="45.8925260" lon="10.2541450">
	<ele>1330.60</ele>
	<time>2025-04-30T08:35:40.000Z</time>
</trkpt>
<trkpt lat="45.8925300" lon="10.2541360">
	<ele>1330.40</ele>
	<time>2025-04-30T08:35:41.000Z</time>
</trkpt>
<trkpt lat="45.8925270" lon="10.2541320">
	<ele>1330.00</ele>
	<time>2025-04-30T08:35:42.000Z</time>
</trkpt>
<trkpt lat="45.8925180" lon="10.2541420">
	<ele>1329.80</ele>
	<time>2025-04-30T08:35:43.000Z</time>
</trkpt>
<trkpt lat="45.8925220" lon="10.2541450">
	<ele>1329.60</ele>
	<time>2025-04-30T08:35:44.000Z</time>
</trkpt>
<trkpt lat="45.8925210" lon="10.2541470">
	<ele>1329.20</ele>
	<time>2025-04-30T08:35:45.000Z</time>
</trkpt>
<trkpt lat="45.8925300" lon="10.2541450">
	<ele>1329.00</ele>
	<time>2025-04-30T08:35:46.000Z</time>
</trkpt>
<trkpt lat="45.8925390" lon="10.2541370">
	<ele>1328.80</ele>
	<time>2025-04-30T08:35:47.000Z</time>
</trkpt>
<trkpt lat="45.8925500" lon="10.2541260">
	<ele>1328.40</ele>
	<time>2025-04-30T08:35:48.000Z</time>
</trkpt>
<trkpt lat="45.8925670" lon="10.2541070">
	<ele>1328.20</ele>
	<time>2025-04-30T08:35:49.000Z</time>
</trkpt>
<trkpt lat="45.8925760" lon="10.2540970">
	<ele>1327.80</ele>
	<time>2025-04-30T08:35:50.000Z</time>
</trkpt>
<trkpt lat="45.8925840" lon="10.2540830">
	<ele>1327.60</ele>
	<time>2025-04-30T08:35:51.000Z</time>
</trkpt>
<trkpt lat="45.8925900" lon="10.2540670">
	<ele>1327.20</ele>
	<time>2025-04-30T08:35:52.000Z</time>
</trkpt>
<trkpt lat="45.8925970" lon="10.2540520">
	<ele>1327.00</ele>
	<time>2025-04-30T08:35:53.000Z</time>
</trkpt>
<trkpt lat="45.8926070" lon="10.2540350">
	<ele>1326.80</ele>
	<time>2025-04-30T08:35:54.000Z</time>
</trkpt>
<trkpt lat="45.8926100" lon="10.2540160">
	<ele>1326.60</ele>
	<time>2025-04-30T08:35:55.000Z</time>
</trkpt>
<trkpt lat="45.8926110" lon="10.2539970">
	<ele>1326.40</ele>
	<time>2025-04-30T08:35:56.000Z</time>
</trkpt>
<trkpt lat="45.8926140" lon="10.2539830">
	<ele>1326.20</ele>
	<time>2025-04-30T08:35:57.000Z</time>
</trkpt>
<trkpt lat="45.8926230" lon="10.2539660">
	<ele>1326.00</ele>
	<time>2025-04-30T08:35:58.000Z</time>
</trkpt>
<trkpt lat="45.8926350" lon="10.2539480">
	<ele>1326.00</ele>
	<time>2025-04-30T08:35:59.000Z</time>
</trkpt>
<trkpt lat="45.8926320" lon="10.2539320">
	<ele>1325.60</ele>
	<time>2025-04-30T08:36:00.000Z</time>
</trkpt>
<trkpt lat="45.8926310" lon="10.2539190">
	<ele>1325.20</ele>
	<time>2025-04-30T08:36:01.000Z</time>
</trkpt>
<trkpt lat="45.8926360" lon="10.2539100">
	<ele>1325.00</ele>
	<time>2025-04-30T08:36:02.000Z</time>
</trkpt>
<trkpt lat="45.8926420" lon="10.2538980">
	<ele>1324.80</ele>
	<time>2025-04-30T08:36:03.000Z</time>
</trkpt>
<trkpt lat="45.8926470" lon="10.2538890">
	<ele>1324.60</ele>
	<time>2025-04-30T08:36:04.000Z</time>
</trkpt>
<trkpt lat="45.8926490" lon="10.2538840">
	<ele>1324.60</ele>
	<time>2025-04-30T08:36:05.000Z</time>
</trkpt>
<trkpt lat="45.8926490" lon="10.2538790">
	<ele>1324.40</ele>
	<time>2025-04-30T08:36:06.000Z</time>
</trkpt>
<trkpt lat="45.8926480" lon="10.2538720">
	<ele>1324.40</ele>
	<time>2025-04-30T08:36:07.000Z</time>
</trkpt>
<trkpt lat="45.8926520" lon="10.2538630">
	<ele>1324.40</ele>
	<time>2025-04-30T08:36:08.000Z</time>
</trkpt>
<trkpt lat="45.8926600" lon="10.2538500">
	<ele>1324.40</ele>
	<time>2025-04-30T08:36:09.000Z</time>
</trkpt>
<trkpt lat="45.8926630" lon="10.2538340">
	<ele>1324.00</ele>
	<time>2025-04-30T08:36:10.000Z</time>
</trkpt>
<trkpt lat="45.8926620" lon="10.2538150">
	<ele>1323.80</ele>
	<time>2025-04-30T08:36:11.000Z</time>
</trkpt>
<trkpt lat="45.8926580" lon="10.2537940">
	<ele>1323.60</ele>
	<time>2025-04-30T08:36:12.000Z</time>
</trkpt>
<trkpt lat="45.8926570" lon="10.2537700">
	<ele>1323.60</ele>
	<time>2025-04-30T08:36:13.000Z</time>
</trkpt>
<trkpt lat="45.8926630" lon="10.2537540">
	<ele>1323.20</ele>
	<time>2025-04-30T08:36:14.000Z</time>
</trkpt>
<trkpt lat="45.8926620" lon="10.2537470">
	<ele>1323.00</ele>
	<time>2025-04-30T08:36:15.000Z</time>
</trkpt>
<trkpt lat="45.8926680" lon="10.2537350">
	<ele>1322.80</ele>
	<time>2025-04-30T08:36:16.000Z</time>
</trkpt>
<trkpt lat="45.8926700" lon="10.2537170">
	<ele>1322.60</ele>
	<time>2025-04-30T08:36:17.000Z</time>
</trkpt>
<trkpt lat="45.8926700" lon="10.2537010">
	<ele>1322.40</ele>
	<time>2025-04-30T08:36:18.000Z</time>
</trkpt>
<trkpt lat="45.8926720" lon="10.2536850">
	<ele>1322.00</ele>
	<time>2025-04-30T08:36:19.000Z</time>
</trkpt>
<trkpt lat="45.8926750" lon="10.2536650">
	<ele>1321.80</ele>
	<time>2025-04-30T08:36:20.000Z</time>
</trkpt>
<trkpt lat="45.8926820" lon="10.2536480">
	<ele>1321.60</ele>
	<time>2025-04-30T08:36:21.000Z</time>
</trkpt>
<trkpt lat="45.8926870" lon="10.2536400">
	<ele>1321.40</ele>
	<time>2025-04-30T08:36:22.000Z</time>
</trkpt>
<trkpt lat="45.8926950" lon="10.2536310">
	<ele>1321.20</ele>
	<time>2025-04-30T08:36:23.000Z</time>
</trkpt>
<trkpt lat="45.8926990" lon="10.2536270">
	<ele>1321.00</ele>
	<time>2025-04-30T08:36:24.000Z</time>
</trkpt>
<trkpt lat="45.8927010" lon="10.2536220">
	<ele>1320.80</ele>
	<time>2025-04-30T08:36:25.000Z</time>
</trkpt>
<trkpt lat="45.8927080" lon="10.2536080">
	<ele>1320.60</ele>
	<time>2025-04-30T08:36:26.000Z</time>
</trkpt>
<trkpt lat="45.8927160" lon="10.2535930">
	<ele>1320.40</ele>
	<time>2025-04-30T08:36:27.000Z</time>
</trkpt>
<trkpt lat="45.8927200" lon="10.2535780">
	<ele>1320.00</ele>
	<time>2025-04-30T08:36:28.000Z</time>
</trkpt>
<trkpt lat="45.8927280" lon="10.2535590">
	<ele>1319.80</ele>
	<time>2025-04-30T08:36:29.000Z</time>
</trkpt>
<trkpt lat="45.8927330" lon="10.2535540">
	<ele>1319.60</ele>
	<time>2025-04-30T08:36:30.000Z</time>
</trkpt>
<trkpt lat="45.8927400" lon="10.2535410">
	<ele>1319.20</ele>
	<time>2025-04-30T08:36:31.000Z</time>
</trkpt>
<trkpt lat="45.8927500" lon="10.2535300">
	<ele>1318.80</ele>
	<time>2025-04-30T08:36:32.000Z</time>
</trkpt>
<trkpt lat="45.8927600" lon="10.2535170">
	<ele>1318.40</ele>
	<time>2025-04-30T08:36:33.000Z</time>
</trkpt>
<trkpt lat="45.8927660" lon="10.2535040">
	<ele>1318.20</ele>
	<time>2025-04-30T08:36:34.000Z</time>
</trkpt>
<trkpt lat="45.8927740" lon="10.2534900">
	<ele>1318.00</ele>
	<time>2025-04-30T08:36:35.000Z</time>
</trkpt>
<trkpt lat="45.8927800" lon="10.2534760">
	<ele>1318.00</ele>
	<time>2025-04-30T08:36:36.000Z</time>
</trkpt>
<trkpt lat="45.8927850" lon="10.2534620">
	<ele>1317.80</ele>
	<time>2025-04-30T08:36:37.000Z</time>
</trkpt>
<trkpt lat="45.8927910" lon="10.2534470">
	<ele>1317.80</ele>
	<time>2025-04-30T08:36:38.000Z</time>
</trkpt>
<trkpt lat="45.8927980" lon="10.2534320">
	<ele>1317.60</ele>
	<time>2025-04-30T08:36:39.000Z</time>
</trkpt>
<trkpt lat="45.8928070" lon="10.2534170">
	<ele>1317.40</ele>
	<time>2025-04-30T08:36:40.000Z</time>
</trkpt>
<trkpt lat="45.8928130" lon="10.2534030">
	<ele>1317.20</ele>
	<time>2025-04-30T08:36:41.000Z</time>
</trkpt>
<trkpt lat="45.8928180" lon="10.2533860">
	<ele>1317.00</ele>
	<time>2025-04-30T08:36:42.000Z</time>
</trkpt>
<trkpt lat="45.8928240" lon="10.2533680">
	<ele>1316.80</ele>
	<time>2025-04-30T08:36:43.000Z</time>
</trkpt>
<trkpt lat="45.8928310" lon="10.2533500">
	<ele>1316.40</ele>
	<time>2025-04-30T08:36:44.000Z</time>
</trkpt>
<trkpt lat="45.8928350" lon="10.2533320">
	<ele>1316.20</ele>
	<time>2025-04-30T08:36:45.000Z</time>
</trkpt>
<trkpt lat="45.8928380" lon="10.2533130">
	<ele>1315.80</ele>
	<time>2025-04-30T08:36:46.000Z</time>
</trkpt>
<trkpt lat="45.8928420" lon="10.2532930">
	<ele>1315.60</ele>
	<time>2025-04-30T08:36:47.000Z</time>
</trkpt>
<trkpt lat="45.8928500" lon="10.2532830">
	<ele>1315.40</ele>
	<time>2025-04-30T08:36:48.000Z</time>
</trkpt>
<trkpt lat="45.8928590" lon="10.2532720">
	<ele>1315.40</ele>
	<time>2025-04-30T08:36:49.000Z</time>
</trkpt>
<trkpt lat="45.8928680" lon="10.2532520">
	<ele>1315.20</ele>
	<time>2025-04-30T08:36:50.000Z</time>
</trkpt>
<trkpt lat="45.8928730" lon="10.2532300">
	<ele>1314.80</ele>
	<time>2025-04-30T08:36:51.000Z</time>
</trkpt>
<trkpt lat="45.8928790" lon="10.2532050">
	<ele>1314.80</ele>
	<time>2025-04-30T08:36:52.000Z</time>
</trkpt>
<trkpt lat="45.8928860" lon="10.2531840">
	<ele>1314.40</ele>
	<time>2025-04-30T08:36:53.000Z</time>
</trkpt>
<trkpt lat="45.8928920" lon="10.2531680">
	<ele>1314.20</ele>
	<time>2025-04-30T08:36:54.000Z</time>
</trkpt>
<trkpt lat="45.8928950" lon="10.2531590">
	<ele>1314.00</ele>
	<time>2025-04-30T08:36:55.000Z</time>
</trkpt>
<trkpt lat="45.8928960" lon="10.2531550">
	<ele>1313.80</ele>
	<time>2025-04-30T08:36:56.000Z</time>
</trkpt>
<trkpt lat="45.8928980" lon="10.2531520">
	<ele>1313.80</ele>
	<time>2025-04-30T08:36:57.000Z</time>
</trkpt>
<trkpt lat="45.8929010" lon="10.2531480">
	<ele>1313.80</ele>
	<time>2025-04-30T08:36:58.000Z</time>
</trkpt>
<trkpt lat="45.8929000" lon="10.2531390">
	<ele>1313.80</ele>
	<time>2025-04-30T08:36:59.000Z</time>
</trkpt>
<trkpt lat="45.8928960" lon="10.2531270">
	<ele>1313.80</ele>
	<time>2025-04-30T08:37:00.000Z</time>
</trkpt>
<trkpt lat="45.8928960" lon="10.2531120">
	<ele>1313.80</ele>
	<time>2025-04-30T08:37:01.000Z</time>
</trkpt>
<trkpt lat="45.8929000" lon="10.2530910">
	<ele>1313.60</ele>
	<time>2025-04-30T08:37:02.000Z</time>
</trkpt>
<trkpt lat="45.8929050" lon="10.2530770">
	<ele>1313.60</ele>
	<time>2025-04-30T08:37:03.000Z</time>
</trkpt>
<trkpt lat="45.8929090" lon="10.2530620">
	<ele>1313.40</ele>
	<time>2025-04-30T08:37:04.000Z</time>
</trkpt>
<trkpt lat="45.8929100" lon="10.2530480">
	<ele>1313.40</ele>
	<time>2025-04-30T08:37:05.000Z</time>
</trkpt>
<trkpt lat="45.8929070" lon="10.2530310">
	<ele>1313.40</ele>
	<time>2025-04-30T08:37:06.000Z</time>
</trkpt>
<trkpt lat="45.8929090" lon="10.2530210">
	<ele>1313.40</ele>
	<time>2025-04-30T08:37:07.000Z</time>
</trkpt>
<trkpt lat="45.8929040" lon="10.2530000">
	<ele>1313.20</ele>
	<time>2025-04-30T08:37:08.000Z</time>
</trkpt>
<trkpt lat="45.8929010" lon="10.2529810">
	<ele>1313.00</ele>
	<time>2025-04-30T08:37:09.000Z</time>
</trkpt>
<trkpt lat="45.8928950" lon="10.2529600">
	<ele>1312.80</ele>
	<time>2025-04-30T08:37:10.000Z</time>
</trkpt>
<trkpt lat="45.8928940" lon="10.2529390">
	<ele>1312.40</ele>
	<time>2025-04-30T08:37:11.000Z</time>
</trkpt>
<trkpt lat="45.8928920" lon="10.2529260">
	<ele>1312.00</ele>
	<time>2025-04-30T08:37:12.000Z</time>
</trkpt>
<trkpt lat="45.8928930" lon="10.2529130">
	<ele>1311.80</ele>
	<time>2025-04-30T08:37:13.000Z</time>
</trkpt>
<trkpt lat="45.8928970" lon="10.2529010">
	<ele>1311.60</ele>
	<time>2025-04-30T08:37:14.000Z</time>
</trkpt>
<trkpt lat="45.8929050" lon="10.2528880">
	<ele>1311.40</ele>
	<time>2025-04-30T08:37:15.000Z</time>
</trkpt>
<trkpt lat="45.8929100" lon="10.2528730">
	<ele>1311.20</ele>
	<time>2025-04-30T08:37:16.000Z</time>
</trkpt>
<trkpt lat="45.8929150" lon="10.2528650">
	<ele>1311.00</ele>
	<time>2025-04-30T08:37:17.000Z</time>
</trkpt>
<trkpt lat="45.8929170" lon="10.2528590">
	<ele>1311.00</ele>
	<time>2025-04-30T08:37:18.000Z</time>
</trkpt>
<trkpt lat="45.8929230" lon="10.2528490">
	<ele>1310.80</ele>
	<time>2025-04-30T08:37:19.000Z</time>
</trkpt>
<trkpt lat="45.8929210" lon="10.2528380">
	<ele>1310.80</ele>
	<time>2025-04-30T08:37:20.000Z</time>
</trkpt>
<trkpt lat="45.8929190" lon="10.2528220">
	<ele>1310.60</ele>
	<time>2025-04-30T08:37:21.000Z</time>
</trkpt>
<trkpt lat="45.8929180" lon="10.2528130">
	<ele>1310.60</ele>
	<time>2025-04-30T08:37:22.000Z</time>
</trkpt>
<trkpt lat="45.8929160" lon="10.2528090">
	<ele>1310.60</ele>
	<time>2025-04-30T08:37:23.000Z</time>
</trkpt>
<trkpt lat="45.8929150" lon="10.2528070">
	<ele>1310.40</ele>
	<time>2025-04-30T08:37:24.000Z</time>
</trkpt>
<trkpt lat="45.8929120" lon="10.2528060">
	<ele>1310.40</ele>
	<time>2025-04-30T08:37:25.000Z</time>
</trkpt>
<trkpt lat="45.8929110" lon="10.2528070">
	<ele>1310.40</ele>
	<time>2025-04-30T08:37:26.000Z</time>
</trkpt>
<trkpt lat="45.8929100" lon="10.2528080">
	<ele>1310.40</ele>
	<time>2025-04-30T08:37:27.000Z</time>
</trkpt>
<trkpt lat="45.8929080" lon="10.2528070">
	<ele>1310.40</ele>
	<time>2025-04-30T08:37:28.000Z</time>
</trkpt>
<trkpt lat="45.8929060" lon="10.2528060">
	<ele>1310.40</ele>
	<time>2025-04-30T08:37:29.000Z</time>
</trkpt>
<trkpt lat="45.8929060" lon="10.2528050">
	<ele>1310.40</ele>
	<time>2025-04-30T08:37:30.000Z</time>
</trkpt>
<trkpt lat="45.8929060" lon="10.2528050">
	<ele>1310.40</ele>
	<time>2025-04-30T08:37:31.000Z</time>
</trkpt>
<trkpt lat="45.8929050" lon="10.2528040">
	<ele>1310.40</ele>
	<time>2025-04-30T08:37:32.000Z</time>
</trkpt>
<trkpt lat="45.8929030" lon="10.2528030">
	<ele>1310.60</ele>
	<time>2025-04-30T08:37:33.000Z</time>
</trkpt>
<trkpt lat="45.8929010" lon="10.2528040">
	<ele>1310.60</ele>
	<time>2025-04-30T08:37:34.000Z</time>
</trkpt>
<trkpt lat="45.8928990" lon="10.2528040">
	<ele>1310.60</ele>
	<time>2025-04-30T08:37:35.000Z</time>
</trkpt>
<trkpt lat="45.8928960" lon="10.2528050">
	<ele>1310.80</ele>
	<time>2025-04-30T08:37:36.000Z</time>
</trkpt>
<trkpt lat="45.8928950" lon="10.2528050">
	<ele>1310.80</ele>
	<time>2025-04-30T08:37:37.000Z</time>
</trkpt>
<trkpt lat="45.8928930" lon="10.2528050">
	<ele>1310.80</ele>
	<time>2025-04-30T08:37:38.000Z</time>
</trkpt>
<trkpt lat="45.8928920" lon="10.2528050">
	<ele>1310.80</ele>
	<time>2025-04-30T08:37:39.000Z</time>
</trkpt>
<trkpt lat="45.8928910" lon="10.2528060">
	<ele>1310.80</ele>
	<time>2025-04-30T08:37:40.000Z</time>
</trkpt>
<trkpt lat="45.8928910" lon="10.2528060">
	<ele>1310.60</ele>
	<time>2025-04-30T08:37:41.000Z</time>
</trkpt>
<trkpt lat="45.8928910" lon="10.2528060">
	<ele>1310.60</ele>
	<time>2025-04-30T08:37:42.000Z</time>
</trkpt>
<trkpt lat="45.8928910" lon="10.2528060">
	<ele>1310.60</ele>
	<time>2025-04-30T08:37:43.000Z</time>
</trkpt>
<trkpt lat="45.8928910" lon="10.2528060">
	<ele>1310.60</ele>
	<time>2025-04-30T08:37:44.000Z</time>
</trkpt>
<trkpt lat="45.8928910" lon="10.2528060">
	<ele>1310.40</ele>
	<time>2025-04-30T08:37:45.000Z</time>
</trkpt>
<trkpt lat="45.8928910" lon="10.2528060">
	<ele>1310.40</ele>
	<time>2025-04-30T08:37:46.000Z</time>
</trkpt>
<trkpt lat="45.8928910" lon="10.2528060">
	<ele>1310.40</ele>
	<time>2025-04-30T08:37:47.000Z</time>
</trkpt>
<trkpt lat="45.8928910" lon="10.2528060">
	<ele>1310.40</ele>
	<time>2025-04-30T08:37:48.000Z</time>
</trkpt>
<trkpt lat="45.8928910" lon="10.2528060">
	<ele>1310.60</ele>
	<time>2025-04-30T08:37:49.000Z</time>
</trkpt>
<trkpt lat="45.8928910" lon="10.2528060">
	<ele>1310.60</ele>
	<time>2025-04-30T08:37:50.000Z</time>
</trkpt>
<trkpt lat="45.8928910" lon="10.2528060">
	<ele>1310.40</ele>
	<time>2025-04-30T08:37:51.000Z</time>
</trkpt>
<trkpt lat="45.8928910" lon="10.2528060">
	<ele>1310.40</ele>
	<time>2025-04-30T08:37:52.000Z</time>
</trkpt>
<trkpt lat="45.8928910" lon="10.2528060">
	<ele>1310.40</ele>
	<time>2025-04-30T08:37:53.000Z</time>
</trkpt>
<trkpt lat="45.8928910" lon="10.2528060">
	<ele>1310.60</ele>
	<time>2025-04-30T08:37:54.000Z</time>
</trkpt>
<trkpt lat="45.8928910" lon="10.2528060">
	<ele>1310.60</ele>
	<time>2025-04-30T08:37:55.000Z</time>
</trkpt>
<trkpt lat="45.8928910" lon="10.2528060">
	<ele>1310.60</ele>
	<time>2025-04-30T08:37:56.000Z</time>
</trkpt>
<trkpt lat="45.8928920" lon="10.2528060">
	<ele>1310.80</ele>
	<time>2025-04-30T08:37:57.000Z</time>
</trkpt>
<trkpt lat="45.8928930" lon="10.2528060">
	<ele>1310.80</ele>
	<time>2025-04-30T08:37:58.000Z</time>
</trkpt>
<trkpt lat="45.8928930" lon="10.2528060">
	<ele>1311.00</ele>
	<time>2025-04-30T08:37:59.000Z</time>
</trkpt>
<trkpt lat="45.8928930" lon="10.2528060">
	<ele>1311.00</ele>
	<time>2025-04-30T08:38:00.000Z</time>
</trkpt>
<trkpt lat="45.8928950" lon="10.2528060">
	<ele>1311.00</ele>
	<time>2025-04-30T08:38:01.000Z</time>
</trkpt>
<trkpt lat="45.8928950" lon="10.2528060">
	<ele>1311.00</ele>
	<time>2025-04-30T08:38:02.000Z</time>
</trkpt>
<trkpt lat="45.8928950" lon="10.2528060">
	<ele>1311.00</ele>
	<time>2025-04-30T08:38:03.000Z</time>
</trkpt>
<trkpt lat="45.8928950" lon="10.2528060">
	<ele>1311.00</ele>
	<time>2025-04-30T08:38:04.000Z</time>
</trkpt>
<trkpt lat="45.8928950" lon="10.2528060">
	<ele>1310.80</ele>
	<time>2025-04-30T08:38:05.000Z</time>
</trkpt>
<trkpt lat="45.8928950" lon="10.2528060">
	<ele>1310.80</ele>
	<time>2025-04-30T08:38:06.000Z</time>
</trkpt>
<trkpt lat="45.8928970" lon="10.2528060">
	<ele>1310.80</ele>
	<time>2025-04-30T08:38:07.000Z</time>
</trkpt>
<trkpt lat="45.8928970" lon="10.2528060">
	<ele>1310.80</ele>
	<time>2025-04-30T08:38:08.000Z</time>
</trkpt>
<trkpt lat="45.8928970" lon="10.2528060">
	<ele>1310.80</ele>
	<time>2025-04-30T08:38:09.000Z</time>
</trkpt>
<trkpt lat="45.8928980" lon="10.2528060">
	<ele>1310.80</ele>
	<time>2025-04-30T08:38:10.000Z</time>
</trkpt>
<trkpt lat="45.8928980" lon="10.2528060">
	<ele>1310.60</ele>
	<time>2025-04-30T08:38:11.000Z</time>
</trkpt>
<trkpt lat="45.8928980" lon="10.2528070">
	<ele>1310.60</ele>
	<time>2025-04-30T08:38:12.000Z</time>
</trkpt>
<trkpt lat="45.8929020" lon="10.2528100">
	<ele>1310.40</ele>
	<time>2025-04-30T08:38:13.000Z</time>
</trkpt>
<trkpt lat="45.8929150" lon="10.2528190">
	<ele>1310.20</ele>
	<time>2025-04-30T08:38:14.000Z</time>
</trkpt>
<trkpt lat="45.8929340" lon="10.2528340">
	<ele>1310.00</ele>
	<time>2025-04-30T08:38:15.000Z</time>
</trkpt>
<trkpt lat="45.8929470" lon="10.2528440">
	<ele>1309.80</ele>
	<time>2025-04-30T08:38:16.000Z</time>
</trkpt>
<trkpt lat="45.8929620" lon="10.2528520">
	<ele>1309.80</ele>
	<time>2025-04-30T08:38:17.000Z</time>
</trkpt>
<trkpt lat="45.8929810" lon="10.2528640">
	<ele>1309.60</ele>
	<time>2025-04-30T08:38:18.000Z</time>
</trkpt>
<trkpt lat="45.8930010" lon="10.2528750">
	<ele>1309.40</ele>
	<time>2025-04-30T08:38:19.000Z</time>
</trkpt>
<trkpt lat="45.8930180" lon="10.2528820">
	<ele>1309.00</ele>
	<time>2025-04-30T08:38:20.000Z</time>
</trkpt>
<trkpt lat="45.8930380" lon="10.2528850">
	<ele>1308.80</ele>
	<time>2025-04-30T08:38:21.000Z</time>
</trkpt>
<trkpt lat="45.8930540" lon="10.2528900">
	<ele>1308.80</ele>
	<time>2025-04-30T08:38:22.000Z</time>
</trkpt>
<trkpt lat="45.8930600" lon="10.2528910">
	<ele>1308.60</ele>
	<time>2025-04-30T08:38:23.000Z</time>
</trkpt>
<trkpt lat="45.8930710" lon="10.2528960">
	<ele>1308.40</ele>
	<time>2025-04-30T08:38:24.000Z</time>
</trkpt>
<trkpt lat="45.8930840" lon="10.2529030">
	<ele>1308.40</ele>
	<time>2025-04-30T08:38:25.000Z</time>
</trkpt>
<trkpt lat="45.8930960" lon="10.2529100">
	<ele>1308.20</ele>
	<time>2025-04-30T08:38:26.000Z</time>
</trkpt>
<trkpt lat="45.8931040" lon="10.2529200">
	<ele>1308.00</ele>
	<time>2025-04-30T08:38:27.000Z</time>
</trkpt>
<trkpt lat="45.8931160" lon="10.2529310">
	<ele>1307.40</ele>
	<time>2025-04-30T08:38:28.000Z</time>
</trkpt>
<trkpt lat="45.8931240" lon="10.2529420">
	<ele>1307.20</ele>
	<time>2025-04-30T08:38:29.000Z</time>
</trkpt>
<trkpt lat="45.8931370" lon="10.2529470">
	<ele>1306.80</ele>
	<time>2025-04-30T08:38:30.000Z</time>
</trkpt>
<trkpt lat="45.8931470" lon="10.2529490">
	<ele>1306.60</ele>
	<time>2025-04-30T08:38:31.000Z</time>
</trkpt>
<trkpt lat="45.8931610" lon="10.2529510">
	<ele>1306.40</ele>
	<time>2025-04-30T08:38:32.000Z</time>
</trkpt>
<trkpt lat="45.8931680" lon="10.2529530">
	<ele>1306.40</ele>
	<time>2025-04-30T08:38:33.000Z</time>
</trkpt>
<trkpt lat="45.8931770" lon="10.2529540">
	<ele>1306.20</ele>
	<time>2025-04-30T08:38:34.000Z</time>
</trkpt>
<trkpt lat="45.8931870" lon="10.2529570">
	<ele>1305.80</ele>
	<time>2025-04-30T08:38:35.000Z</time>
</trkpt>
<trkpt lat="45.8931990" lon="10.2529650">
	<ele>1305.60</ele>
	<time>2025-04-30T08:38:36.000Z</time>
</trkpt>
<trkpt lat="45.8932110" lon="10.2529680">
	<ele>1305.40</ele>
	<time>2025-04-30T08:38:37.000Z</time>
</trkpt>
<trkpt lat="45.8932220" lon="10.2529750">
	<ele>1305.20</ele>
	<time>2025-04-30T08:38:38.000Z</time>
</trkpt>
<trkpt lat="45.8932260" lon="10.2529820">
	<ele>1304.80</ele>
	<time>2025-04-30T08:38:39.000Z</time>
</trkpt>
<trkpt lat="45.8932360" lon="10.2529780">
	<ele>1304.40</ele>
	<time>2025-04-30T08:38:40.000Z</time>
</trkpt>
<trkpt lat="45.8932470" lon="10.2529790">
	<ele>1304.00</ele>
	<time>2025-04-30T08:38:41.000Z</time>
</trkpt>
<trkpt lat="45.8932630" lon="10.2529840">
	<ele>1303.80</ele>
	<time>2025-04-30T08:38:42.000Z</time>
</trkpt>
<trkpt lat="45.8932730" lon="10.2529880">
	<ele>1303.40</ele>
	<time>2025-04-30T08:38:43.000Z</time>
</trkpt>
<trkpt lat="45.8932890" lon="10.2529950">
	<ele>1303.00</ele>
	<time>2025-04-30T08:38:44.000Z</time>
</trkpt>
<trkpt lat="45.8933100" lon="10.2529980">
	<ele>1302.80</ele>
	<time>2025-04-30T08:38:45.000Z</time>
</trkpt>
<trkpt lat="45.8933250" lon="10.2530000">
	<ele>1302.60</ele>
	<time>2025-04-30T08:38:46.000Z</time>
</trkpt>
<trkpt lat="45.8933350" lon="10.2530050">
	<ele>1302.00</ele>
	<time>2025-04-30T08:38:47.000Z</time>
</trkpt>
<trkpt lat="45.8933440" lon="10.2530110">
	<ele>1301.60</ele>
	<time>2025-04-30T08:38:48.000Z</time>
</trkpt>
<trkpt lat="45.8933580" lon="10.2530180">
	<ele>1301.20</ele>
	<time>2025-04-30T08:38:49.000Z</time>
</trkpt>
<trkpt lat="45.8933680" lon="10.2530260">
	<ele>1301.00</ele>
	<time>2025-04-30T08:38:50.000Z</time>
</trkpt>
<trkpt lat="45.8933790" lon="10.2530330">
	<ele>1300.80</ele>
	<time>2025-04-30T08:38:51.000Z</time>
</trkpt>
<trkpt lat="45.8933930" lon="10.2530390">
	<ele>1300.60</ele>
	<time>2025-04-30T08:38:52.000Z</time>
</trkpt>
<trkpt lat="45.8934010" lon="10.2530460">
	<ele>1300.40</ele>
	<time>2025-04-30T08:38:53.000Z</time>
</trkpt>
<trkpt lat="45.8934140" lon="10.2530580">
	<ele>1300.20</ele>
	<time>2025-04-30T08:38:54.000Z</time>
</trkpt>
<trkpt lat="45.8934240" lon="10.2530690">
	<ele>1300.00</ele>
	<time>2025-04-30T08:38:55.000Z</time>
</trkpt>
<trkpt lat="45.8934290" lon="10.2530780">
	<ele>1299.60</ele>
	<time>2025-04-30T08:38:56.000Z</time>
</trkpt>
<trkpt lat="45.8934370" lon="10.2530860">
	<ele>1299.20</ele>
	<time>2025-04-30T08:38:57.000Z</time>
</trkpt>
<trkpt lat="45.8934460" lon="10.2530960">
	<ele>1299.00</ele>
	<time>2025-04-30T08:38:58.000Z</time>
</trkpt>
<trkpt lat="45.8934520" lon="10.2531090">
	<ele>1298.80</ele>
	<time>2025-04-30T08:38:59.000Z</time>
</trkpt>
<trkpt lat="45.8934580" lon="10.2531140">
	<ele>1298.60</ele>
	<time>2025-04-30T08:39:00.000Z</time>
</trkpt>
<trkpt lat="45.8934670" lon="10.2531240">
	<ele>1298.40</ele>
	<time>2025-04-30T08:39:01.000Z</time>
</trkpt>
<trkpt lat="45.8934730" lon="10.2531390">
	<ele>1298.20</ele>
	<time>2025-04-30T08:39:02.000Z</time>
</trkpt>
<trkpt lat="45.8934800" lon="10.2531530">
	<ele>1298.00</ele>
	<time>2025-04-30T08:39:03.000Z</time>
</trkpt>
<trkpt lat="45.8934860" lon="10.2531570">
	<ele>1297.80</ele>
	<time>2025-04-30T08:39:04.000Z</time>
</trkpt>
<trkpt lat="45.8934870" lon="10.2531600">
	<ele>1297.60</ele>
	<time>2025-04-30T08:39:05.000Z</time>
</trkpt>
<trkpt lat="45.8934980" lon="10.2531640">
	<ele>1297.40</ele>
	<time>2025-04-30T08:39:06.000Z</time>
</trkpt>
<trkpt lat="45.8935080" lon="10.2531720">
	<ele>1297.20</ele>
	<time>2025-04-30T08:39:07.000Z</time>
</trkpt>
<trkpt lat="45.8935190" lon="10.2531810">
	<ele>1297.00</ele>
	<time>2025-04-30T08:39:08.000Z</time>
</trkpt>
<trkpt lat="45.8935330" lon="10.2531890">
	<ele>1296.80</ele>
	<time>2025-04-30T08:39:09.000Z</time>
</trkpt>
<trkpt lat="45.8935420" lon="10.2532000">
	<ele>1296.40</ele>
	<time>2025-04-30T08:39:10.000Z</time>
</trkpt>
<trkpt lat="45.8935550" lon="10.2532100">
	<ele>1296.20</ele>
	<time>2025-04-30T08:39:11.000Z</time>
</trkpt>
<trkpt lat="45.8935650" lon="10.2532210">
	<ele>1296.20</ele>
	<time>2025-04-30T08:39:12.000Z</time>
</trkpt>
<trkpt lat="45.8935750" lon="10.2532340">
	<ele>1296.00</ele>
	<time>2025-04-30T08:39:13.000Z</time>
</trkpt>
<trkpt lat="45.8935870" lon="10.2532460">
	<ele>1295.80</ele>
	<time>2025-04-30T08:39:14.000Z</time>
</trkpt>
<trkpt lat="45.8935900" lon="10.2532620">
	<ele>1295.40</ele>
	<time>2025-04-30T08:39:15.000Z</time>
</trkpt>
<trkpt lat="45.8935980" lon="10.2532760">
	<ele>1295.00</ele>
	<time>2025-04-30T08:39:16.000Z</time>
</trkpt>
<trkpt lat="45.8936090" lon="10.2532890">
	<ele>1294.80</ele>
	<time>2025-04-30T08:39:17.000Z</time>
</trkpt>
<trkpt lat="45.8936280" lon="10.2532970">
	<ele>1294.80</ele>
	<time>2025-04-30T08:39:18.000Z</time>
</trkpt>
<trkpt lat="45.8936440" lon="10.2533010">
	<ele>1294.40</ele>
	<time>2025-04-30T08:39:19.000Z</time>
</trkpt>
<trkpt lat="45.8936660" lon="10.2533100">
	<ele>1294.40</ele>
	<time>2025-04-30T08:39:20.000Z</time>
</trkpt>
<trkpt lat="45.8936770" lon="10.2533160">
	<ele>1294.00</ele>
	<time>2025-04-30T08:39:21.000Z</time>
</trkpt>
<trkpt lat="45.8936860" lon="10.2533190">
	<ele>1293.60</ele>
	<time>2025-04-30T08:39:22.000Z</time>
</trkpt>
<trkpt lat="45.8936880" lon="10.2533260">
	<ele>1293.40</ele>
	<time>2025-04-30T08:39:23.000Z</time>
</trkpt>
<trkpt lat="45.8936910" lon="10.2533370">
	<ele>1293.00</ele>
	<time>2025-04-30T08:39:24.000Z</time>
</trkpt>
<trkpt lat="45.8936960" lon="10.2533510">
	<ele>1292.60</ele>
	<time>2025-04-30T08:39:25.000Z</time>
</trkpt>
<trkpt lat="45.8937030" lon="10.2533630">
	<ele>1292.20</ele>
	<time>2025-04-30T08:39:26.000Z</time>
</trkpt>
<trkpt lat="45.8937130" lon="10.2533730">
	<ele>1291.80</ele>
	<time>2025-04-30T08:39:27.000Z</time>
</trkpt>
<trkpt lat="45.8937170" lon="10.2533770">
	<ele>1291.60</ele>
	<time>2025-04-30T08:39:28.000Z</time>
</trkpt>
<trkpt lat="45.8937270" lon="10.2533830">
	<ele>1291.40</ele>
	<time>2025-04-30T08:39:29.000Z</time>
</trkpt>
<trkpt lat="45.8937410" lon="10.2533880">
	<ele>1291.20</ele>
	<time>2025-04-30T08:39:30.000Z</time>
</trkpt>
<trkpt lat="45.8937590" lon="10.2533950">
	<ele>1291.00</ele>
	<time>2025-04-30T08:39:31.000Z</time>
</trkpt>
<trkpt lat="45.8937830" lon="10.2534030">
	<ele>1290.60</ele>
	<time>2025-04-30T08:39:32.000Z</time>
</trkpt>
<trkpt lat="45.8937970" lon="10.2534090">
	<ele>1290.40</ele>
	<time>2025-04-30T08:39:33.000Z</time>
</trkpt>
<trkpt lat="45.8938120" lon="10.2534240">
	<ele>1290.00</ele>
	<time>2025-04-30T08:39:34.000Z</time>
</trkpt>
<trkpt lat="45.8938290" lon="10.2534300">
	<ele>1289.80</ele>
	<time>2025-04-30T08:39:35.000Z</time>
</trkpt>
<trkpt lat="45.8938330" lon="10.2534370">
	<ele>1289.40</ele>
	<time>2025-04-30T08:39:36.000Z</time>
</trkpt>
<trkpt lat="45.8938390" lon="10.2534530">
	<ele>1289.00</ele>
	<time>2025-04-30T08:39:37.000Z</time>
</trkpt>
<trkpt lat="45.8938450" lon="10.2534730">
	<ele>1288.80</ele>
	<time>2025-04-30T08:39:38.000Z</time>
</trkpt>
<trkpt lat="45.8938560" lon="10.2534850">
	<ele>1288.60</ele>
	<time>2025-04-30T08:39:39.000Z</time>
</trkpt>
<trkpt lat="45.8938620" lon="10.2534870">
	<ele>1288.20</ele>
	<time>2025-04-30T08:39:40.000Z</time>
</trkpt>
<trkpt lat="45.8938730" lon="10.2534860">
	<ele>1287.80</ele>
	<time>2025-04-30T08:39:41.000Z</time>
</trkpt>
<trkpt lat="45.8938940" lon="10.2534810">
	<ele>1287.60</ele>
	<time>2025-04-30T08:39:42.000Z</time>
</trkpt>
<trkpt lat="45.8939140" lon="10.2534820">
	<ele>1287.40</ele>
	<time>2025-04-30T08:39:43.000Z</time>
</trkpt>
<trkpt lat="45.8939290" lon="10.2534870">
	<ele>1287.20</ele>
	<time>2025-04-30T08:39:44.000Z</time>
</trkpt>
<trkpt lat="45.8939440" lon="10.2535000">
	<ele>1287.00</ele>
	<time>2025-04-30T08:39:45.000Z</time>
</trkpt>
<trkpt lat="45.8939540" lon="10.2535110">
	<ele>1286.60</ele>
	<time>2025-04-30T08:39:46.000Z</time>
</trkpt>
<trkpt lat="45.8939640" lon="10.2535210">
	<ele>1286.20</ele>
	<time>2025-04-30T08:39:47.000Z</time>
</trkpt>
<trkpt lat="45.8939780" lon="10.2535220">
	<ele>1286.00</ele>
	<time>2025-04-30T08:39:48.000Z</time>
</trkpt>
<trkpt lat="45.8939960" lon="10.2535200">
	<ele>1285.80</ele>
	<time>2025-04-30T08:39:49.000Z</time>
</trkpt>
<trkpt lat="45.8940220" lon="10.2535170">
	<ele>1285.60</ele>
	<time>2025-04-30T08:39:50.000Z</time>
</trkpt>
<trkpt lat="45.8940450" lon="10.2535180">
	<ele>1285.40</ele>
	<time>2025-04-30T08:39:51.000Z</time>
</trkpt>
<trkpt lat="45.8940580" lon="10.2535240">
	<ele>1285.20</ele>
	<time>2025-04-30T08:39:52.000Z</time>
</trkpt>
<trkpt lat="45.8940650" lon="10.2535270">
	<ele>1284.80</ele>
	<time>2025-04-30T08:39:53.000Z</time>
</trkpt>
<trkpt lat="45.8940740" lon="10.2535460">
	<ele>1284.60</ele>
	<time>2025-04-30T08:39:54.000Z</time>
</trkpt>
<trkpt lat="45.8940830" lon="10.2535590">
	<ele>1284.20</ele>
	<time>2025-04-30T08:39:55.000Z</time>
</trkpt>
<trkpt lat="45.8940820" lon="10.2535620">
	<ele>1283.80</ele>
	<time>2025-04-30T08:39:56.000Z</time>
</trkpt>
<trkpt lat="45.8941040" lon="10.2535590">
	<ele>1283.80</ele>
	<time>2025-04-30T08:39:57.000Z</time>
</trkpt>
<trkpt lat="45.8941030" lon="10.2535550">
	<ele>1283.60</ele>
	<time>2025-04-30T08:39:58.000Z</time>
</trkpt>
<trkpt lat="45.8941220" lon="10.2535250">
	<ele>1283.40</ele>
	<time>2025-04-30T08:39:59.000Z</time>
</trkpt>
<trkpt lat="45.8941490" lon="10.2535120">
	<ele>1283.20</ele>
	<time>2025-04-30T08:40:00.000Z</time>
</trkpt>
<trkpt lat="45.8941670" lon="10.2535000">
	<ele>1283.00</ele>
	<time>2025-04-30T08:40:01.000Z</time>
</trkpt>
<trkpt lat="45.8941710" lon="10.2534950">
	<ele>1283.00</ele>
	<time>2025-04-30T08:40:02.000Z</time>
</trkpt>
<trkpt lat="45.8941930" lon="10.2534970">
	<ele>1283.00</ele>
	<time>2025-04-30T08:40:03.000Z</time>
</trkpt>
<trkpt lat="45.8941960" lon="10.2534920">
	<ele>1282.80</ele>
	<time>2025-04-30T08:40:04.000Z</time>
</trkpt>
<trkpt lat="45.8942090" lon="10.2534820">
	<ele>1282.80</ele>
	<time>2025-04-30T08:40:05.000Z</time>
</trkpt>
<trkpt lat="45.8942070" lon="10.2534790">
	<ele>1282.80</ele>
	<time>2025-04-30T08:40:06.000Z</time>
</trkpt>
<trkpt lat="45.8942040" lon="10.2534780">
	<ele>1282.60</ele>
	<time>2025-04-30T08:40:07.000Z</time>
</trkpt>
<trkpt lat="45.8942040" lon="10.2534780">
	<ele>1282.40</ele>
	<time>2025-04-30T08:40:08.000Z</time>
</trkpt>
<trkpt lat="45.8942010" lon="10.2534790">
	<ele>1282.20</ele>
	<time>2025-04-30T08:40:09.000Z</time>
</trkpt>
<trkpt lat="45.8942010" lon="10.2534810">
	<ele>1282.20</ele>
	<time>2025-04-30T08:40:10.000Z</time>
</trkpt>
<trkpt lat="45.8942020" lon="10.2534830">
	<ele>1282.00</ele>
	<time>2025-04-30T08:40:11.000Z</time>
</trkpt>
<trkpt lat="45.8942130" lon="10.2534980">
	<ele>1282.00</ele>
	<time>2025-04-30T08:40:12.000Z</time>
</trkpt>
<trkpt lat="45.8942200" lon="10.2535120">
	<ele>1281.60</ele>
	<time>2025-04-30T08:40:13.000Z</time>
</trkpt>
<trkpt lat="45.8942200" lon="10.2535120">
	<ele>1281.60</ele>
	<time>2025-04-30T08:40:14.000Z</time>
</trkpt>
<trkpt lat="45.8942220" lon="10.2535090">
	<ele>1281.40</ele>
	<time>2025-04-30T08:40:15.000Z</time>
</trkpt>
<trkpt lat="45.8942220" lon="10.2535050">
	<ele>1281.40</ele>
	<time>2025-04-30T08:40:16.000Z</time>
</trkpt>
<trkpt lat="45.8942480" lon="10.2535130">
	<ele>1281.40</ele>
	<time>2025-04-30T08:40:17.000Z</time>
</trkpt>
<trkpt lat="45.8942650" lon="10.2535100">
	<ele>1281.40</ele>
	<time>2025-04-30T08:40:18.000Z</time>
</trkpt>
<trkpt lat="45.8942790" lon="10.2535080">
	<ele>1281.20</ele>
	<time>2025-04-30T08:40:19.000Z</time>
</trkpt>
<trkpt lat="45.8942920" lon="10.2535060">
	<ele>1281.20</ele>
	<time>2025-04-30T08:40:20.000Z</time>
</trkpt>
<trkpt lat="45.8943010" lon="10.2535080">
	<ele>1281.00</ele>
	<time>2025-04-30T08:40:21.000Z</time>
</trkpt>
<trkpt lat="45.8943090" lon="10.2535090">
	<ele>1280.80</ele>
	<time>2025-04-30T08:40:22.000Z</time>
</trkpt>
<trkpt lat="45.8943250" lon="10.2535100">
	<ele>1280.40</ele>
	<time>2025-04-30T08:40:23.000Z</time>
</trkpt>
<trkpt lat="45.8943310" lon="10.2535080">
	<ele>1280.20</ele>
	<time>2025-04-30T08:40:24.000Z</time>
</trkpt>
<trkpt lat="45.8943390" lon="10.2535060">
	<ele>1280.00</ele>
	<time>2025-04-30T08:40:25.000Z</time>
</trkpt>
<trkpt lat="45.8943520" lon="10.2534980">
	<ele>1279.80</ele>
	<time>2025-04-30T08:40:26.000Z</time>
</trkpt>
<trkpt lat="45.8943620" lon="10.2534900">
	<ele>1279.60</ele>
	<time>2025-04-30T08:40:27.000Z</time>
</trkpt>
<trkpt lat="45.8943770" lon="10.2534780">
	<ele>1279.40</ele>
	<time>2025-04-30T08:40:28.000Z</time>
</trkpt>
<trkpt lat="45.8943940" lon="10.2534750">
	<ele>1279.20</ele>
	<time>2025-04-30T08:40:29.000Z</time>
</trkpt>
<trkpt lat="45.8944110" lon="10.2534700">
	<ele>1279.00</ele>
	<time>2025-04-30T08:40:30.000Z</time>
</trkpt>
<trkpt lat="45.8944170" lon="10.2534650">
	<ele>1278.80</ele>
	<time>2025-04-30T08:40:31.000Z</time>
</trkpt>
<trkpt lat="45.8944180" lon="10.2534630">
	<ele>1278.60</ele>
	<time>2025-04-30T08:40:32.000Z</time>
</trkpt>
<trkpt lat="45.8944250" lon="10.2534570">
	<ele>1278.40</ele>
	<time>2025-04-30T08:40:33.000Z</time>
</trkpt>
<trkpt lat="45.8944290" lon="10.2534470">
	<ele>1278.40</ele>
	<time>2025-04-30T08:40:34.000Z</time>
</trkpt>
<trkpt lat="45.8944390" lon="10.2534360">
	<ele>1278.20</ele>
	<time>2025-04-30T08:40:35.000Z</time>
</trkpt>
<trkpt lat="45.8944480" lon="10.2534190">
	<ele>1278.20</ele>
	<time>2025-04-30T08:40:36.000Z</time>
</trkpt>
<trkpt lat="45.8944570" lon="10.2534060">
	<ele>1278.00</ele>
	<time>2025-04-30T08:40:37.000Z</time>
</trkpt>
<trkpt lat="45.8944610" lon="10.2533880">
	<ele>1278.00</ele>
	<time>2025-04-30T08:40:38.000Z</time>
</trkpt>
<trkpt lat="45.8944670" lon="10.2533770">
	<ele>1277.80</ele>
	<time>2025-04-30T08:40:39.000Z</time>
</trkpt>
<trkpt lat="45.8944810" lon="10.2533670">
	<ele>1277.80</ele>
	<time>2025-04-30T08:40:40.000Z</time>
</trkpt>
<trkpt lat="45.8945000" lon="10.2533530">
	<ele>1277.60</ele>
	<time>2025-04-30T08:40:41.000Z</time>
</trkpt>
<trkpt lat="45.8945190" lon="10.2533390">
	<ele>1277.60</ele>
	<time>2025-04-30T08:40:42.000Z</time>
</trkpt>
<trkpt lat="45.8945290" lon="10.2533370">
	<ele>1277.60</ele>
	<time>2025-04-30T08:40:43.000Z</time>
</trkpt>
<trkpt lat="45.8945480" lon="10.2533230">
	<ele>1277.40</ele>
	<time>2025-04-30T08:40:44.000Z</time>
</trkpt>
<trkpt lat="45.8945550" lon="10.2533220">
	<ele>1277.40</ele>
	<time>2025-04-30T08:40:45.000Z</time>
</trkpt>
<trkpt lat="45.8945630" lon="10.2533080">
	<ele>1277.20</ele>
	<time>2025-04-30T08:40:46.000Z</time>
</trkpt>
<trkpt lat="45.8945730" lon="10.2532940">
	<ele>1277.20</ele>
	<time>2025-04-30T08:40:47.000Z</time>
</trkpt>
<trkpt lat="45.8945820" lon="10.2532790">
	<ele>1277.00</ele>
	<time>2025-04-30T08:40:48.000Z</time>
</trkpt>
<trkpt lat="45.8945800" lon="10.2532590">
	<ele>1276.80</ele>
	<time>2025-04-30T08:40:49.000Z</time>
</trkpt>
<trkpt lat="45.8945870" lon="10.2532460">
	<ele>1276.80</ele>
	<time>2025-04-30T08:40:50.000Z</time>
</trkpt>
<trkpt lat="45.8945920" lon="10.2532370">
	<ele>1276.80</ele>
	<time>2025-04-30T08:40:51.000Z</time>
</trkpt>
<trkpt lat="45.8945940" lon="10.2532340">
	<ele>1276.60</ele>
	<time>2025-04-30T08:40:52.000Z</time>
</trkpt>
<trkpt lat="45.8945950" lon="10.2532310">
	<ele>1276.60</ele>
	<time>2025-04-30T08:40:53.000Z</time>
</trkpt>
<trkpt lat="45.8946060" lon="10.2532250">
	<ele>1276.60</ele>
	<time>2025-04-30T08:40:54.000Z</time>
</trkpt>
<trkpt lat="45.8946080" lon="10.2532160">
	<ele>1276.40</ele>
	<time>2025-04-30T08:40:55.000Z</time>
</trkpt>
<trkpt lat="45.8946090" lon="10.2532080">
	<ele>1276.40</ele>
	<time>2025-04-30T08:40:56.000Z</time>
</trkpt>
<trkpt lat="45.8946100" lon="10.2531950">
	<ele>1276.40</ele>
	<time>2025-04-30T08:40:57.000Z</time>
</trkpt>
<trkpt lat="45.8946100" lon="10.2531780">
	<ele>1276.20</ele>
	<time>2025-04-30T08:40:58.000Z</time>
</trkpt>
<trkpt lat="45.8946160" lon="10.2531620">
	<ele>1275.80</ele>
	<time>2025-04-30T08:40:59.000Z</time>
</trkpt>
<trkpt lat="45.8946240" lon="10.2531460">
	<ele>1275.80</ele>
	<time>2025-04-30T08:41:00.000Z</time>
</trkpt>
<trkpt lat="45.8946320" lon="10.2531260">
	<ele>1275.60</ele>
	<time>2025-04-30T08:41:01.000Z</time>
</trkpt>
<trkpt lat="45.8946400" lon="10.2531050">
	<ele>1275.60</ele>
	<time>2025-04-30T08:41:02.000Z</time>
</trkpt>
<trkpt lat="45.8946490" lon="10.2530900">
	<ele>1275.60</ele>
	<time>2025-04-30T08:41:03.000Z</time>
</trkpt>
<trkpt lat="45.8946550" lon="10.2530770">
	<ele>1275.60</ele>
	<time>2025-04-30T08:41:04.000Z</time>
</trkpt>
<trkpt lat="45.8946640" lon="10.2530620">
	<ele>1275.60</ele>
	<time>2025-04-30T08:41:05.000Z</time>
</trkpt>
<trkpt lat="45.8946720" lon="10.2530480">
	<ele>1275.60</ele>
	<time>2025-04-30T08:41:06.000Z</time>
</trkpt>
<trkpt lat="45.8946830" lon="10.2530380">
	<ele>1275.60</ele>
	<time>2025-04-30T08:41:07.000Z</time>
</trkpt>
<trkpt lat="45.8946830" lon="10.2530130">
	<ele>1275.40</ele>
	<time>2025-04-30T08:41:08.000Z</time>
</trkpt>
<trkpt lat="45.8946870" lon="10.2529920">
	<ele>1275.40</ele>
	<time>2025-04-30T08:41:09.000Z</time>
</trkpt>
<trkpt lat="45.8946820" lon="10.2529790">
	<ele>1275.40</ele>
	<time>2025-04-30T08:41:10.000Z</time>
</trkpt>
<trkpt lat="45.8946810" lon="10.2529620">
	<ele>1275.40</ele>
	<time>2025-04-30T08:41:11.000Z</time>
</trkpt>
<trkpt lat="45.8946640" lon="10.2529430">
	<ele>1275.20</ele>
	<time>2025-04-30T08:41:12.000Z</time>
</trkpt>
<trkpt lat="45.8946560" lon="10.2529280">
	<ele>1275.40</ele>
	<time>2025-04-30T08:41:13.000Z</time>
</trkpt>
<trkpt lat="45.8946500" lon="10.2529160">
	<ele>1275.20</ele>
	<time>2025-04-30T08:41:14.000Z</time>
</trkpt>
<trkpt lat="45.8946430" lon="10.2529080">
	<ele>1275.40</ele>
	<time>2025-04-30T08:41:15.000Z</time>
</trkpt>
<trkpt lat="45.8946350" lon="10.2529030">
	<ele>1275.20</ele>
	<time>2025-04-30T08:41:16.000Z</time>
</trkpt>
<trkpt lat="45.8946300" lon="10.2528950">
	<ele>1275.20</ele>
	<time>2025-04-30T08:41:17.000Z</time>
</trkpt>
<trkpt lat="45.8946230" lon="10.2528870">
	<ele>1275.20</ele>
	<time>2025-04-30T08:41:18.000Z</time>
</trkpt>
<trkpt lat="45.8946200" lon="10.2528960">
	<ele>1275.20</ele>
	<time>2025-04-30T08:41:19.000Z</time>
</trkpt>
<trkpt lat="45.8946160" lon="10.2528810">
	<ele>1275.40</ele>
	<time>2025-04-30T08:41:20.000Z</time>
</trkpt>
<trkpt lat="45.8946140" lon="10.2528600">
	<ele>1275.40</ele>
	<time>2025-04-30T08:41:21.000Z</time>
</trkpt>
<trkpt lat="45.8946180" lon="10.2528390">
	<ele>1275.20</ele>
	<time>2025-04-30T08:41:22.000Z</time>
</trkpt>
<trkpt lat="45.8946240" lon="10.2528240">
	<ele>1275.20</ele>
	<time>2025-04-30T08:41:23.000Z</time>
</trkpt>
<trkpt lat="45.8946260" lon="10.2528010">
	<ele>1275.20</ele>
	<time>2025-04-30T08:41:24.000Z</time>
</trkpt>
<trkpt lat="45.8946290" lon="10.2527860">
	<ele>1275.20</ele>
	<time>2025-04-30T08:41:25.000Z</time>
</trkpt>
<trkpt lat="45.8946330" lon="10.2527690">
	<ele>1275.20</ele>
	<time>2025-04-30T08:41:26.000Z</time>
</trkpt>
<trkpt lat="45.8946380" lon="10.2527580">
	<ele>1275.00</ele>
	<time>2025-04-30T08:41:27.000Z</time>
</trkpt>
<trkpt lat="45.8946400" lon="10.2527450">
	<ele>1275.00</ele>
	<time>2025-04-30T08:41:28.000Z</time>
</trkpt>
<trkpt lat="45.8946430" lon="10.2527250">
	<ele>1275.00</ele>
	<time>2025-04-30T08:41:29.000Z</time>
</trkpt>
<trkpt lat="45.8946490" lon="10.2527120">
	<ele>1274.80</ele>
	<time>2025-04-30T08:41:30.000Z</time>
</trkpt>
<trkpt lat="45.8946570" lon="10.2526980">
	<ele>1274.80</ele>
	<time>2025-04-30T08:41:31.000Z</time>
</trkpt>
<trkpt lat="45.8946730" lon="10.2526870">
	<ele>1274.80</ele>
	<time>2025-04-30T08:41:32.000Z</time>
</trkpt>
<trkpt lat="45.8946810" lon="10.2526790">
	<ele>1274.60</ele>
	<time>2025-04-30T08:41:33.000Z</time>
</trkpt>
<trkpt lat="45.8946850" lon="10.2526700">
	<ele>1274.60</ele>
	<time>2025-04-30T08:41:34.000Z</time>
</trkpt>
<trkpt lat="45.8946910" lon="10.2526650">
	<ele>1274.60</ele>
	<time>2025-04-30T08:41:35.000Z</time>
</trkpt>
<trkpt lat="45.8946960" lon="10.2526610">
	<ele>1274.60</ele>
	<time>2025-04-30T08:41:36.000Z</time>
</trkpt>
<trkpt lat="45.8947060" lon="10.2526600">
	<ele>1274.40</ele>
	<time>2025-04-30T08:41:37.000Z</time>
</trkpt>
<trkpt lat="45.8947130" lon="10.2526600">
	<ele>1274.40</ele>
	<time>2025-04-30T08:41:38.000Z</time>
</trkpt>
<trkpt lat="45.8947160" lon="10.2526610">
	<ele>1274.40</ele>
	<time>2025-04-30T08:41:39.000Z</time>
</trkpt>
<trkpt lat="45.8947150" lon="10.2526560">
	<ele>1274.40</ele>
	<time>2025-04-30T08:41:40.000Z</time>
</trkpt>
<trkpt lat="45.8947130" lon="10.2526550">
	<ele>1274.40</ele>
	<time>2025-04-30T08:41:41.000Z</time>
</trkpt>
<trkpt lat="45.8947120" lon="10.2526570">
	<ele>1274.20</ele>
	<time>2025-04-30T08:41:42.000Z</time>
</trkpt>
<trkpt lat="45.8947100" lon="10.2526590">
	<ele>1274.40</ele>
	<time>2025-04-30T08:41:43.000Z</time>
</trkpt>
<trkpt lat="45.8947080" lon="10.2526600">
	<ele>1274.40</ele>
	<time>2025-04-30T08:41:44.000Z</time>
</trkpt>
<trkpt lat="45.8947080" lon="10.2526600">
	<ele>1274.40</ele>
	<time>2025-04-30T08:41:45.000Z</time>
</trkpt>
<trkpt lat="45.8947090" lon="10.2526600">
	<ele>1274.40</ele>
	<time>2025-04-30T08:41:46.000Z</time>
</trkpt>
<trkpt lat="45.8947090" lon="10.2526600">
	<ele>1274.60</ele>
	<time>2025-04-30T08:41:47.000Z</time>
</trkpt>
<trkpt lat="45.8947080" lon="10.2526600">
	<ele>1274.60</ele>
	<time>2025-04-30T08:41:48.000Z</time>
</trkpt>
<trkpt lat="45.8947050" lon="10.2526600">
	<ele>1274.60</ele>
	<time>2025-04-30T08:41:49.000Z</time>
</trkpt>
<trkpt lat="45.8947040" lon="10.2526600">
	<ele>1274.60</ele>
	<time>2025-04-30T08:41:50.000Z</time>
</trkpt>
<trkpt lat="45.8947050" lon="10.2526610">
	<ele>1274.40</ele>
	<time>2025-04-30T08:41:51.000Z</time>
</trkpt>
<trkpt lat="45.8947120" lon="10.2526630">
	<ele>1274.40</ele>
	<time>2025-04-30T08:41:52.000Z</time>
</trkpt>
<trkpt lat="45.8947260" lon="10.2526600">
	<ele>1274.40</ele>
	<time>2025-04-30T08:41:53.000Z</time>
</trkpt>
<trkpt lat="45.8947400" lon="10.2526570">
	<ele>1274.20</ele>
	<time>2025-04-30T08:41:54.000Z</time>
</trkpt>
<trkpt lat="45.8947530" lon="10.2526590">
	<ele>1274.20</ele>
	<time>2025-04-30T08:41:55.000Z</time>
</trkpt>
<trkpt lat="45.8947740" lon="10.2526540">
	<ele>1274.00</ele>
	<time>2025-04-30T08:41:56.000Z</time>
</trkpt>
<trkpt lat="45.8947830" lon="10.2526510">
	<ele>1274.00</ele>
	<time>2025-04-30T08:41:57.000Z</time>
</trkpt>
<trkpt lat="45.8947880" lon="10.2526560">
	<ele>1274.00</ele>
	<time>2025-04-30T08:41:58.000Z</time>
</trkpt>
<trkpt lat="45.8947920" lon="10.2526600">
	<ele>1274.00</ele>
	<time>2025-04-30T08:41:59.000Z</time>
</trkpt>
<trkpt lat="45.8947970" lon="10.2526600">
	<ele>1274.00</ele>
	<time>2025-04-30T08:42:00.000Z</time>
</trkpt>
<trkpt lat="45.8948020" lon="10.2526560">
	<ele>1274.00</ele>
	<time>2025-04-30T08:42:01.000Z</time>
</trkpt>
<trkpt lat="45.8948030" lon="10.2526540">
	<ele>1274.00</ele>
	<time>2025-04-30T08:42:02.000Z</time>
</trkpt>
<trkpt lat="45.8948030" lon="10.2526520">
	<ele>1274.00</ele>
	<time>2025-04-30T08:42:03.000Z</time>
</trkpt>
<trkpt lat="45.8948010" lon="10.2526500">
	<ele>1274.00</ele>
	<time>2025-04-30T08:42:04.000Z</time>
</trkpt>
<trkpt lat="45.8948020" lon="10.2526500">
	<ele>1274.00</ele>
	<time>2025-04-30T08:42:05.000Z</time>
</trkpt>
<trkpt lat="45.8948000" lon="10.2526490">
	<ele>1274.00</ele>
	<time>2025-04-30T08:42:06.000Z</time>
</trkpt>
<trkpt lat="45.8947950" lon="10.2526540">
	<ele>1274.00</ele>
	<time>2025-04-30T08:42:07.000Z</time>
</trkpt>
<trkpt lat="45.8947840" lon="10.2526640">
	<ele>1274.00</ele>
	<time>2025-04-30T08:42:08.000Z</time>
</trkpt>
<trkpt lat="45.8947750" lon="10.2526750">
	<ele>1274.00</ele>
	<time>2025-04-30T08:42:09.000Z</time>
</trkpt>
<trkpt lat="45.8947620" lon="10.2526860">
	<ele>1274.00</ele>
	<time>2025-04-30T08:42:10.000Z</time>
</trkpt>
<trkpt lat="45.8947590" lon="10.2526950">
	<ele>1274.00</ele>
	<time>2025-04-30T08:42:11.000Z</time>
</trkpt>
<trkpt lat="45.8947580" lon="10.2527020">
	<ele>1274.00</ele>
	<time>2025-04-30T08:42:12.000Z</time>
</trkpt>
<trkpt lat="45.8947570" lon="10.2527100">
	<ele>1274.00</ele>
	<time>2025-04-30T08:42:13.000Z</time>
</trkpt>
<trkpt lat="45.8947550" lon="10.2527120">
	<ele>1274.00</ele>
	<time>2025-04-30T08:42:14.000Z</time>
</trkpt>
<trkpt lat="45.8947540" lon="10.2527100">
	<ele>1274.20</ele>
	<time>2025-04-30T08:42:15.000Z</time>
</trkpt>
<trkpt lat="45.8947550" lon="10.2527090">
	<ele>1274.20</ele>
	<time>2025-04-30T08:42:16.000Z</time>
</trkpt>
<trkpt lat="45.8947550" lon="10.2527090">
	<ele>1274.20</ele>
	<time>2025-04-30T08:42:17.000Z</time>
</trkpt>
<trkpt lat="45.8947550" lon="10.2527090">
	<ele>1274.20</ele>
	<time>2025-04-30T08:42:18.000Z</time>
</trkpt>
<trkpt lat="45.8947550" lon="10.2527090">
	<ele>1274.20</ele>
	<time>2025-04-30T08:42:19.000Z</time>
</trkpt>
<trkpt lat="45.8947550" lon="10.2527090">
	<ele>1274.20</ele>
	<time>2025-04-30T08:42:20.000Z</time>
</trkpt>
<trkpt lat="45.8947550" lon="10.2527090">
	<ele>1274.40</ele>
	<time>2025-04-30T08:42:21.000Z</time>
</trkpt>
<trkpt lat="45.8947550" lon="10.2527090">
	<ele>1274.20</ele>
	<time>2025-04-30T08:42:22.000Z</time>
</trkpt>
<trkpt lat="45.8947550" lon="10.2527090">
	<ele>1274.40</ele>
	<time>2025-04-30T08:42:23.000Z</time>
</trkpt>
<trkpt lat="45.8947550" lon="10.2527090">
	<ele>1274.40</ele>
	<time>2025-04-30T08:42:24.000Z</time>
</trkpt>
<trkpt lat="45.8947550" lon="10.2527090">
	<ele>1274.40</ele>
	<time>2025-04-30T08:42:25.000Z</time>
</trkpt>
<trkpt lat="45.8947550" lon="10.2527090">
	<ele>1274.40</ele>
	<time>2025-04-30T08:42:26.000Z</time>
</trkpt>
<trkpt lat="45.8947550" lon="10.2527090">
	<ele>1274.40</ele>
	<time>2025-04-30T08:42:27.000Z</time>
</trkpt>
<trkpt lat="45.8947550" lon="10.2527090">
	<ele>1274.40</ele>
	<time>2025-04-30T08:42:28.000Z</time>
</trkpt>
<trkpt lat="45.8947550" lon="10.2527090">
	<ele>1274.40</ele>
	<time>2025-04-30T08:42:29.000Z</time>
</trkpt>
<trkpt lat="45.8947550" lon="10.2527090">
	<ele>1274.40</ele>
	<time>2025-04-30T08:42:30.000Z</time>
</trkpt>
<trkpt lat="45.8947550" lon="10.2527090">
	<ele>1274.40</ele>
	<time>2025-04-30T08:42:31.000Z</time>
</trkpt>
<trkpt lat="45.8947560" lon="10.2527090">
	<ele>1274.40</ele>
	<time>2025-04-30T08:42:32.000Z</time>
</trkpt>
<trkpt lat="45.8947560" lon="10.2527090">
	<ele>1274.40</ele>
	<time>2025-04-30T08:42:33.000Z</time>
</trkpt>
<trkpt lat="45.8947570" lon="10.2527100">
	<ele>1274.40</ele>
	<time>2025-04-30T08:42:34.000Z</time>
</trkpt>
<trkpt lat="45.8947570" lon="10.2527100">
	<ele>1274.40</ele>
	<time>2025-04-30T08:42:35.000Z</time>
</trkpt>
<trkpt lat="45.8947580" lon="10.2527100">
	<ele>1274.60</ele>
	<time>2025-04-30T08:42:36.000Z</time>
</trkpt>
<trkpt lat="45.8947590" lon="10.2527100">
	<ele>1274.60</ele>
	<time>2025-04-30T08:42:37.000Z</time>
</trkpt>
<trkpt lat="45.8947590" lon="10.2527110">
	<ele>1274.60</ele>
	<time>2025-04-30T08:42:38.000Z</time>
</trkpt>
<trkpt lat="45.8947590" lon="10.2527110">
	<ele>1274.60</ele>
	<time>2025-04-30T08:42:39.000Z</time>
</trkpt>
<trkpt lat="45.8947590" lon="10.2527120">
	<ele>1274.60</ele>
	<time>2025-04-30T08:42:40.000Z</time>
</trkpt>
<trkpt lat="45.8947600" lon="10.2527120">
	<ele>1274.60</ele>
	<time>2025-04-30T08:42:41.000Z</time>
</trkpt>
<trkpt lat="45.8947610" lon="10.2527120">
	<ele>1274.60</ele>
	<time>2025-04-30T08:42:42.000Z</time>
</trkpt>
<trkpt lat="45.8947610" lon="10.2527160">
	<ele>1274.60</ele>
	<time>2025-04-30T08:42:43.000Z</time>
</trkpt>
<trkpt lat="45.8947630" lon="10.2527170">
	<ele>1274.40</ele>
	<time>2025-04-30T08:42:44.000Z</time>
</trkpt>
<trkpt lat="45.8947660" lon="10.2527170">
	<ele>1274.40</ele>
	<time>2025-04-30T08:42:45.000Z</time>
</trkpt>
<trkpt lat="45.8947660" lon="10.2527180">
	<ele>1274.40</ele>
	<time>2025-04-30T08:42:46.000Z</time>
</trkpt>
<trkpt lat="45.8947660" lon="10.2527190">
	<ele>1274.40</ele>
	<time>2025-04-30T08:42:47.000Z</time>
</trkpt>
<trkpt lat="45.8947660" lon="10.2527190">
	<ele>1274.40</ele>
	<time>2025-04-30T08:42:48.000Z</time>
</trkpt>
<trkpt lat="45.8947660" lon="10.2527190">
	<ele>1274.40</ele>
	<time>2025-04-30T08:42:49.000Z</time>
</trkpt>
<trkpt lat="45.8947640" lon="10.2527280">
	<ele>1274.60</ele>
	<time>2025-04-30T08:42:50.000Z</time>
</trkpt>
<trkpt lat="45.8947560" lon="10.2527440">
	<ele>1274.60</ele>
	<time>2025-04-30T08:42:51.000Z</time>
</trkpt>
<trkpt lat="45.8947350" lon="10.2527620">
	<ele>1274.60</ele>
	<time>2025-04-30T08:42:52.000Z</time>
</trkpt>
<trkpt lat="45.8947210" lon="10.2527800">
	<ele>1274.80</ele>
	<time>2025-04-30T08:42:53.000Z</time>
</trkpt>
<trkpt lat="45.8947140" lon="10.2527990">
	<ele>1274.80</ele>
	<time>2025-04-30T08:42:54.000Z</time>
</trkpt>
<trkpt lat="45.8947070" lon="10.2528170">
	<ele>1274.80</ele>
	<time>2025-04-30T08:42:55.000Z</time>
</trkpt>
<trkpt lat="45.8946940" lon="10.2528310">
	<ele>1274.80</ele>
	<time>2025-04-30T08:42:56.000Z</time>
</trkpt>
<trkpt lat="45.8946770" lon="10.2528470">
	<ele>1274.80</ele>
	<time>2025-04-30T08:42:57.000Z</time>
</trkpt>
<trkpt lat="45.8946630" lon="10.2528640">
	<ele>1274.80</ele>
	<time>2025-04-30T08:42:58.000Z</time>
</trkpt>
<trkpt lat="45.8946540" lon="10.2528850">
	<ele>1274.80</ele>
	<time>2025-04-30T08:42:59.000Z</time>
</trkpt>
<trkpt lat="45.8946480" lon="10.2528990">
	<ele>1274.80</ele>
	<time>2025-04-30T08:43:00.000Z</time>
</trkpt>
<trkpt lat="45.8946390" lon="10.2529070">
	<ele>1274.80</ele>
	<time>2025-04-30T08:43:01.000Z</time>
</trkpt>
<trkpt lat="45.8946280" lon="10.2529130">
	<ele>1274.80</ele>
	<time>2025-04-30T08:43:02.000Z</time>
</trkpt>
<trkpt lat="45.8946200" lon="10.2529170">
	<ele>1274.80</ele>
	<time>2025-04-30T08:43:03.000Z</time>
</trkpt>
<trkpt lat="45.8946110" lon="10.2529230">
	<ele>1274.80</ele>
	<time>2025-04-30T08:43:04.000Z</time>
</trkpt>
<trkpt lat="45.8946060" lon="10.2529290">
	<ele>1274.60</ele>
	<time>2025-04-30T08:43:05.000Z</time>
</trkpt>
<trkpt lat="45.8946060" lon="10.2529350">
	<ele>1274.60</ele>
	<time>2025-04-30T08:43:06.000Z</time>
</trkpt>
<trkpt lat="45.8946040" lon="10.2529340">
	<ele>1274.60</ele>
	<time>2025-04-30T08:43:07.000Z</time>
</trkpt>
<trkpt lat="45.8946030" lon="10.2529320">
	<ele>1274.60</ele>
	<time>2025-04-30T08:43:08.000Z</time>
</trkpt>
<trkpt lat="45.8946010" lon="10.2529300">
	<ele>1274.60</ele>
	<time>2025-04-30T08:43:09.000Z</time>
</trkpt>
<trkpt lat="45.8945980" lon="10.2529280">
	<ele>1274.60</ele>
	<time>2025-04-30T08:43:10.000Z</time>
</trkpt>
<trkpt lat="45.8945960" lon="10.2529270">
	<ele>1274.60</ele>
	<time>2025-04-30T08:43:11.000Z</time>
</trkpt>
<trkpt lat="45.8946020" lon="10.2529230">
	<ele>1274.60</ele>
	<time>2025-04-30T08:43:12.000Z</time>
</trkpt>
<trkpt lat="45.8946000" lon="10.2529230">
	<ele>1274.60</ele>
	<time>2025-04-30T08:43:13.000Z</time>
</trkpt>
<trkpt lat="45.8946000" lon="10.2529220">
	<ele>1274.60</ele>
	<time>2025-04-30T08:43:14.000Z</time>
</trkpt>
<trkpt lat="45.8945990" lon="10.2529230">
	<ele>1274.80</ele>
	<time>2025-04-30T08:43:15.000Z</time>
</trkpt>
<trkpt lat="45.8945970" lon="10.2529230">
	<ele>1274.80</ele>
	<time>2025-04-30T08:43:16.000Z</time>
</trkpt>
<trkpt lat="45.8945960" lon="10.2529230">
	<ele>1274.80</ele>
	<time>2025-04-30T08:43:17.000Z</time>
</trkpt>
<trkpt lat="45.8945960" lon="10.2529230">
	<ele>1274.80</ele>
	<time>2025-04-30T08:43:18.000Z</time>
</trkpt>
<trkpt lat="45.8945960" lon="10.2529230">
	<ele>1274.80</ele>
	<time>2025-04-30T08:43:19.000Z</time>
</trkpt>
<trkpt lat="45.8945960" lon="10.2529230">
	<ele>1274.80</ele>
	<time>2025-04-30T08:43:20.000Z</time>
</trkpt>
<trkpt lat="45.8945960" lon="10.2529230">
	<ele>1274.80</ele>
	<time>2025-04-30T08:43:21.000Z</time>
</trkpt>
<trkpt lat="45.8945960" lon="10.2529230">
	<ele>1274.60</ele>
	<time>2025-04-30T08:43:22.000Z</time>
</trkpt>
<trkpt lat="45.8945960" lon="10.2529230">
	<ele>1274.60</ele>
	<time>2025-04-30T08:43:23.000Z</time>
</trkpt>
<trkpt lat="45.8945960" lon="10.2529230">
	<ele>1274.60</ele>
	<time>2025-04-30T08:43:24.000Z</time>
</trkpt>
<trkpt lat="45.8945960" lon="10.2529230">
	<ele>1274.60</ele>
	<time>2025-04-30T08:43:25.000Z</time>
</trkpt>
<trkpt lat="45.8945960" lon="10.2529230">
	<ele>1274.60</ele>
	<time>2025-04-30T08:43:26.000Z</time>
</trkpt>
<trkpt lat="45.8945960" lon="10.2529230">
	<ele>1274.60</ele>
	<time>2025-04-30T08:43:27.000Z</time>
</trkpt>
<trkpt lat="45.8945960" lon="10.2529230">
	<ele>1274.60</ele>
	<time>2025-04-30T08:43:28.000Z</time>
</trkpt>
<trkpt lat="45.8945960" lon="10.2529230">
	<ele>1274.60</ele>
	<time>2025-04-30T08:43:29.000Z</time>
</trkpt>
<trkpt lat="45.8945960" lon="10.2529260">
	<ele>1274.80</ele>
	<time>2025-04-30T08:43:30.000Z</time>
</trkpt>
<trkpt lat="45.8945960" lon="10.2529270">
	<ele>1275.00</ele>
	<time>2025-04-30T08:43:31.000Z</time>
</trkpt>
<trkpt lat="45.8945960" lon="10.2529280">
	<ele>1275.20</ele>
	<time>2025-04-30T08:43:32.000Z</time>
</trkpt>
<trkpt lat="45.8945960" lon="10.2529290">
	<ele>1275.40</ele>
	<time>2025-04-30T08:43:33.000Z</time>
</trkpt>
<trkpt lat="45.8945960" lon="10.2529300">
	<ele>1275.40</ele>
	<time>2025-04-30T08:43:34.000Z</time>
</trkpt>
<trkpt lat="45.8945960" lon="10.2529300">
	<ele>1275.40</ele>
	<time>2025-04-30T08:43:35.000Z</time>
</trkpt>
<trkpt lat="45.8945960" lon="10.2529330">
	<ele>1275.20</ele>
	<time>2025-04-30T08:43:36.000Z</time>
</trkpt>
<trkpt lat="45.8945940" lon="10.2529370">
	<ele>1275.20</ele>
	<time>2025-04-30T08:43:37.000Z</time>
</trkpt>
<trkpt lat="45.8945940" lon="10.2529400">
	<ele>1275.20</ele>
	<time>2025-04-30T08:43:38.000Z</time>
</trkpt>
<trkpt lat="45.8945940" lon="10.2529410">
	<ele>1275.20</ele>
	<time>2025-04-30T08:43:39.000Z</time>
</trkpt>
<trkpt lat="45.8945940" lon="10.2529410">
	<ele>1275.20</ele>
	<time>2025-04-30T08:43:40.000Z</time>
</trkpt>
<trkpt lat="45.8945940" lon="10.2529410">
	<ele>1275.40</ele>
	<time>2025-04-30T08:43:41.000Z</time>
</trkpt>
<trkpt lat="45.8945940" lon="10.2529410">
	<ele>1275.40</ele>
	<time>2025-04-30T08:43:42.000Z</time>
</trkpt>
<trkpt lat="45.8945940" lon="10.2529410">
	<ele>1275.40</ele>
	<time>2025-04-30T08:43:43.000Z</time>
</trkpt>
<trkpt lat="45.8945940" lon="10.2529410">
	<ele>1275.40</ele>
	<time>2025-04-30T08:43:44.000Z</time>
</trkpt>
<trkpt lat="45.8945940" lon="10.2529410">
	<ele>1275.40</ele>
	<time>2025-04-30T08:43:45.000Z</time>
</trkpt>
<trkpt lat="45.8945940" lon="10.2529410">
	<ele>1275.40</ele>
	<time>2025-04-30T08:43:46.000Z</time>
</trkpt>
<trkpt lat="45.8945930" lon="10.2529410">
	<ele>1275.20</ele>
	<time>2025-04-30T08:43:47.000Z</time>
</trkpt>
<trkpt lat="45.8945930" lon="10.2529410">
	<ele>1275.00</ele>
	<time>2025-04-30T08:43:48.000Z</time>
</trkpt>
<trkpt lat="45.8945930" lon="10.2529410">
	<ele>1275.00</ele>
	<time>2025-04-30T08:43:49.000Z</time>
</trkpt>
<trkpt lat="45.8945930" lon="10.2529410">
	<ele>1274.80</ele>
	<time>2025-04-30T08:43:50.000Z</time>
</trkpt>
<trkpt lat="45.8945930" lon="10.2529410">
	<ele>1274.80</ele>
	<time>2025-04-30T08:43:51.000Z</time>
</trkpt>
<trkpt lat="45.8945930" lon="10.2529420">
	<ele>1274.80</ele>
	<time>2025-04-30T08:43:52.000Z</time>
</trkpt>
<trkpt lat="45.8945930" lon="10.2529420">
	<ele>1274.80</ele>
	<time>2025-04-30T08:43:53.000Z</time>
</trkpt>
<trkpt lat="45.8945930" lon="10.2529420">
	<ele>1274.80</ele>
	<time>2025-04-30T08:43:54.000Z</time>
</trkpt>
<trkpt lat="45.8945930" lon="10.2529430">
	<ele>1274.80</ele>
	<time>2025-04-30T08:43:55.000Z</time>
</trkpt>
<trkpt lat="45.8945930" lon="10.2529430">
	<ele>1274.80</ele>
	<time>2025-04-30T08:43:56.000Z</time>
</trkpt>
<trkpt lat="45.8945930" lon="10.2529410">
	<ele>1274.60</ele>
	<time>2025-04-30T08:43:57.000Z</time>
</trkpt>
<trkpt lat="45.8945930" lon="10.2529410">
	<ele>1274.80</ele>
	<time>2025-04-30T08:43:58.000Z</time>
</trkpt>
<trkpt lat="45.8945930" lon="10.2529400">
	<ele>1274.60</ele>
	<time>2025-04-30T08:43:59.000Z</time>
</trkpt>
<trkpt lat="45.8945930" lon="10.2529400">
	<ele>1274.60</ele>
	<time>2025-04-30T08:44:00.000Z</time>
</trkpt>
<trkpt lat="45.8945930" lon="10.2529400">
	<ele>1274.60</ele>
	<time>2025-04-30T08:44:01.000Z</time>
</trkpt>
<trkpt lat="45.8945920" lon="10.2529390">
	<ele>1274.80</ele>
	<time>2025-04-30T08:44:02.000Z</time>
</trkpt>
<trkpt lat="45.8945920" lon="10.2529390">
	<ele>1274.80</ele>
	<time>2025-04-30T08:44:03.000Z</time>
</trkpt>
<trkpt lat="45.8945910" lon="10.2529380">
	<ele>1274.80</ele>
	<time>2025-04-30T08:44:04.000Z</time>
</trkpt>
<trkpt lat="45.8945900" lon="10.2529380">
	<ele>1274.60</ele>
	<time>2025-04-30T08:44:05.000Z</time>
</trkpt>
<trkpt lat="45.8945890" lon="10.2529380">
	<ele>1274.60</ele>
	<time>2025-04-30T08:44:06.000Z</time>
</trkpt>
<trkpt lat="45.8945880" lon="10.2529380">
	<ele>1274.60</ele>
	<time>2025-04-30T08:44:07.000Z</time>
</trkpt>
<trkpt lat="45.8945880" lon="10.2529380">
	<ele>1274.60</ele>
	<time>2025-04-30T08:44:08.000Z</time>
</trkpt>
<trkpt lat="45.8945880" lon="10.2529370">
	<ele>1274.60</ele>
	<time>2025-04-30T08:44:09.000Z</time>
</trkpt>
<trkpt lat="45.8945880" lon="10.2529370">
	<ele>1274.60</ele>
	<time>2025-04-30T08:44:10.000Z</time>
</trkpt>
<trkpt lat="45.8945880" lon="10.2529370">
	<ele>1274.60</ele>
	<time>2025-04-30T08:44:11.000Z</time>
</trkpt>
<trkpt lat="45.8945880" lon="10.2529370">
	<ele>1274.40</ele>
	<time>2025-04-30T08:44:12.000Z</time>
</trkpt>
<trkpt lat="45.8945880" lon="10.2529370">
	<ele>1274.40</ele>
	<time>2025-04-30T08:44:13.000Z</time>
</trkpt>
<trkpt lat="45.8945880" lon="10.2529370">
	<ele>1274.40</ele>
	<time>2025-04-30T08:44:14.000Z</time>
</trkpt>
<trkpt lat="45.8945880" lon="10.2529370">
	<ele>1274.40</ele>
	<time>2025-04-30T08:44:15.000Z</time>
</trkpt>
<trkpt lat="45.8945880" lon="10.2529370">
	<ele>1274.40</ele>
	<time>2025-04-30T08:44:16.000Z</time>
</trkpt>
<trkpt lat="45.8945880" lon="10.2529370">
	<ele>1274.40</ele>
	<time>2025-04-30T08:44:17.000Z</time>
</trkpt>
<trkpt lat="45.8945900" lon="10.2529370">
	<ele>1274.40</ele>
	<time>2025-04-30T08:44:18.000Z</time>
</trkpt>
<trkpt lat="45.8945900" lon="10.2529380">
	<ele>1274.80</ele>
	<time>2025-04-30T08:44:19.000Z</time>
</trkpt>
<trkpt lat="45.8945860" lon="10.2529350">
	<ele>1274.80</ele>
	<time>2025-04-30T08:44:20.000Z</time>
</trkpt>
<trkpt lat="45.8945840" lon="10.2529370">
	<ele>1274.80</ele>
	<time>2025-04-30T08:44:21.000Z</time>
</trkpt>
<trkpt lat="45.8945840" lon="10.2529380">
	<ele>1274.80</ele>
	<time>2025-04-30T08:44:22.000Z</time>
</trkpt>
<trkpt lat="45.8945850" lon="10.2529430">
	<ele>1274.80</ele>
	<time>2025-04-30T08:44:23.000Z</time>
</trkpt>
<trkpt lat="45.8945850" lon="10.2529450">
	<ele>1274.80</ele>
	<time>2025-04-30T08:44:24.000Z</time>
</trkpt>
<trkpt lat="45.8945900" lon="10.2529350">
	<ele>1274.80</ele>
	<time>2025-04-30T08:44:25.000Z</time>
</trkpt>
<trkpt lat="45.8945860" lon="10.2529360">
	<ele>1274.80</ele>
	<time>2025-04-30T08:44:26.000Z</time>
</trkpt>
<trkpt lat="45.8945840" lon="10.2529380">
	<ele>1274.80</ele>
	<time>2025-04-30T08:44:27.000Z</time>
</trkpt>
<trkpt lat="45.8945830" lon="10.2529430">
	<ele>1274.80</ele>
	<time>2025-04-30T08:44:28.000Z</time>
</trkpt>
<trkpt lat="45.8945840" lon="10.2529560">
	<ele>1274.80</ele>
	<time>2025-04-30T08:44:29.000Z</time>
</trkpt>
<trkpt lat="45.8945830" lon="10.2529660">
	<ele>1274.80</ele>
	<time>2025-04-30T08:44:30.000Z</time>
</trkpt>
<trkpt lat="45.8945820" lon="10.2529680">
	<ele>1274.80</ele>
	<time>2025-04-30T08:44:31.000Z</time>
</trkpt>
<trkpt lat="45.8945810" lon="10.2529680">
	<ele>1274.80</ele>
	<time>2025-04-30T08:44:32.000Z</time>
</trkpt>
<trkpt lat="45.8945800" lon="10.2529670">
	<ele>1274.80</ele>
	<time>2025-04-30T08:44:33.000Z</time>
</trkpt>
<trkpt lat="45.8945800" lon="10.2529670">
	<ele>1274.80</ele>
	<time>2025-04-30T08:44:34.000Z</time>
</trkpt>
<trkpt lat="45.8945800" lon="10.2529670">
	<ele>1274.80</ele>
	<time>2025-04-30T08:44:35.000Z</time>
</trkpt>
<trkpt lat="45.8945800" lon="10.2529670">
	<ele>1274.80</ele>
	<time>2025-04-30T08:44:36.000Z</time>
</trkpt>
<trkpt lat="45.8945800" lon="10.2529670">
	<ele>1274.80</ele>
	<time>2025-04-30T08:44:37.000Z</time>
</trkpt>
<trkpt lat="45.8945800" lon="10.2529670">
	<ele>1274.80</ele>
	<time>2025-04-30T08:44:38.000Z</time>
</trkpt>
<trkpt lat="45.8945800" lon="10.2529670">
	<ele>1274.80</ele>
	<time>2025-04-30T08:44:39.000Z</time>
</trkpt>
<trkpt lat="45.8945800" lon="10.2529670">
	<ele>1274.80</ele>
	<time>2025-04-30T08:44:40.000Z</time>
</trkpt>
<trkpt lat="45.8945800" lon="10.2529670">
	<ele>1274.80</ele>
	<time>2025-04-30T08:44:41.000Z</time>
</trkpt>
<trkpt lat="45.8945800" lon="10.2529670">
	<ele>1274.80</ele>
	<time>2025-04-30T08:44:42.000Z</time>
</trkpt>
<trkpt lat="45.8945800" lon="10.2529670">
	<ele>1274.80</ele>
	<time>2025-04-30T08:44:43.000Z</time>
</trkpt>
<trkpt lat="45.8945800" lon="10.2529670">
	<ele>1274.80</ele>
	<time>2025-04-30T08:44:44.000Z</time>
</trkpt>
<trkpt lat="45.8945800" lon="10.2529670">
	<ele>1274.80</ele>
	<time>2025-04-30T08:44:45.000Z</time>
</trkpt>
<trkpt lat="45.8945800" lon="10.2529670">
	<ele>1274.80</ele>
	<time>2025-04-30T08:44:46.000Z</time>
</trkpt>
<trkpt lat="45.8945800" lon="10.2529670">
	<ele>1274.80</ele>
	<time>2025-04-30T08:44:47.000Z</time>
</trkpt>
<trkpt lat="45.8945800" lon="10.2529670">
	<ele>1274.80</ele>
	<time>2025-04-30T08:44:48.000Z</time>
</trkpt>
<trkpt lat="45.8945800" lon="10.2529670">
	<ele>1274.80</ele>
	<time>2025-04-30T08:44:49.000Z</time>
</trkpt>
<trkpt lat="45.8945800" lon="10.2529670">
	<ele>1274.80</ele>
	<time>2025-04-30T08:44:50.000Z</time>
</trkpt>
<trkpt lat="45.8945800" lon="10.2529670">
	<ele>1274.80</ele>
	<time>2025-04-30T08:44:51.000Z</time>
</trkpt>
<trkpt lat="45.8945800" lon="10.2529680">
	<ele>1274.80</ele>
	<time>2025-04-30T08:44:52.000Z</time>
</trkpt>
<trkpt lat="45.8945800" lon="10.2529680">
	<ele>1274.80</ele>
	<time>2025-04-30T08:44:53.000Z</time>
</trkpt>
<trkpt lat="45.8945800" lon="10.2529680">
	<ele>1274.80</ele>
	<time>2025-04-30T08:44:54.000Z</time>
</trkpt>
<trkpt lat="45.8945800" lon="10.2529680">
	<ele>1274.80</ele>
	<time>2025-04-30T08:44:55.000Z</time>
</trkpt>
<trkpt lat="45.8945800" lon="10.2529680">
	<ele>1274.80</ele>
	<time>2025-04-30T08:44:56.000Z</time>
</trkpt>
<trkpt lat="45.8945800" lon="10.2529700">
	<ele>1274.80</ele>
	<time>2025-04-30T08:44:57.000Z</time>
</trkpt>
<trkpt lat="45.8945800" lon="10.2529700">
	<ele>1274.80</ele>
	<time>2025-04-30T08:44:58.000Z</time>
</trkpt>
<trkpt lat="45.8945800" lon="10.2529710">
	<ele>1274.80</ele>
	<time>2025-04-30T08:44:59.000Z</time>
</trkpt>
<trkpt lat="45.8945800" lon="10.2529710">
	<ele>1274.80</ele>
	<time>2025-04-30T08:45:00.000Z</time>
</trkpt>
<trkpt lat="45.8945800" lon="10.2529720">
	<ele>1274.80</ele>
	<time>2025-04-30T08:45:01.000Z</time>
</trkpt>
<trkpt lat="45.8945800" lon="10.2529720">
	<ele>1274.80</ele>
	<time>2025-04-30T08:45:02.000Z</time>
</trkpt>
<trkpt lat="45.8945800" lon="10.2529720">
	<ele>1274.80</ele>
	<time>2025-04-30T08:45:03.000Z</time>
</trkpt>
<trkpt lat="45.8945800" lon="10.2529720">
	<ele>1274.80</ele>
	<time>2025-04-30T08:45:04.000Z</time>
</trkpt>
<trkpt lat="45.8945800" lon="10.2529720">
	<ele>1274.80</ele>
	<time>2025-04-30T08:45:05.000Z</time>
</trkpt>
<trkpt lat="45.8945800" lon="10.2529720">
	<ele>1274.80</ele>
	<time>2025-04-30T08:45:06.000Z</time>
</trkpt>
<trkpt lat="45.8945820" lon="10.2529720">
	<ele>1274.80</ele>
	<time>2025-04-30T08:45:07.000Z</time>
</trkpt>
<trkpt lat="45.8945820" lon="10.2529720">
	<ele>1274.80</ele>
	<time>2025-04-30T08:45:08.000Z</time>
</trkpt>
<trkpt lat="45.8945820" lon="10.2529720">
	<ele>1274.80</ele>
	<time>2025-04-30T08:45:09.000Z</time>
</trkpt>
<trkpt lat="45.8945820" lon="10.2529720">
	<ele>1274.80</ele>
	<time>2025-04-30T08:45:10.000Z</time>
</trkpt>
<trkpt lat="45.8945820" lon="10.2529720">
	<ele>1274.80</ele>
	<time>2025-04-30T08:45:11.000Z</time>
</trkpt>
<trkpt lat="45.8945830" lon="10.2529720">
	<ele>1274.80</ele>
	<time>2025-04-30T08:45:12.000Z</time>
</trkpt>
<trkpt lat="45.8945840" lon="10.2529720">
	<ele>1274.80</ele>
	<time>2025-04-30T08:45:13.000Z</time>
</trkpt>
<trkpt lat="45.8945840" lon="10.2529720">
	<ele>1274.80</ele>
	<time>2025-04-30T08:45:14.000Z</time>
</trkpt>
<trkpt lat="45.8945840" lon="10.2529710">
	<ele>1274.80</ele>
	<time>2025-04-30T08:45:15.000Z</time>
</trkpt>
<trkpt lat="45.8945840" lon="10.2529710">
	<ele>1274.80</ele>
	<time>2025-04-30T08:45:16.000Z</time>
</trkpt>
<trkpt lat="45.8945850" lon="10.2529700">
	<ele>1274.80</ele>
	<time>2025-04-30T08:45:17.000Z</time>
</trkpt>
<trkpt lat="45.8945850" lon="10.2529700">
	<ele>1274.80</ele>
	<time>2025-04-30T08:45:18.000Z</time>
</trkpt>
<trkpt lat="45.8945860" lon="10.2529700">
	<ele>1274.80</ele>
	<time>2025-04-30T08:45:19.000Z</time>
</trkpt>
<trkpt lat="45.8945860" lon="10.2529680">
	<ele>1274.80</ele>
	<time>2025-04-30T08:45:20.000Z</time>
</trkpt>
<trkpt lat="45.8945860" lon="10.2529680">
	<ele>1274.80</ele>
	<time>2025-04-30T08:45:21.000Z</time>
</trkpt>
<trkpt lat="45.8945860" lon="10.2529680">
	<ele>1274.80</ele>
	<time>2025-04-30T08:45:22.000Z</time>
</trkpt>
<trkpt lat="45.8945860" lon="10.2529670">
	<ele>1274.80</ele>
	<time>2025-04-30T08:45:23.000Z</time>
</trkpt>
<trkpt lat="45.8945860" lon="10.2529670">
	<ele>1274.80</ele>
	<time>2025-04-30T08:45:24.000Z</time>
</trkpt>
<trkpt lat="45.8945860" lon="10.2529670">
	<ele>1274.80</ele>
	<time>2025-04-30T08:45:25.000Z</time>
</trkpt>
<trkpt lat="45.8945860" lon="10.2529660">
	<ele>1274.80</ele>
	<time>2025-04-30T08:45:26.000Z</time>
</trkpt>
<trkpt lat="45.8945860" lon="10.2529650">
	<ele>1274.80</ele>
	<time>2025-04-30T08:45:27.000Z</time>
</trkpt>
<trkpt lat="45.8945860" lon="10.2529650">
	<ele>1274.80</ele>
	<time>2025-04-30T08:45:28.000Z</time>
</trkpt>
<trkpt lat="45.8945860" lon="10.2529650">
	<ele>1274.80</ele>
	<time>2025-04-30T08:45:29.000Z</time>
</trkpt>
<trkpt lat="45.8945850" lon="10.2529650">
	<ele>1274.80</ele>
	<time>2025-04-30T08:45:30.000Z</time>
</trkpt>
<trkpt lat="45.8945850" lon="10.2529640">
	<ele>1274.80</ele>
	<time>2025-04-30T08:45:31.000Z</time>
</trkpt>
<trkpt lat="45.8945850" lon="10.2529640">
	<ele>1274.80</ele>
	<time>2025-04-30T08:45:32.000Z</time>
</trkpt>
<trkpt lat="45.8945850" lon="10.2529630">
	<ele>1274.80</ele>
	<time>2025-04-30T08:45:33.000Z</time>
</trkpt>
<trkpt lat="45.8945860" lon="10.2529630">
	<ele>1274.80</ele>
	<time>2025-04-30T08:45:34.000Z</time>
</trkpt>
<trkpt lat="45.8945860" lon="10.2529630">
	<ele>1274.80</ele>
	<time>2025-04-30T08:45:35.000Z</time>
</trkpt>
<trkpt lat="45.8945860" lon="10.2529610">
	<ele>1274.80</ele>
	<time>2025-04-30T08:45:36.000Z</time>
</trkpt>
<trkpt lat="45.8945860" lon="10.2529580">
	<ele>1274.80</ele>
	<time>2025-04-30T08:45:37.000Z</time>
</trkpt>
<trkpt lat="45.8945860" lon="10.2529560">
	<ele>1274.80</ele>
	<time>2025-04-30T08:45:38.000Z</time>
</trkpt>
<trkpt lat="45.8945860" lon="10.2529520">
	<ele>1274.80</ele>
	<time>2025-04-30T08:45:39.000Z</time>
</trkpt>
<trkpt lat="45.8945870" lon="10.2529490">
	<ele>1274.80</ele>
	<time>2025-04-30T08:45:40.000Z</time>
</trkpt>
<trkpt lat="45.8945870" lon="10.2529470">
	<ele>1274.80</ele>
	<time>2025-04-30T08:45:41.000Z</time>
</trkpt>
<trkpt lat="45.8945880" lon="10.2529450">
	<ele>1274.80</ele>
	<time>2025-04-30T08:45:42.000Z</time>
</trkpt>
<trkpt lat="45.8945880" lon="10.2529450">
	<ele>1274.80</ele>
	<time>2025-04-30T08:45:43.000Z</time>
</trkpt>
<trkpt lat="45.8945880" lon="10.2529440">
	<ele>1274.80</ele>
	<time>2025-04-30T08:45:44.000Z</time>
</trkpt>
<trkpt lat="45.8945880" lon="10.2529430">
	<ele>1274.80</ele>
	<time>2025-04-30T08:45:45.000Z</time>
</trkpt>
<trkpt lat="45.8945880" lon="10.2529420">
	<ele>1274.80</ele>
	<time>2025-04-30T08:45:46.000Z</time>
</trkpt>
<trkpt lat="45.8945880" lon="10.2529420">
	<ele>1274.80</ele>
	<time>2025-04-30T08:45:47.000Z</time>
</trkpt>
<trkpt lat="45.8945880" lon="10.2529410">
	<ele>1274.80</ele>
	<time>2025-04-30T08:45:48.000Z</time>
</trkpt>
<trkpt lat="45.8945880" lon="10.2529410">
	<ele>1274.80</ele>
	<time>2025-04-30T08:45:49.000Z</time>
</trkpt>
<trkpt lat="45.8945880" lon="10.2529410">
	<ele>1274.80</ele>
	<time>2025-04-30T08:45:50.000Z</time>
</trkpt>
<trkpt lat="45.8945880" lon="10.2529410">
	<ele>1274.80</ele>
	<time>2025-04-30T08:45:51.000Z</time>
</trkpt>
<trkpt lat="45.8945880" lon="10.2529410">
	<ele>1274.80</ele>
	<time>2025-04-30T08:45:52.000Z</time>
</trkpt>
<trkpt lat="45.8945890" lon="10.2529410">
	<ele>1274.80</ele>
	<time>2025-04-30T08:45:53.000Z</time>
</trkpt>
<trkpt lat="45.8945940" lon="10.2529410">
	<ele>1274.80</ele>
	<time>2025-04-30T08:45:54.000Z</time>
</trkpt>
<trkpt lat="45.8946030" lon="10.2529430">
	<ele>1274.80</ele>
	<time>2025-04-30T08:45:55.000Z</time>
</trkpt>
<trkpt lat="45.8946110" lon="10.2529490">
	<ele>1274.80</ele>
	<time>2025-04-30T08:45:56.000Z</time>
</trkpt>
<trkpt lat="45.8946180" lon="10.2529540">
	<ele>1274.80</ele>
	<time>2025-04-30T08:45:57.000Z</time>
</trkpt>
<trkpt lat="45.8946230" lon="10.2529580">
	<ele>1274.80</ele>
	<time>2025-04-30T08:45:58.000Z</time>
</trkpt>
<trkpt lat="45.8946310" lon="10.2529590">
	<ele>1274.80</ele>
	<time>2025-04-30T08:45:59.000Z</time>
</trkpt>
<trkpt lat="45.8946360" lon="10.2529570">
	<ele>1274.80</ele>
	<time>2025-04-30T08:46:00.000Z</time>
</trkpt>
<trkpt lat="45.8946380" lon="10.2529580">
	<ele>1274.80</ele>
	<time>2025-04-30T08:46:01.000Z</time>
</trkpt>
<trkpt lat="45.8946400" lon="10.2529570">
	<ele>1274.80</ele>
	<time>2025-04-30T08:46:02.000Z</time>
</trkpt>
<trkpt lat="45.8946440" lon="10.2529560">
	<ele>1274.80</ele>
	<time>2025-04-30T08:46:03.000Z</time>
</trkpt>
<trkpt lat="45.8946440" lon="10.2529560">
	<ele>1274.80</ele>
	<time>2025-04-30T08:46:04.000Z</time>
</trkpt>
<trkpt lat="45.8946450" lon="10.2529560">
	<ele>1274.80</ele>
	<time>2025-04-30T08:46:05.000Z</time>
</trkpt>
<trkpt lat="45.8946430" lon="10.2529570">
	<ele>1274.80</ele>
	<time>2025-04-30T08:46:06.000Z</time>
</trkpt>
<trkpt lat="45.8946400" lon="10.2529540">
	<ele>1274.80</ele>
	<time>2025-04-30T08:46:07.000Z</time>
</trkpt>
<trkpt lat="45.8946390" lon="10.2529570">
	<ele>1274.80</ele>
	<time>2025-04-30T08:46:08.000Z</time>
</trkpt>
<trkpt lat="45.8946430" lon="10.2529560">
	<ele>1274.80</ele>
	<time>2025-04-30T08:46:09.000Z</time>
</trkpt>
<trkpt lat="45.8946450" lon="10.2529550">
	<ele>1274.80</ele>
	<time>2025-04-30T08:46:10.000Z</time>
</trkpt>
<trkpt lat="45.8946450" lon="10.2529570">
	<ele>1274.80</ele>
	<time>2025-04-30T08:46:11.000Z</time>
</trkpt>
<trkpt lat="45.8946440" lon="10.2529600">
	<ele>1274.80</ele>
	<time>2025-04-30T08:46:12.000Z</time>
</trkpt>
<trkpt lat="45.8946470" lon="10.2529560">
	<ele>1274.80</ele>
	<time>2025-04-30T08:46:13.000Z</time>
</trkpt>
<trkpt lat="45.8946490" lon="10.2529540">
	<ele>1274.80</ele>
	<time>2025-04-30T08:46:14.000Z</time>
</trkpt>
<trkpt lat="45.8946500" lon="10.2529530">
	<ele>1274.80</ele>
	<time>2025-04-30T08:46:15.000Z</time>
</trkpt>
<trkpt lat="45.8946530" lon="10.2529520">
	<ele>1274.80</ele>
	<time>2025-04-30T08:46:16.000Z</time>
</trkpt>
<trkpt lat="45.8946540" lon="10.2529540">
	<ele>1274.80</ele>
	<time>2025-04-30T08:46:17.000Z</time>
</trkpt>
<trkpt lat="45.8946480" lon="10.2529570">
	<ele>1274.80</ele>
	<time>2025-04-30T08:46:18.000Z</time>
</trkpt>
<trkpt lat="45.8946400" lon="10.2529590">
	<ele>1274.80</ele>
	<time>2025-04-30T08:46:19.000Z</time>
</trkpt>
<trkpt lat="45.8946370" lon="10.2529610">
	<ele>1274.80</ele>
	<time>2025-04-30T08:46:20.000Z</time>
</trkpt>
<trkpt lat="45.8946340" lon="10.2529600">
	<ele>1274.80</ele>
	<time>2025-04-30T08:46:21.000Z</time>
</trkpt>
<trkpt lat="45.8946320" lon="10.2529610">
	<ele>1274.80</ele>
	<time>2025-04-30T08:46:22.000Z</time>
</trkpt>
<trkpt lat="45.8946320" lon="10.2529600">
	<ele>1274.80</ele>
	<time>2025-04-30T08:46:23.000Z</time>
</trkpt>
<trkpt lat="45.8946320" lon="10.2529600">
	<ele>1274.80</ele>
	<time>2025-04-30T08:46:24.000Z</time>
</trkpt>
<trkpt lat="45.8946320" lon="10.2529600">
	<ele>1274.80</ele>
	<time>2025-04-30T08:46:25.000Z</time>
</trkpt>
<trkpt lat="45.8946320" lon="10.2529600">
	<ele>1274.80</ele>
	<time>2025-04-30T08:46:26.000Z</time>
</trkpt>
<trkpt lat="45.8946320" lon="10.2529600">
	<ele>1274.80</ele>
	<time>2025-04-30T08:46:27.000Z</time>
</trkpt>
<trkpt lat="45.8946320" lon="10.2529600">
	<ele>1274.80</ele>
	<time>2025-04-30T08:46:28.000Z</time>
</trkpt>
<trkpt lat="45.8946320" lon="10.2529600">
	<ele>1274.80</ele>
	<time>2025-04-30T08:46:29.000Z</time>
</trkpt>
<trkpt lat="45.8946320" lon="10.2529600">
	<ele>1274.80</ele>
	<time>2025-04-30T08:46:30.000Z</time>
</trkpt>
<trkpt lat="45.8946320" lon="10.2529600">
	<ele>1274.80</ele>
	<time>2025-04-30T08:46:31.000Z</time>
</trkpt>
<trkpt lat="45.8946320" lon="10.2529600">
	<ele>1274.80</ele>
	<time>2025-04-30T08:46:32.000Z</time>
</trkpt>
<trkpt lat="45.8946320" lon="10.2529600">
	<ele>1274.80</ele>
	<time>2025-04-30T08:46:33.000Z</time>
</trkpt>
<trkpt lat="45.8946320" lon="10.2529590">
	<ele>1274.80</ele>
	<time>2025-04-30T08:46:34.000Z</time>
</trkpt>
<trkpt lat="45.8946320" lon="10.2529580">
	<ele>1274.80</ele>
	<time>2025-04-30T08:46:35.000Z</time>
</trkpt>
<trkpt lat="45.8946320" lon="10.2529580">
	<ele>1274.80</ele>
	<time>2025-04-30T08:46:36.000Z</time>
</trkpt>
<trkpt lat="45.8946320" lon="10.2529570">
	<ele>1274.80</ele>
	<time>2025-04-30T08:46:37.000Z</time>
</trkpt>
<trkpt lat="45.8946320" lon="10.2529540">
	<ele>1274.80</ele>
	<time>2025-04-30T08:46:38.000Z</time>
</trkpt>
<trkpt lat="45.8946290" lon="10.2529530">
	<ele>1274.80</ele>
	<time>2025-04-30T08:46:39.000Z</time>
</trkpt>
<trkpt lat="45.8946290" lon="10.2529520">
	<ele>1274.80</ele>
	<time>2025-04-30T08:46:40.000Z</time>
</trkpt>
<trkpt lat="45.8946260" lon="10.2529500">
	<ele>1274.80</ele>
	<time>2025-04-30T08:46:41.000Z</time>
</trkpt>
<trkpt lat="45.8946260" lon="10.2529450">
	<ele>1274.80</ele>
	<time>2025-04-30T08:46:42.000Z</time>
</trkpt>
<trkpt lat="45.8946260" lon="10.2529430">
	<ele>1274.80</ele>
	<time>2025-04-30T08:46:43.000Z</time>
</trkpt>
<trkpt lat="45.8946260" lon="10.2529420">
	<ele>1274.80</ele>
	<time>2025-04-30T08:46:44.000Z</time>
</trkpt>
<trkpt lat="45.8946250" lon="10.2529410">
	<ele>1274.80</ele>
	<time>2025-04-30T08:46:45.000Z</time>
</trkpt>
<trkpt lat="45.8946240" lon="10.2529400">
	<ele>1274.80</ele>
	<time>2025-04-30T08:46:46.000Z</time>
</trkpt>
<trkpt lat="45.8946240" lon="10.2529400">
	<ele>1274.80</ele>
	<time>2025-04-30T08:46:47.000Z</time>
</trkpt>
<trkpt lat="45.8946240" lon="10.2529400">
	<ele>1274.80</ele>
	<time>2025-04-30T08:46:48.000Z</time>
</trkpt>
<trkpt lat="45.8946230" lon="10.2529400">
	<ele>1274.80</ele>
	<time>2025-04-30T08:46:49.000Z</time>
</trkpt>
<trkpt lat="45.8946230" lon="10.2529390">
	<ele>1274.80</ele>
	<time>2025-04-30T08:46:50.000Z</time>
</trkpt>
<trkpt lat="45.8946230" lon="10.2529390">
	<ele>1274.80</ele>
	<time>2025-04-30T08:46:51.000Z</time>
</trkpt>
<trkpt lat="45.8946230" lon="10.2529390">
	<ele>1274.80</ele>
	<time>2025-04-30T08:46:52.000Z</time>
</trkpt>
<trkpt lat="45.8946220" lon="10.2529390">
	<ele>1274.80</ele>
	<time>2025-04-30T08:46:53.000Z</time>
</trkpt>
<trkpt lat="45.8946220" lon="10.2529390">
	<ele>1274.80</ele>
	<time>2025-04-30T08:46:54.000Z</time>
</trkpt>
<trkpt lat="45.8946210" lon="10.2529380">
	<ele>1274.80</ele>
	<time>2025-04-30T08:46:55.000Z</time>
</trkpt>
<trkpt lat="45.8946190" lon="10.2529380">
	<ele>1274.80</ele>
	<time>2025-04-30T08:46:56.000Z</time>
</trkpt>
<trkpt lat="45.8946180" lon="10.2529380">
	<ele>1274.80</ele>
	<time>2025-04-30T08:46:57.000Z</time>
</trkpt>
<trkpt lat="45.8946170" lon="10.2529380">
	<ele>1274.80</ele>
	<time>2025-04-30T08:46:58.000Z</time>
</trkpt>
<trkpt lat="45.8946150" lon="10.2529380">
	<ele>1274.80</ele>
	<time>2025-04-30T08:46:59.000Z</time>
</trkpt>
<trkpt lat="45.8946140" lon="10.2529370">
	<ele>1274.80</ele>
	<time>2025-04-30T08:47:00.000Z</time>
</trkpt>
<trkpt lat="45.8946140" lon="10.2529370">
	<ele>1274.80</ele>
	<time>2025-04-30T08:47:01.000Z</time>
</trkpt>
<trkpt lat="45.8946130" lon="10.2529370">
	<ele>1274.80</ele>
	<time>2025-04-30T08:47:02.000Z</time>
</trkpt>
<trkpt lat="45.8946130" lon="10.2529370">
	<ele>1274.80</ele>
	<time>2025-04-30T08:47:03.000Z</time>
</trkpt>
<trkpt lat="45.8946130" lon="10.2529370">
	<ele>1274.80</ele>
	<time>2025-04-30T08:47:04.000Z</time>
</trkpt>
<trkpt lat="45.8946130" lon="10.2529370">
	<ele>1274.80</ele>
	<time>2025-04-30T08:47:05.000Z</time>
</trkpt>
<trkpt lat="45.8946120" lon="10.2529370">
	<ele>1274.80</ele>
	<time>2025-04-30T08:47:06.000Z</time>
</trkpt>
<trkpt lat="45.8946120" lon="10.2529370">
	<ele>1274.80</ele>
	<time>2025-04-30T08:47:07.000Z</time>
</trkpt>
<trkpt lat="45.8946110" lon="10.2529370">
	<ele>1274.80</ele>
	<time>2025-04-30T08:47:08.000Z</time>
</trkpt>
<trkpt lat="45.8946110" lon="10.2529370">
	<ele>1274.80</ele>
	<time>2025-04-30T08:47:09.000Z</time>
</trkpt>
<trkpt lat="45.8946110" lon="10.2529370">
	<ele>1274.80</ele>
	<time>2025-04-30T08:47:10.000Z</time>
</trkpt>
<trkpt lat="45.8946100" lon="10.2529370">
	<ele>1274.80</ele>
	<time>2025-04-30T08:47:11.000Z</time>
</trkpt>
<trkpt lat="45.8946100" lon="10.2529370">
	<ele>1274.80</ele>
	<time>2025-04-30T08:47:12.000Z</time>
</trkpt>
<trkpt lat="45.8946100" lon="10.2529370">
	<ele>1274.80</ele>
	<time>2025-04-30T08:47:13.000Z</time>
</trkpt>
<trkpt lat="45.8946100" lon="10.2529370">
	<ele>1274.80</ele>
	<time>2025-04-30T08:47:14.000Z</time>
</trkpt>
<trkpt lat="45.8946090" lon="10.2529370">
	<ele>1274.80</ele>
	<time>2025-04-30T08:47:15.000Z</time>
</trkpt>
<trkpt lat="45.8946090" lon="10.2529360">
	<ele>1274.80</ele>
	<time>2025-04-30T08:47:16.000Z</time>
</trkpt>
<trkpt lat="45.8946090" lon="10.2529350">
	<ele>1274.80</ele>
	<time>2025-04-30T08:47:17.000Z</time>
</trkpt>
<trkpt lat="45.8946090" lon="10.2529350">
	<ele>1274.80</ele>
	<time>2025-04-30T08:47:18.000Z</time>
</trkpt>
<trkpt lat="45.8946090" lon="10.2529350">
	<ele>1274.80</ele>
	<time>2025-04-30T08:47:19.000Z</time>
</trkpt>
<trkpt lat="45.8946090" lon="10.2529350">
	<ele>1274.80</ele>
	<time>2025-04-30T08:47:20.000Z</time>
</trkpt>
<trkpt lat="45.8946090" lon="10.2529340">
	<ele>1274.80</ele>
	<time>2025-04-30T08:47:21.000Z</time>
</trkpt>
<trkpt lat="45.8946090" lon="10.2529340">
	<ele>1274.80</ele>
	<time>2025-04-30T08:47:22.000Z</time>
</trkpt>
<trkpt lat="45.8946090" lon="10.2529340">
	<ele>1274.80</ele>
	<time>2025-04-30T08:47:23.000Z</time>
</trkpt>
<trkpt lat="45.8946090" lon="10.2529340">
	<ele>1274.80</ele>
	<time>2025-04-30T08:47:24.000Z</time>
</trkpt>
<trkpt lat="45.8946100" lon="10.2529330">
	<ele>1274.80</ele>
	<time>2025-04-30T08:47:25.000Z</time>
</trkpt>
<trkpt lat="45.8946100" lon="10.2529330">
	<ele>1274.80</ele>
	<time>2025-04-30T08:47:26.000Z</time>
</trkpt>
<trkpt lat="45.8946100" lon="10.2529320">
	<ele>1274.80</ele>
	<time>2025-04-30T08:47:27.000Z</time>
</trkpt>
<trkpt lat="45.8946100" lon="10.2529310">
	<ele>1274.80</ele>
	<time>2025-04-30T08:47:28.000Z</time>
</trkpt>
<trkpt lat="45.8946100" lon="10.2529300">
	<ele>1274.80</ele>
	<time>2025-04-30T08:47:29.000Z</time>
</trkpt>
<trkpt lat="45.8946100" lon="10.2529290">
	<ele>1274.80</ele>
	<time>2025-04-30T08:47:30.000Z</time>
</trkpt>
<trkpt lat="45.8946110" lon="10.2529230">
	<ele>1274.80</ele>
	<time>2025-04-30T08:47:31.000Z</time>
</trkpt>
<trkpt lat="45.8946110" lon="10.2529200">
	<ele>1274.80</ele>
	<time>2025-04-30T08:47:32.000Z</time>
</trkpt>
<trkpt lat="45.8946110" lon="10.2529190">
	<ele>1274.80</ele>
	<time>2025-04-30T08:47:33.000Z</time>
</trkpt>
<trkpt lat="45.8946110" lon="10.2529180">
	<ele>1274.80</ele>
	<time>2025-04-30T08:47:34.000Z</time>
</trkpt>
<trkpt lat="45.8946110" lon="10.2529170">
	<ele>1274.80</ele>
	<time>2025-04-30T08:47:35.000Z</time>
</trkpt>
<trkpt lat="45.8946120" lon="10.2529170">
	<ele>1274.80</ele>
	<time>2025-04-30T08:47:36.000Z</time>
</trkpt>
<trkpt lat="45.8946120" lon="10.2529150">
	<ele>1274.80</ele>
	<time>2025-04-30T08:47:37.000Z</time>
</trkpt>
<trkpt lat="45.8946120" lon="10.2529150">
	<ele>1274.80</ele>
	<time>2025-04-30T08:47:38.000Z</time>
</trkpt>
<trkpt lat="45.8946120" lon="10.2529130">
	<ele>1274.80</ele>
	<time>2025-04-30T08:47:39.000Z</time>
</trkpt>
<trkpt lat="45.8946120" lon="10.2529130">
	<ele>1274.80</ele>
	<time>2025-04-30T08:47:40.000Z</time>
</trkpt>
<trkpt lat="45.8946120" lon="10.2529120">
	<ele>1274.80</ele>
	<time>2025-04-30T08:47:41.000Z</time>
</trkpt>
<trkpt lat="45.8946120" lon="10.2529110">
	<ele>1274.80</ele>
	<time>2025-04-30T08:47:42.000Z</time>
</trkpt>
<trkpt lat="45.8946120" lon="10.2529110">
	<ele>1274.80</ele>
	<time>2025-04-30T08:47:43.000Z</time>
</trkpt>
<trkpt lat="45.8946120" lon="10.2529100">
	<ele>1274.80</ele>
	<time>2025-04-30T08:47:44.000Z</time>
</trkpt>
<trkpt lat="45.8946120" lon="10.2529100">
	<ele>1274.80</ele>
	<time>2025-04-30T08:47:45.000Z</time>
</trkpt>
<trkpt lat="45.8946120" lon="10.2529090">
	<ele>1274.80</ele>
	<time>2025-04-30T08:47:46.000Z</time>
</trkpt>
<trkpt lat="45.8946120" lon="10.2529090">
	<ele>1274.80</ele>
	<time>2025-04-30T08:47:47.000Z</time>
</trkpt>
<trkpt lat="45.8946120" lon="10.2529090">
	<ele>1274.80</ele>
	<time>2025-04-30T08:47:48.000Z</time>
</trkpt>
<trkpt lat="45.8946120" lon="10.2529080">
	<ele>1274.80</ele>
	<time>2025-04-30T08:47:49.000Z</time>
</trkpt>
<trkpt lat="45.8946120" lon="10.2529080">
	<ele>1274.80</ele>
	<time>2025-04-30T08:47:50.000Z</time>
</trkpt>
<trkpt lat="45.8946120" lon="10.2529070">
	<ele>1274.80</ele>
	<time>2025-04-30T08:47:51.000Z</time>
</trkpt>
<trkpt lat="45.8946120" lon="10.2529070">
	<ele>1274.80</ele>
	<time>2025-04-30T08:47:52.000Z</time>
</trkpt>
<trkpt lat="45.8946120" lon="10.2529070">
	<ele>1274.80</ele>
	<time>2025-04-30T08:47:53.000Z</time>
</trkpt>
<trkpt lat="45.8946120" lon="10.2529070">
	<ele>1274.80</ele>
	<time>2025-04-30T08:47:54.000Z</time>
</trkpt>
<trkpt lat="45.8946120" lon="10.2529070">
	<ele>1274.80</ele>
	<time>2025-04-30T08:47:55.000Z</time>
</trkpt>
<trkpt lat="45.8946120" lon="10.2529060">
	<ele>1274.80</ele>
	<time>2025-04-30T08:47:56.000Z</time>
</trkpt>
<trkpt lat="45.8946110" lon="10.2529060">
	<ele>1274.80</ele>
	<time>2025-04-30T08:47:57.000Z</time>
</trkpt>
<trkpt lat="45.8946110" lon="10.2529060">
	<ele>1274.80</ele>
	<time>2025-04-30T08:47:58.000Z</time>
</trkpt>
<trkpt lat="45.8946110" lon="10.2529060">
	<ele>1274.80</ele>
	<time>2025-04-30T08:47:59.000Z</time>
</trkpt>
<trkpt lat="45.8946100" lon="10.2529060">
	<ele>1274.80</ele>
	<time>2025-04-30T08:48:00.000Z</time>
</trkpt>
<trkpt lat="45.8946080" lon="10.2529060">
	<ele>1274.80</ele>
	<time>2025-04-30T08:48:01.000Z</time>
</trkpt>
<trkpt lat="45.8946070" lon="10.2529060">
	<ele>1274.80</ele>
	<time>2025-04-30T08:48:02.000Z</time>
</trkpt>
<trkpt lat="45.8946050" lon="10.2529060">
	<ele>1274.80</ele>
	<time>2025-04-30T08:48:03.000Z</time>
</trkpt>
<trkpt lat="45.8946040" lon="10.2529060">
	<ele>1274.80</ele>
	<time>2025-04-30T08:48:04.000Z</time>
</trkpt>
<trkpt lat="45.8946030" lon="10.2529060">
	<ele>1274.80</ele>
	<time>2025-04-30T08:48:05.000Z</time>
</trkpt>
<trkpt lat="45.8946030" lon="10.2529060">
	<ele>1274.80</ele>
	<time>2025-04-30T08:48:06.000Z</time>
</trkpt>
<trkpt lat="45.8946020" lon="10.2529060">
	<ele>1274.80</ele>
	<time>2025-04-30T08:48:07.000Z</time>
</trkpt>
<trkpt lat="45.8946010" lon="10.2529060">
	<ele>1274.80</ele>
	<time>2025-04-30T08:48:08.000Z</time>
</trkpt>
<trkpt lat="45.8946000" lon="10.2529060">
	<ele>1274.80</ele>
	<time>2025-04-30T08:48:09.000Z</time>
</trkpt>
<trkpt lat="45.8945990" lon="10.2529060">
	<ele>1274.80</ele>
	<time>2025-04-30T08:48:10.000Z</time>
</trkpt>
<trkpt lat="45.8945990" lon="10.2529060">
	<ele>1274.80</ele>
	<time>2025-04-30T08:48:11.000Z</time>
</trkpt>
<trkpt lat="45.8945980" lon="10.2529070">
	<ele>1274.80</ele>
	<time>2025-04-30T08:48:12.000Z</time>
</trkpt>
<trkpt lat="45.8945970" lon="10.2529070">
	<ele>1274.80</ele>
	<time>2025-04-30T08:48:13.000Z</time>
</trkpt>
<trkpt lat="45.8945950" lon="10.2529070">
	<ele>1274.80</ele>
	<time>2025-04-30T08:48:14.000Z</time>
</trkpt>
<trkpt lat="45.8945930" lon="10.2529080">
	<ele>1274.80</ele>
	<time>2025-04-30T08:48:15.000Z</time>
</trkpt>
<trkpt lat="45.8945910" lon="10.2529080">
	<ele>1274.80</ele>
	<time>2025-04-30T08:48:16.000Z</time>
</trkpt>
<trkpt lat="45.8945910" lon="10.2529080">
	<ele>1274.80</ele>
	<time>2025-04-30T08:48:17.000Z</time>
</trkpt>
<trkpt lat="45.8945890" lon="10.2529080">
	<ele>1274.80</ele>
	<time>2025-04-30T08:48:18.000Z</time>
</trkpt>
<trkpt lat="45.8945880" lon="10.2529080">
	<ele>1274.80</ele>
	<time>2025-04-30T08:48:19.000Z</time>
</trkpt>
<trkpt lat="45.8945860" lon="10.2529070">
	<ele>1274.80</ele>
	<time>2025-04-30T08:48:20.000Z</time>
</trkpt>
<trkpt lat="45.8945850" lon="10.2529070">
	<ele>1274.80</ele>
	<time>2025-04-30T08:48:21.000Z</time>
</trkpt>
<trkpt lat="45.8945840" lon="10.2529070">
	<ele>1274.80</ele>
	<time>2025-04-30T08:48:22.000Z</time>
</trkpt>
<trkpt lat="45.8945830" lon="10.2529060">
	<ele>1274.80</ele>
	<time>2025-04-30T08:48:23.000Z</time>
</trkpt>
<trkpt lat="45.8945830" lon="10.2529060">
	<ele>1274.80</ele>
	<time>2025-04-30T08:48:24.000Z</time>
</trkpt>
<trkpt lat="45.8945810" lon="10.2529060">
	<ele>1274.80</ele>
	<time>2025-04-30T08:48:25.000Z</time>
</trkpt>
<trkpt lat="45.8945800" lon="10.2529060">
	<ele>1274.80</ele>
	<time>2025-04-30T08:48:26.000Z</time>
</trkpt>
<trkpt lat="45.8945790" lon="10.2529060">
	<ele>1274.80</ele>
	<time>2025-04-30T08:48:27.000Z</time>
</trkpt>
<trkpt lat="45.8945790" lon="10.2529060">
	<ele>1274.80</ele>
	<time>2025-04-30T08:48:28.000Z</time>
</trkpt>
<trkpt lat="45.8945780" lon="10.2529060">
	<ele>1274.80</ele>
	<time>2025-04-30T08:48:29.000Z</time>
</trkpt>
<trkpt lat="45.8945780" lon="10.2529060">
	<ele>1274.80</ele>
	<time>2025-04-30T08:48:30.000Z</time>
</trkpt>
<trkpt lat="45.8945770" lon="10.2529040">
	<ele>1274.80</ele>
	<time>2025-04-30T08:48:31.000Z</time>
</trkpt>
<trkpt lat="45.8945770" lon="10.2529030">
	<ele>1274.80</ele>
	<time>2025-04-30T08:48:32.000Z</time>
</trkpt>
<trkpt lat="45.8945770" lon="10.2529020">
	<ele>1274.80</ele>
	<time>2025-04-30T08:48:33.000Z</time>
</trkpt>
<trkpt lat="45.8945760" lon="10.2529020">
	<ele>1274.80</ele>
	<time>2025-04-30T08:48:34.000Z</time>
</trkpt>
<trkpt lat="45.8945760" lon="10.2529010">
	<ele>1274.80</ele>
	<time>2025-04-30T08:48:35.000Z</time>
</trkpt>
<trkpt lat="45.8945760" lon="10.2529010">
	<ele>1274.80</ele>
	<time>2025-04-30T08:48:36.000Z</time>
</trkpt>
<trkpt lat="45.8945760" lon="10.2529000">
	<ele>1274.80</ele>
	<time>2025-04-30T08:48:37.000Z</time>
</trkpt>
<trkpt lat="45.8945760" lon="10.2528990">
	<ele>1274.80</ele>
	<time>2025-04-30T08:48:38.000Z</time>
</trkpt>
<trkpt lat="45.8945760" lon="10.2528980">
	<ele>1274.80</ele>
	<time>2025-04-30T08:48:39.000Z</time>
</trkpt>
<trkpt lat="45.8945760" lon="10.2528970">
	<ele>1274.80</ele>
	<time>2025-04-30T08:48:40.000Z</time>
</trkpt>
<trkpt lat="45.8945750" lon="10.2528960">
	<ele>1274.80</ele>
	<time>2025-04-30T08:48:41.000Z</time>
</trkpt>
<trkpt lat="45.8945750" lon="10.2528940">
	<ele>1274.80</ele>
	<time>2025-04-30T08:48:42.000Z</time>
</trkpt>
<trkpt lat="45.8945750" lon="10.2528920">
	<ele>1274.80</ele>
	<time>2025-04-30T08:48:43.000Z</time>
</trkpt>
<trkpt lat="45.8945750" lon="10.2528900">
	<ele>1274.80</ele>
	<time>2025-04-30T08:48:44.000Z</time>
</trkpt>
<trkpt lat="45.8945750" lon="10.2528880">
	<ele>1274.80</ele>
	<time>2025-04-30T08:48:45.000Z</time>
</trkpt>
<trkpt lat="45.8945750" lon="10.2528860">
	<ele>1274.80</ele>
	<time>2025-04-30T08:48:46.000Z</time>
</trkpt>
<trkpt lat="45.8945750" lon="10.2528830">
	<ele>1274.80</ele>
	<time>2025-04-30T08:48:47.000Z</time>
</trkpt>
<trkpt lat="45.8945750" lon="10.2528800">
	<ele>1274.80</ele>
	<time>2025-04-30T08:48:48.000Z</time>
</trkpt>
<trkpt lat="45.8945750" lon="10.2528740">
	<ele>1274.80</ele>
	<time>2025-04-30T08:48:49.000Z</time>
</trkpt>
<trkpt lat="45.8945750" lon="10.2528680">
	<ele>1274.80</ele>
	<time>2025-04-30T08:48:50.000Z</time>
</trkpt>
<trkpt lat="45.8945750" lon="10.2528630">
	<ele>1274.80</ele>
	<time>2025-04-30T08:48:51.000Z</time>
</trkpt>
<trkpt lat="45.8945740" lon="10.2528600">
	<ele>1274.80</ele>
	<time>2025-04-30T08:48:52.000Z</time>
</trkpt>
<trkpt lat="45.8945730" lon="10.2528570">
	<ele>1274.80</ele>
	<time>2025-04-30T08:48:53.000Z</time>
</trkpt>
<trkpt lat="45.8945700" lon="10.2528550">
	<ele>1274.80</ele>
	<time>2025-04-30T08:48:54.000Z</time>
</trkpt>
<trkpt lat="45.8945650" lon="10.2528540">
	<ele>1274.80</ele>
	<time>2025-04-30T08:48:55.000Z</time>
</trkpt>
<trkpt lat="45.8945610" lon="10.2528530">
	<ele>1274.80</ele>
	<time>2025-04-30T08:48:56.000Z</time>
</trkpt>
<trkpt lat="45.8945570" lon="10.2528520">
	<ele>1274.80</ele>
	<time>2025-04-30T08:48:57.000Z</time>
</trkpt>
<trkpt lat="45.8945550" lon="10.2528510">
	<ele>1274.80</ele>
	<time>2025-04-30T08:48:58.000Z</time>
</trkpt>
<trkpt lat="45.8945520" lon="10.2528510">
	<ele>1274.80</ele>
	<time>2025-04-30T08:48:59.000Z</time>
</trkpt>
<trkpt lat="45.8945510" lon="10.2528520">
	<ele>1274.80</ele>
	<time>2025-04-30T08:49:00.000Z</time>
</trkpt>
<trkpt lat="45.8945620" lon="10.2528470">
	<ele>1274.80</ele>
	<time>2025-04-30T08:49:01.000Z</time>
</trkpt>
<trkpt lat="45.8945660" lon="10.2528480">
	<ele>1274.80</ele>
	<time>2025-04-30T08:49:02.000Z</time>
</trkpt>
<trkpt lat="45.8945950" lon="10.2528260">
	<ele>1274.80</ele>
	<time>2025-04-30T08:49:03.000Z</time>
</trkpt>
<trkpt lat="45.8946110" lon="10.2528210">
	<ele>1274.80</ele>
	<time>2025-04-30T08:49:04.000Z</time>
</trkpt>
<trkpt lat="45.8946320" lon="10.2528240">
	<ele>1274.80</ele>
	<time>2025-04-30T08:49:05.000Z</time>
</trkpt>
<trkpt lat="45.8946490" lon="10.2528310">
	<ele>1274.80</ele>
	<time>2025-04-30T08:49:06.000Z</time>
</trkpt>
<trkpt lat="45.8946680" lon="10.2528370">
	<ele>1274.80</ele>
	<time>2025-04-30T08:49:07.000Z</time>
</trkpt>
<trkpt lat="45.8946840" lon="10.2528510">
	<ele>1274.80</ele>
	<time>2025-04-30T08:49:08.000Z</time>
</trkpt>
<trkpt lat="45.8946860" lon="10.2528770">
	<ele>1274.80</ele>
	<time>2025-04-30T08:49:09.000Z</time>
</trkpt>
<trkpt lat="45.8946470" lon="10.2529260">
	<ele>1274.80</ele>
	<time>2025-04-30T08:49:10.000Z</time>
</trkpt>
<trkpt lat="45.8946480" lon="10.2529440">
	<ele>1274.80</ele>
	<time>2025-04-30T08:49:11.000Z</time>
</trkpt>
<trkpt lat="45.8946370" lon="10.2529510">
	<ele>1274.80</ele>
	<time>2025-04-30T08:49:12.000Z</time>
</trkpt>
<trkpt lat="45.8946300" lon="10.2529510">
	<ele>1274.80</ele>
	<time>2025-04-30T08:49:13.000Z</time>
</trkpt>
<trkpt lat="45.8946240" lon="10.2529380">
	<ele>1274.80</ele>
	<time>2025-04-30T08:49:14.000Z</time>
</trkpt>
<trkpt lat="45.8946220" lon="10.2529330">
	<ele>1274.80</ele>
	<time>2025-04-30T08:49:15.000Z</time>
</trkpt>
<trkpt lat="45.8946150" lon="10.2529260">
	<ele>1274.80</ele>
	<time>2025-04-30T08:49:16.000Z</time>
</trkpt>
<trkpt lat="45.8946100" lon="10.2529200">
	<ele>1274.80</ele>
	<time>2025-04-30T08:49:17.000Z</time>
</trkpt>
<trkpt lat="45.8946070" lon="10.2529160">
	<ele>1274.80</ele>
	<time>2025-04-30T08:49:18.000Z</time>
</trkpt>
<trkpt lat="45.8946070" lon="10.2529050">
	<ele>1274.80</ele>
	<time>2025-04-30T08:49:19.000Z</time>
</trkpt>
<trkpt lat="45.8946120" lon="10.2528820">
	<ele>1274.80</ele>
	<time>2025-04-30T08:49:20.000Z</time>
</trkpt>
<trkpt lat="45.8946030" lon="10.2529180">
	<ele>1274.80</ele>
	<time>2025-04-30T08:49:21.000Z</time>
</trkpt>
<trkpt lat="45.8945850" lon="10.2529220">
	<ele>1274.80</ele>
	<time>2025-04-30T08:49:22.000Z</time>
</trkpt>
<trkpt lat="45.8945660" lon="10.2529320">
	<ele>1274.80</ele>
	<time>2025-04-30T08:49:23.000Z</time>
</trkpt>
<trkpt lat="45.8945760" lon="10.2529380">
	<ele>1274.80</ele>
	<time>2025-04-30T08:49:24.000Z</time>
</trkpt>
<trkpt lat="45.8945910" lon="10.2529320">
	<ele>1274.80</ele>
	<time>2025-04-30T08:49:25.000Z</time>
</trkpt>
<trkpt lat="45.8945900" lon="10.2529280">
	<ele>1274.80</ele>
	<time>2025-04-30T08:49:26.000Z</time>
</trkpt>
<trkpt lat="45.8945900" lon="10.2529280">
	<ele>1274.80</ele>
	<time>2025-04-30T08:49:27.000Z</time>
</trkpt>
<trkpt lat="45.8945880" lon="10.2529290">
	<ele>1274.80</ele>
	<time>2025-04-30T08:49:28.000Z</time>
</trkpt>
<trkpt lat="45.8945860" lon="10.2529320">
	<ele>1274.80</ele>
	<time>2025-04-30T08:49:29.000Z</time>
</trkpt>
<trkpt lat="45.8945860" lon="10.2529340">
	<ele>1274.80</ele>
	<time>2025-04-30T08:49:30.000Z</time>
</trkpt>
<trkpt lat="45.8945860" lon="10.2529350">
	<ele>1274.80</ele>
	<time>2025-04-30T08:49:31.000Z</time>
</trkpt>
<trkpt lat="45.8945860" lon="10.2529350">
	<ele>1274.80</ele>
	<time>2025-04-30T08:49:32.000Z</time>
</trkpt>
<trkpt lat="45.8945860" lon="10.2529350">
	<ele>1274.80</ele>
	<time>2025-04-30T08:49:33.000Z</time>
</trkpt>
<trkpt lat="45.8945860" lon="10.2529350">
	<ele>1274.80</ele>
	<time>2025-04-30T08:49:34.000Z</time>
</trkpt>
<trkpt lat="45.8945860" lon="10.2529350">
	<ele>1274.80</ele>
	<time>2025-04-30T08:49:35.000Z</time>
</trkpt>
<trkpt lat="45.8945860" lon="10.2529350">
	<ele>1274.80</ele>
	<time>2025-04-30T08:49:36.000Z</time>
</trkpt>
<trkpt lat="45.8945860" lon="10.2529350">
	<ele>1274.80</ele>
	<time>2025-04-30T08:49:37.000Z</time>
</trkpt>
<trkpt lat="45.8945860" lon="10.2529350">
	<ele>1274.80</ele>
	<time>2025-04-30T08:49:38.000Z</time>
</trkpt>
<trkpt lat="45.8945860" lon="10.2529350">
	<ele>1274.80</ele>
	<time>2025-04-30T08:49:39.000Z</time>
</trkpt>
<trkpt lat="45.8945860" lon="10.2529350">
	<ele>1274.80</ele>
	<time>2025-04-30T08:49:40.000Z</time>
</trkpt>
<trkpt lat="45.8945860" lon="10.2529350">
	<ele>1274.80</ele>
	<time>2025-04-30T08:49:41.000Z</time>
</trkpt>
<trkpt lat="45.8945860" lon="10.2529350">
	<ele>1274.80</ele>
	<time>2025-04-30T08:49:42.000Z</time>
</trkpt>
<trkpt lat="45.8945860" lon="10.2529350">
	<ele>1274.80</ele>
	<time>2025-04-30T08:49:43.000Z</time>
</trkpt>
<trkpt lat="45.8945860" lon="10.2529350">
	<ele>1274.80</ele>
	<time>2025-04-30T08:49:44.000Z</time>
</trkpt>
<trkpt lat="45.8945860" lon="10.2529350">
	<ele>1274.80</ele>
	<time>2025-04-30T08:49:45.000Z</time>
</trkpt>
<trkpt lat="45.8945850" lon="10.2529380">
	<ele>1274.80</ele>
	<time>2025-04-30T08:49:46.000Z</time>
</trkpt>
<trkpt lat="45.8945850" lon="10.2529380">
	<ele>1274.80</ele>
	<time>2025-04-30T08:49:47.000Z</time>
</trkpt>
<trkpt lat="45.8945850" lon="10.2529400">
	<ele>1274.80</ele>
	<time>2025-04-30T08:49:48.000Z</time>
</trkpt>
<trkpt lat="45.8945850" lon="10.2529420">
	<ele>1274.80</ele>
	<time>2025-04-30T08:49:49.000Z</time>
</trkpt>
<trkpt lat="45.8945850" lon="10.2529420">
	<ele>1274.80</ele>
	<time>2025-04-30T08:49:50.000Z</time>
</trkpt>
<trkpt lat="45.8945850" lon="10.2529420">
	<ele>1274.80</ele>
	<time>2025-04-30T08:49:51.000Z</time>
</trkpt>
<trkpt lat="45.8945850" lon="10.2529430">
	<ele>1274.80</ele>
	<time>2025-04-30T08:49:52.000Z</time>
</trkpt>
<trkpt lat="45.8945850" lon="10.2529430">
	<ele>1274.80</ele>
	<time>2025-04-30T08:49:53.000Z</time>
</trkpt>
<trkpt lat="45.8945850" lon="10.2529440">
	<ele>1274.80</ele>
	<time>2025-04-30T08:49:54.000Z</time>
</trkpt>
<trkpt lat="45.8945850" lon="10.2529440">
	<ele>1274.80</ele>
	<time>2025-04-30T08:49:55.000Z</time>
</trkpt>
<trkpt lat="45.8945850" lon="10.2529440">
	<ele>1274.80</ele>
	<time>2025-04-30T08:49:56.000Z</time>
</trkpt>
<trkpt lat="45.8945850" lon="10.2529440">
	<ele>1274.80</ele>
	<time>2025-04-30T08:49:57.000Z</time>
</trkpt>
<trkpt lat="45.8945850" lon="10.2529440">
	<ele>1274.80</ele>
	<time>2025-04-30T08:49:58.000Z</time>
</trkpt>
<trkpt lat="45.8945850" lon="10.2529440">
	<ele>1274.80</ele>
	<time>2025-04-30T08:49:59.000Z</time>
</trkpt>
<trkpt lat="45.8945850" lon="10.2529440">
	<ele>1274.80</ele>
	<time>2025-04-30T08:50:00.000Z</time>
</trkpt>
<trkpt lat="45.8945850" lon="10.2529440">
	<ele>1274.80</ele>
	<time>2025-04-30T08:50:01.000Z</time>
</trkpt>
<trkpt lat="45.8945850" lon="10.2529440">
	<ele>1274.80</ele>
	<time>2025-04-30T08:50:02.000Z</time>
</trkpt>
<trkpt lat="45.8945850" lon="10.2529450">
	<ele>1274.80</ele>
	<time>2025-04-30T08:50:03.000Z</time>
</trkpt>
<trkpt lat="45.8945850" lon="10.2529450">
	<ele>1274.80</ele>
	<time>2025-04-30T08:50:04.000Z</time>
</trkpt>
<trkpt lat="45.8945850" lon="10.2529450">
	<ele>1274.80</ele>
	<time>2025-04-30T08:50:05.000Z</time>
</trkpt>
<trkpt lat="45.8945840" lon="10.2529460">
	<ele>1274.80</ele>
	<time>2025-04-30T08:50:06.000Z</time>
</trkpt>
<trkpt lat="45.8945840" lon="10.2529460">
	<ele>1274.80</ele>
	<time>2025-04-30T08:50:07.000Z</time>
</trkpt>
<trkpt lat="45.8945840" lon="10.2529460">
	<ele>1274.80</ele>
	<time>2025-04-30T08:50:08.000Z</time>
</trkpt>
<trkpt lat="45.8945840" lon="10.2529460">
	<ele>1274.80</ele>
	<time>2025-04-30T08:50:09.000Z</time>
</trkpt>
<trkpt lat="45.8945840" lon="10.2529460">
	<ele>1274.80</ele>
	<time>2025-04-30T08:50:10.000Z</time>
</trkpt>
<trkpt lat="45.8945830" lon="10.2529460">
	<ele>1274.80</ele>
	<time>2025-04-30T08:50:11.000Z</time>
</trkpt>
<trkpt lat="45.8945820" lon="10.2529460">
	<ele>1274.80</ele>
	<time>2025-04-30T08:50:12.000Z</time>
</trkpt>
<trkpt lat="45.8945810" lon="10.2529460">
	<ele>1274.80</ele>
	<time>2025-04-30T08:50:13.000Z</time>
</trkpt>
<trkpt lat="45.8945810" lon="10.2529460">
	<ele>1274.80</ele>
	<time>2025-04-30T08:50:14.000Z</time>
</trkpt>
<trkpt lat="45.8945810" lon="10.2529460">
	<ele>1274.80</ele>
	<time>2025-04-30T08:50:15.000Z</time>
</trkpt>
<trkpt lat="45.8945810" lon="10.2529460">
	<ele>1274.80</ele>
	<time>2025-04-30T08:50:16.000Z</time>
</trkpt>
<trkpt lat="45.8945810" lon="10.2529460">
	<ele>1274.80</ele>
	<time>2025-04-30T08:50:17.000Z</time>
</trkpt>
<trkpt lat="45.8945810" lon="10.2529460">
	<ele>1274.80</ele>
	<time>2025-04-30T08:50:18.000Z</time>
</trkpt>
<trkpt lat="45.8945800" lon="10.2529460">
	<ele>1274.80</ele>
	<time>2025-04-30T08:50:19.000Z</time>
</trkpt>
<trkpt lat="45.8945790" lon="10.2529470">
	<ele>1274.80</ele>
	<time>2025-04-30T08:50:20.000Z</time>
</trkpt>
<trkpt lat="45.8945790" lon="10.2529460">
	<ele>1274.80</ele>
	<time>2025-04-30T08:50:21.000Z</time>
</trkpt>
<trkpt lat="45.8945780" lon="10.2529460">
	<ele>1274.80</ele>
	<time>2025-04-30T08:50:22.000Z</time>
</trkpt>
<trkpt lat="45.8945780" lon="10.2529460">
	<ele>1274.80</ele>
	<time>2025-04-30T08:50:23.000Z</time>
</trkpt>
<trkpt lat="45.8945780" lon="10.2529460">
	<ele>1274.80</ele>
	<time>2025-04-30T08:50:24.000Z</time>
</trkpt>
<trkpt lat="45.8945780" lon="10.2529460">
	<ele>1274.80</ele>
	<time>2025-04-30T08:50:25.000Z</time>
</trkpt>
<trkpt lat="45.8945780" lon="10.2529470">
	<ele>1274.80</ele>
	<time>2025-04-30T08:50:26.000Z</time>
</trkpt>
<trkpt lat="45.8945770" lon="10.2529470">
	<ele>1274.80</ele>
	<time>2025-04-30T08:50:27.000Z</time>
</trkpt>
<trkpt lat="45.8945770" lon="10.2529470">
	<ele>1274.80</ele>
	<time>2025-04-30T08:50:28.000Z</time>
</trkpt>
<trkpt lat="45.8945760" lon="10.2529470">
	<ele>1274.80</ele>
	<time>2025-04-30T08:50:29.000Z</time>
</trkpt>
<trkpt lat="45.8945760" lon="10.2529470">
	<ele>1274.80</ele>
	<time>2025-04-30T08:50:30.000Z</time>
</trkpt>
<trkpt lat="45.8945760" lon="10.2529470">
	<ele>1274.80</ele>
	<time>2025-04-30T08:50:31.000Z</time>
</trkpt>
<trkpt lat="45.8945750" lon="10.2529470">
	<ele>1274.80</ele>
	<time>2025-04-30T08:50:32.000Z</time>
</trkpt>
<trkpt lat="45.8945750" lon="10.2529470">
	<ele>1274.80</ele>
	<time>2025-04-30T08:50:33.000Z</time>
</trkpt>
<trkpt lat="45.8945750" lon="10.2529460">
	<ele>1274.80</ele>
	<time>2025-04-30T08:50:34.000Z</time>
</trkpt>
<trkpt lat="45.8945750" lon="10.2529460">
	<ele>1274.80</ele>
	<time>2025-04-30T08:50:35.000Z</time>
</trkpt>
<trkpt lat="45.8945740" lon="10.2529460">
	<ele>1274.80</ele>
	<time>2025-04-30T08:50:36.000Z</time>
</trkpt>
<trkpt lat="45.8945740" lon="10.2529460">
	<ele>1274.80</ele>
	<time>2025-04-30T08:50:37.000Z</time>
</trkpt>
<trkpt lat="45.8945740" lon="10.2529460">
	<ele>1274.80</ele>
	<time>2025-04-30T08:50:38.000Z</time>
</trkpt>
<trkpt lat="45.8945730" lon="10.2529450">
	<ele>1274.80</ele>
	<time>2025-04-30T08:50:39.000Z</time>
</trkpt>
<trkpt lat="45.8945720" lon="10.2529450">
	<ele>1274.80</ele>
	<time>2025-04-30T08:50:40.000Z</time>
</trkpt>
<trkpt lat="45.8945720" lon="10.2529450">
	<ele>1274.80</ele>
	<time>2025-04-30T08:50:41.000Z</time>
</trkpt>
<trkpt lat="45.8945710" lon="10.2529450">
	<ele>1274.80</ele>
	<time>2025-04-30T08:50:42.000Z</time>
</trkpt>
<trkpt lat="45.8945710" lon="10.2529450">
	<ele>1274.80</ele>
	<time>2025-04-30T08:50:43.000Z</time>
</trkpt>
<trkpt lat="45.8945710" lon="10.2529450">
	<ele>1274.80</ele>
	<time>2025-04-30T08:50:44.000Z</time>
</trkpt>
<trkpt lat="45.8945710" lon="10.2529450">
	<ele>1274.80</ele>
	<time>2025-04-30T08:50:45.000Z</time>
</trkpt>
<trkpt lat="45.8945720" lon="10.2529440">
	<ele>1274.80</ele>
	<time>2025-04-30T08:50:46.000Z</time>
</trkpt>
<trkpt lat="45.8945750" lon="10.2529440">
	<ele>1274.80</ele>
	<time>2025-04-30T08:50:47.000Z</time>
</trkpt>
<trkpt lat="45.8945760" lon="10.2529450">
	<ele>1274.80</ele>
	<time>2025-04-30T08:50:48.000Z</time>
</trkpt>
<trkpt lat="45.8945770" lon="10.2529460">
	<ele>1274.80</ele>
	<time>2025-04-30T08:50:49.000Z</time>
</trkpt>
<trkpt lat="45.8945810" lon="10.2529410">
	<ele>1274.80</ele>
	<time>2025-04-30T08:50:50.000Z</time>
</trkpt>
<trkpt lat="45.8945860" lon="10.2529410">
	<ele>1274.80</ele>
	<time>2025-04-30T08:50:51.000Z</time>
</trkpt>
<trkpt lat="45.8945900" lon="10.2529410">
	<ele>1274.80</ele>
	<time>2025-04-30T08:50:52.000Z</time>
</trkpt>
<trkpt lat="45.8945930" lon="10.2529390">
	<ele>1274.80</ele>
	<time>2025-04-30T08:50:53.000Z</time>
</trkpt>
<trkpt lat="45.8945990" lon="10.2529470">
	<ele>1274.80</ele>
	<time>2025-04-30T08:50:54.000Z</time>
</trkpt>
<trkpt lat="45.8946080" lon="10.2529600">
	<ele>1274.80</ele>
	<time>2025-04-30T08:50:55.000Z</time>
</trkpt>
<trkpt lat="45.8946140" lon="10.2529740">
	<ele>1274.80</ele>
	<time>2025-04-30T08:50:56.000Z</time>
</trkpt>
<trkpt lat="45.8946160" lon="10.2529920">
	<ele>1274.80</ele>
	<time>2025-04-30T08:50:57.000Z</time>
</trkpt>
<trkpt lat="45.8946160" lon="10.2530090">
	<ele>1274.80</ele>
	<time>2025-04-30T08:50:58.000Z</time>
</trkpt>
<trkpt lat="45.8946140" lon="10.2530220">
	<ele>1274.80</ele>
	<time>2025-04-30T08:50:59.000Z</time>
</trkpt>
<trkpt lat="45.8946110" lon="10.2530320">
	<ele>1274.80</ele>
	<time>2025-04-30T08:51:00.000Z</time>
</trkpt>
<trkpt lat="45.8946060" lon="10.2530440">
	<ele>1274.80</ele>
	<time>2025-04-30T08:51:01.000Z</time>
</trkpt>
<trkpt lat="45.8946000" lon="10.2530580">
	<ele>1274.80</ele>
	<time>2025-04-30T08:51:02.000Z</time>
</trkpt>
<trkpt lat="45.8945940" lon="10.2530720">
	<ele>1274.80</ele>
	<time>2025-04-30T08:51:03.000Z</time>
</trkpt>
<trkpt lat="45.8945900" lon="10.2530870">
	<ele>1274.80</ele>
	<time>2025-04-30T08:51:04.000Z</time>
</trkpt>
<trkpt lat="45.8945880" lon="10.2530990">
	<ele>1274.80</ele>
	<time>2025-04-30T08:51:05.000Z</time>
</trkpt>
<trkpt lat="45.8945790" lon="10.2531170">
	<ele>1274.80</ele>
	<time>2025-04-30T08:51:06.000Z</time>
</trkpt>
<trkpt lat="45.8945700" lon="10.2531350">
	<ele>1274.80</ele>
	<time>2025-04-30T08:51:07.000Z</time>
</trkpt>
<trkpt lat="45.8945630" lon="10.2531520">
	<ele>1274.80</ele>
	<time>2025-04-30T08:51:08.000Z</time>
</trkpt>
<trkpt lat="45.8945610" lon="10.2531650">
	<ele>1274.80</ele>
	<time>2025-04-30T08:51:09.000Z</time>
</trkpt>
<trkpt lat="45.8945570" lon="10.2531740">
	<ele>1274.80</ele>
	<time>2025-04-30T08:51:10.000Z</time>
</trkpt>
<trkpt lat="45.8945520" lon="10.2531810">
	<ele>1274.80</ele>
	<time>2025-04-30T08:51:11.000Z</time>
</trkpt>
<trkpt lat="45.8945450" lon="10.2531890">
	<ele>1274.80</ele>
	<time>2025-04-30T08:51:12.000Z</time>
</trkpt>
<trkpt lat="45.8945420" lon="10.2531980">
	<ele>1274.80</ele>
	<time>2025-04-30T08:51:13.000Z</time>
</trkpt>
<trkpt lat="45.8945350" lon="10.2532090">
	<ele>1274.80</ele>
	<time>2025-04-30T08:51:14.000Z</time>
</trkpt>
<trkpt lat="45.8945310" lon="10.2532180">
	<ele>1274.80</ele>
	<time>2025-04-30T08:51:15.000Z</time>
</trkpt>
<trkpt lat="45.8945300" lon="10.2532230">
	<ele>1274.80</ele>
	<time>2025-04-30T08:51:16.000Z</time>
</trkpt>
<trkpt lat="45.8945280" lon="10.2532370">
	<ele>1274.80</ele>
	<time>2025-04-30T08:51:17.000Z</time>
</trkpt>
<trkpt lat="45.8945250" lon="10.2532550">
	<ele>1274.80</ele>
	<time>2025-04-30T08:51:18.000Z</time>
</trkpt>
<trkpt lat="45.8945160" lon="10.2532730">
	<ele>1274.80</ele>
	<time>2025-04-30T08:51:19.000Z</time>
</trkpt>
<trkpt lat="45.8945060" lon="10.2532810">
	<ele>1274.80</ele>
	<time>2025-04-30T08:51:20.000Z</time>
</trkpt>
<trkpt lat="45.8945010" lon="10.2532850">
	<ele>1275.60</ele>
	<time>2025-04-30T08:51:21.000Z</time>
</trkpt>
<trkpt lat="45.8944960" lon="10.2532890">
	<ele>1276.20</ele>
	<time>2025-04-30T08:51:22.000Z</time>
</trkpt>
<trkpt lat="45.8944890" lon="10.2532920">
	<ele>1276.60</ele>
	<time>2025-04-30T08:51:23.000Z</time>
</trkpt>
<trkpt lat="45.8944800" lon="10.2533030">
	<ele>1276.80</ele>
	<time>2025-04-30T08:51:24.000Z</time>
</trkpt>
<trkpt lat="45.8944720" lon="10.2533100">
	<ele>1276.80</ele>
	<time>2025-04-30T08:51:25.000Z</time>
</trkpt>
<trkpt lat="45.8944610" lon="10.2533160">
	<ele>1277.00</ele>
	<time>2025-04-30T08:51:26.000Z</time>
</trkpt>
<trkpt lat="45.8944520" lon="10.2533250">
	<ele>1277.00</ele>
	<time>2025-04-30T08:51:27.000Z</time>
</trkpt>
<trkpt lat="45.8944400" lon="10.2533320">
	<ele>1277.00</ele>
	<time>2025-04-30T08:51:28.000Z</time>
</trkpt>
<trkpt lat="45.8944310" lon="10.2533370">
	<ele>1277.20</ele>
	<time>2025-04-30T08:51:29.000Z</time>
</trkpt>
<trkpt lat="45.8944230" lon="10.2533490">
	<ele>1277.20</ele>
	<time>2025-04-30T08:51:30.000Z</time>
</trkpt>
<trkpt lat="45.8944160" lon="10.2533610">
	<ele>1277.20</ele>
	<time>2025-04-30T08:51:31.000Z</time>
</trkpt>
<trkpt lat="45.8944050" lon="10.2533750">
	<ele>1277.40</ele>
	<time>2025-04-30T08:51:32.000Z</time>
</trkpt>
<trkpt lat="45.8943970" lon="10.2533840">
	<ele>1277.60</ele>
	<time>2025-04-30T08:51:33.000Z</time>
</trkpt>
<trkpt lat="45.8943900" lon="10.2533960">
	<ele>1277.60</ele>
	<time>2025-04-30T08:51:34.000Z</time>
</trkpt>
<trkpt lat="45.8943850" lon="10.2534080">
	<ele>1277.80</ele>
	<time>2025-04-30T08:51:35.000Z</time>
</trkpt>
<trkpt lat="45.8943750" lon="10.2534130">
	<ele>1277.80</ele>
	<time>2025-04-30T08:51:36.000Z</time>
</trkpt>
<trkpt lat="45.8943670" lon="10.2534210">
	<ele>1278.00</ele>
	<time>2025-04-30T08:51:37.000Z</time>
</trkpt>
<trkpt lat="45.8943590" lon="10.2534280">
	<ele>1278.00</ele>
	<time>2025-04-30T08:51:38.000Z</time>
</trkpt>
<trkpt lat="45.8943500" lon="10.2534370">
	<ele>1278.20</ele>
	<time>2025-04-30T08:51:39.000Z</time>
</trkpt>
<trkpt lat="45.8943390" lon="10.2534420">
	<ele>1278.40</ele>
	<time>2025-04-30T08:51:40.000Z</time>
</trkpt>
<trkpt lat="45.8943290" lon="10.2534530">
	<ele>1278.60</ele>
	<time>2025-04-30T08:51:41.000Z</time>
</trkpt>
<trkpt lat="45.8943220" lon="10.2534620">
	<ele>1278.60</ele>
	<time>2025-04-30T08:51:42.000Z</time>
</trkpt>
<trkpt lat="45.8943160" lon="10.2534730">
	<ele>1278.60</ele>
	<time>2025-04-30T08:51:43.000Z</time>
</trkpt>
<trkpt lat="45.8943100" lon="10.2534880">
	<ele>1278.60</ele>
	<time>2025-04-30T08:51:44.000Z</time>
</trkpt>
<trkpt lat="45.8943060" lon="10.2534990">
	<ele>1278.60</ele>
	<time>2025-04-30T08:51:45.000Z</time>
</trkpt>
<trkpt lat="45.8943030" lon="10.2535100">
	<ele>1278.80</ele>
	<time>2025-04-30T08:51:46.000Z</time>
</trkpt>
<trkpt lat="45.8942960" lon="10.2535190">
	<ele>1278.80</ele>
	<time>2025-04-30T08:51:47.000Z</time>
</trkpt>
<trkpt lat="45.8942890" lon="10.2535240">
	<ele>1278.80</ele>
	<time>2025-04-30T08:51:48.000Z</time>
</trkpt>
<trkpt lat="45.8942820" lon="10.2535270">
	<ele>1278.80</ele>
	<time>2025-04-30T08:51:49.000Z</time>
</trkpt>
<trkpt lat="45.8942710" lon="10.2535310">
	<ele>1278.80</ele>
	<time>2025-04-30T08:51:50.000Z</time>
</trkpt>
<trkpt lat="45.8942660" lon="10.2535320">
	<ele>1279.00</ele>
	<time>2025-04-30T08:51:51.000Z</time>
</trkpt>
<trkpt lat="45.8942630" lon="10.2535310">
	<ele>1279.40</ele>
	<time>2025-04-30T08:51:52.000Z</time>
</trkpt>
<trkpt lat="45.8942600" lon="10.2535330">
	<ele>1279.60</ele>
	<time>2025-04-30T08:51:53.000Z</time>
</trkpt>
<trkpt lat="45.8942570" lon="10.2535300">
	<ele>1279.80</ele>
	<time>2025-04-30T08:51:54.000Z</time>
</trkpt>
<trkpt lat="45.8942580" lon="10.2535280">
	<ele>1279.80</ele>
	<time>2025-04-30T08:51:55.000Z</time>
</trkpt>
<trkpt lat="45.8942600" lon="10.2535270">
	<ele>1280.00</ele>
	<time>2025-04-30T08:51:56.000Z</time>
</trkpt>
<trkpt lat="45.8942600" lon="10.2535280">
	<ele>1280.00</ele>
	<time>2025-04-30T08:51:57.000Z</time>
</trkpt>
<trkpt lat="45.8942590" lon="10.2535410">
	<ele>1280.00</ele>
	<time>2025-04-30T08:51:58.000Z</time>
</trkpt>
<trkpt lat="45.8942600" lon="10.2535430">
	<ele>1280.20</ele>
	<time>2025-04-30T08:51:59.000Z</time>
</trkpt>
<trkpt lat="45.8942590" lon="10.2535460">
	<ele>1280.20</ele>
	<time>2025-04-30T08:52:00.000Z</time>
</trkpt>
<trkpt lat="45.8942620" lon="10.2535460">
	<ele>1280.20</ele>
	<time>2025-04-30T08:52:01.000Z</time>
</trkpt>
<trkpt lat="45.8942610" lon="10.2535470">
	<ele>1280.20</ele>
	<time>2025-04-30T08:52:02.000Z</time>
</trkpt>
<trkpt lat="45.8942550" lon="10.2535530">
	<ele>1280.20</ele>
	<time>2025-04-30T08:52:03.000Z</time>
</trkpt>
<trkpt lat="45.8942460" lon="10.2535620">
	<ele>1280.20</ele>
	<time>2025-04-30T08:52:04.000Z</time>
</trkpt>
<trkpt lat="45.8942420" lon="10.2535630">
	<ele>1280.20</ele>
	<time>2025-04-30T08:52:05.000Z</time>
</trkpt>
<trkpt lat="45.8942400" lon="10.2535610">
	<ele>1280.20</ele>
	<time>2025-04-30T08:52:06.000Z</time>
</trkpt>
<trkpt lat="45.8942390" lon="10.2535630">
	<ele>1280.20</ele>
	<time>2025-04-30T08:52:07.000Z</time>
</trkpt>
<trkpt lat="45.8942370" lon="10.2535650">
	<ele>1280.20</ele>
	<time>2025-04-30T08:52:08.000Z</time>
</trkpt>
<trkpt lat="45.8942360" lon="10.2535680">
	<ele>1280.20</ele>
	<time>2025-04-30T08:52:09.000Z</time>
</trkpt>
<trkpt lat="45.8942430" lon="10.2535710">
	<ele>1280.00</ele>
	<time>2025-04-30T08:52:10.000Z</time>
</trkpt>
<trkpt lat="45.8942470" lon="10.2535680">
	<ele>1280.00</ele>
	<time>2025-04-30T08:52:11.000Z</time>
</trkpt>
<trkpt lat="45.8942450" lon="10.2535630">
	<ele>1280.00</ele>
	<time>2025-04-30T08:52:12.000Z</time>
</trkpt>
<trkpt lat="45.8942410" lon="10.2535600">
	<ele>1280.00</ele>
	<time>2025-04-30T08:52:13.000Z</time>
</trkpt>
<trkpt lat="45.8942400" lon="10.2535600">
	<ele>1280.00</ele>
	<time>2025-04-30T08:52:14.000Z</time>
</trkpt>
<trkpt lat="45.8942390" lon="10.2535620">
	<ele>1280.00</ele>
	<time>2025-04-30T08:52:15.000Z</time>
</trkpt>
<trkpt lat="45.8942440" lon="10.2535660">
	<ele>1280.20</ele>
	<time>2025-04-30T08:52:16.000Z</time>
</trkpt>
<trkpt lat="45.8942450" lon="10.2535670">
	<ele>1280.40</ele>
	<time>2025-04-30T08:52:17.000Z</time>
</trkpt>
<trkpt lat="45.8942450" lon="10.2535670">
	<ele>1280.60</ele>
	<time>2025-04-30T08:52:18.000Z</time>
</trkpt>
<trkpt lat="45.8942450" lon="10.2535670">
	<ele>1280.80</ele>
	<time>2025-04-30T08:52:19.000Z</time>
</trkpt>
<trkpt lat="45.8942450" lon="10.2535670">
	<ele>1280.80</ele>
	<time>2025-04-30T08:52:20.000Z</time>
</trkpt>
<trkpt lat="45.8942450" lon="10.2535670">
	<ele>1281.00</ele>
	<time>2025-04-30T08:52:21.000Z</time>
</trkpt>
<trkpt lat="45.8942450" lon="10.2535670">
	<ele>1281.00</ele>
	<time>2025-04-30T08:52:22.000Z</time>
</trkpt>
<trkpt lat="45.8942450" lon="10.2535670">
	<ele>1281.00</ele>
	<time>2025-04-30T08:52:23.000Z</time>
</trkpt>
<trkpt lat="45.8942450" lon="10.2535670">
	<ele>1281.00</ele>
	<time>2025-04-30T08:52:24.000Z</time>
</trkpt>
<trkpt lat="45.8942450" lon="10.2535670">
	<ele>1281.00</ele>
	<time>2025-04-30T08:52:25.000Z</time>
</trkpt>
<trkpt lat="45.8942450" lon="10.2535670">
	<ele>1281.00</ele>
	<time>2025-04-30T08:52:26.000Z</time>
</trkpt>
<trkpt lat="45.8942450" lon="10.2535670">
	<ele>1281.00</ele>
	<time>2025-04-30T08:52:27.000Z</time>
</trkpt>
<trkpt lat="45.8942450" lon="10.2535670">
	<ele>1280.80</ele>
	<time>2025-04-30T08:52:28.000Z</time>
</trkpt>
<trkpt lat="45.8942450" lon="10.2535670">
	<ele>1280.80</ele>
	<time>2025-04-30T08:52:29.000Z</time>
</trkpt>
<trkpt lat="45.8942450" lon="10.2535680">
	<ele>1280.80</ele>
	<time>2025-04-30T08:52:30.000Z</time>
</trkpt>
<trkpt lat="45.8942450" lon="10.2535680">
	<ele>1280.60</ele>
	<time>2025-04-30T08:52:31.000Z</time>
</trkpt>
<trkpt lat="45.8942450" lon="10.2535680">
	<ele>1280.60</ele>
	<time>2025-04-30T08:52:32.000Z</time>
</trkpt>
<trkpt lat="45.8942450" lon="10.2535680">
	<ele>1280.40</ele>
	<time>2025-04-30T08:52:33.000Z</time>
</trkpt>
<trkpt lat="45.8942450" lon="10.2535690">
	<ele>1280.40</ele>
	<time>2025-04-30T08:52:34.000Z</time>
</trkpt>
<trkpt lat="45.8942450" lon="10.2535690">
	<ele>1280.20</ele>
	<time>2025-04-30T08:52:35.000Z</time>
</trkpt>
<trkpt lat="45.8942450" lon="10.2535700">
	<ele>1280.20</ele>
	<time>2025-04-30T08:52:36.000Z</time>
</trkpt>
<trkpt lat="45.8942450" lon="10.2535710">
	<ele>1280.00</ele>
	<time>2025-04-30T08:52:37.000Z</time>
</trkpt>
<trkpt lat="45.8942470" lon="10.2535730">
	<ele>1280.00</ele>
	<time>2025-04-30T08:52:38.000Z</time>
</trkpt>
<trkpt lat="45.8942510" lon="10.2535770">
	<ele>1280.00</ele>
	<time>2025-04-30T08:52:39.000Z</time>
</trkpt>
<trkpt lat="45.8942520" lon="10.2535780">
	<ele>1279.80</ele>
	<time>2025-04-30T08:52:40.000Z</time>
</trkpt>
<trkpt lat="45.8942530" lon="10.2535790">
	<ele>1279.80</ele>
	<time>2025-04-30T08:52:41.000Z</time>
</trkpt>
<trkpt lat="45.8942540" lon="10.2535800">
	<ele>1279.80</ele>
	<time>2025-04-30T08:52:42.000Z</time>
</trkpt>
<trkpt lat="45.8942560" lon="10.2535880">
	<ele>1279.80</ele>
	<time>2025-04-30T08:52:43.000Z</time>
</trkpt>
<trkpt lat="45.8942610" lon="10.2535900">
	<ele>1279.80</ele>
	<time>2025-04-30T08:52:44.000Z</time>
</trkpt>
<trkpt lat="45.8942650" lon="10.2535940">
	<ele>1279.80</ele>
	<time>2025-04-30T08:52:45.000Z</time>
</trkpt>
<trkpt lat="45.8942690" lon="10.2535940">
	<ele>1280.00</ele>
	<time>2025-04-30T08:52:46.000Z</time>
</trkpt>
<trkpt lat="45.8942720" lon="10.2535950">
	<ele>1280.00</ele>
	<time>2025-04-30T08:52:47.000Z</time>
</trkpt>
<trkpt lat="45.8942720" lon="10.2535950">
	<ele>1280.00</ele>
	<time>2025-04-30T08:52:48.000Z</time>
</trkpt>
<trkpt lat="45.8942720" lon="10.2535950">
	<ele>1280.20</ele>
	<time>2025-04-30T08:52:49.000Z</time>
</trkpt>
<trkpt lat="45.8942720" lon="10.2535950">
	<ele>1280.40</ele>
	<time>2025-04-30T08:52:50.000Z</time>
</trkpt>
<trkpt lat="45.8942730" lon="10.2535950">
	<ele>1280.60</ele>
	<time>2025-04-30T08:52:51.000Z</time>
</trkpt>
<trkpt lat="45.8942730" lon="10.2535950">
	<ele>1280.80</ele>
	<time>2025-04-30T08:52:52.000Z</time>
</trkpt>
<trkpt lat="45.8942730" lon="10.2535950">
	<ele>1280.80</ele>
	<time>2025-04-30T08:52:53.000Z</time>
</trkpt>
<trkpt lat="45.8942730" lon="10.2535950">
	<ele>1280.80</ele>
	<time>2025-04-30T08:52:54.000Z</time>
</trkpt>
<trkpt lat="45.8942730" lon="10.2535950">
	<ele>1280.80</ele>
	<time>2025-04-30T08:52:55.000Z</time>
</trkpt>
<trkpt lat="45.8942730" lon="10.2535950">
	<ele>1280.80</ele>
	<time>2025-04-30T08:52:56.000Z</time>
</trkpt>
<trkpt lat="45.8942730" lon="10.2535950">
	<ele>1281.00</ele>
	<time>2025-04-30T08:52:57.000Z</time>
</trkpt>
<trkpt lat="45.8942730" lon="10.2535950">
	<ele>1280.80</ele>
	<time>2025-04-30T08:52:58.000Z</time>
</trkpt>
<trkpt lat="45.8942730" lon="10.2535950">
	<ele>1280.60</ele>
	<time>2025-04-30T08:52:59.000Z</time>
</trkpt>
<trkpt lat="45.8942730" lon="10.2535950">
	<ele>1280.60</ele>
	<time>2025-04-30T08:53:00.000Z</time>
</trkpt>
<trkpt lat="45.8942740" lon="10.2535950">
	<ele>1280.40</ele>
	<time>2025-04-30T08:53:01.000Z</time>
</trkpt>
<trkpt lat="45.8942750" lon="10.2535950">
	<ele>1280.40</ele>
	<time>2025-04-30T08:53:02.000Z</time>
</trkpt>
<trkpt lat="45.8942750" lon="10.2535950">
	<ele>1280.20</ele>
	<time>2025-04-30T08:53:03.000Z</time>
</trkpt>
<trkpt lat="45.8942750" lon="10.2535950">
	<ele>1280.00</ele>
	<time>2025-04-30T08:53:04.000Z</time>
</trkpt>
<trkpt lat="45.8942750" lon="10.2535950">
	<ele>1279.80</ele>
	<time>2025-04-30T08:53:05.000Z</time>
</trkpt>
<trkpt lat="45.8942750" lon="10.2535950">
	<ele>1279.60</ele>
	<time>2025-04-30T08:53:06.000Z</time>
</trkpt>
<trkpt lat="45.8942750" lon="10.2535950">
	<ele>1279.20</ele>
	<time>2025-04-30T08:53:07.000Z</time>
</trkpt>
<trkpt lat="45.8942770" lon="10.2535950">
	<ele>1279.00</ele>
	<time>2025-04-30T08:53:08.000Z</time>
</trkpt>
<trkpt lat="45.8942840" lon="10.2535980">
	<ele>1279.00</ele>
	<time>2025-04-30T08:53:09.000Z</time>
</trkpt>
<trkpt lat="45.8942960" lon="10.2535980">
	<ele>1278.80</ele>
	<time>2025-04-30T08:53:10.000Z</time>
</trkpt>
<trkpt lat="45.8943030" lon="10.2535950">
	<ele>1278.60</ele>
	<time>2025-04-30T08:53:11.000Z</time>
</trkpt>
<trkpt lat="45.8943100" lon="10.2535980">
	<ele>1278.40</ele>
	<time>2025-04-30T08:53:12.000Z</time>
</trkpt>
<trkpt lat="45.8943180" lon="10.2536040">
	<ele>1278.00</ele>
	<time>2025-04-30T08:53:13.000Z</time>
</trkpt>
<trkpt lat="45.8943330" lon="10.2536150">
	<ele>1277.60</ele>
	<time>2025-04-30T08:53:14.000Z</time>
</trkpt>
<trkpt lat="45.8943440" lon="10.2536260">
	<ele>1277.40</ele>
	<time>2025-04-30T08:53:15.000Z</time>
</trkpt>
<trkpt lat="45.8943550" lon="10.2536320">
	<ele>1277.00</ele>
	<time>2025-04-30T08:53:16.000Z</time>
</trkpt>
<trkpt lat="45.8943650" lon="10.2536370">
	<ele>1276.80</ele>
	<time>2025-04-30T08:53:17.000Z</time>
</trkpt>
<trkpt lat="45.8943800" lon="10.2536430">
	<ele>1276.60</ele>
	<time>2025-04-30T08:53:18.000Z</time>
</trkpt>
<trkpt lat="45.8943870" lon="10.2536500">
	<ele>1276.40</ele>
	<time>2025-04-30T08:53:19.000Z</time>
</trkpt>
<trkpt lat="45.8943980" lon="10.2536540">
	<ele>1275.80</ele>
	<time>2025-04-30T08:53:20.000Z</time>
</trkpt>
<trkpt lat="45.8944110" lon="10.2536570">
	<ele>1275.40</ele>
	<time>2025-04-30T08:53:21.000Z</time>
</trkpt>
<trkpt lat="45.8944220" lon="10.2536620">
	<ele>1275.00</ele>
	<time>2025-04-30T08:53:22.000Z</time>
</trkpt>
<trkpt lat="45.8944330" lon="10.2536670">
	<ele>1274.40</ele>
	<time>2025-04-30T08:53:23.000Z</time>
</trkpt>
<trkpt lat="45.8944470" lon="10.2536740">
	<ele>1274.20</ele>
	<time>2025-04-30T08:53:24.000Z</time>
</trkpt>
<trkpt lat="45.8944620" lon="10.2536810">
	<ele>1273.80</ele>
	<time>2025-04-30T08:53:25.000Z</time>
</trkpt>
<trkpt lat="45.8944750" lon="10.2536920">
	<ele>1273.40</ele>
	<time>2025-04-30T08:53:26.000Z</time>
</trkpt>
<trkpt lat="45.8944880" lon="10.2537040">
	<ele>1273.00</ele>
	<time>2025-04-30T08:53:27.000Z</time>
</trkpt>
<trkpt lat="45.8945080" lon="10.2537140">
	<ele>1272.60</ele>
	<time>2025-04-30T08:53:28.000Z</time>
</trkpt>
<trkpt lat="45.8945210" lon="10.2537200">
	<ele>1272.20</ele>
	<time>2025-04-30T08:53:29.000Z</time>
</trkpt>
<trkpt lat="45.8945370" lon="10.2537260">
	<ele>1271.80</ele>
	<time>2025-04-30T08:53:30.000Z</time>
</trkpt>
<trkpt lat="45.8945540" lon="10.2537320">
	<ele>1271.40</ele>
	<time>2025-04-30T08:53:31.000Z</time>
</trkpt>
<trkpt lat="45.8945660" lon="10.2537390">
	<ele>1271.20</ele>
	<time>2025-04-30T08:53:32.000Z</time>
</trkpt>
<trkpt lat="45.8945770" lon="10.2537500">
	<ele>1270.80</ele>
	<time>2025-04-30T08:53:33.000Z</time>
</trkpt>
<trkpt lat="45.8945890" lon="10.2537610">
	<ele>1270.40</ele>
	<time>2025-04-30T08:53:34.000Z</time>
</trkpt>
<trkpt lat="45.8946020" lon="10.2537750">
	<ele>1270.00</ele>
	<time>2025-04-30T08:53:35.000Z</time>
</trkpt>
<trkpt lat="45.8946120" lon="10.2537830">
	<ele>1269.80</ele>
	<time>2025-04-30T08:53:36.000Z</time>
</trkpt>
<trkpt lat="45.8946210" lon="10.2537840">
	<ele>1269.40</ele>
	<time>2025-04-30T08:53:37.000Z</time>
</trkpt>
<trkpt lat="45.8946280" lon="10.2537860">
	<ele>1269.00</ele>
	<time>2025-04-30T08:53:38.000Z</time>
</trkpt>
<trkpt lat="45.8946400" lon="10.2537910">
	<ele>1268.60</ele>
	<time>2025-04-30T08:53:39.000Z</time>
</trkpt>
<trkpt lat="45.8946540" lon="10.2537980">
	<ele>1268.20</ele>
	<time>2025-04-30T08:53:40.000Z</time>
</trkpt>
<trkpt lat="45.8946710" lon="10.2538090">
	<ele>1267.80</ele>
	<time>2025-04-30T08:53:41.000Z</time>
</trkpt>
<trkpt lat="45.8946890" lon="10.2538170">
	<ele>1267.60</ele>
	<time>2025-04-30T08:53:42.000Z</time>
</trkpt>
<trkpt lat="45.8947060" lon="10.2538210">
	<ele>1267.40</ele>
	<time>2025-04-30T08:53:43.000Z</time>
</trkpt>
<trkpt lat="45.8947380" lon="10.2538200">
	<ele>1267.00</ele>
	<time>2025-04-30T08:53:44.000Z</time>
</trkpt>
<trkpt lat="45.8947590" lon="10.2538140">
	<ele>1266.80</ele>
	<time>2025-04-30T08:53:45.000Z</time>
</trkpt>
<trkpt lat="45.8947740" lon="10.2538050">
	<ele>1266.40</ele>
	<time>2025-04-30T08:53:46.000Z</time>
</trkpt>
<trkpt lat="45.8947890" lon="10.2537910">
	<ele>1266.20</ele>
	<time>2025-04-30T08:53:47.000Z</time>
</trkpt>
<trkpt lat="45.8948100" lon="10.2537870">
	<ele>1265.60</ele>
	<time>2025-04-30T08:53:48.000Z</time>
</trkpt>
<trkpt lat="45.8948420" lon="10.2537740">
	<ele>1265.20</ele>
	<time>2025-04-30T08:53:49.000Z</time>
</trkpt>
<trkpt lat="45.8948710" lon="10.2537730">
	<ele>1265.00</ele>
	<time>2025-04-30T08:53:50.000Z</time>
</trkpt>
<trkpt lat="45.8948960" lon="10.2537790">
	<ele>1264.80</ele>
	<time>2025-04-30T08:53:51.000Z</time>
</trkpt>
<trkpt lat="45.8949130" lon="10.2537800">
	<ele>1264.60</ele>
	<time>2025-04-30T08:53:52.000Z</time>
</trkpt>
<trkpt lat="45.8949170" lon="10.2537830">
	<ele>1264.40</ele>
	<time>2025-04-30T08:53:53.000Z</time>
</trkpt>
<trkpt lat="45.8949270" lon="10.2537760">
	<ele>1264.20</ele>
	<time>2025-04-30T08:53:54.000Z</time>
</trkpt>
<trkpt lat="45.8949350" lon="10.2537810">
	<ele>1264.00</ele>
	<time>2025-04-30T08:53:55.000Z</time>
</trkpt>
<trkpt lat="45.8949360" lon="10.2537820">
	<ele>1263.60</ele>
	<time>2025-04-30T08:53:56.000Z</time>
</trkpt>
<trkpt lat="45.8949420" lon="10.2537840">
	<ele>1263.40</ele>
	<time>2025-04-30T08:53:57.000Z</time>
</trkpt>
<trkpt lat="45.8949520" lon="10.2537910">
	<ele>1263.20</ele>
	<time>2025-04-30T08:53:58.000Z</time>
</trkpt>
<trkpt lat="45.8949610" lon="10.2538020">
	<ele>1262.60</ele>
	<time>2025-04-30T08:53:59.000Z</time>
</trkpt>
<trkpt lat="45.8949710" lon="10.2538110">
	<ele>1262.20</ele>
	<time>2025-04-30T08:54:00.000Z</time>
</trkpt>
<trkpt lat="45.8949790" lon="10.2538160">
	<ele>1262.00</ele>
	<time>2025-04-30T08:54:01.000Z</time>
</trkpt>
<trkpt lat="45.8949890" lon="10.2538220">
	<ele>1261.60</ele>
	<time>2025-04-30T08:54:02.000Z</time>
</trkpt>
<trkpt lat="45.8949940" lon="10.2538250">
	<ele>1261.20</ele>
	<time>2025-04-30T08:54:03.000Z</time>
</trkpt>
<trkpt lat="45.8950030" lon="10.2538230">
	<ele>1260.80</ele>
	<time>2025-04-30T08:54:04.000Z</time>
</trkpt>
<trkpt lat="45.8950110" lon="10.2538170">
	<ele>1260.60</ele>
	<time>2025-04-30T08:54:05.000Z</time>
</trkpt>
<trkpt lat="45.8950210" lon="10.2538220">
	<ele>1260.40</ele>
	<time>2025-04-30T08:54:06.000Z</time>
</trkpt>
<trkpt lat="45.8950280" lon="10.2538200">
	<ele>1260.00</ele>
	<time>2025-04-30T08:54:07.000Z</time>
</trkpt>
<trkpt lat="45.8950360" lon="10.2538220">
	<ele>1259.60</ele>
	<time>2025-04-30T08:54:08.000Z</time>
</trkpt>
<trkpt lat="45.8950410" lon="10.2538250">
	<ele>1259.20</ele>
	<time>2025-04-30T08:54:09.000Z</time>
</trkpt>
<trkpt lat="45.8950530" lon="10.2538260">
	<ele>1258.80</ele>
	<time>2025-04-30T08:54:10.000Z</time>
</trkpt>
<trkpt lat="45.8950710" lon="10.2538230">
	<ele>1258.40</ele>
	<time>2025-04-30T08:54:11.000Z</time>
</trkpt>
<trkpt lat="45.8950920" lon="10.2538230">
	<ele>1258.20</ele>
	<time>2025-04-30T08:54:12.000Z</time>
</trkpt>
<trkpt lat="45.8950980" lon="10.2538330">
	<ele>1257.60</ele>
	<time>2025-04-30T08:54:13.000Z</time>
</trkpt>
<trkpt lat="45.8951080" lon="10.2538390">
	<ele>1257.20</ele>
	<time>2025-04-30T08:54:14.000Z</time>
</trkpt>
<trkpt lat="45.8951230" lon="10.2538340">
	<ele>1256.80</ele>
	<time>2025-04-30T08:54:15.000Z</time>
</trkpt>
<trkpt lat="45.8951440" lon="10.2538250">
	<ele>1256.40</ele>
	<time>2025-04-30T08:54:16.000Z</time>
</trkpt>
<trkpt lat="45.8951640" lon="10.2538250">
	<ele>1256.20</ele>
	<time>2025-04-30T08:54:17.000Z</time>
</trkpt>
<trkpt lat="45.8951840" lon="10.2538290">
	<ele>1256.00</ele>
	<time>2025-04-30T08:54:18.000Z</time>
</trkpt>
<trkpt lat="45.8951980" lon="10.2538350">
	<ele>1255.60</ele>
	<time>2025-04-30T08:54:19.000Z</time>
</trkpt>
<trkpt lat="45.8952100" lon="10.2538370">
	<ele>1255.20</ele>
	<time>2025-04-30T08:54:20.000Z</time>
</trkpt>
<trkpt lat="45.8952240" lon="10.2538450">
	<ele>1254.80</ele>
	<time>2025-04-30T08:54:21.000Z</time>
</trkpt>
<trkpt lat="45.8952400" lon="10.2538490">
	<ele>1254.40</ele>
	<time>2025-04-30T08:54:22.000Z</time>
</trkpt>
<trkpt lat="45.8952520" lon="10.2538590">
	<ele>1254.00</ele>
	<time>2025-04-30T08:54:23.000Z</time>
</trkpt>
<trkpt lat="45.8952590" lon="10.2538640">
	<ele>1253.60</ele>
	<time>2025-04-30T08:54:24.000Z</time>
</trkpt>
<trkpt lat="45.8952710" lon="10.2538620">
	<ele>1253.20</ele>
	<time>2025-04-30T08:54:25.000Z</time>
</trkpt>
<trkpt lat="45.8952740" lon="10.2538690">
	<ele>1253.00</ele>
	<time>2025-04-30T08:54:26.000Z</time>
</trkpt>
<trkpt lat="45.8952880" lon="10.2538710">
	<ele>1252.60</ele>
	<time>2025-04-30T08:54:27.000Z</time>
</trkpt>
<trkpt lat="45.8953000" lon="10.2538770">
	<ele>1252.00</ele>
	<time>2025-04-30T08:54:28.000Z</time>
</trkpt>
<trkpt lat="45.8953130" lon="10.2538780">
	<ele>1251.80</ele>
	<time>2025-04-30T08:54:29.000Z</time>
</trkpt>
<trkpt lat="45.8953280" lon="10.2538760">
	<ele>1251.60</ele>
	<time>2025-04-30T08:54:30.000Z</time>
</trkpt>
<trkpt lat="45.8953380" lon="10.2538720">
	<ele>1251.20</ele>
	<time>2025-04-30T08:54:31.000Z</time>
</trkpt>
<trkpt lat="45.8953500" lon="10.2538740">
	<ele>1250.80</ele>
	<time>2025-04-30T08:54:32.000Z</time>
</trkpt>
<trkpt lat="45.8953670" lon="10.2538720">
	<ele>1250.40</ele>
	<time>2025-04-30T08:54:33.000Z</time>
</trkpt>
<trkpt lat="45.8953820" lon="10.2538700">
	<ele>1250.00</ele>
	<time>2025-04-30T08:54:34.000Z</time>
</trkpt>
<trkpt lat="45.8954010" lon="10.2538660">
	<ele>1249.80</ele>
	<time>2025-04-30T08:54:35.000Z</time>
</trkpt>
<trkpt lat="45.8954130" lon="10.2538630">
	<ele>1249.40</ele>
	<time>2025-04-30T08:54:36.000Z</time>
</trkpt>
<trkpt lat="45.8954260" lon="10.2538580">
	<ele>1249.00</ele>
	<time>2025-04-30T08:54:37.000Z</time>
</trkpt>
<trkpt lat="45.8954360" lon="10.2538540">
	<ele>1248.60</ele>
	<time>2025-04-30T08:54:38.000Z</time>
</trkpt>
<trkpt lat="45.8954530" lon="10.2538530">
	<ele>1248.40</ele>
	<time>2025-04-30T08:54:39.000Z</time>
</trkpt>
<trkpt lat="45.8954630" lon="10.2538560">
	<ele>1248.00</ele>
	<time>2025-04-30T08:54:40.000Z</time>
</trkpt>
<trkpt lat="45.8954780" lon="10.2538580">
	<ele>1247.60</ele>
	<time>2025-04-30T08:54:41.000Z</time>
</trkpt>
<trkpt lat="45.8955130" lon="10.2538390">
	<ele>1247.20</ele>
	<time>2025-04-30T08:54:42.000Z</time>
</trkpt>
<trkpt lat="45.8955400" lon="10.2538200">
	<ele>1246.80</ele>
	<time>2025-04-30T08:54:43.000Z</time>
</trkpt>
<trkpt lat="45.8955630" lon="10.2537990">
	<ele>1246.40</ele>
	<time>2025-04-30T08:54:44.000Z</time>
</trkpt>
<trkpt lat="45.8955920" lon="10.2537780">
	<ele>1246.00</ele>
	<time>2025-04-30T08:54:45.000Z</time>
</trkpt>
<trkpt lat="45.8956150" lon="10.2537710">
	<ele>1245.60</ele>
	<time>2025-04-30T08:54:46.000Z</time>
</trkpt>
<trkpt lat="45.8956310" lon="10.2537670">
	<ele>1245.40</ele>
	<time>2025-04-30T08:54:47.000Z</time>
</trkpt>
<trkpt lat="45.8956340" lon="10.2537660">
	<ele>1245.00</ele>
	<time>2025-04-30T08:54:48.000Z</time>
</trkpt>
<trkpt lat="45.8956530" lon="10.2537510">
	<ele>1244.60</ele>
	<time>2025-04-30T08:54:49.000Z</time>
</trkpt>
<trkpt lat="45.8956700" lon="10.2537430">
	<ele>1244.20</ele>
	<time>2025-04-30T08:54:50.000Z</time>
</trkpt>
<trkpt lat="45.8956880" lon="10.2537360">
	<ele>1244.00</ele>
	<time>2025-04-30T08:54:51.000Z</time>
</trkpt>
<trkpt lat="45.8956960" lon="10.2537330">
	<ele>1243.60</ele>
	<time>2025-04-30T08:54:52.000Z</time>
</trkpt>
<trkpt lat="45.8957020" lon="10.2537360">
	<ele>1243.40</ele>
	<time>2025-04-30T08:54:53.000Z</time>
</trkpt>
<trkpt lat="45.8957030" lon="10.2537420">
	<ele>1243.00</ele>
	<time>2025-04-30T08:54:54.000Z</time>
</trkpt>
<trkpt lat="45.8957090" lon="10.2537440">
	<ele>1242.60</ele>
	<time>2025-04-30T08:54:55.000Z</time>
</trkpt>
<trkpt lat="45.8957250" lon="10.2537420">
	<ele>1242.20</ele>
	<time>2025-04-30T08:54:56.000Z</time>
</trkpt>
<trkpt lat="45.8957310" lon="10.2537400">
	<ele>1242.00</ele>
	<time>2025-04-30T08:54:57.000Z</time>
</trkpt>
<trkpt lat="45.8957400" lon="10.2537380">
	<ele>1241.60</ele>
	<time>2025-04-30T08:54:58.000Z</time>
</trkpt>
<trkpt lat="45.8957540" lon="10.2537360">
	<ele>1241.40</ele>
	<time>2025-04-30T08:54:59.000Z</time>
</trkpt>
<trkpt lat="45.8957670" lon="10.2537340">
	<ele>1241.20</ele>
	<time>2025-04-30T08:55:00.000Z</time>
</trkpt>
<trkpt lat="45.8957780" lon="10.2537300">
	<ele>1240.80</ele>
	<time>2025-04-30T08:55:01.000Z</time>
</trkpt>
<trkpt lat="45.8957820" lon="10.2537250">
	<ele>1240.60</ele>
	<time>2025-04-30T08:55:02.000Z</time>
</trkpt>
<trkpt lat="45.8957900" lon="10.2537210">
	<ele>1240.20</ele>
	<time>2025-04-30T08:55:03.000Z</time>
</trkpt>
<trkpt lat="45.8958030" lon="10.2537070">
	<ele>1239.80</ele>
	<time>2025-04-30T08:55:04.000Z</time>
</trkpt>
<trkpt lat="45.8958010" lon="10.2537040">
	<ele>1239.60</ele>
	<time>2025-04-30T08:55:05.000Z</time>
</trkpt>
<trkpt lat="45.8958130" lon="10.2536960">
	<ele>1239.40</ele>
	<time>2025-04-30T08:55:06.000Z</time>
</trkpt>
<trkpt lat="45.8958140" lon="10.2536930">
	<ele>1239.20</ele>
	<time>2025-04-30T08:55:07.000Z</time>
</trkpt>
<trkpt lat="45.8958150" lon="10.2536920">
	<ele>1239.00</ele>
	<time>2025-04-30T08:55:08.000Z</time>
</trkpt>
<trkpt lat="45.8958160" lon="10.2536930">
	<ele>1238.80</ele>
	<time>2025-04-30T08:55:09.000Z</time>
</trkpt>
<trkpt lat="45.8958140" lon="10.2536930">
	<ele>1238.80</ele>
	<time>2025-04-30T08:55:10.000Z</time>
</trkpt>
<trkpt lat="45.8958140" lon="10.2536940">
	<ele>1238.60</ele>
	<time>2025-04-30T08:55:11.000Z</time>
</trkpt>
<trkpt lat="45.8958240" lon="10.2536920">
	<ele>1238.60</ele>
	<time>2025-04-30T08:55:12.000Z</time>
</trkpt>
<trkpt lat="45.8958270" lon="10.2536930">
	<ele>1238.60</ele>
	<time>2025-04-30T08:55:13.000Z</time>
</trkpt>
<trkpt lat="45.8958350" lon="10.2536890">
	<ele>1238.60</ele>
	<time>2025-04-30T08:55:14.000Z</time>
</trkpt>
<trkpt lat="45.8958430" lon="10.2536860">
	<ele>1238.60</ele>
	<time>2025-04-30T08:55:15.000Z</time>
</trkpt>
<trkpt lat="45.8958530" lon="10.2536790">
	<ele>1238.40</ele>
	<time>2025-04-30T08:55:16.000Z</time>
</trkpt>
<trkpt lat="45.8958640" lon="10.2536710">
	<ele>1238.20</ele>
	<time>2025-04-30T08:55:17.000Z</time>
</trkpt>
<trkpt lat="45.8958790" lon="10.2536620">
	<ele>1238.00</ele>
	<time>2025-04-30T08:55:18.000Z</time>
</trkpt>
<trkpt lat="45.8958940" lon="10.2536580">
	<ele>1237.60</ele>
	<time>2025-04-30T08:55:19.000Z</time>
</trkpt>
<trkpt lat="45.8959140" lon="10.2536580">
	<ele>1237.20</ele>
	<time>2025-04-30T08:55:20.000Z</time>
</trkpt>
<trkpt lat="45.8959260" lon="10.2536610">
	<ele>1237.00</ele>
	<time>2025-04-30T08:55:21.000Z</time>
</trkpt>
<trkpt lat="45.8959370" lon="10.2536640">
	<ele>1236.60</ele>
	<time>2025-04-30T08:55:22.000Z</time>
</trkpt>
<trkpt lat="45.8959490" lon="10.2536660">
	<ele>1236.20</ele>
	<time>2025-04-30T08:55:23.000Z</time>
</trkpt>
<trkpt lat="45.8959540" lon="10.2536640">
	<ele>1235.80</ele>
	<time>2025-04-30T08:55:24.000Z</time>
</trkpt>
<trkpt lat="45.8959630" lon="10.2536610">
	<ele>1235.40</ele>
	<time>2025-04-30T08:55:25.000Z</time>
</trkpt>
<trkpt lat="45.8959800" lon="10.2536550">
	<ele>1235.00</ele>
	<time>2025-04-30T08:55:26.000Z</time>
</trkpt>
<trkpt lat="45.8959980" lon="10.2536450">
	<ele>1234.60</ele>
	<time>2025-04-30T08:55:27.000Z</time>
</trkpt>
<trkpt lat="45.8960150" lon="10.2536340">
	<ele>1234.20</ele>
	<time>2025-04-30T08:55:28.000Z</time>
</trkpt>
<trkpt lat="45.8960260" lon="10.2536280">
	<ele>1233.80</ele>
	<time>2025-04-30T08:55:29.000Z</time>
</trkpt>
<trkpt lat="45.8960340" lon="10.2536190">
	<ele>1233.40</ele>
	<time>2025-04-30T08:55:30.000Z</time>
</trkpt>
<trkpt lat="45.8960430" lon="10.2536080">
	<ele>1233.00</ele>
	<time>2025-04-30T08:55:31.000Z</time>
</trkpt>
<trkpt lat="45.8960540" lon="10.2535960">
	<ele>1232.60</ele>
	<time>2025-04-30T08:55:32.000Z</time>
</trkpt>
<trkpt lat="45.8960620" lon="10.2535860">
	<ele>1232.20</ele>
	<time>2025-04-30T08:55:33.000Z</time>
</trkpt>
<trkpt lat="45.8960700" lon="10.2535750">
	<ele>1231.80</ele>
	<time>2025-04-30T08:55:34.000Z</time>
</trkpt>
<trkpt lat="45.8960810" lon="10.2535620">
	<ele>1231.60</ele>
	<time>2025-04-30T08:55:35.000Z</time>
</trkpt>
<trkpt lat="45.8960950" lon="10.2535430">
	<ele>1231.00</ele>
	<time>2025-04-30T08:55:36.000Z</time>
</trkpt>
<trkpt lat="45.8961100" lon="10.2535240">
	<ele>1230.60</ele>
	<time>2025-04-30T08:55:37.000Z</time>
</trkpt>
<trkpt lat="45.8961180" lon="10.2535050">
	<ele>1230.40</ele>
	<time>2025-04-30T08:55:38.000Z</time>
</trkpt>
<trkpt lat="45.8961260" lon="10.2534900">
	<ele>1230.00</ele>
	<time>2025-04-30T08:55:39.000Z</time>
</trkpt>
<trkpt lat="45.8961270" lon="10.2534750">
	<ele>1229.40</ele>
	<time>2025-04-30T08:55:40.000Z</time>
</trkpt>
<trkpt lat="45.8961290" lon="10.2534580">
	<ele>1228.80</ele>
	<time>2025-04-30T08:55:41.000Z</time>
</trkpt>
<trkpt lat="45.8961340" lon="10.2534310">
	<ele>1228.60</ele>
	<time>2025-04-30T08:55:42.000Z</time>
</trkpt>
<trkpt lat="45.8961410" lon="10.2534170">
	<ele>1228.20</ele>
	<time>2025-04-30T08:55:43.000Z</time>
</trkpt>
<trkpt lat="45.8961540" lon="10.2534020">
	<ele>1227.80</ele>
	<time>2025-04-30T08:55:44.000Z</time>
</trkpt>
<trkpt lat="45.8961700" lon="10.2533770">
	<ele>1227.40</ele>
	<time>2025-04-30T08:55:45.000Z</time>
</trkpt>
<trkpt lat="45.8961770" lon="10.2533470">
	<ele>1227.00</ele>
	<time>2025-04-30T08:55:46.000Z</time>
</trkpt>
<trkpt lat="45.8961820" lon="10.2533330">
	<ele>1226.80</ele>
	<time>2025-04-30T08:55:47.000Z</time>
</trkpt>
<trkpt lat="45.8961810" lon="10.2533230">
	<ele>1226.40</ele>
	<time>2025-04-30T08:55:48.000Z</time>
</trkpt>
<trkpt lat="45.8961790" lon="10.2533250">
	<ele>1225.80</ele>
	<time>2025-04-30T08:55:49.000Z</time>
</trkpt>
<trkpt lat="45.8961750" lon="10.2533150">
	<ele>1225.60</ele>
	<time>2025-04-30T08:55:50.000Z</time>
</trkpt>
<trkpt lat="45.8961880" lon="10.2532970">
	<ele>1225.00</ele>
	<time>2025-04-30T08:55:51.000Z</time>
</trkpt>
<trkpt lat="45.8962060" lon="10.2532860">
	<ele>1224.80</ele>
	<time>2025-04-30T08:55:52.000Z</time>
</trkpt>
<trkpt lat="45.8962210" lon="10.2532730">
	<ele>1224.40</ele>
	<time>2025-04-30T08:55:53.000Z</time>
</trkpt>
<trkpt lat="45.8962370" lon="10.2532600">
	<ele>1224.00</ele>
	<time>2025-04-30T08:55:54.000Z</time>
</trkpt>
<trkpt lat="45.8962510" lon="10.2532440">
	<ele>1223.60</ele>
	<time>2025-04-30T08:55:55.000Z</time>
</trkpt>
<trkpt lat="45.8962650" lon="10.2532300">
	<ele>1223.00</ele>
	<time>2025-04-30T08:55:56.000Z</time>
</trkpt>
<trkpt lat="45.8962710" lon="10.2532100">
	<ele>1222.60</ele>
	<time>2025-04-30T08:55:57.000Z</time>
</trkpt>
<trkpt lat="45.8962690" lon="10.2532000">
	<ele>1222.20</ele>
	<time>2025-04-30T08:55:58.000Z</time>
</trkpt>
<trkpt lat="45.8962760" lon="10.2531870">
	<ele>1221.80</ele>
	<time>2025-04-30T08:55:59.000Z</time>
</trkpt>
<trkpt lat="45.8962870" lon="10.2531790">
	<ele>1221.40</ele>
	<time>2025-04-30T08:56:00.000Z</time>
</trkpt>
<trkpt lat="45.8963010" lon="10.2531680">
	<ele>1221.00</ele>
	<time>2025-04-30T08:56:01.000Z</time>
</trkpt>
<trkpt lat="45.8963070" lon="10.2531550">
	<ele>1220.60</ele>
	<time>2025-04-30T08:56:02.000Z</time>
</trkpt>
<trkpt lat="45.8963090" lon="10.2531400">
	<ele>1220.20</ele>
	<time>2025-04-30T08:56:03.000Z</time>
</trkpt>
<trkpt lat="45.8963140" lon="10.2531290">
	<ele>1219.80</ele>
	<time>2025-04-30T08:56:04.000Z</time>
</trkpt>
<trkpt lat="45.8963200" lon="10.2531110">
	<ele>1219.60</ele>
	<time>2025-04-30T08:56:05.000Z</time>
</trkpt>
<trkpt lat="45.8963220" lon="10.2530960">
	<ele>1219.40</ele>
	<time>2025-04-30T08:56:06.000Z</time>
</trkpt>
<trkpt lat="45.8963240" lon="10.2530780">
	<ele>1219.00</ele>
	<time>2025-04-30T08:56:07.000Z</time>
</trkpt>
<trkpt lat="45.8963310" lon="10.2530650">
	<ele>1218.60</ele>
	<time>2025-04-30T08:56:08.000Z</time>
</trkpt>
<trkpt lat="45.8963300" lon="10.2530550">
	<ele>1218.20</ele>
	<time>2025-04-30T08:56:09.000Z</time>
</trkpt>
<trkpt lat="45.8963330" lon="10.2530410">
	<ele>1218.00</ele>
	<time>2025-04-30T08:56:10.000Z</time>
</trkpt>
<trkpt lat="45.8963370" lon="10.2530260">
	<ele>1217.40</ele>
	<time>2025-04-30T08:56:11.000Z</time>
</trkpt>
<trkpt lat="45.8963400" lon="10.2530060">
	<ele>1217.20</ele>
	<time>2025-04-30T08:56:12.000Z</time>
</trkpt>
<trkpt lat="45.8963450" lon="10.2529960">
	<ele>1216.80</ele>
	<time>2025-04-30T08:56:13.000Z</time>
</trkpt>
<trkpt lat="45.8963520" lon="10.2529820">
	<ele>1216.40</ele>
	<time>2025-04-30T08:56:14.000Z</time>
</trkpt>
<trkpt lat="45.8963560" lon="10.2529630">
	<ele>1216.00</ele>
	<time>2025-04-30T08:56:15.000Z</time>
</trkpt>
<trkpt lat="45.8963660" lon="10.2529490">
	<ele>1215.80</ele>
	<time>2025-04-30T08:56:16.000Z</time>
</trkpt>
<trkpt lat="45.8963700" lon="10.2529310">
	<ele>1215.60</ele>
	<time>2025-04-30T08:56:17.000Z</time>
</trkpt>
<trkpt lat="45.8963750" lon="10.2529160">
	<ele>1215.00</ele>
	<time>2025-04-30T08:56:18.000Z</time>
</trkpt>
<trkpt lat="45.8963820" lon="10.2528990">
	<ele>1214.60</ele>
	<time>2025-04-30T08:56:19.000Z</time>
</trkpt>
<trkpt lat="45.8963860" lon="10.2528830">
	<ele>1214.20</ele>
	<time>2025-04-30T08:56:20.000Z</time>
</trkpt>
<trkpt lat="45.8963970" lon="10.2528650">
	<ele>1213.80</ele>
	<time>2025-04-30T08:56:21.000Z</time>
</trkpt>
<trkpt lat="45.8964070" lon="10.2528450">
	<ele>1213.40</ele>
	<time>2025-04-30T08:56:22.000Z</time>
</trkpt>
<trkpt lat="45.8964170" lon="10.2528230">
	<ele>1213.20</ele>
	<time>2025-04-30T08:56:23.000Z</time>
</trkpt>
<trkpt lat="45.8964280" lon="10.2528020">
	<ele>1212.80</ele>
	<time>2025-04-30T08:56:24.000Z</time>
</trkpt>
<trkpt lat="45.8964300" lon="10.2527870">
	<ele>1212.80</ele>
	<time>2025-04-30T08:56:25.000Z</time>
</trkpt>
<trkpt lat="45.8964370" lon="10.2527710">
	<ele>1212.20</ele>
	<time>2025-04-30T08:56:26.000Z</time>
</trkpt>
<trkpt lat="45.8964360" lon="10.2527590">
	<ele>1211.80</ele>
	<time>2025-04-30T08:56:27.000Z</time>
</trkpt>
<trkpt lat="45.8964390" lon="10.2527500">
	<ele>1211.40</ele>
	<time>2025-04-30T08:56:28.000Z</time>
</trkpt>
<trkpt lat="45.8964470" lon="10.2527340">
	<ele>1211.20</ele>
	<time>2025-04-30T08:56:29.000Z</time>
</trkpt>
<trkpt lat="45.8964600" lon="10.2527150">
	<ele>1210.80</ele>
	<time>2025-04-30T08:56:30.000Z</time>
</trkpt>
<trkpt lat="45.8964570" lon="10.2526890">
	<ele>1210.40</ele>
	<time>2025-04-30T08:56:31.000Z</time>
</trkpt>
<trkpt lat="45.8964530" lon="10.2526720">
	<ele>1210.00</ele>
	<time>2025-04-30T08:56:32.000Z</time>
</trkpt>
<trkpt lat="45.8964520" lon="10.2526540">
	<ele>1209.80</ele>
	<time>2025-04-30T08:56:33.000Z</time>
</trkpt>
<trkpt lat="45.8964610" lon="10.2526270">
	<ele>1209.40</ele>
	<time>2025-04-30T08:56:34.000Z</time>
</trkpt>
<trkpt lat="45.8964680" lon="10.2526070">
	<ele>1209.00</ele>
	<time>2025-04-30T08:56:35.000Z</time>
</trkpt>
<trkpt lat="45.8964710" lon="10.2525940">
	<ele>1208.80</ele>
	<time>2025-04-30T08:56:36.000Z</time>
</trkpt>
<trkpt lat="45.8964700" lon="10.2525760">
	<ele>1208.60</ele>
	<time>2025-04-30T08:56:37.000Z</time>
</trkpt>
<trkpt lat="45.8964710" lon="10.2525550">
	<ele>1208.20</ele>
	<time>2025-04-30T08:56:38.000Z</time>
</trkpt>
<trkpt lat="45.8964810" lon="10.2525390">
	<ele>1207.80</ele>
	<time>2025-04-30T08:56:39.000Z</time>
</trkpt>
<trkpt lat="45.8964850" lon="10.2525220">
	<ele>1207.40</ele>
	<time>2025-04-30T08:56:40.000Z</time>
</trkpt>
<trkpt lat="45.8964870" lon="10.2525080">
	<ele>1207.20</ele>
	<time>2025-04-30T08:56:41.000Z</time>
</trkpt>
<trkpt lat="45.8964900" lon="10.2524940">
	<ele>1207.20</ele>
	<time>2025-04-30T08:56:42.000Z</time>
</trkpt>
<trkpt lat="45.8964840" lon="10.2524840">
	<ele>1206.60</ele>
	<time>2025-04-30T08:56:43.000Z</time>
</trkpt>
<trkpt lat="45.8964780" lon="10.2524740">
	<ele>1206.40</ele>
	<time>2025-04-30T08:56:44.000Z</time>
</trkpt>
<trkpt lat="45.8964770" lon="10.2524670">
	<ele>1206.20</ele>
	<time>2025-04-30T08:56:45.000Z</time>
</trkpt>
<trkpt lat="45.8964730" lon="10.2524610">
	<ele>1205.80</ele>
	<time>2025-04-30T08:56:46.000Z</time>
</trkpt>
<trkpt lat="45.8964740" lon="10.2524490">
	<ele>1205.60</ele>
	<time>2025-04-30T08:56:47.000Z</time>
</trkpt>
<trkpt lat="45.8964750" lon="10.2524340">
	<ele>1205.40</ele>
	<time>2025-04-30T08:56:48.000Z</time>
</trkpt>
<trkpt lat="45.8964810" lon="10.2524200">
	<ele>1205.00</ele>
	<time>2025-04-30T08:56:49.000Z</time>
</trkpt>
<trkpt lat="45.8964850" lon="10.2523940">
	<ele>1204.60</ele>
	<time>2025-04-30T08:56:50.000Z</time>
</trkpt>
<trkpt lat="45.8964870" lon="10.2523810">
	<ele>1204.40</ele>
	<time>2025-04-30T08:56:51.000Z</time>
</trkpt>
<trkpt lat="45.8964880" lon="10.2523700">
	<ele>1204.00</ele>
	<time>2025-04-30T08:56:52.000Z</time>
</trkpt>
<trkpt lat="45.8964890" lon="10.2523540">
	<ele>1203.80</ele>
	<time>2025-04-30T08:56:53.000Z</time>
</trkpt>
<trkpt lat="45.8964950" lon="10.2523400">
	<ele>1203.20</ele>
	<time>2025-04-30T08:56:54.000Z</time>
</trkpt>
<trkpt lat="45.8964970" lon="10.2523230">
	<ele>1203.00</ele>
	<time>2025-04-30T08:56:55.000Z</time>
</trkpt>
<trkpt lat="45.8965020" lon="10.2523000">
	<ele>1202.40</ele>
	<time>2025-04-30T08:56:56.000Z</time>
</trkpt>
<trkpt lat="45.8965080" lon="10.2522840">
	<ele>1202.00</ele>
	<time>2025-04-30T08:56:57.000Z</time>
</trkpt>
<trkpt lat="45.8965150" lon="10.2522720">
	<ele>1201.60</ele>
	<time>2025-04-30T08:56:58.000Z</time>
</trkpt>
<trkpt lat="45.8965200" lon="10.2522550">
	<ele>1201.20</ele>
	<time>2025-04-30T08:56:59.000Z</time>
</trkpt>
<trkpt lat="45.8965290" lon="10.2522390">
	<ele>1200.80</ele>
	<time>2025-04-30T08:57:00.000Z</time>
</trkpt>
<trkpt lat="45.8965360" lon="10.2522130">
	<ele>1200.60</ele>
	<time>2025-04-30T08:57:01.000Z</time>
</trkpt>
<trkpt lat="45.8965380" lon="10.2521930">
	<ele>1200.40</ele>
	<time>2025-04-30T08:57:02.000Z</time>
</trkpt>
<trkpt lat="45.8965450" lon="10.2521750">
	<ele>1199.80</ele>
	<time>2025-04-30T08:57:03.000Z</time>
</trkpt>
<trkpt lat="45.8965410" lon="10.2521580">
	<ele>1199.60</ele>
	<time>2025-04-30T08:57:04.000Z</time>
</trkpt>
<trkpt lat="45.8965400" lon="10.2521430">
	<ele>1199.20</ele>
	<time>2025-04-30T08:57:05.000Z</time>
</trkpt>
<trkpt lat="45.8965490" lon="10.2521360">
	<ele>1198.80</ele>
	<time>2025-04-30T08:57:06.000Z</time>
</trkpt>
<trkpt lat="45.8965550" lon="10.2521210">
	<ele>1198.40</ele>
	<time>2025-04-30T08:57:07.000Z</time>
</trkpt>
<trkpt lat="45.8965530" lon="10.2521070">
	<ele>1198.20</ele>
	<time>2025-04-30T08:57:08.000Z</time>
</trkpt>
<trkpt lat="45.8965550" lon="10.2520860">
	<ele>1197.80</ele>
	<time>2025-04-30T08:57:09.000Z</time>
</trkpt>
<trkpt lat="45.8965580" lon="10.2520660">
	<ele>1197.60</ele>
	<time>2025-04-30T08:57:10.000Z</time>
</trkpt>
<trkpt lat="45.8965610" lon="10.2520490">
	<ele>1197.20</ele>
	<time>2025-04-30T08:57:11.000Z</time>
</trkpt>
<trkpt lat="45.8965620" lon="10.2520310">
	<ele>1197.00</ele>
	<time>2025-04-30T08:57:12.000Z</time>
</trkpt>
<trkpt lat="45.8965610" lon="10.2520090">
	<ele>1196.60</ele>
	<time>2025-04-30T08:57:13.000Z</time>
</trkpt>
<trkpt lat="45.8965670" lon="10.2519850">
	<ele>1196.20</ele>
	<time>2025-04-30T08:57:14.000Z</time>
</trkpt>
<trkpt lat="45.8965780" lon="10.2519570">
	<ele>1196.00</ele>
	<time>2025-04-30T08:57:15.000Z</time>
</trkpt>
<trkpt lat="45.8965860" lon="10.2519390">
	<ele>1195.80</ele>
	<time>2025-04-30T08:57:16.000Z</time>
</trkpt>
<trkpt lat="45.8965920" lon="10.2519250">
	<ele>1195.40</ele>
	<time>2025-04-30T08:57:17.000Z</time>
</trkpt>
<trkpt lat="45.8966020" lon="10.2519050">
	<ele>1195.00</ele>
	<time>2025-04-30T08:57:18.000Z</time>
</trkpt>
<trkpt lat="45.8966070" lon="10.2518870">
	<ele>1194.60</ele>
	<time>2025-04-30T08:57:19.000Z</time>
</trkpt>
<trkpt lat="45.8966200" lon="10.2518690">
	<ele>1194.40</ele>
	<time>2025-04-30T08:57:20.000Z</time>
</trkpt>
<trkpt lat="45.8966370" lon="10.2518550">
	<ele>1194.20</ele>
	<time>2025-04-30T08:57:21.000Z</time>
</trkpt>
<trkpt lat="45.8966540" lon="10.2518340">
	<ele>1194.00</ele>
	<time>2025-04-30T08:57:22.000Z</time>
</trkpt>
<trkpt lat="45.8966630" lon="10.2518170">
	<ele>1193.80</ele>
	<time>2025-04-30T08:57:23.000Z</time>
</trkpt>
<trkpt lat="45.8966740" lon="10.2517980">
	<ele>1193.40</ele>
	<time>2025-04-30T08:57:24.000Z</time>
</trkpt>
<trkpt lat="45.8966940" lon="10.2517860">
	<ele>1193.20</ele>
	<time>2025-04-30T08:57:25.000Z</time>
</trkpt>
<trkpt lat="45.8967150" lon="10.2517680">
	<ele>1193.20</ele>
	<time>2025-04-30T08:57:26.000Z</time>
</trkpt>
<trkpt lat="45.8967380" lon="10.2517450">
	<ele>1193.00</ele>
	<time>2025-04-30T08:57:27.000Z</time>
</trkpt>
<trkpt lat="45.8967460" lon="10.2517250">
	<ele>1192.60</ele>
	<time>2025-04-30T08:57:28.000Z</time>
</trkpt>
<trkpt lat="45.8967470" lon="10.2517090">
	<ele>1192.40</ele>
	<time>2025-04-30T08:57:29.000Z</time>
</trkpt>
<trkpt lat="45.8967470" lon="10.2516900">
	<ele>1192.20</ele>
	<time>2025-04-30T08:57:30.000Z</time>
</trkpt>
<trkpt lat="45.8967380" lon="10.2516670">
	<ele>1192.00</ele>
	<time>2025-04-30T08:57:31.000Z</time>
</trkpt>
<trkpt lat="45.8967300" lon="10.2516530">
	<ele>1192.00</ele>
	<time>2025-04-30T08:57:32.000Z</time>
</trkpt>
<trkpt lat="45.8967220" lon="10.2516410">
	<ele>1191.80</ele>
	<time>2025-04-30T08:57:33.000Z</time>
</trkpt>
<trkpt lat="45.8967230" lon="10.2516350">
	<ele>1191.80</ele>
	<time>2025-04-30T08:57:34.000Z</time>
</trkpt>
<trkpt lat="45.8967280" lon="10.2516300">
	<ele>1191.40</ele>
	<time>2025-04-30T08:57:35.000Z</time>
</trkpt>
<trkpt lat="45.8967370" lon="10.2516230">
	<ele>1191.20</ele>
	<time>2025-04-30T08:57:36.000Z</time>
</trkpt>
<trkpt lat="45.8967430" lon="10.2516110">
	<ele>1190.80</ele>
	<time>2025-04-30T08:57:37.000Z</time>
</trkpt>
<trkpt lat="45.8967530" lon="10.2515970">
	<ele>1190.60</ele>
	<time>2025-04-30T08:57:38.000Z</time>
</trkpt>
<trkpt lat="45.8967570" lon="10.2515840">
	<ele>1190.40</ele>
	<time>2025-04-30T08:57:39.000Z</time>
</trkpt>
<trkpt lat="45.8967580" lon="10.2515720">
	<ele>1190.20</ele>
	<time>2025-04-30T08:57:40.000Z</time>
</trkpt>
<trkpt lat="45.8967680" lon="10.2515590">
	<ele>1189.80</ele>
	<time>2025-04-30T08:57:41.000Z</time>
</trkpt>
<trkpt lat="45.8967770" lon="10.2515440">
	<ele>1189.40</ele>
	<time>2025-04-30T08:57:42.000Z</time>
</trkpt>
<trkpt lat="45.8967790" lon="10.2515240">
	<ele>1189.20</ele>
	<time>2025-04-30T08:57:43.000Z</time>
</trkpt>
<trkpt lat="45.8967860" lon="10.2515010">
	<ele>1188.60</ele>
	<time>2025-04-30T08:57:44.000Z</time>
</trkpt>
<trkpt lat="45.8967870" lon="10.2514850">
	<ele>1188.40</ele>
	<time>2025-04-30T08:57:45.000Z</time>
</trkpt>
<trkpt lat="45.8967840" lon="10.2514800">
	<ele>1188.00</ele>
	<time>2025-04-30T08:57:46.000Z</time>
</trkpt>
<trkpt lat="45.8967830" lon="10.2514750">
	<ele>1187.60</ele>
	<time>2025-04-30T08:57:47.000Z</time>
</trkpt>
<trkpt lat="45.8967850" lon="10.2514790">
	<ele>1187.20</ele>
	<time>2025-04-30T08:57:48.000Z</time>
</trkpt>
<trkpt lat="45.8967820" lon="10.2514810">
	<ele>1186.80</ele>
	<time>2025-04-30T08:57:49.000Z</time>
</trkpt>
<trkpt lat="45.8967700" lon="10.2514890">
	<ele>1186.60</ele>
	<time>2025-04-30T08:57:50.000Z</time>
</trkpt>
<trkpt lat="45.8967690" lon="10.2514950">
	<ele>1186.20</ele>
	<time>2025-04-30T08:57:51.000Z</time>
</trkpt>
<trkpt lat="45.8967630" lon="10.2515030">
	<ele>1185.80</ele>
	<time>2025-04-30T08:57:52.000Z</time>
</trkpt>
<trkpt lat="45.8967660" lon="10.2515170">
	<ele>1185.60</ele>
	<time>2025-04-30T08:57:53.000Z</time>
</trkpt>
<trkpt lat="45.8967630" lon="10.2515280">
	<ele>1185.20</ele>
	<time>2025-04-30T08:57:54.000Z</time>
</trkpt>
<trkpt lat="45.8967600" lon="10.2515340">
	<ele>1184.80</ele>
	<time>2025-04-30T08:57:55.000Z</time>
</trkpt>
<trkpt lat="45.8967540" lon="10.2515350">
	<ele>1184.40</ele>
	<time>2025-04-30T08:57:56.000Z</time>
</trkpt>
<trkpt lat="45.8967440" lon="10.2515410">
	<ele>1184.00</ele>
	<time>2025-04-30T08:57:57.000Z</time>
</trkpt>
<trkpt lat="45.8967410" lon="10.2515500">
	<ele>1183.60</ele>
	<time>2025-04-30T08:57:58.000Z</time>
</trkpt>
<trkpt lat="45.8967330" lon="10.2515640">
	<ele>1183.40</ele>
	<time>2025-04-30T08:57:59.000Z</time>
</trkpt>
<trkpt lat="45.8967260" lon="10.2515790">
	<ele>1183.00</ele>
	<time>2025-04-30T08:58:00.000Z</time>
</trkpt>
<trkpt lat="45.8967150" lon="10.2516030">
	<ele>1182.60</ele>
	<time>2025-04-30T08:58:01.000Z</time>
</trkpt>
<trkpt lat="45.8967070" lon="10.2516230">
	<ele>1182.20</ele>
	<time>2025-04-30T08:58:02.000Z</time>
</trkpt>
<trkpt lat="45.8966990" lon="10.2516450">
	<ele>1182.00</ele>
	<time>2025-04-30T08:58:03.000Z</time>
</trkpt>
<trkpt lat="45.8967020" lon="10.2516550">
	<ele>1181.60</ele>
	<time>2025-04-30T08:58:04.000Z</time>
</trkpt>
<trkpt lat="45.8967030" lon="10.2516710">
	<ele>1181.20</ele>
	<time>2025-04-30T08:58:05.000Z</time>
</trkpt>
<trkpt lat="45.8967070" lon="10.2516960">
	<ele>1180.80</ele>
	<time>2025-04-30T08:58:06.000Z</time>
</trkpt>
<trkpt lat="45.8967120" lon="10.2517210">
	<ele>1180.20</ele>
	<time>2025-04-30T08:58:07.000Z</time>
</trkpt>
<trkpt lat="45.8967170" lon="10.2517450">
	<ele>1180.00</ele>
	<time>2025-04-30T08:58:08.000Z</time>
</trkpt>
<trkpt lat="45.8967170" lon="10.2517670">
	<ele>1179.40</ele>
	<time>2025-04-30T08:58:09.000Z</time>
</trkpt>
<trkpt lat="45.8967160" lon="10.2517880">
	<ele>1179.20</ele>
	<time>2025-04-30T08:58:10.000Z</time>
</trkpt>
<trkpt lat="45.8967040" lon="10.2517980">
	<ele>1178.80</ele>
	<time>2025-04-30T08:58:11.000Z</time>
</trkpt>
<trkpt lat="45.8966930" lon="10.2518070">
	<ele>1178.40</ele>
	<time>2025-04-30T08:58:12.000Z</time>
</trkpt>
<trkpt lat="45.8966920" lon="10.2518170">
	<ele>1178.00</ele>
	<time>2025-04-30T08:58:13.000Z</time>
</trkpt>
<trkpt lat="45.8966920" lon="10.2518360">
	<ele>1177.60</ele>
	<time>2025-04-30T08:58:14.000Z</time>
</trkpt>
<trkpt lat="45.8966960" lon="10.2518520">
	<ele>1177.40</ele>
	<time>2025-04-30T08:58:15.000Z</time>
</trkpt>
<trkpt lat="45.8967000" lon="10.2518720">
	<ele>1177.00</ele>
	<time>2025-04-30T08:58:16.000Z</time>
</trkpt>
<trkpt lat="45.8967030" lon="10.2518880">
	<ele>1176.60</ele>
	<time>2025-04-30T08:58:17.000Z</time>
</trkpt>
<trkpt lat="45.8967110" lon="10.2519070">
	<ele>1176.20</ele>
	<time>2025-04-30T08:58:18.000Z</time>
</trkpt>
<trkpt lat="45.8967190" lon="10.2519240">
	<ele>1175.80</ele>
	<time>2025-04-30T08:58:19.000Z</time>
</trkpt>
<trkpt lat="45.8967240" lon="10.2519320">
	<ele>1175.40</ele>
	<time>2025-04-30T08:58:20.000Z</time>
</trkpt>
<trkpt lat="45.8967280" lon="10.2519400">
	<ele>1175.00</ele>
	<time>2025-04-30T08:58:21.000Z</time>
</trkpt>
<trkpt lat="45.8967320" lon="10.2519510">
	<ele>1174.60</ele>
	<time>2025-04-30T08:58:22.000Z</time>
</trkpt>
<trkpt lat="45.8967400" lon="10.2519680">
	<ele>1174.20</ele>
	<time>2025-04-30T08:58:23.000Z</time>
</trkpt>
<trkpt lat="45.8967470" lon="10.2519920">
	<ele>1173.80</ele>
	<time>2025-04-30T08:58:24.000Z</time>
</trkpt>
<trkpt lat="45.8967470" lon="10.2520260">
	<ele>1173.40</ele>
	<time>2025-04-30T08:58:25.000Z</time>
</trkpt>
<trkpt lat="45.8967360" lon="10.2520560">
	<ele>1173.00</ele>
	<time>2025-04-30T08:58:26.000Z</time>
</trkpt>
<trkpt lat="45.8967320" lon="10.2520620">
	<ele>1172.60</ele>
	<time>2025-04-30T08:58:27.000Z</time>
</trkpt>
<trkpt lat="45.8967430" lon="10.2520560">
	<ele>1172.20</ele>
	<time>2025-04-30T08:58:28.000Z</time>
</trkpt>
<trkpt lat="45.8967530" lon="10.2520670">
	<ele>1171.80</ele>
	<time>2025-04-30T08:58:29.000Z</time>
</trkpt>
<trkpt lat="45.8967670" lon="10.2520860">
	<ele>1171.40</ele>
	<time>2025-04-30T08:58:30.000Z</time>
</trkpt>
<trkpt lat="45.8967790" lon="10.2521070">
	<ele>1171.00</ele>
	<time>2025-04-30T08:58:31.000Z</time>
</trkpt>
<trkpt lat="45.8967820" lon="10.2521290">
	<ele>1170.60</ele>
	<time>2025-04-30T08:58:32.000Z</time>
</trkpt>
<trkpt lat="45.8967860" lon="10.2521350">
	<ele>1170.40</ele>
	<time>2025-04-30T08:58:33.000Z</time>
</trkpt>
<trkpt lat="45.8967870" lon="10.2521400">
	<ele>1170.00</ele>
	<time>2025-04-30T08:58:34.000Z</time>
</trkpt>
<trkpt lat="45.8967800" lon="10.2521560">
	<ele>1169.40</ele>
	<time>2025-04-30T08:58:35.000Z</time>
</trkpt>
<trkpt lat="45.8967830" lon="10.2521730">
	<ele>1169.00</ele>
	<time>2025-04-30T08:58:36.000Z</time>
</trkpt>
<trkpt lat="45.8967900" lon="10.2521860">
	<ele>1168.80</ele>
	<time>2025-04-30T08:58:37.000Z</time>
</trkpt>
<trkpt lat="45.8968050" lon="10.2521910">
	<ele>1168.60</ele>
	<time>2025-04-30T08:58:38.000Z</time>
</trkpt>
<trkpt lat="45.8968140" lon="10.2522080">
	<ele>1168.00</ele>
	<time>2025-04-30T08:58:39.000Z</time>
</trkpt>
<trkpt lat="45.8968160" lon="10.2522130">
	<ele>1167.60</ele>
	<time>2025-04-30T08:58:40.000Z</time>
</trkpt>
<trkpt lat="45.8968180" lon="10.2522130">
	<ele>1167.40</ele>
	<time>2025-04-30T08:58:41.000Z</time>
</trkpt>
<trkpt lat="45.8968100" lon="10.2522340">
	<ele>1167.20</ele>
	<time>2025-04-30T08:58:42.000Z</time>
</trkpt>
<trkpt lat="45.8968060" lon="10.2522570">
	<ele>1167.00</ele>
	<time>2025-04-30T08:58:43.000Z</time>
</trkpt>
<trkpt lat="45.8968050" lon="10.2522750">
	<ele>1166.80</ele>
	<time>2025-04-30T08:58:44.000Z</time>
</trkpt>
<trkpt lat="45.8968020" lon="10.2522960">
	<ele>1166.60</ele>
	<time>2025-04-30T08:58:45.000Z</time>
</trkpt>
<trkpt lat="45.8968000" lon="10.2523130">
	<ele>1166.40</ele>
	<time>2025-04-30T08:58:46.000Z</time>
</trkpt>
<trkpt lat="45.8968000" lon="10.2523380">
	<ele>1166.00</ele>
	<time>2025-04-30T08:58:47.000Z</time>
</trkpt>
<trkpt lat="45.8968000" lon="10.2523600">
	<ele>1165.80</ele>
	<time>2025-04-30T08:58:48.000Z</time>
</trkpt>
<trkpt lat="45.8967990" lon="10.2523750">
	<ele>1165.60</ele>
	<time>2025-04-30T08:58:49.000Z</time>
</trkpt>
<trkpt lat="45.8968010" lon="10.2523800">
	<ele>1165.20</ele>
	<time>2025-04-30T08:58:50.000Z</time>
</trkpt>
<trkpt lat="45.8968000" lon="10.2524060">
	<ele>1165.00</ele>
	<time>2025-04-30T08:58:51.000Z</time>
</trkpt>
<trkpt lat="45.8967960" lon="10.2524240">
	<ele>1164.60</ele>
	<time>2025-04-30T08:58:52.000Z</time>
</trkpt>
<trkpt lat="45.8967860" lon="10.2524440">
	<ele>1164.40</ele>
	<time>2025-04-30T08:58:53.000Z</time>
</trkpt>
<trkpt lat="45.8967680" lon="10.2524660">
	<ele>1164.00</ele>
	<time>2025-04-30T08:58:54.000Z</time>
</trkpt>
<trkpt lat="45.8967370" lon="10.2524900">
	<ele>1163.80</ele>
	<time>2025-04-30T08:58:55.000Z</time>
</trkpt>
<trkpt lat="45.8967110" lon="10.2525110">
	<ele>1163.60</ele>
	<time>2025-04-30T08:58:56.000Z</time>
</trkpt>
<trkpt lat="45.8967160" lon="10.2525250">
	<ele>1163.20</ele>
	<time>2025-04-30T08:58:57.000Z</time>
</trkpt>
<trkpt lat="45.8967230" lon="10.2525430">
	<ele>1163.00</ele>
	<time>2025-04-30T08:58:58.000Z</time>
</trkpt>
<trkpt lat="45.8967300" lon="10.2525560">
	<ele>1162.80</ele>
	<time>2025-04-30T08:58:59.000Z</time>
</trkpt>
<trkpt lat="45.8967360" lon="10.2525710">
	<ele>1162.60</ele>
	<time>2025-04-30T08:59:00.000Z</time>
</trkpt>
<trkpt lat="45.8967410" lon="10.2525980">
	<ele>1162.20</ele>
	<time>2025-04-30T08:59:01.000Z</time>
</trkpt>
<trkpt lat="45.8967600" lon="10.2526230">
	<ele>1162.00</ele>
	<time>2025-04-30T08:59:02.000Z</time>
</trkpt>
<trkpt lat="45.8967800" lon="10.2526470">
	<ele>1162.00</ele>
	<time>2025-04-30T08:59:03.000Z</time>
</trkpt>
<trkpt lat="45.8967950" lon="10.2526710">
	<ele>1161.80</ele>
	<time>2025-04-30T08:59:04.000Z</time>
</trkpt>
<trkpt lat="45.8968030" lon="10.2526950">
	<ele>1161.60</ele>
	<time>2025-04-30T08:59:05.000Z</time>
</trkpt>
<trkpt lat="45.8968100" lon="10.2527230">
	<ele>1161.40</ele>
	<time>2025-04-30T08:59:06.000Z</time>
</trkpt>
<trkpt lat="45.8968180" lon="10.2527500">
	<ele>1161.20</ele>
	<time>2025-04-30T08:59:07.000Z</time>
</trkpt>
<trkpt lat="45.8968210" lon="10.2527700">
	<ele>1161.00</ele>
	<time>2025-04-30T08:59:08.000Z</time>
</trkpt>
<trkpt lat="45.8968230" lon="10.2527960">
	<ele>1160.80</ele>
	<time>2025-04-30T08:59:09.000Z</time>
</trkpt>
<trkpt lat="45.8968320" lon="10.2528140">
	<ele>1160.60</ele>
	<time>2025-04-30T08:59:10.000Z</time>
</trkpt>
<trkpt lat="45.8968360" lon="10.2528370">
	<ele>1160.60</ele>
	<time>2025-04-30T08:59:11.000Z</time>
</trkpt>
<trkpt lat="45.8968390" lon="10.2528600">
	<ele>1160.40</ele>
	<time>2025-04-30T08:59:12.000Z</time>
</trkpt>
<trkpt lat="45.8968460" lon="10.2528860">
	<ele>1160.40</ele>
	<time>2025-04-30T08:59:13.000Z</time>
</trkpt>
<trkpt lat="45.8968590" lon="10.2529130">
	<ele>1160.20</ele>
	<time>2025-04-30T08:59:14.000Z</time>
</trkpt>
<trkpt lat="45.8968580" lon="10.2529370">
	<ele>1160.20</ele>
	<time>2025-04-30T08:59:15.000Z</time>
</trkpt>
<trkpt lat="45.8968560" lon="10.2529640">
	<ele>1159.80</ele>
	<time>2025-04-30T08:59:16.000Z</time>
</trkpt>
<trkpt lat="45.8968550" lon="10.2529850">
	<ele>1159.60</ele>
	<time>2025-04-30T08:59:17.000Z</time>
</trkpt>
<trkpt lat="45.8968550" lon="10.2530060">
	<ele>1159.40</ele>
	<time>2025-04-30T08:59:18.000Z</time>
</trkpt>
<trkpt lat="45.8968590" lon="10.2530260">
	<ele>1159.20</ele>
	<time>2025-04-30T08:59:19.000Z</time>
</trkpt>
<trkpt lat="45.8968660" lon="10.2530460">
	<ele>1159.00</ele>
	<time>2025-04-30T08:59:20.000Z</time>
</trkpt>
<trkpt lat="45.8968770" lon="10.2530630">
	<ele>1159.00</ele>
	<time>2025-04-30T08:59:21.000Z</time>
</trkpt>
<trkpt lat="45.8968870" lon="10.2530810">
	<ele>1158.80</ele>
	<time>2025-04-30T08:59:22.000Z</time>
</trkpt>
<trkpt lat="45.8968870" lon="10.2531080">
	<ele>1158.60</ele>
	<time>2025-04-30T08:59:23.000Z</time>
</trkpt>
<trkpt lat="45.8968810" lon="10.2531240">
	<ele>1158.40</ele>
	<time>2025-04-30T08:59:24.000Z</time>
</trkpt>
<trkpt lat="45.8968730" lon="10.2531400">
	<ele>1158.20</ele>
	<time>2025-04-30T08:59:25.000Z</time>
</trkpt>
<trkpt lat="45.8968710" lon="10.2531530">
	<ele>1158.20</ele>
	<time>2025-04-30T08:59:26.000Z</time>
</trkpt>
<trkpt lat="45.8968720" lon="10.2531750">
	<ele>1158.00</ele>
	<time>2025-04-30T08:59:27.000Z</time>
</trkpt>
<trkpt lat="45.8968780" lon="10.2531940">
	<ele>1157.80</ele>
	<time>2025-04-30T08:59:28.000Z</time>
</trkpt>
<trkpt lat="45.8968890" lon="10.2532130">
	<ele>1157.80</ele>
	<time>2025-04-30T08:59:29.000Z</time>
</trkpt>
<trkpt lat="45.8969020" lon="10.2532330">
	<ele>1157.60</ele>
	<time>2025-04-30T08:59:30.000Z</time>
</trkpt>
<trkpt lat="45.8969150" lon="10.2532550">
	<ele>1157.20</ele>
	<time>2025-04-30T08:59:31.000Z</time>
</trkpt>
<trkpt lat="45.8969170" lon="10.2532780">
	<ele>1156.80</ele>
	<time>2025-04-30T08:59:32.000Z</time>
</trkpt>
<trkpt lat="45.8969190" lon="10.2532990">
	<ele>1156.60</ele>
	<time>2025-04-30T08:59:33.000Z</time>
</trkpt>
<trkpt lat="45.8969190" lon="10.2533210">
	<ele>1156.40</ele>
	<time>2025-04-30T08:59:34.000Z</time>
</trkpt>
<trkpt lat="45.8969230" lon="10.2533430">
	<ele>1156.00</ele>
	<time>2025-04-30T08:59:35.000Z</time>
</trkpt>
<trkpt lat="45.8969250" lon="10.2533580">
	<ele>1155.80</ele>
	<time>2025-04-30T08:59:36.000Z</time>
</trkpt>
<trkpt lat="45.8969360" lon="10.2533750">
	<ele>1155.40</ele>
	<time>2025-04-30T08:59:37.000Z</time>
</trkpt>
<trkpt lat="45.8969440" lon="10.2533870">
	<ele>1155.20</ele>
	<time>2025-04-30T08:59:38.000Z</time>
</trkpt>
<trkpt lat="45.8969570" lon="10.2533990">
	<ele>1154.80</ele>
	<time>2025-04-30T08:59:39.000Z</time>
</trkpt>
<trkpt lat="45.8969730" lon="10.2534110">
	<ele>1154.00</ele>
	<time>2025-04-30T08:59:40.000Z</time>
</trkpt>
<trkpt lat="45.8969850" lon="10.2534280">
	<ele>1153.60</ele>
	<time>2025-04-30T08:59:41.000Z</time>
</trkpt>
<trkpt lat="45.8969940" lon="10.2534490">
	<ele>1153.20</ele>
	<time>2025-04-30T08:59:42.000Z</time>
</trkpt>
<trkpt lat="45.8969960" lon="10.2534650">
	<ele>1152.80</ele>
	<time>2025-04-30T08:59:43.000Z</time>
</trkpt>
<trkpt lat="45.8969990" lon="10.2534740">
	<ele>1152.60</ele>
	<time>2025-04-30T08:59:44.000Z</time>
</trkpt>
<trkpt lat="45.8970010" lon="10.2534870">
	<ele>1152.40</ele>
	<time>2025-04-30T08:59:45.000Z</time>
</trkpt>
<trkpt lat="45.8970100" lon="10.2534950">
	<ele>1152.20</ele>
	<time>2025-04-30T08:59:46.000Z</time>
</trkpt>
<trkpt lat="45.8970150" lon="10.2535090">
	<ele>1152.00</ele>
	<time>2025-04-30T08:59:47.000Z</time>
</trkpt>
<trkpt lat="45.8970220" lon="10.2535210">
	<ele>1151.80</ele>
	<time>2025-04-30T08:59:48.000Z</time>
</trkpt>
<trkpt lat="45.8970370" lon="10.2535280">
	<ele>1151.20</ele>
	<time>2025-04-30T08:59:49.000Z</time>
</trkpt>
<trkpt lat="45.8970430" lon="10.2535320">
	<ele>1150.80</ele>
	<time>2025-04-30T08:59:50.000Z</time>
</trkpt>
<trkpt lat="45.8970470" lon="10.2535340">
	<ele>1150.60</ele>
	<time>2025-04-30T08:59:51.000Z</time>
</trkpt>
<trkpt lat="45.8970580" lon="10.2535420">
	<ele>1150.40</ele>
	<time>2025-04-30T08:59:52.000Z</time>
</trkpt>
<trkpt lat="45.8970770" lon="10.2535510">
	<ele>1150.00</ele>
	<time>2025-04-30T08:59:53.000Z</time>
</trkpt>
<trkpt lat="45.8971000" lon="10.2535600">
	<ele>1149.60</ele>
	<time>2025-04-30T08:59:54.000Z</time>
</trkpt>
<trkpt lat="45.8971150" lon="10.2535740">
	<ele>1149.40</ele>
	<time>2025-04-30T08:59:55.000Z</time>
</trkpt>
<trkpt lat="45.8971260" lon="10.2535940">
	<ele>1149.00</ele>
	<time>2025-04-30T08:59:56.000Z</time>
</trkpt>
<trkpt lat="45.8971310" lon="10.2536100">
	<ele>1148.80</ele>
	<time>2025-04-30T08:59:57.000Z</time>
</trkpt>
<trkpt lat="45.8971400" lon="10.2536250">
	<ele>1148.40</ele>
	<time>2025-04-30T08:59:58.000Z</time>
</trkpt>
<trkpt lat="45.8971490" lon="10.2536360">
	<ele>1147.80</ele>
	<time>2025-04-30T08:59:59.000Z</time>
</trkpt>
<trkpt lat="45.8971540" lon="10.2536420">
	<ele>1147.60</ele>
	<time>2025-04-30T09:00:00.000Z</time>
</trkpt>
<trkpt lat="45.8971560" lon="10.2536520">
	<ele>1147.20</ele>
	<time>2025-04-30T09:00:01.000Z</time>
</trkpt>
<trkpt lat="45.8971720" lon="10.2536640">
	<ele>1146.80</ele>
	<time>2025-04-30T09:00:02.000Z</time>
</trkpt>
<trkpt lat="45.8971990" lon="10.2536780">
	<ele>1146.40</ele>
	<time>2025-04-30T09:00:03.000Z</time>
</trkpt>
<trkpt lat="45.8972230" lon="10.2536790">
	<ele>1146.20</ele>
	<time>2025-04-30T09:00:04.000Z</time>
</trkpt>
<trkpt lat="45.8972440" lon="10.2536760">
	<ele>1145.80</ele>
	<time>2025-04-30T09:00:05.000Z</time>
</trkpt>
<trkpt lat="45.8972560" lon="10.2536690">
	<ele>1145.20</ele>
	<time>2025-04-30T09:00:06.000Z</time>
</trkpt>
<trkpt lat="45.8972590" lon="10.2536650">
	<ele>1145.00</ele>
	<time>2025-04-30T09:00:07.000Z</time>
</trkpt>
<trkpt lat="45.8972660" lon="10.2536680">
	<ele>1144.60</ele>
	<time>2025-04-30T09:00:08.000Z</time>
</trkpt>
<trkpt lat="45.8972720" lon="10.2536700">
	<ele>1144.40</ele>
	<time>2025-04-30T09:00:09.000Z</time>
</trkpt>
<trkpt lat="45.8972820" lon="10.2536660">
	<ele>1143.80</ele>
	<time>2025-04-30T09:00:10.000Z</time>
</trkpt>
<trkpt lat="45.8972870" lon="10.2536620">
	<ele>1143.60</ele>
	<time>2025-04-30T09:00:11.000Z</time>
</trkpt>
<trkpt lat="45.8972990" lon="10.2536610">
	<ele>1143.20</ele>
	<time>2025-04-30T09:00:12.000Z</time>
</trkpt>
<trkpt lat="45.8973080" lon="10.2536580">
	<ele>1142.80</ele>
	<time>2025-04-30T09:00:13.000Z</time>
</trkpt>
<trkpt lat="45.8973190" lon="10.2536610">
	<ele>1142.40</ele>
	<time>2025-04-30T09:00:14.000Z</time>
</trkpt>
<trkpt lat="45.8973520" lon="10.2536670">
	<ele>1142.00</ele>
	<time>2025-04-30T09:00:15.000Z</time>
</trkpt>
<trkpt lat="45.8973700" lon="10.2536670">
	<ele>1141.60</ele>
	<time>2025-04-30T09:00:16.000Z</time>
</trkpt>
<trkpt lat="45.8973830" lon="10.2536640">
	<ele>1141.20</ele>
	<time>2025-04-30T09:00:17.000Z</time>
</trkpt>
<trkpt lat="45.8973880" lon="10.2536720">
	<ele>1140.80</ele>
	<time>2025-04-30T09:00:18.000Z</time>
</trkpt>
<trkpt lat="45.8973970" lon="10.2536820">
	<ele>1140.40</ele>
	<time>2025-04-30T09:00:19.000Z</time>
</trkpt>
<trkpt lat="45.8974110" lon="10.2536760">
	<ele>1140.00</ele>
	<time>2025-04-30T09:00:20.000Z</time>
</trkpt>
<trkpt lat="45.8974240" lon="10.2536630">
	<ele>1139.40</ele>
	<time>2025-04-30T09:00:21.000Z</time>
</trkpt>
<trkpt lat="45.8974330" lon="10.2536430">
	<ele>1139.00</ele>
	<time>2025-04-30T09:00:22.000Z</time>
</trkpt>
<trkpt lat="45.8974430" lon="10.2536340">
	<ele>1138.40</ele>
	<time>2025-04-30T09:00:23.000Z</time>
</trkpt>
<trkpt lat="45.8974540" lon="10.2536270">
	<ele>1138.00</ele>
	<time>2025-04-30T09:00:24.000Z</time>
</trkpt>
<trkpt lat="45.8974660" lon="10.2536190">
	<ele>1137.60</ele>
	<time>2025-04-30T09:00:25.000Z</time>
</trkpt>
<trkpt lat="45.8974720" lon="10.2536110">
	<ele>1137.20</ele>
	<time>2025-04-30T09:00:26.000Z</time>
</trkpt>
<trkpt lat="45.8974700" lon="10.2536020">
	<ele>1136.60</ele>
	<time>2025-04-30T09:00:27.000Z</time>
</trkpt>
<trkpt lat="45.8974740" lon="10.2535920">
	<ele>1136.20</ele>
	<time>2025-04-30T09:00:28.000Z</time>
</trkpt>
<trkpt lat="45.8974730" lon="10.2535880">
	<ele>1135.80</ele>
	<time>2025-04-30T09:00:29.000Z</time>
</trkpt>
<trkpt lat="45.8974760" lon="10.2535850">
	<ele>1135.40</ele>
	<time>2025-04-30T09:00:30.000Z</time>
</trkpt>
<trkpt lat="45.8974810" lon="10.2535720">
	<ele>1135.00</ele>
	<time>2025-04-30T09:00:31.000Z</time>
</trkpt>
<trkpt lat="45.8974950" lon="10.2535350">
	<ele>1134.40</ele>
	<time>2025-04-30T09:00:32.000Z</time>
</trkpt>
<trkpt lat="45.8975160" lon="10.2535130">
	<ele>1134.00</ele>
	<time>2025-04-30T09:00:33.000Z</time>
</trkpt>
<trkpt lat="45.8975260" lon="10.2534980">
	<ele>1133.40</ele>
	<time>2025-04-30T09:00:34.000Z</time>
</trkpt>
<trkpt lat="45.8975350" lon="10.2534630">
	<ele>1133.20</ele>
	<time>2025-04-30T09:00:35.000Z</time>
</trkpt>
<trkpt lat="45.8975400" lon="10.2534320">
	<ele>1132.80</ele>
	<time>2025-04-30T09:00:36.000Z</time>
</trkpt>
<trkpt lat="45.8975320" lon="10.2534090">
	<ele>1132.40</ele>
	<time>2025-04-30T09:00:37.000Z</time>
</trkpt>
<trkpt lat="45.8975190" lon="10.2533790">
	<ele>1132.00</ele>
	<time>2025-04-30T09:00:38.000Z</time>
</trkpt>
<trkpt lat="45.8975040" lon="10.2533450">
	<ele>1131.60</ele>
	<time>2025-04-30T09:00:39.000Z</time>
</trkpt>
<trkpt lat="45.8975000" lon="10.2533210">
	<ele>1131.20</ele>
	<time>2025-04-30T09:00:40.000Z</time>
</trkpt>
<trkpt lat="45.8974980" lon="10.2533130">
	<ele>1130.80</ele>
	<time>2025-04-30T09:00:41.000Z</time>
</trkpt>
<trkpt lat="45.8974970" lon="10.2533100">
	<ele>1130.40</ele>
	<time>2025-04-30T09:00:42.000Z</time>
</trkpt>
<trkpt lat="45.8974930" lon="10.2533000">
	<ele>1130.00</ele>
	<time>2025-04-30T09:00:43.000Z</time>
</trkpt>
<trkpt lat="45.8974900" lon="10.2532810">
	<ele>1129.60</ele>
	<time>2025-04-30T09:00:44.000Z</time>
</trkpt>
<trkpt lat="45.8974940" lon="10.2532700">
	<ele>1129.20</ele>
	<time>2025-04-30T09:00:45.000Z</time>
</trkpt>
<trkpt lat="45.8974960" lon="10.2532480">
	<ele>1129.00</ele>
	<time>2025-04-30T09:00:46.000Z</time>
</trkpt>
<trkpt lat="45.8975060" lon="10.2532270">
	<ele>1128.60</ele>
	<time>2025-04-30T09:00:47.000Z</time>
</trkpt>
<trkpt lat="45.8975090" lon="10.2532180">
	<ele>1128.00</ele>
	<time>2025-04-30T09:00:48.000Z</time>
</trkpt>
<trkpt lat="45.8975110" lon="10.2532000">
	<ele>1127.60</ele>
	<time>2025-04-30T09:00:49.000Z</time>
</trkpt>
<trkpt lat="45.8975220" lon="10.2531780">
	<ele>1127.40</ele>
	<time>2025-04-30T09:00:50.000Z</time>
</trkpt>
<trkpt lat="45.8975410" lon="10.2531540">
	<ele>1126.80</ele>
	<time>2025-04-30T09:00:51.000Z</time>
</trkpt>
<trkpt lat="45.8975540" lon="10.2531440">
	<ele>1126.40</ele>
	<time>2025-04-30T09:00:52.000Z</time>
</trkpt>
<trkpt lat="45.8975670" lon="10.2531200">
	<ele>1126.00</ele>
	<time>2025-04-30T09:00:53.000Z</time>
</trkpt>
<trkpt lat="45.8975650" lon="10.2531000">
	<ele>1125.80</ele>
	<time>2025-04-30T09:00:54.000Z</time>
</trkpt>
<trkpt lat="45.8975570" lon="10.2530800">
	<ele>1125.40</ele>
	<time>2025-04-30T09:00:55.000Z</time>
</trkpt>
<trkpt lat="45.8975470" lon="10.2530790">
	<ele>1125.00</ele>
	<time>2025-04-30T09:00:56.000Z</time>
</trkpt>
<trkpt lat="45.8975390" lon="10.2530730">
	<ele>1124.80</ele>
	<time>2025-04-30T09:00:57.000Z</time>
</trkpt>
<trkpt lat="45.8975290" lon="10.2530700">
	<ele>1124.20</ele>
	<time>2025-04-30T09:00:58.000Z</time>
</trkpt>
<trkpt lat="45.8975200" lon="10.2530610">
	<ele>1123.80</ele>
	<time>2025-04-30T09:00:59.000Z</time>
</trkpt>
<trkpt lat="45.8975230" lon="10.2530510">
	<ele>1123.60</ele>
	<time>2025-04-30T09:01:00.000Z</time>
</trkpt>
<trkpt lat="45.8975230" lon="10.2530410">
	<ele>1123.00</ele>
	<time>2025-04-30T09:01:01.000Z</time>
</trkpt>
<trkpt lat="45.8975160" lon="10.2530280">
	<ele>1122.80</ele>
	<time>2025-04-30T09:01:02.000Z</time>
</trkpt>
<trkpt lat="45.8975060" lon="10.2530100">
	<ele>1122.40</ele>
	<time>2025-04-30T09:01:03.000Z</time>
</trkpt>
<trkpt lat="45.8975050" lon="10.2529950">
	<ele>1121.80</ele>
	<time>2025-04-30T09:01:04.000Z</time>
</trkpt>
<trkpt lat="45.8975110" lon="10.2529780">
	<ele>1121.60</ele>
	<time>2025-04-30T09:01:05.000Z</time>
</trkpt>
<trkpt lat="45.8975210" lon="10.2529560">
	<ele>1121.00</ele>
	<time>2025-04-30T09:01:06.000Z</time>
</trkpt>
<trkpt lat="45.8975220" lon="10.2529380">
	<ele>1120.60</ele>
	<time>2025-04-30T09:01:07.000Z</time>
</trkpt>
<trkpt lat="45.8975090" lon="10.2529280">
	<ele>1120.20</ele>
	<time>2025-04-30T09:01:08.000Z</time>
</trkpt>
<trkpt lat="45.8975030" lon="10.2529180">
	<ele>1120.00</ele>
	<time>2025-04-30T09:01:09.000Z</time>
</trkpt>
<trkpt lat="45.8974970" lon="10.2529070">
	<ele>1119.60</ele>
	<time>2025-04-30T09:01:10.000Z</time>
</trkpt>
<trkpt lat="45.8974980" lon="10.2528920">
	<ele>1119.20</ele>
	<time>2025-04-30T09:01:11.000Z</time>
</trkpt>
<trkpt lat="45.8975080" lon="10.2528670">
	<ele>1118.60</ele>
	<time>2025-04-30T09:01:12.000Z</time>
</trkpt>
<trkpt lat="45.8975030" lon="10.2528440">
	<ele>1118.00</ele>
	<time>2025-04-30T09:01:13.000Z</time>
</trkpt>
<trkpt lat="45.8974960" lon="10.2528300">
	<ele>1117.60</ele>
	<time>2025-04-30T09:01:14.000Z</time>
</trkpt>
<trkpt lat="45.8974970" lon="10.2528240">
	<ele>1117.20</ele>
	<time>2025-04-30T09:01:15.000Z</time>
</trkpt>
<trkpt lat="45.8974930" lon="10.2528140">
	<ele>1116.60</ele>
	<time>2025-04-30T09:01:16.000Z</time>
</trkpt>
<trkpt lat="45.8974910" lon="10.2528020">
	<ele>1116.40</ele>
	<time>2025-04-30T09:01:17.000Z</time>
</trkpt>
<trkpt lat="45.8974860" lon="10.2527950">
	<ele>1116.00</ele>
	<time>2025-04-30T09:01:18.000Z</time>
</trkpt>
<trkpt lat="45.8974880" lon="10.2527910">
	<ele>1115.60</ele>
	<time>2025-04-30T09:01:19.000Z</time>
</trkpt>
<trkpt lat="45.8974940" lon="10.2527930">
	<ele>1115.20</ele>
	<time>2025-04-30T09:01:20.000Z</time>
</trkpt>
<trkpt lat="45.8974960" lon="10.2527990">
	<ele>1114.80</ele>
	<time>2025-04-30T09:01:21.000Z</time>
</trkpt>
<trkpt lat="45.8975000" lon="10.2528000">
	<ele>1114.60</ele>
	<time>2025-04-30T09:01:22.000Z</time>
</trkpt>
<trkpt lat="45.8975060" lon="10.2527910">
	<ele>1114.40</ele>
	<time>2025-04-30T09:01:23.000Z</time>
</trkpt>
<trkpt lat="45.8974980" lon="10.2527820">
	<ele>1114.00</ele>
	<time>2025-04-30T09:01:24.000Z</time>
</trkpt>
<trkpt lat="45.8974880" lon="10.2527680">
	<ele>1113.60</ele>
	<time>2025-04-30T09:01:25.000Z</time>
</trkpt>
<trkpt lat="45.8974840" lon="10.2527500">
	<ele>1113.40</ele>
	<time>2025-04-30T09:01:26.000Z</time>
</trkpt>
<trkpt lat="45.8974840" lon="10.2527320">
	<ele>1113.00</ele>
	<time>2025-04-30T09:01:27.000Z</time>
</trkpt>
<trkpt lat="45.8974840" lon="10.2527140">
	<ele>1112.60</ele>
	<time>2025-04-30T09:01:28.000Z</time>
</trkpt>
<trkpt lat="45.8974820" lon="10.2527100">
	<ele>1112.40</ele>
	<time>2025-04-30T09:01:29.000Z</time>
</trkpt>
<trkpt lat="45.8974840" lon="10.2526920">
	<ele>1111.80</ele>
	<time>2025-04-30T09:01:30.000Z</time>
</trkpt>
<trkpt lat="45.8974930" lon="10.2526620">
	<ele>1111.60</ele>
	<time>2025-04-30T09:01:31.000Z</time>
</trkpt>
<trkpt lat="45.8974990" lon="10.2526410">
	<ele>1111.20</ele>
	<time>2025-04-30T09:01:32.000Z</time>
</trkpt>
<trkpt lat="45.8975000" lon="10.2526150">
	<ele>1111.00</ele>
	<time>2025-04-30T09:01:33.000Z</time>
</trkpt>
<trkpt lat="45.8975000" lon="10.2525920">
	<ele>1110.60</ele>
	<time>2025-04-30T09:01:34.000Z</time>
</trkpt>
<trkpt lat="45.8974950" lon="10.2525720">
	<ele>1110.40</ele>
	<time>2025-04-30T09:01:35.000Z</time>
</trkpt>
<trkpt lat="45.8974950" lon="10.2525650">
	<ele>1110.20</ele>
	<time>2025-04-30T09:01:36.000Z</time>
</trkpt>
<trkpt lat="45.8975050" lon="10.2525460">
	<ele>1109.80</ele>
	<time>2025-04-30T09:01:37.000Z</time>
</trkpt>
<trkpt lat="45.8975020" lon="10.2525400">
	<ele>1109.60</ele>
	<time>2025-04-30T09:01:38.000Z</time>
</trkpt>
<trkpt lat="45.8975060" lon="10.2525510">
	<ele>1109.20</ele>
	<time>2025-04-30T09:01:39.000Z</time>
</trkpt>
<trkpt lat="45.8975100" lon="10.2525590">
	<ele>1109.00</ele>
	<time>2025-04-30T09:01:40.000Z</time>
</trkpt>
<trkpt lat="45.8975030" lon="10.2525770">
	<ele>1108.80</ele>
	<time>2025-04-30T09:01:41.000Z</time>
</trkpt>
<trkpt lat="45.8974950" lon="10.2525930">
	<ele>1108.40</ele>
	<time>2025-04-30T09:01:42.000Z</time>
</trkpt>
<trkpt lat="45.8974850" lon="10.2526040">
	<ele>1108.00</ele>
	<time>2025-04-30T09:01:43.000Z</time>
</trkpt>
<trkpt lat="45.8974900" lon="10.2526060">
	<ele>1107.60</ele>
	<time>2025-04-30T09:01:44.000Z</time>
</trkpt>
<trkpt lat="45.8974940" lon="10.2526120">
	<ele>1107.20</ele>
	<time>2025-04-30T09:01:45.000Z</time>
</trkpt>
<trkpt lat="45.8974980" lon="10.2526200">
	<ele>1106.80</ele>
	<time>2025-04-30T09:01:46.000Z</time>
</trkpt>
<trkpt lat="45.8975030" lon="10.2526250">
	<ele>1106.60</ele>
	<time>2025-04-30T09:01:47.000Z</time>
</trkpt>
<trkpt lat="45.8975080" lon="10.2526270">
	<ele>1106.20</ele>
	<time>2025-04-30T09:01:48.000Z</time>
</trkpt>
<trkpt lat="45.8975170" lon="10.2526280">
	<ele>1105.80</ele>
	<time>2025-04-30T09:01:49.000Z</time>
</trkpt>
<trkpt lat="45.8975270" lon="10.2526340">
	<ele>1105.40</ele>
	<time>2025-04-30T09:01:50.000Z</time>
</trkpt>
<trkpt lat="45.8975400" lon="10.2526450">
	<ele>1105.00</ele>
	<time>2025-04-30T09:01:51.000Z</time>
</trkpt>
<trkpt lat="45.8975560" lon="10.2526580">
	<ele>1104.60</ele>
	<time>2025-04-30T09:01:52.000Z</time>
</trkpt>
<trkpt lat="45.8975720" lon="10.2526690">
	<ele>1104.20</ele>
	<time>2025-04-30T09:01:53.000Z</time>
</trkpt>
<trkpt lat="45.8975850" lon="10.2526730">
	<ele>1104.00</ele>
	<time>2025-04-30T09:01:54.000Z</time>
</trkpt>
<trkpt lat="45.8976070" lon="10.2526760">
	<ele>1103.60</ele>
	<time>2025-04-30T09:01:55.000Z</time>
</trkpt>
<trkpt lat="45.8976190" lon="10.2526840">
	<ele>1103.20</ele>
	<time>2025-04-30T09:01:56.000Z</time>
</trkpt>
<trkpt lat="45.8976340" lon="10.2526810">
	<ele>1102.80</ele>
	<time>2025-04-30T09:01:57.000Z</time>
</trkpt>
<trkpt lat="45.8976440" lon="10.2526860">
	<ele>1102.40</ele>
	<time>2025-04-30T09:01:58.000Z</time>
</trkpt>
<trkpt lat="45.8976520" lon="10.2526950">
	<ele>1102.00</ele>
	<time>2025-04-30T09:01:59.000Z</time>
</trkpt>
<trkpt lat="45.8976600" lon="10.2527050">
	<ele>1101.60</ele>
	<time>2025-04-30T09:02:00.000Z</time>
</trkpt>
<trkpt lat="45.8976620" lon="10.2527100">
	<ele>1101.40</ele>
	<time>2025-04-30T09:02:01.000Z</time>
</trkpt>
<trkpt lat="45.8976570" lon="10.2527090">
	<ele>1100.80</ele>
	<time>2025-04-30T09:02:02.000Z</time>
</trkpt>
<trkpt lat="45.8976570" lon="10.2527130">
	<ele>1100.60</ele>
	<time>2025-04-30T09:02:03.000Z</time>
</trkpt>
<trkpt lat="45.8976570" lon="10.2527170">
	<ele>1100.20</ele>
	<time>2025-04-30T09:02:04.000Z</time>
</trkpt>
<trkpt lat="45.8976450" lon="10.2527160">
	<ele>1100.00</ele>
	<time>2025-04-30T09:02:05.000Z</time>
</trkpt>
<trkpt lat="45.8976450" lon="10.2527160">
	<ele>1099.80</ele>
	<time>2025-04-30T09:02:06.000Z</time>
</trkpt>
<trkpt lat="45.8976440" lon="10.2527150">
	<ele>1099.80</ele>
	<time>2025-04-30T09:02:07.000Z</time>
</trkpt>
<trkpt lat="45.8976360" lon="10.2526870">
	<ele>1099.60</ele>
	<time>2025-04-30T09:02:08.000Z</time>
</trkpt>
<trkpt lat="45.8976270" lon="10.2526470">
	<ele>1099.60</ele>
	<time>2025-04-30T09:02:09.000Z</time>
</trkpt>
<trkpt lat="45.8976260" lon="10.2526500">
	<ele>1099.60</ele>
	<time>2025-04-30T09:02:10.000Z</time>
</trkpt>
<trkpt lat="45.8976310" lon="10.2526240">
	<ele>1099.40</ele>
	<time>2025-04-30T09:02:11.000Z</time>
</trkpt>
<trkpt lat="45.8976350" lon="10.2526250">
	<ele>1099.40</ele>
	<time>2025-04-30T09:02:12.000Z</time>
</trkpt>
<trkpt lat="45.8976470" lon="10.2526290">
	<ele>1099.40</ele>
	<time>2025-04-30T09:02:13.000Z</time>
</trkpt>
<trkpt lat="45.8976610" lon="10.2526260">
	<ele>1099.40</ele>
	<time>2025-04-30T09:02:14.000Z</time>
</trkpt>
<trkpt lat="45.8976770" lon="10.2526300">
	<ele>1099.40</ele>
	<time>2025-04-30T09:02:15.000Z</time>
</trkpt>
<trkpt lat="45.8976960" lon="10.2526310">
	<ele>1099.40</ele>
	<time>2025-04-30T09:02:16.000Z</time>
</trkpt>
<trkpt lat="45.8977100" lon="10.2526400">
	<ele>1099.00</ele>
	<time>2025-04-30T09:02:17.000Z</time>
</trkpt>
<trkpt lat="45.8977250" lon="10.2526490">
	<ele>1098.60</ele>
	<time>2025-04-30T09:02:18.000Z</time>
</trkpt>
<trkpt lat="45.8977410" lon="10.2526480">
	<ele>1098.20</ele>
	<time>2025-04-30T09:02:19.000Z</time>
</trkpt>
<trkpt lat="45.8977500" lon="10.2526510">
	<ele>1097.80</ele>
	<time>2025-04-30T09:02:20.000Z</time>
</trkpt>
<trkpt lat="45.8977580" lon="10.2526580">
	<ele>1097.60</ele>
	<time>2025-04-30T09:02:21.000Z</time>
</trkpt>
<trkpt lat="45.8977620" lon="10.2526660">
	<ele>1097.20</ele>
	<time>2025-04-30T09:02:22.000Z</time>
</trkpt>
<trkpt lat="45.8977630" lon="10.2526690">
	<ele>1096.80</ele>
	<time>2025-04-30T09:02:23.000Z</time>
</trkpt>
<trkpt lat="45.8977640" lon="10.2526730">
	<ele>1096.60</ele>
	<time>2025-04-30T09:02:24.000Z</time>
</trkpt>
<trkpt lat="45.8977610" lon="10.2526830">
	<ele>1096.20</ele>
	<time>2025-04-30T09:02:25.000Z</time>
</trkpt>
<trkpt lat="45.8977660" lon="10.2527000">
	<ele>1096.00</ele>
	<time>2025-04-30T09:02:26.000Z</time>
</trkpt>
<trkpt lat="45.8977710" lon="10.2527220">
	<ele>1095.60</ele>
	<time>2025-04-30T09:02:27.000Z</time>
</trkpt>
<trkpt lat="45.8977770" lon="10.2527350">
	<ele>1095.40</ele>
	<time>2025-04-30T09:02:28.000Z</time>
</trkpt>
<trkpt lat="45.8977850" lon="10.2527440">
	<ele>1095.00</ele>
	<time>2025-04-30T09:02:29.000Z</time>
</trkpt>
<trkpt lat="45.8977960" lon="10.2527530">
	<ele>1094.60</ele>
	<time>2025-04-30T09:02:30.000Z</time>
</trkpt>
<trkpt lat="45.8978110" lon="10.2527650">
	<ele>1094.20</ele>
	<time>2025-04-30T09:02:31.000Z</time>
</trkpt>
<trkpt lat="45.8978240" lon="10.2527810">
	<ele>1093.80</ele>
	<time>2025-04-30T09:02:32.000Z</time>
</trkpt>
<trkpt lat="45.8978340" lon="10.2527990">
	<ele>1093.60</ele>
	<time>2025-04-30T09:02:33.000Z</time>
</trkpt>
<trkpt lat="45.8978440" lon="10.2528060">
	<ele>1093.20</ele>
	<time>2025-04-30T09:02:34.000Z</time>
</trkpt>
<trkpt lat="45.8978520" lon="10.2528150">
	<ele>1093.00</ele>
	<time>2025-04-30T09:02:35.000Z</time>
</trkpt>
<trkpt lat="45.8978530" lon="10.2528190">
	<ele>1092.80</ele>
	<time>2025-04-30T09:02:36.000Z</time>
</trkpt>
<trkpt lat="45.8978560" lon="10.2528190">
	<ele>1092.20</ele>
	<time>2025-04-30T09:02:37.000Z</time>
</trkpt>
<trkpt lat="45.8978650" lon="10.2528220">
	<ele>1091.80</ele>
	<time>2025-04-30T09:02:38.000Z</time>
</trkpt>
<trkpt lat="45.8978780" lon="10.2528260">
	<ele>1091.60</ele>
	<time>2025-04-30T09:02:39.000Z</time>
</trkpt>
<trkpt lat="45.8979040" lon="10.2528210">
	<ele>1091.20</ele>
	<time>2025-04-30T09:02:40.000Z</time>
</trkpt>
<trkpt lat="45.8979300" lon="10.2528180">
	<ele>1090.80</ele>
	<time>2025-04-30T09:02:41.000Z</time>
</trkpt>
<trkpt lat="45.8979440" lon="10.2528300">
	<ele>1090.40</ele>
	<time>2025-04-30T09:02:42.000Z</time>
</trkpt>
<trkpt lat="45.8979490" lon="10.2528450">
	<ele>1089.80</ele>
	<time>2025-04-30T09:02:43.000Z</time>
</trkpt>
<trkpt lat="45.8979620" lon="10.2528720">
	<ele>1089.40</ele>
	<time>2025-04-30T09:02:44.000Z</time>
</trkpt>
<trkpt lat="45.8979680" lon="10.2529120">
	<ele>1088.80</ele>
	<time>2025-04-30T09:02:45.000Z</time>
</trkpt>
<trkpt lat="45.8979790" lon="10.2529380">
	<ele>1088.40</ele>
	<time>2025-04-30T09:02:46.000Z</time>
</trkpt>
<trkpt lat="45.8980000" lon="10.2529570">
	<ele>1087.80</ele>
	<time>2025-04-30T09:02:47.000Z</time>
</trkpt>
<trkpt lat="45.8980180" lon="10.2529610">
	<ele>1087.60</ele>
	<time>2025-04-30T09:02:48.000Z</time>
</trkpt>
<trkpt lat="45.8980450" lon="10.2529630">
	<ele>1087.00</ele>
	<time>2025-04-30T09:02:49.000Z</time>
</trkpt>
<trkpt lat="45.8980650" lon="10.2529640">
	<ele>1086.60</ele>
	<time>2025-04-30T09:02:50.000Z</time>
</trkpt>
<trkpt lat="45.8980770" lon="10.2529740">
	<ele>1086.00</ele>
	<time>2025-04-30T09:02:51.000Z</time>
</trkpt>
<trkpt lat="45.8980870" lon="10.2529820">
	<ele>1085.60</ele>
	<time>2025-04-30T09:02:52.000Z</time>
</trkpt>
<trkpt lat="45.8980980" lon="10.2529780">
	<ele>1085.20</ele>
	<time>2025-04-30T09:02:53.000Z</time>
</trkpt>
<trkpt lat="45.8981040" lon="10.2529740">
	<ele>1084.80</ele>
	<time>2025-04-30T09:02:54.000Z</time>
</trkpt>
<trkpt lat="45.8981090" lon="10.2529680">
	<ele>1083.80</ele>
	<time>2025-04-30T09:02:55.000Z</time>
</trkpt>
<trkpt lat="45.8981120" lon="10.2529630">
	<ele>1083.80</ele>
	<time>2025-04-30T09:02:56.000Z</time>
</trkpt>
<trkpt lat="45.8981140" lon="10.2529660">
	<ele>1083.40</ele>
	<time>2025-04-30T09:02:57.000Z</time>
</trkpt>
<trkpt lat="45.8981230" lon="10.2529690">
	<ele>1083.00</ele>
	<time>2025-04-30T09:02:58.000Z</time>
</trkpt>
<trkpt lat="45.8981380" lon="10.2529710">
	<ele>1082.80</ele>
	<time>2025-04-30T09:02:59.000Z</time>
</trkpt>
<trkpt lat="45.8981450" lon="10.2529820">
	<ele>1082.20</ele>
	<time>2025-04-30T09:03:00.000Z</time>
</trkpt>
<trkpt lat="45.8981640" lon="10.2530060">
	<ele>1081.80</ele>
	<time>2025-04-30T09:03:01.000Z</time>
</trkpt>
<trkpt lat="45.8981890" lon="10.2530200">
	<ele>1081.20</ele>
	<time>2025-04-30T09:03:02.000Z</time>
</trkpt>
<trkpt lat="45.8982100" lon="10.2530330">
	<ele>1081.00</ele>
	<time>2025-04-30T09:03:03.000Z</time>
</trkpt>
<trkpt lat="45.8982360" lon="10.2530390">
	<ele>1080.40</ele>
	<time>2025-04-30T09:03:04.000Z</time>
</trkpt>
<trkpt lat="45.8982580" lon="10.2530230">
	<ele>1080.20</ele>
	<time>2025-04-30T09:03:05.000Z</time>
</trkpt>
<trkpt lat="45.8982620" lon="10.2530160">
	<ele>1079.80</ele>
	<time>2025-04-30T09:03:06.000Z</time>
</trkpt>
<trkpt lat="45.8982710" lon="10.2530320">
	<ele>1079.60</ele>
	<time>2025-04-30T09:03:07.000Z</time>
</trkpt>
<trkpt lat="45.8982920" lon="10.2530490">
	<ele>1079.00</ele>
	<time>2025-04-30T09:03:08.000Z</time>
</trkpt>
<trkpt lat="45.8983130" lon="10.2530640">
	<ele>1078.60</ele>
	<time>2025-04-30T09:03:09.000Z</time>
</trkpt>
<trkpt lat="45.8983220" lon="10.2530760">
	<ele>1078.20</ele>
	<time>2025-04-30T09:03:10.000Z</time>
</trkpt>
<trkpt lat="45.8983260" lon="10.2530920">
	<ele>1077.60</ele>
	<time>2025-04-30T09:03:11.000Z</time>
</trkpt>
<trkpt lat="45.8983320" lon="10.2530940">
	<ele>1077.40</ele>
	<time>2025-04-30T09:03:12.000Z</time>
</trkpt>
<trkpt lat="45.8983370" lon="10.2530910">
	<ele>1076.80</ele>
	<time>2025-04-30T09:03:13.000Z</time>
</trkpt>
<trkpt lat="45.8983390" lon="10.2530900">
	<ele>1076.40</ele>
	<time>2025-04-30T09:03:14.000Z</time>
</trkpt>
<trkpt lat="45.8983500" lon="10.2531000">
	<ele>1076.20</ele>
	<time>2025-04-30T09:03:15.000Z</time>
</trkpt>
<trkpt lat="45.8983660" lon="10.2531130">
	<ele>1075.80</ele>
	<time>2025-04-30T09:03:16.000Z</time>
</trkpt>
<trkpt lat="45.8983940" lon="10.2531270">
	<ele>1075.40</ele>
	<time>2025-04-30T09:03:17.000Z</time>
</trkpt>
<trkpt lat="45.8984130" lon="10.2531370">
	<ele>1075.00</ele>
	<time>2025-04-30T09:03:18.000Z</time>
</trkpt>
<trkpt lat="45.8984330" lon="10.2531480">
	<ele>1074.60</ele>
	<time>2025-04-30T09:03:19.000Z</time>
</trkpt>
<trkpt lat="45.8984490" lon="10.2531510">
	<ele>1074.20</ele>
	<time>2025-04-30T09:03:20.000Z</time>
</trkpt>
<trkpt lat="45.8984670" lon="10.2531490">
	<ele>1073.60</ele>
	<time>2025-04-30T09:03:21.000Z</time>
</trkpt>
<trkpt lat="45.8984820" lon="10.2531440">
	<ele>1073.20</ele>
	<time>2025-04-30T09:03:22.000Z</time>
</trkpt>
<trkpt lat="45.8984860" lon="10.2531470">
	<ele>1073.00</ele>
	<time>2025-04-30T09:03:23.000Z</time>
</trkpt>
<trkpt lat="45.8985060" lon="10.2531480">
	<ele>1072.60</ele>
	<time>2025-04-30T09:03:24.000Z</time>
</trkpt>
<trkpt lat="45.8985240" lon="10.2531490">
	<ele>1072.20</ele>
	<time>2025-04-30T09:03:25.000Z</time>
</trkpt>
<trkpt lat="45.8985300" lon="10.2531560">
	<ele>1071.60</ele>
	<time>2025-04-30T09:03:26.000Z</time>
</trkpt>
<trkpt lat="45.8985330" lon="10.2531760">
	<ele>1071.20</ele>
	<time>2025-04-30T09:03:27.000Z</time>
</trkpt>
<trkpt lat="45.8985370" lon="10.2531930">
	<ele>1070.80</ele>
	<time>2025-04-30T09:03:28.000Z</time>
</trkpt>
<trkpt lat="45.8985450" lon="10.2532060">
	<ele>1070.40</ele>
	<time>2025-04-30T09:03:29.000Z</time>
</trkpt>
<trkpt lat="45.8985600" lon="10.2532080">
	<ele>1070.00</ele>
	<time>2025-04-30T09:03:30.000Z</time>
</trkpt>
<trkpt lat="45.8985690" lon="10.2532080">
	<ele>1069.60</ele>
	<time>2025-04-30T09:03:31.000Z</time>
</trkpt>
<trkpt lat="45.8985820" lon="10.2531990">
	<ele>1069.20</ele>
	<time>2025-04-30T09:03:32.000Z</time>
</trkpt>
<trkpt lat="45.8985950" lon="10.2532120">
	<ele>1068.80</ele>
	<time>2025-04-30T09:03:33.000Z</time>
</trkpt>
<trkpt lat="45.8986030" lon="10.2532120">
	<ele>1068.40</ele>
	<time>2025-04-30T09:03:34.000Z</time>
</trkpt>
<trkpt lat="45.8986030" lon="10.2532130">
	<ele>1068.00</ele>
	<time>2025-04-30T09:03:35.000Z</time>
</trkpt>
<trkpt lat="45.8986120" lon="10.2532080">
	<ele>1067.80</ele>
	<time>2025-04-30T09:03:36.000Z</time>
</trkpt>
<trkpt lat="45.8986190" lon="10.2531950">
	<ele>1067.40</ele>
	<time>2025-04-30T09:03:37.000Z</time>
</trkpt>
<trkpt lat="45.8986230" lon="10.2531870">
	<ele>1067.00</ele>
	<time>2025-04-30T09:03:38.000Z</time>
</trkpt>
<trkpt lat="45.8986290" lon="10.2531830">
	<ele>1066.40</ele>
	<time>2025-04-30T09:03:39.000Z</time>
</trkpt>
<trkpt lat="45.8986440" lon="10.2531870">
	<ele>1066.00</ele>
	<time>2025-04-30T09:03:40.000Z</time>
</trkpt>
<trkpt lat="45.8986640" lon="10.2531860">
	<ele>1065.80</ele>
	<time>2025-04-30T09:03:41.000Z</time>
</trkpt>
<trkpt lat="45.8986910" lon="10.2531830">
	<ele>1065.40</ele>
	<time>2025-04-30T09:03:42.000Z</time>
</trkpt>
<trkpt lat="45.8987170" lon="10.2531760">
	<ele>1064.80</ele>
	<time>2025-04-30T09:03:43.000Z</time>
</trkpt>
<trkpt lat="45.8987410" lon="10.2531810">
	<ele>1064.40</ele>
	<time>2025-04-30T09:03:44.000Z</time>
</trkpt>
<trkpt lat="45.8987510" lon="10.2531810">
	<ele>1064.20</ele>
	<time>2025-04-30T09:03:45.000Z</time>
</trkpt>
<trkpt lat="45.8987650" lon="10.2531800">
	<ele>1063.60</ele>
	<time>2025-04-30T09:03:46.000Z</time>
</trkpt>
<trkpt lat="45.8987780" lon="10.2531750">
	<ele>1063.20</ele>
	<time>2025-04-30T09:03:47.000Z</time>
</trkpt>
<trkpt lat="45.8987860" lon="10.2531640">
	<ele>1062.60</ele>
	<time>2025-04-30T09:03:48.000Z</time>
</trkpt>
<trkpt lat="45.8987930" lon="10.2531530">
	<ele>1062.20</ele>
	<time>2025-04-30T09:03:49.000Z</time>
</trkpt>
<trkpt lat="45.8987870" lon="10.2531480">
	<ele>1062.00</ele>
	<time>2025-04-30T09:03:50.000Z</time>
</trkpt>
<trkpt lat="45.8987900" lon="10.2531460">
	<ele>1061.80</ele>
	<time>2025-04-30T09:03:51.000Z</time>
</trkpt>
<trkpt lat="45.8987960" lon="10.2531490">
	<ele>1061.40</ele>
	<time>2025-04-30T09:03:52.000Z</time>
</trkpt>
<trkpt lat="45.8988090" lon="10.2531430">
	<ele>1060.80</ele>
	<time>2025-04-30T09:03:53.000Z</time>
</trkpt>
<trkpt lat="45.8988180" lon="10.2531340">
	<ele>1060.60</ele>
	<time>2025-04-30T09:03:54.000Z</time>
</trkpt>
<trkpt lat="45.8988200" lon="10.2531190">
	<ele>1060.40</ele>
	<time>2025-04-30T09:03:55.000Z</time>
</trkpt>
<trkpt lat="45.8988290" lon="10.2531030">
	<ele>1060.20</ele>
	<time>2025-04-30T09:03:56.000Z</time>
</trkpt>
<trkpt lat="45.8988390" lon="10.2530910">
	<ele>1060.20</ele>
	<time>2025-04-30T09:03:57.000Z</time>
</trkpt>
<trkpt lat="45.8988540" lon="10.2530900">
	<ele>1059.80</ele>
	<time>2025-04-30T09:03:58.000Z</time>
</trkpt>
<trkpt lat="45.8988710" lon="10.2530890">
	<ele>1059.60</ele>
	<time>2025-04-30T09:03:59.000Z</time>
</trkpt>
<trkpt lat="45.8988900" lon="10.2530800">
	<ele>1059.40</ele>
	<time>2025-04-30T09:04:00.000Z</time>
</trkpt>
<trkpt lat="45.8989150" lon="10.2530810">
	<ele>1059.00</ele>
	<time>2025-04-30T09:04:01.000Z</time>
</trkpt>
<trkpt lat="45.8989440" lon="10.2530840">
	<ele>1058.60</ele>
	<time>2025-04-30T09:04:02.000Z</time>
</trkpt>
<trkpt lat="45.8989640" lon="10.2530760">
	<ele>1058.40</ele>
	<time>2025-04-30T09:04:03.000Z</time>
</trkpt>
<trkpt lat="45.8989630" lon="10.2530630">
	<ele>1058.20</ele>
	<time>2025-04-30T09:04:04.000Z</time>
</trkpt>
<trkpt lat="45.8989710" lon="10.2530540">
	<ele>1058.00</ele>
	<time>2025-04-30T09:04:05.000Z</time>
</trkpt>
<trkpt lat="45.8989690" lon="10.2530410">
	<ele>1057.60</ele>
	<time>2025-04-30T09:04:06.000Z</time>
</trkpt>
<trkpt lat="45.8989620" lon="10.2530230">
	<ele>1057.40</ele>
	<time>2025-04-30T09:04:07.000Z</time>
</trkpt>
<trkpt lat="45.8989660" lon="10.2530030">
	<ele>1057.00</ele>
	<time>2025-04-30T09:04:08.000Z</time>
</trkpt>
<trkpt lat="45.8989660" lon="10.2529810">
	<ele>1056.80</ele>
	<time>2025-04-30T09:04:09.000Z</time>
</trkpt>
<trkpt lat="45.8989600" lon="10.2529610">
	<ele>1056.60</ele>
	<time>2025-04-30T09:04:10.000Z</time>
</trkpt>
<trkpt lat="45.8989480" lon="10.2529440">
	<ele>1056.20</ele>
	<time>2025-04-30T09:04:11.000Z</time>
</trkpt>
<trkpt lat="45.8989370" lon="10.2529210">
	<ele>1056.00</ele>
	<time>2025-04-30T09:04:12.000Z</time>
</trkpt>
<trkpt lat="45.8989270" lon="10.2529050">
	<ele>1055.60</ele>
	<time>2025-04-30T09:04:13.000Z</time>
</trkpt>
<trkpt lat="45.8989150" lon="10.2528920">
	<ele>1055.40</ele>
	<time>2025-04-30T09:04:14.000Z</time>
</trkpt>
<trkpt lat="45.8989050" lon="10.2528790">
	<ele>1055.40</ele>
	<time>2025-04-30T09:04:15.000Z</time>
</trkpt>
<trkpt lat="45.8988970" lon="10.2528770">
	<ele>1055.20</ele>
	<time>2025-04-30T09:04:16.000Z</time>
</trkpt>
<trkpt lat="45.8988860" lon="10.2528810">
	<ele>1055.00</ele>
	<time>2025-04-30T09:04:17.000Z</time>
</trkpt>
<trkpt lat="45.8988750" lon="10.2528780">
	<ele>1054.80</ele>
	<time>2025-04-30T09:04:18.000Z</time>
</trkpt>
<trkpt lat="45.8988610" lon="10.2528700">
	<ele>1054.40</ele>
	<time>2025-04-30T09:04:19.000Z</time>
</trkpt>
<trkpt lat="45.8988490" lon="10.2528590">
	<ele>1054.20</ele>
	<time>2025-04-30T09:04:20.000Z</time>
</trkpt>
<trkpt lat="45.8988410" lon="10.2528590">
	<ele>1053.80</ele>
	<time>2025-04-30T09:04:21.000Z</time>
</trkpt>
<trkpt lat="45.8988260" lon="10.2528530">
	<ele>1053.60</ele>
	<time>2025-04-30T09:04:22.000Z</time>
</trkpt>
<trkpt lat="45.8988110" lon="10.2528440">
	<ele>1053.20</ele>
	<time>2025-04-30T09:04:23.000Z</time>
</trkpt>
<trkpt lat="45.8988010" lon="10.2528350">
	<ele>1052.80</ele>
	<time>2025-04-30T09:04:24.000Z</time>
</trkpt>
<trkpt lat="45.8987920" lon="10.2528240">
	<ele>1052.40</ele>
	<time>2025-04-30T09:04:25.000Z</time>
</trkpt>
<trkpt lat="45.8987880" lon="10.2528210">
	<ele>1052.00</ele>
	<time>2025-04-30T09:04:26.000Z</time>
</trkpt>
<trkpt lat="45.8987850" lon="10.2528080">
	<ele>1051.80</ele>
	<time>2025-04-30T09:04:27.000Z</time>
</trkpt>
<trkpt lat="45.8987800" lon="10.2527970">
	<ele>1051.40</ele>
	<time>2025-04-30T09:04:28.000Z</time>
</trkpt>
<trkpt lat="45.8987730" lon="10.2527920">
	<ele>1051.00</ele>
	<time>2025-04-30T09:04:29.000Z</time>
</trkpt>
<trkpt lat="45.8987660" lon="10.2527820">
	<ele>1050.60</ele>
	<time>2025-04-30T09:04:30.000Z</time>
</trkpt>
<trkpt lat="45.8987580" lon="10.2527670">
	<ele>1050.20</ele>
	<time>2025-04-30T09:04:31.000Z</time>
</trkpt>
<trkpt lat="45.8987480" lon="10.2527540">
	<ele>1049.80</ele>
	<time>2025-04-30T09:04:32.000Z</time>
</trkpt>
<trkpt lat="45.8987430" lon="10.2527440">
	<ele>1049.40</ele>
	<time>2025-04-30T09:04:33.000Z</time>
</trkpt>
<trkpt lat="45.8987390" lon="10.2527290">
	<ele>1049.00</ele>
	<time>2025-04-30T09:04:34.000Z</time>
</trkpt>
<trkpt lat="45.8987370" lon="10.2527160">
	<ele>1048.60</ele>
	<time>2025-04-30T09:04:35.000Z</time>
</trkpt>
<trkpt lat="45.8987300" lon="10.2526920">
	<ele>1048.40</ele>
	<time>2025-04-30T09:04:36.000Z</time>
</trkpt>
<trkpt lat="45.8987090" lon="10.2526730">
	<ele>1048.00</ele>
	<time>2025-04-30T09:04:37.000Z</time>
</trkpt>
<trkpt lat="45.8987060" lon="10.2526540">
	<ele>1047.60</ele>
	<time>2025-04-30T09:04:38.000Z</time>
</trkpt>
<trkpt lat="45.8987030" lon="10.2526270">
	<ele>1047.20</ele>
	<time>2025-04-30T09:04:39.000Z</time>
</trkpt>
<trkpt lat="45.8987120" lon="10.2526090">
	<ele>1047.00</ele>
	<time>2025-04-30T09:04:40.000Z</time>
</trkpt>
<trkpt lat="45.8987090" lon="10.2525870">
	<ele>1046.60</ele>
	<time>2025-04-30T09:04:41.000Z</time>
</trkpt>
<trkpt lat="45.8987020" lon="10.2525550">
	<ele>1046.00</ele>
	<time>2025-04-30T09:04:42.000Z</time>
</trkpt>
<trkpt lat="45.8987060" lon="10.2525410">
	<ele>1045.80</ele>
	<time>2025-04-30T09:04:43.000Z</time>
</trkpt>
<trkpt lat="45.8987080" lon="10.2525300">
	<ele>1045.40</ele>
	<time>2025-04-30T09:04:44.000Z</time>
</trkpt>
<trkpt lat="45.8987010" lon="10.2525250">
	<ele>1045.00</ele>
	<time>2025-04-30T09:04:45.000Z</time>
</trkpt>
<trkpt lat="45.8986990" lon="10.2525270">
	<ele>1044.60</ele>
	<time>2025-04-30T09:04:46.000Z</time>
</trkpt>
<trkpt lat="45.8986900" lon="10.2525110">
	<ele>1044.40</ele>
	<time>2025-04-30T09:04:47.000Z</time>
</trkpt>
<trkpt lat="45.8986850" lon="10.2524890">
	<ele>1044.20</ele>
	<time>2025-04-30T09:04:48.000Z</time>
</trkpt>
<trkpt lat="45.8986760" lon="10.2524670">
	<ele>1043.60</ele>
	<time>2025-04-30T09:04:49.000Z</time>
</trkpt>
<trkpt lat="45.8986710" lon="10.2524500">
	<ele>1043.20</ele>
	<time>2025-04-30T09:04:50.000Z</time>
</trkpt>
<trkpt lat="45.8986610" lon="10.2524390">
	<ele>1042.80</ele>
	<time>2025-04-30T09:04:51.000Z</time>
</trkpt>
<trkpt lat="45.8986540" lon="10.2524320">
	<ele>1042.60</ele>
	<time>2025-04-30T09:04:52.000Z</time>
</trkpt>
<trkpt lat="45.8986510" lon="10.2524260">
	<ele>1042.20</ele>
	<time>2025-04-30T09:04:53.000Z</time>
</trkpt>
<trkpt lat="45.8986490" lon="10.2523910">
	<ele>1042.00</ele>
	<time>2025-04-30T09:04:54.000Z</time>
</trkpt>
<trkpt lat="45.8986490" lon="10.2523850">
	<ele>1041.80</ele>
	<time>2025-04-30T09:04:55.000Z</time>
</trkpt>
<trkpt lat="45.8986470" lon="10.2523600">
	<ele>1041.40</ele>
	<time>2025-04-30T09:04:56.000Z</time>
</trkpt>
<trkpt lat="45.8986420" lon="10.2523330">
	<ele>1041.20</ele>
	<time>2025-04-30T09:04:57.000Z</time>
</trkpt>
<trkpt lat="45.8986370" lon="10.2523060">
	<ele>1040.80</ele>
	<time>2025-04-30T09:04:58.000Z</time>
</trkpt>
<trkpt lat="45.8986270" lon="10.2522920">
	<ele>1040.60</ele>
	<time>2025-04-30T09:04:59.000Z</time>
</trkpt>
<trkpt lat="45.8986280" lon="10.2522780">
	<ele>1040.40</ele>
	<time>2025-04-30T09:05:00.000Z</time>
</trkpt>
<trkpt lat="45.8986350" lon="10.2522640">
	<ele>1040.20</ele>
	<time>2025-04-30T09:05:01.000Z</time>
</trkpt>
<trkpt lat="45.8986440" lon="10.2522500">
	<ele>1040.20</ele>
	<time>2025-04-30T09:05:02.000Z</time>
</trkpt>
<trkpt lat="45.8986440" lon="10.2522440">
	<ele>1039.80</ele>
	<time>2025-04-30T09:05:03.000Z</time>
</trkpt>
<trkpt lat="45.8986500" lon="10.2522230">
	<ele>1039.60</ele>
	<time>2025-04-30T09:05:04.000Z</time>
</trkpt>
<trkpt lat="45.8986430" lon="10.2521940">
	<ele>1039.20</ele>
	<time>2025-04-30T09:05:05.000Z</time>
</trkpt>
<trkpt lat="45.8986370" lon="10.2521590">
	<ele>1039.00</ele>
	<time>2025-04-30T09:05:06.000Z</time>
</trkpt>
<trkpt lat="45.8986400" lon="10.2521380">
	<ele>1038.60</ele>
	<time>2025-04-30T09:05:07.000Z</time>
</trkpt>
<trkpt lat="45.8986470" lon="10.2521290">
	<ele>1038.00</ele>
	<time>2025-04-30T09:05:08.000Z</time>
</trkpt>
<trkpt lat="45.8986560" lon="10.2521280">
	<ele>1037.80</ele>
	<time>2025-04-30T09:05:09.000Z</time>
</trkpt>
<trkpt lat="45.8986620" lon="10.2521330">
	<ele>1037.60</ele>
	<time>2025-04-30T09:05:10.000Z</time>
</trkpt>
<trkpt lat="45.8986750" lon="10.2521320">
	<ele>1037.40</ele>
	<time>2025-04-30T09:05:11.000Z</time>
</trkpt>
<trkpt lat="45.8986840" lon="10.2521230">
	<ele>1036.80</ele>
	<time>2025-04-30T09:05:12.000Z</time>
</trkpt>
<trkpt lat="45.8986890" lon="10.2521120">
	<ele>1036.40</ele>
	<time>2025-04-30T09:05:13.000Z</time>
</trkpt>
<trkpt lat="45.8986910" lon="10.2521020">
	<ele>1036.20</ele>
	<time>2025-04-30T09:05:14.000Z</time>
</trkpt>
<trkpt lat="45.8986950" lon="10.2520900">
	<ele>1035.80</ele>
	<time>2025-04-30T09:05:15.000Z</time>
</trkpt>
<trkpt lat="45.8987040" lon="10.2520870">
	<ele>1035.40</ele>
	<time>2025-04-30T09:05:16.000Z</time>
</trkpt>
<trkpt lat="45.8987140" lon="10.2520970">
	<ele>1035.00</ele>
	<time>2025-04-30T09:05:17.000Z</time>
</trkpt>
<trkpt lat="45.8987310" lon="10.2521040">
	<ele>1034.60</ele>
	<time>2025-04-30T09:05:18.000Z</time>
</trkpt>
<trkpt lat="45.8987450" lon="10.2521030">
	<ele>1034.20</ele>
	<time>2025-04-30T09:05:19.000Z</time>
</trkpt>
<trkpt lat="45.8987540" lon="10.2521000">
	<ele>1033.80</ele>
	<time>2025-04-30T09:05:20.000Z</time>
</trkpt>
<trkpt lat="45.8987670" lon="10.2520990">
	<ele>1033.60</ele>
	<time>2025-04-30T09:05:21.000Z</time>
</trkpt>
<trkpt lat="45.8987740" lon="10.2521060">
	<ele>1033.20</ele>
	<time>2025-04-30T09:05:22.000Z</time>
</trkpt>
<trkpt lat="45.8987810" lon="10.2521100">
	<ele>1033.00</ele>
	<time>2025-04-30T09:05:23.000Z</time>
</trkpt>
<trkpt lat="45.8987930" lon="10.2521090">
	<ele>1032.60</ele>
	<time>2025-04-30T09:05:24.000Z</time>
</trkpt>
<trkpt lat="45.8987970" lon="10.2521080">
	<ele>1032.00</ele>
	<time>2025-04-30T09:05:25.000Z</time>
</trkpt>
<trkpt lat="45.8988060" lon="10.2521170">
	<ele>1031.80</ele>
	<time>2025-04-30T09:05:26.000Z</time>
</trkpt>
<trkpt lat="45.8988160" lon="10.2521230">
	<ele>1031.40</ele>
	<time>2025-04-30T09:05:27.000Z</time>
</trkpt>
<trkpt lat="45.8988320" lon="10.2521330">
	<ele>1031.00</ele>
	<time>2025-04-30T09:05:28.000Z</time>
</trkpt>
<trkpt lat="45.8988370" lon="10.2521440">
	<ele>1030.80</ele>
	<time>2025-04-30T09:05:29.000Z</time>
</trkpt>
<trkpt lat="45.8988400" lon="10.2521500">
	<ele>1030.60</ele>
	<time>2025-04-30T09:05:30.000Z</time>
</trkpt>
<trkpt lat="45.8988490" lon="10.2521550">
	<ele>1030.00</ele>
	<time>2025-04-30T09:05:31.000Z</time>
</trkpt>
<trkpt lat="45.8988600" lon="10.2521630">
	<ele>1029.60</ele>
	<time>2025-04-30T09:05:32.000Z</time>
</trkpt>
<trkpt lat="45.8988670" lon="10.2521720">
	<ele>1029.20</ele>
	<time>2025-04-30T09:05:33.000Z</time>
</trkpt>
<trkpt lat="45.8988780" lon="10.2521800">
	<ele>1029.00</ele>
	<time>2025-04-30T09:05:34.000Z</time>
</trkpt>
<trkpt lat="45.8988860" lon="10.2521880">
	<ele>1028.40</ele>
	<time>2025-04-30T09:05:35.000Z</time>
</trkpt>
<trkpt lat="45.8988900" lon="10.2521890">
	<ele>1028.00</ele>
	<time>2025-04-30T09:05:36.000Z</time>
</trkpt>
<trkpt lat="45.8989020" lon="10.2521950">
	<ele>1027.80</ele>
	<time>2025-04-30T09:05:37.000Z</time>
</trkpt>
<trkpt lat="45.8989200" lon="10.2522020">
	<ele>1027.40</ele>
	<time>2025-04-30T09:05:38.000Z</time>
</trkpt>
<trkpt lat="45.8989370" lon="10.2522090">
	<ele>1027.20</ele>
	<time>2025-04-30T09:05:39.000Z</time>
</trkpt>
<trkpt lat="45.8989470" lon="10.2522200">
	<ele>1026.80</ele>
	<time>2025-04-30T09:05:40.000Z</time>
</trkpt>
<trkpt lat="45.8989620" lon="10.2522280">
	<ele>1026.60</ele>
	<time>2025-04-30T09:05:41.000Z</time>
</trkpt>
<trkpt lat="45.8989840" lon="10.2522270">
	<ele>1026.20</ele>
	<time>2025-04-30T09:05:42.000Z</time>
</trkpt>
<trkpt lat="45.8990040" lon="10.2522170">
	<ele>1025.80</ele>
	<time>2025-04-30T09:05:43.000Z</time>
</trkpt>
<trkpt lat="45.8990280" lon="10.2522050">
	<ele>1025.20</ele>
	<time>2025-04-30T09:05:44.000Z</time>
</trkpt>
<trkpt lat="45.8990430" lon="10.2521990">
	<ele>1025.00</ele>
	<time>2025-04-30T09:05:45.000Z</time>
</trkpt>
<trkpt lat="45.8990490" lon="10.2522020">
	<ele>1024.80</ele>
	<time>2025-04-30T09:05:46.000Z</time>
</trkpt>
<trkpt lat="45.8990550" lon="10.2522200">
	<ele>1024.40</ele>
	<time>2025-04-30T09:05:47.000Z</time>
</trkpt>
<trkpt lat="45.8990640" lon="10.2522300">
	<ele>1024.00</ele>
	<time>2025-04-30T09:05:48.000Z</time>
</trkpt>
<trkpt lat="45.8990750" lon="10.2522390">
	<ele>1023.60</ele>
	<time>2025-04-30T09:05:49.000Z</time>
</trkpt>
<trkpt lat="45.8990840" lon="10.2522480">
	<ele>1023.40</ele>
	<time>2025-04-30T09:05:50.000Z</time>
</trkpt>
<trkpt lat="45.8990960" lon="10.2522540">
	<ele>1022.80</ele>
	<time>2025-04-30T09:05:51.000Z</time>
</trkpt>
<trkpt lat="45.8991060" lon="10.2522620">
	<ele>1022.60</ele>
	<time>2025-04-30T09:05:52.000Z</time>
</trkpt>
<trkpt lat="45.8991100" lon="10.2522710">
	<ele>1022.40</ele>
	<time>2025-04-30T09:05:53.000Z</time>
</trkpt>
<trkpt lat="45.8991190" lon="10.2522780">
	<ele>1022.20</ele>
	<time>2025-04-30T09:05:54.000Z</time>
</trkpt>
<trkpt lat="45.8991270" lon="10.2522870">
	<ele>1021.60</ele>
	<time>2025-04-30T09:05:55.000Z</time>
</trkpt>
<trkpt lat="45.8991380" lon="10.2522900">
	<ele>1021.40</ele>
	<time>2025-04-30T09:05:56.000Z</time>
</trkpt>
<trkpt lat="45.8991520" lon="10.2522870">
	<ele>1021.00</ele>
	<time>2025-04-30T09:05:57.000Z</time>
</trkpt>
<trkpt lat="45.8991650" lon="10.2522840">
	<ele>1020.80</ele>
	<time>2025-04-30T09:05:58.000Z</time>
</trkpt>
<trkpt lat="45.8991780" lon="10.2522840">
	<ele>1020.20</ele>
	<time>2025-04-30T09:05:59.000Z</time>
</trkpt>
<trkpt lat="45.8991860" lon="10.2522930">
	<ele>1019.80</ele>
	<time>2025-04-30T09:06:00.000Z</time>
</trkpt>
<trkpt lat="45.8991900" lon="10.2523070">
	<ele>1019.40</ele>
	<time>2025-04-30T09:06:01.000Z</time>
</trkpt>
<trkpt lat="45.8991960" lon="10.2523250">
	<ele>1019.00</ele>
	<time>2025-04-30T09:06:02.000Z</time>
</trkpt>
<trkpt lat="45.8992070" lon="10.2523410">
	<ele>1018.60</ele>
	<time>2025-04-30T09:06:03.000Z</time>
</trkpt>
<trkpt lat="45.8992210" lon="10.2523490">
	<ele>1018.00</ele>
	<time>2025-04-30T09:06:04.000Z</time>
</trkpt>
<trkpt lat="45.8992400" lon="10.2523530">
	<ele>1017.80</ele>
	<time>2025-04-30T09:06:05.000Z</time>
</trkpt>
<trkpt lat="45.8992570" lon="10.2523520">
	<ele>1017.60</ele>
	<time>2025-04-30T09:06:06.000Z</time>
</trkpt>
<trkpt lat="45.8992670" lon="10.2523540">
	<ele>1017.00</ele>
	<time>2025-04-30T09:06:07.000Z</time>
</trkpt>
<trkpt lat="45.8992810" lon="10.2523530">
	<ele>1016.80</ele>
	<time>2025-04-30T09:06:08.000Z</time>
</trkpt>
<trkpt lat="45.8992950" lon="10.2523570">
	<ele>1016.40</ele>
	<time>2025-04-30T09:06:09.000Z</time>
</trkpt>
<trkpt lat="45.8993100" lon="10.2523640">
	<ele>1016.20</ele>
	<time>2025-04-30T09:06:10.000Z</time>
</trkpt>
<trkpt lat="45.8993240" lon="10.2523730">
	<ele>1015.80</ele>
	<time>2025-04-30T09:06:11.000Z</time>
</trkpt>
<trkpt lat="45.8993370" lon="10.2523900">
	<ele>1015.40</ele>
	<time>2025-04-30T09:06:12.000Z</time>
</trkpt>
<trkpt lat="45.8993540" lon="10.2523980">
	<ele>1015.00</ele>
	<time>2025-04-30T09:06:13.000Z</time>
</trkpt>
<trkpt lat="45.8993720" lon="10.2523990">
	<ele>1014.60</ele>
	<time>2025-04-30T09:06:14.000Z</time>
</trkpt>
<trkpt lat="45.8993860" lon="10.2524020">
	<ele>1014.40</ele>
	<time>2025-04-30T09:06:15.000Z</time>
</trkpt>
<trkpt lat="45.8994020" lon="10.2524130">
	<ele>1014.20</ele>
	<time>2025-04-30T09:06:16.000Z</time>
</trkpt>
<trkpt lat="45.8994220" lon="10.2524220">
	<ele>1014.00</ele>
	<time>2025-04-30T09:06:17.000Z</time>
</trkpt>
<trkpt lat="45.8994380" lon="10.2524280">
	<ele>1014.00</ele>
	<time>2025-04-30T09:06:18.000Z</time>
</trkpt>
<trkpt lat="45.8994500" lon="10.2524360">
	<ele>1013.40</ele>
	<time>2025-04-30T09:06:19.000Z</time>
</trkpt>
<trkpt lat="45.8994620" lon="10.2524520">
	<ele>1013.00</ele>
	<time>2025-04-30T09:06:20.000Z</time>
</trkpt>
<trkpt lat="45.8994720" lon="10.2524690">
	<ele>1012.80</ele>
	<time>2025-04-30T09:06:21.000Z</time>
</trkpt>
<trkpt lat="45.8994650" lon="10.2525060">
	<ele>1012.20</ele>
	<time>2025-04-30T09:06:22.000Z</time>
</trkpt>
<trkpt lat="45.8994610" lon="10.2525330">
	<ele>1012.00</ele>
	<time>2025-04-30T09:06:23.000Z</time>
</trkpt>
<trkpt lat="45.8994670" lon="10.2525500">
	<ele>1011.80</ele>
	<time>2025-04-30T09:06:24.000Z</time>
</trkpt>
<trkpt lat="45.8994720" lon="10.2525640">
	<ele>1011.40</ele>
	<time>2025-04-30T09:06:25.000Z</time>
</trkpt>
<trkpt lat="45.8994890" lon="10.2525710">
	<ele>1011.20</ele>
	<time>2025-04-30T09:06:26.000Z</time>
</trkpt>
<trkpt lat="45.8995060" lon="10.2525790">
	<ele>1010.40</ele>
	<time>2025-04-30T09:06:27.000Z</time>
</trkpt>
<trkpt lat="45.8995130" lon="10.2525930">
	<ele>1010.20</ele>
	<time>2025-04-30T09:06:28.000Z</time>
</trkpt>
<trkpt lat="45.8995280" lon="10.2526080">
	<ele>1009.60</ele>
	<time>2025-04-30T09:06:29.000Z</time>
</trkpt>
<trkpt lat="45.8995350" lon="10.2526220">
	<ele>1009.20</ele>
	<time>2025-04-30T09:06:30.000Z</time>
</trkpt>
<trkpt lat="45.8995450" lon="10.2526300">
	<ele>1009.00</ele>
	<time>2025-04-30T09:06:31.000Z</time>
</trkpt>
<trkpt lat="45.8995490" lon="10.2526310">
	<ele>1008.80</ele>
	<time>2025-04-30T09:06:32.000Z</time>
</trkpt>
<trkpt lat="45.8995550" lon="10.2526390">
	<ele>1008.40</ele>
	<time>2025-04-30T09:06:33.000Z</time>
</trkpt>
<trkpt lat="45.8995530" lon="10.2526480">
	<ele>1008.00</ele>
	<time>2025-04-30T09:06:34.000Z</time>
</trkpt>
<trkpt lat="45.8995490" lon="10.2526650">
	<ele>1007.60</ele>
	<time>2025-04-30T09:06:35.000Z</time>
</trkpt>
<trkpt lat="45.8995530" lon="10.2526810">
	<ele>1007.40</ele>
	<time>2025-04-30T09:06:36.000Z</time>
</trkpt>
<trkpt lat="45.8995650" lon="10.2526990">
	<ele>1007.00</ele>
	<time>2025-04-30T09:06:37.000Z</time>
</trkpt>
<trkpt lat="45.8995770" lon="10.2527060">
	<ele>1006.80</ele>
	<time>2025-04-30T09:06:38.000Z</time>
</trkpt>
<trkpt lat="45.8995870" lon="10.2527200">
	<ele>1006.40</ele>
	<time>2025-04-30T09:06:39.000Z</time>
</trkpt>
<trkpt lat="45.8996070" lon="10.2527150">
	<ele>1006.20</ele>
	<time>2025-04-30T09:06:40.000Z</time>
</trkpt>
<trkpt lat="45.8996370" lon="10.2526980">
	<ele>1006.00</ele>
	<time>2025-04-30T09:06:41.000Z</time>
</trkpt>
<trkpt lat="45.8996480" lon="10.2526980">
	<ele>1005.40</ele>
	<time>2025-04-30T09:06:42.000Z</time>
</trkpt>
<trkpt lat="45.8996530" lon="10.2527050">
	<ele>1004.80</ele>
	<time>2025-04-30T09:06:43.000Z</time>
</trkpt>
<trkpt lat="45.8996650" lon="10.2527110">
	<ele>1004.60</ele>
	<time>2025-04-30T09:06:44.000Z</time>
</trkpt>
<trkpt lat="45.8996750" lon="10.2527220">
	<ele>1004.40</ele>
	<time>2025-04-30T09:06:45.000Z</time>
</trkpt>
<trkpt lat="45.8996820" lon="10.2527430">
	<ele>1004.20</ele>
	<time>2025-04-30T09:06:46.000Z</time>
</trkpt>
<trkpt lat="45.8996860" lon="10.2527560">
	<ele>1004.00</ele>
	<time>2025-04-30T09:06:47.000Z</time>
</trkpt>
<trkpt lat="45.8996900" lon="10.2527570">
	<ele>1004.00</ele>
	<time>2025-04-30T09:06:48.000Z</time>
</trkpt>
<trkpt lat="45.8996940" lon="10.2527580">
	<ele>1003.80</ele>
	<time>2025-04-30T09:06:49.000Z</time>
</trkpt>
<trkpt lat="45.8997000" lon="10.2527570">
	<ele>1003.80</ele>
	<time>2025-04-30T09:06:50.000Z</time>
</trkpt>
<trkpt lat="45.8997060" lon="10.2527580">
	<ele>1003.60</ele>
	<time>2025-04-30T09:06:51.000Z</time>
</trkpt>
<trkpt lat="45.8997150" lon="10.2527680">
	<ele>1003.60</ele>
	<time>2025-04-30T09:06:52.000Z</time>
</trkpt>
<trkpt lat="45.8997230" lon="10.2527840">
	<ele>1003.60</ele>
	<time>2025-04-30T09:06:53.000Z</time>
</trkpt>
<trkpt lat="45.8997150" lon="10.2528080">
	<ele>1003.60</ele>
	<time>2025-04-30T09:06:54.000Z</time>
</trkpt>
<trkpt lat="45.8997180" lon="10.2528080">
	<ele>1003.60</ele>
	<time>2025-04-30T09:06:55.000Z</time>
</trkpt>
<trkpt lat="45.8997270" lon="10.2528160">
	<ele>1003.60</ele>
	<time>2025-04-30T09:06:56.000Z</time>
</trkpt>
<trkpt lat="45.8997310" lon="10.2528160">
	<ele>1003.40</ele>
	<time>2025-04-30T09:06:57.000Z</time>
</trkpt>
<trkpt lat="45.8997380" lon="10.2528190">
	<ele>1003.40</ele>
	<time>2025-04-30T09:06:58.000Z</time>
</trkpt>
<trkpt lat="45.8997450" lon="10.2528180">
	<ele>1003.40</ele>
	<time>2025-04-30T09:06:59.000Z</time>
</trkpt>
<trkpt lat="45.8997500" lon="10.2528130">
	<ele>1003.20</ele>
	<time>2025-04-30T09:07:00.000Z</time>
</trkpt>
<trkpt lat="45.8997590" lon="10.2528020">
	<ele>1003.00</ele>
	<time>2025-04-30T09:07:01.000Z</time>
</trkpt>
<trkpt lat="45.8997580" lon="10.2527940">
	<ele>1002.80</ele>
	<time>2025-04-30T09:07:02.000Z</time>
</trkpt>
<trkpt lat="45.8997620" lon="10.2527910">
	<ele>1002.80</ele>
	<time>2025-04-30T09:07:03.000Z</time>
</trkpt>
<trkpt lat="45.8997690" lon="10.2527730">
	<ele>1002.60</ele>
	<time>2025-04-30T09:07:04.000Z</time>
</trkpt>
<trkpt lat="45.8997660" lon="10.2527680">
	<ele>1002.60</ele>
	<time>2025-04-30T09:07:05.000Z</time>
</trkpt>
<trkpt lat="45.8997740" lon="10.2527680">
	<ele>1002.60</ele>
	<time>2025-04-30T09:07:06.000Z</time>
</trkpt>
<trkpt lat="45.8997780" lon="10.2527850">
	<ele>1002.60</ele>
	<time>2025-04-30T09:07:07.000Z</time>
</trkpt>
<trkpt lat="45.8997840" lon="10.2528070">
	<ele>1002.60</ele>
	<time>2025-04-30T09:07:08.000Z</time>
</trkpt>
<trkpt lat="45.8997920" lon="10.2528240">
	<ele>1002.40</ele>
	<time>2025-04-30T09:07:09.000Z</time>
</trkpt>
<trkpt lat="45.8997920" lon="10.2528370">
	<ele>1002.20</ele>
	<time>2025-04-30T09:07:10.000Z</time>
</trkpt>
<trkpt lat="45.8997880" lon="10.2528410">
	<ele>1001.80</ele>
	<time>2025-04-30T09:07:11.000Z</time>
</trkpt>
<trkpt lat="45.8997990" lon="10.2528430">
	<ele>1001.60</ele>
	<time>2025-04-30T09:07:12.000Z</time>
</trkpt>
<trkpt lat="45.8998000" lon="10.2528500">
	<ele>1001.40</ele>
	<time>2025-04-30T09:07:13.000Z</time>
</trkpt>
<trkpt lat="45.8997980" lon="10.2528590">
	<ele>1001.20</ele>
	<time>2025-04-30T09:07:14.000Z</time>
</trkpt>
<trkpt lat="45.8998120" lon="10.2528470">
	<ele>1001.00</ele>
	<time>2025-04-30T09:07:15.000Z</time>
</trkpt>
<trkpt lat="45.8998140" lon="10.2528500">
	<ele>1001.00</ele>
	<time>2025-04-30T09:07:16.000Z</time>
</trkpt>
<trkpt lat="45.8998280" lon="10.2528360">
	<ele>1001.00</ele>
	<time>2025-04-30T09:07:17.000Z</time>
</trkpt>
<trkpt lat="45.8998350" lon="10.2528280">
	<ele>1001.20</ele>
	<time>2025-04-30T09:07:18.000Z</time>
</trkpt>
<trkpt lat="45.8998470" lon="10.2528200">
	<ele>1001.20</ele>
	<time>2025-04-30T09:07:19.000Z</time>
</trkpt>
<trkpt lat="45.8998470" lon="10.2528190">
	<ele>1001.20</ele>
	<time>2025-04-30T09:07:20.000Z</time>
</trkpt>
<trkpt lat="45.8998720" lon="10.2528230">
	<ele>1001.40</ele>
	<time>2025-04-30T09:07:21.000Z</time>
</trkpt>
<trkpt lat="45.8998910" lon="10.2528240">
	<ele>1001.20</ele>
	<time>2025-04-30T09:07:22.000Z</time>
</trkpt>
<trkpt lat="45.8999040" lon="10.2528240">
	<ele>1001.00</ele>
	<time>2025-04-30T09:07:23.000Z</time>
</trkpt>
<trkpt lat="45.8999140" lon="10.2528300">
	<ele>1000.80</ele>
	<time>2025-04-30T09:07:24.000Z</time>
</trkpt>
<trkpt lat="45.8999150" lon="10.2528390">
	<ele>1000.60</ele>
	<time>2025-04-30T09:07:25.000Z</time>
</trkpt>
<trkpt lat="45.8999050" lon="10.2528460">
	<ele>1000.60</ele>
	<time>2025-04-30T09:07:26.000Z</time>
</trkpt>
<trkpt lat="45.8998960" lon="10.2528520">
	<ele>1000.60</ele>
	<time>2025-04-30T09:07:27.000Z</time>
</trkpt>
<trkpt lat="45.8998910" lon="10.2528560">
	<ele>1000.40</ele>
	<time>2025-04-30T09:07:28.000Z</time>
</trkpt>
<trkpt lat="45.8998980" lon="10.2528570">
	<ele>1000.40</ele>
	<time>2025-04-30T09:07:29.000Z</time>
</trkpt>
<trkpt lat="45.8999010" lon="10.2528570">
	<ele>1000.40</ele>
	<time>2025-04-30T09:07:30.000Z</time>
</trkpt>
<trkpt lat="45.8999030" lon="10.2528570">
	<ele>1000.40</ele>
	<time>2025-04-30T09:07:31.000Z</time>
</trkpt>
<trkpt lat="45.8999020" lon="10.2528570">
	<ele>1000.40</ele>
	<time>2025-04-30T09:07:32.000Z</time>
</trkpt>
<trkpt lat="45.8999010" lon="10.2528580">
	<ele>1000.40</ele>
	<time>2025-04-30T09:07:33.000Z</time>
</trkpt>
<trkpt lat="45.8999000" lon="10.2528570">
	<ele>1000.40</ele>
	<time>2025-04-30T09:07:34.000Z</time>
</trkpt>
<trkpt lat="45.8999120" lon="10.2528610">
	<ele>1000.40</ele>
	<time>2025-04-30T09:07:35.000Z</time>
</trkpt>
<trkpt lat="45.8999240" lon="10.2528570">
	<ele>1000.40</ele>
	<time>2025-04-30T09:07:36.000Z</time>
</trkpt>
<trkpt lat="45.8999430" lon="10.2528510">
	<ele>1000.40</ele>
	<time>2025-04-30T09:07:37.000Z</time>
</trkpt>
<trkpt lat="45.8999410" lon="10.2528530">
	<ele>1000.40</ele>
	<time>2025-04-30T09:07:38.000Z</time>
</trkpt>
<trkpt lat="45.8999510" lon="10.2528530">
	<ele>1000.40</ele>
	<time>2025-04-30T09:07:39.000Z</time>
</trkpt>
<trkpt lat="45.8999430" lon="10.2528570">
	<ele>1000.20</ele>
	<time>2025-04-30T09:07:40.000Z</time>
</trkpt>
<trkpt lat="45.8999340" lon="10.2528720">
	<ele>1000.20</ele>
	<time>2025-04-30T09:07:41.000Z</time>
</trkpt>
<trkpt lat="45.8999300" lon="10.2528670">
	<ele>1000.20</ele>
	<time>2025-04-30T09:07:42.000Z</time>
</trkpt>
<trkpt lat="45.8999290" lon="10.2528640">
	<ele>1000.00</ele>
	<time>2025-04-30T09:07:43.000Z</time>
</trkpt>
<trkpt lat="45.8999340" lon="10.2528590">
	<ele>1000.00</ele>
	<time>2025-04-30T09:07:44.000Z</time>
</trkpt>
<trkpt lat="45.8999350" lon="10.2528590">
	<ele>999.80</ele>
	<time>2025-04-30T09:07:45.000Z</time>
</trkpt>
<trkpt lat="45.8999360" lon="10.2528570">
	<ele>999.80</ele>
	<time>2025-04-30T09:07:46.000Z</time>
</trkpt>
<trkpt lat="45.8999360" lon="10.2528580">
	<ele>999.80</ele>
	<time>2025-04-30T09:07:47.000Z</time>
</trkpt>
<trkpt lat="45.8999360" lon="10.2528580">
	<ele>999.80</ele>
	<time>2025-04-30T09:07:48.000Z</time>
</trkpt>
<trkpt lat="45.8999360" lon="10.2528580">
	<ele>999.80</ele>
	<time>2025-04-30T09:07:49.000Z</time>
</trkpt>
<trkpt lat="45.8999360" lon="10.2528580">
	<ele>999.80</ele>
	<time>2025-04-30T09:07:50.000Z</time>
</trkpt>
<trkpt lat="45.8999360" lon="10.2528580">
	<ele>1000.00</ele>
	<time>2025-04-30T09:07:51.000Z</time>
</trkpt>
<trkpt lat="45.8999360" lon="10.2528580">
	<ele>1000.00</ele>
	<time>2025-04-30T09:07:52.000Z</time>
</trkpt>
<trkpt lat="45.8999360" lon="10.2528580">
	<ele>1000.00</ele>
	<time>2025-04-30T09:07:53.000Z</time>
</trkpt>
<trkpt lat="45.8999360" lon="10.2528580">
	<ele>1000.00</ele>
	<time>2025-04-30T09:07:54.000Z</time>
</trkpt>
<trkpt lat="45.8999360" lon="10.2528580">
	<ele>1000.00</ele>
	<time>2025-04-30T09:07:55.000Z</time>
</trkpt>
<trkpt lat="45.8999360" lon="10.2528580">
	<ele>1000.20</ele>
	<time>2025-04-30T09:07:56.000Z</time>
</trkpt>
<trkpt lat="45.8999360" lon="10.2528580">
	<ele>1000.20</ele>
	<time>2025-04-30T09:07:57.000Z</time>
</trkpt>
<trkpt lat="45.8999360" lon="10.2528580">
	<ele>1000.00</ele>
	<time>2025-04-30T09:07:58.000Z</time>
</trkpt>
<trkpt lat="45.8999360" lon="10.2528580">
	<ele>1000.20</ele>
	<time>2025-04-30T09:07:59.000Z</time>
</trkpt>
<trkpt lat="45.8999360" lon="10.2528570">
	<ele>1000.40</ele>
	<time>2025-04-30T09:08:00.000Z</time>
</trkpt>
<trkpt lat="45.8999360" lon="10.2528570">
	<ele>1000.40</ele>
	<time>2025-04-30T09:08:01.000Z</time>
</trkpt>
<trkpt lat="45.8999360" lon="10.2528570">
	<ele>1000.20</ele>
	<time>2025-04-30T09:08:02.000Z</time>
</trkpt>
<trkpt lat="45.8999360" lon="10.2528570">
	<ele>1000.20</ele>
	<time>2025-04-30T09:08:03.000Z</time>
</trkpt>
<trkpt lat="45.8999360" lon="10.2528560">
	<ele>1000.20</ele>
	<time>2025-04-30T09:08:04.000Z</time>
</trkpt>
<trkpt lat="45.8999370" lon="10.2528560">
	<ele>1000.20</ele>
	<time>2025-04-30T09:08:05.000Z</time>
</trkpt>
<trkpt lat="45.8999370" lon="10.2528550">
	<ele>1000.20</ele>
	<time>2025-04-30T09:08:06.000Z</time>
</trkpt>
<trkpt lat="45.8999370" lon="10.2528530">
	<ele>1000.20</ele>
	<time>2025-04-30T09:08:07.000Z</time>
</trkpt>
<trkpt lat="45.8999370" lon="10.2528520">
	<ele>1000.00</ele>
	<time>2025-04-30T09:08:08.000Z</time>
</trkpt>
<trkpt lat="45.8999370" lon="10.2528430">
	<ele>1000.00</ele>
	<time>2025-04-30T09:08:09.000Z</time>
</trkpt>
<trkpt lat="45.8999370" lon="10.2528420">
	<ele>999.80</ele>
	<time>2025-04-30T09:08:10.000Z</time>
</trkpt>
<trkpt lat="45.8999370" lon="10.2528420">
	<ele>999.80</ele>
	<time>2025-04-30T09:08:11.000Z</time>
</trkpt>
<trkpt lat="45.8999370" lon="10.2528420">
	<ele>999.80</ele>
	<time>2025-04-30T09:08:12.000Z</time>
</trkpt>
<trkpt lat="45.8999370" lon="10.2528420">
	<ele>999.80</ele>
	<time>2025-04-30T09:08:13.000Z</time>
</trkpt>
<trkpt lat="45.8999370" lon="10.2528420">
	<ele>999.80</ele>
	<time>2025-04-30T09:08:14.000Z</time>
</trkpt>
<trkpt lat="45.8999370" lon="10.2528420">
	<ele>999.80</ele>
	<time>2025-04-30T09:08:15.000Z</time>
</trkpt>
<trkpt lat="45.8999370" lon="10.2528420">
	<ele>999.80</ele>
	<time>2025-04-30T09:08:16.000Z</time>
</trkpt>
<trkpt lat="45.8999370" lon="10.2528420">
	<ele>999.80</ele>
	<time>2025-04-30T09:08:17.000Z</time>
</trkpt>
<trkpt lat="45.8999330" lon="10.2528440">
	<ele>999.80</ele>
	<time>2025-04-30T09:08:18.000Z</time>
</trkpt>
<trkpt lat="45.8999280" lon="10.2528460">
	<ele>1000.00</ele>
	<time>2025-04-30T09:08:19.000Z</time>
</trkpt>
<trkpt lat="45.8999250" lon="10.2528480">
	<ele>1000.00</ele>
	<time>2025-04-30T09:08:20.000Z</time>
</trkpt>
<trkpt lat="45.8999200" lon="10.2528520">
	<ele>1000.00</ele>
	<time>2025-04-30T09:08:21.000Z</time>
</trkpt>
<trkpt lat="45.8999140" lon="10.2528570">
	<ele>1000.00</ele>
	<time>2025-04-30T09:08:22.000Z</time>
</trkpt>
<trkpt lat="45.8999070" lon="10.2528670">
	<ele>1000.00</ele>
	<time>2025-04-30T09:08:23.000Z</time>
</trkpt>
<trkpt lat="45.8999010" lon="10.2528730">
	<ele>1000.00</ele>
	<time>2025-04-30T09:08:24.000Z</time>
</trkpt>
<trkpt lat="45.8998970" lon="10.2528780">
	<ele>1000.00</ele>
	<time>2025-04-30T09:08:25.000Z</time>
</trkpt>
<trkpt lat="45.8998980" lon="10.2528800">
	<ele>1000.20</ele>
	<time>2025-04-30T09:08:26.000Z</time>
</trkpt>
<trkpt lat="45.8999000" lon="10.2528790">
	<ele>1000.20</ele>
	<time>2025-04-30T09:08:27.000Z</time>
</trkpt>
<trkpt lat="45.8999030" lon="10.2528820">
	<ele>1000.20</ele>
	<time>2025-04-30T09:08:28.000Z</time>
</trkpt>
<trkpt lat="45.8999030" lon="10.2528840">
	<ele>1000.40</ele>
	<time>2025-04-30T09:08:29.000Z</time>
</trkpt>
<trkpt lat="45.8999070" lon="10.2528890">
	<ele>1000.40</ele>
	<time>2025-04-30T09:08:30.000Z</time>
</trkpt>
<trkpt lat="45.8999110" lon="10.2528930">
	<ele>1000.40</ele>
	<time>2025-04-30T09:08:31.000Z</time>
</trkpt>
<trkpt lat="45.8999160" lon="10.2528920">
	<ele>1000.40</ele>
	<time>2025-04-30T09:08:32.000Z</time>
</trkpt>
<trkpt lat="45.8999210" lon="10.2528900">
	<ele>1000.40</ele>
	<time>2025-04-30T09:08:33.000Z</time>
</trkpt>
<trkpt lat="45.8999250" lon="10.2528860">
	<ele>1000.40</ele>
	<time>2025-04-30T09:08:34.000Z</time>
</trkpt>
<trkpt lat="45.8999260" lon="10.2528870">
	<ele>1000.40</ele>
	<time>2025-04-30T09:08:35.000Z</time>
</trkpt>
<trkpt lat="45.8999280" lon="10.2528790">
	<ele>1000.40</ele>
	<time>2025-04-30T09:08:36.000Z</time>
</trkpt>
<trkpt lat="45.8999240" lon="10.2528820">
	<ele>1000.40</ele>
	<time>2025-04-30T09:08:37.000Z</time>
</trkpt>
<trkpt lat="45.8999180" lon="10.2528900">
	<ele>1000.40</ele>
	<time>2025-04-30T09:08:38.000Z</time>
</trkpt>
<trkpt lat="45.8999130" lon="10.2529000">
	<ele>1000.40</ele>
	<time>2025-04-30T09:08:39.000Z</time>
</trkpt>
<trkpt lat="45.8999110" lon="10.2529070">
	<ele>1000.40</ele>
	<time>2025-04-30T09:08:40.000Z</time>
</trkpt>
<trkpt lat="45.8999150" lon="10.2529120">
	<ele>1000.60</ele>
	<time>2025-04-30T09:08:41.000Z</time>
</trkpt>
<trkpt lat="45.8999160" lon="10.2529200">
	<ele>1000.60</ele>
	<time>2025-04-30T09:08:42.000Z</time>
</trkpt>
<trkpt lat="45.8999240" lon="10.2529170">
	<ele>1000.40</ele>
	<time>2025-04-30T09:08:43.000Z</time>
</trkpt>
<trkpt lat="45.8999340" lon="10.2529130">
	<ele>1000.00</ele>
	<time>2025-04-30T09:08:44.000Z</time>
</trkpt>
<trkpt lat="45.8999410" lon="10.2529100">
	<ele>999.80</ele>
	<time>2025-04-30T09:08:45.000Z</time>
</trkpt>
<trkpt lat="45.8999540" lon="10.2529010">
	<ele>999.60</ele>
	<time>2025-04-30T09:08:46.000Z</time>
</trkpt>
<trkpt lat="45.8999720" lon="10.2529000">
	<ele>999.40</ele>
	<time>2025-04-30T09:08:47.000Z</time>
</trkpt>
<trkpt lat="45.8999800" lon="10.2528950">
	<ele>999.20</ele>
	<time>2025-04-30T09:08:48.000Z</time>
</trkpt>
<trkpt lat="45.8999820" lon="10.2528940">
	<ele>999.20</ele>
	<time>2025-04-30T09:08:49.000Z</time>
</trkpt>
<trkpt lat="45.8999810" lon="10.2528940">
	<ele>999.20</ele>
	<time>2025-04-30T09:08:50.000Z</time>
</trkpt>
<trkpt lat="45.8999810" lon="10.2528940">
	<ele>999.20</ele>
	<time>2025-04-30T09:08:51.000Z</time>
</trkpt>
<trkpt lat="45.8999880" lon="10.2528950">
	<ele>999.20</ele>
	<time>2025-04-30T09:08:52.000Z</time>
</trkpt>
<trkpt lat="45.8999880" lon="10.2528960">
	<ele>999.20</ele>
	<time>2025-04-30T09:08:53.000Z</time>
</trkpt>
<trkpt lat="45.8999870" lon="10.2528970">
	<ele>999.20</ele>
	<time>2025-04-30T09:08:54.000Z</time>
</trkpt>
<trkpt lat="45.8999780" lon="10.2528770">
	<ele>999.20</ele>
	<time>2025-04-30T09:08:55.000Z</time>
</trkpt>
<trkpt lat="45.8999760" lon="10.2528780">
	<ele>999.20</ele>
	<time>2025-04-30T09:08:56.000Z</time>
</trkpt>
<trkpt lat="45.8999760" lon="10.2528780">
	<ele>999.20</ele>
	<time>2025-04-30T09:08:57.000Z</time>
</trkpt>
<trkpt lat="45.8999750" lon="10.2528800">
	<ele>999.20</ele>
	<time>2025-04-30T09:08:58.000Z</time>
</trkpt>
<trkpt lat="45.8999760" lon="10.2528790">
	<ele>999.20</ele>
	<time>2025-04-30T09:08:59.000Z</time>
</trkpt>
<trkpt lat="45.8999770" lon="10.2528780">
	<ele>999.20</ele>
	<time>2025-04-30T09:09:00.000Z</time>
</trkpt>
<trkpt lat="45.8999780" lon="10.2528760">
	<ele>999.20</ele>
	<time>2025-04-30T09:09:01.000Z</time>
</trkpt>
<trkpt lat="45.8999810" lon="10.2528760">
	<ele>999.20</ele>
	<time>2025-04-30T09:09:02.000Z</time>
</trkpt>
<trkpt lat="45.8999970" lon="10.2528610">
	<ele>999.20</ele>
	<time>2025-04-30T09:09:03.000Z</time>
</trkpt>
<trkpt lat="45.9000130" lon="10.2528580">
	<ele>999.20</ele>
	<time>2025-04-30T09:09:04.000Z</time>
</trkpt>
<trkpt lat="45.9000220" lon="10.2528590">
	<ele>999.20</ele>
	<time>2025-04-30T09:09:05.000Z</time>
</trkpt>
<trkpt lat="45.9000200" lon="10.2528530">
	<ele>999.20</ele>
	<time>2025-04-30T09:09:06.000Z</time>
</trkpt>
<trkpt lat="45.9000250" lon="10.2528430">
	<ele>999.00</ele>
	<time>2025-04-30T09:09:07.000Z</time>
</trkpt>
<trkpt lat="45.9000250" lon="10.2528330">
	<ele>999.00</ele>
	<time>2025-04-30T09:09:08.000Z</time>
</trkpt>
<trkpt lat="45.9000280" lon="10.2528240">
	<ele>998.80</ele>
	<time>2025-04-30T09:09:09.000Z</time>
</trkpt>
<trkpt lat="45.9000280" lon="10.2528130">
	<ele>998.80</ele>
	<time>2025-04-30T09:09:10.000Z</time>
</trkpt>
<trkpt lat="45.9000260" lon="10.2527940">
	<ele>998.60</ele>
	<time>2025-04-30T09:09:11.000Z</time>
</trkpt>
<trkpt lat="45.9000200" lon="10.2527800">
	<ele>998.60</ele>
	<time>2025-04-30T09:09:12.000Z</time>
</trkpt>
<trkpt lat="45.9000150" lon="10.2527720">
	<ele>998.40</ele>
	<time>2025-04-30T09:09:13.000Z</time>
</trkpt>
<trkpt lat="45.9000110" lon="10.2527680">
	<ele>998.20</ele>
	<time>2025-04-30T09:09:14.000Z</time>
</trkpt>
<trkpt lat="45.9000070" lon="10.2527610">
	<ele>998.00</ele>
	<time>2025-04-30T09:09:15.000Z</time>
</trkpt>
<trkpt lat="45.9000040" lon="10.2527500">
	<ele>998.00</ele>
	<time>2025-04-30T09:09:16.000Z</time>
</trkpt>
<trkpt lat="45.9000050" lon="10.2527370">
	<ele>997.80</ele>
	<time>2025-04-30T09:09:17.000Z</time>
</trkpt>
<trkpt lat="45.9000040" lon="10.2527200">
	<ele>997.60</ele>
	<time>2025-04-30T09:09:18.000Z</time>
</trkpt>
<trkpt lat="45.9000020" lon="10.2527000">
	<ele>997.40</ele>
	<time>2025-04-30T09:09:19.000Z</time>
</trkpt>
<trkpt lat="45.9000010" lon="10.2526820">
	<ele>997.20</ele>
	<time>2025-04-30T09:09:20.000Z</time>
</trkpt>
<trkpt lat="45.8999950" lon="10.2526460">
	<ele>997.00</ele>
	<time>2025-04-30T09:09:21.000Z</time>
</trkpt>
<trkpt lat="45.8999870" lon="10.2526320">
	<ele>996.60</ele>
	<time>2025-04-30T09:09:22.000Z</time>
</trkpt>
<trkpt lat="45.8999820" lon="10.2526160">
	<ele>995.80</ele>
	<time>2025-04-30T09:09:23.000Z</time>
</trkpt>
<trkpt lat="45.8999780" lon="10.2525990">
	<ele>995.40</ele>
	<time>2025-04-30T09:09:24.000Z</time>
</trkpt>
<trkpt lat="45.8999720" lon="10.2525860">
	<ele>995.20</ele>
	<time>2025-04-30T09:09:25.000Z</time>
</trkpt>
<trkpt lat="45.8999690" lon="10.2525690">
	<ele>994.80</ele>
	<time>2025-04-30T09:09:26.000Z</time>
</trkpt>
<trkpt lat="45.8999760" lon="10.2525440">
	<ele>994.60</ele>
	<time>2025-04-30T09:09:27.000Z</time>
</trkpt>
<trkpt lat="45.8999870" lon="10.2525250">
	<ele>994.40</ele>
	<time>2025-04-30T09:09:28.000Z</time>
</trkpt>
<trkpt lat="45.8999900" lon="10.2525110">
	<ele>993.80</ele>
	<time>2025-04-30T09:09:29.000Z</time>
</trkpt>
<trkpt lat="45.8999930" lon="10.2524820">
	<ele>993.40</ele>
	<time>2025-04-30T09:09:30.000Z</time>
</trkpt>
<trkpt lat="45.8999990" lon="10.2524590">
	<ele>993.00</ele>
	<time>2025-04-30T09:09:31.000Z</time>
</trkpt>
<trkpt lat="45.9000000" lon="10.2524330">
	<ele>992.60</ele>
	<time>2025-04-30T09:09:32.000Z</time>
</trkpt>
<trkpt lat="45.8999960" lon="10.2524050">
	<ele>992.20</ele>
	<time>2025-04-30T09:09:33.000Z</time>
</trkpt>
<trkpt lat="45.8999930" lon="10.2523790">
	<ele>991.80</ele>
	<time>2025-04-30T09:09:34.000Z</time>
</trkpt>
<trkpt lat="45.8999960" lon="10.2523460">
	<ele>991.20</ele>
	<time>2025-04-30T09:09:35.000Z</time>
</trkpt>
<trkpt lat="45.8999920" lon="10.2523280">
	<ele>991.00</ele>
	<time>2025-04-30T09:09:36.000Z</time>
</trkpt>
<trkpt lat="45.8999900" lon="10.2523130">
	<ele>990.60</ele>
	<time>2025-04-30T09:09:37.000Z</time>
</trkpt>
<trkpt lat="45.8999920" lon="10.2522960">
	<ele>990.20</ele>
	<time>2025-04-30T09:09:38.000Z</time>
</trkpt>
<trkpt lat="45.8999900" lon="10.2522780">
	<ele>989.80</ele>
	<time>2025-04-30T09:09:39.000Z</time>
</trkpt>
<trkpt lat="45.8999880" lon="10.2522590">
	<ele>989.40</ele>
	<time>2025-04-30T09:09:40.000Z</time>
</trkpt>
<trkpt lat="45.8999840" lon="10.2522410">
	<ele>989.00</ele>
	<time>2025-04-30T09:09:41.000Z</time>
</trkpt>
<trkpt lat="45.8999700" lon="10.2522190">
	<ele>988.60</ele>
	<time>2025-04-30T09:09:42.000Z</time>
</trkpt>
<trkpt lat="45.8999450" lon="10.2521990">
	<ele>988.00</ele>
	<time>2025-04-30T09:09:43.000Z</time>
</trkpt>
<trkpt lat="45.8999180" lon="10.2521900">
	<ele>987.60</ele>
	<time>2025-04-30T09:09:44.000Z</time>
</trkpt>
<trkpt lat="45.8998770" lon="10.2521720">
	<ele>987.40</ele>
	<time>2025-04-30T09:09:45.000Z</time>
</trkpt>
<trkpt lat="45.8998680" lon="10.2521670">
	<ele>987.00</ele>
	<time>2025-04-30T09:09:46.000Z</time>
</trkpt>
<trkpt lat="45.8998580" lon="10.2521570">
	<ele>986.60</ele>
	<time>2025-04-30T09:09:47.000Z</time>
</trkpt>
<trkpt lat="45.8998420" lon="10.2521530">
	<ele>986.40</ele>
	<time>2025-04-30T09:09:48.000Z</time>
</trkpt>
<trkpt lat="45.8998230" lon="10.2521500">
	<ele>986.20</ele>
	<time>2025-04-30T09:09:49.000Z</time>
</trkpt>
<trkpt lat="45.8998090" lon="10.2521430">
	<ele>986.00</ele>
	<time>2025-04-30T09:09:50.000Z</time>
</trkpt>
<trkpt lat="45.8997900" lon="10.2521310">
	<ele>985.80</ele>
	<time>2025-04-30T09:09:51.000Z</time>
</trkpt>
<trkpt lat="45.8997750" lon="10.2521170">
	<ele>985.60</ele>
	<time>2025-04-30T09:09:52.000Z</time>
</trkpt>
<trkpt lat="45.8997610" lon="10.2521010">
	<ele>985.40</ele>
	<time>2025-04-30T09:09:53.000Z</time>
</trkpt>
<trkpt lat="45.8997490" lon="10.2520850">
	<ele>985.20</ele>
	<time>2025-04-30T09:09:54.000Z</time>
</trkpt>
<trkpt lat="45.8997330" lon="10.2520770">
	<ele>985.00</ele>
	<time>2025-04-30T09:09:55.000Z</time>
</trkpt>
<trkpt lat="45.8997150" lon="10.2520610">
	<ele>984.80</ele>
	<time>2025-04-30T09:09:56.000Z</time>
</trkpt>
<trkpt lat="45.8997020" lon="10.2520460">
	<ele>984.60</ele>
	<time>2025-04-30T09:09:57.000Z</time>
</trkpt>
<trkpt lat="45.8997000" lon="10.2520300">
	<ele>984.60</ele>
	<time>2025-04-30T09:09:58.000Z</time>
</trkpt>
<trkpt lat="45.8997000" lon="10.2520170">
	<ele>984.20</ele>
	<time>2025-04-30T09:09:59.000Z</time>
</trkpt>
<trkpt lat="45.8997020" lon="10.2520050">
	<ele>984.20</ele>
	<time>2025-04-30T09:10:00.000Z</time>
</trkpt>
<trkpt lat="45.8997050" lon="10.2519880">
	<ele>983.80</ele>
	<time>2025-04-30T09:10:01.000Z</time>
</trkpt>
<trkpt lat="45.8997070" lon="10.2519670">
	<ele>983.40</ele>
	<time>2025-04-30T09:10:02.000Z</time>
</trkpt>
<trkpt lat="45.8997070" lon="10.2519480">
	<ele>983.20</ele>
	<time>2025-04-30T09:10:03.000Z</time>
</trkpt>
<trkpt lat="45.8997030" lon="10.2519230">
	<ele>982.80</ele>
	<time>2025-04-30T09:10:04.000Z</time>
</trkpt>
<trkpt lat="45.8997010" lon="10.2519110">
	<ele>982.40</ele>
	<time>2025-04-30T09:10:05.000Z</time>
</trkpt>
<trkpt lat="45.8997040" lon="10.2518960">
	<ele>982.00</ele>
	<time>2025-04-30T09:10:06.000Z</time>
</trkpt>
<trkpt lat="45.8997070" lon="10.2518850">
	<ele>981.80</ele>
	<time>2025-04-30T09:10:07.000Z</time>
</trkpt>
<trkpt lat="45.8997050" lon="10.2518670">
	<ele>981.40</ele>
	<time>2025-04-30T09:10:08.000Z</time>
</trkpt>
<trkpt lat="45.8996990" lon="10.2518440">
	<ele>981.20</ele>
	<time>2025-04-30T09:10:09.000Z</time>
</trkpt>
<trkpt lat="45.8996970" lon="10.2518280">
	<ele>980.80</ele>
	<time>2025-04-30T09:10:10.000Z</time>
</trkpt>
<trkpt lat="45.8996970" lon="10.2518090">
	<ele>980.60</ele>
	<time>2025-04-30T09:10:11.000Z</time>
</trkpt>
<trkpt lat="45.8996930" lon="10.2517830">
	<ele>980.20</ele>
	<time>2025-04-30T09:10:12.000Z</time>
</trkpt>
<trkpt lat="45.8996920" lon="10.2517730">
	<ele>979.80</ele>
	<time>2025-04-30T09:10:13.000Z</time>
</trkpt>
<trkpt lat="45.8996930" lon="10.2517660">
	<ele>979.40</ele>
	<time>2025-04-30T09:10:14.000Z</time>
</trkpt>
<trkpt lat="45.8996790" lon="10.2517440">
	<ele>979.20</ele>
	<time>2025-04-30T09:10:15.000Z</time>
</trkpt>
<trkpt lat="45.8996690" lon="10.2517250">
	<ele>979.00</ele>
	<time>2025-04-30T09:10:16.000Z</time>
</trkpt>
<trkpt lat="45.8996670" lon="10.2517000">
	<ele>978.80</ele>
	<time>2025-04-30T09:10:17.000Z</time>
</trkpt>
<trkpt lat="45.8996730" lon="10.2516640">
	<ele>978.40</ele>
	<time>2025-04-30T09:10:18.000Z</time>
</trkpt>
<trkpt lat="45.8996760" lon="10.2516330">
	<ele>978.20</ele>
	<time>2025-04-30T09:10:19.000Z</time>
</trkpt>
<trkpt lat="45.8996760" lon="10.2516010">
	<ele>978.00</ele>
	<time>2025-04-30T09:10:20.000Z</time>
</trkpt>
<trkpt lat="45.8996750" lon="10.2515750">
	<ele>977.80</ele>
	<time>2025-04-30T09:10:21.000Z</time>
</trkpt>
<trkpt lat="45.8996760" lon="10.2515540">
	<ele>977.40</ele>
	<time>2025-04-30T09:10:22.000Z</time>
</trkpt>
<trkpt lat="45.8996750" lon="10.2515450">
	<ele>977.20</ele>
	<time>2025-04-30T09:10:23.000Z</time>
</trkpt>
<trkpt lat="45.8996740" lon="10.2515330">
	<ele>977.00</ele>
	<time>2025-04-30T09:10:24.000Z</time>
</trkpt>
<trkpt lat="45.8996620" lon="10.2515150">
	<ele>977.00</ele>
	<time>2025-04-30T09:10:25.000Z</time>
</trkpt>
<trkpt lat="45.8996550" lon="10.2514930">
	<ele>976.80</ele>
	<time>2025-04-30T09:10:26.000Z</time>
</trkpt>
<trkpt lat="45.8996530" lon="10.2514650">
	<ele>976.60</ele>
	<time>2025-04-30T09:10:27.000Z</time>
</trkpt>
<trkpt lat="45.8996480" lon="10.2514390">
	<ele>976.20</ele>
	<time>2025-04-30T09:10:28.000Z</time>
</trkpt>
<trkpt lat="45.8996440" lon="10.2514120">
	<ele>976.00</ele>
	<time>2025-04-30T09:10:29.000Z</time>
</trkpt>
<trkpt lat="45.8996340" lon="10.2513900">
	<ele>975.80</ele>
	<time>2025-04-30T09:10:30.000Z</time>
</trkpt>
<trkpt lat="45.8996170" lon="10.2513690">
	<ele>975.40</ele>
	<time>2025-04-30T09:10:31.000Z</time>
</trkpt>
<trkpt lat="45.8995980" lon="10.2513460">
	<ele>975.00</ele>
	<time>2025-04-30T09:10:32.000Z</time>
</trkpt>
<trkpt lat="45.8995860" lon="10.2513200">
	<ele>974.80</ele>
	<time>2025-04-30T09:10:33.000Z</time>
</trkpt>
<trkpt lat="45.8995880" lon="10.2512950">
	<ele>974.40</ele>
	<time>2025-04-30T09:10:34.000Z</time>
</trkpt>
<trkpt lat="45.8996020" lon="10.2512730">
	<ele>974.20</ele>
	<time>2025-04-30T09:10:35.000Z</time>
</trkpt>
<trkpt lat="45.8996140" lon="10.2512500">
	<ele>973.80</ele>
	<time>2025-04-30T09:10:36.000Z</time>
</trkpt>
<trkpt lat="45.8996250" lon="10.2512360">
	<ele>973.60</ele>
	<time>2025-04-30T09:10:37.000Z</time>
</trkpt>
<trkpt lat="45.8996340" lon="10.2512240">
	<ele>973.40</ele>
	<time>2025-04-30T09:10:38.000Z</time>
</trkpt>
<trkpt lat="45.8996440" lon="10.2512070">
	<ele>973.20</ele>
	<time>2025-04-30T09:10:39.000Z</time>
</trkpt>
<trkpt lat="45.8996550" lon="10.2511950">
	<ele>972.80</ele>
	<time>2025-04-30T09:10:40.000Z</time>
</trkpt>
<trkpt lat="45.8996620" lon="10.2511840">
	<ele>972.60</ele>
	<time>2025-04-30T09:10:41.000Z</time>
</trkpt>
<trkpt lat="45.8996650" lon="10.2511680">
	<ele>972.00</ele>
	<time>2025-04-30T09:10:42.000Z</time>
</trkpt>
<trkpt lat="45.8996630" lon="10.2511570">
	<ele>971.60</ele>
	<time>2025-04-30T09:10:43.000Z</time>
</trkpt>
<trkpt lat="45.8996630" lon="10.2511500">
	<ele>971.20</ele>
	<time>2025-04-30T09:10:44.000Z</time>
</trkpt>
<trkpt lat="45.8996630" lon="10.2511400">
	<ele>970.80</ele>
	<time>2025-04-30T09:10:45.000Z</time>
</trkpt>
<trkpt lat="45.8996640" lon="10.2511330">
	<ele>970.60</ele>
	<time>2025-04-30T09:10:46.000Z</time>
</trkpt>
<trkpt lat="45.8996700" lon="10.2511260">
	<ele>970.20</ele>
	<time>2025-04-30T09:10:47.000Z</time>
</trkpt>
<trkpt lat="45.8996840" lon="10.2511130">
	<ele>969.60</ele>
	<time>2025-04-30T09:10:48.000Z</time>
</trkpt>
<trkpt lat="45.8997030" lon="10.2510920">
	<ele>969.20</ele>
	<time>2025-04-30T09:10:49.000Z</time>
</trkpt>
<trkpt lat="45.8997170" lon="10.2510750">
	<ele>968.80</ele>
	<time>2025-04-30T09:10:50.000Z</time>
</trkpt>
<trkpt lat="45.8997240" lon="10.2510640">
	<ele>968.40</ele>
	<time>2025-04-30T09:10:51.000Z</time>
</trkpt>
<trkpt lat="45.8997230" lon="10.2510550">
	<ele>968.20</ele>
	<time>2025-04-30T09:10:52.000Z</time>
</trkpt>
<trkpt lat="45.8997170" lon="10.2510440">
	<ele>967.80</ele>
	<time>2025-04-30T09:10:53.000Z</time>
</trkpt>
<trkpt lat="45.8997180" lon="10.2510320">
	<ele>967.40</ele>
	<time>2025-04-30T09:10:54.000Z</time>
</trkpt>
<trkpt lat="45.8997290" lon="10.2510160">
	<ele>967.00</ele>
	<time>2025-04-30T09:10:55.000Z</time>
</trkpt>
<trkpt lat="45.8997400" lon="10.2509950">
	<ele>966.60</ele>
	<time>2025-04-30T09:10:56.000Z</time>
</trkpt>
<trkpt lat="45.8997420" lon="10.2509740">
	<ele>966.00</ele>
	<time>2025-04-30T09:10:57.000Z</time>
</trkpt>
<trkpt lat="45.8997500" lon="10.2509540">
	<ele>965.60</ele>
	<time>2025-04-30T09:10:58.000Z</time>
</trkpt>
<trkpt lat="45.8997530" lon="10.2509410">
	<ele>965.20</ele>
	<time>2025-04-30T09:10:59.000Z</time>
</trkpt>
<trkpt lat="45.8997630" lon="10.2509300">
	<ele>964.80</ele>
	<time>2025-04-30T09:11:00.000Z</time>
</trkpt>
<trkpt lat="45.8997730" lon="10.2509180">
	<ele>964.40</ele>
	<time>2025-04-30T09:11:01.000Z</time>
</trkpt>
<trkpt lat="45.8997760" lon="10.2509030">
	<ele>964.00</ele>
	<time>2025-04-30T09:11:02.000Z</time>
</trkpt>
<trkpt lat="45.8997780" lon="10.2508870">
	<ele>963.60</ele>
	<time>2025-04-30T09:11:03.000Z</time>
</trkpt>
<trkpt lat="45.8997780" lon="10.2508770">
	<ele>963.20</ele>
	<time>2025-04-30T09:11:04.000Z</time>
</trkpt>
<trkpt lat="45.8997760" lon="10.2508630">
	<ele>962.80</ele>
	<time>2025-04-30T09:11:05.000Z</time>
</trkpt>
<trkpt lat="45.8997750" lon="10.2508520">
	<ele>962.20</ele>
	<time>2025-04-30T09:11:06.000Z</time>
</trkpt>
<trkpt lat="45.8997710" lon="10.2508390">
	<ele>961.80</ele>
	<time>2025-04-30T09:11:07.000Z</time>
</trkpt>
<trkpt lat="45.8997760" lon="10.2508220">
	<ele>961.40</ele>
	<time>2025-04-30T09:11:08.000Z</time>
</trkpt>
<trkpt lat="45.8997810" lon="10.2508080">
	<ele>961.00</ele>
	<time>2025-04-30T09:11:09.000Z</time>
</trkpt>
<trkpt lat="45.8997910" lon="10.2507890">
	<ele>960.40</ele>
	<time>2025-04-30T09:11:10.000Z</time>
</trkpt>
<trkpt lat="45.8998010" lon="10.2507760">
	<ele>959.80</ele>
	<time>2025-04-30T09:11:11.000Z</time>
</trkpt>
<trkpt lat="45.8998100" lon="10.2507670">
	<ele>959.40</ele>
	<time>2025-04-30T09:11:12.000Z</time>
</trkpt>
<trkpt lat="45.8998130" lon="10.2507570">
	<ele>959.00</ele>
	<time>2025-04-30T09:11:13.000Z</time>
</trkpt>
<trkpt lat="45.8998200" lon="10.2507440">
	<ele>958.60</ele>
	<time>2025-04-30T09:11:14.000Z</time>
</trkpt>
<trkpt lat="45.8998330" lon="10.2507270">
	<ele>958.20</ele>
	<time>2025-04-30T09:11:15.000Z</time>
</trkpt>
<trkpt lat="45.8998410" lon="10.2507130">
	<ele>957.60</ele>
	<time>2025-04-30T09:11:16.000Z</time>
</trkpt>
<trkpt lat="45.8998510" lon="10.2506940">
	<ele>957.00</ele>
	<time>2025-04-30T09:11:17.000Z</time>
</trkpt>
<trkpt lat="45.8998610" lon="10.2506750">
	<ele>956.60</ele>
	<time>2025-04-30T09:11:18.000Z</time>
</trkpt>
<trkpt lat="45.8998720" lon="10.2506580">
	<ele>956.20</ele>
	<time>2025-04-30T09:11:19.000Z</time>
</trkpt>
<trkpt lat="45.8998790" lon="10.2506420">
	<ele>955.60</ele>
	<time>2025-04-30T09:11:20.000Z</time>
</trkpt>
<trkpt lat="45.8998880" lon="10.2506280">
	<ele>955.20</ele>
	<time>2025-04-30T09:11:21.000Z</time>
</trkpt>
<trkpt lat="45.8999040" lon="10.2506130">
	<ele>955.00</ele>
	<time>2025-04-30T09:11:22.000Z</time>
</trkpt>
<trkpt lat="45.8999160" lon="10.2505900">
	<ele>954.20</ele>
	<time>2025-04-30T09:11:23.000Z</time>
</trkpt>
<trkpt lat="45.8999160" lon="10.2505850">
	<ele>953.60</ele>
	<time>2025-04-30T09:11:24.000Z</time>
</trkpt>
<trkpt lat="45.8999290" lon="10.2505690">
	<ele>953.20</ele>
	<time>2025-04-30T09:11:25.000Z</time>
</trkpt>
<trkpt lat="45.8999510" lon="10.2505500">
	<ele>952.80</ele>
	<time>2025-04-30T09:11:26.000Z</time>
</trkpt>
<trkpt lat="45.8999750" lon="10.2505350">
	<ele>952.40</ele>
	<time>2025-04-30T09:11:27.000Z</time>
</trkpt>
<trkpt lat="45.8999780" lon="10.2505300">
	<ele>952.20</ele>
	<time>2025-04-30T09:11:28.000Z</time>
</trkpt>
<trkpt lat="45.8999920" lon="10.2505280">
	<ele>951.80</ele>
	<time>2025-04-30T09:11:29.000Z</time>
</trkpt>
<trkpt lat="45.8999950" lon="10.2505240">
	<ele>951.80</ele>
	<time>2025-04-30T09:11:30.000Z</time>
</trkpt>
<trkpt lat="45.9000040" lon="10.2505070">
	<ele>951.40</ele>
	<time>2025-04-30T09:11:31.000Z</time>
</trkpt>
<trkpt lat="45.9000060" lon="10.2505030">
	<ele>951.00</ele>
	<time>2025-04-30T09:11:32.000Z</time>
</trkpt>
<trkpt lat="45.9000050" lon="10.2505030">
	<ele>950.80</ele>
	<time>2025-04-30T09:11:33.000Z</time>
</trkpt>
<trkpt lat="45.9000030" lon="10.2505030">
	<ele>950.60</ele>
	<time>2025-04-30T09:11:34.000Z</time>
</trkpt>
<trkpt lat="45.8999950" lon="10.2505100">
	<ele>950.60</ele>
	<time>2025-04-30T09:11:35.000Z</time>
</trkpt>
<trkpt lat="45.8999850" lon="10.2505170">
	<ele>950.40</ele>
	<time>2025-04-30T09:11:36.000Z</time>
</trkpt>
<trkpt lat="45.8999770" lon="10.2505170">
	<ele>950.40</ele>
	<time>2025-04-30T09:11:37.000Z</time>
</trkpt>
<trkpt lat="45.8999670" lon="10.2505150">
	<ele>950.40</ele>
	<time>2025-04-30T09:11:38.000Z</time>
</trkpt>
<trkpt lat="45.8999660" lon="10.2505150">
	<ele>950.40</ele>
	<time>2025-04-30T09:11:39.000Z</time>
</trkpt>
<trkpt lat="45.8999530" lon="10.2505140">
	<ele>950.60</ele>
	<time>2025-04-30T09:11:40.000Z</time>
</trkpt>
<trkpt lat="45.8999520" lon="10.2505160">
	<ele>950.60</ele>
	<time>2025-04-30T09:11:41.000Z</time>
</trkpt>
<trkpt lat="45.8999510" lon="10.2505050">
	<ele>950.60</ele>
	<time>2025-04-30T09:11:42.000Z</time>
</trkpt>
<trkpt lat="45.8999630" lon="10.2504960">
	<ele>950.40</ele>
	<time>2025-04-30T09:11:43.000Z</time>
</trkpt>
<trkpt lat="45.8999670" lon="10.2504940">
	<ele>950.40</ele>
	<time>2025-04-30T09:11:44.000Z</time>
</trkpt>
<trkpt lat="45.8999660" lon="10.2504960">
	<ele>950.40</ele>
	<time>2025-04-30T09:11:45.000Z</time>
</trkpt>
<trkpt lat="45.8999780" lon="10.2504870">
	<ele>950.00</ele>
	<time>2025-04-30T09:11:46.000Z</time>
</trkpt>
<trkpt lat="45.8999910" lon="10.2504770">
	<ele>949.80</ele>
	<time>2025-04-30T09:11:47.000Z</time>
</trkpt>
<trkpt lat="45.9000050" lon="10.2504660">
	<ele>949.60</ele>
	<time>2025-04-30T09:11:48.000Z</time>
</trkpt>
<trkpt lat="45.9000060" lon="10.2504560">
	<ele>949.20</ele>
	<time>2025-04-30T09:11:49.000Z</time>
</trkpt>
<trkpt lat="45.9000110" lon="10.2504490">
	<ele>949.00</ele>
	<time>2025-04-30T09:11:50.000Z</time>
</trkpt>
<trkpt lat="45.9000080" lon="10.2504410">
	<ele>948.80</ele>
	<time>2025-04-30T09:11:51.000Z</time>
</trkpt>
<trkpt lat="45.9000050" lon="10.2504320">
	<ele>948.40</ele>
	<time>2025-04-30T09:11:52.000Z</time>
</trkpt>
<trkpt lat="45.9000020" lon="10.2504190">
	<ele>948.20</ele>
	<time>2025-04-30T09:11:53.000Z</time>
</trkpt>
<trkpt lat="45.9000080" lon="10.2504120">
	<ele>947.80</ele>
	<time>2025-04-30T09:11:54.000Z</time>
</trkpt>
<trkpt lat="45.9000160" lon="10.2503990">
	<ele>947.40</ele>
	<time>2025-04-30T09:11:55.000Z</time>
</trkpt>
<trkpt lat="45.9000220" lon="10.2503870">
	<ele>947.20</ele>
	<time>2025-04-30T09:11:56.000Z</time>
</trkpt>
<trkpt lat="45.9000250" lon="10.2503810">
	<ele>946.80</ele>
	<time>2025-04-30T09:11:57.000Z</time>
</trkpt>
<trkpt lat="45.9000370" lon="10.2503680">
	<ele>946.40</ele>
	<time>2025-04-30T09:11:58.000Z</time>
</trkpt>
<trkpt lat="45.9000450" lon="10.2503550">
	<ele>946.00</ele>
	<time>2025-04-30T09:11:59.000Z</time>
</trkpt>
<trkpt lat="45.9000620" lon="10.2503390">
	<ele>945.60</ele>
	<time>2025-04-30T09:12:00.000Z</time>
</trkpt>
<trkpt lat="45.9000700" lon="10.2503270">
	<ele>945.20</ele>
	<time>2025-04-30T09:12:01.000Z</time>
</trkpt>
<trkpt lat="45.9000760" lon="10.2503110">
	<ele>944.60</ele>
	<time>2025-04-30T09:12:02.000Z</time>
</trkpt>
<trkpt lat="45.9000920" lon="10.2502930">
	<ele>944.00</ele>
	<time>2025-04-30T09:12:03.000Z</time>
</trkpt>
<trkpt lat="45.9001040" lon="10.2502720">
	<ele>943.80</ele>
	<time>2025-04-30T09:12:04.000Z</time>
</trkpt>
<trkpt lat="45.9001120" lon="10.2502560">
	<ele>943.60</ele>
	<time>2025-04-30T09:12:05.000Z</time>
</trkpt>
<trkpt lat="45.9001110" lon="10.2502460">
	<ele>943.00</ele>
	<time>2025-04-30T09:12:06.000Z</time>
</trkpt>
<trkpt lat="45.9001100" lon="10.2502300">
	<ele>942.80</ele>
	<time>2025-04-30T09:12:07.000Z</time>
</trkpt>
<trkpt lat="45.9001110" lon="10.2502080">
	<ele>942.20</ele>
	<time>2025-04-30T09:12:08.000Z</time>
</trkpt>
<trkpt lat="45.9001070" lon="10.2501830">
	<ele>942.00</ele>
	<time>2025-04-30T09:12:09.000Z</time>
</trkpt>
<trkpt lat="45.9001010" lon="10.2501640">
	<ele>941.60</ele>
	<time>2025-04-30T09:12:10.000Z</time>
</trkpt>
<trkpt lat="45.9001020" lon="10.2501380">
	<ele>941.40</ele>
	<time>2025-04-30T09:12:11.000Z</time>
</trkpt>
<trkpt lat="45.9001100" lon="10.2501200">
	<ele>941.00</ele>
	<time>2025-04-30T09:12:12.000Z</time>
</trkpt>
<trkpt lat="45.9001110" lon="10.2501030">
	<ele>940.80</ele>
	<time>2025-04-30T09:12:13.000Z</time>
</trkpt>
<trkpt lat="45.9001120" lon="10.2500860">
	<ele>940.60</ele>
	<time>2025-04-30T09:12:14.000Z</time>
</trkpt>
<trkpt lat="45.9001100" lon="10.2500680">
	<ele>940.40</ele>
	<time>2025-04-30T09:12:15.000Z</time>
</trkpt>
<trkpt lat="45.9001150" lon="10.2500430">
	<ele>940.00</ele>
	<time>2025-04-30T09:12:16.000Z</time>
</trkpt>
<trkpt lat="45.9001220" lon="10.2500180">
	<ele>939.40</ele>
	<time>2025-04-30T09:12:17.000Z</time>
</trkpt>
<trkpt lat="45.9001310" lon="10.2499940">
	<ele>939.00</ele>
	<time>2025-04-30T09:12:18.000Z</time>
</trkpt>
<trkpt lat="45.9001370" lon="10.2499630">
	<ele>938.60</ele>
	<time>2025-04-30T09:12:19.000Z</time>
</trkpt>
<trkpt lat="45.9001520" lon="10.2499330">
	<ele>938.40</ele>
	<time>2025-04-30T09:12:20.000Z</time>
</trkpt>
<trkpt lat="45.9001640" lon="10.2499030">
	<ele>938.00</ele>
	<time>2025-04-30T09:12:21.000Z</time>
</trkpt>
<trkpt lat="45.9001720" lon="10.2498740">
	<ele>937.40</ele>
	<time>2025-04-30T09:12:22.000Z</time>
</trkpt>
<trkpt lat="45.9001840" lon="10.2498520">
	<ele>937.00</ele>
	<time>2025-04-30T09:12:23.000Z</time>
</trkpt>
<trkpt lat="45.9001920" lon="10.2498360">
	<ele>936.80</ele>
	<time>2025-04-30T09:12:24.000Z</time>
</trkpt>
<trkpt lat="45.9001940" lon="10.2498130">
	<ele>936.20</ele>
	<time>2025-04-30T09:12:25.000Z</time>
</trkpt>
<trkpt lat="45.9001920" lon="10.2497900">
	<ele>935.60</ele>
	<time>2025-04-30T09:12:26.000Z</time>
</trkpt>
<trkpt lat="45.9001970" lon="10.2497560">
	<ele>935.20</ele>
	<time>2025-04-30T09:12:27.000Z</time>
</trkpt>
<trkpt lat="45.9002060" lon="10.2497320">
	<ele>934.60</ele>
	<time>2025-04-30T09:12:28.000Z</time>
</trkpt>
<trkpt lat="45.9002240" lon="10.2497210">
	<ele>934.20</ele>
	<time>2025-04-30T09:12:29.000Z</time>
</trkpt>
<trkpt lat="45.9002350" lon="10.2497150">
	<ele>933.80</ele>
	<time>2025-04-30T09:12:30.000Z</time>
</trkpt>
<trkpt lat="45.9002440" lon="10.2497040">
	<ele>933.60</ele>
	<time>2025-04-30T09:12:31.000Z</time>
</trkpt>
<trkpt lat="45.9002560" lon="10.2496920">
	<ele>933.00</ele>
	<time>2025-04-30T09:12:32.000Z</time>
</trkpt>
<trkpt lat="45.9002690" lon="10.2496710">
	<ele>932.80</ele>
	<time>2025-04-30T09:12:33.000Z</time>
</trkpt>
<trkpt lat="45.9002680" lon="10.2496470">
	<ele>932.40</ele>
	<time>2025-04-30T09:12:34.000Z</time>
</trkpt>
<trkpt lat="45.9002580" lon="10.2496280">
	<ele>932.00</ele>
	<time>2025-04-30T09:12:35.000Z</time>
</trkpt>
<trkpt lat="45.9002540" lon="10.2496120">
	<ele>931.60</ele>
	<time>2025-04-30T09:12:36.000Z</time>
</trkpt>
<trkpt lat="45.9002530" lon="10.2495930">
	<ele>931.40</ele>
	<time>2025-04-30T09:12:37.000Z</time>
</trkpt>
<trkpt lat="45.9002530" lon="10.2495720">
	<ele>931.00</ele>
	<time>2025-04-30T09:12:38.000Z</time>
</trkpt>
<trkpt lat="45.9002510" lon="10.2495470">
	<ele>930.60</ele>
	<time>2025-04-30T09:12:39.000Z</time>
</trkpt>
<trkpt lat="45.9002520" lon="10.2495260">
	<ele>930.00</ele>
	<time>2025-04-30T09:12:40.000Z</time>
</trkpt>
<trkpt lat="45.9002510" lon="10.2495100">
	<ele>929.80</ele>
	<time>2025-04-30T09:12:41.000Z</time>
</trkpt>
<trkpt lat="45.9002530" lon="10.2494960">
	<ele>929.40</ele>
	<time>2025-04-30T09:12:42.000Z</time>
</trkpt>
<trkpt lat="45.9002620" lon="10.2494770">
	<ele>928.80</ele>
	<time>2025-04-30T09:12:43.000Z</time>
</trkpt>
<trkpt lat="45.9002640" lon="10.2494560">
	<ele>928.40</ele>
	<time>2025-04-30T09:12:44.000Z</time>
</trkpt>
<trkpt lat="45.9002730" lon="10.2494400">
	<ele>928.20</ele>
	<time>2025-04-30T09:12:45.000Z</time>
</trkpt>
<trkpt lat="45.9002810" lon="10.2494270">
	<ele>927.80</ele>
	<time>2025-04-30T09:12:46.000Z</time>
</trkpt>
<trkpt lat="45.9002870" lon="10.2494120">
	<ele>927.40</ele>
	<time>2025-04-30T09:12:47.000Z</time>
</trkpt>
<trkpt lat="45.9002880" lon="10.2494010">
	<ele>927.00</ele>
	<time>2025-04-30T09:12:48.000Z</time>
</trkpt>
<trkpt lat="45.9002930" lon="10.2493940">
	<ele>926.40</ele>
	<time>2025-04-30T09:12:49.000Z</time>
</trkpt>
<trkpt lat="45.9002980" lon="10.2493850">
	<ele>926.20</ele>
	<time>2025-04-30T09:12:50.000Z</time>
</trkpt>
<trkpt lat="45.9003010" lon="10.2493740">
	<ele>926.00</ele>
	<time>2025-04-30T09:12:51.000Z</time>
</trkpt>
<trkpt lat="45.9003060" lon="10.2493470">
	<ele>925.40</ele>
	<time>2025-04-30T09:12:52.000Z</time>
</trkpt>
<trkpt lat="45.9003250" lon="10.2493070">
	<ele>925.00</ele>
	<time>2025-04-30T09:12:53.000Z</time>
</trkpt>
<trkpt lat="45.9003520" lon="10.2492690">
	<ele>924.60</ele>
	<time>2025-04-30T09:12:54.000Z</time>
</trkpt>
<trkpt lat="45.9003540" lon="10.2492510">
	<ele>924.20</ele>
	<time>2025-04-30T09:12:55.000Z</time>
</trkpt>
<trkpt lat="45.9003560" lon="10.2492450">
	<ele>923.80</ele>
	<time>2025-04-30T09:12:56.000Z</time>
</trkpt>
<trkpt lat="45.9003630" lon="10.2492360">
	<ele>923.40</ele>
	<time>2025-04-30T09:12:57.000Z</time>
</trkpt>
<trkpt lat="45.9003650" lon="10.2492130">
	<ele>923.20</ele>
	<time>2025-04-30T09:12:58.000Z</time>
</trkpt>
<trkpt lat="45.9003680" lon="10.2491880">
	<ele>922.80</ele>
	<time>2025-04-30T09:12:59.000Z</time>
</trkpt>
<trkpt lat="45.9003800" lon="10.2491650">
	<ele>922.20</ele>
	<time>2025-04-30T09:13:00.000Z</time>
</trkpt>
<trkpt lat="45.9003860" lon="10.2491480">
	<ele>921.60</ele>
	<time>2025-04-30T09:13:01.000Z</time>
</trkpt>
<trkpt lat="45.9003920" lon="10.2491280">
	<ele>921.20</ele>
	<time>2025-04-30T09:13:02.000Z</time>
</trkpt>
<trkpt lat="45.9003950" lon="10.2491080">
	<ele>920.80</ele>
	<time>2025-04-30T09:13:03.000Z</time>
</trkpt>
<trkpt lat="45.9003970" lon="10.2490850">
	<ele>920.60</ele>
	<time>2025-04-30T09:13:04.000Z</time>
</trkpt>
<trkpt lat="45.9004010" lon="10.2490660">
	<ele>920.40</ele>
	<time>2025-04-30T09:13:05.000Z</time>
</trkpt>
<trkpt lat="45.9004050" lon="10.2490420">
	<ele>920.20</ele>
	<time>2025-04-30T09:13:06.000Z</time>
</trkpt>
<trkpt lat="45.9003990" lon="10.2490240">
	<ele>920.20</ele>
	<time>2025-04-30T09:13:07.000Z</time>
</trkpt>
<trkpt lat="45.9003870" lon="10.2489870">
	<ele>919.80</ele>
	<time>2025-04-30T09:13:08.000Z</time>
</trkpt>
<trkpt lat="45.9003750" lon="10.2489670">
	<ele>919.40</ele>
	<time>2025-04-30T09:13:09.000Z</time>
</trkpt>
<trkpt lat="45.9003670" lon="10.2489590">
	<ele>919.20</ele>
	<time>2025-04-30T09:13:10.000Z</time>
</trkpt>
<trkpt lat="45.9003570" lon="10.2489550">
	<ele>919.00</ele>
	<time>2025-04-30T09:13:11.000Z</time>
</trkpt>
<trkpt lat="45.9003320" lon="10.2489560">
	<ele>918.80</ele>
	<time>2025-04-30T09:13:12.000Z</time>
</trkpt>
<trkpt lat="45.9003130" lon="10.2489490">
	<ele>918.80</ele>
	<time>2025-04-30T09:13:13.000Z</time>
</trkpt>
<trkpt lat="45.9003100" lon="10.2489510">
	<ele>918.80</ele>
	<time>2025-04-30T09:13:14.000Z</time>
</trkpt>
<trkpt lat="45.9002990" lon="10.2489470">
	<ele>918.80</ele>
	<time>2025-04-30T09:13:15.000Z</time>
</trkpt>
<trkpt lat="45.9002870" lon="10.2489330">
	<ele>919.00</ele>
	<time>2025-04-30T09:13:16.000Z</time>
</trkpt>
<trkpt lat="45.9002730" lon="10.2489280">
	<ele>919.00</ele>
	<time>2025-04-30T09:13:17.000Z</time>
</trkpt>
<trkpt lat="45.9002800" lon="10.2489260">
	<ele>919.00</ele>
	<time>2025-04-30T09:13:18.000Z</time>
</trkpt>
<trkpt lat="45.9002880" lon="10.2489340">
	<ele>919.00</ele>
	<time>2025-04-30T09:13:19.000Z</time>
</trkpt>
<trkpt lat="45.9002910" lon="10.2489570">
	<ele>919.00</ele>
	<time>2025-04-30T09:13:20.000Z</time>
</trkpt>
<trkpt lat="45.9002900" lon="10.2489870">
	<ele>919.00</ele>
	<time>2025-04-30T09:13:21.000Z</time>
</trkpt>
<trkpt lat="45.9002890" lon="10.2489920">
	<ele>919.00</ele>
	<time>2025-04-30T09:13:22.000Z</time>
</trkpt>
<trkpt lat="45.9002940" lon="10.2489920">
	<ele>919.00</ele>
	<time>2025-04-30T09:13:23.000Z</time>
</trkpt>
<trkpt lat="45.9002950" lon="10.2489950">
	<ele>919.00</ele>
	<time>2025-04-30T09:13:24.000Z</time>
</trkpt>
<trkpt lat="45.9002940" lon="10.2489990">
	<ele>918.80</ele>
	<time>2025-04-30T09:13:25.000Z</time>
</trkpt>
<trkpt lat="45.9002930" lon="10.2490040">
	<ele>918.80</ele>
	<time>2025-04-30T09:13:26.000Z</time>
</trkpt>
<trkpt lat="45.9002920" lon="10.2490090">
	<ele>918.80</ele>
	<time>2025-04-30T09:13:27.000Z</time>
</trkpt>
<trkpt lat="45.9002910" lon="10.2490120">
	<ele>918.80</ele>
	<time>2025-04-30T09:13:28.000Z</time>
</trkpt>
<trkpt lat="45.9002960" lon="10.2489800">
	<ele>918.80</ele>
	<time>2025-04-30T09:13:29.000Z</time>
</trkpt>
<trkpt lat="45.9003010" lon="10.2489320">
	<ele>918.80</ele>
	<time>2025-04-30T09:13:30.000Z</time>
</trkpt>
<trkpt lat="45.9003030" lon="10.2489090">
	<ele>918.80</ele>
	<time>2025-04-30T09:13:31.000Z</time>
</trkpt>
<trkpt lat="45.9003100" lon="10.2488770">
	<ele>918.40</ele>
	<time>2025-04-30T09:13:32.000Z</time>
</trkpt>
<trkpt lat="45.9003140" lon="10.2488590">
	<ele>918.00</ele>
	<time>2025-04-30T09:13:33.000Z</time>
</trkpt>
<trkpt lat="45.9003230" lon="10.2488450">
	<ele>918.00</ele>
	<time>2025-04-30T09:13:34.000Z</time>
</trkpt>
<trkpt lat="45.9003350" lon="10.2488340">
	<ele>917.60</ele>
	<time>2025-04-30T09:13:35.000Z</time>
</trkpt>
<trkpt lat="45.9003480" lon="10.2488180">
	<ele>917.20</ele>
	<time>2025-04-30T09:13:36.000Z</time>
</trkpt>
<trkpt lat="45.9003560" lon="10.2488110">
	<ele>917.00</ele>
	<time>2025-04-30T09:13:37.000Z</time>
</trkpt>
<trkpt lat="45.9003640" lon="10.2488040">
	<ele>916.60</ele>
	<time>2025-04-30T09:13:38.000Z</time>
</trkpt>
<trkpt lat="45.9003780" lon="10.2487930">
	<ele>916.20</ele>
	<time>2025-04-30T09:13:39.000Z</time>
</trkpt>
<trkpt lat="45.9003860" lon="10.2487890">
	<ele>915.60</ele>
	<time>2025-04-30T09:13:40.000Z</time>
</trkpt>
<trkpt lat="45.9003960" lon="10.2487900">
	<ele>915.40</ele>
	<time>2025-04-30T09:13:41.000Z</time>
</trkpt>
<trkpt lat="45.9004010" lon="10.2487910">
	<ele>915.20</ele>
	<time>2025-04-30T09:13:42.000Z</time>
</trkpt>
<trkpt lat="45.9004140" lon="10.2487820">
	<ele>915.20</ele>
	<time>2025-04-30T09:13:43.000Z</time>
</trkpt>
<trkpt lat="45.9004240" lon="10.2487720">
	<ele>915.00</ele>
	<time>2025-04-30T09:13:44.000Z</time>
</trkpt>
<trkpt lat="45.9004400" lon="10.2487580">
	<ele>914.80</ele>
	<time>2025-04-30T09:13:45.000Z</time>
</trkpt>
<trkpt lat="45.9004580" lon="10.2487550">
	<ele>914.40</ele>
	<time>2025-04-30T09:13:46.000Z</time>
</trkpt>
<trkpt lat="45.9004680" lon="10.2487540">
	<ele>914.00</ele>
	<time>2025-04-30T09:13:47.000Z</time>
</trkpt>
<trkpt lat="45.9004790" lon="10.2487660">
	<ele>913.60</ele>
	<time>2025-04-30T09:13:48.000Z</time>
</trkpt>
<trkpt lat="45.9004850" lon="10.2487720">
	<ele>913.40</ele>
	<time>2025-04-30T09:13:49.000Z</time>
</trkpt>
<trkpt lat="45.9004980" lon="10.2487650">
	<ele>913.20</ele>
	<time>2025-04-30T09:13:50.000Z</time>
</trkpt>
<trkpt lat="45.9005140" lon="10.2487630">
	<ele>912.80</ele>
	<time>2025-04-30T09:13:51.000Z</time>
</trkpt>
<trkpt lat="45.9005300" lon="10.2487640">
	<ele>912.40</ele>
	<time>2025-04-30T09:13:52.000Z</time>
</trkpt>
<trkpt lat="45.9005420" lon="10.2487530">
	<ele>912.20</ele>
	<time>2025-04-30T09:13:53.000Z</time>
</trkpt>
<trkpt lat="45.9005570" lon="10.2487520">
	<ele>911.80</ele>
	<time>2025-04-30T09:13:54.000Z</time>
</trkpt>
<trkpt lat="45.9005700" lon="10.2487510">
	<ele>911.40</ele>
	<time>2025-04-30T09:13:55.000Z</time>
</trkpt>
<trkpt lat="45.9005800" lon="10.2487420">
	<ele>911.20</ele>
	<time>2025-04-30T09:13:56.000Z</time>
</trkpt>
<trkpt lat="45.9005900" lon="10.2487350">
	<ele>910.80</ele>
	<time>2025-04-30T09:13:57.000Z</time>
</trkpt>
<trkpt lat="45.9006010" lon="10.2487310">
	<ele>910.20</ele>
	<time>2025-04-30T09:13:58.000Z</time>
</trkpt>
<trkpt lat="45.9006120" lon="10.2487330">
	<ele>910.00</ele>
	<time>2025-04-30T09:13:59.000Z</time>
</trkpt>
<trkpt lat="45.9006230" lon="10.2487350">
	<ele>909.60</ele>
	<time>2025-04-30T09:14:00.000Z</time>
</trkpt>
<trkpt lat="45.9006370" lon="10.2487360">
	<ele>909.20</ele>
	<time>2025-04-30T09:14:01.000Z</time>
</trkpt>
<trkpt lat="45.9006480" lon="10.2487350">
	<ele>908.80</ele>
	<time>2025-04-30T09:14:02.000Z</time>
</trkpt>
<trkpt lat="45.9006560" lon="10.2487320">
	<ele>908.40</ele>
	<time>2025-04-30T09:14:03.000Z</time>
</trkpt>
<trkpt lat="45.9006630" lon="10.2487300">
	<ele>908.00</ele>
	<time>2025-04-30T09:14:04.000Z</time>
</trkpt>
<trkpt lat="45.9006710" lon="10.2487330">
	<ele>907.60</ele>
	<time>2025-04-30T09:14:05.000Z</time>
</trkpt>
<trkpt lat="45.9006780" lon="10.2487310">
	<ele>907.00</ele>
	<time>2025-04-30T09:14:06.000Z</time>
</trkpt>
<trkpt lat="45.9006870" lon="10.2487280">
	<ele>906.60</ele>
	<time>2025-04-30T09:14:07.000Z</time>
</trkpt>
<trkpt lat="45.9006970" lon="10.2487300">
	<ele>906.20</ele>
	<time>2025-04-30T09:14:08.000Z</time>
</trkpt>
<trkpt lat="45.9007040" lon="10.2487340">
	<ele>906.00</ele>
	<time>2025-04-30T09:14:09.000Z</time>
</trkpt>
<trkpt lat="45.9007120" lon="10.2487370">
	<ele>905.60</ele>
	<time>2025-04-30T09:14:10.000Z</time>
</trkpt>
<trkpt lat="45.9007270" lon="10.2487390">
	<ele>905.00</ele>
	<time>2025-04-30T09:14:11.000Z</time>
</trkpt>
<trkpt lat="45.9007400" lon="10.2487490">
	<ele>904.60</ele>
	<time>2025-04-30T09:14:12.000Z</time>
</trkpt>
<trkpt lat="45.9007520" lon="10.2487660">
	<ele>904.20</ele>
	<time>2025-04-30T09:14:13.000Z</time>
</trkpt>
<trkpt lat="45.9007610" lon="10.2487810">
	<ele>903.80</ele>
	<time>2025-04-30T09:14:14.000Z</time>
</trkpt>
<trkpt lat="45.9007680" lon="10.2487920">
	<ele>903.20</ele>
	<time>2025-04-30T09:14:15.000Z</time>
</trkpt>
<trkpt lat="45.9007780" lon="10.2487980">
	<ele>903.00</ele>
	<time>2025-04-30T09:14:16.000Z</time>
</trkpt>
<trkpt lat="45.9007950" lon="10.2488010">
	<ele>902.60</ele>
	<time>2025-04-30T09:14:17.000Z</time>
</trkpt>
<trkpt lat="45.9008100" lon="10.2488110">
	<ele>902.40</ele>
	<time>2025-04-30T09:14:18.000Z</time>
</trkpt>
<trkpt lat="45.9008190" lon="10.2488260">
	<ele>901.80</ele>
	<time>2025-04-30T09:14:19.000Z</time>
</trkpt>
<trkpt lat="45.9008280" lon="10.2488450">
	<ele>901.40</ele>
	<time>2025-04-30T09:14:20.000Z</time>
</trkpt>
<trkpt lat="45.9008360" lon="10.2488580">
	<ele>900.80</ele>
	<time>2025-04-30T09:14:21.000Z</time>
</trkpt>
<trkpt lat="45.9008480" lon="10.2488680">
	<ele>900.40</ele>
	<time>2025-04-30T09:14:22.000Z</time>
</trkpt>
<trkpt lat="45.9008600" lon="10.2488750">
	<ele>900.00</ele>
	<time>2025-04-30T09:14:23.000Z</time>
</trkpt>
<trkpt lat="45.9008740" lon="10.2488830">
	<ele>899.40</ele>
	<time>2025-04-30T09:14:24.000Z</time>
</trkpt>
<trkpt lat="45.9008930" lon="10.2488860">
	<ele>899.20</ele>
	<time>2025-04-30T09:14:25.000Z</time>
</trkpt>
<trkpt lat="45.9009110" lon="10.2488840">
	<ele>898.80</ele>
	<time>2025-04-30T09:14:26.000Z</time>
</trkpt>
<trkpt lat="45.9009290" lon="10.2488830">
	<ele>898.60</ele>
	<time>2025-04-30T09:14:27.000Z</time>
</trkpt>
<trkpt lat="45.9009460" lon="10.2488790">
	<ele>898.20</ele>
	<time>2025-04-30T09:14:28.000Z</time>
</trkpt>
<trkpt lat="45.9009570" lon="10.2488730">
	<ele>897.80</ele>
	<time>2025-04-30T09:14:29.000Z</time>
</trkpt>
<trkpt lat="45.9009640" lon="10.2488710">
	<ele>897.40</ele>
	<time>2025-04-30T09:14:30.000Z</time>
</trkpt>
<trkpt lat="45.9009760" lon="10.2488780">
	<ele>897.00</ele>
	<time>2025-04-30T09:14:31.000Z</time>
</trkpt>
<trkpt lat="45.9010000" lon="10.2488850">
	<ele>896.60</ele>
	<time>2025-04-30T09:14:32.000Z</time>
</trkpt>
<trkpt lat="45.9010250" lon="10.2488790">
	<ele>896.20</ele>
	<time>2025-04-30T09:14:33.000Z</time>
</trkpt>
<trkpt lat="45.9010510" lon="10.2488730">
	<ele>895.80</ele>
	<time>2025-04-30T09:14:34.000Z</time>
</trkpt>
<trkpt lat="45.9010700" lon="10.2488640">
	<ele>895.60</ele>
	<time>2025-04-30T09:14:35.000Z</time>
</trkpt>
<trkpt lat="45.9010850" lon="10.2488590">
	<ele>895.40</ele>
	<time>2025-04-30T09:14:36.000Z</time>
</trkpt>
<trkpt lat="45.9010950" lon="10.2488550">
	<ele>895.20</ele>
	<time>2025-04-30T09:14:37.000Z</time>
</trkpt>
<trkpt lat="45.9011010" lon="10.2488480">
	<ele>895.00</ele>
	<time>2025-04-30T09:14:38.000Z</time>
</trkpt>
<trkpt lat="45.9011110" lon="10.2488360">
	<ele>894.60</ele>
	<time>2025-04-30T09:14:39.000Z</time>
</trkpt>
<trkpt lat="45.9011310" lon="10.2488230">
	<ele>894.40</ele>
	<time>2025-04-30T09:14:40.000Z</time>
</trkpt>
<trkpt lat="45.9011540" lon="10.2488180">
	<ele>894.00</ele>
	<time>2025-04-30T09:14:41.000Z</time>
</trkpt>
<trkpt lat="45.9011730" lon="10.2488200">
	<ele>893.60</ele>
	<time>2025-04-30T09:14:42.000Z</time>
</trkpt>
<trkpt lat="45.9011880" lon="10.2488210">
	<ele>893.40</ele>
	<time>2025-04-30T09:14:43.000Z</time>
</trkpt>
<trkpt lat="45.9011990" lon="10.2488190">
	<ele>893.00</ele>
	<time>2025-04-30T09:14:44.000Z</time>
</trkpt>
<trkpt lat="45.9012100" lon="10.2488160">
	<ele>892.80</ele>
	<time>2025-04-30T09:14:45.000Z</time>
</trkpt>
<trkpt lat="45.9012230" lon="10.2488110">
	<ele>892.40</ele>
	<time>2025-04-30T09:14:46.000Z</time>
</trkpt>
<trkpt lat="45.9012370" lon="10.2488070">
	<ele>892.00</ele>
	<time>2025-04-30T09:14:47.000Z</time>
</trkpt>
<trkpt lat="45.9012520" lon="10.2488040">
	<ele>891.60</ele>
	<time>2025-04-30T09:14:48.000Z</time>
</trkpt>
<trkpt lat="45.9012620" lon="10.2488040">
	<ele>891.20</ele>
	<time>2025-04-30T09:14:49.000Z</time>
</trkpt>
<trkpt lat="45.9012700" lon="10.2488120">
	<ele>890.80</ele>
	<time>2025-04-30T09:14:50.000Z</time>
</trkpt>
<trkpt lat="45.9012940" lon="10.2488080">
	<ele>890.60</ele>
	<time>2025-04-30T09:14:51.000Z</time>
</trkpt>
<trkpt lat="45.9013130" lon="10.2488170">
	<ele>890.20</ele>
	<time>2025-04-30T09:14:52.000Z</time>
</trkpt>
<trkpt lat="45.9013250" lon="10.2488370">
	<ele>890.00</ele>
	<time>2025-04-30T09:14:53.000Z</time>
</trkpt>
<trkpt lat="45.9013540" lon="10.2488370">
	<ele>889.60</ele>
	<time>2025-04-30T09:14:54.000Z</time>
</trkpt>
<trkpt lat="45.9013590" lon="10.2488380">
	<ele>889.20</ele>
	<time>2025-04-30T09:14:55.000Z</time>
</trkpt>
<trkpt lat="45.9013590" lon="10.2488380">
	<ele>888.80</ele>
	<time>2025-04-30T09:14:56.000Z</time>
</trkpt>
<trkpt lat="45.9013600" lon="10.2488360">
	<ele>888.20</ele>
	<time>2025-04-30T09:14:57.000Z</time>
</trkpt>
<trkpt lat="45.9013720" lon="10.2488340">
	<ele>887.60</ele>
	<time>2025-04-30T09:14:58.000Z</time>
</trkpt>
<trkpt lat="45.9013740" lon="10.2488370">
	<ele>887.40</ele>
	<time>2025-04-30T09:14:59.000Z</time>
</trkpt>
<trkpt lat="45.9013740" lon="10.2488460">
	<ele>887.20</ele>
	<time>2025-04-30T09:15:00.000Z</time>
</trkpt>
<trkpt lat="45.9013770" lon="10.2488520">
	<ele>886.80</ele>
	<time>2025-04-30T09:15:01.000Z</time>
</trkpt>
<trkpt lat="45.9013880" lon="10.2488540">
	<ele>886.60</ele>
	<time>2025-04-30T09:15:02.000Z</time>
</trkpt>
<trkpt lat="45.9013960" lon="10.2488570">
	<ele>886.40</ele>
	<time>2025-04-30T09:15:03.000Z</time>
</trkpt>
<trkpt lat="45.9014040" lon="10.2488600">
	<ele>886.20</ele>
	<time>2025-04-30T09:15:04.000Z</time>
</trkpt>
<trkpt lat="45.9014030" lon="10.2488660">
	<ele>886.00</ele>
	<time>2025-04-30T09:15:05.000Z</time>
</trkpt>
<trkpt lat="45.9014000" lon="10.2488680">
	<ele>886.00</ele>
	<time>2025-04-30T09:15:06.000Z</time>
</trkpt>
<trkpt lat="45.9014050" lon="10.2488810">
	<ele>886.00</ele>
	<time>2025-04-30T09:15:07.000Z</time>
</trkpt>
<trkpt lat="45.9014040" lon="10.2488920">
	<ele>885.80</ele>
	<time>2025-04-30T09:15:08.000Z</time>
</trkpt>
<trkpt lat="45.9014020" lon="10.2489090">
	<ele>885.40</ele>
	<time>2025-04-30T09:15:09.000Z</time>
</trkpt>
<trkpt lat="45.9014040" lon="10.2489230">
	<ele>885.20</ele>
	<time>2025-04-30T09:15:10.000Z</time>
</trkpt>
<trkpt lat="45.9014110" lon="10.2489340">
	<ele>885.00</ele>
	<time>2025-04-30T09:15:11.000Z</time>
</trkpt>
<trkpt lat="45.9014260" lon="10.2489360">
	<ele>884.60</ele>
	<time>2025-04-30T09:15:12.000Z</time>
</trkpt>
<trkpt lat="45.9014490" lon="10.2489390">
	<ele>884.40</ele>
	<time>2025-04-30T09:15:13.000Z</time>
</trkpt>
<trkpt lat="45.9014700" lon="10.2489420">
	<ele>884.20</ele>
	<time>2025-04-30T09:15:14.000Z</time>
</trkpt>
<trkpt lat="45.9014870" lon="10.2489450">
	<ele>883.60</ele>
	<time>2025-04-30T09:15:15.000Z</time>
</trkpt>
<trkpt lat="45.9014980" lon="10.2489430">
	<ele>883.40</ele>
	<time>2025-04-30T09:15:16.000Z</time>
</trkpt>
<trkpt lat="45.9015110" lon="10.2489430">
	<ele>883.00</ele>
	<time>2025-04-30T09:15:17.000Z</time>
</trkpt>
<trkpt lat="45.9015260" lon="10.2489420">
	<ele>882.80</ele>
	<time>2025-04-30T09:15:18.000Z</time>
</trkpt>
<trkpt lat="45.9015460" lon="10.2489330">
	<ele>882.60</ele>
	<time>2025-04-30T09:15:19.000Z</time>
</trkpt>
<trkpt lat="45.9015660" lon="10.2489130">
	<ele>882.20</ele>
	<time>2025-04-30T09:15:20.000Z</time>
</trkpt>
<trkpt lat="45.9015860" lon="10.2488920">
	<ele>882.00</ele>
	<time>2025-04-30T09:15:21.000Z</time>
</trkpt>
<trkpt lat="45.9016040" lon="10.2488750">
	<ele>881.80</ele>
	<time>2025-04-30T09:15:22.000Z</time>
</trkpt>
<trkpt lat="45.9016120" lon="10.2488520">
	<ele>881.60</ele>
	<time>2025-04-30T09:15:23.000Z</time>
</trkpt>
<trkpt lat="45.9016130" lon="10.2488430">
	<ele>881.20</ele>
	<time>2025-04-30T09:15:24.000Z</time>
</trkpt>
<trkpt lat="45.9016190" lon="10.2488360">
	<ele>881.00</ele>
	<time>2025-04-30T09:15:25.000Z</time>
</trkpt>
<trkpt lat="45.9016230" lon="10.2488220">
	<ele>880.60</ele>
	<time>2025-04-30T09:15:26.000Z</time>
</trkpt>
<trkpt lat="45.9016300" lon="10.2488140">
	<ele>880.20</ele>
	<time>2025-04-30T09:15:27.000Z</time>
</trkpt>
<trkpt lat="45.9016410" lon="10.2488060">
	<ele>879.80</ele>
	<time>2025-04-30T09:15:28.000Z</time>
</trkpt>
<trkpt lat="45.9016540" lon="10.2488010">
	<ele>879.20</ele>
	<time>2025-04-30T09:15:29.000Z</time>
</trkpt>
<trkpt lat="45.9016610" lon="10.2487920">
	<ele>878.80</ele>
	<time>2025-04-30T09:15:30.000Z</time>
</trkpt>
<trkpt lat="45.9016700" lon="10.2487910">
	<ele>878.40</ele>
	<time>2025-04-30T09:15:31.000Z</time>
</trkpt>
<trkpt lat="45.9016850" lon="10.2487900">
	<ele>878.00</ele>
	<time>2025-04-30T09:15:32.000Z</time>
</trkpt>
<trkpt lat="45.9016960" lon="10.2487930">
	<ele>877.60</ele>
	<time>2025-04-30T09:15:33.000Z</time>
</trkpt>
<trkpt lat="45.9016990" lon="10.2487940">
	<ele>877.40</ele>
	<time>2025-04-30T09:15:34.000Z</time>
</trkpt>
<trkpt lat="45.9017070" lon="10.2487870">
	<ele>877.40</ele>
	<time>2025-04-30T09:15:35.000Z</time>
</trkpt>
<trkpt lat="45.9017090" lon="10.2487880">
	<ele>877.20</ele>
	<time>2025-04-30T09:15:36.000Z</time>
</trkpt>
<trkpt lat="45.9017180" lon="10.2487710">
	<ele>877.20</ele>
	<time>2025-04-30T09:15:37.000Z</time>
</trkpt>
<trkpt lat="45.9017200" lon="10.2487680">
	<ele>877.20</ele>
	<time>2025-04-30T09:15:38.000Z</time>
</trkpt>
<trkpt lat="45.9017230" lon="10.2487530">
	<ele>877.20</ele>
	<time>2025-04-30T09:15:39.000Z</time>
</trkpt>
<trkpt lat="45.9017190" lon="10.2487530">
	<ele>877.40</ele>
	<time>2025-04-30T09:15:40.000Z</time>
</trkpt>
<trkpt lat="45.9017180" lon="10.2487550">
	<ele>877.40</ele>
	<time>2025-04-30T09:15:41.000Z</time>
</trkpt>
<trkpt lat="45.9017140" lon="10.2487510">
	<ele>877.40</ele>
	<time>2025-04-30T09:15:42.000Z</time>
</trkpt>
<trkpt lat="45.9017140" lon="10.2487410">
	<ele>877.40</ele>
	<time>2025-04-30T09:15:43.000Z</time>
</trkpt>
<trkpt lat="45.9017100" lon="10.2487420">
	<ele>877.40</ele>
	<time>2025-04-30T09:15:44.000Z</time>
</trkpt>
<trkpt lat="45.9017090" lon="10.2487410">
	<ele>877.40</ele>
	<time>2025-04-30T09:15:45.000Z</time>
</trkpt>
<trkpt lat="45.9017080" lon="10.2487410">
	<ele>877.40</ele>
	<time>2025-04-30T09:15:46.000Z</time>
</trkpt>
<trkpt lat="45.9017070" lon="10.2487360">
	<ele>877.40</ele>
	<time>2025-04-30T09:15:47.000Z</time>
</trkpt>
<trkpt lat="45.9017110" lon="10.2487480">
	<ele>877.40</ele>
	<time>2025-04-30T09:15:48.000Z</time>
</trkpt>
<trkpt lat="45.9017120" lon="10.2487470">
	<ele>877.40</ele>
	<time>2025-04-30T09:15:49.000Z</time>
</trkpt>
<trkpt lat="45.9017110" lon="10.2487450">
	<ele>877.40</ele>
	<time>2025-04-30T09:15:50.000Z</time>
</trkpt>
<trkpt lat="45.9017110" lon="10.2487470">
	<ele>877.40</ele>
	<time>2025-04-30T09:15:51.000Z</time>
</trkpt>
<trkpt lat="45.9017110" lon="10.2487470">
	<ele>877.40</ele>
	<time>2025-04-30T09:15:52.000Z</time>
</trkpt>
<trkpt lat="45.9017110" lon="10.2487470">
	<ele>877.40</ele>
	<time>2025-04-30T09:15:53.000Z</time>
</trkpt>
<trkpt lat="45.9017110" lon="10.2487470">
	<ele>877.20</ele>
	<time>2025-04-30T09:15:54.000Z</time>
</trkpt>
<trkpt lat="45.9017140" lon="10.2487490">
	<ele>876.80</ele>
	<time>2025-04-30T09:15:55.000Z</time>
</trkpt>
<trkpt lat="45.9017180" lon="10.2487670">
	<ele>876.60</ele>
	<time>2025-04-30T09:15:56.000Z</time>
</trkpt>
<trkpt lat="45.9017270" lon="10.2487830">
	<ele>876.40</ele>
	<time>2025-04-30T09:15:57.000Z</time>
</trkpt>
<trkpt lat="45.9017320" lon="10.2488040">
	<ele>876.20</ele>
	<time>2025-04-30T09:15:58.000Z</time>
</trkpt>
<trkpt lat="45.9017460" lon="10.2488190">
	<ele>875.80</ele>
	<time>2025-04-30T09:15:59.000Z</time>
</trkpt>
<trkpt lat="45.9017610" lon="10.2488320">
	<ele>875.60</ele>
	<time>2025-04-30T09:16:00.000Z</time>
</trkpt>
<trkpt lat="45.9017690" lon="10.2488490">
	<ele>875.40</ele>
	<time>2025-04-30T09:16:01.000Z</time>
</trkpt>
<trkpt lat="45.9017780" lon="10.2488610">
	<ele>875.40</ele>
	<time>2025-04-30T09:16:02.000Z</time>
</trkpt>
<trkpt lat="45.9017840" lon="10.2488650">
	<ele>875.00</ele>
	<time>2025-04-30T09:16:03.000Z</time>
</trkpt>
<trkpt lat="45.9017830" lon="10.2488820">
	<ele>874.80</ele>
	<time>2025-04-30T09:16:04.000Z</time>
</trkpt>
<trkpt lat="45.9017740" lon="10.2489030">
	<ele>874.80</ele>
	<time>2025-04-30T09:16:05.000Z</time>
</trkpt>
<trkpt lat="45.9017650" lon="10.2489160">
	<ele>874.60</ele>
	<time>2025-04-30T09:16:06.000Z</time>
</trkpt>
<trkpt lat="45.9017740" lon="10.2489360">
	<ele>874.60</ele>
	<time>2025-04-30T09:16:07.000Z</time>
</trkpt>
<trkpt lat="45.9017710" lon="10.2489540">
	<ele>874.40</ele>
	<time>2025-04-30T09:16:08.000Z</time>
</trkpt>
<trkpt lat="45.9017770" lon="10.2489620">
	<ele>874.20</ele>
	<time>2025-04-30T09:16:09.000Z</time>
</trkpt>
<trkpt lat="45.9017800" lon="10.2489680">
	<ele>874.00</ele>
	<time>2025-04-30T09:16:10.000Z</time>
</trkpt>
<trkpt lat="45.9017880" lon="10.2489710">
	<ele>873.80</ele>
	<time>2025-04-30T09:16:11.000Z</time>
</trkpt>
<trkpt lat="45.9017850" lon="10.2489960">
	<ele>873.60</ele>
	<time>2025-04-30T09:16:12.000Z</time>
</trkpt>
<trkpt lat="45.9017930" lon="10.2490050">
	<ele>873.20</ele>
	<time>2025-04-30T09:16:13.000Z</time>
</trkpt>
<trkpt lat="45.9018050" lon="10.2490140">
	<ele>873.00</ele>
	<time>2025-04-30T09:16:14.000Z</time>
</trkpt>
<trkpt lat="45.9018100" lon="10.2490260">
	<ele>872.80</ele>
	<time>2025-04-30T09:16:15.000Z</time>
</trkpt>
<trkpt lat="45.9018180" lon="10.2490370">
	<ele>872.40</ele>
	<time>2025-04-30T09:16:16.000Z</time>
</trkpt>
<trkpt lat="45.9018240" lon="10.2490480">
	<ele>872.00</ele>
	<time>2025-04-30T09:16:17.000Z</time>
</trkpt>
<trkpt lat="45.9018300" lon="10.2490590">
	<ele>871.80</ele>
	<time>2025-04-30T09:16:18.000Z</time>
</trkpt>
<trkpt lat="45.9018280" lon="10.2490780">
	<ele>871.60</ele>
	<time>2025-04-30T09:16:19.000Z</time>
</trkpt>
<trkpt lat="45.9018400" lon="10.2490810">
	<ele>871.20</ele>
	<time>2025-04-30T09:16:20.000Z</time>
</trkpt>
<trkpt lat="45.9018570" lon="10.2490800">
	<ele>871.00</ele>
	<time>2025-04-30T09:16:21.000Z</time>
</trkpt>
<trkpt lat="45.9018650" lon="10.2490850">
	<ele>870.80</ele>
	<time>2025-04-30T09:16:22.000Z</time>
</trkpt>
<trkpt lat="45.9018740" lon="10.2491040">
	<ele>870.60</ele>
	<time>2025-04-30T09:16:23.000Z</time>
</trkpt>
<trkpt lat="45.9018960" lon="10.2491270">
	<ele>870.20</ele>
	<time>2025-04-30T09:16:24.000Z</time>
</trkpt>
<trkpt lat="45.9019250" lon="10.2491360">
	<ele>870.00</ele>
	<time>2025-04-30T09:16:25.000Z</time>
</trkpt>
<trkpt lat="45.9019470" lon="10.2491380">
	<ele>870.00</ele>
	<time>2025-04-30T09:16:26.000Z</time>
</trkpt>
<trkpt lat="45.9019650" lon="10.2491360">
	<ele>869.80</ele>
	<time>2025-04-30T09:16:27.000Z</time>
</trkpt>
<trkpt lat="45.9019770" lon="10.2491290">
	<ele>869.60</ele>
	<time>2025-04-30T09:16:28.000Z</time>
</trkpt>
<trkpt lat="45.9019890" lon="10.2491220">
	<ele>869.20</ele>
	<time>2025-04-30T09:16:29.000Z</time>
</trkpt>
<trkpt lat="45.9020070" lon="10.2491160">
	<ele>869.00</ele>
	<time>2025-04-30T09:16:30.000Z</time>
</trkpt>
<trkpt lat="45.9020110" lon="10.2491210">
	<ele>868.80</ele>
	<time>2025-04-30T09:16:31.000Z</time>
</trkpt>
<trkpt lat="45.9020150" lon="10.2491310">
	<ele>868.40</ele>
	<time>2025-04-30T09:16:32.000Z</time>
</trkpt>
<trkpt lat="45.9020310" lon="10.2491340">
	<ele>868.20</ele>
	<time>2025-04-30T09:16:33.000Z</time>
</trkpt>
<trkpt lat="45.9020460" lon="10.2491370">
	<ele>868.00</ele>
	<time>2025-04-30T09:16:34.000Z</time>
</trkpt>
<trkpt lat="45.9020710" lon="10.2491350">
	<ele>867.60</ele>
	<time>2025-04-30T09:16:35.000Z</time>
</trkpt>
<trkpt lat="45.9020920" lon="10.2491340">
	<ele>867.40</ele>
	<time>2025-04-30T09:16:36.000Z</time>
</trkpt>
<trkpt lat="45.9021050" lon="10.2491350">
	<ele>867.20</ele>
	<time>2025-04-30T09:16:37.000Z</time>
</trkpt>
<trkpt lat="45.9021250" lon="10.2491410">
	<ele>867.00</ele>
	<time>2025-04-30T09:16:38.000Z</time>
</trkpt>
<trkpt lat="45.9021380" lon="10.2491470">
	<ele>866.60</ele>
	<time>2025-04-30T09:16:39.000Z</time>
</trkpt>
<trkpt lat="45.9021600" lon="10.2491540">
	<ele>866.40</ele>
	<time>2025-04-30T09:16:40.000Z</time>
</trkpt>
<trkpt lat="45.9021740" lon="10.2491620">
	<ele>866.00</ele>
	<time>2025-04-30T09:16:41.000Z</time>
</trkpt>
<trkpt lat="45.9021890" lon="10.2491690">
	<ele>865.80</ele>
	<time>2025-04-30T09:16:42.000Z</time>
</trkpt>
<trkpt lat="45.9022070" lon="10.2491690">
	<ele>865.60</ele>
	<time>2025-04-30T09:16:43.000Z</time>
</trkpt>
<trkpt lat="45.9022360" lon="10.2491630">
	<ele>865.20</ele>
	<time>2025-04-30T09:16:44.000Z</time>
</trkpt>
<trkpt lat="45.9022610" lon="10.2491550">
	<ele>864.60</ele>
	<time>2025-04-30T09:16:45.000Z</time>
</trkpt>
<trkpt lat="45.9022810" lon="10.2491530">
	<ele>864.20</ele>
	<time>2025-04-30T09:16:46.000Z</time>
</trkpt>
<trkpt lat="45.9022880" lon="10.2491660">
	<ele>864.00</ele>
	<time>2025-04-30T09:16:47.000Z</time>
</trkpt>
<trkpt lat="45.9022920" lon="10.2491880">
	<ele>863.40</ele>
	<time>2025-04-30T09:16:48.000Z</time>
</trkpt>
<trkpt lat="45.9023000" lon="10.2492010">
	<ele>863.00</ele>
	<time>2025-04-30T09:16:49.000Z</time>
</trkpt>
<trkpt lat="45.9023070" lon="10.2492170">
	<ele>862.60</ele>
	<time>2025-04-30T09:16:50.000Z</time>
</trkpt>
<trkpt lat="45.9023150" lon="10.2492340">
	<ele>862.20</ele>
	<time>2025-04-30T09:16:51.000Z</time>
</trkpt>
<trkpt lat="45.9023300" lon="10.2492610">
	<ele>862.00</ele>
	<time>2025-04-30T09:16:52.000Z</time>
</trkpt>
<trkpt lat="45.9023520" lon="10.2492890">
	<ele>861.60</ele>
	<time>2025-04-30T09:16:53.000Z</time>
</trkpt>
<trkpt lat="45.9023670" lon="10.2493000">
	<ele>861.40</ele>
	<time>2025-04-30T09:16:54.000Z</time>
</trkpt>
<trkpt lat="45.9023810" lon="10.2493140">
	<ele>861.00</ele>
	<time>2025-04-30T09:16:55.000Z</time>
</trkpt>
<trkpt lat="45.9023890" lon="10.2493300">
	<ele>860.80</ele>
	<time>2025-04-30T09:16:56.000Z</time>
</trkpt>
<trkpt lat="45.9023980" lon="10.2493480">
	<ele>860.60</ele>
	<time>2025-04-30T09:16:57.000Z</time>
</trkpt>
<trkpt lat="45.9024160" lon="10.2493570">
	<ele>860.40</ele>
	<time>2025-04-30T09:16:58.000Z</time>
</trkpt>
<trkpt lat="45.9024300" lon="10.2493630">
	<ele>860.20</ele>
	<time>2025-04-30T09:16:59.000Z</time>
</trkpt>
<trkpt lat="45.9024360" lon="10.2493590">
	<ele>860.00</ele>
	<time>2025-04-30T09:17:00.000Z</time>
</trkpt>
<trkpt lat="45.9024410" lon="10.2493520">
	<ele>859.80</ele>
	<time>2025-04-30T09:17:01.000Z</time>
</trkpt>
<trkpt lat="45.9024540" lon="10.2493390">
	<ele>859.60</ele>
	<time>2025-04-30T09:17:02.000Z</time>
</trkpt>
<trkpt lat="45.9024640" lon="10.2493230">
	<ele>859.20</ele>
	<time>2025-04-30T09:17:03.000Z</time>
</trkpt>
<trkpt lat="45.9024770" lon="10.2493240">
	<ele>858.80</ele>
	<time>2025-04-30T09:17:04.000Z</time>
</trkpt>
<trkpt lat="45.9025080" lon="10.2493280">
	<ele>858.40</ele>
	<time>2025-04-30T09:17:05.000Z</time>
</trkpt>
<trkpt lat="45.9025170" lon="10.2493320">
	<ele>858.20</ele>
	<time>2025-04-30T09:17:06.000Z</time>
</trkpt>
<trkpt lat="45.9025360" lon="10.2493370">
	<ele>857.80</ele>
	<time>2025-04-30T09:17:07.000Z</time>
</trkpt>
<trkpt lat="45.9025410" lon="10.2493520">
	<ele>857.20</ele>
	<time>2025-04-30T09:17:08.000Z</time>
</trkpt>
<trkpt lat="45.9025460" lon="10.2493720">
	<ele>857.00</ele>
	<time>2025-04-30T09:17:09.000Z</time>
</trkpt>
<trkpt lat="45.9025650" lon="10.2493770">
	<ele>856.60</ele>
	<time>2025-04-30T09:17:10.000Z</time>
</trkpt>
<trkpt lat="45.9025770" lon="10.2493820">
	<ele>856.00</ele>
	<time>2025-04-30T09:17:11.000Z</time>
</trkpt>
<trkpt lat="45.9025880" lon="10.2493900">
	<ele>855.60</ele>
	<time>2025-04-30T09:17:12.000Z</time>
</trkpt>
<trkpt lat="45.9026060" lon="10.2494000">
	<ele>855.20</ele>
	<time>2025-04-30T09:17:13.000Z</time>
</trkpt>
<trkpt lat="45.9026310" lon="10.2494130">
	<ele>855.00</ele>
	<time>2025-04-30T09:17:14.000Z</time>
</trkpt>
<trkpt lat="45.9026460" lon="10.2494290">
	<ele>855.00</ele>
	<time>2025-04-30T09:17:15.000Z</time>
</trkpt>
<trkpt lat="45.9026430" lon="10.2494510">
	<ele>854.80</ele>
	<time>2025-04-30T09:17:16.000Z</time>
</trkpt>
<trkpt lat="45.9026420" lon="10.2494580">
	<ele>854.60</ele>
	<time>2025-04-30T09:17:17.000Z</time>
</trkpt>
<trkpt lat="45.9026490" lon="10.2494680">
	<ele>854.20</ele>
	<time>2025-04-30T09:17:18.000Z</time>
</trkpt>
<trkpt lat="45.9026590" lon="10.2494770">
	<ele>854.00</ele>
	<time>2025-04-30T09:17:19.000Z</time>
</trkpt>
<trkpt lat="45.9026700" lon="10.2494810">
	<ele>853.80</ele>
	<time>2025-04-30T09:17:20.000Z</time>
</trkpt>
<trkpt lat="45.9026850" lon="10.2494910">
	<ele>853.60</ele>
	<time>2025-04-30T09:17:21.000Z</time>
</trkpt>
<trkpt lat="45.9027000" lon="10.2494980">
	<ele>853.40</ele>
	<time>2025-04-30T09:17:22.000Z</time>
</trkpt>
<trkpt lat="45.9027170" lon="10.2495030">
	<ele>853.20</ele>
	<time>2025-04-30T09:17:23.000Z</time>
</trkpt>
<trkpt lat="45.9027230" lon="10.2495060">
	<ele>853.00</ele>
	<time>2025-04-30T09:17:24.000Z</time>
</trkpt>
<trkpt lat="45.9027280" lon="10.2495170">
	<ele>852.40</ele>
	<time>2025-04-30T09:17:25.000Z</time>
</trkpt>
<trkpt lat="45.9027300" lon="10.2495320">
	<ele>852.00</ele>
	<time>2025-04-30T09:17:26.000Z</time>
</trkpt>
<trkpt lat="45.9027310" lon="10.2495510">
	<ele>851.80</ele>
	<time>2025-04-30T09:17:27.000Z</time>
</trkpt>
<trkpt lat="45.9027390" lon="10.2495660">
	<ele>851.40</ele>
	<time>2025-04-30T09:17:28.000Z</time>
</trkpt>
<trkpt lat="45.9027490" lon="10.2495740">
	<ele>851.20</ele>
	<time>2025-04-30T09:17:29.000Z</time>
</trkpt>
<trkpt lat="45.9027570" lon="10.2495800">
	<ele>851.00</ele>
	<time>2025-04-30T09:17:30.000Z</time>
</trkpt>
<trkpt lat="45.9027720" lon="10.2495840">
	<ele>850.60</ele>
	<time>2025-04-30T09:17:31.000Z</time>
</trkpt>
<trkpt lat="45.9027850" lon="10.2495910">
	<ele>850.20</ele>
	<time>2025-04-30T09:17:32.000Z</time>
</trkpt>
<trkpt lat="45.9028060" lon="10.2496000">
	<ele>849.60</ele>
	<time>2025-04-30T09:17:33.000Z</time>
</trkpt>
<trkpt lat="45.9028200" lon="10.2496140">
	<ele>849.20</ele>
	<time>2025-04-30T09:17:34.000Z</time>
</trkpt>
<trkpt lat="45.9028420" lon="10.2496290">
	<ele>849.00</ele>
	<time>2025-04-30T09:17:35.000Z</time>
</trkpt>
<trkpt lat="45.9028710" lon="10.2496400">
	<ele>848.80</ele>
	<time>2025-04-30T09:17:36.000Z</time>
</trkpt>
<trkpt lat="45.9028920" lon="10.2496490">
	<ele>848.40</ele>
	<time>2025-04-30T09:17:37.000Z</time>
</trkpt>
<trkpt lat="45.9029040" lon="10.2496620">
	<ele>848.00</ele>
	<time>2025-04-30T09:17:38.000Z</time>
</trkpt>
<trkpt lat="45.9029210" lon="10.2496840">
	<ele>847.40</ele>
	<time>2025-04-30T09:17:39.000Z</time>
</trkpt>
<trkpt lat="45.9029260" lon="10.2497080">
	<ele>847.00</ele>
	<time>2025-04-30T09:17:40.000Z</time>
</trkpt>
<trkpt lat="45.9029380" lon="10.2497210">
	<ele>846.80</ele>
	<time>2025-04-30T09:17:41.000Z</time>
</trkpt>
<trkpt lat="45.9029540" lon="10.2497370">
	<ele>846.60</ele>
	<time>2025-04-30T09:17:42.000Z</time>
</trkpt>
<trkpt lat="45.9029760" lon="10.2497510">
	<ele>846.00</ele>
	<time>2025-04-30T09:17:43.000Z</time>
</trkpt>
<trkpt lat="45.9029840" lon="10.2497720">
	<ele>845.60</ele>
	<time>2025-04-30T09:17:44.000Z</time>
</trkpt>
<trkpt lat="45.9029860" lon="10.2497890">
	<ele>845.00</ele>
	<time>2025-04-30T09:17:45.000Z</time>
</trkpt>
<trkpt lat="45.9029980" lon="10.2498010">
	<ele>844.60</ele>
	<time>2025-04-30T09:17:46.000Z</time>
</trkpt>
<trkpt lat="45.9030200" lon="10.2498090">
	<ele>844.40</ele>
	<time>2025-04-30T09:17:47.000Z</time>
</trkpt>
<trkpt lat="45.9030320" lon="10.2498180">
	<ele>844.00</ele>
	<time>2025-04-30T09:17:48.000Z</time>
</trkpt>
<trkpt lat="45.9030450" lon="10.2498190">
	<ele>843.60</ele>
	<time>2025-04-30T09:17:49.000Z</time>
</trkpt>
<trkpt lat="45.9030670" lon="10.2498400">
	<ele>843.40</ele>
	<time>2025-04-30T09:17:50.000Z</time>
</trkpt>
<trkpt lat="45.9030890" lon="10.2498560">
	<ele>843.00</ele>
	<time>2025-04-30T09:17:51.000Z</time>
</trkpt>
<trkpt lat="45.9031080" lon="10.2498720">
	<ele>842.80</ele>
	<time>2025-04-30T09:17:52.000Z</time>
</trkpt>
<trkpt lat="45.9031180" lon="10.2498990">
	<ele>842.40</ele>
	<time>2025-04-30T09:17:53.000Z</time>
</trkpt>
<trkpt lat="45.9031160" lon="10.2499310">
	<ele>842.00</ele>
	<time>2025-04-30T09:17:54.000Z</time>
</trkpt>
<trkpt lat="45.9031070" lon="10.2499620">
	<ele>841.80</ele>
	<time>2025-04-30T09:17:55.000Z</time>
</trkpt>
<trkpt lat="45.9031050" lon="10.2499910">
	<ele>841.40</ele>
	<time>2025-04-30T09:17:56.000Z</time>
</trkpt>
<trkpt lat="45.9030970" lon="10.2500300">
	<ele>841.00</ele>
	<time>2025-04-30T09:17:57.000Z</time>
</trkpt>
<trkpt lat="45.9031080" lon="10.2500560">
	<ele>840.60</ele>
	<time>2025-04-30T09:17:58.000Z</time>
</trkpt>
<trkpt lat="45.9031150" lon="10.2500800">
	<ele>840.00</ele>
	<time>2025-04-30T09:17:59.000Z</time>
</trkpt>
<trkpt lat="45.9031180" lon="10.2501000">
	<ele>839.60</ele>
	<time>2025-04-30T09:18:00.000Z</time>
</trkpt>
<trkpt lat="45.9031240" lon="10.2501140">
	<ele>839.20</ele>
	<time>2025-04-30T09:18:01.000Z</time>
</trkpt>
<trkpt lat="45.9031210" lon="10.2501250">
	<ele>839.00</ele>
	<time>2025-04-30T09:18:02.000Z</time>
</trkpt>
<trkpt lat="45.9031300" lon="10.2501260">
	<ele>838.60</ele>
	<time>2025-04-30T09:18:03.000Z</time>
</trkpt>
<trkpt lat="45.9031440" lon="10.2501270">
	<ele>838.00</ele>
	<time>2025-04-30T09:18:04.000Z</time>
</trkpt>
<trkpt lat="45.9031610" lon="10.2501250">
	<ele>837.40</ele>
	<time>2025-04-30T09:18:05.000Z</time>
</trkpt>
<trkpt lat="45.9031730" lon="10.2501310">
	<ele>836.80</ele>
	<time>2025-04-30T09:18:06.000Z</time>
</trkpt>
<trkpt lat="45.9031810" lon="10.2501440">
	<ele>836.60</ele>
	<time>2025-04-30T09:18:07.000Z</time>
</trkpt>
<trkpt lat="45.9031940" lon="10.2501460">
	<ele>836.20</ele>
	<time>2025-04-30T09:18:08.000Z</time>
</trkpt>
<trkpt lat="45.9032000" lon="10.2501490">
	<ele>836.00</ele>
	<time>2025-04-30T09:18:09.000Z</time>
</trkpt>
<trkpt lat="45.9032020" lon="10.2501550">
	<ele>835.40</ele>
	<time>2025-04-30T09:18:10.000Z</time>
</trkpt>
<trkpt lat="45.9031950" lon="10.2501660">
	<ele>835.00</ele>
	<time>2025-04-30T09:18:11.000Z</time>
</trkpt>
<trkpt lat="45.9031820" lon="10.2501740">
	<ele>834.80</ele>
	<time>2025-04-30T09:18:12.000Z</time>
</trkpt>
<trkpt lat="45.9031720" lon="10.2501780">
	<ele>834.40</ele>
	<time>2025-04-30T09:18:13.000Z</time>
</trkpt>
<trkpt lat="45.9031780" lon="10.2501880">
	<ele>833.80</ele>
	<time>2025-04-30T09:18:14.000Z</time>
</trkpt>
<trkpt lat="45.9031830" lon="10.2502090">
	<ele>833.20</ele>
	<time>2025-04-30T09:18:15.000Z</time>
</trkpt>
<trkpt lat="45.9031990" lon="10.2502290">
	<ele>832.80</ele>
	<time>2025-04-30T09:18:16.000Z</time>
</trkpt>
<trkpt lat="45.9032170" lon="10.2502510">
	<ele>832.60</ele>
	<time>2025-04-30T09:18:17.000Z</time>
</trkpt>
<trkpt lat="45.9032200" lon="10.2502570">
	<ele>832.60</ele>
	<time>2025-04-30T09:18:18.000Z</time>
</trkpt>
<trkpt lat="45.9032380" lon="10.2502670">
	<ele>832.40</ele>
	<time>2025-04-30T09:18:19.000Z</time>
</trkpt>
<trkpt lat="45.9032530" lon="10.2502720">
	<ele>832.20</ele>
	<time>2025-04-30T09:18:20.000Z</time>
</trkpt>
<trkpt lat="45.9032630" lon="10.2502790">
	<ele>831.60</ele>
	<time>2025-04-30T09:18:21.000Z</time>
</trkpt>
<trkpt lat="45.9032670" lon="10.2502800">
	<ele>831.40</ele>
	<time>2025-04-30T09:18:22.000Z</time>
</trkpt>
<trkpt lat="45.9032590" lon="10.2502960">
	<ele>831.20</ele>
	<time>2025-04-30T09:18:23.000Z</time>
</trkpt>
<trkpt lat="45.9032100" lon="10.2503210">
	<ele>831.20</ele>
	<time>2025-04-30T09:18:24.000Z</time>
</trkpt>
<trkpt lat="45.9031880" lon="10.2503550">
	<ele>830.80</ele>
	<time>2025-04-30T09:18:25.000Z</time>
</trkpt>
<trkpt lat="45.9031930" lon="10.2503680">
	<ele>830.40</ele>
	<time>2025-04-30T09:18:26.000Z</time>
</trkpt>
<trkpt lat="45.9031950" lon="10.2503710">
	<ele>830.00</ele>
	<time>2025-04-30T09:18:27.000Z</time>
</trkpt>
<trkpt lat="45.9031950" lon="10.2503790">
	<ele>829.60</ele>
	<time>2025-04-30T09:18:28.000Z</time>
</trkpt>
<trkpt lat="45.9032000" lon="10.2503860">
	<ele>829.40</ele>
	<time>2025-04-30T09:18:29.000Z</time>
</trkpt>
<trkpt lat="45.9032030" lon="10.2504050">
	<ele>829.20</ele>
	<time>2025-04-30T09:18:30.000Z</time>
</trkpt>
<trkpt lat="45.9032040" lon="10.2504240">
	<ele>828.80</ele>
	<time>2025-04-30T09:18:31.000Z</time>
</trkpt>
<trkpt lat="45.9032060" lon="10.2504460">
	<ele>828.60</ele>
	<time>2025-04-30T09:18:32.000Z</time>
</trkpt>
<trkpt lat="45.9032120" lon="10.2504570">
	<ele>828.00</ele>
	<time>2025-04-30T09:18:33.000Z</time>
</trkpt>
<trkpt lat="45.9032260" lon="10.2504640">
	<ele>827.80</ele>
	<time>2025-04-30T09:18:34.000Z</time>
</trkpt>
<trkpt lat="45.9032370" lon="10.2504730">
	<ele>827.60</ele>
	<time>2025-04-30T09:18:35.000Z</time>
</trkpt>
<trkpt lat="45.9032530" lon="10.2504750">
	<ele>827.40</ele>
	<time>2025-04-30T09:18:36.000Z</time>
</trkpt>
<trkpt lat="45.9032730" lon="10.2504790">
	<ele>827.20</ele>
	<time>2025-04-30T09:18:37.000Z</time>
</trkpt>
<trkpt lat="45.9032900" lon="10.2504880">
	<ele>826.80</ele>
	<time>2025-04-30T09:18:38.000Z</time>
</trkpt>
<trkpt lat="45.9033020" lon="10.2505020">
	<ele>826.60</ele>
	<time>2025-04-30T09:18:39.000Z</time>
</trkpt>
<trkpt lat="45.9033160" lon="10.2505100">
	<ele>826.20</ele>
	<time>2025-04-30T09:18:40.000Z</time>
</trkpt>
<trkpt lat="45.9033210" lon="10.2505210">
	<ele>826.20</ele>
	<time>2025-04-30T09:18:41.000Z</time>
</trkpt>
<trkpt lat="45.9033190" lon="10.2505250">
	<ele>826.00</ele>
	<time>2025-04-30T09:18:42.000Z</time>
</trkpt>
<trkpt lat="45.9033290" lon="10.2505450">
	<ele>825.80</ele>
	<time>2025-04-30T09:18:43.000Z</time>
</trkpt>
<trkpt lat="45.9033430" lon="10.2505710">
	<ele>825.40</ele>
	<time>2025-04-30T09:18:44.000Z</time>
</trkpt>
<trkpt lat="45.9033730" lon="10.2505920">
	<ele>825.20</ele>
	<time>2025-04-30T09:18:45.000Z</time>
</trkpt>
<trkpt lat="45.9033880" lon="10.2506060">
	<ele>825.20</ele>
	<time>2025-04-30T09:18:46.000Z</time>
</trkpt>
<trkpt lat="45.9033990" lon="10.2506140">
	<ele>825.00</ele>
	<time>2025-04-30T09:18:47.000Z</time>
</trkpt>
<trkpt lat="45.9034030" lon="10.2506220">
	<ele>824.80</ele>
	<time>2025-04-30T09:18:48.000Z</time>
</trkpt>
<trkpt lat="45.9034050" lon="10.2506300">
	<ele>824.60</ele>
	<time>2025-04-30T09:18:49.000Z</time>
</trkpt>
<trkpt lat="45.9034020" lon="10.2506320">
	<ele>824.40</ele>
	<time>2025-04-30T09:18:50.000Z</time>
</trkpt>
<trkpt lat="45.9033920" lon="10.2506560">
	<ele>824.20</ele>
	<time>2025-04-30T09:18:51.000Z</time>
</trkpt>
<trkpt lat="45.9033810" lon="10.2506750">
	<ele>824.20</ele>
	<time>2025-04-30T09:18:52.000Z</time>
</trkpt>
<trkpt lat="45.9033930" lon="10.2506730">
	<ele>824.40</ele>
	<time>2025-04-30T09:18:53.000Z</time>
</trkpt>
<trkpt lat="45.9033900" lon="10.2506710">
	<ele>824.40</ele>
	<time>2025-04-30T09:18:54.000Z</time>
</trkpt>
<trkpt lat="45.9034050" lon="10.2506730">
	<ele>824.40</ele>
	<time>2025-04-30T09:18:55.000Z</time>
</trkpt>
<trkpt lat="45.9034050" lon="10.2506740">
	<ele>824.40</ele>
	<time>2025-04-30T09:18:56.000Z</time>
</trkpt>
<trkpt lat="45.9034000" lon="10.2506870">
	<ele>824.40</ele>
	<time>2025-04-30T09:18:57.000Z</time>
</trkpt>
<trkpt lat="45.9034040" lon="10.2506890">
	<ele>824.40</ele>
	<time>2025-04-30T09:18:58.000Z</time>
</trkpt>
<trkpt lat="45.9034030" lon="10.2506870">
	<ele>824.40</ele>
	<time>2025-04-30T09:18:59.000Z</time>
</trkpt>
<trkpt lat="45.9034010" lon="10.2506850">
	<ele>824.20</ele>
	<time>2025-04-30T09:19:00.000Z</time>
</trkpt>
<trkpt lat="45.9034010" lon="10.2506850">
	<ele>824.20</ele>
	<time>2025-04-30T09:19:01.000Z</time>
</trkpt>
<trkpt lat="45.9034000" lon="10.2507050">
	<ele>824.20</ele>
	<time>2025-04-30T09:19:02.000Z</time>
</trkpt>
<trkpt lat="45.9033910" lon="10.2507260">
	<ele>824.20</ele>
	<time>2025-04-30T09:19:03.000Z</time>
</trkpt>
<trkpt lat="45.9033900" lon="10.2507280">
	<ele>824.20</ele>
	<time>2025-04-30T09:19:04.000Z</time>
</trkpt>
<trkpt lat="45.9033700" lon="10.2507450">
	<ele>824.40</ele>
	<time>2025-04-30T09:19:05.000Z</time>
</trkpt>
<trkpt lat="45.9033690" lon="10.2507450">
	<ele>824.60</ele>
	<time>2025-04-30T09:19:06.000Z</time>
</trkpt>
<trkpt lat="45.9033680" lon="10.2507450">
	<ele>824.60</ele>
	<time>2025-04-30T09:19:07.000Z</time>
</trkpt>
<trkpt lat="45.9033690" lon="10.2507480">
	<ele>824.60</ele>
	<time>2025-04-30T09:19:08.000Z</time>
</trkpt>
<trkpt lat="45.9033910" lon="10.2507400">
	<ele>824.60</ele>
	<time>2025-04-30T09:19:09.000Z</time>
</trkpt>
<trkpt lat="45.9034100" lon="10.2507540">
	<ele>824.60</ele>
	<time>2025-04-30T09:19:10.000Z</time>
</trkpt>
<trkpt lat="45.9034020" lon="10.2507600">
	<ele>824.60</ele>
	<time>2025-04-30T09:19:11.000Z</time>
</trkpt>
<trkpt lat="45.9034130" lon="10.2507410">
	<ele>824.60</ele>
	<time>2025-04-30T09:19:12.000Z</time>
</trkpt>
<trkpt lat="45.9034190" lon="10.2507400">
	<ele>824.60</ele>
	<time>2025-04-30T09:19:13.000Z</time>
</trkpt>
<trkpt lat="45.9034190" lon="10.2507390">
	<ele>824.60</ele>
	<time>2025-04-30T09:19:14.000Z</time>
</trkpt>
<trkpt lat="45.9034250" lon="10.2507390">
	<ele>824.60</ele>
	<time>2025-04-30T09:19:15.000Z</time>
</trkpt>
<trkpt lat="45.9034250" lon="10.2507380">
	<ele>824.60</ele>
	<time>2025-04-30T09:19:16.000Z</time>
</trkpt>
<trkpt lat="45.9034190" lon="10.2507470">
	<ele>824.40</ele>
	<time>2025-04-30T09:19:17.000Z</time>
</trkpt>
<trkpt lat="45.9034230" lon="10.2507480">
	<ele>824.40</ele>
	<time>2025-04-30T09:19:18.000Z</time>
</trkpt>
<trkpt lat="45.9034250" lon="10.2507430">
	<ele>824.40</ele>
	<time>2025-04-30T09:19:19.000Z</time>
</trkpt>
<trkpt lat="45.9034270" lon="10.2507380">
	<ele>824.40</ele>
	<time>2025-04-30T09:19:20.000Z</time>
</trkpt>
<trkpt lat="45.9034260" lon="10.2507360">
	<ele>824.40</ele>
	<time>2025-04-30T09:19:21.000Z</time>
</trkpt>
<trkpt lat="45.9034260" lon="10.2507360">
	<ele>824.60</ele>
	<time>2025-04-30T09:19:22.000Z</time>
</trkpt>
<trkpt lat="45.9034260" lon="10.2507360">
	<ele>824.60</ele>
	<time>2025-04-30T09:19:23.000Z</time>
</trkpt>
<trkpt lat="45.9034260" lon="10.2507360">
	<ele>824.60</ele>
	<time>2025-04-30T09:19:24.000Z</time>
</trkpt>
<trkpt lat="45.9034290" lon="10.2507340">
	<ele>824.60</ele>
	<time>2025-04-30T09:19:25.000Z</time>
</trkpt>
<trkpt lat="45.9034270" lon="10.2507320">
	<ele>824.40</ele>
	<time>2025-04-30T09:19:26.000Z</time>
</trkpt>
<trkpt lat="45.9034290" lon="10.2507330">
	<ele>824.20</ele>
	<time>2025-04-30T09:19:27.000Z</time>
</trkpt>
<trkpt lat="45.9034290" lon="10.2507400">
	<ele>824.20</ele>
	<time>2025-04-30T09:19:28.000Z</time>
</trkpt>
<trkpt lat="45.9034340" lon="10.2507500">
	<ele>824.00</ele>
	<time>2025-04-30T09:19:29.000Z</time>
</trkpt>
<trkpt lat="45.9034460" lon="10.2507640">
	<ele>824.00</ele>
	<time>2025-04-30T09:19:30.000Z</time>
</trkpt>
<trkpt lat="45.9034580" lon="10.2507730">
	<ele>823.80</ele>
	<time>2025-04-30T09:19:31.000Z</time>
</trkpt>
<trkpt lat="45.9034680" lon="10.2507820">
	<ele>823.80</ele>
	<time>2025-04-30T09:19:32.000Z</time>
</trkpt>
<trkpt lat="45.9034860" lon="10.2507880">
	<ele>823.40</ele>
	<time>2025-04-30T09:19:33.000Z</time>
</trkpt>
<trkpt lat="45.9034930" lon="10.2507890">
	<ele>823.20</ele>
	<time>2025-04-30T09:19:34.000Z</time>
</trkpt>
<trkpt lat="45.9034930" lon="10.2507990">
	<ele>823.00</ele>
	<time>2025-04-30T09:19:35.000Z</time>
</trkpt>
<trkpt lat="45.9034930" lon="10.2508060">
	<ele>822.60</ele>
	<time>2025-04-30T09:19:36.000Z</time>
</trkpt>
<trkpt lat="45.9035000" lon="10.2508170">
	<ele>822.40</ele>
	<time>2025-04-30T09:19:37.000Z</time>
</trkpt>
<trkpt lat="45.9035000" lon="10.2508330">
	<ele>822.00</ele>
	<time>2025-04-30T09:19:38.000Z</time>
</trkpt>
<trkpt lat="45.9035090" lon="10.2508400">
	<ele>821.80</ele>
	<time>2025-04-30T09:19:39.000Z</time>
</trkpt>
<trkpt lat="45.9035210" lon="10.2508430">
	<ele>821.60</ele>
	<time>2025-04-30T09:19:40.000Z</time>
</trkpt>
<trkpt lat="45.9035280" lon="10.2508450">
	<ele>821.20</ele>
	<time>2025-04-30T09:19:41.000Z</time>
</trkpt>
<trkpt lat="45.9035320" lon="10.2508530">
	<ele>821.00</ele>
	<time>2025-04-30T09:19:42.000Z</time>
</trkpt>
<trkpt lat="45.9035440" lon="10.2508630">
	<ele>820.80</ele>
	<time>2025-04-30T09:19:43.000Z</time>
</trkpt>
<trkpt lat="45.9035460" lon="10.2508650">
	<ele>820.80</ele>
	<time>2025-04-30T09:19:44.000Z</time>
</trkpt>
<trkpt lat="45.9035480" lon="10.2508670">
	<ele>820.60</ele>
	<time>2025-04-30T09:19:45.000Z</time>
</trkpt>
<trkpt lat="45.9035560" lon="10.2508730">
	<ele>820.60</ele>
	<time>2025-04-30T09:19:46.000Z</time>
</trkpt>
<trkpt lat="45.9035510" lon="10.2508820">
	<ele>820.20</ele>
	<time>2025-04-30T09:19:47.000Z</time>
</trkpt>
<trkpt lat="45.9035490" lon="10.2508960">
	<ele>819.80</ele>
	<time>2025-04-30T09:19:48.000Z</time>
</trkpt>
<trkpt lat="45.9035470" lon="10.2509050">
	<ele>819.40</ele>
	<time>2025-04-30T09:19:49.000Z</time>
</trkpt>
<trkpt lat="45.9035450" lon="10.2509100">
	<ele>819.00</ele>
	<time>2025-04-30T09:19:50.000Z</time>
</trkpt>
<trkpt lat="45.9035550" lon="10.2509180">
	<ele>818.80</ele>
	<time>2025-04-30T09:19:51.000Z</time>
</trkpt>
<trkpt lat="45.9035660" lon="10.2509370">
	<ele>818.40</ele>
	<time>2025-04-30T09:19:52.000Z</time>
</trkpt>
<trkpt lat="45.9035820" lon="10.2509550">
	<ele>818.20</ele>
	<time>2025-04-30T09:19:53.000Z</time>
</trkpt>
<trkpt lat="45.9036020" lon="10.2509710">
	<ele>818.00</ele>
	<time>2025-04-30T09:19:54.000Z</time>
</trkpt>
<trkpt lat="45.9036210" lon="10.2509850">
	<ele>817.80</ele>
	<time>2025-04-30T09:19:55.000Z</time>
</trkpt>
<trkpt lat="45.9036350" lon="10.2510000">
	<ele>817.40</ele>
	<time>2025-04-30T09:19:56.000Z</time>
</trkpt>
<trkpt lat="45.9036450" lon="10.2510190">
	<ele>817.20</ele>
	<time>2025-04-30T09:19:57.000Z</time>
</trkpt>
<trkpt lat="45.9036680" lon="10.2510350">
	<ele>816.80</ele>
	<time>2025-04-30T09:19:58.000Z</time>
</trkpt>
<trkpt lat="45.9036980" lon="10.2510510">
	<ele>816.60</ele>
	<time>2025-04-30T09:19:59.000Z</time>
</trkpt>
<trkpt lat="45.9037230" lon="10.2510710">
	<ele>816.20</ele>
	<time>2025-04-30T09:20:00.000Z</time>
</trkpt>
<trkpt lat="45.9037600" lon="10.2511050">
	<ele>816.00</ele>
	<time>2025-04-30T09:20:01.000Z</time>
</trkpt>
<trkpt lat="45.9037830" lon="10.2511320">
	<ele>816.00</ele>
	<time>2025-04-30T09:20:02.000Z</time>
</trkpt>
<trkpt lat="45.9037970" lon="10.2511540">
	<ele>815.80</ele>
	<time>2025-04-30T09:20:03.000Z</time>
</trkpt>
<trkpt lat="45.9038040" lon="10.2511800">
	<ele>815.40</ele>
	<time>2025-04-30T09:20:04.000Z</time>
</trkpt>
<trkpt lat="45.9038080" lon="10.2512100">
	<ele>815.20</ele>
	<time>2025-04-30T09:20:05.000Z</time>
</trkpt>
<trkpt lat="45.9038020" lon="10.2512460">
	<ele>815.00</ele>
	<time>2025-04-30T09:20:06.000Z</time>
</trkpt>
<trkpt lat="45.9038100" lon="10.2512670">
	<ele>814.80</ele>
	<time>2025-04-30T09:20:07.000Z</time>
</trkpt>
<trkpt lat="45.9038160" lon="10.2512750">
	<ele>814.60</ele>
	<time>2025-04-30T09:20:08.000Z</time>
</trkpt>
<trkpt lat="45.9038220" lon="10.2512850">
	<ele>814.60</ele>
	<time>2025-04-30T09:20:09.000Z</time>
</trkpt>
<trkpt lat="45.9038360" lon="10.2512960">
	<ele>814.20</ele>
	<time>2025-04-30T09:20:10.000Z</time>
</trkpt>
<trkpt lat="45.9038460" lon="10.2513140">
	<ele>814.20</ele>
	<time>2025-04-30T09:20:11.000Z</time>
</trkpt>
<trkpt lat="45.9038550" lon="10.2513390">
	<ele>813.80</ele>
	<time>2025-04-30T09:20:12.000Z</time>
</trkpt>
<trkpt lat="45.9038580" lon="10.2513670">
	<ele>813.80</ele>
	<time>2025-04-30T09:20:13.000Z</time>
</trkpt>
<trkpt lat="45.9038630" lon="10.2513960">
	<ele>813.40</ele>
	<time>2025-04-30T09:20:14.000Z</time>
</trkpt>
<trkpt lat="45.9038720" lon="10.2514270">
	<ele>813.40</ele>
	<time>2025-04-30T09:20:15.000Z</time>
</trkpt>
<trkpt lat="45.9038760" lon="10.2514550">
	<ele>813.20</ele>
	<time>2025-04-30T09:20:16.000Z</time>
</trkpt>
<trkpt lat="45.9038880" lon="10.2514760">
	<ele>813.20</ele>
	<time>2025-04-30T09:20:17.000Z</time>
</trkpt>
<trkpt lat="45.9039030" lon="10.2514930">
	<ele>813.00</ele>
	<time>2025-04-30T09:20:18.000Z</time>
</trkpt>
<trkpt lat="45.9039160" lon="10.2515050">
	<ele>812.80</ele>
	<time>2025-04-30T09:20:19.000Z</time>
</trkpt>
<trkpt lat="45.9039340" lon="10.2515150">
	<ele>812.80</ele>
	<time>2025-04-30T09:20:20.000Z</time>
</trkpt>
<trkpt lat="45.9039540" lon="10.2515220">
	<ele>812.60</ele>
	<time>2025-04-30T09:20:21.000Z</time>
</trkpt>
<trkpt lat="45.9039710" lon="10.2515410">
	<ele>812.40</ele>
	<time>2025-04-30T09:20:22.000Z</time>
</trkpt>
<trkpt lat="45.9039850" lon="10.2515640">
	<ele>812.20</ele>
	<time>2025-04-30T09:20:23.000Z</time>
</trkpt>
<trkpt lat="45.9039960" lon="10.2515900">
	<ele>812.00</ele>
	<time>2025-04-30T09:20:24.000Z</time>
</trkpt>
<trkpt lat="45.9040100" lon="10.2516080">
	<ele>811.80</ele>
	<time>2025-04-30T09:20:25.000Z</time>
</trkpt>
<trkpt lat="45.9040220" lon="10.2516200">
	<ele>811.80</ele>
	<time>2025-04-30T09:20:26.000Z</time>
</trkpt>
<trkpt lat="45.9040390" lon="10.2516310">
	<ele>811.40</ele>
	<time>2025-04-30T09:20:27.000Z</time>
</trkpt>
<trkpt lat="45.9040570" lon="10.2516400">
	<ele>811.20</ele>
	<time>2025-04-30T09:20:28.000Z</time>
</trkpt>
<trkpt lat="45.9040770" lon="10.2516590">
	<ele>811.00</ele>
	<time>2025-04-30T09:20:29.000Z</time>
</trkpt>
<trkpt lat="45.9040890" lon="10.2516830">
	<ele>810.80</ele>
	<time>2025-04-30T09:20:30.000Z</time>
</trkpt>
<trkpt lat="45.9040960" lon="10.2517020">
	<ele>810.60</ele>
	<time>2025-04-30T09:20:31.000Z</time>
</trkpt>
<trkpt lat="45.9041080" lon="10.2517200">
	<ele>810.40</ele>
	<time>2025-04-30T09:20:32.000Z</time>
</trkpt>
<trkpt lat="45.9041200" lon="10.2517390">
	<ele>810.20</ele>
	<time>2025-04-30T09:20:33.000Z</time>
</trkpt>
<trkpt lat="45.9041250" lon="10.2517670">
	<ele>810.00</ele>
	<time>2025-04-30T09:20:34.000Z</time>
</trkpt>
<trkpt lat="45.9041230" lon="10.2517960">
	<ele>809.80</ele>
	<time>2025-04-30T09:20:35.000Z</time>
</trkpt>
<trkpt lat="45.9041250" lon="10.2518200">
	<ele>809.60</ele>
	<time>2025-04-30T09:20:36.000Z</time>
</trkpt>
<trkpt lat="45.9041280" lon="10.2518430">
	<ele>809.40</ele>
	<time>2025-04-30T09:20:37.000Z</time>
</trkpt>
<trkpt lat="45.9041390" lon="10.2518590">
	<ele>809.20</ele>
	<time>2025-04-30T09:20:38.000Z</time>
</trkpt>
<trkpt lat="45.9041490" lon="10.2518740">
	<ele>809.00</ele>
	<time>2025-04-30T09:20:39.000Z</time>
</trkpt>
<trkpt lat="45.9041540" lon="10.2518930">
	<ele>808.80</ele>
	<time>2025-04-30T09:20:40.000Z</time>
</trkpt>
<trkpt lat="45.9041610" lon="10.2519090">
	<ele>808.80</ele>
	<time>2025-04-30T09:20:41.000Z</time>
</trkpt>
<trkpt lat="45.9041720" lon="10.2519240">
	<ele>808.60</ele>
	<time>2025-04-30T09:20:42.000Z</time>
</trkpt>
<trkpt lat="45.9041810" lon="10.2519380">
	<ele>808.40</ele>
	<time>2025-04-30T09:20:43.000Z</time>
</trkpt>
<trkpt lat="45.9041870" lon="10.2519480">
	<ele>808.20</ele>
	<time>2025-04-30T09:20:44.000Z</time>
</trkpt>
<trkpt lat="45.9041990" lon="10.2519440">
	<ele>808.20</ele>
	<time>2025-04-30T09:20:45.000Z</time>
</trkpt>
<trkpt lat="45.9042100" lon="10.2519540">
	<ele>808.00</ele>
	<time>2025-04-30T09:20:46.000Z</time>
</trkpt>
<trkpt lat="45.9042220" lon="10.2519730">
	<ele>807.80</ele>
	<time>2025-04-30T09:20:47.000Z</time>
</trkpt>
<trkpt lat="45.9042390" lon="10.2520000">
	<ele>807.60</ele>
	<time>2025-04-30T09:20:48.000Z</time>
</trkpt>
<trkpt lat="45.9042510" lon="10.2520200">
	<ele>807.20</ele>
	<time>2025-04-30T09:20:49.000Z</time>
</trkpt>
<trkpt lat="45.9042670" lon="10.2520370">
	<ele>807.00</ele>
	<time>2025-04-30T09:20:50.000Z</time>
</trkpt>
<trkpt lat="45.9042830" lon="10.2520670">
	<ele>806.80</ele>
	<time>2025-04-30T09:20:51.000Z</time>
</trkpt>
<trkpt lat="45.9042940" lon="10.2520940">
	<ele>806.60</ele>
	<time>2025-04-30T09:20:52.000Z</time>
</trkpt>
<trkpt lat="45.9043220" lon="10.2521060">
	<ele>806.40</ele>
	<time>2025-04-30T09:20:53.000Z</time>
</trkpt>
<trkpt lat="45.9043460" lon="10.2521120">
	<ele>806.20</ele>
	<time>2025-04-30T09:20:54.000Z</time>
</trkpt>
<trkpt lat="45.9043630" lon="10.2521170">
	<ele>806.00</ele>
	<time>2025-04-30T09:20:55.000Z</time>
</trkpt>
<trkpt lat="45.9043770" lon="10.2521260">
	<ele>805.80</ele>
	<time>2025-04-30T09:20:56.000Z</time>
</trkpt>
<trkpt lat="45.9043790" lon="10.2521300">
	<ele>805.60</ele>
	<time>2025-04-30T09:20:57.000Z</time>
</trkpt>
<trkpt lat="45.9043820" lon="10.2521480">
	<ele>805.20</ele>
	<time>2025-04-30T09:20:58.000Z</time>
</trkpt>
<trkpt lat="45.9043900" lon="10.2521720">
	<ele>805.00</ele>
	<time>2025-04-30T09:20:59.000Z</time>
</trkpt>
<trkpt lat="45.9044020" lon="10.2521860">
	<ele>804.60</ele>
	<time>2025-04-30T09:21:00.000Z</time>
</trkpt>
<trkpt lat="45.9044160" lon="10.2521950">
	<ele>804.40</ele>
	<time>2025-04-30T09:21:01.000Z</time>
</trkpt>
<trkpt lat="45.9044370" lon="10.2521980">
	<ele>804.00</ele>
	<time>2025-04-30T09:21:02.000Z</time>
</trkpt>
<trkpt lat="45.9044660" lon="10.2521870">
	<ele>803.80</ele>
	<time>2025-04-30T09:21:03.000Z</time>
</trkpt>
<trkpt lat="45.9044800" lon="10.2521780">
	<ele>803.60</ele>
	<time>2025-04-30T09:21:04.000Z</time>
</trkpt>
<trkpt lat="45.9044910" lon="10.2521690">
	<ele>803.40</ele>
	<time>2025-04-30T09:21:05.000Z</time>
</trkpt>
<trkpt lat="45.9044940" lon="10.2521760">
	<ele>803.20</ele>
	<time>2025-04-30T09:21:06.000Z</time>
</trkpt>
<trkpt lat="45.9045030" lon="10.2521710">
	<ele>802.80</ele>
	<time>2025-04-30T09:21:07.000Z</time>
</trkpt>
<trkpt lat="45.9045170" lon="10.2521680">
	<ele>802.80</ele>
	<time>2025-04-30T09:21:08.000Z</time>
</trkpt>
<trkpt lat="45.9045320" lon="10.2521710">
	<ele>802.40</ele>
	<time>2025-04-30T09:21:09.000Z</time>
</trkpt>
<trkpt lat="45.9045440" lon="10.2521740">
	<ele>802.20</ele>
	<time>2025-04-30T09:21:10.000Z</time>
</trkpt>
<trkpt lat="45.9045560" lon="10.2521790">
	<ele>802.20</ele>
	<time>2025-04-30T09:21:11.000Z</time>
</trkpt>
<trkpt lat="45.9045620" lon="10.2521970">
	<ele>801.60</ele>
	<time>2025-04-30T09:21:12.000Z</time>
</trkpt>
<trkpt lat="45.9045690" lon="10.2522130">
	<ele>801.40</ele>
	<time>2025-04-30T09:21:13.000Z</time>
</trkpt>
<trkpt lat="45.9045770" lon="10.2522380">
	<ele>801.20</ele>
	<time>2025-04-30T09:21:14.000Z</time>
</trkpt>
<trkpt lat="45.9045810" lon="10.2522570">
	<ele>800.80</ele>
	<time>2025-04-30T09:21:15.000Z</time>
</trkpt>
<trkpt lat="45.9046000" lon="10.2522560">
	<ele>800.40</ele>
	<time>2025-04-30T09:21:16.000Z</time>
</trkpt>
<trkpt lat="45.9046060" lon="10.2522650">
	<ele>800.20</ele>
	<time>2025-04-30T09:21:17.000Z</time>
</trkpt>
<trkpt lat="45.9046120" lon="10.2522720">
	<ele>799.80</ele>
	<time>2025-04-30T09:21:18.000Z</time>
</trkpt>
<trkpt lat="45.9046240" lon="10.2522830">
	<ele>799.40</ele>
	<time>2025-04-30T09:21:19.000Z</time>
</trkpt>
<trkpt lat="45.9046350" lon="10.2522970">
	<ele>798.80</ele>
	<time>2025-04-30T09:21:20.000Z</time>
</trkpt>
<trkpt lat="45.9046460" lon="10.2523060">
	<ele>798.60</ele>
	<time>2025-04-30T09:21:21.000Z</time>
</trkpt>
<trkpt lat="45.9046520" lon="10.2523250">
	<ele>798.20</ele>
	<time>2025-04-30T09:21:22.000Z</time>
</trkpt>
<trkpt lat="45.9046600" lon="10.2523440">
	<ele>798.00</ele>
	<time>2025-04-30T09:21:23.000Z</time>
</trkpt>
<trkpt lat="45.9046580" lon="10.2523600">
	<ele>797.60</ele>
	<time>2025-04-30T09:21:24.000Z</time>
</trkpt>
<trkpt lat="45.9046600" lon="10.2523780">
	<ele>797.40</ele>
	<time>2025-04-30T09:21:25.000Z</time>
</trkpt>
<trkpt lat="45.9046540" lon="10.2524000">
	<ele>797.40</ele>
	<time>2025-04-30T09:21:26.000Z</time>
</trkpt>
<trkpt lat="45.9046510" lon="10.2524250">
	<ele>797.40</ele>
	<time>2025-04-30T09:21:27.000Z</time>
</trkpt>
<trkpt lat="45.9046440" lon="10.2524530">
	<ele>797.20</ele>
	<time>2025-04-30T09:21:28.000Z</time>
</trkpt>
<trkpt lat="45.9046370" lon="10.2524770">
	<ele>797.20</ele>
	<time>2025-04-30T09:21:29.000Z</time>
</trkpt>
<trkpt lat="45.9046340" lon="10.2524920">
	<ele>797.00</ele>
	<time>2025-04-30T09:21:30.000Z</time>
</trkpt>
<trkpt lat="45.9046280" lon="10.2525070">
	<ele>797.00</ele>
	<time>2025-04-30T09:21:31.000Z</time>
</trkpt>
<trkpt lat="45.9046280" lon="10.2525130">
	<ele>797.00</ele>
	<time>2025-04-30T09:21:32.000Z</time>
</trkpt>
<trkpt lat="45.9046230" lon="10.2525240">
	<ele>796.80</ele>
	<time>2025-04-30T09:21:33.000Z</time>
</trkpt>
<trkpt lat="45.9046250" lon="10.2525440">
	<ele>796.80</ele>
	<time>2025-04-30T09:21:34.000Z</time>
</trkpt>
<trkpt lat="45.9046330" lon="10.2525570">
	<ele>796.40</ele>
	<time>2025-04-30T09:21:35.000Z</time>
</trkpt>
<trkpt lat="45.9046410" lon="10.2525690">
	<ele>796.20</ele>
	<time>2025-04-30T09:21:36.000Z</time>
</trkpt>
<trkpt lat="45.9046560" lon="10.2525760">
	<ele>796.00</ele>
	<time>2025-04-30T09:21:37.000Z</time>
</trkpt>
<trkpt lat="45.9046640" lon="10.2525840">
	<ele>795.80</ele>
	<time>2025-04-30T09:21:38.000Z</time>
</trkpt>
<trkpt lat="45.9046670" lon="10.2525870">
	<ele>795.40</ele>
	<time>2025-04-30T09:21:39.000Z</time>
</trkpt>
<trkpt lat="45.9046640" lon="10.2526010">
	<ele>795.00</ele>
	<time>2025-04-30T09:21:40.000Z</time>
</trkpt>
<trkpt lat="45.9046620" lon="10.2526140">
	<ele>794.80</ele>
	<time>2025-04-30T09:21:41.000Z</time>
</trkpt>
<trkpt lat="45.9046580" lon="10.2526330">
	<ele>794.60</ele>
	<time>2025-04-30T09:21:42.000Z</time>
</trkpt>
<trkpt lat="45.9046410" lon="10.2526730">
	<ele>794.40</ele>
	<time>2025-04-30T09:21:43.000Z</time>
</trkpt>
<trkpt lat="45.9046410" lon="10.2526960">
	<ele>794.20</ele>
	<time>2025-04-30T09:21:44.000Z</time>
</trkpt>
<trkpt lat="45.9046510" lon="10.2527070">
	<ele>794.00</ele>
	<time>2025-04-30T09:21:45.000Z</time>
</trkpt>
<trkpt lat="45.9046680" lon="10.2527120">
	<ele>793.60</ele>
	<time>2025-04-30T09:21:46.000Z</time>
</trkpt>
<trkpt lat="45.9046830" lon="10.2527190">
	<ele>793.40</ele>
	<time>2025-04-30T09:21:47.000Z</time>
</trkpt>
<trkpt lat="45.9046880" lon="10.2527340">
	<ele>793.20</ele>
	<time>2025-04-30T09:21:48.000Z</time>
</trkpt>
<trkpt lat="45.9046900" lon="10.2527530">
	<ele>793.20</ele>
	<time>2025-04-30T09:21:49.000Z</time>
</trkpt>
<trkpt lat="45.9046960" lon="10.2527730">
	<ele>793.00</ele>
	<time>2025-04-30T09:21:50.000Z</time>
</trkpt>
<trkpt lat="45.9047010" lon="10.2527910">
	<ele>792.80</ele>
	<time>2025-04-30T09:21:51.000Z</time>
</trkpt>
<trkpt lat="45.9047050" lon="10.2528040">
	<ele>792.60</ele>
	<time>2025-04-30T09:21:52.000Z</time>
</trkpt>
<trkpt lat="45.9047050" lon="10.2528190">
	<ele>792.40</ele>
	<time>2025-04-30T09:21:53.000Z</time>
</trkpt>
<trkpt lat="45.9047130" lon="10.2528330">
	<ele>792.40</ele>
	<time>2025-04-30T09:21:54.000Z</time>
</trkpt>
<trkpt lat="45.9047180" lon="10.2528470">
	<ele>792.40</ele>
	<time>2025-04-30T09:21:55.000Z</time>
</trkpt>
<trkpt lat="45.9047200" lon="10.2528710">
	<ele>792.20</ele>
	<time>2025-04-30T09:21:56.000Z</time>
</trkpt>
<trkpt lat="45.9047240" lon="10.2528950">
	<ele>792.00</ele>
	<time>2025-04-30T09:21:57.000Z</time>
</trkpt>
<trkpt lat="45.9047270" lon="10.2529240">
	<ele>792.00</ele>
	<time>2025-04-30T09:21:58.000Z</time>
</trkpt>
<trkpt lat="45.9047270" lon="10.2529640">
	<ele>792.00</ele>
	<time>2025-04-30T09:21:59.000Z</time>
</trkpt>
<trkpt lat="45.9047250" lon="10.2530060">
	<ele>792.00</ele>
	<time>2025-04-30T09:22:00.000Z</time>
</trkpt>
<trkpt lat="45.9047250" lon="10.2530460">
	<ele>791.80</ele>
	<time>2025-04-30T09:22:01.000Z</time>
</trkpt>
<trkpt lat="45.9047300" lon="10.2530930">
	<ele>791.60</ele>
	<time>2025-04-30T09:22:02.000Z</time>
</trkpt>
<trkpt lat="45.9047320" lon="10.2531330">
	<ele>791.40</ele>
	<time>2025-04-30T09:22:03.000Z</time>
</trkpt>
<trkpt lat="45.9047250" lon="10.2531780">
	<ele>791.20</ele>
	<time>2025-04-30T09:22:04.000Z</time>
</trkpt>
<trkpt lat="45.9047280" lon="10.2532130">
	<ele>791.20</ele>
	<time>2025-04-30T09:22:05.000Z</time>
</trkpt>
<trkpt lat="45.9047270" lon="10.2532460">
	<ele>791.00</ele>
	<time>2025-04-30T09:22:06.000Z</time>
</trkpt>
<trkpt lat="45.9047300" lon="10.2532770">
	<ele>790.80</ele>
	<time>2025-04-30T09:22:07.000Z</time>
</trkpt>
<trkpt lat="45.9047380" lon="10.2533010">
	<ele>790.80</ele>
	<time>2025-04-30T09:22:08.000Z</time>
</trkpt>
<trkpt lat="45.9047430" lon="10.2533270">
	<ele>790.80</ele>
	<time>2025-04-30T09:22:09.000Z</time>
</trkpt>
<trkpt lat="45.9047520" lon="10.2533480">
	<ele>790.40</ele>
	<time>2025-04-30T09:22:10.000Z</time>
</trkpt>
<trkpt lat="45.9047500" lon="10.2533660">
	<ele>790.20</ele>
	<time>2025-04-30T09:22:11.000Z</time>
</trkpt>
<trkpt lat="45.9047380" lon="10.2533880">
	<ele>790.00</ele>
	<time>2025-04-30T09:22:12.000Z</time>
</trkpt>
<trkpt lat="45.9047330" lon="10.2534100">
	<ele>789.60</ele>
	<time>2025-04-30T09:22:13.000Z</time>
</trkpt>
<trkpt lat="45.9047270" lon="10.2534360">
	<ele>789.40</ele>
	<time>2025-04-30T09:22:14.000Z</time>
</trkpt>
<trkpt lat="45.9047290" lon="10.2534690">
	<ele>789.20</ele>
	<time>2025-04-30T09:22:15.000Z</time>
</trkpt>
<trkpt lat="45.9047340" lon="10.2534980">
	<ele>788.80</ele>
	<time>2025-04-30T09:22:16.000Z</time>
</trkpt>
<trkpt lat="45.9047380" lon="10.2535200">
	<ele>788.60</ele>
	<time>2025-04-30T09:22:17.000Z</time>
</trkpt>
<trkpt lat="45.9047430" lon="10.2535190">
	<ele>788.40</ele>
	<time>2025-04-30T09:22:18.000Z</time>
</trkpt>
<trkpt lat="45.9047450" lon="10.2535150">
	<ele>788.40</ele>
	<time>2025-04-30T09:22:19.000Z</time>
</trkpt>
<trkpt lat="45.9047670" lon="10.2535020">
	<ele>788.40</ele>
	<time>2025-04-30T09:22:20.000Z</time>
</trkpt>
<trkpt lat="45.9047930" lon="10.2534820">
	<ele>788.60</ele>
	<time>2025-04-30T09:22:21.000Z</time>
</trkpt>
<trkpt lat="45.9048160" lon="10.2534640">
	<ele>788.60</ele>
	<time>2025-04-30T09:22:22.000Z</time>
</trkpt>
<trkpt lat="45.9048240" lon="10.2534540">
	<ele>788.60</ele>
	<time>2025-04-30T09:22:23.000Z</time>
</trkpt>
<trkpt lat="45.9048220" lon="10.2534520">
	<ele>788.60</ele>
	<time>2025-04-30T09:22:24.000Z</time>
</trkpt>
<trkpt lat="45.9048190" lon="10.2534530">
	<ele>788.60</ele>
	<time>2025-04-30T09:22:25.000Z</time>
</trkpt>
<trkpt lat="45.9048220" lon="10.2534500">
	<ele>788.60</ele>
	<time>2025-04-30T09:22:26.000Z</time>
</trkpt>
<trkpt lat="45.9048170" lon="10.2534550">
	<ele>788.60</ele>
	<time>2025-04-30T09:22:27.000Z</time>
</trkpt>
<trkpt lat="45.9048220" lon="10.2534630">
	<ele>788.60</ele>
	<time>2025-04-30T09:22:28.000Z</time>
</trkpt>
<trkpt lat="45.9048140" lon="10.2534750">
	<ele>788.60</ele>
	<time>2025-04-30T09:22:29.000Z</time>
</trkpt>
<trkpt lat="45.9048060" lon="10.2534890">
	<ele>788.40</ele>
	<time>2025-04-30T09:22:30.000Z</time>
</trkpt>
<trkpt lat="45.9048040" lon="10.2535120">
	<ele>788.00</ele>
	<time>2025-04-30T09:22:31.000Z</time>
</trkpt>
<trkpt lat="45.9047880" lon="10.2535320">
	<ele>787.80</ele>
	<time>2025-04-30T09:22:32.000Z</time>
</trkpt>
<trkpt lat="45.9047730" lon="10.2535600">
	<ele>787.60</ele>
	<time>2025-04-30T09:22:33.000Z</time>
</trkpt>
<trkpt lat="45.9047670" lon="10.2535900">
	<ele>787.60</ele>
	<time>2025-04-30T09:22:34.000Z</time>
</trkpt>
<trkpt lat="45.9047620" lon="10.2536180">
	<ele>787.40</ele>
	<time>2025-04-30T09:22:35.000Z</time>
</trkpt>
<trkpt lat="45.9047620" lon="10.2536410">
	<ele>787.40</ele>
	<time>2025-04-30T09:22:36.000Z</time>
</trkpt>
<trkpt lat="45.9047630" lon="10.2536590">
	<ele>787.40</ele>
	<time>2025-04-30T09:22:37.000Z</time>
</trkpt>
<trkpt lat="45.9047590" lon="10.2536820">
	<ele>787.20</ele>
	<time>2025-04-30T09:22:38.000Z</time>
</trkpt>
<trkpt lat="45.9047580" lon="10.2537010">
	<ele>787.00</ele>
	<time>2025-04-30T09:22:39.000Z</time>
</trkpt>
<trkpt lat="45.9047550" lon="10.2537220">
	<ele>786.80</ele>
	<time>2025-04-30T09:22:40.000Z</time>
</trkpt>
<trkpt lat="45.9047590" lon="10.2537360">
	<ele>786.60</ele>
	<time>2025-04-30T09:22:41.000Z</time>
</trkpt>
<trkpt lat="45.9047600" lon="10.2537500">
	<ele>786.40</ele>
	<time>2025-04-30T09:22:42.000Z</time>
</trkpt>
<trkpt lat="45.9047640" lon="10.2537600">
	<ele>786.20</ele>
	<time>2025-04-30T09:22:43.000Z</time>
</trkpt>
<trkpt lat="45.9047630" lon="10.2537880">
	<ele>786.00</ele>
	<time>2025-04-30T09:22:44.000Z</time>
</trkpt>
<trkpt lat="45.9047630" lon="10.2538120">
	<ele>786.00</ele>
	<time>2025-04-30T09:22:45.000Z</time>
</trkpt>
<trkpt lat="45.9047620" lon="10.2538450">
	<ele>785.80</ele>
	<time>2025-04-30T09:22:46.000Z</time>
</trkpt>
<trkpt lat="45.9047660" lon="10.2538700">
	<ele>785.60</ele>
	<time>2025-04-30T09:22:47.000Z</time>
</trkpt>
<trkpt lat="45.9047610" lon="10.2538990">
	<ele>785.60</ele>
	<time>2025-04-30T09:22:48.000Z</time>
</trkpt>
<trkpt lat="45.9047570" lon="10.2539280">
	<ele>785.40</ele>
	<time>2025-04-30T09:22:49.000Z</time>
</trkpt>
<trkpt lat="45.9047540" lon="10.2539450">
	<ele>785.20</ele>
	<time>2025-04-30T09:22:50.000Z</time>
</trkpt>
<trkpt lat="45.9047600" lon="10.2539520">
	<ele>785.00</ele>
	<time>2025-04-30T09:22:51.000Z</time>
</trkpt>
<trkpt lat="45.9047730" lon="10.2539660">
	<ele>784.80</ele>
	<time>2025-04-30T09:22:52.000Z</time>
</trkpt>
<trkpt lat="45.9047810" lon="10.2539800">
	<ele>784.60</ele>
	<time>2025-04-30T09:22:53.000Z</time>
</trkpt>
<trkpt lat="45.9047920" lon="10.2539970">
	<ele>784.40</ele>
	<time>2025-04-30T09:22:54.000Z</time>
</trkpt>
<trkpt lat="45.9048040" lon="10.2540120">
	<ele>784.40</ele>
	<time>2025-04-30T09:22:55.000Z</time>
</trkpt>
<trkpt lat="45.9048080" lon="10.2540460">
	<ele>784.20</ele>
	<time>2025-04-30T09:22:56.000Z</time>
</trkpt>
<trkpt lat="45.9048130" lon="10.2540640">
	<ele>784.00</ele>
	<time>2025-04-30T09:22:57.000Z</time>
</trkpt>
<trkpt lat="45.9048250" lon="10.2540810">
	<ele>783.80</ele>
	<time>2025-04-30T09:22:58.000Z</time>
</trkpt>
<trkpt lat="45.9048410" lon="10.2540830">
	<ele>783.60</ele>
	<time>2025-04-30T09:22:59.000Z</time>
</trkpt>
<trkpt lat="45.9048610" lon="10.2540820">
	<ele>783.40</ele>
	<time>2025-04-30T09:23:00.000Z</time>
</trkpt>
<trkpt lat="45.9048710" lon="10.2540830">
	<ele>783.20</ele>
	<time>2025-04-30T09:23:01.000Z</time>
</trkpt>
<trkpt lat="45.9048880" lon="10.2540840">
	<ele>783.20</ele>
	<time>2025-04-30T09:23:02.000Z</time>
</trkpt>
<trkpt lat="45.9049100" lon="10.2540900">
	<ele>783.00</ele>
	<time>2025-04-30T09:23:03.000Z</time>
</trkpt>
<trkpt lat="45.9049310" lon="10.2541010">
	<ele>782.80</ele>
	<time>2025-04-30T09:23:04.000Z</time>
</trkpt>
<trkpt lat="45.9049440" lon="10.2541080">
	<ele>782.80</ele>
	<time>2025-04-30T09:23:05.000Z</time>
</trkpt>
<trkpt lat="45.9049640" lon="10.2541110">
	<ele>782.60</ele>
	<time>2025-04-30T09:23:06.000Z</time>
</trkpt>
<trkpt lat="45.9049980" lon="10.2541120">
	<ele>782.40</ele>
	<time>2025-04-30T09:23:07.000Z</time>
</trkpt>
<trkpt lat="45.9050040" lon="10.2541150">
	<ele>782.00</ele>
	<time>2025-04-30T09:23:08.000Z</time>
</trkpt>
<trkpt lat="45.9050170" lon="10.2541030">
	<ele>781.80</ele>
	<time>2025-04-30T09:23:09.000Z</time>
</trkpt>
<trkpt lat="45.9050120" lon="10.2540960">
	<ele>781.80</ele>
	<time>2025-04-30T09:23:10.000Z</time>
</trkpt>
<trkpt lat="45.9049960" lon="10.2541000">
	<ele>781.60</ele>
	<time>2025-04-30T09:23:11.000Z</time>
</trkpt>
<trkpt lat="45.9049960" lon="10.2540970">
	<ele>781.60</ele>
	<time>2025-04-30T09:23:12.000Z</time>
</trkpt>
<trkpt lat="45.9049970" lon="10.2540980">
	<ele>781.80</ele>
	<time>2025-04-30T09:23:13.000Z</time>
</trkpt>
<trkpt lat="45.9049990" lon="10.2541010">
	<ele>781.80</ele>
	<time>2025-04-30T09:23:14.000Z</time>
</trkpt>
<trkpt lat="45.9050110" lon="10.2541060">
	<ele>781.80</ele>
	<time>2025-04-30T09:23:15.000Z</time>
</trkpt>
<trkpt lat="45.9050140" lon="10.2541110">
	<ele>781.60</ele>
	<time>2025-04-30T09:23:16.000Z</time>
</trkpt>
<trkpt lat="45.9050280" lon="10.2541250">
	<ele>781.60</ele>
	<time>2025-04-30T09:23:17.000Z</time>
</trkpt>
<trkpt lat="45.9050310" lon="10.2541280">
	<ele>781.40</ele>
	<time>2025-04-30T09:23:18.000Z</time>
</trkpt>
<trkpt lat="45.9050330" lon="10.2541320">
	<ele>781.40</ele>
	<time>2025-04-30T09:23:19.000Z</time>
</trkpt>
<trkpt lat="45.9050340" lon="10.2541340">
	<ele>781.40</ele>
	<time>2025-04-30T09:23:20.000Z</time>
</trkpt>
<trkpt lat="45.9050310" lon="10.2541490">
	<ele>781.40</ele>
	<time>2025-04-30T09:23:21.000Z</time>
</trkpt>
<trkpt lat="45.9050310" lon="10.2541510">
	<ele>781.40</ele>
	<time>2025-04-30T09:23:22.000Z</time>
</trkpt>
<trkpt lat="45.9050300" lon="10.2541610">
	<ele>781.40</ele>
	<time>2025-04-30T09:23:23.000Z</time>
</trkpt>
<trkpt lat="45.9050350" lon="10.2541700">
	<ele>781.40</ele>
	<time>2025-04-30T09:23:24.000Z</time>
</trkpt>
<trkpt lat="45.9050340" lon="10.2541830">
	<ele>781.20</ele>
	<time>2025-04-30T09:23:25.000Z</time>
</trkpt>
<trkpt lat="45.9050510" lon="10.2541940">
	<ele>781.00</ele>
	<time>2025-04-30T09:23:26.000Z</time>
</trkpt>
<trkpt lat="45.9050580" lon="10.2542070">
	<ele>780.60</ele>
	<time>2025-04-30T09:23:27.000Z</time>
</trkpt>
<trkpt lat="45.9050620" lon="10.2542220">
	<ele>780.40</ele>
	<time>2025-04-30T09:23:28.000Z</time>
</trkpt>
<trkpt lat="45.9050710" lon="10.2542330">
	<ele>780.20</ele>
	<time>2025-04-30T09:23:29.000Z</time>
</trkpt>
<trkpt lat="45.9050860" lon="10.2542380">
	<ele>780.00</ele>
	<time>2025-04-30T09:23:30.000Z</time>
</trkpt>
<trkpt lat="45.9050940" lon="10.2542460">
	<ele>779.80</ele>
	<time>2025-04-30T09:23:31.000Z</time>
</trkpt>
<trkpt lat="45.9051010" lon="10.2542530">
	<ele>779.80</ele>
	<time>2025-04-30T09:23:32.000Z</time>
</trkpt>
<trkpt lat="45.9051080" lon="10.2542590">
	<ele>779.60</ele>
	<time>2025-04-30T09:23:33.000Z</time>
</trkpt>
<trkpt lat="45.9051200" lon="10.2542610">
	<ele>779.60</ele>
	<time>2025-04-30T09:23:34.000Z</time>
</trkpt>
<trkpt lat="45.9051340" lon="10.2542620">
	<ele>779.40</ele>
	<time>2025-04-30T09:23:35.000Z</time>
</trkpt>
<trkpt lat="45.9051530" lon="10.2542660">
	<ele>779.20</ele>
	<time>2025-04-30T09:23:36.000Z</time>
</trkpt>
<trkpt lat="45.9051650" lon="10.2542740">
	<ele>779.00</ele>
	<time>2025-04-30T09:23:37.000Z</time>
</trkpt>
<trkpt lat="45.9051740" lon="10.2542870">
	<ele>778.60</ele>
	<time>2025-04-30T09:23:38.000Z</time>
</trkpt>
<trkpt lat="45.9051850" lon="10.2543030">
	<ele>778.40</ele>
	<time>2025-04-30T09:23:39.000Z</time>
</trkpt>
<trkpt lat="45.9052000" lon="10.2543140">
	<ele>778.20</ele>
	<time>2025-04-30T09:23:40.000Z</time>
</trkpt>
<trkpt lat="45.9052230" lon="10.2543130">
	<ele>778.20</ele>
	<time>2025-04-30T09:23:41.000Z</time>
</trkpt>
<trkpt lat="45.9052450" lon="10.2543150">
	<ele>778.00</ele>
	<time>2025-04-30T09:23:42.000Z</time>
</trkpt>
<trkpt lat="45.9052640" lon="10.2543140">
	<ele>778.00</ele>
	<time>2025-04-30T09:23:43.000Z</time>
</trkpt>
<trkpt lat="45.9052790" lon="10.2543140">
	<ele>777.80</ele>
	<time>2025-04-30T09:23:44.000Z</time>
</trkpt>
<trkpt lat="45.9052840" lon="10.2543190">
	<ele>777.80</ele>
	<time>2025-04-30T09:23:45.000Z</time>
</trkpt>
<trkpt lat="45.9053030" lon="10.2543330">
	<ele>777.80</ele>
	<time>2025-04-30T09:23:46.000Z</time>
</trkpt>
<trkpt lat="45.9053240" lon="10.2543370">
	<ele>777.80</ele>
	<time>2025-04-30T09:23:47.000Z</time>
</trkpt>
<trkpt lat="45.9053490" lon="10.2543370">
	<ele>777.80</ele>
	<time>2025-04-30T09:23:48.000Z</time>
</trkpt>
<trkpt lat="45.9053640" lon="10.2543370">
	<ele>777.80</ele>
	<time>2025-04-30T09:23:49.000Z</time>
</trkpt>
<trkpt lat="45.9053810" lon="10.2543380">
	<ele>777.60</ele>
	<time>2025-04-30T09:23:50.000Z</time>
</trkpt>
<trkpt lat="45.9054000" lon="10.2543380">
	<ele>777.60</ele>
	<time>2025-04-30T09:23:51.000Z</time>
</trkpt>
<trkpt lat="45.9054180" lon="10.2543380">
	<ele>777.60</ele>
	<time>2025-04-30T09:23:52.000Z</time>
</trkpt>
<trkpt lat="45.9054330" lon="10.2543370">
	<ele>777.60</ele>
	<time>2025-04-30T09:23:53.000Z</time>
</trkpt>
<trkpt lat="45.9054470" lon="10.2543370">
	<ele>777.60</ele>
	<time>2025-04-30T09:23:54.000Z</time>
</trkpt>
<trkpt lat="45.9054600" lon="10.2543450">
	<ele>777.40</ele>
	<time>2025-04-30T09:23:55.000Z</time>
</trkpt>
<trkpt lat="45.9054800" lon="10.2543540">
	<ele>777.20</ele>
	<time>2025-04-30T09:23:56.000Z</time>
</trkpt>
<trkpt lat="45.9054920" lon="10.2543660">
	<ele>777.20</ele>
	<time>2025-04-30T09:23:57.000Z</time>
</trkpt>
<trkpt lat="45.9054980" lon="10.2543700">
	<ele>777.20</ele>
	<time>2025-04-30T09:23:58.000Z</time>
</trkpt>
<trkpt lat="45.9055020" lon="10.2543750">
	<ele>777.00</ele>
	<time>2025-04-30T09:23:59.000Z</time>
</trkpt>
<trkpt lat="45.9055080" lon="10.2543800">
	<ele>777.00</ele>
	<time>2025-04-30T09:24:00.000Z</time>
</trkpt>
<trkpt lat="45.9055230" lon="10.2543850">
	<ele>777.00</ele>
	<time>2025-04-30T09:24:01.000Z</time>
</trkpt>
<trkpt lat="45.9055410" lon="10.2543830">
	<ele>776.80</ele>
	<time>2025-04-30T09:24:02.000Z</time>
</trkpt>
<trkpt lat="45.9055600" lon="10.2543770">
	<ele>776.60</ele>
	<time>2025-04-30T09:24:03.000Z</time>
</trkpt>
<trkpt lat="45.9055920" lon="10.2543550">
	<ele>776.40</ele>
	<time>2025-04-30T09:24:04.000Z</time>
</trkpt>
<trkpt lat="45.9056130" lon="10.2543380">
	<ele>776.20</ele>
	<time>2025-04-30T09:24:05.000Z</time>
</trkpt>
<trkpt lat="45.9056150" lon="10.2543360">
	<ele>776.00</ele>
	<time>2025-04-30T09:24:06.000Z</time>
</trkpt>
<trkpt lat="45.9056120" lon="10.2543400">
	<ele>775.80</ele>
	<time>2025-04-30T09:24:07.000Z</time>
</trkpt>
<trkpt lat="45.9056120" lon="10.2543400">
	<ele>775.60</ele>
	<time>2025-04-30T09:24:08.000Z</time>
</trkpt>
<trkpt lat="45.9056100" lon="10.2543400">
	<ele>775.60</ele>
	<time>2025-04-30T09:24:09.000Z</time>
</trkpt>
<trkpt lat="45.9056190" lon="10.2543450">
	<ele>775.60</ele>
	<time>2025-04-30T09:24:10.000Z</time>
</trkpt>
<trkpt lat="45.9056180" lon="10.2543460">
	<ele>775.60</ele>
	<time>2025-04-30T09:24:11.000Z</time>
</trkpt>
<trkpt lat="45.9056210" lon="10.2543450">
	<ele>776.00</ele>
	<time>2025-04-30T09:24:12.000Z</time>
</trkpt>
<trkpt lat="45.9056210" lon="10.2543450">
	<ele>776.20</ele>
	<time>2025-04-30T09:24:13.000Z</time>
</trkpt>
<trkpt lat="45.9056060" lon="10.2543510">
	<ele>776.20</ele>
	<time>2025-04-30T09:24:14.000Z</time>
</trkpt>
<trkpt lat="45.9056000" lon="10.2543530">
	<ele>776.40</ele>
	<time>2025-04-30T09:24:15.000Z</time>
</trkpt>
<trkpt lat="45.9056020" lon="10.2543520">
	<ele>776.40</ele>
	<time>2025-04-30T09:24:16.000Z</time>
</trkpt>
<trkpt lat="45.9056030" lon="10.2543570">
	<ele>776.20</ele>
	<time>2025-04-30T09:24:17.000Z</time>
</trkpt>
<trkpt lat="45.9056050" lon="10.2543590">
	<ele>776.00</ele>
	<time>2025-04-30T09:24:18.000Z</time>
</trkpt>
<trkpt lat="45.9056170" lon="10.2543590">
	<ele>775.80</ele>
	<time>2025-04-30T09:24:19.000Z</time>
</trkpt>
<trkpt lat="45.9056270" lon="10.2543620">
	<ele>775.60</ele>
	<time>2025-04-30T09:24:20.000Z</time>
</trkpt>
<trkpt lat="45.9056400" lon="10.2543660">
	<ele>775.60</ele>
	<time>2025-04-30T09:24:21.000Z</time>
</trkpt>
<trkpt lat="45.9056510" lon="10.2543710">
	<ele>775.60</ele>
	<time>2025-04-30T09:24:22.000Z</time>
</trkpt>
<trkpt lat="45.9056620" lon="10.2543740">
	<ele>775.60</ele>
	<time>2025-04-30T09:24:23.000Z</time>
</trkpt>
<trkpt lat="45.9056750" lon="10.2543770">
	<ele>775.40</ele>
	<time>2025-04-30T09:24:24.000Z</time>
</trkpt>
<trkpt lat="45.9056850" lon="10.2543790">
	<ele>775.40</ele>
	<time>2025-04-30T09:24:25.000Z</time>
</trkpt>
<trkpt lat="45.9057030" lon="10.2543820">
	<ele>775.20</ele>
	<time>2025-04-30T09:24:26.000Z</time>
</trkpt>
<trkpt lat="45.9057250" lon="10.2543890">
	<ele>775.20</ele>
	<time>2025-04-30T09:24:27.000Z</time>
</trkpt>
<trkpt lat="45.9057330" lon="10.2543970">
	<ele>775.00</ele>
	<time>2025-04-30T09:24:28.000Z</time>
</trkpt>
<trkpt lat="45.9057450" lon="10.2544090">
	<ele>775.00</ele>
	<time>2025-04-30T09:24:29.000Z</time>
</trkpt>
<trkpt lat="45.9057540" lon="10.2544230">
	<ele>775.00</ele>
	<time>2025-04-30T09:24:30.000Z</time>
</trkpt>
<trkpt lat="45.9057650" lon="10.2544410">
	<ele>774.80</ele>
	<time>2025-04-30T09:24:31.000Z</time>
</trkpt>
<trkpt lat="45.9057750" lon="10.2544560">
	<ele>774.80</ele>
	<time>2025-04-30T09:24:32.000Z</time>
</trkpt>
<trkpt lat="45.9057860" lon="10.2544700">
	<ele>774.40</ele>
	<time>2025-04-30T09:24:33.000Z</time>
</trkpt>
<trkpt lat="45.9058050" lon="10.2544670">
	<ele>774.20</ele>
	<time>2025-04-30T09:24:34.000Z</time>
</trkpt>
<trkpt lat="45.9058210" lon="10.2544750">
	<ele>773.80</ele>
	<time>2025-04-30T09:24:35.000Z</time>
</trkpt>
<trkpt lat="45.9058290" lon="10.2544890">
	<ele>773.60</ele>
	<time>2025-04-30T09:24:36.000Z</time>
</trkpt>
<trkpt lat="45.9058350" lon="10.2545010">
	<ele>773.00</ele>
	<time>2025-04-30T09:24:37.000Z</time>
</trkpt>
<trkpt lat="45.9058520" lon="10.2545180">
	<ele>772.40</ele>
	<time>2025-04-30T09:24:38.000Z</time>
</trkpt>
<trkpt lat="45.9058650" lon="10.2545270">
	<ele>772.00</ele>
	<time>2025-04-30T09:24:39.000Z</time>
</trkpt>
<trkpt lat="45.9058890" lon="10.2545420">
	<ele>771.60</ele>
	<time>2025-04-30T09:24:40.000Z</time>
</trkpt>
<trkpt lat="45.9058940" lon="10.2545600">
	<ele>771.20</ele>
	<time>2025-04-30T09:24:41.000Z</time>
</trkpt>
<trkpt lat="45.9059040" lon="10.2545790">
	<ele>771.00</ele>
	<time>2025-04-30T09:24:42.000Z</time>
</trkpt>
<trkpt lat="45.9059080" lon="10.2546010">
	<ele>770.80</ele>
	<time>2025-04-30T09:24:43.000Z</time>
</trkpt>
<trkpt lat="45.9059120" lon="10.2546240">
	<ele>770.40</ele>
	<time>2025-04-30T09:24:44.000Z</time>
</trkpt>
<trkpt lat="45.9059260" lon="10.2546440">
	<ele>770.20</ele>
	<time>2025-04-30T09:24:45.000Z</time>
</trkpt>
<trkpt lat="45.9059300" lon="10.2546550">
	<ele>770.00</ele>
	<time>2025-04-30T09:24:46.000Z</time>
</trkpt>
<trkpt lat="45.9059290" lon="10.2546690">
	<ele>769.60</ele>
	<time>2025-04-30T09:24:47.000Z</time>
</trkpt>
<trkpt lat="45.9059290" lon="10.2546890">
	<ele>769.40</ele>
	<time>2025-04-30T09:24:48.000Z</time>
</trkpt>
<trkpt lat="45.9059210" lon="10.2547130">
	<ele>769.00</ele>
	<time>2025-04-30T09:24:49.000Z</time>
</trkpt>
<trkpt lat="45.9059160" lon="10.2547430">
	<ele>768.40</ele>
	<time>2025-04-30T09:24:50.000Z</time>
</trkpt>
<trkpt lat="45.9059090" lon="10.2547630">
	<ele>768.20</ele>
	<time>2025-04-30T09:24:51.000Z</time>
</trkpt>
<trkpt lat="45.9059130" lon="10.2547840">
	<ele>767.80</ele>
	<time>2025-04-30T09:24:52.000Z</time>
</trkpt>
<trkpt lat="45.9059190" lon="10.2547900">
	<ele>767.40</ele>
	<time>2025-04-30T09:24:53.000Z</time>
</trkpt>
<trkpt lat="45.9059200" lon="10.2547990">
	<ele>766.80</ele>
	<time>2025-04-30T09:24:54.000Z</time>
</trkpt>
<trkpt lat="45.9059090" lon="10.2548100">
	<ele>766.20</ele>
	<time>2025-04-30T09:24:55.000Z</time>
</trkpt>
<trkpt lat="45.9059010" lon="10.2548280">
	<ele>765.80</ele>
	<time>2025-04-30T09:24:56.000Z</time>
</trkpt>
<trkpt lat="45.9058900" lon="10.2548510">
	<ele>765.20</ele>
	<time>2025-04-30T09:24:57.000Z</time>
</trkpt>
<trkpt lat="45.9058940" lon="10.2548670">
	<ele>764.80</ele>
	<time>2025-04-30T09:24:58.000Z</time>
</trkpt>
<trkpt lat="45.9058960" lon="10.2548740">
	<ele>764.40</ele>
	<time>2025-04-30T09:24:59.000Z</time>
</trkpt>
<trkpt lat="45.9058890" lon="10.2548890">
	<ele>763.80</ele>
	<time>2025-04-30T09:25:00.000Z</time>
</trkpt>
<trkpt lat="45.9058780" lon="10.2549090">
	<ele>763.40</ele>
	<time>2025-04-30T09:25:01.000Z</time>
</trkpt>
<trkpt lat="45.9058750" lon="10.2549110">
	<ele>763.20</ele>
	<time>2025-04-30T09:25:02.000Z</time>
</trkpt>
<trkpt lat="45.9058740" lon="10.2549140">
	<ele>763.20</ele>
	<time>2025-04-30T09:25:03.000Z</time>
</trkpt>
<trkpt lat="45.9058720" lon="10.2549160">
	<ele>763.00</ele>
	<time>2025-04-30T09:25:04.000Z</time>
</trkpt>
<trkpt lat="45.9058620" lon="10.2549410">
	<ele>762.60</ele>
	<time>2025-04-30T09:25:05.000Z</time>
</trkpt>
<trkpt lat="45.9058410" lon="10.2549650">
	<ele>762.40</ele>
	<time>2025-04-30T09:25:06.000Z</time>
</trkpt>
<trkpt lat="45.9058290" lon="10.2549830">
	<ele>762.20</ele>
	<time>2025-04-30T09:25:07.000Z</time>
</trkpt>
<trkpt lat="45.9058220" lon="10.2550010">
	<ele>761.80</ele>
	<time>2025-04-30T09:25:08.000Z</time>
</trkpt>
<trkpt lat="45.9058170" lon="10.2550160">
	<ele>761.40</ele>
	<time>2025-04-30T09:25:09.000Z</time>
</trkpt>
<trkpt lat="45.9058110" lon="10.2550270">
	<ele>761.00</ele>
	<time>2025-04-30T09:25:10.000Z</time>
</trkpt>
<trkpt lat="45.9058100" lon="10.2550340">
	<ele>760.80</ele>
	<time>2025-04-30T09:25:11.000Z</time>
</trkpt>
<trkpt lat="45.9058000" lon="10.2550450">
	<ele>760.60</ele>
	<time>2025-04-30T09:25:12.000Z</time>
</trkpt>
<trkpt lat="45.9057960" lon="10.2550540">
	<ele>760.20</ele>
	<time>2025-04-30T09:25:13.000Z</time>
</trkpt>
<trkpt lat="45.9057910" lon="10.2550610">
	<ele>760.00</ele>
	<time>2025-04-30T09:25:14.000Z</time>
</trkpt>
<trkpt lat="45.9057880" lon="10.2550770">
	<ele>759.80</ele>
	<time>2025-04-30T09:25:15.000Z</time>
</trkpt>
<trkpt lat="45.9057890" lon="10.2550990">
	<ele>759.40</ele>
	<time>2025-04-30T09:25:16.000Z</time>
</trkpt>
<trkpt lat="45.9057900" lon="10.2551240">
	<ele>759.20</ele>
	<time>2025-04-30T09:25:17.000Z</time>
</trkpt>
<trkpt lat="45.9057970" lon="10.2551540">
	<ele>758.80</ele>
	<time>2025-04-30T09:25:18.000Z</time>
</trkpt>
<trkpt lat="45.9057920" lon="10.2551790">
	<ele>758.60</ele>
	<time>2025-04-30T09:25:19.000Z</time>
</trkpt>
<trkpt lat="45.9057950" lon="10.2551900">
	<ele>758.60</ele>
	<time>2025-04-30T09:25:20.000Z</time>
</trkpt>
<trkpt lat="45.9057970" lon="10.2551910">
	<ele>758.20</ele>
	<time>2025-04-30T09:25:21.000Z</time>
</trkpt>
<trkpt lat="45.9057990" lon="10.2551930">
	<ele>758.00</ele>
	<time>2025-04-30T09:25:22.000Z</time>
</trkpt>
<trkpt lat="45.9058100" lon="10.2552060">
	<ele>757.40</ele>
	<time>2025-04-30T09:25:23.000Z</time>
</trkpt>
<trkpt lat="45.9058250" lon="10.2552160">
	<ele>757.00</ele>
	<time>2025-04-30T09:25:24.000Z</time>
</trkpt>
<trkpt lat="45.9058530" lon="10.2552260">
	<ele>756.60</ele>
	<time>2025-04-30T09:25:25.000Z</time>
</trkpt>
<trkpt lat="45.9058770" lon="10.2552350">
	<ele>756.40</ele>
	<time>2025-04-30T09:25:26.000Z</time>
</trkpt>
<trkpt lat="45.9059020" lon="10.2552470">
	<ele>756.00</ele>
	<time>2025-04-30T09:25:27.000Z</time>
</trkpt>
<trkpt lat="45.9059130" lon="10.2552560">
	<ele>755.80</ele>
	<time>2025-04-30T09:25:28.000Z</time>
</trkpt>
<trkpt lat="45.9059320" lon="10.2552580">
	<ele>755.60</ele>
	<time>2025-04-30T09:25:29.000Z</time>
</trkpt>
<trkpt lat="45.9059410" lon="10.2552630">
	<ele>755.40</ele>
	<time>2025-04-30T09:25:30.000Z</time>
</trkpt>
<trkpt lat="45.9059500" lon="10.2552690">
	<ele>755.00</ele>
	<time>2025-04-30T09:25:31.000Z</time>
</trkpt>
<trkpt lat="45.9059590" lon="10.2552760">
	<ele>754.60</ele>
	<time>2025-04-30T09:25:32.000Z</time>
</trkpt>
<trkpt lat="45.9059630" lon="10.2552690">
	<ele>754.20</ele>
	<time>2025-04-30T09:25:33.000Z</time>
</trkpt>
<trkpt lat="45.9059800" lon="10.2552600">
	<ele>753.80</ele>
	<time>2025-04-30T09:25:34.000Z</time>
</trkpt>
<trkpt lat="45.9060090" lon="10.2552520">
	<ele>753.60</ele>
	<time>2025-04-30T09:25:35.000Z</time>
</trkpt>
<trkpt lat="45.9060300" lon="10.2552520">
	<ele>753.20</ele>
	<time>2025-04-30T09:25:36.000Z</time>
</trkpt>
<trkpt lat="45.9060600" lon="10.2552460">
	<ele>753.00</ele>
	<time>2025-04-30T09:25:37.000Z</time>
</trkpt>
<trkpt lat="45.9060760" lon="10.2552380">
	<ele>752.80</ele>
	<time>2025-04-30T09:25:38.000Z</time>
</trkpt>
<trkpt lat="45.9060910" lon="10.2552320">
	<ele>752.60</ele>
	<time>2025-04-30T09:25:39.000Z</time>
</trkpt>
<trkpt lat="45.9060940" lon="10.2552240">
	<ele>752.40</ele>
	<time>2025-04-30T09:25:40.000Z</time>
</trkpt>
<trkpt lat="45.9061070" lon="10.2552120">
	<ele>752.20</ele>
	<time>2025-04-30T09:25:41.000Z</time>
</trkpt>
<trkpt lat="45.9061170" lon="10.2552020">
	<ele>751.80</ele>
	<time>2025-04-30T09:25:42.000Z</time>
</trkpt>
<trkpt lat="45.9061210" lon="10.2551900">
	<ele>751.40</ele>
	<time>2025-04-30T09:25:43.000Z</time>
</trkpt>
<trkpt lat="45.9061220" lon="10.2551620">
	<ele>751.20</ele>
	<time>2025-04-30T09:25:44.000Z</time>
</trkpt>
<trkpt lat="45.9061320" lon="10.2551390">
	<ele>751.00</ele>
	<time>2025-04-30T09:25:45.000Z</time>
</trkpt>
<trkpt lat="45.9061340" lon="10.2551260">
	<ele>750.60</ele>
	<time>2025-04-30T09:25:46.000Z</time>
</trkpt>
<trkpt lat="45.9061520" lon="10.2551170">
	<ele>750.20</ele>
	<time>2025-04-30T09:25:47.000Z</time>
</trkpt>
<trkpt lat="45.9061720" lon="10.2551090">
	<ele>750.00</ele>
	<time>2025-04-30T09:25:48.000Z</time>
</trkpt>
<trkpt lat="45.9061790" lon="10.2551230">
	<ele>749.60</ele>
	<time>2025-04-30T09:25:49.000Z</time>
</trkpt>
<trkpt lat="45.9061860" lon="10.2551220">
	<ele>749.40</ele>
	<time>2025-04-30T09:25:50.000Z</time>
</trkpt>
<trkpt lat="45.9061950" lon="10.2551050">
	<ele>749.00</ele>
	<time>2025-04-30T09:25:51.000Z</time>
</trkpt>
<trkpt lat="45.9062030" lon="10.2550900">
	<ele>748.60</ele>
	<time>2025-04-30T09:25:52.000Z</time>
</trkpt>
<trkpt lat="45.9062130" lon="10.2550700">
	<ele>748.20</ele>
	<time>2025-04-30T09:25:53.000Z</time>
</trkpt>
<trkpt lat="45.9062340" lon="10.2550500">
	<ele>747.80</ele>
	<time>2025-04-30T09:25:54.000Z</time>
</trkpt>
<trkpt lat="45.9062470" lon="10.2550270">
	<ele>747.60</ele>
	<time>2025-04-30T09:25:55.000Z</time>
</trkpt>
<trkpt lat="45.9062650" lon="10.2550030">
	<ele>747.40</ele>
	<time>2025-04-30T09:25:56.000Z</time>
</trkpt>
<trkpt lat="45.9062900" lon="10.2549930">
	<ele>747.00</ele>
	<time>2025-04-30T09:25:57.000Z</time>
</trkpt>
<trkpt lat="45.9063120" lon="10.2549790">
	<ele>746.60</ele>
	<time>2025-04-30T09:25:58.000Z</time>
</trkpt>
<trkpt lat="45.9063320" lon="10.2549680">
	<ele>746.20</ele>
	<time>2025-04-30T09:25:59.000Z</time>
</trkpt>
<trkpt lat="45.9063470" lon="10.2549590">
	<ele>745.80</ele>
	<time>2025-04-30T09:26:00.000Z</time>
</trkpt>
<trkpt lat="45.9063620" lon="10.2549520">
	<ele>745.40</ele>
	<time>2025-04-30T09:26:01.000Z</time>
</trkpt>
<trkpt lat="45.9063770" lon="10.2549440">
	<ele>745.00</ele>
	<time>2025-04-30T09:26:02.000Z</time>
</trkpt>
<trkpt lat="45.9064000" lon="10.2549330">
	<ele>744.60</ele>
	<time>2025-04-30T09:26:03.000Z</time>
</trkpt>
<trkpt lat="45.9064060" lon="10.2549380">
	<ele>744.20</ele>
	<time>2025-04-30T09:26:04.000Z</time>
</trkpt>
<trkpt lat="45.9064090" lon="10.2549510">
	<ele>744.00</ele>
	<time>2025-04-30T09:26:05.000Z</time>
</trkpt>
<trkpt lat="45.9064260" lon="10.2549610">
	<ele>743.60</ele>
	<time>2025-04-30T09:26:06.000Z</time>
</trkpt>
<trkpt lat="45.9064420" lon="10.2549600">
	<ele>743.20</ele>
	<time>2025-04-30T09:26:07.000Z</time>
</trkpt>
<trkpt lat="45.9064480" lon="10.2549700">
	<ele>742.60</ele>
	<time>2025-04-30T09:26:08.000Z</time>
</trkpt>
<trkpt lat="45.9064620" lon="10.2549800">
	<ele>742.40</ele>
	<time>2025-04-30T09:26:09.000Z</time>
</trkpt>
<trkpt lat="45.9064750" lon="10.2549860">
	<ele>742.00</ele>
	<time>2025-04-30T09:26:10.000Z</time>
</trkpt>
<trkpt lat="45.9064970" lon="10.2549870">
	<ele>741.60</ele>
	<time>2025-04-30T09:26:11.000Z</time>
</trkpt>
<trkpt lat="45.9065240" lon="10.2549820">
	<ele>741.00</ele>
	<time>2025-04-30T09:26:12.000Z</time>
</trkpt>
<trkpt lat="45.9065250" lon="10.2549940">
	<ele>740.60</ele>
	<time>2025-04-30T09:26:13.000Z</time>
</trkpt>
<trkpt lat="45.9065240" lon="10.2550100">
	<ele>740.20</ele>
	<time>2025-04-30T09:26:14.000Z</time>
</trkpt>
<trkpt lat="45.9065170" lon="10.2550230">
	<ele>739.60</ele>
	<time>2025-04-30T09:26:15.000Z</time>
</trkpt>
<trkpt lat="45.9065230" lon="10.2550390">
	<ele>739.40</ele>
	<time>2025-04-30T09:26:16.000Z</time>
</trkpt>
<trkpt lat="45.9065330" lon="10.2550550">
	<ele>738.80</ele>
	<time>2025-04-30T09:26:17.000Z</time>
</trkpt>
<trkpt lat="45.9065340" lon="10.2550690">
	<ele>738.40</ele>
	<time>2025-04-30T09:26:18.000Z</time>
</trkpt>
<trkpt lat="45.9065350" lon="10.2550830">
	<ele>737.80</ele>
	<time>2025-04-30T09:26:19.000Z</time>
</trkpt>
<trkpt lat="45.9065300" lon="10.2551050">
	<ele>737.60</ele>
	<time>2025-04-30T09:26:20.000Z</time>
</trkpt>
<trkpt lat="45.9065360" lon="10.2551240">
	<ele>737.20</ele>
	<time>2025-04-30T09:26:21.000Z</time>
</trkpt>
<trkpt lat="45.9065450" lon="10.2551360">
	<ele>736.60</ele>
	<time>2025-04-30T09:26:22.000Z</time>
</trkpt>
<trkpt lat="45.9065430" lon="10.2551530">
	<ele>736.20</ele>
	<time>2025-04-30T09:26:23.000Z</time>
</trkpt>
<trkpt lat="45.9065400" lon="10.2551650">
	<ele>735.60</ele>
	<time>2025-04-30T09:26:24.000Z</time>
</trkpt>
<trkpt lat="45.9065430" lon="10.2551640">
	<ele>735.20</ele>
	<time>2025-04-30T09:26:25.000Z</time>
</trkpt>
<trkpt lat="45.9065550" lon="10.2551640">
	<ele>734.80</ele>
	<time>2025-04-30T09:26:26.000Z</time>
</trkpt>
<trkpt lat="45.9065550" lon="10.2551790">
	<ele>734.40</ele>
	<time>2025-04-30T09:26:27.000Z</time>
</trkpt>
<trkpt lat="45.9065550" lon="10.2551880">
	<ele>733.80</ele>
	<time>2025-04-30T09:26:28.000Z</time>
</trkpt>
<trkpt lat="45.9065270" lon="10.2552030">
	<ele>733.40</ele>
	<time>2025-04-30T09:26:29.000Z</time>
</trkpt>
<trkpt lat="45.9065240" lon="10.2552040">
	<ele>733.00</ele>
	<time>2025-04-30T09:26:30.000Z</time>
</trkpt>
<trkpt lat="45.9065270" lon="10.2552020">
	<ele>732.60</ele>
	<time>2025-04-30T09:26:31.000Z</time>
</trkpt>
<trkpt lat="45.9065280" lon="10.2552140">
	<ele>732.20</ele>
	<time>2025-04-30T09:26:32.000Z</time>
</trkpt>
<trkpt lat="45.9065280" lon="10.2552230">
	<ele>731.80</ele>
	<time>2025-04-30T09:26:33.000Z</time>
</trkpt>
<trkpt lat="45.9065150" lon="10.2552400">
	<ele>731.40</ele>
	<time>2025-04-30T09:26:34.000Z</time>
</trkpt>
<trkpt lat="45.9065090" lon="10.2552480">
	<ele>731.20</ele>
	<time>2025-04-30T09:26:35.000Z</time>
</trkpt>
<trkpt lat="45.9065110" lon="10.2552600">
	<ele>730.80</ele>
	<time>2025-04-30T09:26:36.000Z</time>
</trkpt>
<trkpt lat="45.9065110" lon="10.2552790">
	<ele>730.40</ele>
	<time>2025-04-30T09:26:37.000Z</time>
</trkpt>
<trkpt lat="45.9065040" lon="10.2552900">
	<ele>730.00</ele>
	<time>2025-04-30T09:26:38.000Z</time>
</trkpt>
<trkpt lat="45.9064920" lon="10.2553010">
	<ele>729.80</ele>
	<time>2025-04-30T09:26:39.000Z</time>
</trkpt>
<trkpt lat="45.9064830" lon="10.2553160">
	<ele>729.60</ele>
	<time>2025-04-30T09:26:40.000Z</time>
</trkpt>
<trkpt lat="45.9064730" lon="10.2553320">
	<ele>729.40</ele>
	<time>2025-04-30T09:26:41.000Z</time>
</trkpt>
<trkpt lat="45.9064670" lon="10.2553520">
	<ele>729.20</ele>
	<time>2025-04-30T09:26:42.000Z</time>
</trkpt>
<trkpt lat="45.9064640" lon="10.2553680">
	<ele>729.00</ele>
	<time>2025-04-30T09:26:43.000Z</time>
</trkpt>
<trkpt lat="45.9064610" lon="10.2553790">
	<ele>728.80</ele>
	<time>2025-04-30T09:26:44.000Z</time>
</trkpt>
<trkpt lat="45.9064590" lon="10.2553900">
	<ele>728.40</ele>
	<time>2025-04-30T09:26:45.000Z</time>
</trkpt>
<trkpt lat="45.9064500" lon="10.2554050">
	<ele>728.20</ele>
	<time>2025-04-30T09:26:46.000Z</time>
</trkpt>
<trkpt lat="45.9064460" lon="10.2554160">
	<ele>727.80</ele>
	<time>2025-04-30T09:26:47.000Z</time>
</trkpt>
<trkpt lat="45.9064510" lon="10.2554290">
	<ele>727.80</ele>
	<time>2025-04-30T09:26:48.000Z</time>
</trkpt>
<trkpt lat="45.9064510" lon="10.2554430">
	<ele>727.40</ele>
	<time>2025-04-30T09:26:49.000Z</time>
</trkpt>
<trkpt lat="45.9064480" lon="10.2554520">
	<ele>727.20</ele>
	<time>2025-04-30T09:26:50.000Z</time>
</trkpt>
<trkpt lat="45.9064430" lon="10.2554660">
	<ele>727.00</ele>
	<time>2025-04-30T09:26:51.000Z</time>
</trkpt>
<trkpt lat="45.9064410" lon="10.2554730">
	<ele>726.80</ele>
	<time>2025-04-30T09:26:52.000Z</time>
</trkpt>
<trkpt lat="45.9064340" lon="10.2554820">
	<ele>726.40</ele>
	<time>2025-04-30T09:26:53.000Z</time>
</trkpt>
<trkpt lat="45.9064330" lon="10.2554860">
	<ele>726.00</ele>
	<time>2025-04-30T09:26:54.000Z</time>
</trkpt>
<trkpt lat="45.9064170" lon="10.2555130">
	<ele>725.80</ele>
	<time>2025-04-30T09:26:55.000Z</time>
</trkpt>
<trkpt lat="45.9063960" lon="10.2555430">
	<ele>725.60</ele>
	<time>2025-04-30T09:26:56.000Z</time>
</trkpt>
<trkpt lat="45.9063850" lon="10.2555570">
	<ele>725.20</ele>
	<time>2025-04-30T09:26:57.000Z</time>
</trkpt>
<trkpt lat="45.9063720" lon="10.2555750">
	<ele>724.80</ele>
	<time>2025-04-30T09:26:58.000Z</time>
</trkpt>
<trkpt lat="45.9063670" lon="10.2555920">
	<ele>724.60</ele>
	<time>2025-04-30T09:26:59.000Z</time>
</trkpt>
<trkpt lat="45.9063610" lon="10.2556020">
	<ele>724.20</ele>
	<time>2025-04-30T09:27:00.000Z</time>
</trkpt>
<trkpt lat="45.9063510" lon="10.2556160">
	<ele>723.80</ele>
	<time>2025-04-30T09:27:01.000Z</time>
</trkpt>
<trkpt lat="45.9063260" lon="10.2556300">
	<ele>723.40</ele>
	<time>2025-04-30T09:27:02.000Z</time>
</trkpt>
<trkpt lat="45.9063050" lon="10.2556370">
	<ele>723.20</ele>
	<time>2025-04-30T09:27:03.000Z</time>
</trkpt>
<trkpt lat="45.9062860" lon="10.2556520">
	<ele>722.80</ele>
	<time>2025-04-30T09:27:04.000Z</time>
</trkpt>
<trkpt lat="45.9062760" lon="10.2556650">
	<ele>722.60</ele>
	<time>2025-04-30T09:27:05.000Z</time>
</trkpt>
<trkpt lat="45.9062620" lon="10.2556810">
	<ele>722.20</ele>
	<time>2025-04-30T09:27:06.000Z</time>
</trkpt>
<trkpt lat="45.9062590" lon="10.2556960">
	<ele>721.80</ele>
	<time>2025-04-30T09:27:07.000Z</time>
</trkpt>
<trkpt lat="45.9062560" lon="10.2557150">
	<ele>721.40</ele>
	<time>2025-04-30T09:27:08.000Z</time>
</trkpt>
<trkpt lat="45.9062500" lon="10.2557260">
	<ele>721.20</ele>
	<time>2025-04-30T09:27:09.000Z</time>
</trkpt>
<trkpt lat="45.9062530" lon="10.2557250">
	<ele>721.00</ele>
	<time>2025-04-30T09:27:10.000Z</time>
</trkpt>
<trkpt lat="45.9062510" lon="10.2557300">
	<ele>720.60</ele>
	<time>2025-04-30T09:27:11.000Z</time>
</trkpt>
<trkpt lat="45.9062620" lon="10.2557360">
	<ele>720.20</ele>
	<time>2025-04-30T09:27:12.000Z</time>
</trkpt>
<trkpt lat="45.9062710" lon="10.2557500">
	<ele>720.00</ele>
	<time>2025-04-30T09:27:13.000Z</time>
</trkpt>
<trkpt lat="45.9062810" lon="10.2557640">
	<ele>719.80</ele>
	<time>2025-04-30T09:27:14.000Z</time>
</trkpt>
<trkpt lat="45.9062730" lon="10.2557890">
	<ele>719.40</ele>
	<time>2025-04-30T09:27:15.000Z</time>
</trkpt>
<trkpt lat="45.9062710" lon="10.2558130">
	<ele>719.00</ele>
	<time>2025-04-30T09:27:16.000Z</time>
</trkpt>
<trkpt lat="45.9062600" lon="10.2558400">
	<ele>718.80</ele>
	<time>2025-04-30T09:27:17.000Z</time>
</trkpt>
<trkpt lat="45.9062480" lon="10.2558590">
	<ele>718.80</ele>
	<time>2025-04-30T09:27:18.000Z</time>
</trkpt>
<trkpt lat="45.9062400" lon="10.2558730">
	<ele>718.60</ele>
	<time>2025-04-30T09:27:19.000Z</time>
</trkpt>
<trkpt lat="45.9062260" lon="10.2558770">
	<ele>718.60</ele>
	<time>2025-04-30T09:27:20.000Z</time>
</trkpt>
<trkpt lat="45.9062220" lon="10.2558790">
	<ele>718.60</ele>
	<time>2025-04-30T09:27:21.000Z</time>
</trkpt>
<trkpt lat="45.9062200" lon="10.2558820">
	<ele>718.60</ele>
	<time>2025-04-30T09:27:22.000Z</time>
</trkpt>
<trkpt lat="45.9062190" lon="10.2558880">
	<ele>718.60</ele>
	<time>2025-04-30T09:27:23.000Z</time>
</trkpt>
<trkpt lat="45.9062120" lon="10.2558950">
	<ele>718.60</ele>
	<time>2025-04-30T09:27:24.000Z</time>
</trkpt>
<trkpt lat="45.9062130" lon="10.2558960">
	<ele>718.80</ele>
	<time>2025-04-30T09:27:25.000Z</time>
</trkpt>
<trkpt lat="45.9062120" lon="10.2558990">
	<ele>718.80</ele>
	<time>2025-04-30T09:27:26.000Z</time>
</trkpt>
<trkpt lat="45.9062130" lon="10.2558960">
	<ele>718.80</ele>
	<time>2025-04-30T09:27:27.000Z</time>
</trkpt>
<trkpt lat="45.9062190" lon="10.2558900">
	<ele>718.80</ele>
	<time>2025-04-30T09:27:28.000Z</time>
</trkpt>
<trkpt lat="45.9062270" lon="10.2558840">
	<ele>718.80</ele>
	<time>2025-04-30T09:27:29.000Z</time>
</trkpt>
<trkpt lat="45.9062340" lon="10.2558780">
	<ele>718.80</ele>
	<time>2025-04-30T09:27:30.000Z</time>
</trkpt>
<trkpt lat="45.9062390" lon="10.2558680">
	<ele>718.80</ele>
	<time>2025-04-30T09:27:31.000Z</time>
</trkpt>
<trkpt lat="45.9062440" lon="10.2558720">
	<ele>718.80</ele>
	<time>2025-04-30T09:27:32.000Z</time>
</trkpt>
<trkpt lat="45.9062480" lon="10.2558740">
	<ele>718.80</ele>
	<time>2025-04-30T09:27:33.000Z</time>
</trkpt>
<trkpt lat="45.9062590" lon="10.2558870">
	<ele>718.60</ele>
	<time>2025-04-30T09:27:34.000Z</time>
</trkpt>
<trkpt lat="45.9062690" lon="10.2558990">
	<ele>718.60</ele>
	<time>2025-04-30T09:27:35.000Z</time>
</trkpt>
<trkpt lat="45.9062720" lon="10.2559060">
	<ele>718.60</ele>
	<time>2025-04-30T09:27:36.000Z</time>
</trkpt>
<trkpt lat="45.9062700" lon="10.2559090">
	<ele>718.60</ele>
	<time>2025-04-30T09:27:37.000Z</time>
</trkpt>
<trkpt lat="45.9062800" lon="10.2559120">
	<ele>718.60</ele>
	<time>2025-04-30T09:27:38.000Z</time>
</trkpt>
<trkpt lat="45.9062940" lon="10.2559100">
	<ele>718.80</ele>
	<time>2025-04-30T09:27:39.000Z</time>
</trkpt>
<trkpt lat="45.9063040" lon="10.2559060">
	<ele>718.80</ele>
	<time>2025-04-30T09:27:40.000Z</time>
</trkpt>
<trkpt lat="45.9063080" lon="10.2559060">
	<ele>718.80</ele>
	<time>2025-04-30T09:27:41.000Z</time>
</trkpt>
<trkpt lat="45.9063170" lon="10.2559100">
	<ele>718.80</ele>
	<time>2025-04-30T09:27:42.000Z</time>
</trkpt>
<trkpt lat="45.9063190" lon="10.2559130">
	<ele>718.80</ele>
	<time>2025-04-30T09:27:43.000Z</time>
</trkpt>
<trkpt lat="45.9063320" lon="10.2559110">
	<ele>718.80</ele>
	<time>2025-04-30T09:27:44.000Z</time>
</trkpt>
<trkpt lat="45.9063370" lon="10.2559110">
	<ele>718.80</ele>
	<time>2025-04-30T09:27:45.000Z</time>
</trkpt>
<trkpt lat="45.9063380" lon="10.2559140">
	<ele>718.80</ele>
	<time>2025-04-30T09:27:46.000Z</time>
</trkpt>
<trkpt lat="45.9063400" lon="10.2559110">
	<ele>719.00</ele>
	<time>2025-04-30T09:27:47.000Z</time>
</trkpt>
<trkpt lat="45.9063370" lon="10.2559160">
	<ele>719.00</ele>
	<time>2025-04-30T09:27:48.000Z</time>
</trkpt>
<trkpt lat="45.9063380" lon="10.2559170">
	<ele>719.00</ele>
	<time>2025-04-30T09:27:49.000Z</time>
</trkpt>
<trkpt lat="45.9063380" lon="10.2559170">
	<ele>719.00</ele>
	<time>2025-04-30T09:27:50.000Z</time>
</trkpt>
<trkpt lat="45.9063410" lon="10.2559140">
	<ele>719.00</ele>
	<time>2025-04-30T09:27:51.000Z</time>
</trkpt>
<trkpt lat="45.9063420" lon="10.2559110">
	<ele>719.00</ele>
	<time>2025-04-30T09:27:52.000Z</time>
</trkpt>
<trkpt lat="45.9063220" lon="10.2559040">
	<ele>719.00</ele>
	<time>2025-04-30T09:27:53.000Z</time>
</trkpt>
<trkpt lat="45.9062990" lon="10.2558970">
	<ele>719.00</ele>
	<time>2025-04-30T09:27:54.000Z</time>
</trkpt>
<trkpt lat="45.9062900" lon="10.2558920">
	<ele>719.00</ele>
	<time>2025-04-30T09:27:55.000Z</time>
</trkpt>
<trkpt lat="45.9062920" lon="10.2558930">
	<ele>718.60</ele>
	<time>2025-04-30T09:27:56.000Z</time>
</trkpt>
<trkpt lat="45.9062860" lon="10.2558850">
	<ele>718.60</ele>
	<time>2025-04-30T09:27:57.000Z</time>
</trkpt>
<trkpt lat="45.9062870" lon="10.2558860">
	<ele>718.40</ele>
	<time>2025-04-30T09:27:58.000Z</time>
</trkpt>
<trkpt lat="45.9062880" lon="10.2558850">
	<ele>718.40</ele>
	<time>2025-04-30T09:27:59.000Z</time>
</trkpt>
<trkpt lat="45.9062900" lon="10.2558840">
	<ele>718.40</ele>
	<time>2025-04-30T09:28:00.000Z</time>
</trkpt>
<trkpt lat="45.9062920" lon="10.2558820">
	<ele>718.40</ele>
	<time>2025-04-30T09:28:01.000Z</time>
</trkpt>
<trkpt lat="45.9063040" lon="10.2558770">
	<ele>718.40</ele>
	<time>2025-04-30T09:28:02.000Z</time>
</trkpt>
<trkpt lat="45.9063100" lon="10.2558730">
	<ele>718.60</ele>
	<time>2025-04-30T09:28:03.000Z</time>
</trkpt>
<trkpt lat="45.9063100" lon="10.2558730">
	<ele>718.60</ele>
	<time>2025-04-30T09:28:04.000Z</time>
</trkpt>
<trkpt lat="45.9063080" lon="10.2558750">
	<ele>718.40</ele>
	<time>2025-04-30T09:28:05.000Z</time>
</trkpt>
<trkpt lat="45.9063000" lon="10.2558790">
	<ele>718.20</ele>
	<time>2025-04-30T09:28:06.000Z</time>
</trkpt>
<trkpt lat="45.9063010" lon="10.2558780">
	<ele>718.00</ele>
	<time>2025-04-30T09:28:07.000Z</time>
</trkpt>
<trkpt lat="45.9062990" lon="10.2558790">
	<ele>718.00</ele>
	<time>2025-04-30T09:28:08.000Z</time>
</trkpt>
<trkpt lat="45.9063000" lon="10.2558800">
	<ele>718.00</ele>
	<time>2025-04-30T09:28:09.000Z</time>
</trkpt>
<trkpt lat="45.9063060" lon="10.2558760">
	<ele>718.00</ele>
	<time>2025-04-30T09:28:10.000Z</time>
</trkpt>
<trkpt lat="45.9063400" lon="10.2558690">
	<ele>717.80</ele>
	<time>2025-04-30T09:28:11.000Z</time>
</trkpt>
<trkpt lat="45.9063490" lon="10.2558710">
	<ele>717.40</ele>
	<time>2025-04-30T09:28:12.000Z</time>
</trkpt>
<trkpt lat="45.9063560" lon="10.2558730">
	<ele>717.00</ele>
	<time>2025-04-30T09:28:13.000Z</time>
</trkpt>
<trkpt lat="45.9063610" lon="10.2558730">
	<ele>716.80</ele>
	<time>2025-04-30T09:28:14.000Z</time>
</trkpt>
<trkpt lat="45.9063790" lon="10.2558730">
	<ele>716.40</ele>
	<time>2025-04-30T09:28:15.000Z</time>
</trkpt>
<trkpt lat="45.9063930" lon="10.2558690">
	<ele>716.00</ele>
	<time>2025-04-30T09:28:16.000Z</time>
</trkpt>
<trkpt lat="45.9064020" lon="10.2558670">
	<ele>715.40</ele>
	<time>2025-04-30T09:28:17.000Z</time>
</trkpt>
<trkpt lat="45.9064150" lon="10.2558660">
	<ele>714.80</ele>
	<time>2025-04-30T09:28:18.000Z</time>
</trkpt>
<trkpt lat="45.9064300" lon="10.2558620">
	<ele>714.40</ele>
	<time>2025-04-30T09:28:19.000Z</time>
</trkpt>
<trkpt lat="45.9064520" lon="10.2558560">
	<ele>714.00</ele>
	<time>2025-04-30T09:28:20.000Z</time>
</trkpt>
<trkpt lat="45.9064690" lon="10.2558500">
	<ele>714.00</ele>
	<time>2025-04-30T09:28:21.000Z</time>
</trkpt>
<trkpt lat="45.9064770" lon="10.2558420">
	<ele>713.80</ele>
	<time>2025-04-30T09:28:22.000Z</time>
</trkpt>
<trkpt lat="45.9064900" lon="10.2558390">
	<ele>713.40</ele>
	<time>2025-04-30T09:28:23.000Z</time>
</trkpt>
<trkpt lat="45.9065090" lon="10.2558360">
	<ele>713.20</ele>
	<time>2025-04-30T09:28:24.000Z</time>
</trkpt>
<trkpt lat="45.9065220" lon="10.2558280">
	<ele>713.00</ele>
	<time>2025-04-30T09:28:25.000Z</time>
</trkpt>
<trkpt lat="45.9065340" lon="10.2558190">
	<ele>712.60</ele>
	<time>2025-04-30T09:28:26.000Z</time>
</trkpt>
<trkpt lat="45.9065440" lon="10.2558130">
	<ele>712.20</ele>
	<time>2025-04-30T09:28:27.000Z</time>
</trkpt>
<trkpt lat="45.9065500" lon="10.2558110">
	<ele>712.00</ele>
	<time>2025-04-30T09:28:28.000Z</time>
</trkpt>
<trkpt lat="45.9065560" lon="10.2558030">
	<ele>711.60</ele>
	<time>2025-04-30T09:28:29.000Z</time>
</trkpt>
<trkpt lat="45.9065580" lon="10.2557960">
	<ele>711.40</ele>
	<time>2025-04-30T09:28:30.000Z</time>
</trkpt>
<trkpt lat="45.9065640" lon="10.2557920">
	<ele>711.00</ele>
	<time>2025-04-30T09:28:31.000Z</time>
</trkpt>
<trkpt lat="45.9065740" lon="10.2557900">
	<ele>710.80</ele>
	<time>2025-04-30T09:28:32.000Z</time>
</trkpt>
<trkpt lat="45.9065780" lon="10.2557890">
	<ele>710.40</ele>
	<time>2025-04-30T09:28:33.000Z</time>
</trkpt>
<trkpt lat="45.9065870" lon="10.2557900">
	<ele>710.20</ele>
	<time>2025-04-30T09:28:34.000Z</time>
</trkpt>
<trkpt lat="45.9065940" lon="10.2557900">
	<ele>709.80</ele>
	<time>2025-04-30T09:28:35.000Z</time>
</trkpt>
<trkpt lat="45.9065990" lon="10.2557870">
	<ele>709.60</ele>
	<time>2025-04-30T09:28:36.000Z</time>
</trkpt>
<trkpt lat="45.9066060" lon="10.2557840">
	<ele>709.20</ele>
	<time>2025-04-30T09:28:37.000Z</time>
</trkpt>
<trkpt lat="45.9065990" lon="10.2557940">
	<ele>708.80</ele>
	<time>2025-04-30T09:28:38.000Z</time>
</trkpt>
<trkpt lat="45.9065990" lon="10.2558030">
	<ele>708.40</ele>
	<time>2025-04-30T09:28:39.000Z</time>
</trkpt>
<trkpt lat="45.9066090" lon="10.2558060">
	<ele>708.20</ele>
	<time>2025-04-30T09:28:40.000Z</time>
</trkpt>
<trkpt lat="45.9066250" lon="10.2557970">
	<ele>708.00</ele>
	<time>2025-04-30T09:28:41.000Z</time>
</trkpt>
<trkpt lat="45.9066490" lon="10.2557840">
	<ele>707.80</ele>
	<time>2025-04-30T09:28:42.000Z</time>
</trkpt>
<trkpt lat="45.9066690" lon="10.2557700">
	<ele>707.60</ele>
	<time>2025-04-30T09:28:43.000Z</time>
</trkpt>
<trkpt lat="45.9066740" lon="10.2557590">
	<ele>707.00</ele>
	<time>2025-04-30T09:28:44.000Z</time>
</trkpt>
<trkpt lat="45.9066740" lon="10.2557610">
	<ele>706.80</ele>
	<time>2025-04-30T09:28:45.000Z</time>
</trkpt>
<trkpt lat="45.9066740" lon="10.2557640">
	<ele>706.60</ele>
	<time>2025-04-30T09:28:46.000Z</time>
</trkpt>
<trkpt lat="45.9066980" lon="10.2557500">
	<ele>706.20</ele>
	<time>2025-04-30T09:28:47.000Z</time>
</trkpt>
<trkpt lat="45.9067220" lon="10.2557330">
	<ele>706.00</ele>
	<time>2025-04-30T09:28:48.000Z</time>
</trkpt>
<trkpt lat="45.9067410" lon="10.2557210">
	<ele>705.60</ele>
	<time>2025-04-30T09:28:49.000Z</time>
</trkpt>
<trkpt lat="45.9067620" lon="10.2557120">
	<ele>705.20</ele>
	<time>2025-04-30T09:28:50.000Z</time>
</trkpt>
<trkpt lat="45.9067900" lon="10.2556990">
	<ele>704.80</ele>
	<time>2025-04-30T09:28:51.000Z</time>
</trkpt>
<trkpt lat="45.9068030" lon="10.2556930">
	<ele>704.40</ele>
	<time>2025-04-30T09:28:52.000Z</time>
</trkpt>
<trkpt lat="45.9068210" lon="10.2556880">
	<ele>704.20</ele>
	<time>2025-04-30T09:28:53.000Z</time>
</trkpt>
<trkpt lat="45.9068280" lon="10.2556870">
	<ele>703.60</ele>
	<time>2025-04-30T09:28:54.000Z</time>
</trkpt>
<trkpt lat="45.9068390" lon="10.2556870">
	<ele>703.20</ele>
	<time>2025-04-30T09:28:55.000Z</time>
</trkpt>
<trkpt lat="45.9068510" lon="10.2556870">
	<ele>703.00</ele>
	<time>2025-04-30T09:28:56.000Z</time>
</trkpt>
<trkpt lat="45.9068640" lon="10.2556860">
	<ele>702.60</ele>
	<time>2025-04-30T09:28:57.000Z</time>
</trkpt>
<trkpt lat="45.9068730" lon="10.2556780">
	<ele>702.00</ele>
	<time>2025-04-30T09:28:58.000Z</time>
</trkpt>
<trkpt lat="45.9068880" lon="10.2556770">
	<ele>701.80</ele>
	<time>2025-04-30T09:28:59.000Z</time>
</trkpt>
<trkpt lat="45.9068990" lon="10.2556730">
	<ele>701.60</ele>
	<time>2025-04-30T09:29:00.000Z</time>
</trkpt>
<trkpt lat="45.9069110" lon="10.2556730">
	<ele>701.20</ele>
	<time>2025-04-30T09:29:01.000Z</time>
</trkpt>
<trkpt lat="45.9069170" lon="10.2556770">
	<ele>701.00</ele>
	<time>2025-04-30T09:29:02.000Z</time>
</trkpt>
<trkpt lat="45.9069270" lon="10.2556880">
	<ele>700.60</ele>
	<time>2025-04-30T09:29:03.000Z</time>
</trkpt>
<trkpt lat="45.9069360" lon="10.2556950">
	<ele>700.40</ele>
	<time>2025-04-30T09:29:04.000Z</time>
</trkpt>
<trkpt lat="45.9069400" lon="10.2557010">
	<ele>700.00</ele>
	<time>2025-04-30T09:29:05.000Z</time>
</trkpt>
<trkpt lat="45.9069440" lon="10.2557070">
	<ele>699.60</ele>
	<time>2025-04-30T09:29:06.000Z</time>
</trkpt>
<trkpt lat="45.9069500" lon="10.2557060">
	<ele>699.20</ele>
	<time>2025-04-30T09:29:07.000Z</time>
</trkpt>
<trkpt lat="45.9069560" lon="10.2557040">
	<ele>699.00</ele>
	<time>2025-04-30T09:29:08.000Z</time>
</trkpt>
<trkpt lat="45.9069670" lon="10.2557050">
	<ele>698.80</ele>
	<time>2025-04-30T09:29:09.000Z</time>
</trkpt>
<trkpt lat="45.9069850" lon="10.2557060">
	<ele>698.60</ele>
	<time>2025-04-30T09:29:10.000Z</time>
</trkpt>
<trkpt lat="45.9070040" lon="10.2557080">
	<ele>698.20</ele>
	<time>2025-04-30T09:29:11.000Z</time>
</trkpt>
<trkpt lat="45.9070250" lon="10.2557120">
	<ele>697.60</ele>
	<time>2025-04-30T09:29:12.000Z</time>
</trkpt>
<trkpt lat="45.9070350" lon="10.2557140">
	<ele>697.20</ele>
	<time>2025-04-30T09:29:13.000Z</time>
</trkpt>
<trkpt lat="45.9070430" lon="10.2557250">
	<ele>697.00</ele>
	<time>2025-04-30T09:29:14.000Z</time>
</trkpt>
<trkpt lat="45.9070510" lon="10.2557350">
	<ele>696.80</ele>
	<time>2025-04-30T09:29:15.000Z</time>
</trkpt>
<trkpt lat="45.9070620" lon="10.2557460">
	<ele>696.40</ele>
	<time>2025-04-30T09:29:16.000Z</time>
</trkpt>
<trkpt lat="45.9070680" lon="10.2557600">
	<ele>695.80</ele>
	<time>2025-04-30T09:29:17.000Z</time>
</trkpt>
<trkpt lat="45.9070780" lon="10.2557700">
	<ele>695.40</ele>
	<time>2025-04-30T09:29:18.000Z</time>
</trkpt>
<trkpt lat="45.9071010" lon="10.2557750">
	<ele>695.20</ele>
	<time>2025-04-30T09:29:19.000Z</time>
</trkpt>
<trkpt lat="45.9071200" lon="10.2557830">
	<ele>694.80</ele>
	<time>2025-04-30T09:29:20.000Z</time>
</trkpt>
<trkpt lat="45.9071400" lon="10.2557840">
	<ele>694.40</ele>
	<time>2025-04-30T09:29:21.000Z</time>
</trkpt>
<trkpt lat="45.9071580" lon="10.2557960">
	<ele>694.00</ele>
	<time>2025-04-30T09:29:22.000Z</time>
</trkpt>
<trkpt lat="45.9071710" lon="10.2558060">
	<ele>693.60</ele>
	<time>2025-04-30T09:29:23.000Z</time>
</trkpt>
<trkpt lat="45.9071830" lon="10.2558160">
	<ele>693.20</ele>
	<time>2025-04-30T09:29:24.000Z</time>
</trkpt>
<trkpt lat="45.9071990" lon="10.2558210">
	<ele>693.00</ele>
	<time>2025-04-30T09:29:25.000Z</time>
</trkpt>
<trkpt lat="45.9072120" lon="10.2558300">
	<ele>692.40</ele>
	<time>2025-04-30T09:29:26.000Z</time>
</trkpt>
<trkpt lat="45.9072190" lon="10.2558440">
	<ele>692.00</ele>
	<time>2025-04-30T09:29:27.000Z</time>
</trkpt>
<trkpt lat="45.9072290" lon="10.2558570">
	<ele>691.60</ele>
	<time>2025-04-30T09:29:28.000Z</time>
</trkpt>
<trkpt lat="45.9072500" lon="10.2558540">
	<ele>691.40</ele>
	<time>2025-04-30T09:29:29.000Z</time>
</trkpt>
<trkpt lat="45.9072700" lon="10.2558450">
	<ele>691.00</ele>
	<time>2025-04-30T09:29:30.000Z</time>
</trkpt>
<trkpt lat="45.9072910" lon="10.2558350">
	<ele>690.40</ele>
	<time>2025-04-30T09:29:31.000Z</time>
</trkpt>
<trkpt lat="45.9073150" lon="10.2558180">
	<ele>690.00</ele>
	<time>2025-04-30T09:29:32.000Z</time>
</trkpt>
<trkpt lat="45.9073380" lon="10.2557980">
	<ele>689.60</ele>
	<time>2025-04-30T09:29:33.000Z</time>
</trkpt>
<trkpt lat="45.9073610" lon="10.2557850">
	<ele>689.40</ele>
	<time>2025-04-30T09:29:34.000Z</time>
</trkpt>
<trkpt lat="45.9073810" lon="10.2557780">
	<ele>689.20</ele>
	<time>2025-04-30T09:29:35.000Z</time>
</trkpt>
<trkpt lat="45.9073950" lon="10.2557750">
	<ele>689.00</ele>
	<time>2025-04-30T09:29:36.000Z</time>
</trkpt>
<trkpt lat="45.9074010" lon="10.2557670">
	<ele>689.00</ele>
	<time>2025-04-30T09:29:37.000Z</time>
</trkpt>
<trkpt lat="45.9074140" lon="10.2557580">
	<ele>689.00</ele>
	<time>2025-04-30T09:29:38.000Z</time>
</trkpt>
<trkpt lat="45.9074140" lon="10.2557620">
	<ele>688.80</ele>
	<time>2025-04-30T09:29:39.000Z</time>
</trkpt>
<trkpt lat="45.9074140" lon="10.2557660">
	<ele>688.40</ele>
	<time>2025-04-30T09:29:40.000Z</time>
</trkpt>
<trkpt lat="45.9074200" lon="10.2557660">
	<ele>688.00</ele>
	<time>2025-04-30T09:29:41.000Z</time>
</trkpt>
<trkpt lat="45.9074170" lon="10.2557700">
	<ele>687.80</ele>
	<time>2025-04-30T09:29:42.000Z</time>
</trkpt>
<trkpt lat="45.9074220" lon="10.2557690">
	<ele>687.40</ele>
	<time>2025-04-30T09:29:43.000Z</time>
</trkpt>
<trkpt lat="45.9074310" lon="10.2557610">
	<ele>687.20</ele>
	<time>2025-04-30T09:29:44.000Z</time>
</trkpt>
<trkpt lat="45.9074160" lon="10.2557640">
	<ele>687.00</ele>
	<time>2025-04-30T09:29:45.000Z</time>
</trkpt>
<trkpt lat="45.9074230" lon="10.2557610">
	<ele>686.60</ele>
	<time>2025-04-30T09:29:46.000Z</time>
</trkpt>
<trkpt lat="45.9074190" lon="10.2557810">
	<ele>686.20</ele>
	<time>2025-04-30T09:29:47.000Z</time>
</trkpt>
<trkpt lat="45.9074130" lon="10.2558030">
	<ele>686.00</ele>
	<time>2025-04-30T09:29:48.000Z</time>
</trkpt>
<trkpt lat="45.9074140" lon="10.2558120">
	<ele>685.60</ele>
	<time>2025-04-30T09:29:49.000Z</time>
</trkpt>
<trkpt lat="45.9074200" lon="10.2558160">
	<ele>685.40</ele>
	<time>2025-04-30T09:29:50.000Z</time>
</trkpt>
<trkpt lat="45.9074180" lon="10.2558200">
	<ele>685.20</ele>
	<time>2025-04-30T09:29:51.000Z</time>
</trkpt>
<trkpt lat="45.9074210" lon="10.2558260">
	<ele>685.00</ele>
	<time>2025-04-30T09:29:52.000Z</time>
</trkpt>
<trkpt lat="45.9074270" lon="10.2558360">
	<ele>684.80</ele>
	<time>2025-04-30T09:29:53.000Z</time>
</trkpt>
<trkpt lat="45.9074310" lon="10.2558460">
	<ele>684.60</ele>
	<time>2025-04-30T09:29:54.000Z</time>
</trkpt>
<trkpt lat="45.9074300" lon="10.2558510">
	<ele>684.40</ele>
	<time>2025-04-30T09:29:55.000Z</time>
</trkpt>
<trkpt lat="45.9074180" lon="10.2558560">
	<ele>684.20</ele>
	<time>2025-04-30T09:29:56.000Z</time>
</trkpt>
<trkpt lat="45.9074100" lon="10.2558600">
	<ele>684.20</ele>
	<time>2025-04-30T09:29:57.000Z</time>
</trkpt>
<trkpt lat="45.9074130" lon="10.2558670">
	<ele>684.00</ele>
	<time>2025-04-30T09:29:58.000Z</time>
</trkpt>
<trkpt lat="45.9074220" lon="10.2558700">
	<ele>684.00</ele>
	<time>2025-04-30T09:29:59.000Z</time>
</trkpt>
<trkpt lat="45.9074240" lon="10.2558850">
	<ele>683.80</ele>
	<time>2025-04-30T09:30:00.000Z</time>
</trkpt>
<trkpt lat="45.9073990" lon="10.2559070">
	<ele>683.80</ele>
	<time>2025-04-30T09:30:01.000Z</time>
</trkpt>
<trkpt lat="45.9073940" lon="10.2559160">
	<ele>683.80</ele>
	<time>2025-04-30T09:30:02.000Z</time>
</trkpt>
<trkpt lat="45.9073950" lon="10.2559210">
	<ele>683.80</ele>
	<time>2025-04-30T09:30:03.000Z</time>
</trkpt>
<trkpt lat="45.9074030" lon="10.2559220">
	<ele>683.80</ele>
	<time>2025-04-30T09:30:04.000Z</time>
</trkpt>
<trkpt lat="45.9074160" lon="10.2559280">
	<ele>683.60</ele>
	<time>2025-04-30T09:30:05.000Z</time>
</trkpt>
<trkpt lat="45.9074260" lon="10.2559360">
	<ele>683.40</ele>
	<time>2025-04-30T09:30:06.000Z</time>
</trkpt>
<trkpt lat="45.9074370" lon="10.2559430">
	<ele>683.40</ele>
	<time>2025-04-30T09:30:07.000Z</time>
</trkpt>
<trkpt lat="45.9074510" lon="10.2559440">
	<ele>683.20</ele>
	<time>2025-04-30T09:30:08.000Z</time>
</trkpt>
<trkpt lat="45.9074690" lon="10.2559400">
	<ele>683.20</ele>
	<time>2025-04-30T09:30:09.000Z</time>
</trkpt>
<trkpt lat="45.9074880" lon="10.2559370">
	<ele>683.20</ele>
	<time>2025-04-30T09:30:10.000Z</time>
</trkpt>
<trkpt lat="45.9075060" lon="10.2559310">
	<ele>683.00</ele>
	<time>2025-04-30T09:30:11.000Z</time>
</trkpt>
<trkpt lat="45.9075260" lon="10.2559340">
	<ele>682.40</ele>
	<time>2025-04-30T09:30:12.000Z</time>
</trkpt>
<trkpt lat="45.9075470" lon="10.2559340">
	<ele>682.00</ele>
	<time>2025-04-30T09:30:13.000Z</time>
</trkpt>
<trkpt lat="45.9075770" lon="10.2559280">
	<ele>681.80</ele>
	<time>2025-04-30T09:30:14.000Z</time>
</trkpt>
<trkpt lat="45.9076120" lon="10.2559210">
	<ele>681.60</ele>
	<time>2025-04-30T09:30:15.000Z</time>
</trkpt>
<trkpt lat="45.9076480" lon="10.2559160">
	<ele>681.20</ele>
	<time>2025-04-30T09:30:16.000Z</time>
</trkpt>
<trkpt lat="45.9076750" lon="10.2559100">
	<ele>681.00</ele>
	<time>2025-04-30T09:30:17.000Z</time>
</trkpt>
<trkpt lat="45.9076960" lon="10.2559120">
	<ele>680.60</ele>
	<time>2025-04-30T09:30:18.000Z</time>
</trkpt>
<trkpt lat="45.9077260" lon="10.2559120">
	<ele>680.20</ele>
	<time>2025-04-30T09:30:19.000Z</time>
</trkpt>
<trkpt lat="45.9077580" lon="10.2559080">
	<ele>680.00</ele>
	<time>2025-04-30T09:30:20.000Z</time>
</trkpt>
<trkpt lat="45.9077830" lon="10.2559040">
	<ele>679.80</ele>
	<time>2025-04-30T09:30:21.000Z</time>
</trkpt>
<trkpt lat="45.9077950" lon="10.2559000">
	<ele>679.60</ele>
	<time>2025-04-30T09:30:22.000Z</time>
</trkpt>
<trkpt lat="45.9078040" lon="10.2558960">
	<ele>679.40</ele>
	<time>2025-04-30T09:30:23.000Z</time>
</trkpt>
<trkpt lat="45.9078130" lon="10.2558930">
	<ele>679.20</ele>
	<time>2025-04-30T09:30:24.000Z</time>
</trkpt>
<trkpt lat="45.9078290" lon="10.2558810">
	<ele>679.00</ele>
	<time>2025-04-30T09:30:25.000Z</time>
</trkpt>
<trkpt lat="45.9078400" lon="10.2558770">
	<ele>678.80</ele>
	<time>2025-04-30T09:30:26.000Z</time>
</trkpt>
<trkpt lat="45.9078500" lon="10.2558660">
	<ele>678.80</ele>
	<time>2025-04-30T09:30:27.000Z</time>
</trkpt>
<trkpt lat="45.9078650" lon="10.2558560">
	<ele>678.80</ele>
	<time>2025-04-30T09:30:28.000Z</time>
</trkpt>
<trkpt lat="45.9078780" lon="10.2558450">
	<ele>678.60</ele>
	<time>2025-04-30T09:30:29.000Z</time>
</trkpt>
<trkpt lat="45.9078840" lon="10.2558270">
	<ele>678.20</ele>
	<time>2025-04-30T09:30:30.000Z</time>
</trkpt>
<trkpt lat="45.9078920" lon="10.2558240">
	<ele>678.00</ele>
	<time>2025-04-30T09:30:31.000Z</time>
</trkpt>
<trkpt lat="45.9079040" lon="10.2558150">
	<ele>677.80</ele>
	<time>2025-04-30T09:30:32.000Z</time>
</trkpt>
<trkpt lat="45.9079340" lon="10.2557960">
	<ele>677.40</ele>
	<time>2025-04-30T09:30:33.000Z</time>
</trkpt>
<trkpt lat="45.9079540" lon="10.2557650">
	<ele>677.20</ele>
	<time>2025-04-30T09:30:34.000Z</time>
</trkpt>
<trkpt lat="45.9079830" lon="10.2557470">
	<ele>677.00</ele>
	<time>2025-04-30T09:30:35.000Z</time>
</trkpt>
<trkpt lat="45.9080080" lon="10.2557390">
	<ele>676.60</ele>
	<time>2025-04-30T09:30:36.000Z</time>
</trkpt>
<trkpt lat="45.9080130" lon="10.2557430">
	<ele>676.20</ele>
	<time>2025-04-30T09:30:37.000Z</time>
</trkpt>
<trkpt lat="45.9080210" lon="10.2557610">
	<ele>676.00</ele>
	<time>2025-04-30T09:30:38.000Z</time>
</trkpt>
<trkpt lat="45.9080390" lon="10.2557570">
	<ele>675.80</ele>
	<time>2025-04-30T09:30:39.000Z</time>
</trkpt>
<trkpt lat="45.9080520" lon="10.2557470">
	<ele>675.60</ele>
	<time>2025-04-30T09:30:40.000Z</time>
</trkpt>
<trkpt lat="45.9080900" lon="10.2557320">
	<ele>675.20</ele>
	<time>2025-04-30T09:30:41.000Z</time>
</trkpt>
<trkpt lat="45.9081260" lon="10.2557220">
	<ele>675.00</ele>
	<time>2025-04-30T09:30:42.000Z</time>
</trkpt>
<trkpt lat="45.9081580" lon="10.2557260">
	<ele>674.60</ele>
	<time>2025-04-30T09:30:43.000Z</time>
</trkpt>
<trkpt lat="45.9081770" lon="10.2557360">
	<ele>674.40</ele>
	<time>2025-04-30T09:30:44.000Z</time>
</trkpt>
<trkpt lat="45.9081840" lon="10.2557400">
	<ele>674.00</ele>
	<time>2025-04-30T09:30:45.000Z</time>
</trkpt>
<trkpt lat="45.9082040" lon="10.2557390">
	<ele>673.80</ele>
	<time>2025-04-30T09:30:46.000Z</time>
</trkpt>
<trkpt lat="45.9082050" lon="10.2557410">
	<ele>673.40</ele>
	<time>2025-04-30T09:30:47.000Z</time>
</trkpt>
<trkpt lat="45.9082200" lon="10.2557350">
	<ele>673.40</ele>
	<time>2025-04-30T09:30:48.000Z</time>
</trkpt>
<trkpt lat="45.9082450" lon="10.2557370">
	<ele>673.20</ele>
	<time>2025-04-30T09:30:49.000Z</time>
</trkpt>
<trkpt lat="45.9082520" lon="10.2557430">
	<ele>673.20</ele>
	<time>2025-04-30T09:30:50.000Z</time>
</trkpt>
<trkpt lat="45.9082570" lon="10.2557470">
	<ele>673.20</ele>
	<time>2025-04-30T09:30:51.000Z</time>
</trkpt>
<trkpt lat="45.9082620" lon="10.2557490">
	<ele>673.20</ele>
	<time>2025-04-30T09:30:52.000Z</time>
</trkpt>
<trkpt lat="45.9082680" lon="10.2557430">
	<ele>672.80</ele>
	<time>2025-04-30T09:30:53.000Z</time>
</trkpt>
<trkpt lat="45.9082730" lon="10.2557440">
	<ele>672.40</ele>
	<time>2025-04-30T09:30:54.000Z</time>
</trkpt>
<trkpt lat="45.9082770" lon="10.2557450">
	<ele>672.20</ele>
	<time>2025-04-30T09:30:55.000Z</time>
</trkpt>
<trkpt lat="45.9082790" lon="10.2557500">
	<ele>671.80</ele>
	<time>2025-04-30T09:30:56.000Z</time>
</trkpt>
<trkpt lat="45.9082870" lon="10.2557550">
	<ele>671.60</ele>
	<time>2025-04-30T09:30:57.000Z</time>
</trkpt>
<trkpt lat="45.9082910" lon="10.2557500">
	<ele>671.20</ele>
	<time>2025-04-30T09:30:58.000Z</time>
</trkpt>
<trkpt lat="45.9083040" lon="10.2557490">
	<ele>671.00</ele>
	<time>2025-04-30T09:30:59.000Z</time>
</trkpt>
<trkpt lat="45.9083190" lon="10.2557480">
	<ele>670.60</ele>
	<time>2025-04-30T09:31:00.000Z</time>
</trkpt>
<trkpt lat="45.9083370" lon="10.2557460">
	<ele>670.20</ele>
	<time>2025-04-30T09:31:01.000Z</time>
</trkpt>
<trkpt lat="45.9083550" lon="10.2557400">
	<ele>669.80</ele>
	<time>2025-04-30T09:31:02.000Z</time>
</trkpt>
<trkpt lat="45.9083700" lon="10.2557310">
	<ele>669.60</ele>
	<time>2025-04-30T09:31:03.000Z</time>
</trkpt>
<trkpt lat="45.9083900" lon="10.2557170">
	<ele>669.20</ele>
	<time>2025-04-30T09:31:04.000Z</time>
</trkpt>
<trkpt lat="45.9084060" lon="10.2556990">
	<ele>668.80</ele>
	<time>2025-04-30T09:31:05.000Z</time>
</trkpt>
<trkpt lat="45.9084270" lon="10.2556820">
	<ele>668.40</ele>
	<time>2025-04-30T09:31:06.000Z</time>
</trkpt>
<trkpt lat="45.9084420" lon="10.2556590">
	<ele>668.20</ele>
	<time>2025-04-30T09:31:07.000Z</time>
</trkpt>
<trkpt lat="45.9084590" lon="10.2556390">
	<ele>668.00</ele>
	<time>2025-04-30T09:31:08.000Z</time>
</trkpt>
<trkpt lat="45.9084780" lon="10.2556250">
	<ele>667.60</ele>
	<time>2025-04-30T09:31:09.000Z</time>
</trkpt>
<trkpt lat="45.9085010" lon="10.2556120">
	<ele>667.20</ele>
	<time>2025-04-30T09:31:10.000Z</time>
</trkpt>
<trkpt lat="45.9085120" lon="10.2556070">
	<ele>667.00</ele>
	<time>2025-04-30T09:31:11.000Z</time>
</trkpt>
<trkpt lat="45.9085230" lon="10.2556000">
	<ele>666.80</ele>
	<time>2025-04-30T09:31:12.000Z</time>
</trkpt>
<trkpt lat="45.9085200" lon="10.2555880">
	<ele>666.60</ele>
	<time>2025-04-30T09:31:13.000Z</time>
</trkpt>
<trkpt lat="45.9085270" lon="10.2555740">
	<ele>666.20</ele>
	<time>2025-04-30T09:31:14.000Z</time>
</trkpt>
<trkpt lat="45.9085370" lon="10.2555600">
	<ele>666.00</ele>
	<time>2025-04-30T09:31:15.000Z</time>
</trkpt>
<trkpt lat="45.9085460" lon="10.2555480">
	<ele>665.60</ele>
	<time>2025-04-30T09:31:16.000Z</time>
</trkpt>
<trkpt lat="45.9085570" lon="10.2555390">
	<ele>665.20</ele>
	<time>2025-04-30T09:31:17.000Z</time>
</trkpt>
<trkpt lat="45.9085650" lon="10.2555380">
	<ele>665.00</ele>
	<time>2025-04-30T09:31:18.000Z</time>
</trkpt>
<trkpt lat="45.9085760" lon="10.2555340">
	<ele>664.80</ele>
	<time>2025-04-30T09:31:19.000Z</time>
</trkpt>
<trkpt lat="45.9085970" lon="10.2555250">
	<ele>664.60</ele>
	<time>2025-04-30T09:31:20.000Z</time>
</trkpt>
<trkpt lat="45.9086210" lon="10.2555150">
	<ele>664.40</ele>
	<time>2025-04-30T09:31:21.000Z</time>
</trkpt>
<trkpt lat="45.9086410" lon="10.2555060">
	<ele>664.20</ele>
	<time>2025-04-30T09:31:22.000Z</time>
</trkpt>
<trkpt lat="45.9086540" lon="10.2555010">
	<ele>664.00</ele>
	<time>2025-04-30T09:31:23.000Z</time>
</trkpt>
<trkpt lat="45.9086650" lon="10.2554960">
	<ele>663.80</ele>
	<time>2025-04-30T09:31:24.000Z</time>
</trkpt>
<trkpt lat="45.9086740" lon="10.2554920">
	<ele>663.40</ele>
	<time>2025-04-30T09:31:25.000Z</time>
</trkpt>
<trkpt lat="45.9086820" lon="10.2554820">
	<ele>663.40</ele>
	<time>2025-04-30T09:31:26.000Z</time>
</trkpt>
<trkpt lat="45.9086900" lon="10.2554690">
	<ele>663.00</ele>
	<time>2025-04-30T09:31:27.000Z</time>
</trkpt>
<trkpt lat="45.9087150" lon="10.2554430">
	<ele>662.80</ele>
	<time>2025-04-30T09:31:28.000Z</time>
</trkpt>
<trkpt lat="45.9087230" lon="10.2554310">
	<ele>662.60</ele>
	<time>2025-04-30T09:31:29.000Z</time>
</trkpt>
<trkpt lat="45.9087350" lon="10.2554140">
	<ele>662.40</ele>
	<time>2025-04-30T09:31:30.000Z</time>
</trkpt>
<trkpt lat="45.9087280" lon="10.2554120">
	<ele>662.00</ele>
	<time>2025-04-30T09:31:31.000Z</time>
</trkpt>
<trkpt lat="45.9087320" lon="10.2554130">
	<ele>661.80</ele>
	<time>2025-04-30T09:31:32.000Z</time>
</trkpt>
<trkpt lat="45.9087450" lon="10.2554110">
	<ele>661.60</ele>
	<time>2025-04-30T09:31:33.000Z</time>
</trkpt>
<trkpt lat="45.9087630" lon="10.2553950">
	<ele>661.20</ele>
	<time>2025-04-30T09:31:34.000Z</time>
</trkpt>
<trkpt lat="45.9087830" lon="10.2553790">
	<ele>661.00</ele>
	<time>2025-04-30T09:31:35.000Z</time>
</trkpt>
<trkpt lat="45.9087980" lon="10.2553680">
	<ele>661.00</ele>
	<time>2025-04-30T09:31:36.000Z</time>
</trkpt>
<trkpt lat="45.9088160" lon="10.2553570">
	<ele>660.80</ele>
	<time>2025-04-30T09:31:37.000Z</time>
</trkpt>
<trkpt lat="45.9088350" lon="10.2553380">
	<ele>660.60</ele>
	<time>2025-04-30T09:31:38.000Z</time>
</trkpt>
<trkpt lat="45.9088520" lon="10.2553270">
	<ele>660.40</ele>
	<time>2025-04-30T09:31:39.000Z</time>
</trkpt>
<trkpt lat="45.9088580" lon="10.2553050">
	<ele>660.00</ele>
	<time>2025-04-30T09:31:40.000Z</time>
</trkpt>
<trkpt lat="45.9088610" lon="10.2552880">
	<ele>660.00</ele>
	<time>2025-04-30T09:31:41.000Z</time>
</trkpt>
<trkpt lat="45.9088630" lon="10.2552680">
	<ele>659.80</ele>
	<time>2025-04-30T09:31:42.000Z</time>
</trkpt>
<trkpt lat="45.9088620" lon="10.2552330">
	<ele>659.60</ele>
	<time>2025-04-30T09:31:43.000Z</time>
</trkpt>
<trkpt lat="45.9088700" lon="10.2552120">
	<ele>659.40</ele>
	<time>2025-04-30T09:31:44.000Z</time>
</trkpt>
<trkpt lat="45.9088790" lon="10.2551920">
	<ele>659.40</ele>
	<time>2025-04-30T09:31:45.000Z</time>
</trkpt>
<trkpt lat="45.9088850" lon="10.2551740">
	<ele>659.20</ele>
	<time>2025-04-30T09:31:46.000Z</time>
</trkpt>
<trkpt lat="45.9088900" lon="10.2551530">
	<ele>659.00</ele>
	<time>2025-04-30T09:31:47.000Z</time>
</trkpt>
<trkpt lat="45.9088990" lon="10.2551400">
	<ele>659.00</ele>
	<time>2025-04-30T09:31:48.000Z</time>
</trkpt>
<trkpt lat="45.9089020" lon="10.2551250">
	<ele>658.80</ele>
	<time>2025-04-30T09:31:49.000Z</time>
</trkpt>
<trkpt lat="45.9089020" lon="10.2551080">
	<ele>658.60</ele>
	<time>2025-04-30T09:31:50.000Z</time>
</trkpt>
<trkpt lat="45.9089060" lon="10.2550880">
	<ele>658.60</ele>
	<time>2025-04-30T09:31:51.000Z</time>
</trkpt>
<trkpt lat="45.9089100" lon="10.2550630">
	<ele>658.40</ele>
	<time>2025-04-30T09:31:52.000Z</time>
</trkpt>
<trkpt lat="45.9089150" lon="10.2550380">
	<ele>658.20</ele>
	<time>2025-04-30T09:31:53.000Z</time>
</trkpt>
<trkpt lat="45.9089180" lon="10.2550140">
	<ele>658.00</ele>
	<time>2025-04-30T09:31:54.000Z</time>
</trkpt>
<trkpt lat="45.9089170" lon="10.2549920">
	<ele>658.00</ele>
	<time>2025-04-30T09:31:55.000Z</time>
</trkpt>
<trkpt lat="45.9089220" lon="10.2549700">
	<ele>657.80</ele>
	<time>2025-04-30T09:31:56.000Z</time>
</trkpt>
<trkpt lat="45.9089230" lon="10.2549530">
	<ele>657.40</ele>
	<time>2025-04-30T09:31:57.000Z</time>
</trkpt>
<trkpt lat="45.9089290" lon="10.2549330">
	<ele>657.20</ele>
	<time>2025-04-30T09:31:58.000Z</time>
</trkpt>
<trkpt lat="45.9089290" lon="10.2549190">
	<ele>657.20</ele>
	<time>2025-04-30T09:31:59.000Z</time>
</trkpt>
<trkpt lat="45.9089290" lon="10.2549060">
	<ele>657.00</ele>
	<time>2025-04-30T09:32:00.000Z</time>
</trkpt>
<trkpt lat="45.9089370" lon="10.2548900">
	<ele>656.80</ele>
	<time>2025-04-30T09:32:01.000Z</time>
</trkpt>
<trkpt lat="45.9089410" lon="10.2548750">
	<ele>656.40</ele>
	<time>2025-04-30T09:32:02.000Z</time>
</trkpt>
<trkpt lat="45.9089500" lon="10.2548600">
	<ele>656.20</ele>
	<time>2025-04-30T09:32:03.000Z</time>
</trkpt>
<trkpt lat="45.9089610" lon="10.2548450">
	<ele>656.00</ele>
	<time>2025-04-30T09:32:04.000Z</time>
</trkpt>
<trkpt lat="45.9089780" lon="10.2548240">
	<ele>655.60</ele>
	<time>2025-04-30T09:32:05.000Z</time>
</trkpt>
<trkpt lat="45.9089870" lon="10.2548080">
	<ele>655.40</ele>
	<time>2025-04-30T09:32:06.000Z</time>
</trkpt>
<trkpt lat="45.9089950" lon="10.2547860">
	<ele>655.20</ele>
	<time>2025-04-30T09:32:07.000Z</time>
</trkpt>
<trkpt lat="45.9090110" lon="10.2547640">
	<ele>655.00</ele>
	<time>2025-04-30T09:32:08.000Z</time>
</trkpt>
<trkpt lat="45.9090290" lon="10.2547440">
	<ele>655.00</ele>
	<time>2025-04-30T09:32:09.000Z</time>
</trkpt>
<trkpt lat="45.9090340" lon="10.2547250">
	<ele>654.60</ele>
	<time>2025-04-30T09:32:10.000Z</time>
</trkpt>
<trkpt lat="45.9090420" lon="10.2547060">
	<ele>654.40</ele>
	<time>2025-04-30T09:32:11.000Z</time>
</trkpt>
<trkpt lat="45.9090570" lon="10.2546870">
	<ele>654.20</ele>
	<time>2025-04-30T09:32:12.000Z</time>
</trkpt>
<trkpt lat="45.9090690" lon="10.2546720">
	<ele>654.20</ele>
	<time>2025-04-30T09:32:13.000Z</time>
</trkpt>
<trkpt lat="45.9090880" lon="10.2546580">
	<ele>653.80</ele>
	<time>2025-04-30T09:32:14.000Z</time>
</trkpt>
<trkpt lat="45.9091070" lon="10.2546500">
	<ele>653.60</ele>
	<time>2025-04-30T09:32:15.000Z</time>
</trkpt>
<trkpt lat="45.9091240" lon="10.2546340">
	<ele>653.20</ele>
	<time>2025-04-30T09:32:16.000Z</time>
</trkpt>
<trkpt lat="45.9091320" lon="10.2546220">
	<ele>652.80</ele>
	<time>2025-04-30T09:32:17.000Z</time>
</trkpt>
<trkpt lat="45.9091380" lon="10.2546120">
	<ele>652.60</ele>
	<time>2025-04-30T09:32:18.000Z</time>
</trkpt>
<trkpt lat="45.9091590" lon="10.2545900">
	<ele>652.40</ele>
	<time>2025-04-30T09:32:19.000Z</time>
</trkpt>
<trkpt lat="45.9091790" lon="10.2545710">
	<ele>652.20</ele>
	<time>2025-04-30T09:32:20.000Z</time>
</trkpt>
<trkpt lat="45.9091900" lon="10.2545590">
	<ele>651.80</ele>
	<time>2025-04-30T09:32:21.000Z</time>
</trkpt>
<trkpt lat="45.9091950" lon="10.2545540">
	<ele>651.40</ele>
	<time>2025-04-30T09:32:22.000Z</time>
</trkpt>
<trkpt lat="45.9092090" lon="10.2545450">
	<ele>651.00</ele>
	<time>2025-04-30T09:32:23.000Z</time>
</trkpt>
<trkpt lat="45.9092200" lon="10.2545320">
	<ele>650.80</ele>
	<time>2025-04-30T09:32:24.000Z</time>
</trkpt>
<trkpt lat="45.9092310" lon="10.2545250">
	<ele>650.60</ele>
	<time>2025-04-30T09:32:25.000Z</time>
</trkpt>
<trkpt lat="45.9092470" lon="10.2545150">
	<ele>650.40</ele>
	<time>2025-04-30T09:32:26.000Z</time>
</trkpt>
<trkpt lat="45.9092510" lon="10.2545080">
	<ele>650.20</ele>
	<time>2025-04-30T09:32:27.000Z</time>
</trkpt>
<trkpt lat="45.9092590" lon="10.2544920">
	<ele>649.80</ele>
	<time>2025-04-30T09:32:28.000Z</time>
</trkpt>
<trkpt lat="45.9092730" lon="10.2544790">
	<ele>649.60</ele>
	<time>2025-04-30T09:32:29.000Z</time>
</trkpt>
<trkpt lat="45.9092840" lon="10.2544700">
	<ele>649.20</ele>
	<time>2025-04-30T09:32:30.000Z</time>
</trkpt>
<trkpt lat="45.9093080" lon="10.2544650">
	<ele>649.00</ele>
	<time>2025-04-30T09:32:31.000Z</time>
</trkpt>
<trkpt lat="45.9093300" lon="10.2544590">
	<ele>648.80</ele>
	<time>2025-04-30T09:32:32.000Z</time>
</trkpt>
<trkpt lat="45.9093570" lon="10.2544530">
	<ele>648.40</ele>
	<time>2025-04-30T09:32:33.000Z</time>
</trkpt>
<trkpt lat="45.9093750" lon="10.2544480">
	<ele>648.20</ele>
	<time>2025-04-30T09:32:34.000Z</time>
</trkpt>
<trkpt lat="45.9093910" lon="10.2544460">
	<ele>647.80</ele>
	<time>2025-04-30T09:32:35.000Z</time>
</trkpt>
<trkpt lat="45.9094060" lon="10.2544450">
	<ele>647.40</ele>
	<time>2025-04-30T09:32:36.000Z</time>
</trkpt>
<trkpt lat="45.9094170" lon="10.2544410">
	<ele>647.00</ele>
	<time>2025-04-30T09:32:37.000Z</time>
</trkpt>
<trkpt lat="45.9094330" lon="10.2544410">
	<ele>646.60</ele>
	<time>2025-04-30T09:32:38.000Z</time>
</trkpt>
<trkpt lat="45.9094510" lon="10.2544400">
	<ele>646.40</ele>
	<time>2025-04-30T09:32:39.000Z</time>
</trkpt>
<trkpt lat="45.9094710" lon="10.2544470">
	<ele>646.20</ele>
	<time>2025-04-30T09:32:40.000Z</time>
</trkpt>
<trkpt lat="45.9094860" lon="10.2544520">
	<ele>645.80</ele>
	<time>2025-04-30T09:32:41.000Z</time>
</trkpt>
<trkpt lat="45.9095050" lon="10.2544530">
	<ele>645.60</ele>
	<time>2025-04-30T09:32:42.000Z</time>
</trkpt>
<trkpt lat="45.9095250" lon="10.2544640">
	<ele>645.40</ele>
	<time>2025-04-30T09:32:43.000Z</time>
</trkpt>
<trkpt lat="45.9095340" lon="10.2544780">
	<ele>645.00</ele>
	<time>2025-04-30T09:32:44.000Z</time>
</trkpt>
<trkpt lat="45.9095440" lon="10.2544930">
	<ele>644.80</ele>
	<time>2025-04-30T09:32:45.000Z</time>
</trkpt>
<trkpt lat="45.9095540" lon="10.2545050">
	<ele>644.20</ele>
	<time>2025-04-30T09:32:46.000Z</time>
</trkpt>
<trkpt lat="45.9095670" lon="10.2545180">
	<ele>643.80</ele>
	<time>2025-04-30T09:32:47.000Z</time>
</trkpt>
<trkpt lat="45.9095790" lon="10.2545320">
	<ele>643.60</ele>
	<time>2025-04-30T09:32:48.000Z</time>
</trkpt>
<trkpt lat="45.9095910" lon="10.2545490">
	<ele>643.20</ele>
	<time>2025-04-30T09:32:49.000Z</time>
</trkpt>
<trkpt lat="45.9096010" lon="10.2545680">
	<ele>643.00</ele>
	<time>2025-04-30T09:32:50.000Z</time>
</trkpt>
<trkpt lat="45.9096110" lon="10.2545850">
	<ele>642.40</ele>
	<time>2025-04-30T09:32:51.000Z</time>
</trkpt>
<trkpt lat="45.9096160" lon="10.2546030">
	<ele>642.20</ele>
	<time>2025-04-30T09:32:52.000Z</time>
</trkpt>
<trkpt lat="45.9096240" lon="10.2546190">
	<ele>641.60</ele>
	<time>2025-04-30T09:32:53.000Z</time>
</trkpt>
<trkpt lat="45.9096280" lon="10.2546380">
	<ele>641.20</ele>
	<time>2025-04-30T09:32:54.000Z</time>
</trkpt>
<trkpt lat="45.9096330" lon="10.2546520">
	<ele>640.60</ele>
	<time>2025-04-30T09:32:55.000Z</time>
</trkpt>
<trkpt lat="45.9096330" lon="10.2546720">
	<ele>640.20</ele>
	<time>2025-04-30T09:32:56.000Z</time>
</trkpt>
<trkpt lat="45.9096350" lon="10.2546880">
	<ele>639.80</ele>
	<time>2025-04-30T09:32:57.000Z</time>
</trkpt>
<trkpt lat="45.9096370" lon="10.2547000">
	<ele>639.60</ele>
	<time>2025-04-30T09:32:58.000Z</time>
</trkpt>
<trkpt lat="45.9096490" lon="10.2547110">
	<ele>639.20</ele>
	<time>2025-04-30T09:32:59.000Z</time>
</trkpt>
<trkpt lat="45.9096630" lon="10.2547220">
	<ele>638.80</ele>
	<time>2025-04-30T09:33:00.000Z</time>
</trkpt>
<trkpt lat="45.9096750" lon="10.2547340">
	<ele>638.40</ele>
	<time>2025-04-30T09:33:01.000Z</time>
</trkpt>
<trkpt lat="45.9096860" lon="10.2547470">
	<ele>637.80</ele>
	<time>2025-04-30T09:33:02.000Z</time>
</trkpt>
<trkpt lat="45.9097040" lon="10.2547610">
	<ele>637.40</ele>
	<time>2025-04-30T09:33:03.000Z</time>
</trkpt>
<trkpt lat="45.9097300" lon="10.2547680">
	<ele>637.00</ele>
	<time>2025-04-30T09:33:04.000Z</time>
</trkpt>
<trkpt lat="45.9097530" lon="10.2547760">
	<ele>636.40</ele>
	<time>2025-04-30T09:33:05.000Z</time>
</trkpt>
<trkpt lat="45.9097770" lon="10.2547880">
	<ele>636.00</ele>
	<time>2025-04-30T09:33:06.000Z</time>
</trkpt>
<trkpt lat="45.9098040" lon="10.2548000">
	<ele>635.60</ele>
	<time>2025-04-30T09:33:07.000Z</time>
</trkpt>
<trkpt lat="45.9098240" lon="10.2548120">
	<ele>635.20</ele>
	<time>2025-04-30T09:33:08.000Z</time>
</trkpt>
<trkpt lat="45.9098480" lon="10.2548180">
	<ele>634.80</ele>
	<time>2025-04-30T09:33:09.000Z</time>
</trkpt>
<trkpt lat="45.9098710" lon="10.2548250">
	<ele>634.40</ele>
	<time>2025-04-30T09:33:10.000Z</time>
</trkpt>
<trkpt lat="45.9098900" lon="10.2548350">
	<ele>634.00</ele>
	<time>2025-04-30T09:33:11.000Z</time>
</trkpt>
<trkpt lat="45.9099060" lon="10.2548440">
	<ele>633.80</ele>
	<time>2025-04-30T09:33:12.000Z</time>
</trkpt>
<trkpt lat="45.9099230" lon="10.2548460">
	<ele>633.40</ele>
	<time>2025-04-30T09:33:13.000Z</time>
</trkpt>
<trkpt lat="45.9099400" lon="10.2548450">
	<ele>632.80</ele>
	<time>2025-04-30T09:33:14.000Z</time>
</trkpt>
<trkpt lat="45.9099550" lon="10.2548550">
	<ele>632.40</ele>
	<time>2025-04-30T09:33:15.000Z</time>
</trkpt>
<trkpt lat="45.9099720" lon="10.2548710">
	<ele>632.00</ele>
	<time>2025-04-30T09:33:16.000Z</time>
</trkpt>
<trkpt lat="45.9099840" lon="10.2548830">
	<ele>631.80</ele>
	<time>2025-04-30T09:33:17.000Z</time>
</trkpt>
<trkpt lat="45.9099910" lon="10.2549040">
	<ele>631.40</ele>
	<time>2025-04-30T09:33:18.000Z</time>
</trkpt>
<trkpt lat="45.9100040" lon="10.2549230">
	<ele>631.00</ele>
	<time>2025-04-30T09:33:19.000Z</time>
</trkpt>
<trkpt lat="45.9100200" lon="10.2549370">
	<ele>630.60</ele>
	<time>2025-04-30T09:33:20.000Z</time>
</trkpt>
<trkpt lat="45.9100350" lon="10.2549520">
	<ele>630.40</ele>
	<time>2025-04-30T09:33:21.000Z</time>
</trkpt>
<trkpt lat="45.9100500" lon="10.2549700">
	<ele>630.20</ele>
	<time>2025-04-30T09:33:22.000Z</time>
</trkpt>
<trkpt lat="45.9100630" lon="10.2549890">
	<ele>629.80</ele>
	<time>2025-04-30T09:33:23.000Z</time>
</trkpt>
<trkpt lat="45.9100700" lon="10.2550050">
	<ele>629.60</ele>
	<time>2025-04-30T09:33:24.000Z</time>
</trkpt>
<trkpt lat="45.9100750" lon="10.2550210">
	<ele>629.40</ele>
	<time>2025-04-30T09:33:25.000Z</time>
</trkpt>
<trkpt lat="45.9100860" lon="10.2550290">
	<ele>629.20</ele>
	<time>2025-04-30T09:33:26.000Z</time>
</trkpt>
<trkpt lat="45.9100980" lon="10.2550420">
	<ele>629.00</ele>
	<time>2025-04-30T09:33:27.000Z</time>
</trkpt>
<trkpt lat="45.9101100" lon="10.2550550">
	<ele>628.80</ele>
	<time>2025-04-30T09:33:28.000Z</time>
</trkpt>
<trkpt lat="45.9101160" lon="10.2550730">
	<ele>628.80</ele>
	<time>2025-04-30T09:33:29.000Z</time>
</trkpt>
<trkpt lat="45.9101230" lon="10.2550880">
	<ele>628.60</ele>
	<time>2025-04-30T09:33:30.000Z</time>
</trkpt>
<trkpt lat="45.9101340" lon="10.2550960">
	<ele>628.40</ele>
	<time>2025-04-30T09:33:31.000Z</time>
</trkpt>
<trkpt lat="45.9101440" lon="10.2551050">
	<ele>628.20</ele>
	<time>2025-04-30T09:33:32.000Z</time>
</trkpt>
<trkpt lat="45.9101510" lon="10.2551150">
	<ele>628.20</ele>
	<time>2025-04-30T09:33:33.000Z</time>
</trkpt>
<trkpt lat="45.9101620" lon="10.2551280">
	<ele>628.00</ele>
	<time>2025-04-30T09:33:34.000Z</time>
</trkpt>
<trkpt lat="45.9101770" lon="10.2551320">
	<ele>627.80</ele>
	<time>2025-04-30T09:33:35.000Z</time>
</trkpt>
<trkpt lat="45.9101950" lon="10.2551360">
	<ele>627.40</ele>
	<time>2025-04-30T09:33:36.000Z</time>
</trkpt>
<trkpt lat="45.9102130" lon="10.2551470">
	<ele>627.20</ele>
	<time>2025-04-30T09:33:37.000Z</time>
</trkpt>
<trkpt lat="45.9102260" lon="10.2551690">
	<ele>627.20</ele>
	<time>2025-04-30T09:33:38.000Z</time>
</trkpt>
<trkpt lat="45.9102350" lon="10.2551820">
	<ele>626.80</ele>
	<time>2025-04-30T09:33:39.000Z</time>
</trkpt>
<trkpt lat="45.9102490" lon="10.2551910">
	<ele>626.60</ele>
	<time>2025-04-30T09:33:40.000Z</time>
</trkpt>
<trkpt lat="45.9102630" lon="10.2551970">
	<ele>626.60</ele>
	<time>2025-04-30T09:33:41.000Z</time>
</trkpt>
<trkpt lat="45.9102680" lon="10.2552120">
	<ele>626.40</ele>
	<time>2025-04-30T09:33:42.000Z</time>
</trkpt>
<trkpt lat="45.9102760" lon="10.2552260">
	<ele>626.20</ele>
	<time>2025-04-30T09:33:43.000Z</time>
</trkpt>
<trkpt lat="45.9102860" lon="10.2552350">
	<ele>626.20</ele>
	<time>2025-04-30T09:33:44.000Z</time>
</trkpt>
<trkpt lat="45.9102970" lon="10.2552430">
	<ele>626.20</ele>
	<time>2025-04-30T09:33:45.000Z</time>
</trkpt>
<trkpt lat="45.9103120" lon="10.2552500">
	<ele>626.20</ele>
	<time>2025-04-30T09:33:46.000Z</time>
</trkpt>
<trkpt lat="45.9103260" lon="10.2552520">
	<ele>626.00</ele>
	<time>2025-04-30T09:33:47.000Z</time>
</trkpt>
<trkpt lat="45.9103360" lon="10.2552660">
	<ele>625.80</ele>
	<time>2025-04-30T09:33:48.000Z</time>
</trkpt>
<trkpt lat="45.9103500" lon="10.2552820">
	<ele>625.80</ele>
	<time>2025-04-30T09:33:49.000Z</time>
</trkpt>
<trkpt lat="45.9103630" lon="10.2552970">
	<ele>625.60</ele>
	<time>2025-04-30T09:33:50.000Z</time>
</trkpt>
<trkpt lat="45.9103780" lon="10.2553090">
	<ele>625.60</ele>
	<time>2025-04-30T09:33:51.000Z</time>
</trkpt>
<trkpt lat="45.9103940" lon="10.2553130">
	<ele>625.40</ele>
	<time>2025-04-30T09:33:52.000Z</time>
</trkpt>
<trkpt lat="45.9104110" lon="10.2553190">
	<ele>625.20</ele>
	<time>2025-04-30T09:33:53.000Z</time>
</trkpt>
<trkpt lat="45.9104230" lon="10.2553260">
	<ele>625.00</ele>
	<time>2025-04-30T09:33:54.000Z</time>
</trkpt>
<trkpt lat="45.9104350" lon="10.2553400">
	<ele>624.80</ele>
	<time>2025-04-30T09:33:55.000Z</time>
</trkpt>
<trkpt lat="45.9104470" lon="10.2553540">
	<ele>624.80</ele>
	<time>2025-04-30T09:33:56.000Z</time>
</trkpt>
<trkpt lat="45.9104360" lon="10.2553840">
	<ele>624.60</ele>
	<time>2025-04-30T09:33:57.000Z</time>
</trkpt>
<trkpt lat="45.9104390" lon="10.2554000">
	<ele>624.60</ele>
	<time>2025-04-30T09:33:58.000Z</time>
</trkpt>
<trkpt lat="45.9104550" lon="10.2554040">
	<ele>624.40</ele>
	<time>2025-04-30T09:33:59.000Z</time>
</trkpt>
<trkpt lat="45.9104680" lon="10.2554110">
	<ele>624.40</ele>
	<time>2025-04-30T09:34:00.000Z</time>
</trkpt>
<trkpt lat="45.9104820" lon="10.2554190">
	<ele>624.20</ele>
	<time>2025-04-30T09:34:01.000Z</time>
</trkpt>
<trkpt lat="45.9104880" lon="10.2554320">
	<ele>624.20</ele>
	<time>2025-04-30T09:34:02.000Z</time>
</trkpt>
<trkpt lat="45.9104950" lon="10.2554400">
	<ele>624.00</ele>
	<time>2025-04-30T09:34:03.000Z</time>
</trkpt>
<trkpt lat="45.9105060" lon="10.2554440">
	<ele>624.00</ele>
	<time>2025-04-30T09:34:04.000Z</time>
</trkpt>
<trkpt lat="45.9105210" lon="10.2554470">
	<ele>623.80</ele>
	<time>2025-04-30T09:34:05.000Z</time>
</trkpt>
<trkpt lat="45.9105360" lon="10.2554550">
	<ele>623.40</ele>
	<time>2025-04-30T09:34:06.000Z</time>
</trkpt>
<trkpt lat="45.9105480" lon="10.2554630">
	<ele>623.00</ele>
	<time>2025-04-30T09:34:07.000Z</time>
</trkpt>
<trkpt lat="45.9105620" lon="10.2554680">
	<ele>622.80</ele>
	<time>2025-04-30T09:34:08.000Z</time>
</trkpt>
<trkpt lat="45.9105800" lon="10.2554710">
	<ele>622.40</ele>
	<time>2025-04-30T09:34:09.000Z</time>
</trkpt>
<trkpt lat="45.9106010" lon="10.2554680">
	<ele>622.00</ele>
	<time>2025-04-30T09:34:10.000Z</time>
</trkpt>
<trkpt lat="45.9106200" lon="10.2554690">
	<ele>621.80</ele>
	<time>2025-04-30T09:34:11.000Z</time>
</trkpt>
<trkpt lat="45.9106370" lon="10.2554720">
	<ele>621.40</ele>
	<time>2025-04-30T09:34:12.000Z</time>
</trkpt>
<trkpt lat="45.9106560" lon="10.2554770">
	<ele>620.80</ele>
	<time>2025-04-30T09:34:13.000Z</time>
</trkpt>
<trkpt lat="45.9106720" lon="10.2554860">
	<ele>620.40</ele>
	<time>2025-04-30T09:34:14.000Z</time>
</trkpt>
<trkpt lat="45.9106880" lon="10.2555020">
	<ele>620.00</ele>
	<time>2025-04-30T09:34:15.000Z</time>
</trkpt>
<trkpt lat="45.9106970" lon="10.2555190">
	<ele>619.80</ele>
	<time>2025-04-30T09:34:16.000Z</time>
</trkpt>
<trkpt lat="45.9107090" lon="10.2555300">
	<ele>619.60</ele>
	<time>2025-04-30T09:34:17.000Z</time>
</trkpt>
<trkpt lat="45.9107140" lon="10.2555430">
	<ele>619.00</ele>
	<time>2025-04-30T09:34:18.000Z</time>
</trkpt>
<trkpt lat="45.9107360" lon="10.2555510">
	<ele>618.80</ele>
	<time>2025-04-30T09:34:19.000Z</time>
</trkpt>
<trkpt lat="45.9107590" lon="10.2555580">
	<ele>618.40</ele>
	<time>2025-04-30T09:34:20.000Z</time>
</trkpt>
<trkpt lat="45.9107820" lon="10.2555590">
	<ele>618.00</ele>
	<time>2025-04-30T09:34:21.000Z</time>
</trkpt>
<trkpt lat="45.9108030" lon="10.2555630">
	<ele>617.60</ele>
	<time>2025-04-30T09:34:22.000Z</time>
</trkpt>
<trkpt lat="45.9108200" lon="10.2555700">
	<ele>617.40</ele>
	<time>2025-04-30T09:34:23.000Z</time>
</trkpt>
<trkpt lat="45.9108390" lon="10.2555770">
	<ele>617.40</ele>
	<time>2025-04-30T09:34:24.000Z</time>
</trkpt>
<trkpt lat="45.9108480" lon="10.2555920">
	<ele>617.20</ele>
	<time>2025-04-30T09:34:25.000Z</time>
</trkpt>
<trkpt lat="45.9108590" lon="10.2556160">
	<ele>617.00</ele>
	<time>2025-04-30T09:34:26.000Z</time>
</trkpt>
<trkpt lat="45.9108800" lon="10.2556210">
	<ele>617.00</ele>
	<time>2025-04-30T09:34:27.000Z</time>
</trkpt>
<trkpt lat="45.9108970" lon="10.2556270">
	<ele>617.00</ele>
	<time>2025-04-30T09:34:28.000Z</time>
</trkpt>
<trkpt lat="45.9109110" lon="10.2556350">
	<ele>616.60</ele>
	<time>2025-04-30T09:34:29.000Z</time>
</trkpt>
<trkpt lat="45.9109240" lon="10.2556390">
	<ele>616.20</ele>
	<time>2025-04-30T09:34:30.000Z</time>
</trkpt>
<trkpt lat="45.9109440" lon="10.2556430">
	<ele>616.00</ele>
	<time>2025-04-30T09:34:31.000Z</time>
</trkpt>
<trkpt lat="45.9109680" lon="10.2556500">
	<ele>615.80</ele>
	<time>2025-04-30T09:34:32.000Z</time>
</trkpt>
<trkpt lat="45.9109880" lon="10.2556580">
	<ele>615.60</ele>
	<time>2025-04-30T09:34:33.000Z</time>
</trkpt>
<trkpt lat="45.9110140" lon="10.2556670">
	<ele>615.60</ele>
	<time>2025-04-30T09:34:34.000Z</time>
</trkpt>
<trkpt lat="45.9110530" lon="10.2556630">
	<ele>615.40</ele>
	<time>2025-04-30T09:34:35.000Z</time>
</trkpt>
<trkpt lat="45.9110760" lon="10.2556630">
	<ele>615.40</ele>
	<time>2025-04-30T09:34:36.000Z</time>
</trkpt>
<trkpt lat="45.9110950" lon="10.2556690">
	<ele>615.20</ele>
	<time>2025-04-30T09:34:37.000Z</time>
</trkpt>
<trkpt lat="45.9111140" lon="10.2556630">
	<ele>615.20</ele>
	<time>2025-04-30T09:34:38.000Z</time>
</trkpt>
<trkpt lat="45.9111320" lon="10.2556600">
	<ele>614.80</ele>
	<time>2025-04-30T09:34:39.000Z</time>
</trkpt>
<trkpt lat="45.9111430" lon="10.2556590">
	<ele>614.60</ele>
	<time>2025-04-30T09:34:40.000Z</time>
</trkpt>
<trkpt lat="45.9111490" lon="10.2556650">
	<ele>614.20</ele>
	<time>2025-04-30T09:34:41.000Z</time>
</trkpt>
<trkpt lat="45.9111570" lon="10.2556850">
	<ele>614.00</ele>
	<time>2025-04-30T09:34:42.000Z</time>
</trkpt>
<trkpt lat="45.9111760" lon="10.2556960">
	<ele>613.80</ele>
	<time>2025-04-30T09:34:43.000Z</time>
</trkpt>
<trkpt lat="45.9111950" lon="10.2556990">
	<ele>613.60</ele>
	<time>2025-04-30T09:34:44.000Z</time>
</trkpt>
<trkpt lat="45.9112190" lon="10.2557060">
	<ele>613.20</ele>
	<time>2025-04-30T09:34:45.000Z</time>
</trkpt>
<trkpt lat="45.9112340" lon="10.2557120">
	<ele>613.00</ele>
	<time>2025-04-30T09:34:46.000Z</time>
</trkpt>
<trkpt lat="45.9112480" lon="10.2557210">
	<ele>612.60</ele>
	<time>2025-04-30T09:34:47.000Z</time>
</trkpt>
<trkpt lat="45.9112580" lon="10.2557350">
	<ele>612.40</ele>
	<time>2025-04-30T09:34:48.000Z</time>
</trkpt>
<trkpt lat="45.9112740" lon="10.2557430">
	<ele>612.00</ele>
	<time>2025-04-30T09:34:49.000Z</time>
</trkpt>
<trkpt lat="45.9112850" lon="10.2557510">
	<ele>611.60</ele>
	<time>2025-04-30T09:34:50.000Z</time>
</trkpt>
<trkpt lat="45.9112900" lon="10.2557640">
	<ele>611.40</ele>
	<time>2025-04-30T09:34:51.000Z</time>
</trkpt>
<trkpt lat="45.9112920" lon="10.2557760">
	<ele>611.20</ele>
	<time>2025-04-30T09:34:52.000Z</time>
</trkpt>
<trkpt lat="45.9112950" lon="10.2557930">
	<ele>610.80</ele>
	<time>2025-04-30T09:34:53.000Z</time>
</trkpt>
<trkpt lat="45.9113010" lon="10.2558000">
	<ele>610.40</ele>
	<time>2025-04-30T09:34:54.000Z</time>
</trkpt>
<trkpt lat="45.9113080" lon="10.2558070">
	<ele>610.00</ele>
	<time>2025-04-30T09:34:55.000Z</time>
</trkpt>
<trkpt lat="45.9113180" lon="10.2558160">
	<ele>609.60</ele>
	<time>2025-04-30T09:34:56.000Z</time>
</trkpt>
<trkpt lat="45.9113230" lon="10.2558260">
	<ele>609.20</ele>
	<time>2025-04-30T09:34:57.000Z</time>
</trkpt>
<trkpt lat="45.9113310" lon="10.2558400">
	<ele>608.60</ele>
	<time>2025-04-30T09:34:58.000Z</time>
</trkpt>
<trkpt lat="45.9113380" lon="10.2558530">
	<ele>608.20</ele>
	<time>2025-04-30T09:34:59.000Z</time>
</trkpt>
<trkpt lat="45.9113470" lon="10.2558670">
	<ele>607.80</ele>
	<time>2025-04-30T09:35:00.000Z</time>
</trkpt>
<trkpt lat="45.9113540" lon="10.2558840">
	<ele>607.00</ele>
	<time>2025-04-30T09:35:01.000Z</time>
</trkpt>
<trkpt lat="45.9113630" lon="10.2559000">
	<ele>606.80</ele>
	<time>2025-04-30T09:35:02.000Z</time>
</trkpt>
<trkpt lat="45.9113700" lon="10.2559200">
	<ele>606.00</ele>
	<time>2025-04-30T09:35:03.000Z</time>
</trkpt>
<trkpt lat="45.9113770" lon="10.2559440">
	<ele>605.40</ele>
	<time>2025-04-30T09:35:04.000Z</time>
</trkpt>
<trkpt lat="45.9113870" lon="10.2559600">
	<ele>605.00</ele>
	<time>2025-04-30T09:35:05.000Z</time>
</trkpt>
<trkpt lat="45.9113940" lon="10.2559800">
	<ele>604.40</ele>
	<time>2025-04-30T09:35:06.000Z</time>
</trkpt>
<trkpt lat="45.9114000" lon="10.2560020">
	<ele>604.00</ele>
	<time>2025-04-30T09:35:07.000Z</time>
</trkpt>
<trkpt lat="45.9114090" lon="10.2560230">
	<ele>603.40</ele>
	<time>2025-04-30T09:35:08.000Z</time>
</trkpt>
<trkpt lat="45.9114190" lon="10.2560410">
	<ele>602.80</ele>
	<time>2025-04-30T09:35:09.000Z</time>
</trkpt>
<trkpt lat="45.9114300" lon="10.2560520">
	<ele>602.20</ele>
	<time>2025-04-30T09:35:10.000Z</time>
</trkpt>
<trkpt lat="45.9114390" lon="10.2560680">
	<ele>601.80</ele>
	<time>2025-04-30T09:35:11.000Z</time>
</trkpt>
<trkpt lat="45.9114460" lon="10.2560810">
	<ele>601.40</ele>
	<time>2025-04-30T09:35:12.000Z</time>
</trkpt>
<trkpt lat="45.9114550" lon="10.2560950">
	<ele>600.80</ele>
	<time>2025-04-30T09:35:13.000Z</time>
</trkpt>
<trkpt lat="45.9114610" lon="10.2561110">
	<ele>600.40</ele>
	<time>2025-04-30T09:35:14.000Z</time>
</trkpt>
<trkpt lat="45.9114700" lon="10.2561320">
	<ele>599.80</ele>
	<time>2025-04-30T09:35:15.000Z</time>
</trkpt>
<trkpt lat="45.9114780" lon="10.2561500">
	<ele>599.20</ele>
	<time>2025-04-30T09:35:16.000Z</time>
</trkpt>
<trkpt lat="45.9114860" lon="10.2561720">
	<ele>598.80</ele>
	<time>2025-04-30T09:35:17.000Z</time>
</trkpt>
<trkpt lat="45.9114980" lon="10.2561920">
	<ele>598.40</ele>
	<time>2025-04-30T09:35:18.000Z</time>
</trkpt>
<trkpt lat="45.9115070" lon="10.2562190">
	<ele>597.80</ele>
	<time>2025-04-30T09:35:19.000Z</time>
</trkpt>
<trkpt lat="45.9115160" lon="10.2562450">
	<ele>597.20</ele>
	<time>2025-04-30T09:35:20.000Z</time>
</trkpt>
<trkpt lat="45.9115270" lon="10.2562620">
	<ele>596.60</ele>
	<time>2025-04-30T09:35:21.000Z</time>
</trkpt>
<trkpt lat="45.9115400" lon="10.2562790">
	<ele>596.20</ele>
	<time>2025-04-30T09:35:22.000Z</time>
</trkpt>
<trkpt lat="45.9115500" lon="10.2562980">
	<ele>595.80</ele>
	<time>2025-04-30T09:35:23.000Z</time>
</trkpt>
<trkpt lat="45.9115620" lon="10.2563120">
	<ele>595.40</ele>
	<time>2025-04-30T09:35:24.000Z</time>
</trkpt>
<trkpt lat="45.9115740" lon="10.2563310">
	<ele>595.20</ele>
	<time>2025-04-30T09:35:25.000Z</time>
</trkpt>
<trkpt lat="45.9115850" lon="10.2563430">
	<ele>594.60</ele>
	<time>2025-04-30T09:35:26.000Z</time>
</trkpt>
<trkpt lat="45.9115960" lon="10.2563610">
	<ele>594.20</ele>
	<time>2025-04-30T09:35:27.000Z</time>
</trkpt>
<trkpt lat="45.9116130" lon="10.2563720">
	<ele>593.80</ele>
	<time>2025-04-30T09:35:28.000Z</time>
</trkpt>
<trkpt lat="45.9116280" lon="10.2563830">
	<ele>593.60</ele>
	<time>2025-04-30T09:35:29.000Z</time>
</trkpt>
<trkpt lat="45.9116410" lon="10.2563990">
	<ele>593.20</ele>
	<time>2025-04-30T09:35:30.000Z</time>
</trkpt>
<trkpt lat="45.9116460" lon="10.2564310">
	<ele>592.80</ele>
	<time>2025-04-30T09:35:31.000Z</time>
</trkpt>
<trkpt lat="45.9116600" lon="10.2564500">
	<ele>592.40</ele>
	<time>2025-04-30T09:35:32.000Z</time>
</trkpt>
<trkpt lat="45.9116520" lon="10.2564850">
	<ele>592.40</ele>
	<time>2025-04-30T09:35:33.000Z</time>
</trkpt>
<trkpt lat="45.9116620" lon="10.2565080">
	<ele>591.80</ele>
	<time>2025-04-30T09:35:34.000Z</time>
</trkpt>
<trkpt lat="45.9116720" lon="10.2565190">
	<ele>591.40</ele>
	<time>2025-04-30T09:35:35.000Z</time>
</trkpt>
<trkpt lat="45.9116840" lon="10.2565290">
	<ele>591.00</ele>
	<time>2025-04-30T09:35:36.000Z</time>
</trkpt>
<trkpt lat="45.9116970" lon="10.2565360">
	<ele>590.80</ele>
	<time>2025-04-30T09:35:37.000Z</time>
</trkpt>
<trkpt lat="45.9117090" lon="10.2565440">
	<ele>590.60</ele>
	<time>2025-04-30T09:35:38.000Z</time>
</trkpt>
<trkpt lat="45.9117250" lon="10.2565520">
	<ele>590.60</ele>
	<time>2025-04-30T09:35:39.000Z</time>
</trkpt>
<trkpt lat="45.9117420" lon="10.2565580">
	<ele>590.00</ele>
	<time>2025-04-30T09:35:40.000Z</time>
</trkpt>
<trkpt lat="45.9117500" lon="10.2565700">
	<ele>589.40</ele>
	<time>2025-04-30T09:35:41.000Z</time>
</trkpt>
<trkpt lat="45.9117590" lon="10.2565820">
	<ele>589.20</ele>
	<time>2025-04-30T09:35:42.000Z</time>
</trkpt>
<trkpt lat="45.9117770" lon="10.2565930">
	<ele>589.00</ele>
	<time>2025-04-30T09:35:43.000Z</time>
</trkpt>
<trkpt lat="45.9117890" lon="10.2566010">
	<ele>588.60</ele>
	<time>2025-04-30T09:35:44.000Z</time>
</trkpt>
<trkpt lat="45.9118010" lon="10.2566050">
	<ele>588.20</ele>
	<time>2025-04-30T09:35:45.000Z</time>
</trkpt>
<trkpt lat="45.9118090" lon="10.2565970">
	<ele>587.80</ele>
	<time>2025-04-30T09:35:46.000Z</time>
</trkpt>
<trkpt lat="45.9118340" lon="10.2566040">
	<ele>587.40</ele>
	<time>2025-04-30T09:35:47.000Z</time>
</trkpt>
<trkpt lat="45.9118700" lon="10.2566190">
	<ele>587.00</ele>
	<time>2025-04-30T09:35:48.000Z</time>
</trkpt>
<trkpt lat="45.9118840" lon="10.2566610">
	<ele>586.60</ele>
	<time>2025-04-30T09:35:49.000Z</time>
</trkpt>
<trkpt lat="45.9119000" lon="10.2566920">
	<ele>586.20</ele>
	<time>2025-04-30T09:35:50.000Z</time>
</trkpt>
<trkpt lat="45.9119190" lon="10.2567080">
	<ele>585.80</ele>
	<time>2025-04-30T09:35:51.000Z</time>
</trkpt>
<trkpt lat="45.9119350" lon="10.2567280">
	<ele>585.20</ele>
	<time>2025-04-30T09:35:52.000Z</time>
</trkpt>
<trkpt lat="45.9119510" lon="10.2567410">
	<ele>584.80</ele>
	<time>2025-04-30T09:35:53.000Z</time>
</trkpt>
<trkpt lat="45.9119590" lon="10.2567490">
	<ele>584.60</ele>
	<time>2025-04-30T09:35:54.000Z</time>
</trkpt>
<trkpt lat="45.9119660" lon="10.2567590">
	<ele>584.00</ele>
	<time>2025-04-30T09:35:55.000Z</time>
</trkpt>
<trkpt lat="45.9119790" lon="10.2567660">
	<ele>583.80</ele>
	<time>2025-04-30T09:35:56.000Z</time>
</trkpt>
<trkpt lat="45.9119880" lon="10.2567750">
	<ele>583.60</ele>
	<time>2025-04-30T09:35:57.000Z</time>
</trkpt>
<trkpt lat="45.9119960" lon="10.2567840">
	<ele>583.20</ele>
	<time>2025-04-30T09:35:58.000Z</time>
</trkpt>
<trkpt lat="45.9120080" lon="10.2567920">
	<ele>582.80</ele>
	<time>2025-04-30T09:35:59.000Z</time>
</trkpt>
<trkpt lat="45.9120170" lon="10.2568000">
	<ele>582.20</ele>
	<time>2025-04-30T09:36:00.000Z</time>
</trkpt>
<trkpt lat="45.9120270" lon="10.2568090">
	<ele>581.80</ele>
	<time>2025-04-30T09:36:01.000Z</time>
</trkpt>
<trkpt lat="45.9120380" lon="10.2568170">
	<ele>581.60</ele>
	<time>2025-04-30T09:36:02.000Z</time>
</trkpt>
<trkpt lat="45.9120480" lon="10.2568220">
	<ele>581.20</ele>
	<time>2025-04-30T09:36:03.000Z</time>
</trkpt>
<trkpt lat="45.9120580" lon="10.2568260">
	<ele>580.60</ele>
	<time>2025-04-30T09:36:04.000Z</time>
</trkpt>
<trkpt lat="45.9120670" lon="10.2568290">
	<ele>580.20</ele>
	<time>2025-04-30T09:36:05.000Z</time>
</trkpt>
<trkpt lat="45.9120800" lon="10.2568370">
	<ele>579.60</ele>
	<time>2025-04-30T09:36:06.000Z</time>
</trkpt>
<trkpt lat="45.9120900" lon="10.2568460">
	<ele>579.20</ele>
	<time>2025-04-30T09:36:07.000Z</time>
</trkpt>
<trkpt lat="45.9121010" lon="10.2568650">
	<ele>578.80</ele>
	<time>2025-04-30T09:36:08.000Z</time>
</trkpt>
<trkpt lat="45.9121120" lon="10.2568760">
	<ele>578.20</ele>
	<time>2025-04-30T09:36:09.000Z</time>
</trkpt>
<trkpt lat="45.9121210" lon="10.2568870">
	<ele>577.80</ele>
	<time>2025-04-30T09:36:10.000Z</time>
</trkpt>
<trkpt lat="45.9121290" lon="10.2569040">
	<ele>577.40</ele>
	<time>2025-04-30T09:36:11.000Z</time>
</trkpt>
<trkpt lat="45.9121300" lon="10.2569250">
	<ele>576.80</ele>
	<time>2025-04-30T09:36:12.000Z</time>
</trkpt>
<trkpt lat="45.9121390" lon="10.2569370">
	<ele>576.40</ele>
	<time>2025-04-30T09:36:13.000Z</time>
</trkpt>
<trkpt lat="45.9121480" lon="10.2569440">
	<ele>576.00</ele>
	<time>2025-04-30T09:36:14.000Z</time>
</trkpt>
<trkpt lat="45.9121670" lon="10.2569490">
	<ele>575.60</ele>
	<time>2025-04-30T09:36:15.000Z</time>
</trkpt>
<trkpt lat="45.9121850" lon="10.2569550">
	<ele>575.00</ele>
	<time>2025-04-30T09:36:16.000Z</time>
</trkpt>
<trkpt lat="45.9121970" lon="10.2569590">
	<ele>574.60</ele>
	<time>2025-04-30T09:36:17.000Z</time>
</trkpt>
<trkpt lat="45.9122090" lon="10.2569680">
	<ele>574.00</ele>
	<time>2025-04-30T09:36:18.000Z</time>
</trkpt>
<trkpt lat="45.9122210" lon="10.2569710">
	<ele>573.40</ele>
	<time>2025-04-30T09:36:19.000Z</time>
</trkpt>
<trkpt lat="45.9122330" lon="10.2569770">
	<ele>572.80</ele>
	<time>2025-04-30T09:36:20.000Z</time>
</trkpt>
<trkpt lat="45.9122470" lon="10.2569820">
	<ele>572.20</ele>
	<time>2025-04-30T09:36:21.000Z</time>
</trkpt>
<trkpt lat="45.9122690" lon="10.2569870">
	<ele>571.80</ele>
	<time>2025-04-30T09:36:22.000Z</time>
</trkpt>
<trkpt lat="45.9122860" lon="10.2569920">
	<ele>571.20</ele>
	<time>2025-04-30T09:36:23.000Z</time>
</trkpt>
<trkpt lat="45.9123120" lon="10.2569960">
	<ele>570.80</ele>
	<time>2025-04-30T09:36:24.000Z</time>
</trkpt>
<trkpt lat="45.9123510" lon="10.2570130">
	<ele>570.40</ele>
	<time>2025-04-30T09:36:25.000Z</time>
</trkpt>
<trkpt lat="45.9123800" lon="10.2570250">
	<ele>570.00</ele>
	<time>2025-04-30T09:36:26.000Z</time>
</trkpt>
<trkpt lat="45.9124030" lon="10.2570350">
	<ele>569.60</ele>
	<time>2025-04-30T09:36:27.000Z</time>
</trkpt>
<trkpt lat="45.9124260" lon="10.2570410">
	<ele>569.00</ele>
	<time>2025-04-30T09:36:28.000Z</time>
</trkpt>
<trkpt lat="45.9124370" lon="10.2570380">
	<ele>568.60</ele>
	<time>2025-04-30T09:36:29.000Z</time>
</trkpt>
<trkpt lat="45.9124550" lon="10.2570330">
	<ele>568.00</ele>
	<time>2025-04-30T09:36:30.000Z</time>
</trkpt>
<trkpt lat="45.9124570" lon="10.2570440">
	<ele>567.60</ele>
	<time>2025-04-30T09:36:31.000Z</time>
</trkpt>
<trkpt lat="45.9124610" lon="10.2570560">
	<ele>567.20</ele>
	<time>2025-04-30T09:36:32.000Z</time>
</trkpt>
<trkpt lat="45.9124750" lon="10.2570670">
	<ele>566.80</ele>
	<time>2025-04-30T09:36:33.000Z</time>
</trkpt>
<trkpt lat="45.9124890" lon="10.2570750">
	<ele>566.00</ele>
	<time>2025-04-30T09:36:34.000Z</time>
</trkpt>
<trkpt lat="45.9125030" lon="10.2570890">
	<ele>565.80</ele>
	<time>2025-04-30T09:36:35.000Z</time>
</trkpt>
<trkpt lat="45.9125140" lon="10.2571010">
	<ele>565.20</ele>
	<time>2025-04-30T09:36:36.000Z</time>
</trkpt>
<trkpt lat="45.9125220" lon="10.2571040">
	<ele>564.80</ele>
	<time>2025-04-30T09:36:37.000Z</time>
</trkpt>
<trkpt lat="45.9125210" lon="10.2571200">
	<ele>564.40</ele>
	<time>2025-04-30T09:36:38.000Z</time>
</trkpt>
<trkpt lat="45.9125320" lon="10.2571330">
	<ele>564.00</ele>
	<time>2025-04-30T09:36:39.000Z</time>
</trkpt>
<trkpt lat="45.9125400" lon="10.2571480">
	<ele>563.40</ele>
	<time>2025-04-30T09:36:40.000Z</time>
</trkpt>
<trkpt lat="45.9125520" lon="10.2571770">
	<ele>563.00</ele>
	<time>2025-04-30T09:36:41.000Z</time>
</trkpt>
<trkpt lat="45.9125660" lon="10.2572020">
	<ele>562.40</ele>
	<time>2025-04-30T09:36:42.000Z</time>
</trkpt>
<trkpt lat="45.9125750" lon="10.2572320">
	<ele>562.00</ele>
	<time>2025-04-30T09:36:43.000Z</time>
</trkpt>
<trkpt lat="45.9125820" lon="10.2572570">
	<ele>561.60</ele>
	<time>2025-04-30T09:36:44.000Z</time>
</trkpt>
<trkpt lat="45.9125930" lon="10.2572770">
	<ele>561.20</ele>
	<time>2025-04-30T09:36:45.000Z</time>
</trkpt>
<trkpt lat="45.9125990" lon="10.2572960">
	<ele>560.80</ele>
	<time>2025-04-30T09:36:46.000Z</time>
</trkpt>
<trkpt lat="45.9126090" lon="10.2573240">
	<ele>560.40</ele>
	<time>2025-04-30T09:36:47.000Z</time>
</trkpt>
<trkpt lat="45.9126100" lon="10.2573440">
	<ele>559.80</ele>
	<time>2025-04-30T09:36:48.000Z</time>
</trkpt>
<trkpt lat="45.9126180" lon="10.2573600">
	<ele>559.40</ele>
	<time>2025-04-30T09:36:49.000Z</time>
</trkpt>
<trkpt lat="45.9126240" lon="10.2573740">
	<ele>559.00</ele>
	<time>2025-04-30T09:36:50.000Z</time>
</trkpt>
<trkpt lat="45.9126240" lon="10.2573910">
	<ele>558.60</ele>
	<time>2025-04-30T09:36:51.000Z</time>
</trkpt>
<trkpt lat="45.9126270" lon="10.2574170">
	<ele>558.40</ele>
	<time>2025-04-30T09:36:52.000Z</time>
</trkpt>
<trkpt lat="45.9126380" lon="10.2574380">
	<ele>557.60</ele>
	<time>2025-04-30T09:36:53.000Z</time>
</trkpt>
<trkpt lat="45.9126520" lon="10.2574630">
	<ele>557.40</ele>
	<time>2025-04-30T09:36:54.000Z</time>
</trkpt>
<trkpt lat="45.9126600" lon="10.2574850">
	<ele>557.00</ele>
	<time>2025-04-30T09:36:55.000Z</time>
</trkpt>
<trkpt lat="45.9126790" lon="10.2575060">
	<ele>556.60</ele>
	<time>2025-04-30T09:36:56.000Z</time>
</trkpt>
<trkpt lat="45.9126850" lon="10.2575370">
	<ele>556.20</ele>
	<time>2025-04-30T09:36:57.000Z</time>
</trkpt>
<trkpt lat="45.9126890" lon="10.2575600">
	<ele>555.60</ele>
	<time>2025-04-30T09:36:58.000Z</time>
</trkpt>
<trkpt lat="45.9126850" lon="10.2575910">
	<ele>555.40</ele>
	<time>2025-04-30T09:36:59.000Z</time>
</trkpt>
<trkpt lat="45.9126830" lon="10.2576170">
	<ele>555.00</ele>
	<time>2025-04-30T09:37:00.000Z</time>
</trkpt>
<trkpt lat="45.9126890" lon="10.2576310">
	<ele>554.40</ele>
	<time>2025-04-30T09:37:01.000Z</time>
</trkpt>
<trkpt lat="45.9126940" lon="10.2576420">
	<ele>554.00</ele>
	<time>2025-04-30T09:37:02.000Z</time>
</trkpt>
<trkpt lat="45.9126980" lon="10.2576680">
	<ele>553.80</ele>
	<time>2025-04-30T09:37:03.000Z</time>
</trkpt>
<trkpt lat="45.9127040" lon="10.2576860">
	<ele>553.60</ele>
	<time>2025-04-30T09:37:04.000Z</time>
</trkpt>
<trkpt lat="45.9127130" lon="10.2577050">
	<ele>553.20</ele>
	<time>2025-04-30T09:37:05.000Z</time>
</trkpt>
<trkpt lat="45.9127240" lon="10.2577250">
	<ele>552.80</ele>
	<time>2025-04-30T09:37:06.000Z</time>
</trkpt>
<trkpt lat="45.9127260" lon="10.2577330">
	<ele>552.40</ele>
	<time>2025-04-30T09:37:07.000Z</time>
</trkpt>
<trkpt lat="45.9127270" lon="10.2577400">
	<ele>552.00</ele>
	<time>2025-04-30T09:37:08.000Z</time>
</trkpt>
<trkpt lat="45.9127320" lon="10.2577430">
	<ele>551.80</ele>
	<time>2025-04-30T09:37:09.000Z</time>
</trkpt>
<trkpt lat="45.9127470" lon="10.2577440">
	<ele>551.20</ele>
	<time>2025-04-30T09:37:10.000Z</time>
</trkpt>
<trkpt lat="45.9127680" lon="10.2577510">
	<ele>551.00</ele>
	<time>2025-04-30T09:37:11.000Z</time>
</trkpt>
<trkpt lat="45.9127930" lon="10.2577470">
	<ele>550.80</ele>
	<time>2025-04-30T09:37:12.000Z</time>
</trkpt>
<trkpt lat="45.9128230" lon="10.2577510">
	<ele>550.40</ele>
	<time>2025-04-30T09:37:13.000Z</time>
</trkpt>
<trkpt lat="45.9128290" lon="10.2577630">
	<ele>550.20</ele>
	<time>2025-04-30T09:37:14.000Z</time>
</trkpt>
<trkpt lat="45.9128410" lon="10.2577680">
	<ele>550.00</ele>
	<time>2025-04-30T09:37:15.000Z</time>
</trkpt>
<trkpt lat="45.9128540" lon="10.2577730">
	<ele>549.60</ele>
	<time>2025-04-30T09:37:16.000Z</time>
</trkpt>
<trkpt lat="45.9128660" lon="10.2577950">
	<ele>549.00</ele>
	<time>2025-04-30T09:37:17.000Z</time>
</trkpt>
<trkpt lat="45.9128730" lon="10.2578050">
	<ele>548.80</ele>
	<time>2025-04-30T09:37:18.000Z</time>
</trkpt>
<trkpt lat="45.9128910" lon="10.2578110">
	<ele>548.40</ele>
	<time>2025-04-30T09:37:19.000Z</time>
</trkpt>
<trkpt lat="45.9129040" lon="10.2578170">
	<ele>548.20</ele>
	<time>2025-04-30T09:37:20.000Z</time>
</trkpt>
<trkpt lat="45.9129270" lon="10.2578200">
	<ele>547.80</ele>
	<time>2025-04-30T09:37:21.000Z</time>
</trkpt>
<trkpt lat="45.9129440" lon="10.2578280">
	<ele>547.40</ele>
	<time>2025-04-30T09:37:22.000Z</time>
</trkpt>
<trkpt lat="45.9129560" lon="10.2578340">
	<ele>547.20</ele>
	<time>2025-04-30T09:37:23.000Z</time>
</trkpt>
<trkpt lat="45.9129700" lon="10.2578350">
	<ele>547.00</ele>
	<time>2025-04-30T09:37:24.000Z</time>
</trkpt>
<trkpt lat="45.9129890" lon="10.2578370">
	<ele>546.80</ele>
	<time>2025-04-30T09:37:25.000Z</time>
</trkpt>
<trkpt lat="45.9130050" lon="10.2578570">
	<ele>546.20</ele>
	<time>2025-04-30T09:37:26.000Z</time>
</trkpt>
<trkpt lat="45.9130140" lon="10.2578670">
	<ele>546.00</ele>
	<time>2025-04-30T09:37:27.000Z</time>
</trkpt>
<trkpt lat="45.9130240" lon="10.2578760">
	<ele>545.60</ele>
	<time>2025-04-30T09:37:28.000Z</time>
</trkpt>
<trkpt lat="45.9130300" lon="10.2578940">
	<ele>545.40</ele>
	<time>2025-04-30T09:37:29.000Z</time>
</trkpt>
<trkpt lat="45.9130420" lon="10.2579050">
	<ele>545.00</ele>
	<time>2025-04-30T09:37:30.000Z</time>
</trkpt>
<trkpt lat="45.9130570" lon="10.2579130">
	<ele>544.40</ele>
	<time>2025-04-30T09:37:31.000Z</time>
</trkpt>
<trkpt lat="45.9130780" lon="10.2579160">
	<ele>544.00</ele>
	<time>2025-04-30T09:37:32.000Z</time>
</trkpt>
<trkpt lat="45.9130990" lon="10.2579220">
	<ele>543.80</ele>
	<time>2025-04-30T09:37:33.000Z</time>
</trkpt>
<trkpt lat="45.9131190" lon="10.2579160">
	<ele>543.60</ele>
	<time>2025-04-30T09:37:34.000Z</time>
</trkpt>
<trkpt lat="45.9131470" lon="10.2579030">
	<ele>543.40</ele>
	<time>2025-04-30T09:37:35.000Z</time>
</trkpt>
<trkpt lat="45.9131800" lon="10.2578640">
	<ele>543.00</ele>
	<time>2025-04-30T09:37:36.000Z</time>
</trkpt>
<trkpt lat="45.9131990" lon="10.2578630">
	<ele>542.60</ele>
	<time>2025-04-30T09:37:37.000Z</time>
</trkpt>
<trkpt lat="45.9132200" lon="10.2578540">
	<ele>542.20</ele>
	<time>2025-04-30T09:37:38.000Z</time>
</trkpt>
<trkpt lat="45.9132360" lon="10.2578640">
	<ele>542.00</ele>
	<time>2025-04-30T09:37:39.000Z</time>
</trkpt>
<trkpt lat="45.9132520" lon="10.2578790">
	<ele>541.60</ele>
	<time>2025-04-30T09:37:40.000Z</time>
</trkpt>
<trkpt lat="45.9132660" lon="10.2578970">
	<ele>541.40</ele>
	<time>2025-04-30T09:37:41.000Z</time>
</trkpt>
<trkpt lat="45.9132580" lon="10.2579130">
	<ele>541.40</ele>
	<time>2025-04-30T09:37:42.000Z</time>
</trkpt>
<trkpt lat="45.9132650" lon="10.2579210">
	<ele>541.00</ele>
	<time>2025-04-30T09:37:43.000Z</time>
</trkpt>
<trkpt lat="45.9132850" lon="10.2579200">
	<ele>540.40</ele>
	<time>2025-04-30T09:37:44.000Z</time>
</trkpt>
<trkpt lat="45.9133080" lon="10.2579200">
	<ele>540.20</ele>
	<time>2025-04-30T09:37:45.000Z</time>
</trkpt>
<trkpt lat="45.9133270" lon="10.2579240">
	<ele>539.80</ele>
	<time>2025-04-30T09:37:46.000Z</time>
</trkpt>
<trkpt lat="45.9133460" lon="10.2579350">
	<ele>539.40</ele>
	<time>2025-04-30T09:37:47.000Z</time>
</trkpt>
<trkpt lat="45.9133640" lon="10.2579440">
	<ele>539.40</ele>
	<time>2025-04-30T09:37:48.000Z</time>
</trkpt>
<trkpt lat="45.9133780" lon="10.2579480">
	<ele>539.20</ele>
	<time>2025-04-30T09:37:49.000Z</time>
</trkpt>
<trkpt lat="45.9133920" lon="10.2579530">
	<ele>539.20</ele>
	<time>2025-04-30T09:37:50.000Z</time>
</trkpt>
<trkpt lat="45.9134050" lon="10.2579560">
	<ele>539.00</ele>
	<time>2025-04-30T09:37:51.000Z</time>
</trkpt>
<trkpt lat="45.9134200" lon="10.2579590">
	<ele>539.00</ele>
	<time>2025-04-30T09:37:52.000Z</time>
</trkpt>
<trkpt lat="45.9134380" lon="10.2579610">
	<ele>538.80</ele>
	<time>2025-04-30T09:37:53.000Z</time>
</trkpt>
<trkpt lat="45.9134560" lon="10.2579690">
	<ele>538.60</ele>
	<time>2025-04-30T09:37:54.000Z</time>
</trkpt>
<trkpt lat="45.9134750" lon="10.2579720">
	<ele>538.60</ele>
	<time>2025-04-30T09:37:55.000Z</time>
</trkpt>
<trkpt lat="45.9134910" lon="10.2579830">
	<ele>538.40</ele>
	<time>2025-04-30T09:37:56.000Z</time>
</trkpt>
<trkpt lat="45.9134990" lon="10.2580050">
	<ele>538.20</ele>
	<time>2025-04-30T09:37:57.000Z</time>
</trkpt>
<trkpt lat="45.9135030" lon="10.2580260">
	<ele>538.00</ele>
	<time>2025-04-30T09:37:58.000Z</time>
</trkpt>
<trkpt lat="45.9134890" lon="10.2580690">
	<ele>537.80</ele>
	<time>2025-04-30T09:37:59.000Z</time>
</trkpt>
<trkpt lat="45.9134850" lon="10.2580980">
	<ele>537.60</ele>
	<time>2025-04-30T09:38:00.000Z</time>
</trkpt>
<trkpt lat="45.9134970" lon="10.2581100">
	<ele>537.40</ele>
	<time>2025-04-30T09:38:01.000Z</time>
</trkpt>
<trkpt lat="45.9135090" lon="10.2581250">
	<ele>537.20</ele>
	<time>2025-04-30T09:38:02.000Z</time>
</trkpt>
<trkpt lat="45.9135190" lon="10.2581410">
	<ele>537.00</ele>
	<time>2025-04-30T09:38:03.000Z</time>
</trkpt>
<trkpt lat="45.9135320" lon="10.2581470">
	<ele>536.80</ele>
	<time>2025-04-30T09:38:04.000Z</time>
</trkpt>
<trkpt lat="45.9135490" lon="10.2581480">
	<ele>536.80</ele>
	<time>2025-04-30T09:38:05.000Z</time>
</trkpt>
<trkpt lat="45.9135650" lon="10.2581520">
	<ele>536.60</ele>
	<time>2025-04-30T09:38:06.000Z</time>
</trkpt>
<trkpt lat="45.9135790" lon="10.2581550">
	<ele>536.40</ele>
	<time>2025-04-30T09:38:07.000Z</time>
</trkpt>
<trkpt lat="45.9135900" lon="10.2581660">
	<ele>536.40</ele>
	<time>2025-04-30T09:38:08.000Z</time>
</trkpt>
<trkpt lat="45.9136030" lon="10.2581730">
	<ele>536.40</ele>
	<time>2025-04-30T09:38:09.000Z</time>
</trkpt>
<trkpt lat="45.9136170" lon="10.2581800">
	<ele>536.20</ele>
	<time>2025-04-30T09:38:10.000Z</time>
</trkpt>
<trkpt lat="45.9136290" lon="10.2581880">
	<ele>536.20</ele>
	<time>2025-04-30T09:38:11.000Z</time>
</trkpt>
<trkpt lat="45.9136420" lon="10.2581980">
	<ele>536.00</ele>
	<time>2025-04-30T09:38:12.000Z</time>
</trkpt>
<trkpt lat="45.9136530" lon="10.2582110">
	<ele>536.00</ele>
	<time>2025-04-30T09:38:13.000Z</time>
</trkpt>
<trkpt lat="45.9136660" lon="10.2582220">
	<ele>535.80</ele>
	<time>2025-04-30T09:38:14.000Z</time>
</trkpt>
<trkpt lat="45.9136840" lon="10.2582290">
	<ele>535.60</ele>
	<time>2025-04-30T09:38:15.000Z</time>
</trkpt>
<trkpt lat="45.9137020" lon="10.2582360">
	<ele>535.60</ele>
	<time>2025-04-30T09:38:16.000Z</time>
</trkpt>
<trkpt lat="45.9137120" lon="10.2582500">
	<ele>535.40</ele>
	<time>2025-04-30T09:38:17.000Z</time>
</trkpt>
<trkpt lat="45.9137210" lon="10.2582640">
	<ele>535.20</ele>
	<time>2025-04-30T09:38:18.000Z</time>
</trkpt>
<trkpt lat="45.9137390" lon="10.2582770">
	<ele>535.20</ele>
	<time>2025-04-30T09:38:19.000Z</time>
</trkpt>
<trkpt lat="45.9137540" lon="10.2582870">
	<ele>535.00</ele>
	<time>2025-04-30T09:38:20.000Z</time>
</trkpt>
<trkpt lat="45.9137680" lon="10.2583010">
	<ele>535.00</ele>
	<time>2025-04-30T09:38:21.000Z</time>
</trkpt>
<trkpt lat="45.9137800" lon="10.2583150">
	<ele>534.80</ele>
	<time>2025-04-30T09:38:22.000Z</time>
</trkpt>
<trkpt lat="45.9137930" lon="10.2583280">
	<ele>534.80</ele>
	<time>2025-04-30T09:38:23.000Z</time>
</trkpt>
<trkpt lat="45.9138060" lon="10.2583430">
	<ele>534.60</ele>
	<time>2025-04-30T09:38:24.000Z</time>
</trkpt>
<trkpt lat="45.9138230" lon="10.2583500">
	<ele>534.40</ele>
	<time>2025-04-30T09:38:25.000Z</time>
</trkpt>
<trkpt lat="45.9138380" lon="10.2583530">
	<ele>534.40</ele>
	<time>2025-04-30T09:38:26.000Z</time>
</trkpt>
<trkpt lat="45.9138520" lon="10.2583580">
	<ele>534.20</ele>
	<time>2025-04-30T09:38:27.000Z</time>
</trkpt>
<trkpt lat="45.9138600" lon="10.2583770">
	<ele>534.00</ele>
	<time>2025-04-30T09:38:28.000Z</time>
</trkpt>
<trkpt lat="45.9138670" lon="10.2583970">
	<ele>534.00</ele>
	<time>2025-04-30T09:38:29.000Z</time>
</trkpt>
<trkpt lat="45.9138760" lon="10.2584100">
	<ele>534.00</ele>
	<time>2025-04-30T09:38:30.000Z</time>
</trkpt>
<trkpt lat="45.9138770" lon="10.2584300">
	<ele>533.80</ele>
	<time>2025-04-30T09:38:31.000Z</time>
</trkpt>
<trkpt lat="45.9138850" lon="10.2584420">
	<ele>533.80</ele>
	<time>2025-04-30T09:38:32.000Z</time>
</trkpt>
<trkpt lat="45.9139020" lon="10.2584450">
	<ele>533.60</ele>
	<time>2025-04-30T09:38:33.000Z</time>
</trkpt>
<trkpt lat="45.9139120" lon="10.2584540">
	<ele>533.40</ele>
	<time>2025-04-30T09:38:34.000Z</time>
</trkpt>
<trkpt lat="45.9139250" lon="10.2584640">
	<ele>533.20</ele>
	<time>2025-04-30T09:38:35.000Z</time>
</trkpt>
<trkpt lat="45.9139330" lon="10.2584840">
	<ele>533.00</ele>
	<time>2025-04-30T09:38:36.000Z</time>
</trkpt>
<trkpt lat="45.9139400" lon="10.2585060">
	<ele>533.00</ele>
	<time>2025-04-30T09:38:37.000Z</time>
</trkpt>
<trkpt lat="45.9139520" lon="10.2585210">
	<ele>532.80</ele>
	<time>2025-04-30T09:38:38.000Z</time>
</trkpt>
<trkpt lat="45.9139660" lon="10.2585260">
	<ele>532.60</ele>
	<time>2025-04-30T09:38:39.000Z</time>
</trkpt>
<trkpt lat="45.9139840" lon="10.2585300">
	<ele>532.40</ele>
	<time>2025-04-30T09:38:40.000Z</time>
</trkpt>
<trkpt lat="45.9140000" lon="10.2585330">
	<ele>532.20</ele>
	<time>2025-04-30T09:38:41.000Z</time>
</trkpt>
<trkpt lat="45.9140150" lon="10.2585440">
	<ele>532.20</ele>
	<time>2025-04-30T09:38:42.000Z</time>
</trkpt>
<trkpt lat="45.9140270" lon="10.2585560">
	<ele>532.00</ele>
	<time>2025-04-30T09:38:43.000Z</time>
</trkpt>
<trkpt lat="45.9140410" lon="10.2585660">
	<ele>531.80</ele>
	<time>2025-04-30T09:38:44.000Z</time>
</trkpt>
<trkpt lat="45.9140540" lon="10.2585760">
	<ele>531.60</ele>
	<time>2025-04-30T09:38:45.000Z</time>
</trkpt>
<trkpt lat="45.9140660" lon="10.2585860">
	<ele>531.40</ele>
	<time>2025-04-30T09:38:46.000Z</time>
</trkpt>
<trkpt lat="45.9140770" lon="10.2585970">
	<ele>531.00</ele>
	<time>2025-04-30T09:38:47.000Z</time>
</trkpt>
<trkpt lat="45.9140920" lon="10.2586080">
	<ele>530.80</ele>
	<time>2025-04-30T09:38:48.000Z</time>
</trkpt>
<trkpt lat="45.9141080" lon="10.2586200">
	<ele>530.60</ele>
	<time>2025-04-30T09:38:49.000Z</time>
</trkpt>
<trkpt lat="45.9141250" lon="10.2586320">
	<ele>530.40</ele>
	<time>2025-04-30T09:38:50.000Z</time>
</trkpt>
<trkpt lat="45.9141440" lon="10.2586440">
	<ele>530.20</ele>
	<time>2025-04-30T09:38:51.000Z</time>
</trkpt>
<trkpt lat="45.9141620" lon="10.2586530">
	<ele>530.00</ele>
	<time>2025-04-30T09:38:52.000Z</time>
</trkpt>
<trkpt lat="45.9141780" lon="10.2586570">
	<ele>529.60</ele>
	<time>2025-04-30T09:38:53.000Z</time>
</trkpt>
<trkpt lat="45.9141900" lon="10.2586660">
	<ele>529.40</ele>
	<time>2025-04-30T09:38:54.000Z</time>
</trkpt>
<trkpt lat="45.9141980" lon="10.2586800">
	<ele>529.20</ele>
	<time>2025-04-30T09:38:55.000Z</time>
</trkpt>
<trkpt lat="45.9142070" lon="10.2586940">
	<ele>529.00</ele>
	<time>2025-04-30T09:38:56.000Z</time>
</trkpt>
<trkpt lat="45.9142170" lon="10.2587030">
	<ele>528.80</ele>
	<time>2025-04-30T09:38:57.000Z</time>
</trkpt>
<trkpt lat="45.9142270" lon="10.2587140">
	<ele>528.40</ele>
	<time>2025-04-30T09:38:58.000Z</time>
</trkpt>
<trkpt lat="45.9142330" lon="10.2587360">
	<ele>528.40</ele>
	<time>2025-04-30T09:38:59.000Z</time>
</trkpt>
<trkpt lat="45.9142470" lon="10.2587520">
	<ele>528.00</ele>
	<time>2025-04-30T09:39:00.000Z</time>
</trkpt>
<trkpt lat="45.9142650" lon="10.2587550">
	<ele>527.60</ele>
	<time>2025-04-30T09:39:01.000Z</time>
</trkpt>
<trkpt lat="45.9142890" lon="10.2587460">
	<ele>527.40</ele>
	<time>2025-04-30T09:39:02.000Z</time>
</trkpt>
<trkpt lat="45.9143100" lon="10.2587410">
	<ele>527.20</ele>
	<time>2025-04-30T09:39:03.000Z</time>
</trkpt>
<trkpt lat="45.9143300" lon="10.2587410">
	<ele>526.80</ele>
	<time>2025-04-30T09:39:04.000Z</time>
</trkpt>
<trkpt lat="45.9143430" lon="10.2587520">
	<ele>526.40</ele>
	<time>2025-04-30T09:39:05.000Z</time>
</trkpt>
<trkpt lat="45.9143470" lon="10.2587680">
	<ele>526.20</ele>
	<time>2025-04-30T09:39:06.000Z</time>
</trkpt>
<trkpt lat="45.9143630" lon="10.2587790">
	<ele>525.80</ele>
	<time>2025-04-30T09:39:07.000Z</time>
</trkpt>
<trkpt lat="45.9143800" lon="10.2587900">
	<ele>525.60</ele>
	<time>2025-04-30T09:39:08.000Z</time>
</trkpt>
<trkpt lat="45.9143960" lon="10.2588050">
	<ele>525.20</ele>
	<time>2025-04-30T09:39:09.000Z</time>
</trkpt>
<trkpt lat="45.9144090" lon="10.2588240">
	<ele>524.80</ele>
	<time>2025-04-30T09:39:10.000Z</time>
</trkpt>
<trkpt lat="45.9144240" lon="10.2588360">
	<ele>524.60</ele>
	<time>2025-04-30T09:39:11.000Z</time>
</trkpt>
<trkpt lat="45.9144400" lon="10.2588440">
	<ele>524.40</ele>
	<time>2025-04-30T09:39:12.000Z</time>
</trkpt>
<trkpt lat="45.9144540" lon="10.2588610">
	<ele>524.20</ele>
	<time>2025-04-30T09:39:13.000Z</time>
</trkpt>
<trkpt lat="45.9144670" lon="10.2588790">
	<ele>523.80</ele>
	<time>2025-04-30T09:39:14.000Z</time>
</trkpt>
<trkpt lat="45.9144680" lon="10.2588960">
	<ele>523.60</ele>
	<time>2025-04-30T09:39:15.000Z</time>
</trkpt>
<trkpt lat="45.9144780" lon="10.2589100">
	<ele>523.20</ele>
	<time>2025-04-30T09:39:16.000Z</time>
</trkpt>
<trkpt lat="45.9144940" lon="10.2589190">
	<ele>523.20</ele>
	<time>2025-04-30T09:39:17.000Z</time>
</trkpt>
<trkpt lat="45.9145160" lon="10.2589180">
	<ele>523.00</ele>
	<time>2025-04-30T09:39:18.000Z</time>
</trkpt>
<trkpt lat="45.9145340" lon="10.2589240">
	<ele>522.80</ele>
	<time>2025-04-30T09:39:19.000Z</time>
</trkpt>
<trkpt lat="45.9145460" lon="10.2589310">
	<ele>522.40</ele>
	<time>2025-04-30T09:39:20.000Z</time>
</trkpt>
<trkpt lat="45.9145620" lon="10.2589370">
	<ele>522.20</ele>
	<time>2025-04-30T09:39:21.000Z</time>
</trkpt>
<trkpt lat="45.9145750" lon="10.2589490">
	<ele>522.00</ele>
	<time>2025-04-30T09:39:22.000Z</time>
</trkpt>
<trkpt lat="45.9145850" lon="10.2589590">
	<ele>521.80</ele>
	<time>2025-04-30T09:39:23.000Z</time>
</trkpt>
<trkpt lat="45.9145940" lon="10.2589730">
	<ele>521.60</ele>
	<time>2025-04-30T09:39:24.000Z</time>
</trkpt>
<trkpt lat="45.9146040" lon="10.2589860">
	<ele>521.40</ele>
	<time>2025-04-30T09:39:25.000Z</time>
</trkpt>
<trkpt lat="45.9146210" lon="10.2590030">
	<ele>521.20</ele>
	<time>2025-04-30T09:39:26.000Z</time>
</trkpt>
<trkpt lat="45.9146350" lon="10.2590210">
	<ele>521.00</ele>
	<time>2025-04-30T09:39:27.000Z</time>
</trkpt>
<trkpt lat="45.9146510" lon="10.2590360">
	<ele>520.80</ele>
	<time>2025-04-30T09:39:28.000Z</time>
</trkpt>
<trkpt lat="45.9146620" lon="10.2590470">
	<ele>520.60</ele>
	<time>2025-04-30T09:39:29.000Z</time>
</trkpt>
<trkpt lat="45.9146790" lon="10.2590500">
	<ele>520.40</ele>
	<time>2025-04-30T09:39:30.000Z</time>
</trkpt>
<trkpt lat="45.9146890" lon="10.2590550">
	<ele>520.00</ele>
	<time>2025-04-30T09:39:31.000Z</time>
</trkpt>
<trkpt lat="45.9147030" lon="10.2590570">
	<ele>519.80</ele>
	<time>2025-04-30T09:39:32.000Z</time>
</trkpt>
<trkpt lat="45.9147220" lon="10.2590630">
	<ele>519.60</ele>
	<time>2025-04-30T09:39:33.000Z</time>
</trkpt>
<trkpt lat="45.9147490" lon="10.2590720">
	<ele>519.40</ele>
	<time>2025-04-30T09:39:34.000Z</time>
</trkpt>
<trkpt lat="45.9147780" lon="10.2590800">
	<ele>519.20</ele>
	<time>2025-04-30T09:39:35.000Z</time>
</trkpt>
<trkpt lat="45.9147990" lon="10.2590930">
	<ele>519.00</ele>
	<time>2025-04-30T09:39:36.000Z</time>
</trkpt>
<trkpt lat="45.9148160" lon="10.2591150">
	<ele>518.80</ele>
	<time>2025-04-30T09:39:37.000Z</time>
</trkpt>
<trkpt lat="45.9148290" lon="10.2591360">
	<ele>518.40</ele>
	<time>2025-04-30T09:39:38.000Z</time>
</trkpt>
<trkpt lat="45.9148350" lon="10.2591560">
	<ele>518.20</ele>
	<time>2025-04-30T09:39:39.000Z</time>
</trkpt>
<trkpt lat="45.9148420" lon="10.2591720">
	<ele>518.00</ele>
	<time>2025-04-30T09:39:40.000Z</time>
</trkpt>
<trkpt lat="45.9148590" lon="10.2591840">
	<ele>517.80</ele>
	<time>2025-04-30T09:39:41.000Z</time>
</trkpt>
<trkpt lat="45.9148720" lon="10.2591910">
	<ele>517.40</ele>
	<time>2025-04-30T09:39:42.000Z</time>
</trkpt>
<trkpt lat="45.9148840" lon="10.2592050">
	<ele>517.20</ele>
	<time>2025-04-30T09:39:43.000Z</time>
</trkpt>
<trkpt lat="45.9149040" lon="10.2592160">
	<ele>516.80</ele>
	<time>2025-04-30T09:39:44.000Z</time>
</trkpt>
<trkpt lat="45.9149320" lon="10.2592210">
	<ele>516.40</ele>
	<time>2025-04-30T09:39:45.000Z</time>
</trkpt>
<trkpt lat="45.9149600" lon="10.2592250">
	<ele>516.00</ele>
	<time>2025-04-30T09:39:46.000Z</time>
</trkpt>
<trkpt lat="45.9149840" lon="10.2592300">
	<ele>515.80</ele>
	<time>2025-04-30T09:39:47.000Z</time>
</trkpt>
<trkpt lat="45.9149950" lon="10.2592380">
	<ele>515.60</ele>
	<time>2025-04-30T09:39:48.000Z</time>
</trkpt>
<trkpt lat="45.9150000" lon="10.2592510">
	<ele>515.20</ele>
	<time>2025-04-30T09:39:49.000Z</time>
</trkpt>
<trkpt lat="45.9150200" lon="10.2592540">
	<ele>514.80</ele>
	<time>2025-04-30T09:39:50.000Z</time>
</trkpt>
<trkpt lat="45.9150420" lon="10.2592670">
	<ele>514.60</ele>
	<time>2025-04-30T09:39:51.000Z</time>
</trkpt>
<trkpt lat="45.9150680" lon="10.2592730">
	<ele>514.40</ele>
	<time>2025-04-30T09:39:52.000Z</time>
</trkpt>
<trkpt lat="45.9150970" lon="10.2592780">
	<ele>514.00</ele>
	<time>2025-04-30T09:39:53.000Z</time>
</trkpt>
<trkpt lat="45.9151190" lon="10.2592840">
	<ele>513.60</ele>
	<time>2025-04-30T09:39:54.000Z</time>
</trkpt>
<trkpt lat="45.9151200" lon="10.2593020">
	<ele>513.40</ele>
	<time>2025-04-30T09:39:55.000Z</time>
</trkpt>
<trkpt lat="45.9151240" lon="10.2593110">
	<ele>512.80</ele>
	<time>2025-04-30T09:39:56.000Z</time>
</trkpt>
<trkpt lat="45.9151330" lon="10.2593200">
	<ele>512.60</ele>
	<time>2025-04-30T09:39:57.000Z</time>
</trkpt>
<trkpt lat="45.9151390" lon="10.2593350">
	<ele>512.20</ele>
	<time>2025-04-30T09:39:58.000Z</time>
</trkpt>
<trkpt lat="45.9151490" lon="10.2593550">
	<ele>512.00</ele>
	<time>2025-04-30T09:39:59.000Z</time>
</trkpt>
<trkpt lat="45.9151630" lon="10.2593800">
	<ele>511.60</ele>
	<time>2025-04-30T09:40:00.000Z</time>
</trkpt>
<trkpt lat="45.9151700" lon="10.2594030">
	<ele>511.20</ele>
	<time>2025-04-30T09:40:01.000Z</time>
</trkpt>
<trkpt lat="45.9151760" lon="10.2594070">
	<ele>510.80</ele>
	<time>2025-04-30T09:40:02.000Z</time>
</trkpt>
<trkpt lat="45.9151860" lon="10.2594180">
	<ele>510.40</ele>
	<time>2025-04-30T09:40:03.000Z</time>
</trkpt>
<trkpt lat="45.9152060" lon="10.2594210">
	<ele>510.20</ele>
	<time>2025-04-30T09:40:04.000Z</time>
</trkpt>
<trkpt lat="45.9152220" lon="10.2594330">
	<ele>509.80</ele>
	<time>2025-04-30T09:40:05.000Z</time>
</trkpt>
<trkpt lat="45.9152460" lon="10.2594370">
	<ele>509.40</ele>
	<time>2025-04-30T09:40:06.000Z</time>
</trkpt>
<trkpt lat="45.9152640" lon="10.2594490">
	<ele>509.00</ele>
	<time>2025-04-30T09:40:07.000Z</time>
</trkpt>
<trkpt lat="45.9152770" lon="10.2594620">
	<ele>508.80</ele>
	<time>2025-04-30T09:40:08.000Z</time>
</trkpt>
<trkpt lat="45.9152910" lon="10.2594750">
	<ele>508.40</ele>
	<time>2025-04-30T09:40:09.000Z</time>
</trkpt>
<trkpt lat="45.9153080" lon="10.2594930">
	<ele>508.00</ele>
	<time>2025-04-30T09:40:10.000Z</time>
</trkpt>
<trkpt lat="45.9153260" lon="10.2595040">
	<ele>507.60</ele>
	<time>2025-04-30T09:40:11.000Z</time>
</trkpt>
<trkpt lat="45.9153440" lon="10.2595060">
	<ele>507.00</ele>
	<time>2025-04-30T09:40:12.000Z</time>
</trkpt>
<trkpt lat="45.9153630" lon="10.2595150">
	<ele>506.60</ele>
	<time>2025-04-30T09:40:13.000Z</time>
</trkpt>
<trkpt lat="45.9153850" lon="10.2595350">
	<ele>506.20</ele>
	<time>2025-04-30T09:40:14.000Z</time>
</trkpt>
<trkpt lat="45.9154040" lon="10.2595550">
	<ele>506.00</ele>
	<time>2025-04-30T09:40:15.000Z</time>
</trkpt>
<trkpt lat="45.9154210" lon="10.2595790">
	<ele>505.60</ele>
	<time>2025-04-30T09:40:16.000Z</time>
</trkpt>
<trkpt lat="45.9154440" lon="10.2596030">
	<ele>505.00</ele>
	<time>2025-04-30T09:40:17.000Z</time>
</trkpt>
<trkpt lat="45.9154560" lon="10.2596130">
	<ele>504.60</ele>
	<time>2025-04-30T09:40:18.000Z</time>
</trkpt>
<trkpt lat="45.9154740" lon="10.2596260">
	<ele>504.20</ele>
	<time>2025-04-30T09:40:19.000Z</time>
</trkpt>
<trkpt lat="45.9154840" lon="10.2596360">
	<ele>503.80</ele>
	<time>2025-04-30T09:40:20.000Z</time>
</trkpt>
<trkpt lat="45.9154950" lon="10.2596440">
	<ele>503.20</ele>
	<time>2025-04-30T09:40:21.000Z</time>
</trkpt>
<trkpt lat="45.9154960" lon="10.2596450">
	<ele>502.80</ele>
	<time>2025-04-30T09:40:22.000Z</time>
</trkpt>
<trkpt lat="45.9154980" lon="10.2596480">
	<ele>502.20</ele>
	<time>2025-04-30T09:40:23.000Z</time>
</trkpt>
<trkpt lat="45.9155050" lon="10.2596550">
	<ele>501.80</ele>
	<time>2025-04-30T09:40:24.000Z</time>
</trkpt>
<trkpt lat="45.9155190" lon="10.2596630">
	<ele>501.60</ele>
	<time>2025-04-30T09:40:25.000Z</time>
</trkpt>
<trkpt lat="45.9155330" lon="10.2596740">
	<ele>501.20</ele>
	<time>2025-04-30T09:40:26.000Z</time>
</trkpt>
<trkpt lat="45.9155490" lon="10.2596840">
	<ele>500.80</ele>
	<time>2025-04-30T09:40:27.000Z</time>
</trkpt>
<trkpt lat="45.9155600" lon="10.2596920">
	<ele>500.20</ele>
	<time>2025-04-30T09:40:28.000Z</time>
</trkpt>
<trkpt lat="45.9155680" lon="10.2597080">
	<ele>499.80</ele>
	<time>2025-04-30T09:40:29.000Z</time>
</trkpt>
<trkpt lat="45.9155800" lon="10.2597240">
	<ele>499.40</ele>
	<time>2025-04-30T09:40:30.000Z</time>
</trkpt>
<trkpt lat="45.9155900" lon="10.2597340">
	<ele>499.00</ele>
	<time>2025-04-30T09:40:31.000Z</time>
</trkpt>
<trkpt lat="45.9156000" lon="10.2597520">
	<ele>498.60</ele>
	<time>2025-04-30T09:40:32.000Z</time>
</trkpt>
<trkpt lat="45.9156140" lon="10.2597610">
	<ele>498.20</ele>
	<time>2025-04-30T09:40:33.000Z</time>
</trkpt>
<trkpt lat="45.9156280" lon="10.2597690">
	<ele>497.60</ele>
	<time>2025-04-30T09:40:34.000Z</time>
</trkpt>
<trkpt lat="45.9156310" lon="10.2597730">
	<ele>497.20</ele>
	<time>2025-04-30T09:40:35.000Z</time>
</trkpt>
<trkpt lat="45.9156570" lon="10.2597630">
	<ele>496.80</ele>
	<time>2025-04-30T09:40:36.000Z</time>
</trkpt>
<trkpt lat="45.9156760" lon="10.2597750">
	<ele>496.40</ele>
	<time>2025-04-30T09:40:37.000Z</time>
</trkpt>
<trkpt lat="45.9156890" lon="10.2597990">
	<ele>496.00</ele>
	<time>2025-04-30T09:40:38.000Z</time>
</trkpt>
<trkpt lat="45.9157000" lon="10.2598250">
	<ele>495.40</ele>
	<time>2025-04-30T09:40:39.000Z</time>
</trkpt>
<trkpt lat="45.9157000" lon="10.2598520">
	<ele>495.00</ele>
	<time>2025-04-30T09:40:40.000Z</time>
</trkpt>
<trkpt lat="45.9157060" lon="10.2598830">
	<ele>494.60</ele>
	<time>2025-04-30T09:40:41.000Z</time>
</trkpt>
<trkpt lat="45.9157230" lon="10.2598930">
	<ele>494.40</ele>
	<time>2025-04-30T09:40:42.000Z</time>
</trkpt>
<trkpt lat="45.9157380" lon="10.2599120">
	<ele>493.80</ele>
	<time>2025-04-30T09:40:43.000Z</time>
</trkpt>
<trkpt lat="45.9157540" lon="10.2599310">
	<ele>493.40</ele>
	<time>2025-04-30T09:40:44.000Z</time>
</trkpt>
<trkpt lat="45.9157730" lon="10.2599490">
	<ele>493.00</ele>
	<time>2025-04-30T09:40:45.000Z</time>
</trkpt>
<trkpt lat="45.9157780" lon="10.2599720">
	<ele>492.60</ele>
	<time>2025-04-30T09:40:46.000Z</time>
</trkpt>
<trkpt lat="45.9157850" lon="10.2599990">
	<ele>492.00</ele>
	<time>2025-04-30T09:40:47.000Z</time>
</trkpt>
<trkpt lat="45.9157910" lon="10.2600180">
	<ele>491.60</ele>
	<time>2025-04-30T09:40:48.000Z</time>
</trkpt>
<trkpt lat="45.9157930" lon="10.2600270">
	<ele>491.20</ele>
	<time>2025-04-30T09:40:49.000Z</time>
</trkpt>
<trkpt lat="45.9158020" lon="10.2600320">
	<ele>490.80</ele>
	<time>2025-04-30T09:40:50.000Z</time>
</trkpt>
<trkpt lat="45.9158150" lon="10.2600350">
	<ele>490.40</ele>
	<time>2025-04-30T09:40:51.000Z</time>
</trkpt>
<trkpt lat="45.9158360" lon="10.2600430">
	<ele>490.00</ele>
	<time>2025-04-30T09:40:52.000Z</time>
</trkpt>
<trkpt lat="45.9158620" lon="10.2600440">
	<ele>489.40</ele>
	<time>2025-04-30T09:40:53.000Z</time>
</trkpt>
<trkpt lat="45.9158840" lon="10.2600490">
	<ele>489.00</ele>
	<time>2025-04-30T09:40:54.000Z</time>
</trkpt>
<trkpt lat="45.9158980" lon="10.2600600">
	<ele>488.60</ele>
	<time>2025-04-30T09:40:55.000Z</time>
</trkpt>
<trkpt lat="45.9159090" lon="10.2600650">
	<ele>488.00</ele>
	<time>2025-04-30T09:40:56.000Z</time>
</trkpt>
<trkpt lat="45.9159230" lon="10.2600660">
	<ele>487.60</ele>
	<time>2025-04-30T09:40:57.000Z</time>
</trkpt>
<trkpt lat="45.9159420" lon="10.2600700">
	<ele>487.00</ele>
	<time>2025-04-30T09:40:58.000Z</time>
</trkpt>
<trkpt lat="45.9159630" lon="10.2600800">
	<ele>486.60</ele>
	<time>2025-04-30T09:40:59.000Z</time>
</trkpt>
<trkpt lat="45.9159900" lon="10.2600890">
	<ele>486.20</ele>
	<time>2025-04-30T09:41:00.000Z</time>
</trkpt>
<trkpt lat="45.9160150" lon="10.2601010">
	<ele>485.80</ele>
	<time>2025-04-30T09:41:01.000Z</time>
</trkpt>
<trkpt lat="45.9160330" lon="10.2601150">
	<ele>485.20</ele>
	<time>2025-04-30T09:41:02.000Z</time>
</trkpt>
<trkpt lat="45.9160520" lon="10.2601450">
	<ele>485.00</ele>
	<time>2025-04-30T09:41:03.000Z</time>
</trkpt>
<trkpt lat="45.9160820" lon="10.2601580">
	<ele>484.40</ele>
	<time>2025-04-30T09:41:04.000Z</time>
</trkpt>
<trkpt lat="45.9161080" lon="10.2601460">
	<ele>483.80</ele>
	<time>2025-04-30T09:41:05.000Z</time>
</trkpt>
<trkpt lat="45.9161260" lon="10.2601490">
	<ele>483.20</ele>
	<time>2025-04-30T09:41:06.000Z</time>
</trkpt>
<trkpt lat="45.9161390" lon="10.2601560">
	<ele>482.80</ele>
	<time>2025-04-30T09:41:07.000Z</time>
</trkpt>
<trkpt lat="45.9161560" lon="10.2601660">
	<ele>482.40</ele>
	<time>2025-04-30T09:41:08.000Z</time>
</trkpt>
<trkpt lat="45.9161780" lon="10.2601800">
	<ele>481.80</ele>
	<time>2025-04-30T09:41:09.000Z</time>
</trkpt>
<trkpt lat="45.9161960" lon="10.2601910">
	<ele>481.00</ele>
	<time>2025-04-30T09:41:10.000Z</time>
</trkpt>
<trkpt lat="45.9162060" lon="10.2602020">
	<ele>480.60</ele>
	<time>2025-04-30T09:41:11.000Z</time>
</trkpt>
<trkpt lat="45.9162170" lon="10.2602060">
	<ele>480.20</ele>
	<time>2025-04-30T09:41:12.000Z</time>
</trkpt>
<trkpt lat="45.9162290" lon="10.2602130">
	<ele>479.60</ele>
	<time>2025-04-30T09:41:13.000Z</time>
</trkpt>
<trkpt lat="45.9162350" lon="10.2602280">
	<ele>479.20</ele>
	<time>2025-04-30T09:41:14.000Z</time>
</trkpt>
<trkpt lat="45.9162400" lon="10.2602480">
	<ele>478.60</ele>
	<time>2025-04-30T09:41:15.000Z</time>
</trkpt>
<trkpt lat="45.9162420" lon="10.2602660">
	<ele>478.20</ele>
	<time>2025-04-30T09:41:16.000Z</time>
</trkpt>
<trkpt lat="45.9162500" lon="10.2602750">
	<ele>477.60</ele>
	<time>2025-04-30T09:41:17.000Z</time>
</trkpt>
<trkpt lat="45.9162640" lon="10.2602900">
	<ele>477.00</ele>
	<time>2025-04-30T09:41:18.000Z</time>
</trkpt>
<trkpt lat="45.9162960" lon="10.2602950">
	<ele>476.40</ele>
	<time>2025-04-30T09:41:19.000Z</time>
</trkpt>
<trkpt lat="45.9163230" lon="10.2603020">
	<ele>476.00</ele>
	<time>2025-04-30T09:41:20.000Z</time>
</trkpt>
<trkpt lat="45.9163390" lon="10.2603220">
	<ele>475.40</ele>
	<time>2025-04-30T09:41:21.000Z</time>
</trkpt>
<trkpt lat="45.9163440" lon="10.2603530">
	<ele>475.00</ele>
	<time>2025-04-30T09:41:22.000Z</time>
</trkpt>
<trkpt lat="45.9163460" lon="10.2603800">
	<ele>474.60</ele>
	<time>2025-04-30T09:41:23.000Z</time>
</trkpt>
<trkpt lat="45.9163640" lon="10.2604000">
	<ele>474.00</ele>
	<time>2025-04-30T09:41:24.000Z</time>
</trkpt>
<trkpt lat="45.9163850" lon="10.2604120">
	<ele>473.40</ele>
	<time>2025-04-30T09:41:25.000Z</time>
</trkpt>
<trkpt lat="45.9163960" lon="10.2604120">
	<ele>473.00</ele>
	<time>2025-04-30T09:41:26.000Z</time>
</trkpt>
<trkpt lat="45.9163950" lon="10.2604250">
	<ele>472.40</ele>
	<time>2025-04-30T09:41:27.000Z</time>
</trkpt>
<trkpt lat="45.9164130" lon="10.2604390">
	<ele>472.00</ele>
	<time>2025-04-30T09:41:28.000Z</time>
</trkpt>
<trkpt lat="45.9164300" lon="10.2604470">
	<ele>471.60</ele>
	<time>2025-04-30T09:41:29.000Z</time>
</trkpt>
<trkpt lat="45.9164460" lon="10.2604570">
	<ele>471.20</ele>
	<time>2025-04-30T09:41:30.000Z</time>
</trkpt>
<trkpt lat="45.9164580" lon="10.2604670">
	<ele>470.80</ele>
	<time>2025-04-30T09:41:31.000Z</time>
</trkpt>
<trkpt lat="45.9164740" lon="10.2604750">
	<ele>470.40</ele>
	<time>2025-04-30T09:41:32.000Z</time>
</trkpt>
<trkpt lat="45.9164870" lon="10.2604810">
	<ele>470.00</ele>
	<time>2025-04-30T09:41:33.000Z</time>
</trkpt>
<trkpt lat="45.9164940" lon="10.2604840">
	<ele>469.80</ele>
	<time>2025-04-30T09:41:34.000Z</time>
</trkpt>
<trkpt lat="45.9164920" lon="10.2604940">
	<ele>469.60</ele>
	<time>2025-04-30T09:41:35.000Z</time>
</trkpt>
<trkpt lat="45.9165020" lon="10.2604990">
	<ele>469.40</ele>
	<time>2025-04-30T09:41:36.000Z</time>
</trkpt>
<trkpt lat="45.9165170" lon="10.2605000">
	<ele>469.20</ele>
	<time>2025-04-30T09:41:37.000Z</time>
</trkpt>
<trkpt lat="45.9165430" lon="10.2605030">
	<ele>469.00</ele>
	<time>2025-04-30T09:41:38.000Z</time>
</trkpt>
<trkpt lat="45.9165740" lon="10.2605000">
	<ele>468.60</ele>
	<time>2025-04-30T09:41:39.000Z</time>
</trkpt>
<trkpt lat="45.9166040" lon="10.2604870">
	<ele>468.20</ele>
	<time>2025-04-30T09:41:40.000Z</time>
</trkpt>
<trkpt lat="45.9166090" lon="10.2604840">
	<ele>467.80</ele>
	<time>2025-04-30T09:41:41.000Z</time>
</trkpt>
<trkpt lat="45.9166330" lon="10.2604670">
	<ele>467.60</ele>
	<time>2025-04-30T09:41:42.000Z</time>
</trkpt>
<trkpt lat="45.9166600" lon="10.2604490">
	<ele>467.40</ele>
	<time>2025-04-30T09:41:43.000Z</time>
</trkpt>
<trkpt lat="45.9166890" lon="10.2604360">
	<ele>466.80</ele>
	<time>2025-04-30T09:41:44.000Z</time>
</trkpt>
<trkpt lat="45.9167140" lon="10.2604230">
	<ele>466.40</ele>
	<time>2025-04-30T09:41:45.000Z</time>
</trkpt>
<trkpt lat="45.9167190" lon="10.2604160">
	<ele>466.20</ele>
	<time>2025-04-30T09:41:46.000Z</time>
</trkpt>
<trkpt lat="45.9167180" lon="10.2604120">
	<ele>466.00</ele>
	<time>2025-04-30T09:41:47.000Z</time>
</trkpt>
<trkpt lat="45.9167200" lon="10.2604090">
	<ele>465.80</ele>
	<time>2025-04-30T09:41:48.000Z</time>
</trkpt>
<trkpt lat="45.9167330" lon="10.2604000">
	<ele>465.40</ele>
	<time>2025-04-30T09:41:49.000Z</time>
</trkpt>
<trkpt lat="45.9167440" lon="10.2603770">
	<ele>465.20</ele>
	<time>2025-04-30T09:41:50.000Z</time>
</trkpt>
<trkpt lat="45.9167610" lon="10.2603570">
	<ele>465.00</ele>
	<time>2025-04-30T09:41:51.000Z</time>
</trkpt>
<trkpt lat="45.9167680" lon="10.2603370">
	<ele>464.80</ele>
	<time>2025-04-30T09:41:52.000Z</time>
</trkpt>
<trkpt lat="45.9167850" lon="10.2603180">
	<ele>464.60</ele>
	<time>2025-04-30T09:41:53.000Z</time>
</trkpt>
<trkpt lat="45.9167970" lon="10.2603040">
	<ele>464.40</ele>
	<time>2025-04-30T09:41:54.000Z</time>
</trkpt>
<trkpt lat="45.9168150" lon="10.2602870">
	<ele>464.20</ele>
	<time>2025-04-30T09:41:55.000Z</time>
</trkpt>
<trkpt lat="45.9168310" lon="10.2602700">
	<ele>464.00</ele>
	<time>2025-04-30T09:41:56.000Z</time>
</trkpt>
<trkpt lat="45.9168450" lon="10.2602530">
	<ele>464.00</ele>
	<time>2025-04-30T09:41:57.000Z</time>
</trkpt>
<trkpt lat="45.9168620" lon="10.2602370">
	<ele>464.00</ele>
	<time>2025-04-30T09:41:58.000Z</time>
</trkpt>
<trkpt lat="45.9168820" lon="10.2602180">
	<ele>463.80</ele>
	<time>2025-04-30T09:41:59.000Z</time>
</trkpt>
<trkpt lat="45.9168940" lon="10.2602040">
	<ele>463.60</ele>
	<time>2025-04-30T09:42:00.000Z</time>
</trkpt>
<trkpt lat="45.9169050" lon="10.2601880">
	<ele>463.40</ele>
	<time>2025-04-30T09:42:01.000Z</time>
</trkpt>
<trkpt lat="45.9169240" lon="10.2601770">
	<ele>463.20</ele>
	<time>2025-04-30T09:42:02.000Z</time>
</trkpt>
<trkpt lat="45.9169430" lon="10.2601700">
	<ele>462.80</ele>
	<time>2025-04-30T09:42:03.000Z</time>
</trkpt>
<trkpt lat="45.9169710" lon="10.2601450">
	<ele>462.40</ele>
	<time>2025-04-30T09:42:04.000Z</time>
</trkpt>
<trkpt lat="45.9170020" lon="10.2601170">
	<ele>462.20</ele>
	<time>2025-04-30T09:42:05.000Z</time>
</trkpt>
<trkpt lat="45.9170190" lon="10.2601110">
	<ele>461.80</ele>
	<time>2025-04-30T09:42:06.000Z</time>
</trkpt>
<trkpt lat="45.9170340" lon="10.2600990">
	<ele>461.80</ele>
	<time>2025-04-30T09:42:07.000Z</time>
</trkpt>
<trkpt lat="45.9170670" lon="10.2600770">
	<ele>461.60</ele>
	<time>2025-04-30T09:42:08.000Z</time>
</trkpt>
<trkpt lat="45.9171050" lon="10.2600680">
	<ele>461.00</ele>
	<time>2025-04-30T09:42:09.000Z</time>
</trkpt>
<trkpt lat="45.9171180" lon="10.2600550">
	<ele>460.80</ele>
	<time>2025-04-30T09:42:10.000Z</time>
</trkpt>
<trkpt lat="45.9171230" lon="10.2600340">
	<ele>460.60</ele>
	<time>2025-04-30T09:42:11.000Z</time>
</trkpt>
<trkpt lat="45.9171340" lon="10.2600200">
	<ele>460.60</ele>
	<time>2025-04-30T09:42:12.000Z</time>
</trkpt>
<trkpt lat="45.9171450" lon="10.2600060">
	<ele>460.40</ele>
	<time>2025-04-30T09:42:13.000Z</time>
</trkpt>
<trkpt lat="45.9171600" lon="10.2599930">
	<ele>460.00</ele>
	<time>2025-04-30T09:42:14.000Z</time>
</trkpt>
<trkpt lat="45.9171810" lon="10.2599780">
	<ele>459.60</ele>
	<time>2025-04-30T09:42:15.000Z</time>
</trkpt>
<trkpt lat="45.9171950" lon="10.2599680">
	<ele>459.40</ele>
	<time>2025-04-30T09:42:16.000Z</time>
</trkpt>
<trkpt lat="45.9172140" lon="10.2599550">
	<ele>459.20</ele>
	<time>2025-04-30T09:42:17.000Z</time>
</trkpt>
<trkpt lat="45.9172310" lon="10.2599470">
	<ele>459.00</ele>
	<time>2025-04-30T09:42:18.000Z</time>
</trkpt>
<trkpt lat="45.9172380" lon="10.2599360">
	<ele>458.60</ele>
	<time>2025-04-30T09:42:19.000Z</time>
</trkpt>
<trkpt lat="45.9172450" lon="10.2599220">
	<ele>458.20</ele>
	<time>2025-04-30T09:42:20.000Z</time>
</trkpt>
<trkpt lat="45.9172520" lon="10.2599090">
	<ele>458.00</ele>
	<time>2025-04-30T09:42:21.000Z</time>
</trkpt>
<trkpt lat="45.9172490" lon="10.2598910">
	<ele>457.80</ele>
	<time>2025-04-30T09:42:22.000Z</time>
</trkpt>
<trkpt lat="45.9172410" lon="10.2598750">
	<ele>457.60</ele>
	<time>2025-04-30T09:42:23.000Z</time>
</trkpt>
<trkpt lat="45.9172440" lon="10.2598610">
	<ele>457.40</ele>
	<time>2025-04-30T09:42:24.000Z</time>
</trkpt>
<trkpt lat="45.9172580" lon="10.2598440">
	<ele>457.00</ele>
	<time>2025-04-30T09:42:25.000Z</time>
</trkpt>
<trkpt lat="45.9172720" lon="10.2598240">
	<ele>456.60</ele>
	<time>2025-04-30T09:42:26.000Z</time>
</trkpt>
<trkpt lat="45.9172830" lon="10.2598030">
	<ele>456.20</ele>
	<time>2025-04-30T09:42:27.000Z</time>
</trkpt>
<trkpt lat="45.9172880" lon="10.2597920">
	<ele>455.80</ele>
	<time>2025-04-30T09:42:28.000Z</time>
</trkpt>
<trkpt lat="45.9172940" lon="10.2597710">
	<ele>455.60</ele>
	<time>2025-04-30T09:42:29.000Z</time>
</trkpt>
<trkpt lat="45.9173000" lon="10.2597480">
	<ele>455.40</ele>
	<time>2025-04-30T09:42:30.000Z</time>
</trkpt>
<trkpt lat="45.9173030" lon="10.2597340">
	<ele>455.00</ele>
	<time>2025-04-30T09:42:31.000Z</time>
</trkpt>
<trkpt lat="45.9173050" lon="10.2597270">
	<ele>454.80</ele>
	<time>2025-04-30T09:42:32.000Z</time>
</trkpt>
<trkpt lat="45.9173050" lon="10.2597200">
	<ele>454.40</ele>
	<time>2025-04-30T09:42:33.000Z</time>
</trkpt>
<trkpt lat="45.9173140" lon="10.2597200">
	<ele>454.00</ele>
	<time>2025-04-30T09:42:34.000Z</time>
</trkpt>
<trkpt lat="45.9173310" lon="10.2596980">
	<ele>453.60</ele>
	<time>2025-04-30T09:42:35.000Z</time>
</trkpt>
<trkpt lat="45.9173450" lon="10.2596720">
	<ele>453.40</ele>
	<time>2025-04-30T09:42:36.000Z</time>
</trkpt>
<trkpt lat="45.9173630" lon="10.2596430">
	<ele>453.00</ele>
	<time>2025-04-30T09:42:37.000Z</time>
</trkpt>
<trkpt lat="45.9173760" lon="10.2596090">
	<ele>453.00</ele>
	<time>2025-04-30T09:42:38.000Z</time>
</trkpt>
<trkpt lat="45.9173920" lon="10.2595810">
	<ele>452.60</ele>
	<time>2025-04-30T09:42:39.000Z</time>
</trkpt>
<trkpt lat="45.9174010" lon="10.2595570">
	<ele>452.20</ele>
	<time>2025-04-30T09:42:40.000Z</time>
</trkpt>
<trkpt lat="45.9174150" lon="10.2595350">
	<ele>452.00</ele>
	<time>2025-04-30T09:42:41.000Z</time>
</trkpt>
<trkpt lat="45.9174320" lon="10.2595180">
	<ele>451.80</ele>
	<time>2025-04-30T09:42:42.000Z</time>
</trkpt>
<trkpt lat="45.9174390" lon="10.2595020">
	<ele>451.60</ele>
	<time>2025-04-30T09:42:43.000Z</time>
</trkpt>
<trkpt lat="45.9174450" lon="10.2594810">
	<ele>451.20</ele>
	<time>2025-04-30T09:42:44.000Z</time>
</trkpt>
<trkpt lat="45.9174520" lon="10.2594630">
	<ele>450.80</ele>
	<time>2025-04-30T09:42:45.000Z</time>
</trkpt>
<trkpt lat="45.9174590" lon="10.2594430">
	<ele>450.40</ele>
	<time>2025-04-30T09:42:46.000Z</time>
</trkpt>
<trkpt lat="45.9174640" lon="10.2594290">
	<ele>450.20</ele>
	<time>2025-04-30T09:42:47.000Z</time>
</trkpt>
<trkpt lat="45.9174740" lon="10.2594110">
	<ele>449.80</ele>
	<time>2025-04-30T09:42:48.000Z</time>
</trkpt>
<trkpt lat="45.9174850" lon="10.2593960">
	<ele>449.20</ele>
	<time>2025-04-30T09:42:49.000Z</time>
</trkpt>
<trkpt lat="45.9174970" lon="10.2593900">
	<ele>448.80</ele>
	<time>2025-04-30T09:42:50.000Z</time>
</trkpt>
<trkpt lat="45.9175130" lon="10.2593870">
	<ele>448.40</ele>
	<time>2025-04-30T09:42:51.000Z</time>
</trkpt>
<trkpt lat="45.9175280" lon="10.2593900">
	<ele>448.20</ele>
	<time>2025-04-30T09:42:52.000Z</time>
</trkpt>
<trkpt lat="45.9175380" lon="10.2593970">
	<ele>447.80</ele>
	<time>2025-04-30T09:42:53.000Z</time>
</trkpt>
<trkpt lat="45.9175500" lon="10.2594050">
	<ele>447.40</ele>
	<time>2025-04-30T09:42:54.000Z</time>
</trkpt>
<trkpt lat="45.9175580" lon="10.2594130">
	<ele>446.80</ele>
	<time>2025-04-30T09:42:55.000Z</time>
</trkpt>
<trkpt lat="45.9175610" lon="10.2594330">
	<ele>446.40</ele>
	<time>2025-04-30T09:42:56.000Z</time>
</trkpt>
<trkpt lat="45.9175580" lon="10.2594590">
	<ele>445.80</ele>
	<time>2025-04-30T09:42:57.000Z</time>
</trkpt>
<trkpt lat="45.9175550" lon="10.2594890">
	<ele>445.40</ele>
	<time>2025-04-30T09:42:58.000Z</time>
</trkpt>
<trkpt lat="45.9175520" lon="10.2595140">
	<ele>445.00</ele>
	<time>2025-04-30T09:42:59.000Z</time>
</trkpt>
<trkpt lat="45.9175500" lon="10.2595270">
	<ele>444.40</ele>
	<time>2025-04-30T09:43:00.000Z</time>
</trkpt>
<trkpt lat="45.9175540" lon="10.2595360">
	<ele>444.00</ele>
	<time>2025-04-30T09:43:01.000Z</time>
</trkpt>
<trkpt lat="45.9175620" lon="10.2595450">
	<ele>443.40</ele>
	<time>2025-04-30T09:43:02.000Z</time>
</trkpt>
<trkpt lat="45.9175610" lon="10.2595690">
	<ele>443.00</ele>
	<time>2025-04-30T09:43:03.000Z</time>
</trkpt>
<trkpt lat="45.9175600" lon="10.2595950">
	<ele>442.40</ele>
	<time>2025-04-30T09:43:04.000Z</time>
</trkpt>
<trkpt lat="45.9175560" lon="10.2596130">
	<ele>441.80</ele>
	<time>2025-04-30T09:43:05.000Z</time>
</trkpt>
<trkpt lat="45.9175570" lon="10.2596380">
	<ele>441.40</ele>
	<time>2025-04-30T09:43:06.000Z</time>
</trkpt>
<trkpt lat="45.9175630" lon="10.2596490">
	<ele>440.80</ele>
	<time>2025-04-30T09:43:07.000Z</time>
</trkpt>
<trkpt lat="45.9175730" lon="10.2596760">
	<ele>440.40</ele>
	<time>2025-04-30T09:43:08.000Z</time>
</trkpt>
<trkpt lat="45.9175810" lon="10.2597030">
	<ele>440.00</ele>
	<time>2025-04-30T09:43:09.000Z</time>
</trkpt>
<trkpt lat="45.9175910" lon="10.2597340">
	<ele>439.60</ele>
	<time>2025-04-30T09:43:10.000Z</time>
</trkpt>
<trkpt lat="45.9176030" lon="10.2597510">
	<ele>439.00</ele>
	<time>2025-04-30T09:43:11.000Z</time>
</trkpt>
<trkpt lat="45.9176120" lon="10.2597610">
	<ele>438.40</ele>
	<time>2025-04-30T09:43:12.000Z</time>
</trkpt>
<trkpt lat="45.9176170" lon="10.2597830">
	<ele>438.00</ele>
	<time>2025-04-30T09:43:13.000Z</time>
</trkpt>
<trkpt lat="45.9176260" lon="10.2598010">
	<ele>437.60</ele>
	<time>2025-04-30T09:43:14.000Z</time>
</trkpt>
<trkpt lat="45.9176350" lon="10.2598260">
	<ele>437.00</ele>
	<time>2025-04-30T09:43:15.000Z</time>
</trkpt>
<trkpt lat="45.9176510" lon="10.2598510">
	<ele>436.40</ele>
	<time>2025-04-30T09:43:16.000Z</time>
</trkpt>
<trkpt lat="45.9176670" lon="10.2598630">
	<ele>436.00</ele>
	<time>2025-04-30T09:43:17.000Z</time>
</trkpt>
<trkpt lat="45.9176750" lon="10.2598770">
	<ele>435.80</ele>
	<time>2025-04-30T09:43:18.000Z</time>
</trkpt>
<trkpt lat="45.9176800" lon="10.2599020">
	<ele>435.20</ele>
	<time>2025-04-30T09:43:19.000Z</time>
</trkpt>
<trkpt lat="45.9176750" lon="10.2599220">
	<ele>434.80</ele>
	<time>2025-04-30T09:43:20.000Z</time>
</trkpt>
<trkpt lat="45.9176690" lon="10.2599390">
	<ele>434.20</ele>
	<time>2025-04-30T09:43:21.000Z</time>
</trkpt>
<trkpt lat="45.9176670" lon="10.2599590">
	<ele>433.60</ele>
	<time>2025-04-30T09:43:22.000Z</time>
</trkpt>
<trkpt lat="45.9176730" lon="10.2599780">
	<ele>433.00</ele>
	<time>2025-04-30T09:43:23.000Z</time>
</trkpt>
<trkpt lat="45.9176810" lon="10.2599980">
	<ele>432.40</ele>
	<time>2025-04-30T09:43:24.000Z</time>
</trkpt>
<trkpt lat="45.9176850" lon="10.2600150">
	<ele>432.00</ele>
	<time>2025-04-30T09:43:25.000Z</time>
</trkpt>
<trkpt lat="45.9176920" lon="10.2600360">
	<ele>431.40</ele>
	<time>2025-04-30T09:43:26.000Z</time>
</trkpt>
<trkpt lat="45.9176840" lon="10.2600480">
	<ele>430.80</ele>
	<time>2025-04-30T09:43:27.000Z</time>
</trkpt>
<trkpt lat="45.9176860" lon="10.2600590">
	<ele>430.40</ele>
	<time>2025-04-30T09:43:28.000Z</time>
</trkpt>
<trkpt lat="45.9176950" lon="10.2600870">
	<ele>429.80</ele>
	<time>2025-04-30T09:43:29.000Z</time>
</trkpt>
<trkpt lat="45.9176980" lon="10.2601090">
	<ele>429.20</ele>
	<time>2025-04-30T09:43:30.000Z</time>
</trkpt>
<trkpt lat="45.9176980" lon="10.2601400">
	<ele>428.80</ele>
	<time>2025-04-30T09:43:31.000Z</time>
</trkpt>
<trkpt lat="45.9176970" lon="10.2601670">
	<ele>428.40</ele>
	<time>2025-04-30T09:43:32.000Z</time>
</trkpt>
<trkpt lat="45.9176940" lon="10.2601890">
	<ele>427.80</ele>
	<time>2025-04-30T09:43:33.000Z</time>
</trkpt>
<trkpt lat="45.9177010" lon="10.2602180">
	<ele>427.20</ele>
	<time>2025-04-30T09:43:34.000Z</time>
</trkpt>
<trkpt lat="45.9177040" lon="10.2602440">
	<ele>426.80</ele>
	<time>2025-04-30T09:43:35.000Z</time>
</trkpt>
<trkpt lat="45.9177050" lon="10.2602740">
	<ele>426.40</ele>
	<time>2025-04-30T09:43:36.000Z</time>
</trkpt>
<trkpt lat="45.9177030" lon="10.2602980">
	<ele>425.80</ele>
	<time>2025-04-30T09:43:37.000Z</time>
</trkpt>
<trkpt lat="45.9177010" lon="10.2603240">
	<ele>425.40</ele>
	<time>2025-04-30T09:43:38.000Z</time>
</trkpt>
<trkpt lat="45.9177040" lon="10.2603500">
	<ele>424.80</ele>
	<time>2025-04-30T09:43:39.000Z</time>
</trkpt>
<trkpt lat="45.9177080" lon="10.2603800">
	<ele>424.40</ele>
	<time>2025-04-30T09:43:40.000Z</time>
</trkpt>
<trkpt lat="45.9177130" lon="10.2604080">
	<ele>423.80</ele>
	<time>2025-04-30T09:43:41.000Z</time>
</trkpt>
<trkpt lat="45.9177130" lon="10.2604330">
	<ele>423.00</ele>
	<time>2025-04-30T09:43:42.000Z</time>
</trkpt>
<trkpt lat="45.9177110" lon="10.2604500">
	<ele>422.60</ele>
	<time>2025-04-30T09:43:43.000Z</time>
</trkpt>
<trkpt lat="45.9177100" lon="10.2604670">
	<ele>422.00</ele>
	<time>2025-04-30T09:43:44.000Z</time>
</trkpt>
<trkpt lat="45.9177090" lon="10.2604830">
	<ele>421.40</ele>
	<time>2025-04-30T09:43:45.000Z</time>
</trkpt>
<trkpt lat="45.9177040" lon="10.2605110">
	<ele>421.00</ele>
	<time>2025-04-30T09:43:46.000Z</time>
</trkpt>
<trkpt lat="45.9176910" lon="10.2605360">
	<ele>420.60</ele>
	<time>2025-04-30T09:43:47.000Z</time>
</trkpt>
<trkpt lat="45.9176940" lon="10.2605600">
	<ele>420.20</ele>
	<time>2025-04-30T09:43:48.000Z</time>
</trkpt>
<trkpt lat="45.9177080" lon="10.2605900">
	<ele>419.80</ele>
	<time>2025-04-30T09:43:49.000Z</time>
</trkpt>
<trkpt lat="45.9177190" lon="10.2606200">
	<ele>419.40</ele>
	<time>2025-04-30T09:43:50.000Z</time>
</trkpt>
<trkpt lat="45.9177220" lon="10.2606500">
	<ele>418.80</ele>
	<time>2025-04-30T09:43:51.000Z</time>
</trkpt>
<trkpt lat="45.9177190" lon="10.2606770">
	<ele>418.60</ele>
	<time>2025-04-30T09:43:52.000Z</time>
</trkpt>
<trkpt lat="45.9177200" lon="10.2607090">
	<ele>418.20</ele>
	<time>2025-04-30T09:43:53.000Z</time>
</trkpt>
<trkpt lat="45.9177190" lon="10.2607510">
	<ele>417.80</ele>
	<time>2025-04-30T09:43:54.000Z</time>
</trkpt>
<trkpt lat="45.9177100" lon="10.2607890">
	<ele>417.20</ele>
	<time>2025-04-30T09:43:55.000Z</time>
</trkpt>
<trkpt lat="45.9176930" lon="10.2608110">
	<ele>416.80</ele>
	<time>2025-04-30T09:43:56.000Z</time>
</trkpt>
<trkpt lat="45.9176940" lon="10.2608300">
	<ele>416.40</ele>
	<time>2025-04-30T09:43:57.000Z</time>
</trkpt>
<trkpt lat="45.9176890" lon="10.2608490">
	<ele>416.00</ele>
	<time>2025-04-30T09:43:58.000Z</time>
</trkpt>
<trkpt lat="45.9176890" lon="10.2608860">
	<ele>415.40</ele>
	<time>2025-04-30T09:43:59.000Z</time>
</trkpt>
<trkpt lat="45.9176860" lon="10.2609200">
	<ele>415.20</ele>
	<time>2025-04-30T09:44:00.000Z</time>
</trkpt>
<trkpt lat="45.9176770" lon="10.2609440">
	<ele>414.80</ele>
	<time>2025-04-30T09:44:01.000Z</time>
</trkpt>
<trkpt lat="45.9176740" lon="10.2609760">
	<ele>414.40</ele>
	<time>2025-04-30T09:44:02.000Z</time>
</trkpt>
<trkpt lat="45.9176650" lon="10.2610050">
	<ele>414.00</ele>
	<time>2025-04-30T09:44:03.000Z</time>
</trkpt>
<trkpt lat="45.9176620" lon="10.2610280">
	<ele>413.60</ele>
	<time>2025-04-30T09:44:04.000Z</time>
</trkpt>
<trkpt lat="45.9176530" lon="10.2610610">
	<ele>413.40</ele>
	<time>2025-04-30T09:44:05.000Z</time>
</trkpt>
<trkpt lat="45.9176470" lon="10.2610950">
	<ele>412.80</ele>
	<time>2025-04-30T09:44:06.000Z</time>
</trkpt>
<trkpt lat="45.9176350" lon="10.2611300">
	<ele>412.60</ele>
	<time>2025-04-30T09:44:07.000Z</time>
</trkpt>
<trkpt lat="45.9176270" lon="10.2611490">
	<ele>412.00</ele>
	<time>2025-04-30T09:44:08.000Z</time>
</trkpt>
<trkpt lat="45.9176160" lon="10.2611810">
	<ele>411.60</ele>
	<time>2025-04-30T09:44:09.000Z</time>
</trkpt>
<trkpt lat="45.9176090" lon="10.2612020">
	<ele>411.40</ele>
	<time>2025-04-30T09:44:10.000Z</time>
</trkpt>
<trkpt lat="45.9176040" lon="10.2612240">
	<ele>411.20</ele>
	<time>2025-04-30T09:44:11.000Z</time>
</trkpt>
<trkpt lat="45.9176000" lon="10.2612400">
	<ele>411.00</ele>
	<time>2025-04-30T09:44:12.000Z</time>
</trkpt>
<trkpt lat="45.9176020" lon="10.2612520">
	<ele>410.80</ele>
	<time>2025-04-30T09:44:13.000Z</time>
</trkpt>
<trkpt lat="45.9176020" lon="10.2612750">
	<ele>410.60</ele>
	<time>2025-04-30T09:44:14.000Z</time>
</trkpt>
<trkpt lat="45.9176080" lon="10.2612940">
	<ele>410.40</ele>
	<time>2025-04-30T09:44:15.000Z</time>
</trkpt>
<trkpt lat="45.9176000" lon="10.2613150">
	<ele>410.20</ele>
	<time>2025-04-30T09:44:16.000Z</time>
</trkpt>
<trkpt lat="45.9176020" lon="10.2613440">
	<ele>409.80</ele>
	<time>2025-04-30T09:44:17.000Z</time>
</trkpt>
<trkpt lat="45.9176000" lon="10.2613650">
	<ele>409.60</ele>
	<time>2025-04-30T09:44:18.000Z</time>
</trkpt>
<trkpt lat="45.9175970" lon="10.2613840">
	<ele>409.40</ele>
	<time>2025-04-30T09:44:19.000Z</time>
</trkpt>
<trkpt lat="45.9176080" lon="10.2614030">
	<ele>409.20</ele>
	<time>2025-04-30T09:44:20.000Z</time>
</trkpt>
<trkpt lat="45.9176120" lon="10.2614230">
	<ele>409.00</ele>
	<time>2025-04-30T09:44:21.000Z</time>
</trkpt>
<trkpt lat="45.9176050" lon="10.2614420">
	<ele>408.40</ele>
	<time>2025-04-30T09:44:22.000Z</time>
</trkpt>
<trkpt lat="45.9176090" lon="10.2614620">
	<ele>408.00</ele>
	<time>2025-04-30T09:44:23.000Z</time>
</trkpt>
<trkpt lat="45.9175960" lon="10.2614800">
	<ele>407.80</ele>
	<time>2025-04-30T09:44:24.000Z</time>
</trkpt>
<trkpt lat="45.9175820" lon="10.2614930">
	<ele>407.40</ele>
	<time>2025-04-30T09:44:25.000Z</time>
</trkpt>
<trkpt lat="45.9175710" lon="10.2615090">
	<ele>407.00</ele>
	<time>2025-04-30T09:44:26.000Z</time>
</trkpt>
<trkpt lat="45.9175540" lon="10.2615150">
	<ele>406.60</ele>
	<time>2025-04-30T09:44:27.000Z</time>
</trkpt>
<trkpt lat="45.9175420" lon="10.2615270">
	<ele>406.40</ele>
	<time>2025-04-30T09:44:28.000Z</time>
</trkpt>
<trkpt lat="45.9175340" lon="10.2615470">
	<ele>406.20</ele>
	<time>2025-04-30T09:44:29.000Z</time>
</trkpt>
<trkpt lat="45.9175300" lon="10.2615730">
	<ele>406.00</ele>
	<time>2025-04-30T09:44:30.000Z</time>
</trkpt>
<trkpt lat="45.9175310" lon="10.2615930">
	<ele>405.60</ele>
	<time>2025-04-30T09:44:31.000Z</time>
</trkpt>
<trkpt lat="45.9175380" lon="10.2616250">
	<ele>405.60</ele>
	<time>2025-04-30T09:44:32.000Z</time>
</trkpt>
<trkpt lat="45.9175310" lon="10.2616570">
	<ele>405.40</ele>
	<time>2025-04-30T09:44:33.000Z</time>
</trkpt>
<trkpt lat="45.9175210" lon="10.2616780">
	<ele>405.20</ele>
	<time>2025-04-30T09:44:34.000Z</time>
</trkpt>
<trkpt lat="45.9175130" lon="10.2616980">
	<ele>404.80</ele>
	<time>2025-04-30T09:44:35.000Z</time>
</trkpt>
<trkpt lat="45.9175090" lon="10.2617170">
	<ele>404.60</ele>
	<time>2025-04-30T09:44:36.000Z</time>
</trkpt>
<trkpt lat="45.9175070" lon="10.2617290">
	<ele>404.40</ele>
	<time>2025-04-30T09:44:37.000Z</time>
</trkpt>
<trkpt lat="45.9174950" lon="10.2617420">
	<ele>404.20</ele>
	<time>2025-04-30T09:44:38.000Z</time>
</trkpt>
<trkpt lat="45.9174830" lon="10.2617560">
	<ele>404.00</ele>
	<time>2025-04-30T09:44:39.000Z</time>
</trkpt>
<trkpt lat="45.9174770" lon="10.2617700">
	<ele>403.80</ele>
	<time>2025-04-30T09:44:40.000Z</time>
</trkpt>
<trkpt lat="45.9174710" lon="10.2617840">
	<ele>403.40</ele>
	<time>2025-04-30T09:44:41.000Z</time>
</trkpt>
<trkpt lat="45.9174510" lon="10.2617980">
	<ele>403.00</ele>
	<time>2025-04-30T09:44:42.000Z</time>
</trkpt>
<trkpt lat="45.9174490" lon="10.2618180">
	<ele>402.80</ele>
	<time>2025-04-30T09:44:43.000Z</time>
</trkpt>
<trkpt lat="45.9174460" lon="10.2618360">
	<ele>402.60</ele>
	<time>2025-04-30T09:44:44.000Z</time>
</trkpt>
<trkpt lat="45.9174440" lon="10.2618540">
	<ele>402.40</ele>
	<time>2025-04-30T09:44:45.000Z</time>
</trkpt>
<trkpt lat="45.9174460" lon="10.2618770">
	<ele>402.40</ele>
	<time>2025-04-30T09:44:46.000Z</time>
</trkpt>
<trkpt lat="45.9174380" lon="10.2619040">
	<ele>402.20</ele>
	<time>2025-04-30T09:44:47.000Z</time>
</trkpt>
<trkpt lat="45.9174250" lon="10.2619360">
	<ele>402.00</ele>
	<time>2025-04-30T09:44:48.000Z</time>
</trkpt>
<trkpt lat="45.9174160" lon="10.2619530">
	<ele>401.60</ele>
	<time>2025-04-30T09:44:49.000Z</time>
</trkpt>
<trkpt lat="45.9174230" lon="10.2619670">
	<ele>401.40</ele>
	<time>2025-04-30T09:44:50.000Z</time>
</trkpt>
<trkpt lat="45.9174280" lon="10.2619800">
	<ele>401.00</ele>
	<time>2025-04-30T09:44:51.000Z</time>
</trkpt>
<trkpt lat="45.9174330" lon="10.2619890">
	<ele>400.80</ele>
	<time>2025-04-30T09:44:52.000Z</time>
</trkpt>
<trkpt lat="45.9174390" lon="10.2619970">
	<ele>400.80</ele>
	<time>2025-04-30T09:44:53.000Z</time>
</trkpt>
<trkpt lat="45.9174440" lon="10.2620090">
	<ele>400.60</ele>
	<time>2025-04-30T09:44:54.000Z</time>
</trkpt>
<trkpt lat="45.9174540" lon="10.2620220">
	<ele>400.20</ele>
	<time>2025-04-30T09:44:55.000Z</time>
</trkpt>
<trkpt lat="45.9174620" lon="10.2620310">
	<ele>399.80</ele>
	<time>2025-04-30T09:44:56.000Z</time>
</trkpt>
<trkpt lat="45.9174700" lon="10.2620440">
	<ele>399.60</ele>
	<time>2025-04-30T09:44:57.000Z</time>
</trkpt>
<trkpt lat="45.9174770" lon="10.2620560">
	<ele>399.40</ele>
	<time>2025-04-30T09:44:58.000Z</time>
</trkpt>
<trkpt lat="45.9174880" lon="10.2620680">
	<ele>399.20</ele>
	<time>2025-04-30T09:44:59.000Z</time>
</trkpt>
<trkpt lat="45.9174990" lon="10.2620820">
	<ele>398.80</ele>
	<time>2025-04-30T09:45:00.000Z</time>
</trkpt>
<trkpt lat="45.9175140" lon="10.2620990">
	<ele>398.60</ele>
	<time>2025-04-30T09:45:01.000Z</time>
</trkpt>
<trkpt lat="45.9175290" lon="10.2621180">
	<ele>398.40</ele>
	<time>2025-04-30T09:45:02.000Z</time>
</trkpt>
<trkpt lat="45.9175390" lon="10.2621400">
	<ele>398.00</ele>
	<time>2025-04-30T09:45:03.000Z</time>
</trkpt>
<trkpt lat="45.9175440" lon="10.2621670">
	<ele>397.80</ele>
	<time>2025-04-30T09:45:04.000Z</time>
</trkpt>
<trkpt lat="45.9175480" lon="10.2621910">
	<ele>397.60</ele>
	<time>2025-04-30T09:45:05.000Z</time>
</trkpt>
<trkpt lat="45.9175460" lon="10.2622150">
	<ele>397.20</ele>
	<time>2025-04-30T09:45:06.000Z</time>
</trkpt>
<trkpt lat="45.9175470" lon="10.2622430">
	<ele>397.00</ele>
	<time>2025-04-30T09:45:07.000Z</time>
</trkpt>
<trkpt lat="45.9175470" lon="10.2622710">
	<ele>396.80</ele>
	<time>2025-04-30T09:45:08.000Z</time>
</trkpt>
<trkpt lat="45.9175470" lon="10.2622980">
	<ele>396.40</ele>
	<time>2025-04-30T09:45:09.000Z</time>
</trkpt>
<trkpt lat="45.9175450" lon="10.2623250">
	<ele>396.20</ele>
	<time>2025-04-30T09:45:10.000Z</time>
</trkpt>
<trkpt lat="45.9175410" lon="10.2623500">
	<ele>396.00</ele>
	<time>2025-04-30T09:45:11.000Z</time>
</trkpt>
<trkpt lat="45.9175320" lon="10.2623780">
	<ele>395.80</ele>
	<time>2025-04-30T09:45:12.000Z</time>
</trkpt>
<trkpt lat="45.9175210" lon="10.2624020">
	<ele>395.60</ele>
	<time>2025-04-30T09:45:13.000Z</time>
</trkpt>
<trkpt lat="45.9175120" lon="10.2624190">
	<ele>395.40</ele>
	<time>2025-04-30T09:45:14.000Z</time>
</trkpt>
<trkpt lat="45.9174980" lon="10.2624360">
	<ele>395.20</ele>
	<time>2025-04-30T09:45:15.000Z</time>
</trkpt>
<trkpt lat="45.9174810" lon="10.2624480">
	<ele>395.00</ele>
	<time>2025-04-30T09:45:16.000Z</time>
</trkpt>
<trkpt lat="45.9174660" lon="10.2624620">
	<ele>394.60</ele>
	<time>2025-04-30T09:45:17.000Z</time>
</trkpt>
<trkpt lat="45.9174540" lon="10.2624720">
	<ele>394.40</ele>
	<time>2025-04-30T09:45:18.000Z</time>
</trkpt>
<trkpt lat="45.9174310" lon="10.2624930">
	<ele>394.00</ele>
	<time>2025-04-30T09:45:19.000Z</time>
</trkpt>
<trkpt lat="45.9174150" lon="10.2625100">
	<ele>393.60</ele>
	<time>2025-04-30T09:45:20.000Z</time>
</trkpt>
<trkpt lat="45.9174000" lon="10.2625280">
	<ele>393.40</ele>
	<time>2025-04-30T09:45:21.000Z</time>
</trkpt>
<trkpt lat="45.9173950" lon="10.2625470">
	<ele>392.80</ele>
	<time>2025-04-30T09:45:22.000Z</time>
</trkpt>
<trkpt lat="45.9173950" lon="10.2625640">
	<ele>392.60</ele>
	<time>2025-04-30T09:45:23.000Z</time>
</trkpt>
<trkpt lat="45.9173930" lon="10.2625830">
	<ele>392.40</ele>
	<time>2025-04-30T09:45:24.000Z</time>
</trkpt>
<trkpt lat="45.9173940" lon="10.2625850">
	<ele>392.00</ele>
	<time>2025-04-30T09:45:25.000Z</time>
</trkpt>
<trkpt lat="45.9173790" lon="10.2625910">
	<ele>391.80</ele>
	<time>2025-04-30T09:45:26.000Z</time>
</trkpt>
<trkpt lat="45.9173570" lon="10.2625950">
	<ele>391.60</ele>
	<time>2025-04-30T09:45:27.000Z</time>
</trkpt>
<trkpt lat="45.9173230" lon="10.2626000">
	<ele>391.20</ele>
	<time>2025-04-30T09:45:28.000Z</time>
</trkpt>
<trkpt lat="45.9172950" lon="10.2625980">
	<ele>390.80</ele>
	<time>2025-04-30T09:45:29.000Z</time>
</trkpt>
<trkpt lat="45.9172760" lon="10.2625970">
	<ele>390.60</ele>
	<time>2025-04-30T09:45:30.000Z</time>
</trkpt>
<trkpt lat="45.9172550" lon="10.2626010">
	<ele>390.60</ele>
	<time>2025-04-30T09:45:31.000Z</time>
</trkpt>
<trkpt lat="45.9172290" lon="10.2625990">
	<ele>390.20</ele>
	<time>2025-04-30T09:45:32.000Z</time>
</trkpt>
<trkpt lat="45.9172030" lon="10.2625950">
	<ele>390.00</ele>
	<time>2025-04-30T09:45:33.000Z</time>
</trkpt>
<trkpt lat="45.9171780" lon="10.2626040">
	<ele>389.80</ele>
	<time>2025-04-30T09:45:34.000Z</time>
</trkpt>
<trkpt lat="45.9171540" lon="10.2626110">
	<ele>389.80</ele>
	<time>2025-04-30T09:45:35.000Z</time>
</trkpt>
<trkpt lat="45.9171280" lon="10.2626160">
	<ele>389.60</ele>
	<time>2025-04-30T09:45:36.000Z</time>
</trkpt>
<trkpt lat="45.9171090" lon="10.2626280">
	<ele>389.40</ele>
	<time>2025-04-30T09:45:37.000Z</time>
</trkpt>
<trkpt lat="45.9170930" lon="10.2626230">
	<ele>389.00</ele>
	<time>2025-04-30T09:45:38.000Z</time>
</trkpt>
<trkpt lat="45.9170770" lon="10.2626150">
	<ele>388.80</ele>
	<time>2025-04-30T09:45:39.000Z</time>
</trkpt>
<trkpt lat="45.9170590" lon="10.2626080">
	<ele>388.40</ele>
	<time>2025-04-30T09:45:40.000Z</time>
</trkpt>
<trkpt lat="45.9170350" lon="10.2625950">
	<ele>388.20</ele>
	<time>2025-04-30T09:45:41.000Z</time>
</trkpt>
<trkpt lat="45.9170200" lon="10.2625890">
	<ele>388.00</ele>
	<time>2025-04-30T09:45:42.000Z</time>
</trkpt>
<trkpt lat="45.9169990" lon="10.2626030">
	<ele>387.60</ele>
	<time>2025-04-30T09:45:43.000Z</time>
</trkpt>
<trkpt lat="45.9169840" lon="10.2626090">
	<ele>387.60</ele>
	<time>2025-04-30T09:45:44.000Z</time>
</trkpt>
<trkpt lat="45.9169640" lon="10.2625870">
	<ele>387.40</ele>
	<time>2025-04-30T09:45:45.000Z</time>
</trkpt>
<trkpt lat="45.9169520" lon="10.2625780">
	<ele>387.20</ele>
	<time>2025-04-30T09:45:46.000Z</time>
</trkpt>
<trkpt lat="45.9169410" lon="10.2625750">
	<ele>387.20</ele>
	<time>2025-04-30T09:45:47.000Z</time>
</trkpt>
<trkpt lat="45.9169340" lon="10.2625700">
	<ele>387.20</ele>
	<time>2025-04-30T09:45:48.000Z</time>
</trkpt>
<trkpt lat="45.9169570" lon="10.2625610">
	<ele>387.00</ele>
	<time>2025-04-30T09:45:49.000Z</time>
</trkpt>
<trkpt lat="45.9169780" lon="10.2625560">
	<ele>386.80</ele>
	<time>2025-04-30T09:45:50.000Z</time>
</trkpt>
<trkpt lat="45.9169760" lon="10.2625660">
	<ele>386.80</ele>
	<time>2025-04-30T09:45:51.000Z</time>
</trkpt>
<trkpt lat="45.9169660" lon="10.2625680">
	<ele>386.60</ele>
	<time>2025-04-30T09:45:52.000Z</time>
</trkpt>
<trkpt lat="45.9169540" lon="10.2625750">
	<ele>386.60</ele>
	<time>2025-04-30T09:45:53.000Z</time>
</trkpt>
<trkpt lat="45.9169520" lon="10.2625810">
	<ele>386.60</ele>
	<time>2025-04-30T09:45:54.000Z</time>
</trkpt>
<trkpt lat="45.9169480" lon="10.2625850">
	<ele>386.60</ele>
	<time>2025-04-30T09:45:55.000Z</time>
</trkpt>
<trkpt lat="45.9169350" lon="10.2625960">
	<ele>386.40</ele>
	<time>2025-04-30T09:45:56.000Z</time>
</trkpt>
<trkpt lat="45.9169220" lon="10.2626030">
	<ele>386.20</ele>
	<time>2025-04-30T09:45:57.000Z</time>
</trkpt>
<trkpt lat="45.9169220" lon="10.2625960">
	<ele>386.00</ele>
	<time>2025-04-30T09:45:58.000Z</time>
</trkpt>
<trkpt lat="45.9169220" lon="10.2625950">
	<ele>385.80</ele>
	<time>2025-04-30T09:45:59.000Z</time>
</trkpt>
<trkpt lat="45.9169190" lon="10.2625960">
	<ele>385.60</ele>
	<time>2025-04-30T09:46:00.000Z</time>
</trkpt>
<trkpt lat="45.9169160" lon="10.2626000">
	<ele>385.60</ele>
	<time>2025-04-30T09:46:01.000Z</time>
</trkpt>
<trkpt lat="45.9169050" lon="10.2626090">
	<ele>385.60</ele>
	<time>2025-04-30T09:46:02.000Z</time>
</trkpt>
<trkpt lat="45.9168850" lon="10.2626150">
	<ele>385.40</ele>
	<time>2025-04-30T09:46:03.000Z</time>
</trkpt>
<trkpt lat="45.9168630" lon="10.2626310">
	<ele>385.40</ele>
	<time>2025-04-30T09:46:04.000Z</time>
</trkpt>
<trkpt lat="45.9168420" lon="10.2626410">
	<ele>385.20</ele>
	<time>2025-04-30T09:46:05.000Z</time>
</trkpt>
<trkpt lat="45.9168280" lon="10.2626340">
	<ele>385.20</ele>
	<time>2025-04-30T09:46:06.000Z</time>
</trkpt>
<trkpt lat="45.9168250" lon="10.2626380">
	<ele>385.00</ele>
	<time>2025-04-30T09:46:07.000Z</time>
</trkpt>
<trkpt lat="45.9168110" lon="10.2626510">
	<ele>385.00</ele>
	<time>2025-04-30T09:46:08.000Z</time>
</trkpt>
<trkpt lat="45.9167970" lon="10.2626600">
	<ele>384.80</ele>
	<time>2025-04-30T09:46:09.000Z</time>
</trkpt>
<trkpt lat="45.9167870" lon="10.2626590">
	<ele>384.80</ele>
	<time>2025-04-30T09:46:10.000Z</time>
</trkpt>
<trkpt lat="45.9167760" lon="10.2626630">
	<ele>384.80</ele>
	<time>2025-04-30T09:46:11.000Z</time>
</trkpt>
<trkpt lat="45.9167650" lon="10.2626670">
	<ele>384.80</ele>
	<time>2025-04-30T09:46:12.000Z</time>
</trkpt>
<trkpt lat="45.9167650" lon="10.2626710">
	<ele>384.60</ele>
	<time>2025-04-30T09:46:13.000Z</time>
</trkpt>
<trkpt lat="45.9167570" lon="10.2626810">
	<ele>384.40</ele>
	<time>2025-04-30T09:46:14.000Z</time>
</trkpt>
<trkpt lat="45.9167490" lon="10.2626930">
	<ele>384.40</ele>
	<time>2025-04-30T09:46:15.000Z</time>
</trkpt>
<trkpt lat="45.9167380" lon="10.2627070">
	<ele>384.20</ele>
	<time>2025-04-30T09:46:16.000Z</time>
</trkpt>
<trkpt lat="45.9167210" lon="10.2627130">
	<ele>384.00</ele>
	<time>2025-04-30T09:46:17.000Z</time>
</trkpt>
<trkpt lat="45.9167000" lon="10.2627170">
	<ele>384.00</ele>
	<time>2025-04-30T09:46:18.000Z</time>
</trkpt>
<trkpt lat="45.9166800" lon="10.2627330">
	<ele>384.00</ele>
	<time>2025-04-30T09:46:19.000Z</time>
</trkpt>
<trkpt lat="45.9166610" lon="10.2627460">
	<ele>383.80</ele>
	<time>2025-04-30T09:46:20.000Z</time>
</trkpt>
<trkpt lat="45.9166390" lon="10.2627620">
	<ele>383.60</ele>
	<time>2025-04-30T09:46:21.000Z</time>
</trkpt>
<trkpt lat="45.9166190" lon="10.2627740">
	<ele>383.60</ele>
	<time>2025-04-30T09:46:22.000Z</time>
</trkpt>
<trkpt lat="45.9166010" lon="10.2627890">
	<ele>383.60</ele>
	<time>2025-04-30T09:46:23.000Z</time>
</trkpt>
<trkpt lat="45.9165890" lon="10.2627970">
	<ele>383.40</ele>
	<time>2025-04-30T09:46:24.000Z</time>
</trkpt>
<trkpt lat="45.9165770" lon="10.2628000">
	<ele>383.20</ele>
	<time>2025-04-30T09:46:25.000Z</time>
</trkpt>
<trkpt lat="45.9165680" lon="10.2628100">
	<ele>383.20</ele>
	<time>2025-04-30T09:46:26.000Z</time>
</trkpt>
<trkpt lat="45.9165540" lon="10.2628260">
	<ele>383.20</ele>
	<time>2025-04-30T09:46:27.000Z</time>
</trkpt>
<trkpt lat="45.9165450" lon="10.2628440">
	<ele>383.20</ele>
	<time>2025-04-30T09:46:28.000Z</time>
</trkpt>
<trkpt lat="45.9165240" lon="10.2628600">
	<ele>383.00</ele>
	<time>2025-04-30T09:46:29.000Z</time>
</trkpt>
<trkpt lat="45.9164900" lon="10.2628690">
	<ele>383.00</ele>
	<time>2025-04-30T09:46:30.000Z</time>
</trkpt>
<trkpt lat="45.9164670" lon="10.2628640">
	<ele>382.80</ele>
	<time>2025-04-30T09:46:31.000Z</time>
</trkpt>
<trkpt lat="45.9164450" lon="10.2628610">
	<ele>382.60</ele>
	<time>2025-04-30T09:46:32.000Z</time>
</trkpt>
<trkpt lat="45.9164230" lon="10.2628490">
	<ele>382.40</ele>
	<time>2025-04-30T09:46:33.000Z</time>
</trkpt>
<trkpt lat="45.9164030" lon="10.2628490">
	<ele>382.40</ele>
	<time>2025-04-30T09:46:34.000Z</time>
</trkpt>
<trkpt lat="45.9163850" lon="10.2628510">
	<ele>382.20</ele>
	<time>2025-04-30T09:46:35.000Z</time>
</trkpt>
<trkpt lat="45.9163660" lon="10.2628530">
	<ele>382.20</ele>
	<time>2025-04-30T09:46:36.000Z</time>
</trkpt>
<trkpt lat="45.9163470" lon="10.2628480">
	<ele>382.20</ele>
	<time>2025-04-30T09:46:37.000Z</time>
</trkpt>
<trkpt lat="45.9163160" lon="10.2628600">
	<ele>382.20</ele>
	<time>2025-04-30T09:46:38.000Z</time>
</trkpt>
<trkpt lat="45.9162990" lon="10.2628490">
	<ele>382.00</ele>
	<time>2025-04-30T09:46:39.000Z</time>
</trkpt>
<trkpt lat="45.9162710" lon="10.2628530">
	<ele>382.00</ele>
	<time>2025-04-30T09:46:40.000Z</time>
</trkpt>
<trkpt lat="45.9162390" lon="10.2628590">
	<ele>382.00</ele>
	<time>2025-04-30T09:46:41.000Z</time>
</trkpt>
<trkpt lat="45.9162140" lon="10.2628660">
	<ele>382.00</ele>
	<time>2025-04-30T09:46:42.000Z</time>
</trkpt>
<trkpt lat="45.9161940" lon="10.2628700">
	<ele>382.00</ele>
	<time>2025-04-30T09:46:43.000Z</time>
</trkpt>
<trkpt lat="45.9161750" lon="10.2628800">
	<ele>382.00</ele>
	<time>2025-04-30T09:46:44.000Z</time>
</trkpt>
<trkpt lat="45.9161650" lon="10.2629000">
	<ele>382.00</ele>
	<time>2025-04-30T09:46:45.000Z</time>
</trkpt>
<trkpt lat="45.9161550" lon="10.2629120">
	<ele>382.00</ele>
	<time>2025-04-30T09:46:46.000Z</time>
</trkpt>
<trkpt lat="45.9161590" lon="10.2629140">
	<ele>382.20</ele>
	<time>2025-04-30T09:46:47.000Z</time>
</trkpt>
<trkpt lat="45.9161660" lon="10.2629130">
	<ele>382.20</ele>
	<time>2025-04-30T09:46:48.000Z</time>
</trkpt>
<trkpt lat="45.9161630" lon="10.2629110">
	<ele>382.00</ele>
	<time>2025-04-30T09:46:49.000Z</time>
</trkpt>
<trkpt lat="45.9161660" lon="10.2629110">
	<ele>382.00</ele>
	<time>2025-04-30T09:46:50.000Z</time>
</trkpt>
<trkpt lat="45.9161660" lon="10.2629100">
	<ele>381.80</ele>
	<time>2025-04-30T09:46:51.000Z</time>
</trkpt>
<trkpt lat="45.9161660" lon="10.2629100">
	<ele>381.80</ele>
	<time>2025-04-30T09:46:52.000Z</time>
</trkpt>
<trkpt lat="45.9161650" lon="10.2629100">
	<ele>381.60</ele>
	<time>2025-04-30T09:46:53.000Z</time>
</trkpt>
<trkpt lat="45.9161640" lon="10.2629100">
	<ele>381.60</ele>
	<time>2025-04-30T09:46:54.000Z</time>
</trkpt>
<trkpt lat="45.9161640" lon="10.2629100">
	<ele>381.60</ele>
	<time>2025-04-30T09:46:55.000Z</time>
</trkpt>
<trkpt lat="45.9161650" lon="10.2629090">
	<ele>381.60</ele>
	<time>2025-04-30T09:46:56.000Z</time>
</trkpt>
<trkpt lat="45.9161660" lon="10.2629090">
	<ele>381.40</ele>
	<time>2025-04-30T09:46:57.000Z</time>
</trkpt>
<trkpt lat="45.9161670" lon="10.2629070">
	<ele>381.40</ele>
	<time>2025-04-30T09:46:58.000Z</time>
</trkpt>
<trkpt lat="45.9161670" lon="10.2629070">
	<ele>381.40</ele>
	<time>2025-04-30T09:46:59.000Z</time>
</trkpt>
<trkpt lat="45.9161670" lon="10.2629070">
	<ele>381.40</ele>
	<time>2025-04-30T09:47:00.000Z</time>
</trkpt>
<trkpt lat="45.9161670" lon="10.2629070">
	<ele>381.40</ele>
	<time>2025-04-30T09:47:01.000Z</time>
</trkpt>
<trkpt lat="45.9161670" lon="10.2629070">
	<ele>381.40</ele>
	<time>2025-04-30T09:47:02.000Z</time>
</trkpt>
<trkpt lat="45.9161670" lon="10.2629070">
	<ele>381.40</ele>
	<time>2025-04-30T09:47:03.000Z</time>
</trkpt>
<trkpt lat="45.9161670" lon="10.2629070">
	<ele>381.40</ele>
	<time>2025-04-30T09:47:04.000Z</time>
</trkpt>
<trkpt lat="45.9161670" lon="10.2629070">
	<ele>381.40</ele>
	<time>2025-04-30T09:47:05.000Z</time>
</trkpt>
<trkpt lat="45.9161670" lon="10.2629070">
	<ele>381.40</ele>
	<time>2025-04-30T09:47:06.000Z</time>
</trkpt>
<trkpt lat="45.9161670" lon="10.2629070">
	<ele>381.40</ele>
	<time>2025-04-30T09:47:07.000Z</time>
</trkpt>
<trkpt lat="45.9161670" lon="10.2629070">
	<ele>381.40</ele>
	<time>2025-04-30T09:47:08.000Z</time>
</trkpt>
<trkpt lat="45.9161660" lon="10.2629070">
	<ele>381.40</ele>
	<time>2025-04-30T09:47:09.000Z</time>
</trkpt>
<trkpt lat="45.9161660" lon="10.2629070">
	<ele>381.40</ele>
	<time>2025-04-30T09:47:10.000Z</time>
</trkpt>
<trkpt lat="45.9161660" lon="10.2629070">
	<ele>381.40</ele>
	<time>2025-04-30T09:47:11.000Z</time>
</trkpt>
<trkpt lat="45.9161660" lon="10.2629070">
	<ele>381.40</ele>
	<time>2025-04-30T09:47:12.000Z</time>
</trkpt>
<trkpt lat="45.9161660" lon="10.2629070">
	<ele>381.40</ele>
	<time>2025-04-30T09:47:13.000Z</time>
</trkpt>
<trkpt lat="45.9161660" lon="10.2629070">
	<ele>381.40</ele>
	<time>2025-04-30T09:47:14.000Z</time>
</trkpt>
<trkpt lat="45.9161660" lon="10.2629070">
	<ele>381.40</ele>
	<time>2025-04-30T09:47:15.000Z</time>
</trkpt>
<trkpt lat="45.9161660" lon="10.2629060">
	<ele>381.40</ele>
	<time>2025-04-30T09:47:16.000Z</time>
</trkpt>
<trkpt lat="45.9161660" lon="10.2629060">
	<ele>381.40</ele>
	<time>2025-04-30T09:47:17.000Z</time>
</trkpt>
<trkpt lat="45.9161660" lon="10.2629060">
	<ele>381.40</ele>
	<time>2025-04-30T09:47:18.000Z</time>
</trkpt>
<trkpt lat="45.9161660" lon="10.2629050">
	<ele>381.40</ele>
	<time>2025-04-30T09:47:19.000Z</time>
</trkpt>
<trkpt lat="45.9161660" lon="10.2629050">
	<ele>381.60</ele>
	<time>2025-04-30T09:47:20.000Z</time>
</trkpt>
<trkpt lat="45.9161660" lon="10.2629040">
	<ele>381.60</ele>
	<time>2025-04-30T09:47:21.000Z</time>
</trkpt>
<trkpt lat="45.9161670" lon="10.2629040">
	<ele>381.60</ele>
	<time>2025-04-30T09:47:22.000Z</time>
</trkpt>
<trkpt lat="45.9161670" lon="10.2629040">
	<ele>381.60</ele>
	<time>2025-04-30T09:47:23.000Z</time>
</trkpt>
<trkpt lat="45.9161670" lon="10.2629040">
	<ele>381.80</ele>
	<time>2025-04-30T09:47:24.000Z</time>
</trkpt>
<trkpt lat="45.9161670" lon="10.2629040">
	<ele>381.80</ele>
	<time>2025-04-30T09:47:25.000Z</time>
</trkpt>
<trkpt lat="45.9161680" lon="10.2629040">
	<ele>381.80</ele>
	<time>2025-04-30T09:47:26.000Z</time>
</trkpt>
<trkpt lat="45.9161680" lon="10.2629040">
	<ele>381.80</ele>
	<time>2025-04-30T09:47:27.000Z</time>
</trkpt>
<trkpt lat="45.9161680" lon="10.2629040">
	<ele>381.80</ele>
	<time>2025-04-30T09:47:28.000Z</time>
</trkpt>
<trkpt lat="45.9161680" lon="10.2629040">
	<ele>381.80</ele>
	<time>2025-04-30T09:47:29.000Z</time>
</trkpt>
</trkseg>
</trk>
</gpx>
